<?xml version="1.0" encoding="ISO-8859-1"?>
<gpx xmlns="http://www.topografix.com/GPX/1/1" version="1.1" creator="Sports Tracker" xmlns:xsi="http://www.w3.org/2001/XMLSchema-instance" xsi:schemaLocation="http://www.topografix.com/GPX/1/1 http://www.topografix.com/GPX/1/1/gpx.xsd">
<metadata>
<name><![CDATA[24.10.2010 10:10]]></name>
<desc><![CDATA[Bodosweg]]></desc>
<author><name><![CDATA[Bodosweg]]></name></author>
<time>2010-10-24T10:22:06.84</time>
</metadata>
<trk>
<name><![CDATA[24.10.2010 10:10]]></name>
<trkseg>
<trkpt lat="48.943520" lon="8.666383">
<ele>331.0</ele>
<speed>1.02</speed>
<course>333.0</course>
<desc>Speed 3.7 km/h Distance 0.00 km</desc>
<time>2010-10-24T10:22:08.12</time>
<name>1</name>
</trkpt>
<trkpt lat="48.943535" lon="8.666372">
<ele>331.5</ele>
<speed>1.58</speed>
<course>318.8</course>
<desc>Speed 5.7 km/h Distance 0.00 km</desc>
<time>2010-10-24T10:22:09.26</time>
<name>2</name>
</trkpt>
<trkpt lat="48.943545" lon="8.666358">
<ele>331.5</ele>
<speed>1.58</speed>
<course>270.0</course>
<desc>Speed 5.7 km/h Distance 0.00 km</desc>
<time>2010-10-24T10:22:10.11</time>
<name>3</name>
</trkpt>
<trkpt lat="48.943545" lon="8.666345">
<ele>331.5</ele>
<speed>1.38</speed>
<course>347.4</course>
<desc>Speed 5.0 km/h Distance 0.00 km</desc>
<time>2010-10-24T10:22:11.11</time>
<name>4</name>
</trkpt>
<trkpt lat="48.943548" lon="8.666343">
<ele>332.0</ele>
<speed>1.64</speed>
<course>315.5</course>
<desc>Speed 5.9 km/h Distance 0.00 km</desc>
<time>2010-10-24T10:22:12.10</time>
<name>5</name>
</trkpt>
<trkpt lat="48.943552" lon="8.666338">
<ele>332.0</ele>
<speed>0.61</speed>
<course>308.1</course>
<desc>Speed 2.2 km/h Distance 0.01 km</desc>
<time>2010-10-24T10:22:13.09</time>
<name>6</name>
</trkpt>
<trkpt lat="48.943553" lon="8.666335">
<ele>332.0</ele>
<speed>0.61</speed>
<course>301.4</course>
<desc>Speed 2.2 km/h Distance 0.01 km</desc>
<time>2010-10-24T10:22:14.07</time>
<name>7</name>
</trkpt>
<trkpt lat="48.943560" lon="8.666318">
<ele>332.0</ele>
<speed>0.49</speed>
<course>299.7</course>
<desc>Speed 1.8 km/h Distance 0.01 km</desc>
<time>2010-10-24T10:22:15.08</time>
<name>8</name>
</trkpt>
<trkpt lat="48.943565" lon="8.666305">
<ele>332.0</ele>
<speed>0.61</speed>
<course>94.1</course>
<desc>Speed 2.2 km/h Distance 0.01 km</desc>
<time>2010-10-24T10:22:16.07</time>
<name>9</name>
</trkpt>
<trkpt lat="48.943560" lon="8.666410">
<ele>333.0</ele>
<speed>1.25</speed>
<course>337.8</course>
<desc>Speed 4.5 km/h Distance 0.02 km</desc>
<time>2010-10-24T10:22:18.07</time>
<name>10</name>
</trkpt>
<trkpt lat="48.943565" lon="8.666407">
<ele>333.5</ele>
<speed>0.56</speed>
<course>289.7</course>
<desc>Speed 2.0 km/h Distance 0.02 km</desc>
<time>2010-10-24T10:22:19.07</time>
<name>11</name>
</trkpt>
<trkpt lat="48.943572" lon="8.666378">
<ele>333.5</ele>
<speed>1.25</speed>
<course>288.1</course>
<desc>Speed 4.5 km/h Distance 0.02 km</desc>
<time>2010-10-24T10:22:20.09</time>
<name>12</name>
</trkpt>
<trkpt lat="48.943577" lon="8.666355">
<ele>333.5</ele>
<speed>1.25</speed>
<course>282.3</course>
<desc>Speed 4.5 km/h Distance 0.02 km</desc>
<time>2010-10-24T10:22:21.07</time>
<name>13</name>
</trkpt>
<trkpt lat="48.943580" lon="8.666332">
<ele>333.5</ele>
<speed>1.34</speed>
<course>279.6</course>
<desc>Speed 4.8 km/h Distance 0.02 km</desc>
<time>2010-10-24T10:22:22.05</time>
<name>14</name>
</trkpt>
<trkpt lat="48.943583" lon="8.666302">
<ele>333.5</ele>
<speed>1.57</speed>
<course>277.9</course>
<desc>Speed 5.7 km/h Distance 0.02 km</desc>
<time>2010-10-24T10:22:23.05</time>
<name>15</name>
</trkpt>
<trkpt lat="48.943587" lon="8.666265">
<ele>334.0</ele>
<speed>1.75</speed>
<course>264.6</course>
<desc>Speed 6.3 km/h Distance 0.03 km</desc>
<time>2010-10-24T10:22:24.05</time>
<name>16</name>
</trkpt>
<trkpt lat="48.943585" lon="8.666238">
<ele>334.0</ele>
<speed>1.49</speed>
<course>270.0</course>
<desc>Speed 5.4 km/h Distance 0.03 km</desc>
<time>2010-10-24T10:22:25.05</time>
<name>17</name>
</trkpt>
<trkpt lat="48.943585" lon="8.666213">
<ele>334.0</ele>
<speed>1.59</speed>
<course>270.0</course>
<desc>Speed 5.7 km/h Distance 0.03 km</desc>
<time>2010-10-24T10:22:26.04</time>
<name>18</name>
</trkpt>
<trkpt lat="48.943585" lon="8.666187">
<ele>334.0</ele>
<speed>1.51</speed>
<course>264.9</course>
<desc>Speed 5.4 km/h Distance 0.03 km</desc>
<time>2010-10-24T10:22:27.04</time>
<name>19</name>
</trkpt>
<trkpt lat="48.943583" lon="8.666158">
<ele>334.0</ele>
<speed>1.65</speed>
<course>265.9</course>
<desc>Speed 5.9 km/h Distance 0.03 km</desc>
<time>2010-10-24T10:22:28.03</time>
<name>20</name>
</trkpt>
<trkpt lat="48.943582" lon="8.666123">
<ele>334.0</ele>
<speed>2.09</speed>
<course>236.9</course>
<desc>Speed 7.5 km/h Distance 0.04 km</desc>
<time>2010-10-24T10:22:29.03</time>
<name>21</name>
</trkpt>
<trkpt lat="48.943577" lon="8.666112">
<ele>334.0</ele>
<speed>0.88</speed>
<course>258.5</course>
<desc>Speed 3.2 km/h Distance 0.04 km</desc>
<time>2010-10-24T10:22:30.03</time>
<name>22</name>
</trkpt>
<trkpt lat="48.943573" lon="8.666087">
<ele>334.0</ele>
<speed>1.44</speed>
<course>250.6</course>
<desc>Speed 5.2 km/h Distance 0.04 km</desc>
<time>2010-10-24T10:22:31.02</time>
<name>23</name>
</trkpt>
<trkpt lat="48.943568" lon="8.666065">
<ele>334.5</ele>
<speed>1.59</speed>
<course>239.7</course>
<desc>Speed 5.7 km/h Distance 0.04 km</desc>
<time>2010-10-24T10:22:32.02</time>
<name>24</name>
</trkpt>
<trkpt lat="48.943560" lon="8.666043">
<ele>335.0</ele>
<speed>1.59</speed>
<course>244.9</course>
<desc>Speed 5.7 km/h Distance 0.04 km</desc>
<time>2010-10-24T10:22:33.01</time>
<name>25</name>
</trkpt>
<trkpt lat="48.943553" lon="8.666022">
<ele>335.0</ele>
<speed>1.59</speed>
<course>249.2</course>
<desc>Speed 5.7 km/h Distance 0.05 km</desc>
<time>2010-10-24T10:22:34.00</time>
<name>26</name>
</trkpt>
<trkpt lat="48.943548" lon="8.666002">
<ele>335.0</ele>
<speed>1.54</speed>
<course>256.8</course>
<desc>Speed 5.5 km/h Distance 0.05 km</desc>
<time>2010-10-24T10:22:35.00</time>
<name>27</name>
</trkpt>
<trkpt lat="48.943545" lon="8.665980">
<ele>335.5</ele>
<speed>1.39</speed>
<course>275.4</course>
<desc>Speed 5.0 km/h Distance 0.05 km</desc>
<time>2010-10-24T10:22:35.99</time>
<name>28</name>
</trkpt>
<trkpt lat="48.943547" lon="8.665953">
<ele>334.0</ele>
<speed>1.85</speed>
<course>292.1</course>
<desc>Speed 6.7 km/h Distance 0.05 km</desc>
<time>2010-10-24T10:22:36.99</time>
<name>29</name>
</trkpt>
<trkpt lat="48.943553" lon="8.665928">
<ele>332.5</ele>
<speed>1.92</speed>
<course>293.5</course>
<desc>Speed 6.9 km/h Distance 0.05 km</desc>
<time>2010-10-24T10:22:37.98</time>
<name>30</name>
</trkpt>
<trkpt lat="48.943557" lon="8.665917">
<ele>332.5</ele>
<speed>1.03</speed>
<course>280.7</course>
<desc>Speed 3.7 km/h Distance 0.05 km</desc>
<time>2010-10-24T10:22:38.98</time>
<name>31</name>
</trkpt>
<trkpt lat="48.943558" lon="8.665903">
<ele>332.5</ele>
<speed>1.07</speed>
<course>270.0</course>
<desc>Speed 3.9 km/h Distance 0.05 km</desc>
<time>2010-10-24T10:22:39.97</time>
<name>32</name>
</trkpt>
<trkpt lat="48.943558" lon="8.665888">
<ele>332.5</ele>
<speed>1.22</speed>
<course>290.8</course>
<desc>Speed 4.4 km/h Distance 0.06 km</desc>
<time>2010-10-24T10:22:40.97</time>
<name>33</name>
</trkpt>
<trkpt lat="48.943563" lon="8.665868">
<ele>331.0</ele>
<speed>1.65</speed>
<course>309.8</course>
<desc>Speed 5.9 km/h Distance 0.06 km</desc>
<time>2010-10-24T10:22:41.96</time>
<name>34</name>
</trkpt>
<trkpt lat="48.943573" lon="8.665850">
<ele>330.0</ele>
<speed>1.76</speed>
<course>320.6</course>
<desc>Speed 6.3 km/h Distance 0.06 km</desc>
<time>2010-10-24T10:22:42.96</time>
<name>35</name>
</trkpt>
<trkpt lat="48.943580" lon="8.665842">
<ele>329.5</ele>
<speed>0.93</speed>
<course>327.7</course>
<desc>Speed 3.3 km/h Distance 0.06 km</desc>
<time>2010-10-24T10:22:43.95</time>
<name>36</name>
</trkpt>
<trkpt lat="48.943585" lon="8.665837">
<ele>330.0</ele>
<speed>0.58</speed>
<course>301.4</course>
<desc>Speed 2.1 km/h Distance 0.06 km</desc>
<time>2010-10-24T10:22:44.95</time>
<name>37</name>
</trkpt>
<trkpt lat="48.943588" lon="8.665828">
<ele>330.0</ele>
<speed>0.60</speed>
<course>326.8</course>
<desc>Speed 2.2 km/h Distance 0.06 km</desc>
<time>2010-10-24T10:22:46.95</time>
<name>38</name>
</trkpt>
<trkpt lat="48.943593" lon="8.665823">
<ele>330.0</ele>
<speed>0.56</speed>
<course>313.5</course>
<desc>Speed 2.0 km/h Distance 0.06 km</desc>
<time>2010-10-24T10:22:47.95</time>
<name>39</name>
</trkpt>
<trkpt lat="48.943602" lon="8.665810">
<ele>330.5</ele>
<speed>0.67</speed>
<course>310.9</course>
<desc>Speed 2.4 km/h Distance 0.06 km</desc>
<time>2010-10-24T10:22:49.95</time>
<name>40</name>
</trkpt>
<trkpt lat="48.943608" lon="8.665798">
<ele>330.0</ele>
<speed>1.02</speed>
<course>284.1</course>
<desc>Speed 3.7 km/h Distance 0.06 km</desc>
<time>2010-10-24T10:22:50.95</time>
<name>41</name>
</trkpt>
<trkpt lat="48.943610" lon="8.665788">
<ele>330.5</ele>
<speed>0.36</speed>
<course>336.2</course>
<desc>Speed 1.3 km/h Distance 0.07 km</desc>
<time>2010-10-24T10:22:52.94</time>
<name>42</name>
</trkpt>
<trkpt lat="48.943615" lon="8.665785">
<ele>330.5</ele>
<speed>0.62</speed>
<course>352.6</course>
<desc>Speed 2.2 km/h Distance 0.07 km</desc>
<time>2010-10-24T10:22:53.94</time>
<name>43</name>
</trkpt>
<trkpt lat="48.943622" lon="8.665783">
<ele>329.5</ele>
<speed>0.85</speed>
<course>326.3</course>
<desc>Speed 3.1 km/h Distance 0.07 km</desc>
<time>2010-10-24T10:22:54.96</time>
<name>44</name>
</trkpt>
<trkpt lat="48.943625" lon="8.665780">
<ele>330.0</ele>
<speed>0.46</speed>
<course>307.3</course>
<desc>Speed 1.7 km/h Distance 0.07 km</desc>
<time>2010-10-24T10:22:55.95</time>
<name>45</name>
</trkpt>
<trkpt lat="48.943632" lon="8.665767">
<ele>330.5</ele>
<speed>0.43</speed>
<course>293.5</course>
<desc>Speed 1.5 km/h Distance 0.07 km</desc>
<time>2010-10-24T10:22:57.92</time>
<name>46</name>
</trkpt>
<trkpt lat="48.943635" lon="8.665755">
<ele>331.5</ele>
<speed>0.47</speed>
<course>326.3</course>
<desc>Speed 1.7 km/h Distance 0.07 km</desc>
<time>2010-10-24T10:22:59.92</time>
<name>47</name>
</trkpt>
<trkpt lat="48.943638" lon="8.665752">
<ele>331.5</ele>
<speed>0.51</speed>
<course>270.0</course>
<desc>Speed 1.8 km/h Distance 0.07 km</desc>
<time>2010-10-24T10:23:00.91</time>
<name>48</name>
</trkpt>
<trkpt lat="48.943638" lon="8.665740">
<ele>332.0</ele>
<speed>0.36</speed>
<course>288.7</course>
<desc>Speed 1.3 km/h Distance 0.07 km</desc>
<time>2010-10-24T10:23:02.90</time>
<name>49</name>
</trkpt>
<trkpt lat="48.943642" lon="8.665725">
<ele>332.5</ele>
<speed>0.44</speed>
<course>301.4</course>
<desc>Speed 1.6 km/h Distance 0.07 km</desc>
<time>2010-10-24T10:23:04.89</time>
<name>50</name>
</trkpt>
<trkpt lat="48.943645" lon="8.665717">
<ele>333.0</ele>
<speed>0.70</speed>
<course>319.1</course>
<desc>Speed 2.5 km/h Distance 0.07 km</desc>
<time>2010-10-24T10:23:05.89</time>
<name>51</name>
</trkpt>
<trkpt lat="48.943650" lon="8.665710">
<ele>333.0</ele>
<speed>0.57</speed>
<course>12.6</course>
<desc>Speed 2.1 km/h Distance 0.07 km</desc>
<time>2010-10-24T10:23:06.89</time>
<name>52</name>
</trkpt>
<trkpt lat="48.943653" lon="8.665712">
<ele>333.0</ele>
<speed>0.40</speed>
<course>341.2</course>
<desc>Speed 1.4 km/h Distance 0.07 km</desc>
<time>2010-10-24T10:23:07.88</time>
<name>53</name>
</trkpt>
<trkpt lat="48.943657" lon="8.665710">
<ele>333.0</ele>
<speed>0.33</speed>
<course>296.9</course>
<desc>Speed 1.2 km/h Distance 0.07 km</desc>
<time>2010-10-24T10:23:08.88</time>
<name>54</name>
</trkpt>
<trkpt lat="48.943663" lon="8.665690">
<ele>334.0</ele>
<speed>0.34</speed>
<course>320.6</course>
<desc>Speed 1.2 km/h Distance 0.08 km</desc>
<time>2010-10-24T10:23:11.88</time>
<name>55</name>
</trkpt>
<trkpt lat="48.943670" lon="8.665682">
<ele>332.5</ele>
<speed>0.49</speed>
<course>315.5</course>
<desc>Speed 1.8 km/h Distance 0.08 km</desc>
<time>2010-10-24T10:23:12.87</time>
<name>56</name>
</trkpt>
<trkpt lat="48.943677" lon="8.665672">
<ele>331.5</ele>
<speed>0.43</speed>
<course>242.6</course>
<desc>Speed 1.5 km/h Distance 0.08 km</desc>
<time>2010-10-24T10:23:13.87</time>
<name>57</name>
</trkpt>
<trkpt lat="48.943675" lon="8.665667">
<ele>332.5</ele>
<speed>0.31</speed>
<course>284.2</course>
<desc>Speed 1.1 km/h Distance 0.08 km</desc>
<time>2010-10-24T10:23:14.87</time>
<name>58</name>
</trkpt>
<trkpt lat="48.943678" lon="8.665647">
<ele>333.5</ele>
<speed>0.30</speed>
<course>307.3</course>
<desc>Speed 1.1 km/h Distance 0.08 km</desc>
<time>2010-10-24T10:23:16.86</time>
<name>59</name>
</trkpt>
<trkpt lat="48.943690" lon="8.665623">
<ele>332.5</ele>
<speed>0.68</speed>
<course>288.1</course>
<desc>Speed 2.4 km/h Distance 0.08 km</desc>
<time>2010-10-24T10:23:17.86</time>
<name>60</name>
</trkpt>
<trkpt lat="48.943695" lon="8.665600">
<ele>331.5</ele>
<speed>0.87</speed>
<course>205.4</course>
<desc>Speed 3.1 km/h Distance 0.08 km</desc>
<time>2010-10-24T10:23:18.85</time>
<name>61</name>
</trkpt>
<trkpt lat="48.943690" lon="8.665597">
<ele>331.0</ele>
<speed>0.64</speed>
<course>251.3</course>
<desc>Speed 2.3 km/h Distance 0.08 km</desc>
<time>2010-10-24T10:23:19.84</time>
<name>62</name>
</trkpt>
<trkpt lat="48.943687" lon="8.665582">
<ele>331.5</ele>
<speed>0.85</speed>
<course>254.6</course>
<desc>Speed 3.1 km/h Distance 0.09 km</desc>
<time>2010-10-24T10:23:20.84</time>
<name>63</name>
</trkpt>
<trkpt lat="48.943683" lon="8.665563">
<ele>331.5</ele>
<speed>0.56</speed>
<course>249.1</course>
<desc>Speed 2.0 km/h Distance 0.09 km</desc>
<time>2010-10-24T10:23:21.83</time>
<name>64</name>
</trkpt>
<trkpt lat="48.943682" lon="8.665557">
<ele>331.0</ele>
<speed>0.63</speed>
<course>175.6</course>
<desc>Speed 2.3 km/h Distance 0.09 km</desc>
<time>2010-10-24T10:23:22.83</time>
<name>65</name>
</trkpt>
<trkpt lat="48.943672" lon="8.665558">
<ele>331.0</ele>
<speed>0.91</speed>
<course>175.6</course>
<desc>Speed 3.3 km/h Distance 0.09 km</desc>
<time>2010-10-24T10:23:23.83</time>
<name>66</name>
</trkpt>
<trkpt lat="48.943662" lon="8.665560">
<ele>332.0</ele>
<speed>1.21</speed>
<course>212.3</course>
<desc>Speed 4.4 km/h Distance 0.09 km</desc>
<time>2010-10-24T10:23:24.82</time>
<name>67</name>
</trkpt>
<trkpt lat="48.943657" lon="8.665555">
<ele>331.0</ele>
<speed>0.68</speed>
<course>172.3</course>
<desc>Speed 2.4 km/h Distance 0.09 km</desc>
<time>2010-10-24T10:23:25.82</time>
<name>68</name>
</trkpt>
<trkpt lat="48.943640" lon="8.665558">
<ele>333.0</ele>
<speed>1.89</speed>
<course>206.4</course>
<desc>Speed 6.8 km/h Distance 0.09 km</desc>
<time>2010-10-24T10:23:26.81</time>
<name>69</name>
</trkpt>
<trkpt lat="48.943633" lon="8.665553">
<ele>332.5</ele>
<speed>0.97</speed>
<course>207.9</course>
<desc>Speed 3.5 km/h Distance 0.09 km</desc>
<time>2010-10-24T10:23:27.80</time>
<name>70</name>
</trkpt>
<trkpt lat="48.943625" lon="8.665547">
<ele>334.5</ele>
<speed>0.98</speed>
<course>213.7</course>
<desc>Speed 3.5 km/h Distance 0.09 km</desc>
<time>2010-10-24T10:23:28.79</time>
<name>71</name>
</trkpt>
<trkpt lat="48.943618" lon="8.665540">
<ele>333.5</ele>
<speed>1.24</speed>
<course>207.9</course>
<desc>Speed 4.5 km/h Distance 0.09 km</desc>
<time>2010-10-24T10:23:29.79</time>
<name>72</name>
</trkpt>
<trkpt lat="48.943610" lon="8.665533">
<ele>333.5</ele>
<speed>1.37</speed>
<course>192.6</course>
<desc>Speed 4.9 km/h Distance 0.10 km</desc>
<time>2010-10-24T10:23:30.79</time>
<name>73</name>
</trkpt>
<trkpt lat="48.943600" lon="8.665530">
<ele>333.5</ele>
<speed>1.36</speed>
<course>186.6</course>
<desc>Speed 4.9 km/h Distance 0.10 km</desc>
<time>2010-10-24T10:23:31.79</time>
<name>74</name>
</trkpt>
<trkpt lat="48.943590" lon="8.665528">
<ele>333.5</ele>
<speed>1.33</speed>
<course>194.9</course>
<desc>Speed 4.8 km/h Distance 0.10 km</desc>
<time>2010-10-24T10:23:32.77</time>
<name>75</name>
</trkpt>
<trkpt lat="48.943582" lon="8.665525">
<ele>334.0</ele>
<speed>1.13</speed>
<course>206.4</course>
<desc>Speed 4.1 km/h Distance 0.10 km</desc>
<time>2010-10-24T10:23:33.76</time>
<name>76</name>
</trkpt>
<trkpt lat="48.943575" lon="8.665520">
<ele>333.0</ele>
<speed>0.75</speed>
<course>249.1</course>
<desc>Speed 2.7 km/h Distance 0.10 km</desc>
<time>2010-10-24T10:23:34.75</time>
<name>77</name>
</trkpt>
<trkpt lat="48.943573" lon="8.665513">
<ele>333.5</ele>
<speed>0.37</speed>
<course>276.7</course>
<desc>Speed 1.3 km/h Distance 0.10 km</desc>
<time>2010-10-24T10:23:35.74</time>
<name>78</name>
</trkpt>
<trkpt lat="48.943575" lon="8.665492">
<ele>332.5</ele>
<speed>0.34</speed>
<course>260.4</course>
<desc>Speed 1.2 km/h Distance 0.10 km</desc>
<time>2010-10-24T10:23:39.73</time>
<name>79</name>
</trkpt>
<trkpt lat="48.943573" lon="8.665477">
<ele>331.0</ele>
<speed>0.63</speed>
<course>232.4</course>
<desc>Speed 2.3 km/h Distance 0.10 km</desc>
<time>2010-10-24T10:23:40.73</time>
<name>80</name>
</trkpt>
<trkpt lat="48.943570" lon="8.665470">
<ele>331.0</ele>
<speed>0.62</speed>
<course>260.4</course>
<desc>Speed 2.2 km/h Distance 0.10 km</desc>
<time>2010-10-24T10:23:41.72</time>
<name>81</name>
</trkpt>
<trkpt lat="48.943568" lon="8.665455">
<ele>329.5</ele>
<speed>0.62</speed>
<course>280.8</course>
<desc>Speed 2.2 km/h Distance 0.10 km</desc>
<time>2010-10-24T10:23:42.71</time>
<name>82</name>
</trkpt>
<trkpt lat="48.943570" lon="8.665442">
<ele>328.5</ele>
<speed>0.44</speed>
<course>289.4</course>
<desc>Speed 1.6 km/h Distance 0.11 km</desc>
<time>2010-10-24T10:23:43.70</time>
<name>83</name>
</trkpt>
<trkpt lat="48.943575" lon="8.665420">
<ele>327.0</ele>
<speed>0.64</speed>
<course>270.0</course>
<desc>Speed 2.3 km/h Distance 0.11 km</desc>
<time>2010-10-24T10:23:44.70</time>
<name>84</name>
</trkpt>
<trkpt lat="48.943575" lon="8.665417">
<ele>326.0</ele>
<speed>0.30</speed>
<course>203.0</course>
<desc>Speed 1.1 km/h Distance 0.11 km</desc>
<time>2010-10-24T10:23:45.69</time>
<name>85</name>
</trkpt>
<trkpt lat="48.943572" lon="8.665415">
<ele>325.0</ele>
<speed>0.37</speed>
<course>270.0</course>
<desc>Speed 1.3 km/h Distance 0.11 km</desc>
<time>2010-10-24T10:23:46.69</time>
<name>86</name>
</trkpt>
<trkpt lat="48.943572" lon="8.665400">
<ele>323.5</ele>
<speed>0.50</speed>
<course>270.0</course>
<desc>Speed 1.8 km/h Distance 0.11 km</desc>
<time>2010-10-24T10:23:48.68</time>
<name>87</name>
</trkpt>
<trkpt lat="48.943572" lon="8.665388">
<ele>325.0</ele>
<speed>0.68</speed>
<course>284.2</course>
<desc>Speed 2.4 km/h Distance 0.11 km</desc>
<time>2010-10-24T10:23:50.68</time>
<name>88</name>
</trkpt>
<trkpt lat="48.943573" lon="8.665378">
<ele>325.5</ele>
<speed>0.68</speed>
<course>290.9</course>
<desc>Speed 2.4 km/h Distance 0.11 km</desc>
<time>2010-10-24T10:23:51.67</time>
<name>89</name>
</trkpt>
<trkpt lat="48.943577" lon="8.665365">
<ele>325.0</ele>
<speed>0.63</speed>
<course>277.9</course>
<desc>Speed 2.3 km/h Distance 0.11 km</desc>
<time>2010-10-24T10:23:52.66</time>
<name>90</name>
</trkpt>
<trkpt lat="48.943578" lon="8.665347">
<ele>323.5</ele>
<speed>0.75</speed>
<course>278.7</course>
<desc>Speed 2.7 km/h Distance 0.11 km</desc>
<time>2010-10-24T10:23:53.66</time>
<name>91</name>
</trkpt>
<trkpt lat="48.943580" lon="8.665330">
<ele>322.0</ele>
<speed>0.73</speed>
<course>241.0</course>
<desc>Speed 2.6 km/h Distance 0.11 km</desc>
<time>2010-10-24T10:23:54.66</time>
<name>92</name>
</trkpt>
<trkpt lat="48.943573" lon="8.665312">
<ele>321.5</ele>
<speed>1.12</speed>
<course>263.3</course>
<desc>Speed 4.0 km/h Distance 0.12 km</desc>
<time>2010-10-24T10:23:55.65</time>
<name>93</name>
</trkpt>
<trkpt lat="48.943572" lon="8.665290">
<ele>320.5</ele>
<speed>0.83</speed>
<course>224.8</course>
<desc>Speed 3.0 km/h Distance 0.12 km</desc>
<time>2010-10-24T10:23:56.65</time>
<name>94</name>
</trkpt>
<trkpt lat="48.943565" lon="8.665280">
<ele>321.5</ele>
<speed>0.80</speed>
<course>259.2</course>
<desc>Speed 2.9 km/h Distance 0.12 km</desc>
<time>2010-10-24T10:23:57.65</time>
<name>95</name>
</trkpt>
<trkpt lat="48.943563" lon="8.665267">
<ele>320.5</ele>
<speed>0.75</speed>
<course>277.2</course>
<desc>Speed 2.7 km/h Distance 0.12 km</desc>
<time>2010-10-24T10:23:58.64</time>
<name>96</name>
</trkpt>
<trkpt lat="48.943565" lon="8.665247">
<ele>319.0</ele>
<speed>0.83</speed>
<course>198.1</course>
<desc>Speed 3.0 km/h Distance 0.12 km</desc>
<time>2010-10-24T10:23:59.63</time>
<name>97</name>
</trkpt>
<trkpt lat="48.943552" lon="8.665240">
<ele>323.5</ele>
<speed>0.62</speed>
<course>201.5</course>
<desc>Speed 2.2 km/h Distance 0.12 km</desc>
<time>2010-10-24T10:24:00.63</time>
<name>98</name>
</trkpt>
<trkpt lat="48.943543" lon="8.665235">
<ele>328.0</ele>
<speed>0.75</speed>
<course>208.6</course>
<desc>Speed 2.7 km/h Distance 0.12 km</desc>
<time>2010-10-24T10:24:01.62</time>
<name>99</name>
</trkpt>
<trkpt lat="48.943533" lon="8.665227">
<ele>329.0</ele>
<speed>0.93</speed>
<course>204.7</course>
<desc>Speed 3.3 km/h Distance 0.12 km</desc>
<time>2010-10-24T10:24:02.62</time>
<name>100</name>
</trkpt>
<trkpt lat="48.943517" lon="8.665215">
<ele>330.5</ele>
<speed>1.57</speed>
<course>243.1</course>
<desc>Speed 5.7 km/h Distance 0.13 km</desc>
<time>2010-10-24T10:24:03.61</time>
<name>101</name>
</trkpt>
<trkpt lat="48.943512" lon="8.665200">
<ele>331.0</ele>
<speed>0.92</speed>
<course>236.7</course>
<desc>Speed 3.3 km/h Distance 0.13 km</desc>
<time>2010-10-24T10:24:04.61</time>
<name>102</name>
</trkpt>
<trkpt lat="48.943507" lon="8.665188">
<ele>331.5</ele>
<speed>0.92</speed>
<course>227.4</course>
<desc>Speed 3.3 km/h Distance 0.13 km</desc>
<time>2010-10-24T10:24:05.60</time>
<name>103</name>
</trkpt>
<trkpt lat="48.943502" lon="8.665180">
<ele>331.5</ele>
<speed>0.92</speed>
<course>154.8</course>
<desc>Speed 3.3 km/h Distance 0.13 km</desc>
<time>2010-10-24T10:24:06.59</time>
<name>104</name>
</trkpt>
<trkpt lat="48.943490" lon="8.665188">
<ele>332.0</ele>
<speed>1.88</speed>
<course>229.9</course>
<desc>Speed 6.8 km/h Distance 0.13 km</desc>
<time>2010-10-24T10:24:07.58</time>
<name>105</name>
</trkpt>
<trkpt lat="48.943482" lon="8.665173">
<ele>333.0</ele>
<speed>0.68</speed>
<course>288.1</course>
<desc>Speed 2.4 km/h Distance 0.13 km</desc>
<time>2010-10-24T10:24:08.58</time>
<name>106</name>
</trkpt>
<trkpt lat="48.943487" lon="8.665150">
<ele>333.0</ele>
<speed>0.61</speed>
<course>279.6</course>
<desc>Speed 2.2 km/h Distance 0.13 km</desc>
<time>2010-10-24T10:24:09.56</time>
<name>107</name>
</trkpt>
<trkpt lat="48.943488" lon="8.665135">
<ele>333.0</ele>
<speed>0.61</speed>
<course>307.3</course>
<desc>Speed 2.2 km/h Distance 0.14 km</desc>
<time>2010-10-24T10:24:10.56</time>
<name>108</name>
</trkpt>
<trkpt lat="48.943500" lon="8.665112">
<ele>332.5</ele>
<speed>0.60</speed>
<course>301.4</course>
<desc>Speed 2.2 km/h Distance 0.14 km</desc>
<time>2010-10-24T10:24:11.56</time>
<name>109</name>
</trkpt>
<trkpt lat="48.943507" lon="8.665095">
<ele>332.5</ele>
<speed>1.11</speed>
<course>213.3</course>
<desc>Speed 4.0 km/h Distance 0.14 km</desc>
<time>2010-10-24T10:24:12.56</time>
<name>110</name>
</trkpt>
<trkpt lat="48.943490" lon="8.665078">
<ele>332.5</ele>
<speed>0.44</speed>
<course>224.6</course>
<desc>Speed 1.6 km/h Distance 0.14 km</desc>
<time>2010-10-24T10:24:13.56</time>
<name>111</name>
</trkpt>
<trkpt lat="48.943467" lon="8.665043">
<ele>332.0</ele>
<speed>0.61</speed>
<course>243.2</course>
<desc>Speed 2.2 km/h Distance 0.15 km</desc>
<time>2010-10-24T10:24:15.55</time>
<name>112</name>
</trkpt>
<trkpt lat="48.943463" lon="8.665033">
<ele>332.5</ele>
<speed>0.50</speed>
<course>196.0</course>
<desc>Speed 1.8 km/h Distance 0.15 km</desc>
<time>2010-10-24T10:24:16.54</time>
<name>113</name>
</trkpt>
<trkpt lat="48.943452" lon="8.665028">
<ele>332.5</ele>
<speed>0.55</speed>
<course>227.8</course>
<desc>Speed 2.0 km/h Distance 0.15 km</desc>
<time>2010-10-24T10:24:17.54</time>
<name>114</name>
</trkpt>
<trkpt lat="48.943447" lon="8.665020">
<ele>332.5</ele>
<speed>0.56</speed>
<course>236.9</course>
<desc>Speed 2.0 km/h Distance 0.15 km</desc>
<time>2010-10-24T10:24:18.53</time>
<name>115</name>
</trkpt>
<trkpt lat="48.943442" lon="8.665008">
<ele>331.5</ele>
<speed>0.92</speed>
<course>270.0</course>
<desc>Speed 3.3 km/h Distance 0.15 km</desc>
<time>2010-10-24T10:24:19.53</time>
<name>116</name>
</trkpt>
<trkpt lat="48.943442" lon="8.664982">
<ele>330.0</ele>
<speed>1.37</speed>
<course>247.4</course>
<desc>Speed 4.9 km/h Distance 0.15 km</desc>
<time>2010-10-24T10:24:20.52</time>
<name>117</name>
</trkpt>
<trkpt lat="48.943437" lon="8.664963">
<ele>329.5</ele>
<speed>0.56</speed>
<course>250.6</course>
<desc>Speed 2.0 km/h Distance 0.15 km</desc>
<time>2010-10-24T10:24:21.52</time>
<name>118</name>
</trkpt>
<trkpt lat="48.943432" lon="8.664942">
<ele>329.5</ele>
<speed>0.68</speed>
<course>262.1</course>
<desc>Speed 2.4 km/h Distance 0.15 km</desc>
<time>2010-10-24T10:24:22.51</time>
<name>119</name>
</trkpt>
<trkpt lat="48.943430" lon="8.664923">
<ele>328.5</ele>
<speed>0.88</speed>
<course>276.7</course>
<desc>Speed 3.2 km/h Distance 0.16 km</desc>
<time>2010-10-24T10:24:23.51</time>
<name>120</name>
</trkpt>
<trkpt lat="48.943432" lon="8.664902">
<ele>327.5</ele>
<speed>1.26</speed>
<course>254.5</course>
<desc>Speed 4.5 km/h Distance 0.16 km</desc>
<time>2010-10-24T10:24:24.50</time>
<name>121</name>
</trkpt>
<trkpt lat="48.943428" lon="8.664883">
<ele>326.0</ele>
<speed>1.11</speed>
<course>217.5</course>
<desc>Speed 4.0 km/h Distance 0.16 km</desc>
<time>2010-10-24T10:24:25.50</time>
<name>122</name>
</trkpt>
<trkpt lat="48.943418" lon="8.664872">
<ele>326.5</ele>
<speed>0.98</speed>
<course>250.6</course>
<desc>Speed 3.5 km/h Distance 0.16 km</desc>
<time>2010-10-24T10:24:26.50</time>
<name>123</name>
</trkpt>
<trkpt lat="48.943413" lon="8.664850">
<ele>326.0</ele>
<speed>1.07</speed>
<course>270.0</course>
<desc>Speed 3.9 km/h Distance 0.16 km</desc>
<time>2010-10-24T10:24:27.50</time>
<name>124</name>
</trkpt>
<trkpt lat="48.943413" lon="8.664823">
<ele>324.5</ele>
<speed>1.34</speed>
<course>264.2</course>
<desc>Speed 4.8 km/h Distance 0.16 km</desc>
<time>2010-10-24T10:24:28.49</time>
<name>125</name>
</trkpt>
<trkpt lat="48.943412" lon="8.664798">
<ele>324.0</ele>
<speed>1.28</speed>
<course>250.6</course>
<desc>Speed 4.6 km/h Distance 0.17 km</desc>
<time>2010-10-24T10:24:29.49</time>
<name>126</name>
</trkpt>
<trkpt lat="48.943407" lon="8.664777">
<ele>323.5</ele>
<speed>1.10</speed>
<course>263.3</course>
<desc>Speed 4.0 km/h Distance 0.17 km</desc>
<time>2010-10-24T10:24:30.49</time>
<name>127</name>
</trkpt>
<trkpt lat="48.943405" lon="8.664755">
<ele>323.0</ele>
<speed>1.20</speed>
<course>279.6</course>
<desc>Speed 4.3 km/h Distance 0.17 km</desc>
<time>2010-10-24T10:24:31.49</time>
<name>128</name>
</trkpt>
<trkpt lat="48.943407" lon="8.664740">
<ele>322.5</ele>
<speed>1.01</speed>
<course>260.4</course>
<desc>Speed 3.6 km/h Distance 0.17 km</desc>
<time>2010-10-24T10:24:32.48</time>
<name>129</name>
</trkpt>
<trkpt lat="48.943405" lon="8.664725">
<ele>321.5</ele>
<speed>0.94</speed>
<course>270.0</course>
<desc>Speed 3.4 km/h Distance 0.17 km</desc>
<time>2010-10-24T10:24:33.48</time>
<name>130</name>
</trkpt>
<trkpt lat="48.943405" lon="8.664710">
<ele>321.0</ele>
<speed>0.98</speed>
<course>278.7</course>
<desc>Speed 3.5 km/h Distance 0.17 km</desc>
<time>2010-10-24T10:24:34.48</time>
<name>131</name>
</trkpt>
<trkpt lat="48.943407" lon="8.664693">
<ele>320.0</ele>
<speed>1.01</speed>
<course>262.1</course>
<desc>Speed 3.6 km/h Distance 0.17 km</desc>
<time>2010-10-24T10:24:35.48</time>
<name>132</name>
</trkpt>
<trkpt lat="48.943405" lon="8.664675">
<ele>320.0</ele>
<speed>1.00</speed>
<course>243.1</course>
<desc>Speed 3.6 km/h Distance 0.17 km</desc>
<time>2010-10-24T10:24:36.48</time>
<name>133</name>
</trkpt>
<trkpt lat="48.943400" lon="8.664660">
<ele>320.0</ele>
<speed>1.00</speed>
<course>246.5</course>
<desc>Speed 3.6 km/h Distance 0.18 km</desc>
<time>2010-10-24T10:24:37.48</time>
<name>134</name>
</trkpt>
<trkpt lat="48.943397" lon="8.664648">
<ele>320.0</ele>
<speed>0.82</speed>
<course>246.5</course>
<desc>Speed 3.0 km/h Distance 0.18 km</desc>
<time>2010-10-24T10:24:38.48</time>
<name>135</name>
</trkpt>
<trkpt lat="48.943393" lon="8.664637">
<ele>320.0</ele>
<speed>0.70</speed>
<course>257.8</course>
<desc>Speed 2.5 km/h Distance 0.18 km</desc>
<time>2010-10-24T10:24:39.48</time>
<name>136</name>
</trkpt>
<trkpt lat="48.943392" lon="8.664625">
<ele>319.5</ele>
<speed>0.73</speed>
<course>260.4</course>
<desc>Speed 2.6 km/h Distance 0.18 km</desc>
<time>2010-10-24T10:24:40.47</time>
<name>137</name>
</trkpt>
<trkpt lat="48.943390" lon="8.664610">
<ele>319.5</ele>
<speed>0.85</speed>
<course>257.7</course>
<desc>Speed 3.1 km/h Distance 0.18 km</desc>
<time>2010-10-24T10:24:41.47</time>
<name>138</name>
</trkpt>
<trkpt lat="48.943388" lon="8.664598">
<ele>319.0</ele>
<speed>0.56</speed>
<course>286.9</course>
<desc>Speed 2.0 km/h Distance 0.18 km</desc>
<time>2010-10-24T10:24:43.47</time>
<name>139</name>
</trkpt>
<trkpt lat="48.943392" lon="8.664582">
<ele>318.5</ele>
<speed>1.11</speed>
<course>311.1</course>
<desc>Speed 4.0 km/h Distance 0.18 km</desc>
<time>2010-10-24T10:24:44.46</time>
<name>140</name>
</trkpt>
<trkpt lat="48.943398" lon="8.664570">
<ele>317.5</ele>
<speed>0.87</speed>
<course>270.0</course>
<desc>Speed 3.1 km/h Distance 0.18 km</desc>
<time>2010-10-24T10:24:45.46</time>
<name>141</name>
</trkpt>
<trkpt lat="48.943398" lon="8.664558">
<ele>317.5</ele>
<speed>0.57</speed>
<course>293.5</course>
<desc>Speed 2.1 km/h Distance 0.18 km</desc>
<time>2010-10-24T10:24:46.46</time>
<name>142</name>
</trkpt>
<trkpt lat="48.943402" lon="8.664547">
<ele>316.5</ele>
<speed>0.88</speed>
<course>279.6</course>
<desc>Speed 3.2 km/h Distance 0.18 km</desc>
<time>2010-10-24T10:24:47.45</time>
<name>143</name>
</trkpt>
<trkpt lat="48.943403" lon="8.664532">
<ele>316.0</ele>
<speed>0.43</speed>
<course>280.8</course>
<desc>Speed 1.5 km/h Distance 0.19 km</desc>
<time>2010-10-24T10:24:50.45</time>
<name>144</name>
</trkpt>
<trkpt lat="48.943405" lon="8.664518">
<ele>316.0</ele>
<speed>0.56</speed>
<course>279.6</course>
<desc>Speed 2.0 km/h Distance 0.19 km</desc>
<time>2010-10-24T10:24:51.45</time>
<name>145</name>
</trkpt>
<trkpt lat="48.943407" lon="8.664503">
<ele>315.5</ele>
<speed>1.04</speed>
<course>257.7</course>
<desc>Speed 3.7 km/h Distance 0.19 km</desc>
<time>2010-10-24T10:24:52.44</time>
<name>146</name>
</trkpt>
<trkpt lat="48.943405" lon="8.664492">
<ele>316.0</ele>
<speed>0.54</speed>
<course>296.9</course>
<desc>Speed 1.9 km/h Distance 0.19 km</desc>
<time>2010-10-24T10:24:53.44</time>
<name>147</name>
</trkpt>
<trkpt lat="48.943410" lon="8.664477">
<ele>316.0</ele>
<speed>0.97</speed>
<course>307.2</course>
<desc>Speed 3.5 km/h Distance 0.19 km</desc>
<time>2010-10-24T10:24:54.44</time>
<name>148</name>
</trkpt>
<trkpt lat="48.943415" lon="8.664467">
<ele>316.0</ele>
<speed>0.97</speed>
<course>308.1</course>
<desc>Speed 3.5 km/h Distance 0.19 km</desc>
<time>2010-10-24T10:24:55.43</time>
<name>149</name>
</trkpt>
<trkpt lat="48.943417" lon="8.664463">
<ele>316.0</ele>
<speed>0.31</speed>
<course>270.0</course>
<desc>Speed 1.1 km/h Distance 0.19 km</desc>
<time>2010-10-24T10:24:56.43</time>
<name>150</name>
</trkpt>
<trkpt lat="48.943417" lon="8.664443">
<ele>314.5</ele>
<speed>0.99</speed>
<course>260.8</course>
<desc>Speed 3.6 km/h Distance 0.19 km</desc>
<time>2010-10-24T10:24:57.43</time>
<name>151</name>
</trkpt>
<trkpt lat="48.943408" lon="8.664365">
<ele>313.5</ele>
<speed>1.54</speed>
<course>270.0</course>
<desc>Speed 5.5 km/h Distance 0.20 km</desc>
<time>2010-10-24T10:25:00.43</time>
<name>152</name>
</trkpt>
<trkpt lat="48.943408" lon="8.664352">
<ele>313.5</ele>
<speed>0.33</speed>
<course>277.2</course>
<desc>Speed 1.2 km/h Distance 0.20 km</desc>
<time>2010-10-24T10:25:01.42</time>
<name>153</name>
</trkpt>
<trkpt lat="48.943410" lon="8.664332">
<ele>312.5</ele>
<speed>0.79</speed>
<course>307.3</course>
<desc>Speed 2.8 km/h Distance 0.20 km</desc>
<time>2010-10-24T10:25:02.42</time>
<name>154</name>
</trkpt>
<trkpt lat="48.943422" lon="8.664308">
<ele>311.5</ele>
<speed>1.54</speed>
<course>276.2</course>
<desc>Speed 5.5 km/h Distance 0.20 km</desc>
<time>2010-10-24T10:25:03.42</time>
<name>155</name>
</trkpt>
<trkpt lat="48.943423" lon="8.664285">
<ele>311.5</ele>
<speed>0.72</speed>
<course>256.8</course>
<desc>Speed 2.6 km/h Distance 0.20 km</desc>
<time>2010-10-24T10:25:04.41</time>
<name>156</name>
</trkpt>
<trkpt lat="48.943420" lon="8.664263">
<ele>312.0</ele>
<speed>0.34</speed>
<course>263.3</course>
<desc>Speed 1.2 km/h Distance 0.21 km</desc>
<time>2010-10-24T10:25:05.41</time>
<name>157</name>
</trkpt>
<trkpt lat="48.943418" lon="8.664242">
<ele>311.5</ele>
<speed>0.36</speed>
<course>202.6</course>
<desc>Speed 1.3 km/h Distance 0.21 km</desc>
<time>2010-10-24T10:25:06.41</time>
<name>158</name>
</trkpt>
<trkpt lat="48.943400" lon="8.664230">
<ele>314.5</ele>
<speed>0.95</speed>
<course>204.9</course>
<desc>Speed 3.4 km/h Distance 0.21 km</desc>
<time>2010-10-24T10:25:09.41</time>
<name>159</name>
</trkpt>
<trkpt lat="48.943388" lon="8.664222">
<ele>314.5</ele>
<speed>0.95</speed>
<course>243.1</course>
<desc>Speed 3.4 km/h Distance 0.21 km</desc>
<time>2010-10-24T10:25:10.41</time>
<name>160</name>
</trkpt>
<trkpt lat="48.943382" lon="8.664202">
<ele>314.5</ele>
<speed>1.54</speed>
<course>276.7</course>
<desc>Speed 5.5 km/h Distance 0.21 km</desc>
<time>2010-10-24T10:25:11.41</time>
<name>161</name>
</trkpt>
<trkpt lat="48.943383" lon="8.664180">
<ele>313.0</ele>
<speed>1.02</speed>
<course>241.4</course>
<desc>Speed 3.7 km/h Distance 0.21 km</desc>
<time>2010-10-24T10:25:12.41</time>
<name>162</name>
</trkpt>
<trkpt lat="48.943375" lon="8.664157">
<ele>312.5</ele>
<speed>1.44</speed>
<course>234.9</course>
<desc>Speed 5.2 km/h Distance 0.22 km</desc>
<time>2010-10-24T10:25:13.40</time>
<name>163</name>
</trkpt>
<trkpt lat="48.943365" lon="8.664135">
<ele>313.0</ele>
<speed>1.47</speed>
<course>255.7</course>
<desc>Speed 5.3 km/h Distance 0.22 km</desc>
<time>2010-10-24T10:25:14.40</time>
<name>164</name>
</trkpt>
<trkpt lat="48.943360" lon="8.664105">
<ele>314.0</ele>
<speed>1.40</speed>
<course>227.6</course>
<desc>Speed 5.0 km/h Distance 0.22 km</desc>
<time>2010-10-24T10:25:15.40</time>
<name>165</name>
</trkpt>
<trkpt lat="48.943345" lon="8.664080">
<ele>315.5</ele>
<speed>1.50</speed>
<course>243.1</course>
<desc>Speed 5.4 km/h Distance 0.22 km</desc>
<time>2010-10-24T10:25:16.40</time>
<name>166</name>
</trkpt>
<trkpt lat="48.943340" lon="8.664065">
<ele>314.0</ele>
<speed>1.17</speed>
<course>228.7</course>
<desc>Speed 4.2 km/h Distance 0.22 km</desc>
<time>2010-10-24T10:25:17.40</time>
<name>167</name>
</trkpt>
<trkpt lat="48.943333" lon="8.664053">
<ele>313.5</ele>
<speed>1.00</speed>
<course>237.6</course>
<desc>Speed 3.6 km/h Distance 0.23 km</desc>
<time>2010-10-24T10:25:18.40</time>
<name>168</name>
</trkpt>
<trkpt lat="48.943325" lon="8.664033">
<ele>314.5</ele>
<speed>1.27</speed>
<course>250.3</course>
<desc>Speed 4.6 km/h Distance 0.23 km</desc>
<time>2010-10-24T10:25:19.40</time>
<name>169</name>
</trkpt>
<trkpt lat="48.943318" lon="8.664005">
<ele>315.5</ele>
<speed>1.44</speed>
<course>224.6</course>
<desc>Speed 5.2 km/h Distance 0.23 km</desc>
<time>2010-10-24T10:25:20.40</time>
<name>170</name>
</trkpt>
<trkpt lat="48.943305" lon="8.663985">
<ele>317.0</ele>
<speed>1.42</speed>
<course>234.6</course>
<desc>Speed 5.1 km/h Distance 0.23 km</desc>
<time>2010-10-24T10:25:21.40</time>
<name>171</name>
</trkpt>
<trkpt lat="48.943293" lon="8.663960">
<ele>318.0</ele>
<speed>1.50</speed>
<course>223.5</course>
<desc>Speed 5.4 km/h Distance 0.23 km</desc>
<time>2010-10-24T10:25:22.40</time>
<name>172</name>
</trkpt>
<trkpt lat="48.943278" lon="8.663938">
<ele>320.5</ele>
<speed>1.40</speed>
<course>223.3</course>
<desc>Speed 5.0 km/h Distance 0.24 km</desc>
<time>2010-10-24T10:25:23.39</time>
<name>173</name>
</trkpt>
<trkpt lat="48.943267" lon="8.663922">
<ele>321.5</ele>
<speed>1.51</speed>
<course>222.1</course>
<desc>Speed 5.4 km/h Distance 0.24 km</desc>
<time>2010-10-24T10:25:24.39</time>
<name>174</name>
</trkpt>
<trkpt lat="48.943253" lon="8.663903">
<ele>322.5</ele>
<speed>1.48</speed>
<course>228.4</course>
<desc>Speed 5.3 km/h Distance 0.24 km</desc>
<time>2010-10-24T10:25:25.39</time>
<name>175</name>
</trkpt>
<trkpt lat="48.943242" lon="8.663883">
<ele>323.0</ele>
<speed>1.48</speed>
<course>232.7</course>
<desc>Speed 5.3 km/h Distance 0.24 km</desc>
<time>2010-10-24T10:25:26.39</time>
<name>176</name>
</trkpt>
<trkpt lat="48.943232" lon="8.663863">
<ele>324.5</ele>
<speed>1.48</speed>
<course>232.7</course>
<desc>Speed 5.3 km/h Distance 0.24 km</desc>
<time>2010-10-24T10:25:27.38</time>
<name>177</name>
</trkpt>
<trkpt lat="48.943222" lon="8.663843">
<ele>325.5</ele>
<speed>1.41</speed>
<course>219.4</course>
<desc>Speed 5.1 km/h Distance 0.25 km</desc>
<time>2010-10-24T10:25:28.38</time>
<name>178</name>
</trkpt>
<trkpt lat="48.943208" lon="8.663827">
<ele>327.0</ele>
<speed>1.46</speed>
<course>216.6</course>
<desc>Speed 5.3 km/h Distance 0.25 km</desc>
<time>2010-10-24T10:25:29.38</time>
<name>179</name>
</trkpt>
<trkpt lat="48.943195" lon="8.663812">
<ele>329.0</ele>
<speed>1.34</speed>
<course>220.2</course>
<desc>Speed 4.8 km/h Distance 0.25 km</desc>
<time>2010-10-24T10:25:30.38</time>
<name>180</name>
</trkpt>
<trkpt lat="48.943183" lon="8.663797">
<ele>330.0</ele>
<speed>1.34</speed>
<course>219.4</course>
<desc>Speed 4.8 km/h Distance 0.25 km</desc>
<time>2010-10-24T10:25:31.37</time>
<name>181</name>
</trkpt>
<trkpt lat="48.943170" lon="8.663780">
<ele>331.0</ele>
<speed>1.46</speed>
<course>229.8</course>
<desc>Speed 5.3 km/h Distance 0.25 km</desc>
<time>2010-10-24T10:25:32.37</time>
<name>182</name>
</trkpt>
<trkpt lat="48.943162" lon="8.663765">
<ele>331.0</ele>
<speed>1.40</speed>
<course>223.3</course>
<desc>Speed 5.0 km/h Distance 0.25 km</desc>
<time>2010-10-24T10:25:33.36</time>
<name>183</name>
</trkpt>
<trkpt lat="48.943150" lon="8.663748">
<ele>332.0</ele>
<speed>1.39</speed>
<course>216.9</course>
<desc>Speed 5.0 km/h Distance 0.26 km</desc>
<time>2010-10-24T10:25:34.36</time>
<name>184</name>
</trkpt>
<trkpt lat="48.943138" lon="8.663735">
<ele>333.5</ele>
<speed>1.58</speed>
<course>192.6</course>
<desc>Speed 5.7 km/h Distance 0.26 km</desc>
<time>2010-10-24T10:25:35.35</time>
<name>185</name>
</trkpt>
<trkpt lat="48.943118" lon="8.663728">
<ele>337.0</ele>
<speed>1.53</speed>
<course>235.3</course>
<desc>Speed 5.5 km/h Distance 0.26 km</desc>
<time>2010-10-24T10:25:36.35</time>
<name>186</name>
</trkpt>
<trkpt lat="48.943110" lon="8.663710">
<ele>338.5</ele>
<speed>1.38</speed>
<course>221.2</course>
<desc>Speed 5.0 km/h Distance 0.26 km</desc>
<time>2010-10-24T10:25:37.35</time>
<name>187</name>
</trkpt>
<trkpt lat="48.943100" lon="8.663697">
<ele>338.5</ele>
<speed>1.44</speed>
<course>238.7</course>
<desc>Speed 5.2 km/h Distance 0.26 km</desc>
<time>2010-10-24T10:25:38.35</time>
<name>188</name>
</trkpt>
<trkpt lat="48.943093" lon="8.663680">
<ele>338.5</ele>
<speed>1.33</speed>
<course>232.7</course>
<desc>Speed 4.8 km/h Distance 0.26 km</desc>
<time>2010-10-24T10:25:39.34</time>
<name>189</name>
</trkpt>
<trkpt lat="48.943085" lon="8.663663">
<ele>339.5</ele>
<speed>1.33</speed>
<course>216.9</course>
<desc>Speed 4.8 km/h Distance 0.27 km</desc>
<time>2010-10-24T10:25:40.34</time>
<name>190</name>
</trkpt>
<trkpt lat="48.943073" lon="8.663650">
<ele>340.5</ele>
<speed>1.46</speed>
<course>229.8</course>
<desc>Speed 5.3 km/h Distance 0.27 km</desc>
<time>2010-10-24T10:25:41.34</time>
<name>191</name>
</trkpt>
<trkpt lat="48.943065" lon="8.663635">
<ele>341.0</ele>
<speed>1.37</speed>
<course>221.2</course>
<desc>Speed 4.9 km/h Distance 0.27 km</desc>
<time>2010-10-24T10:25:42.34</time>
<name>192</name>
</trkpt>
<trkpt lat="48.943055" lon="8.663622">
<ele>342.0</ele>
<speed>1.34</speed>
<course>209.4</course>
<desc>Speed 4.8 km/h Distance 0.27 km</desc>
<time>2010-10-24T10:25:43.33</time>
<name>193</name>
</trkpt>
<trkpt lat="48.943043" lon="8.663612">
<ele>343.5</ele>
<speed>1.38</speed>
<course>213.4</course>
<desc>Speed 5.0 km/h Distance 0.27 km</desc>
<time>2010-10-24T10:25:44.33</time>
<name>194</name>
</trkpt>
<trkpt lat="48.943032" lon="8.663600">
<ele>344.0</ele>
<speed>1.28</speed>
<course>213.7</course>
<desc>Speed 4.6 km/h Distance 0.27 km</desc>
<time>2010-10-24T10:25:45.33</time>
<name>195</name>
</trkpt>
<trkpt lat="48.943025" lon="8.663593">
<ele>345.0</ele>
<speed>0.87</speed>
<course>263.8</course>
<desc>Speed 3.1 km/h Distance 0.27 km</desc>
<time>2010-10-24T10:25:46.33</time>
<name>196</name>
</trkpt>
<trkpt lat="48.943023" lon="8.663570">
<ele>343.5</ele>
<speed>1.22</speed>
<course>276.2</course>
<desc>Speed 4.4 km/h Distance 0.28 km</desc>
<time>2010-10-24T10:25:49.32</time>
<name>197</name>
</trkpt>
<trkpt lat="48.943025" lon="8.663547">
<ele>341.5</ele>
<speed>1.55</speed>
<course>263.3</course>
<desc>Speed 5.6 km/h Distance 0.28 km</desc>
<time>2010-10-24T10:25:50.32</time>
<name>198</name>
</trkpt>
<trkpt lat="48.943023" lon="8.663525">
<ele>340.5</ele>
<speed>1.35</speed>
<course>263.3</course>
<desc>Speed 4.9 km/h Distance 0.28 km</desc>
<time>2010-10-24T10:25:51.31</time>
<name>199</name>
</trkpt>
<trkpt lat="48.943022" lon="8.663503">
<ele>339.5</ele>
<speed>1.33</speed>
<course>270.0</course>
<desc>Speed 4.8 km/h Distance 0.28 km</desc>
<time>2010-10-24T10:25:52.31</time>
<name>200</name>
</trkpt>
<trkpt lat="48.943022" lon="8.663480">
<ele>338.0</ele>
<speed>1.37</speed>
<course>227.6</course>
<desc>Speed 4.9 km/h Distance 0.28 km</desc>
<time>2010-10-24T10:25:53.31</time>
<name>201</name>
</trkpt>
<trkpt lat="48.943012" lon="8.663463">
<ele>339.0</ele>
<speed>1.48</speed>
<course>235.3</course>
<desc>Speed 5.3 km/h Distance 0.28 km</desc>
<time>2010-10-24T10:25:54.31</time>
<name>202</name>
</trkpt>
<trkpt lat="48.943003" lon="8.663445">
<ele>339.5</ele>
<speed>1.41</speed>
<course>243.1</course>
<desc>Speed 5.1 km/h Distance 0.29 km</desc>
<time>2010-10-24T10:25:55.30</time>
<name>203</name>
</trkpt>
<trkpt lat="48.942997" lon="8.663425">
<ele>340.0</ele>
<speed>1.37</speed>
<course>282.3</course>
<desc>Speed 4.9 km/h Distance 0.29 km</desc>
<time>2010-10-24T10:25:56.30</time>
<name>204</name>
</trkpt>
<trkpt lat="48.943000" lon="8.663402">
<ele>338.5</ele>
<speed>1.53</speed>
<course>270.0</course>
<desc>Speed 5.5 km/h Distance 0.29 km</desc>
<time>2010-10-24T10:25:57.30</time>
<name>205</name>
</trkpt>
<trkpt lat="48.943000" lon="8.663383">
<ele>338.0</ele>
<speed>1.17</speed>
<course>277.2</course>
<desc>Speed 4.2 km/h Distance 0.29 km</desc>
<time>2010-10-24T10:25:58.30</time>
<name>206</name>
</trkpt>
<trkpt lat="48.943002" lon="8.663363">
<ele>337.0</ele>
<speed>1.36</speed>
<course>213.2</course>
<desc>Speed 4.9 km/h Distance 0.29 km</desc>
<time>2010-10-24T10:25:59.30</time>
<name>207</name>
</trkpt>
<trkpt lat="48.942993" lon="8.663355">
<ele>339.5</ele>
<speed>0.97</speed>
<course>307.3</course>
<desc>Speed 3.5 km/h Distance 0.29 km</desc>
<time>2010-10-24T10:26:00.29</time>
<name>208</name>
</trkpt>
<trkpt lat="48.943002" lon="8.663338">
<ele>339.0</ele>
<speed>1.37</speed>
<course>270.0</course>
<desc>Speed 4.9 km/h Distance 0.30 km</desc>
<time>2010-10-24T10:26:01.29</time>
<name>209</name>
</trkpt>
<trkpt lat="48.943002" lon="8.663328">
<ele>341.0</ele>
<speed>0.80</speed>
<course>326.8</course>
<desc>Speed 2.9 km/h Distance 0.30 km</desc>
<time>2010-10-24T10:26:02.29</time>
<name>210</name>
</trkpt>
<trkpt lat="48.943012" lon="8.663318">
<ele>341.0</ele>
<speed>1.47</speed>
<course>299.7</course>
<desc>Speed 5.3 km/h Distance 0.30 km</desc>
<time>2010-10-24T10:26:03.28</time>
<name>211</name>
</trkpt>
<trkpt lat="48.943017" lon="8.663305">
<ele>341.0</ele>
<speed>1.16</speed>
<course>307.2</course>
<desc>Speed 4.2 km/h Distance 0.30 km</desc>
<time>2010-10-24T10:26:04.28</time>
<name>212</name>
</trkpt>
<trkpt lat="48.943022" lon="8.663295">
<ele>341.5</ele>
<speed>1.12</speed>
<course>318.6</course>
<desc>Speed 4.0 km/h Distance 0.30 km</desc>
<time>2010-10-24T10:26:05.28</time>
<name>213</name>
</trkpt>
<trkpt lat="48.943027" lon="8.663288">
<ele>342.0</ele>
<speed>1.07</speed>
<course>347.4</course>
<desc>Speed 3.9 km/h Distance 0.30 km</desc>
<time>2010-10-24T10:26:06.28</time>
<name>214</name>
</trkpt>
<trkpt lat="48.943037" lon="8.663285">
<ele>341.5</ele>
<speed>1.45</speed>
<course>336.2</course>
<desc>Speed 5.2 km/h Distance 0.30 km</desc>
<time>2010-10-24T10:26:07.27</time>
<name>215</name>
</trkpt>
<trkpt lat="48.943047" lon="8.663278">
<ele>340.0</ele>
<speed>1.53</speed>
<course>330.6</course>
<desc>Speed 5.5 km/h Distance 0.30 km</desc>
<time>2010-10-24T10:26:08.27</time>
<name>216</name>
</trkpt>
<trkpt lat="48.943058" lon="8.663268">
<ele>339.0</ele>
<speed>1.47</speed>
<course>334.8</course>
<desc>Speed 5.3 km/h Distance 0.30 km</desc>
<time>2010-10-24T10:26:09.27</time>
<name>217</name>
</trkpt>
<trkpt lat="48.943070" lon="8.663260">
<ele>337.5</ele>
<speed>1.34</speed>
<course>4.4</course>
<desc>Speed 4.8 km/h Distance 0.31 km</desc>
<time>2010-10-24T10:26:10.27</time>
<name>218</name>
</trkpt>
<trkpt lat="48.943080" lon="8.663260">
<ele>336.5</ele>
<speed>1.21</speed>
<course>346.0</course>
<desc>Speed 4.4 km/h Distance 0.31 km</desc>
<time>2010-10-24T10:26:11.26</time>
<name>219</name>
</trkpt>
<trkpt lat="48.943093" lon="8.663255">
<ele>335.0</ele>
<speed>1.49</speed>
<course>341.2</course>
<desc>Speed 5.4 km/h Distance 0.31 km</desc>
<time>2010-10-24T10:26:12.26</time>
<name>220</name>
</trkpt>
<trkpt lat="48.943100" lon="8.663252">
<ele>334.0</ele>
<speed>0.75</speed>
<course>326.7</course>
<desc>Speed 2.7 km/h Distance 0.31 km</desc>
<time>2010-10-24T10:26:13.26</time>
<name>221</name>
</trkpt>
<trkpt lat="48.943115" lon="8.663237">
<ele>332.0</ele>
<speed>1.66</speed>
<course>332.8</course>
<desc>Speed 6.0 km/h Distance 0.31 km</desc>
<time>2010-10-24T10:26:14.26</time>
<name>222</name>
</trkpt>
<trkpt lat="48.943130" lon="8.663225">
<ele>329.0</ele>
<speed>1.62</speed>
<course>330.2</course>
<desc>Speed 5.8 km/h Distance 0.31 km</desc>
<time>2010-10-24T10:26:15.25</time>
<name>223</name>
</trkpt>
<trkpt lat="48.943143" lon="8.663213">
<ele>327.0</ele>
<speed>1.25</speed>
<course>329.7</course>
<desc>Speed 4.5 km/h Distance 0.31 km</desc>
<time>2010-10-24T10:26:16.25</time>
<name>224</name>
</trkpt>
<trkpt lat="48.943158" lon="8.663200">
<ele>324.0</ele>
<speed>1.35</speed>
<course>317.5</course>
<desc>Speed 4.9 km/h Distance 0.32 km</desc>
<time>2010-10-24T10:26:17.25</time>
<name>225</name>
</trkpt>
<trkpt lat="48.943167" lon="8.663188">
<ele>323.0</ele>
<speed>0.77</speed>
<course>329.7</course>
<desc>Speed 2.8 km/h Distance 0.32 km</desc>
<time>2010-10-24T10:26:18.25</time>
<name>226</name>
</trkpt>
<trkpt lat="48.943182" lon="8.663175">
<ele>320.5</ele>
<speed>1.02</speed>
<course>315.3</course>
<desc>Speed 3.7 km/h Distance 0.32 km</desc>
<time>2010-10-24T10:26:19.24</time>
<name>227</name>
</trkpt>
<trkpt lat="48.943195" lon="8.663155">
<ele>320.0</ele>
<speed>1.75</speed>
<course>326.6</course>
<desc>Speed 6.3 km/h Distance 0.32 km</desc>
<time>2010-10-24T10:26:20.24</time>
<name>228</name>
</trkpt>
<trkpt lat="48.943207" lon="8.663143">
<ele>319.0</ele>
<speed>1.58</speed>
<course>321.2</course>
<desc>Speed 5.7 km/h Distance 0.32 km</desc>
<time>2010-10-24T10:26:21.24</time>
<name>229</name>
</trkpt>
<trkpt lat="48.943222" lon="8.663125">
<ele>318.5</ele>
<speed>1.13</speed>
<course>326.7</course>
<desc>Speed 4.1 km/h Distance 0.33 km</desc>
<time>2010-10-24T10:26:22.24</time>
<name>230</name>
</trkpt>
<trkpt lat="48.943240" lon="8.663107">
<ele>317.0</ele>
<speed>1.94</speed>
<course>336.3</course>
<desc>Speed 7.0 km/h Distance 0.33 km</desc>
<time>2010-10-24T10:26:23.23</time>
<name>231</name>
</trkpt>
<trkpt lat="48.943255" lon="8.663097">
<ele>314.5</ele>
<speed>1.63</speed>
<course>317.4</course>
<desc>Speed 5.9 km/h Distance 0.33 km</desc>
<time>2010-10-24T10:26:24.23</time>
<name>232</name>
</trkpt>
<trkpt lat="48.943263" lon="8.663085">
<ele>315.0</ele>
<speed>1.42</speed>
<course>18.8</course>
<desc>Speed 5.1 km/h Distance 0.33 km</desc>
<time>2010-10-24T10:26:25.23</time>
<name>233</name>
</trkpt>
<trkpt lat="48.943277" lon="8.663092">
<ele>314.0</ele>
<speed>1.54</speed>
<course>5.0</course>
<desc>Speed 5.5 km/h Distance 0.33 km</desc>
<time>2010-10-24T10:26:26.23</time>
<name>234</name>
</trkpt>
<trkpt lat="48.943285" lon="8.663092">
<ele>314.0</ele>
<speed>1.13</speed>
<course>338.5</course>
<desc>Speed 4.1 km/h Distance 0.33 km</desc>
<time>2010-10-24T10:26:27.22</time>
<name>235</name>
</trkpt>
<trkpt lat="48.943293" lon="8.663087">
<ele>313.5</ele>
<speed>0.91</speed>
<course>322.5</course>
<desc>Speed 3.3 km/h Distance 0.33 km</desc>
<time>2010-10-24T10:26:28.22</time>
<name>236</name>
</trkpt>
<trkpt lat="48.943303" lon="8.663075">
<ele>313.5</ele>
<speed>1.33</speed>
<course>306.5</course>
<desc>Speed 4.8 km/h Distance 0.34 km</desc>
<time>2010-10-24T10:26:29.22</time>
<name>237</name>
</trkpt>
<trkpt lat="48.943307" lon="8.663068">
<ele>314.5</ele>
<speed>0.81</speed>
<course>326.8</course>
<desc>Speed 2.9 km/h Distance 0.34 km</desc>
<time>2010-10-24T10:26:30.22</time>
<name>238</name>
</trkpt>
<trkpt lat="48.943315" lon="8.663060">
<ele>313.5</ele>
<speed>0.79</speed>
<course>346.2</course>
<desc>Speed 2.8 km/h Distance 0.34 km</desc>
<time>2010-10-24T10:26:31.21</time>
<name>239</name>
</trkpt>
<trkpt lat="48.943323" lon="8.663057">
<ele>313.0</ele>
<speed>1.12</speed>
<course>355.0</course>
<desc>Speed 4.0 km/h Distance 0.34 km</desc>
<time>2010-10-24T10:26:32.21</time>
<name>240</name>
</trkpt>
<trkpt lat="48.943332" lon="8.663055">
<ele>312.5</ele>
<speed>1.05</speed>
<course>169.6</course>
<desc>Speed 3.8 km/h Distance 0.34 km</desc>
<time>2010-10-24T10:26:33.20</time>
<name>241</name>
</trkpt>
<trkpt lat="48.943302" lon="8.663063">
<ele>323.0</ele>
<speed>0.34</speed>
<course>222.6</course>
<desc>Speed 1.2 km/h Distance 0.34 km</desc>
<time>2010-10-24T10:26:35.20</time>
<name>242</name>
</trkpt>
<trkpt lat="48.943285" lon="8.663040">
<ele>331.5</ele>
<speed>0.91</speed>
<course>317.4</course>
<desc>Speed 3.3 km/h Distance 0.35 km</desc>
<time>2010-10-24T10:26:39.19</time>
<name>243</name>
</trkpt>
<trkpt lat="48.943293" lon="8.663028">
<ele>332.0</ele>
<speed>1.08</speed>
<course>341.8</course>
<desc>Speed 3.9 km/h Distance 0.35 km</desc>
<time>2010-10-24T10:26:40.19</time>
<name>244</name>
</trkpt>
<trkpt lat="48.943303" lon="8.663023">
<ele>331.5</ele>
<speed>1.02</speed>
<course>347.4</course>
<desc>Speed 3.7 km/h Distance 0.35 km</desc>
<time>2010-10-24T10:26:41.19</time>
<name>245</name>
</trkpt>
<trkpt lat="48.943313" lon="8.663020">
<ele>331.5</ele>
<speed>0.77</speed>
<course>172.6</course>
<desc>Speed 2.8 km/h Distance 0.35 km</desc>
<time>2010-10-24T10:26:42.19</time>
<name>246</name>
</trkpt>
<trkpt lat="48.943307" lon="8.663020">
<ele>335.5</ele>
<speed>0.54</speed>
<course>175.6</course>
<desc>Speed 1.9 km/h Distance 0.35 km</desc>
<time>2010-10-24T10:26:43.18</time>
<name>247</name>
</trkpt>
<trkpt lat="48.943297" lon="8.663022">
<ele>341.5</ele>
<speed>0.55</speed>
<course>326.3</course>
<desc>Speed 2.0 km/h Distance 0.35 km</desc>
<time>2010-10-24T10:26:44.18</time>
<name>248</name>
</trkpt>
<trkpt lat="48.943303" lon="8.663015">
<ele>341.0</ele>
<speed>0.57</speed>
<course>322.5</course>
<desc>Speed 2.1 km/h Distance 0.35 km</desc>
<time>2010-10-24T10:26:45.18</time>
<name>249</name>
</trkpt>
<trkpt lat="48.943313" lon="8.663003">
<ele>340.0</ele>
<speed>0.94</speed>
<course>326.6</course>
<desc>Speed 3.4 km/h Distance 0.35 km</desc>
<time>2010-10-24T10:26:46.18</time>
<name>250</name>
</trkpt>
<trkpt lat="48.943327" lon="8.662990">
<ele>339.5</ele>
<speed>0.99</speed>
<course>318.8</course>
<desc>Speed 3.6 km/h Distance 0.35 km</desc>
<time>2010-10-24T10:26:47.17</time>
<name>251</name>
</trkpt>
<trkpt lat="48.943342" lon="8.662970">
<ele>336.5</ele>
<speed>1.20</speed>
<course>316.8</course>
<desc>Speed 4.3 km/h Distance 0.36 km</desc>
<time>2010-10-24T10:26:48.17</time>
<name>252</name>
</trkpt>
<trkpt lat="48.943353" lon="8.662953">
<ele>334.5</ele>
<speed>0.75</speed>
<course>315.5</course>
<desc>Speed 2.7 km/h Distance 0.36 km</desc>
<time>2010-10-24T10:26:49.17</time>
<name>253</name>
</trkpt>
<trkpt lat="48.943367" lon="8.662933">
<ele>332.0</ele>
<speed>1.01</speed>
<course>322.5</course>
<desc>Speed 3.6 km/h Distance 0.36 km</desc>
<time>2010-10-24T10:26:50.17</time>
<name>254</name>
</trkpt>
<trkpt lat="48.943377" lon="8.662922">
<ele>331.0</ele>
<speed>0.68</speed>
<course>293.5</course>
<desc>Speed 2.4 km/h Distance 0.36 km</desc>
<time>2010-10-24T10:26:51.16</time>
<name>255</name>
</trkpt>
<trkpt lat="48.943380" lon="8.662910">
<ele>331.5</ele>
<speed>0.46</speed>
<course>304.1</course>
<desc>Speed 1.7 km/h Distance 0.36 km</desc>
<time>2010-10-24T10:26:52.16</time>
<name>256</name>
</trkpt>
<trkpt lat="48.943387" lon="8.662895">
<ele>331.0</ele>
<speed>0.60</speed>
<course>318.1</course>
<desc>Speed 2.2 km/h Distance 0.36 km</desc>
<time>2010-10-24T10:26:53.16</time>
<name>257</name>
</trkpt>
<trkpt lat="48.943392" lon="8.662888">
<ele>331.0</ele>
<speed>0.62</speed>
<course>315.5</course>
<desc>Speed 2.2 km/h Distance 0.37 km</desc>
<time>2010-10-24T10:26:54.16</time>
<name>258</name>
</trkpt>
<trkpt lat="48.943395" lon="8.662883">
<ele>332.5</ele>
<speed>0.46</speed>
<course>290.9</course>
<desc>Speed 1.7 km/h Distance 0.37 km</desc>
<time>2010-10-24T10:26:55.15</time>
<name>259</name>
</trkpt>
<trkpt lat="48.943398" lon="8.662870">
<ele>333.0</ele>
<speed>0.93</speed>
<course>321.9</course>
<desc>Speed 3.3 km/h Distance 0.37 km</desc>
<time>2010-10-24T10:26:56.15</time>
<name>260</name>
</trkpt>
<trkpt lat="48.943407" lon="8.662860">
<ele>333.0</ele>
<speed>1.14</speed>
<course>326.6</course>
<desc>Speed 4.1 km/h Distance 0.37 km</desc>
<time>2010-10-24T10:26:57.15</time>
<name>261</name>
</trkpt>
<trkpt lat="48.943417" lon="8.662850">
<ele>334.0</ele>
<speed>1.08</speed>
<course>336.2</course>
<desc>Speed 3.9 km/h Distance 0.37 km</desc>
<time>2010-10-24T10:26:58.15</time>
<name>262</name>
</trkpt>
<trkpt lat="48.943427" lon="8.662843">
<ele>334.0</ele>
<speed>1.10</speed>
<course>326.6</course>
<desc>Speed 4.0 km/h Distance 0.37 km</desc>
<time>2010-10-24T10:26:59.15</time>
<name>263</name>
</trkpt>
<trkpt lat="48.943438" lon="8.662832">
<ele>334.5</ele>
<speed>0.97</speed>
<course>292.1</course>
<desc>Speed 3.5 km/h Distance 0.37 km</desc>
<time>2010-10-24T10:27:00.14</time>
<name>264</name>
</trkpt>
<trkpt lat="48.943445" lon="8.662807">
<ele>336.5</ele>
<speed>0.70</speed>
<course>316.8</course>
<desc>Speed 2.5 km/h Distance 0.37 km</desc>
<time>2010-10-24T10:27:01.14</time>
<name>265</name>
</trkpt>
<trkpt lat="48.943457" lon="8.662790">
<ele>338.0</ele>
<speed>0.88</speed>
<course>323.0</course>
<desc>Speed 3.2 km/h Distance 0.38 km</desc>
<time>2010-10-24T10:27:02.14</time>
<name>266</name>
</trkpt>
<trkpt lat="48.943468" lon="8.662777">
<ele>337.0</ele>
<speed>1.32</speed>
<course>310.2</course>
<desc>Speed 4.8 km/h Distance 0.38 km</desc>
<time>2010-10-24T10:27:03.14</time>
<name>267</name>
</trkpt>
<trkpt lat="48.943477" lon="8.662762">
<ele>336.0</ele>
<speed>1.08</speed>
<course>326.8</course>
<desc>Speed 3.9 km/h Distance 0.38 km</desc>
<time>2010-10-24T10:27:04.13</time>
<name>268</name>
</trkpt>
<trkpt lat="48.943485" lon="8.662753">
<ele>335.5</ele>
<speed>0.93</speed>
<course>330.6</course>
<desc>Speed 3.3 km/h Distance 0.38 km</desc>
<time>2010-10-24T10:27:05.13</time>
<name>269</name>
</trkpt>
<trkpt lat="48.943497" lon="8.662743">
<ele>335.0</ele>
<speed>1.25</speed>
<course>337.9</course>
<desc>Speed 4.5 km/h Distance 0.38 km</desc>
<time>2010-10-24T10:27:06.13</time>
<name>270</name>
</trkpt>
<trkpt lat="48.943510" lon="8.662735">
<ele>334.5</ele>
<speed>1.24</speed>
<course>322.8</course>
<desc>Speed 4.5 km/h Distance 0.38 km</desc>
<time>2010-10-24T10:27:07.12</time>
<name>271</name>
</trkpt>
<trkpt lat="48.943520" lon="8.662723">
<ele>333.5</ele>
<speed>1.13</speed>
<course>323.1</course>
<desc>Speed 4.1 km/h Distance 0.38 km</desc>
<time>2010-10-24T10:27:08.12</time>
<name>272</name>
</trkpt>
<trkpt lat="48.943532" lon="8.662710">
<ele>333.0</ele>
<speed>1.19</speed>
<course>326.9</course>
<desc>Speed 4.3 km/h Distance 0.39 km</desc>
<time>2010-10-24T10:27:09.12</time>
<name>273</name>
</trkpt>
<trkpt lat="48.943543" lon="8.662698">
<ele>333.5</ele>
<speed>0.92</speed>
<course>321.3</course>
<desc>Speed 3.3 km/h Distance 0.39 km</desc>
<time>2010-10-24T10:27:10.12</time>
<name>274</name>
</trkpt>
<trkpt lat="48.943558" lon="8.662680">
<ele>333.5</ele>
<speed>1.04</speed>
<course>315.5</course>
<desc>Speed 3.7 km/h Distance 0.39 km</desc>
<time>2010-10-24T10:27:11.12</time>
<name>275</name>
</trkpt>
<trkpt lat="48.943575" lon="8.662655">
<ele>333.5</ele>
<speed>1.07</speed>
<course>313.6</course>
<desc>Speed 3.9 km/h Distance 0.39 km</desc>
<time>2010-10-24T10:27:12.11</time>
<name>276</name>
</trkpt>
<trkpt lat="48.943592" lon="8.662628">
<ele>334.0</ele>
<speed>1.28</speed>
<course>319.5</course>
<desc>Speed 4.6 km/h Distance 0.40 km</desc>
<time>2010-10-24T10:27:13.11</time>
<name>277</name>
</trkpt>
<trkpt lat="48.943608" lon="8.662607">
<ele>335.5</ele>
<speed>1.03</speed>
<course>326.6</course>
<desc>Speed 3.7 km/h Distance 0.40 km</desc>
<time>2010-10-24T10:27:14.11</time>
<name>278</name>
</trkpt>
<trkpt lat="48.943622" lon="8.662593">
<ele>335.0</ele>
<speed>1.44</speed>
<course>319.7</course>
<desc>Speed 5.2 km/h Distance 0.40 km</desc>
<time>2010-10-24T10:27:15.10</time>
<name>279</name>
</trkpt>
<trkpt lat="48.943633" lon="8.662578">
<ele>335.5</ele>
<speed>1.13</speed>
<course>324.0</course>
<desc>Speed 4.1 km/h Distance 0.40 km</desc>
<time>2010-10-24T10:27:16.10</time>
<name>280</name>
</trkpt>
<trkpt lat="48.943648" lon="8.662562">
<ele>335.5</ele>
<speed>1.27</speed>
<course>319.5</course>
<desc>Speed 4.6 km/h Distance 0.40 km</desc>
<time>2010-10-24T10:27:17.10</time>
<name>281</name>
</trkpt>
<trkpt lat="48.943665" lon="8.662540">
<ele>336.5</ele>
<speed>1.27</speed>
<course>341.8</course>
<desc>Speed 4.6 km/h Distance 0.41 km</desc>
<time>2010-10-24T10:27:18.10</time>
<name>282</name>
</trkpt>
<trkpt lat="48.943675" lon="8.662535">
<ele>336.5</ele>
<speed>1.03</speed>
<course>321.9</course>
<desc>Speed 3.7 km/h Distance 0.41 km</desc>
<time>2010-10-24T10:27:19.09</time>
<name>283</name>
</trkpt>
<trkpt lat="48.943683" lon="8.662525">
<ele>336.5</ele>
<speed>0.93</speed>
<course>310.9</course>
<desc>Speed 3.3 km/h Distance 0.41 km</desc>
<time>2010-10-24T10:27:20.09</time>
<name>284</name>
</trkpt>
<trkpt lat="48.943690" lon="8.662513">
<ele>335.5</ele>
<speed>1.00</speed>
<course>315.5</course>
<desc>Speed 3.6 km/h Distance 0.41 km</desc>
<time>2010-10-24T10:27:21.09</time>
<name>285</name>
</trkpt>
<trkpt lat="48.943700" lon="8.662498">
<ele>334.5</ele>
<speed>1.09</speed>
<course>330.0</course>
<desc>Speed 3.9 km/h Distance 0.41 km</desc>
<time>2010-10-24T10:27:22.09</time>
<name>286</name>
</trkpt>
<trkpt lat="48.943713" lon="8.662487">
<ele>333.5</ele>
<speed>1.16</speed>
<course>312.4</course>
<desc>Speed 4.2 km/h Distance 0.41 km</desc>
<time>2010-10-24T10:27:23.08</time>
<name>287</name>
</trkpt>
<trkpt lat="48.943723" lon="8.662470">
<ele>332.5</ele>
<speed>1.02</speed>
<course>326.6</course>
<desc>Speed 3.7 km/h Distance 0.41 km</desc>
<time>2010-10-24T10:27:24.08</time>
<name>288</name>
</trkpt>
<trkpt lat="48.943733" lon="8.662460">
<ele>332.5</ele>
<speed>1.12</speed>
<course>317.8</course>
<desc>Speed 4.0 km/h Distance 0.42 km</desc>
<time>2010-10-24T10:27:25.08</time>
<name>289</name>
</trkpt>
<trkpt lat="48.943747" lon="8.662442">
<ele>333.5</ele>
<speed>1.34</speed>
<course>313.1</course>
<desc>Speed 4.8 km/h Distance 0.42 km</desc>
<time>2010-10-24T10:27:26.08</time>
<name>290</name>
</trkpt>
<trkpt lat="48.943760" lon="8.662420">
<ele>333.5</ele>
<speed>1.21</speed>
<course>316.3</course>
<desc>Speed 4.4 km/h Distance 0.42 km</desc>
<time>2010-10-24T10:27:27.07</time>
<name>291</name>
</trkpt>
<trkpt lat="48.943778" lon="8.662393">
<ele>333.5</ele>
<speed>1.58</speed>
<course>307.3</course>
<desc>Speed 5.7 km/h Distance 0.42 km</desc>
<time>2010-10-24T10:27:28.07</time>
<name>292</name>
</trkpt>
<trkpt lat="48.943787" lon="8.662377">
<ele>334.0</ele>
<speed>1.27</speed>
<course>311.6</course>
<desc>Speed 4.6 km/h Distance 0.42 km</desc>
<time>2010-10-24T10:27:29.07</time>
<name>293</name>
</trkpt>
<trkpt lat="48.943798" lon="8.662357">
<ele>334.0</ele>
<speed>1.55</speed>
<course>302.1</course>
<desc>Speed 5.6 km/h Distance 0.43 km</desc>
<time>2010-10-24T10:27:30.07</time>
<name>294</name>
</trkpt>
<trkpt lat="48.943810" lon="8.662328">
<ele>333.5</ele>
<speed>1.70</speed>
<course>303.7</course>
<desc>Speed 6.1 km/h Distance 0.43 km</desc>
<time>2010-10-24T10:27:31.07</time>
<name>295</name>
</trkpt>
<trkpt lat="48.943822" lon="8.662302">
<ele>334.0</ele>
<speed>1.36</speed>
<course>301.4</course>
<desc>Speed 4.9 km/h Distance 0.43 km</desc>
<time>2010-10-24T10:27:32.07</time>
<name>296</name>
</trkpt>
<trkpt lat="48.943828" lon="8.662285">
<ele>334.5</ele>
<speed>1.12</speed>
<course>304.7</course>
<desc>Speed 4.0 km/h Distance 0.43 km</desc>
<time>2010-10-24T10:27:33.07</time>
<name>297</name>
</trkpt>
<trkpt lat="48.943837" lon="8.662267">
<ele>334.0</ele>
<speed>1.24</speed>
<course>316.7</course>
<desc>Speed 4.5 km/h Distance 0.43 km</desc>
<time>2010-10-24T10:27:34.07</time>
<name>298</name>
</trkpt>
<trkpt lat="48.943848" lon="8.662250">
<ele>333.5</ele>
<speed>1.27</speed>
<course>311.6</course>
<desc>Speed 4.6 km/h Distance 0.44 km</desc>
<time>2010-10-24T10:27:35.06</time>
<name>299</name>
</trkpt>
<trkpt lat="48.943860" lon="8.662230">
<ele>332.5</ele>
<speed>1.28</speed>
<course>326.8</course>
<desc>Speed 4.6 km/h Distance 0.44 km</desc>
<time>2010-10-24T10:27:36.06</time>
<name>300</name>
</trkpt>
<trkpt lat="48.943870" lon="8.662220">
<ele>331.0</ele>
<speed>1.07</speed>
<course>315.5</course>
<desc>Speed 3.9 km/h Distance 0.44 km</desc>
<time>2010-10-24T10:27:37.06</time>
<name>301</name>
</trkpt>
<trkpt lat="48.943877" lon="8.662210">
<ele>330.0</ele>
<speed>0.83</speed>
<course>301.9</course>
<desc>Speed 3.0 km/h Distance 0.44 km</desc>
<time>2010-10-24T10:27:38.06</time>
<name>302</name>
</trkpt>
<trkpt lat="48.943892" lon="8.662173">
<ele>325.0</ele>
<speed>0.56</speed>
<course>313.6</course>
<desc>Speed 2.0 km/h Distance 0.44 km</desc>
<time>2010-10-24T10:27:45.07</time>
<name>303</name>
</trkpt>
<trkpt lat="48.943900" lon="8.662160">
<ele>323.5</ele>
<speed>1.09</speed>
<course>321.9</course>
<desc>Speed 3.9 km/h Distance 0.44 km</desc>
<time>2010-10-24T10:27:46.07</time>
<name>304</name>
</trkpt>
<trkpt lat="48.943908" lon="8.662150">
<ele>324.5</ele>
<speed>0.92</speed>
<course>232.8</course>
<desc>Speed 3.3 km/h Distance 0.45 km</desc>
<time>2010-10-24T10:27:47.07</time>
<name>305</name>
</trkpt>
<trkpt lat="48.943903" lon="8.662140">
<ele>328.0</ele>
<speed>0.85</speed>
<course>226.6</course>
<desc>Speed 3.1 km/h Distance 0.45 km</desc>
<time>2010-10-24T10:27:48.07</time>
<name>306</name>
</trkpt>
<trkpt lat="48.943895" lon="8.662127">
<ele>332.0</ele>
<speed>0.85</speed>
<course>224.5</course>
<desc>Speed 3.1 km/h Distance 0.45 km</desc>
<time>2010-10-24T10:27:49.07</time>
<name>307</name>
</trkpt>
<trkpt lat="48.943892" lon="8.662122">
<ele>334.5</ele>
<speed>0.60</speed>
<course>307.3</course>
<desc>Speed 2.2 km/h Distance 0.45 km</desc>
<time>2010-10-24T10:27:50.07</time>
<name>308</name>
</trkpt>
<trkpt lat="48.943922" lon="8.662062">
<ele>327.0</ele>
<speed>0.87</speed>
<course>326.6</course>
<desc>Speed 3.1 km/h Distance 0.45 km</desc>
<time>2010-10-24T10:27:52.07</time>
<name>309</name>
</trkpt>
<trkpt lat="48.943933" lon="8.662050">
<ele>324.5</ele>
<speed>1.23</speed>
<course>323.8</course>
<desc>Speed 4.4 km/h Distance 0.46 km</desc>
<time>2010-10-24T10:27:53.07</time>
<name>310</name>
</trkpt>
<trkpt lat="48.943948" lon="8.662033">
<ele>323.0</ele>
<speed>1.37</speed>
<course>320.5</course>
<desc>Speed 4.9 km/h Distance 0.46 km</desc>
<time>2010-10-24T10:27:54.07</time>
<name>311</name>
</trkpt>
<trkpt lat="48.943962" lon="8.662017">
<ele>321.0</ele>
<speed>1.37</speed>
<course>278.7</course>
<desc>Speed 4.9 km/h Distance 0.46 km</desc>
<time>2010-10-24T10:27:55.07</time>
<name>312</name>
</trkpt>
<trkpt lat="48.943963" lon="8.662000">
<ele>320.5</ele>
<speed>0.86</speed>
<course>270.0</course>
<desc>Speed 3.1 km/h Distance 0.46 km</desc>
<time>2010-10-24T10:27:56.07</time>
<name>313</name>
</trkpt>
<trkpt lat="48.943963" lon="8.661980">
<ele>320.5</ele>
<speed>0.87</speed>
<course>284.2</course>
<desc>Speed 3.1 km/h Distance 0.46 km</desc>
<time>2010-10-24T10:27:57.07</time>
<name>314</name>
</trkpt>
<trkpt lat="48.943967" lon="8.661960">
<ele>319.5</ele>
<speed>1.27</speed>
<course>310.3</course>
<desc>Speed 4.6 km/h Distance 0.46 km</desc>
<time>2010-10-24T10:27:58.07</time>
<name>315</name>
</trkpt>
<trkpt lat="48.943975" lon="8.661945">
<ele>319.0</ele>
<speed>1.12</speed>
<course>331.4</course>
<desc>Speed 4.0 km/h Distance 0.47 km</desc>
<time>2010-10-24T10:27:59.07</time>
<name>316</name>
</trkpt>
<trkpt lat="48.943985" lon="8.661937">
<ele>317.5</ele>
<speed>1.09</speed>
<course>331.4</course>
<desc>Speed 3.9 km/h Distance 0.47 km</desc>
<time>2010-10-24T10:28:00.07</time>
<name>317</name>
</trkpt>
<trkpt lat="48.943995" lon="8.661928">
<ele>316.5</ele>
<speed>1.01</speed>
<course>303.3</course>
<desc>Speed 3.6 km/h Distance 0.47 km</desc>
<time>2010-10-24T10:28:01.07</time>
<name>318</name>
</trkpt>
<trkpt lat="48.944000" lon="8.661917">
<ele>316.5</ele>
<speed>0.99</speed>
<course>312.2</course>
<desc>Speed 3.6 km/h Distance 0.47 km</desc>
<time>2010-10-24T10:28:02.07</time>
<name>319</name>
</trkpt>
<trkpt lat="48.944005" lon="8.661908">
<ele>316.0</ele>
<speed>0.77</speed>
<course>310.2</course>
<desc>Speed 2.8 km/h Distance 0.47 km</desc>
<time>2010-10-24T10:28:03.07</time>
<name>320</name>
</trkpt>
<trkpt lat="48.944013" lon="8.661893">
<ele>315.0</ele>
<speed>1.15</speed>
<course>332.8</course>
<desc>Speed 4.1 km/h Distance 0.47 km</desc>
<time>2010-10-24T10:28:04.07</time>
<name>321</name>
</trkpt>
<trkpt lat="48.944028" lon="8.661882">
<ele>314.0</ele>
<speed>1.53</speed>
<course>347.4</course>
<desc>Speed 5.5 km/h Distance 0.47 km</desc>
<time>2010-10-24T10:28:05.07</time>
<name>322</name>
</trkpt>
<trkpt lat="48.944043" lon="8.661877">
<ele>313.0</ele>
<speed>1.42</speed>
<course>348.8</course>
<desc>Speed 5.1 km/h Distance 0.47 km</desc>
<time>2010-10-24T10:28:06.07</time>
<name>323</name>
</trkpt>
<trkpt lat="48.944055" lon="8.661873">
<ele>312.5</ele>
<speed>1.20</speed>
<course>322.5</course>
<desc>Speed 4.3 km/h Distance 0.48 km</desc>
<time>2010-10-24T10:28:07.07</time>
<name>324</name>
</trkpt>
<trkpt lat="48.944065" lon="8.661862">
<ele>312.0</ele>
<speed>1.17</speed>
<course>329.1</course>
<desc>Speed 4.2 km/h Distance 0.48 km</desc>
<time>2010-10-24T10:28:08.07</time>
<name>325</name>
</trkpt>
<trkpt lat="48.944083" lon="8.661845">
<ele>311.0</ele>
<speed>1.42</speed>
<course>337.7</course>
<desc>Speed 5.1 km/h Distance 0.48 km</desc>
<time>2010-10-24T10:28:09.07</time>
<name>326</name>
</trkpt>
<trkpt lat="48.944097" lon="8.661837">
<ele>310.5</ele>
<speed>1.24</speed>
<course>330.2</course>
<desc>Speed 4.5 km/h Distance 0.48 km</desc>
<time>2010-10-24T10:28:10.07</time>
<name>327</name>
</trkpt>
<trkpt lat="48.944110" lon="8.661825">
<ele>309.5</ele>
<speed>1.27</speed>
<course>337.9</course>
<desc>Speed 4.6 km/h Distance 0.48 km</desc>
<time>2010-10-24T10:28:11.07</time>
<name>328</name>
</trkpt>
<trkpt lat="48.944123" lon="8.661817">
<ele>309.0</ele>
<speed>1.14</speed>
<course>321.9</course>
<desc>Speed 4.1 km/h Distance 0.48 km</desc>
<time>2010-10-24T10:28:12.07</time>
<name>329</name>
</trkpt>
<trkpt lat="48.944132" lon="8.661807">
<ele>309.0</ele>
<speed>1.10</speed>
<course>322.5</course>
<desc>Speed 4.0 km/h Distance 0.49 km</desc>
<time>2010-10-24T10:28:13.07</time>
<name>330</name>
</trkpt>
<trkpt lat="48.944142" lon="8.661795">
<ele>308.5</ele>
<speed>1.15</speed>
<course>333.6</course>
<desc>Speed 4.1 km/h Distance 0.49 km</desc>
<time>2010-10-24T10:28:14.07</time>
<name>331</name>
</trkpt>
<trkpt lat="48.944155" lon="8.661785">
<ele>307.5</ele>
<speed>1.40</speed>
<course>320.3</course>
<desc>Speed 5.0 km/h Distance 0.49 km</desc>
<time>2010-10-24T10:28:15.07</time>
<name>332</name>
</trkpt>
<trkpt lat="48.944162" lon="8.661777">
<ele>307.0</ele>
<speed>0.88</speed>
<course>310.2</course>
<desc>Speed 3.2 km/h Distance 0.49 km</desc>
<time>2010-10-24T10:28:16.07</time>
<name>333</name>
</trkpt>
<trkpt lat="48.944170" lon="8.661762">
<ele>307.0</ele>
<speed>1.26</speed>
<course>315.5</course>
<desc>Speed 4.5 km/h Distance 0.49 km</desc>
<time>2010-10-24T10:28:17.07</time>
<name>334</name>
</trkpt>
<trkpt lat="48.944180" lon="8.661747">
<ele>307.0</ele>
<speed>1.25</speed>
<course>323.5</course>
<desc>Speed 4.5 km/h Distance 0.49 km</desc>
<time>2010-10-24T10:28:18.07</time>
<name>335</name>
</trkpt>
<trkpt lat="48.944193" lon="8.661732">
<ele>306.5</ele>
<speed>1.28</speed>
<course>339.9</course>
<desc>Speed 4.6 km/h Distance 0.49 km</desc>
<time>2010-10-24T10:28:19.07</time>
<name>336</name>
</trkpt>
<trkpt lat="48.944208" lon="8.661723">
<ele>305.0</ele>
<speed>1.52</speed>
<course>317.8</course>
<desc>Speed 5.5 km/h Distance 0.50 km</desc>
<time>2010-10-24T10:28:20.07</time>
<name>337</name>
</trkpt>
<trkpt lat="48.944222" lon="8.661705">
<ele>305.5</ele>
<speed>1.25</speed>
<course>294.5</course>
<desc>Speed 4.5 km/h Distance 0.50 km</desc>
<time>2010-10-24T10:28:21.07</time>
<name>338</name>
</trkpt>
<trkpt lat="48.944227" lon="8.661688">
<ele>305.0</ele>
<speed>1.02</speed>
<course>310.9</course>
<desc>Speed 3.7 km/h Distance 0.50 km</desc>
<time>2010-10-24T10:28:22.07</time>
<name>339</name>
</trkpt>
<trkpt lat="48.944233" lon="8.661677">
<ele>304.5</ele>
<speed>0.81</speed>
<course>331.4</course>
<desc>Speed 2.9 km/h Distance 0.50 km</desc>
<time>2010-10-24T10:28:23.07</time>
<name>340</name>
</trkpt>
<trkpt lat="48.944243" lon="8.661668">
<ele>304.0</ele>
<speed>1.02</speed>
<course>266.0</course>
<desc>Speed 3.7 km/h Distance 0.50 km</desc>
<time>2010-10-24T10:28:24.07</time>
<name>341</name>
</trkpt>
<trkpt lat="48.944242" lon="8.661632">
<ele>307.0</ele>
<speed>1.24</speed>
<course>338.5</course>
<desc>Speed 4.5 km/h Distance 0.50 km</desc>
<time>2010-10-24T10:28:25.07</time>
<name>342</name>
</trkpt>
<trkpt lat="48.944258" lon="8.661622">
<ele>305.0</ele>
<speed>1.54</speed>
<course>333.1</course>
<desc>Speed 5.5 km/h Distance 0.51 km</desc>
<time>2010-10-24T10:28:26.07</time>
<name>343</name>
</trkpt>
<trkpt lat="48.944273" lon="8.661610">
<ele>303.0</ele>
<speed>1.40</speed>
<course>342.4</course>
<desc>Speed 5.0 km/h Distance 0.51 km</desc>
<time>2010-10-24T10:28:27.07</time>
<name>344</name>
</trkpt>
<trkpt lat="48.944283" lon="8.661605">
<ele>302.0</ele>
<speed>0.67</speed>
<course>288.7</course>
<desc>Speed 2.4 km/h Distance 0.51 km</desc>
<time>2010-10-24T10:28:28.07</time>
<name>345</name>
</trkpt>
<trkpt lat="48.944287" lon="8.661590">
<ele>303.5</ele>
<speed>0.30</speed>
<course>262.1</course>
<desc>Speed 1.1 km/h Distance 0.51 km</desc>
<time>2010-10-24T10:28:31.07</time>
<name>346</name>
</trkpt>
<trkpt lat="48.944282" lon="8.661535">
<ele>305.0</ele>
<speed>0.46</speed>
<course>299.0</course>
<desc>Speed 1.7 km/h Distance 0.51 km</desc>
<time>2010-10-24T10:28:39.07</time>
<name>347</name>
</trkpt>
<trkpt lat="48.944288" lon="8.661517">
<ele>306.0</ele>
<speed>0.99</speed>
<course>332.1</course>
<desc>Speed 3.6 km/h Distance 0.52 km</desc>
<time>2010-10-24T10:28:42.07</time>
<name>348</name>
</trkpt>
<trkpt lat="48.944297" lon="8.661510">
<ele>305.5</ele>
<speed>1.05</speed>
<course>334.8</course>
<desc>Speed 3.8 km/h Distance 0.52 km</desc>
<time>2010-10-24T10:28:43.07</time>
<name>349</name>
</trkpt>
<trkpt lat="48.944308" lon="8.661502">
<ele>305.0</ele>
<speed>1.34</speed>
<course>326.8</course>
<desc>Speed 4.8 km/h Distance 0.52 km</desc>
<time>2010-10-24T10:28:44.07</time>
<name>350</name>
</trkpt>
<trkpt lat="48.944318" lon="8.661492">
<ele>304.0</ele>
<speed>1.15</speed>
<course>320.6</course>
<desc>Speed 4.1 km/h Distance 0.52 km</desc>
<time>2010-10-24T10:28:45.07</time>
<name>351</name>
</trkpt>
<trkpt lat="48.944325" lon="8.661483">
<ele>304.5</ele>
<speed>0.69</speed>
<course>326.8</course>
<desc>Speed 2.5 km/h Distance 0.52 km</desc>
<time>2010-10-24T10:28:46.07</time>
<name>352</name>
</trkpt>
<trkpt lat="48.944335" lon="8.661473">
<ele>303.5</ele>
<speed>1.22</speed>
<course>323.1</course>
<desc>Speed 4.4 km/h Distance 0.52 km</desc>
<time>2010-10-24T10:28:47.07</time>
<name>353</name>
</trkpt>
<trkpt lat="48.944347" lon="8.661460">
<ele>302.5</ele>
<speed>1.27</speed>
<course>304.6</course>
<desc>Speed 4.6 km/h Distance 0.52 km</desc>
<time>2010-10-24T10:28:48.07</time>
<name>354</name>
</trkpt>
<trkpt lat="48.944355" lon="8.661442">
<ele>302.5</ele>
<speed>1.37</speed>
<course>313.4</course>
<desc>Speed 4.9 km/h Distance 0.53 km</desc>
<time>2010-10-24T10:28:49.07</time>
<name>355</name>
</trkpt>
<trkpt lat="48.944363" lon="8.661428">
<ele>302.5</ele>
<speed>1.39</speed>
<course>290.8</course>
<desc>Speed 5.0 km/h Distance 0.53 km</desc>
<time>2010-10-24T10:28:50.07</time>
<name>356</name>
</trkpt>
<trkpt lat="48.944368" lon="8.661408">
<ele>304.0</ele>
<speed>1.14</speed>
<course>338.5</course>
<desc>Speed 4.1 km/h Distance 0.53 km</desc>
<time>2010-10-24T10:28:51.07</time>
<name>357</name>
</trkpt>
<trkpt lat="48.944377" lon="8.661403">
<ele>303.0</ele>
<speed>1.03</speed>
<course>341.8</course>
<desc>Speed 3.7 km/h Distance 0.53 km</desc>
<time>2010-10-24T10:28:52.07</time>
<name>358</name>
</trkpt>
<trkpt lat="48.944387" lon="8.661398">
<ele>302.0</ele>
<speed>1.00</speed>
<course>336.2</course>
<desc>Speed 3.6 km/h Distance 0.53 km</desc>
<time>2010-10-24T10:28:53.07</time>
<name>359</name>
</trkpt>
<trkpt lat="48.944397" lon="8.661392">
<ele>300.5</ele>
<speed>1.19</speed>
<course>315.5</course>
<desc>Speed 4.3 km/h Distance 0.53 km</desc>
<time>2010-10-24T10:28:54.07</time>
<name>360</name>
</trkpt>
<trkpt lat="48.944403" lon="8.661382">
<ele>301.0</ele>
<speed>0.87</speed>
<course>315.5</course>
<desc>Speed 3.1 km/h Distance 0.53 km</desc>
<time>2010-10-24T10:28:55.07</time>
<name>361</name>
</trkpt>
<trkpt lat="48.944413" lon="8.661367">
<ele>299.5</ele>
<speed>1.33</speed>
<course>304.1</course>
<desc>Speed 4.8 km/h Distance 0.53 km</desc>
<time>2010-10-24T10:28:56.07</time>
<name>362</name>
</trkpt>
<trkpt lat="48.944420" lon="8.661352">
<ele>298.5</ele>
<speed>1.09</speed>
<course>307.3</course>
<desc>Speed 3.9 km/h Distance 0.54 km</desc>
<time>2010-10-24T10:28:57.07</time>
<name>363</name>
</trkpt>
<trkpt lat="48.944430" lon="8.661332">
<ele>298.0</ele>
<speed>1.37</speed>
<course>307.3</course>
<desc>Speed 4.9 km/h Distance 0.54 km</desc>
<time>2010-10-24T10:28:58.07</time>
<name>364</name>
</trkpt>
<trkpt lat="48.944440" lon="8.661312">
<ele>297.5</ele>
<speed>1.46</speed>
<course>331.4</course>
<desc>Speed 5.3 km/h Distance 0.54 km</desc>
<time>2010-10-24T10:28:59.07</time>
<name>365</name>
</trkpt>
<trkpt lat="48.944450" lon="8.661303">
<ele>297.0</ele>
<speed>1.25</speed>
<course>326.8</course>
<desc>Speed 4.5 km/h Distance 0.54 km</desc>
<time>2010-10-24T10:29:00.07</time>
<name>366</name>
</trkpt>
<trkpt lat="48.944458" lon="8.661295">
<ele>296.0</ele>
<speed>0.93</speed>
<course>326.8</course>
<desc>Speed 3.3 km/h Distance 0.54 km</desc>
<time>2010-10-24T10:29:01.07</time>
<name>367</name>
</trkpt>
<trkpt lat="48.944467" lon="8.661287">
<ele>294.5</ele>
<speed>0.97</speed>
<course>321.9</course>
<desc>Speed 3.5 km/h Distance 0.54 km</desc>
<time>2010-10-24T10:29:02.07</time>
<name>368</name>
</trkpt>
<trkpt lat="48.944475" lon="8.661277">
<ele>293.5</ele>
<speed>1.11</speed>
<course>315.4</course>
<desc>Speed 4.0 km/h Distance 0.54 km</desc>
<time>2010-10-24T10:29:03.07</time>
<name>369</name>
</trkpt>
<trkpt lat="48.944485" lon="8.661262">
<ele>293.0</ele>
<speed>1.24</speed>
<course>344.1</course>
<desc>Speed 4.5 km/h Distance 0.55 km</desc>
<time>2010-10-24T10:29:04.07</time>
<name>370</name>
</trkpt>
<trkpt lat="48.944493" lon="8.661258">
<ele>292.0</ele>
<speed>0.93</speed>
<course>337.4</course>
<desc>Speed 3.3 km/h Distance 0.55 km</desc>
<time>2010-10-24T10:29:05.07</time>
<name>371</name>
</trkpt>
<trkpt lat="48.944507" lon="8.661250">
<ele>292.0</ele>
<speed>1.40</speed>
<course>307.2</course>
<desc>Speed 5.0 km/h Distance 0.55 km</desc>
<time>2010-10-24T10:29:06.07</time>
<name>372</name>
</trkpt>
<trkpt lat="48.944512" lon="8.661240">
<ele>291.5</ele>
<speed>0.82</speed>
<course>341.9</course>
<desc>Speed 3.0 km/h Distance 0.55 km</desc>
<time>2010-10-24T10:29:07.07</time>
<name>373</name>
</trkpt>
<trkpt lat="48.944528" lon="8.661232">
<ele>290.0</ele>
<speed>1.71</speed>
<course>318.8</course>
<desc>Speed 6.2 km/h Distance 0.55 km</desc>
<time>2010-10-24T10:29:08.07</time>
<name>374</name>
</trkpt>
<trkpt lat="48.944538" lon="8.661218">
<ele>290.0</ele>
<speed>1.35</speed>
<course>304.1</course>
<desc>Speed 4.9 km/h Distance 0.55 km</desc>
<time>2010-10-24T10:29:09.07</time>
<name>375</name>
</trkpt>
<trkpt lat="48.944545" lon="8.661203">
<ele>291.0</ele>
<speed>1.01</speed>
<course>343.7</course>
<desc>Speed 3.6 km/h Distance 0.55 km</desc>
<time>2010-10-24T10:29:10.07</time>
<name>376</name>
</trkpt>
<trkpt lat="48.944560" lon="8.661197">
<ele>290.0</ele>
<speed>1.37</speed>
<course>310.9</course>
<desc>Speed 4.9 km/h Distance 0.56 km</desc>
<time>2010-10-24T10:29:11.07</time>
<name>377</name>
</trkpt>
<trkpt lat="48.944567" lon="8.661185">
<ele>290.0</ele>
<speed>1.01</speed>
<course>304.0</course>
<desc>Speed 3.6 km/h Distance 0.56 km</desc>
<time>2010-10-24T10:29:12.07</time>
<name>378</name>
</trkpt>
<trkpt lat="48.944573" lon="8.661170">
<ele>290.0</ele>
<speed>1.07</speed>
<course>304.7</course>
<desc>Speed 3.9 km/h Distance 0.56 km</desc>
<time>2010-10-24T10:29:13.07</time>
<name>379</name>
</trkpt>
<trkpt lat="48.944582" lon="8.661152">
<ele>290.5</ele>
<speed>1.16</speed>
<course>331.4</course>
<desc>Speed 4.2 km/h Distance 0.56 km</desc>
<time>2010-10-24T10:29:14.07</time>
<name>380</name>
</trkpt>
<trkpt lat="48.944592" lon="8.661143">
<ele>290.5</ele>
<speed>1.11</speed>
<course>312.4</course>
<desc>Speed 4.0 km/h Distance 0.56 km</desc>
<time>2010-10-24T10:29:15.07</time>
<name>381</name>
</trkpt>
<trkpt lat="48.944602" lon="8.661127">
<ele>291.5</ele>
<speed>0.79</speed>
<course>326.8</course>
<desc>Speed 2.8 km/h Distance 0.56 km</desc>
<time>2010-10-24T10:29:16.07</time>
<name>382</name>
</trkpt>
<trkpt lat="48.944610" lon="8.661118">
<ele>291.5</ele>
<speed>1.10</speed>
<course>318.8</course>
<desc>Speed 4.0 km/h Distance 0.56 km</desc>
<time>2010-10-24T10:29:17.07</time>
<name>383</name>
</trkpt>
<trkpt lat="48.944620" lon="8.661105">
<ele>292.0</ele>
<speed>1.29</speed>
<course>331.4</course>
<desc>Speed 4.6 km/h Distance 0.57 km</desc>
<time>2010-10-24T10:29:18.07</time>
<name>384</name>
</trkpt>
<trkpt lat="48.944630" lon="8.661097">
<ele>291.5</ele>
<speed>1.12</speed>
<course>323.4</course>
<desc>Speed 4.0 km/h Distance 0.57 km</desc>
<time>2010-10-24T10:29:19.07</time>
<name>385</name>
</trkpt>
<trkpt lat="48.944643" lon="8.661082">
<ele>291.5</ele>
<speed>1.50</speed>
<course>299.7</course>
<desc>Speed 5.4 km/h Distance 0.57 km</desc>
<time>2010-10-24T10:29:20.07</time>
<name>386</name>
</trkpt>
<trkpt lat="48.944653" lon="8.661055">
<ele>293.5</ele>
<speed>1.16</speed>
<course>290.8</course>
<desc>Speed 4.2 km/h Distance 0.57 km</desc>
<time>2010-10-24T10:29:21.07</time>
<name>387</name>
</trkpt>
<trkpt lat="48.944663" lon="8.661015">
<ele>297.0</ele>
<speed>1.57</speed>
<course>288.3</course>
<desc>Speed 5.7 km/h Distance 0.57 km</desc>
<time>2010-10-24T10:29:22.07</time>
<name>388</name>
</trkpt>
<trkpt lat="48.944672" lon="8.660977">
<ele>302.0</ele>
<speed>1.24</speed>
<course>336.3</course>
<desc>Speed 4.5 km/h Distance 0.58 km</desc>
<time>2010-10-24T10:29:23.07</time>
<name>389</name>
</trkpt>
<trkpt lat="48.944687" lon="8.660967">
<ele>300.5</ele>
<speed>1.38</speed>
<course>326.8</course>
<desc>Speed 5.0 km/h Distance 0.58 km</desc>
<time>2010-10-24T10:29:24.07</time>
<name>390</name>
</trkpt>
<trkpt lat="48.944697" lon="8.660957">
<ele>301.0</ele>
<speed>1.19</speed>
<course>320.6</course>
<desc>Speed 4.3 km/h Distance 0.58 km</desc>
<time>2010-10-24T10:29:25.07</time>
<name>391</name>
</trkpt>
<trkpt lat="48.944710" lon="8.660940">
<ele>301.5</ele>
<speed>1.40</speed>
<course>317.4</course>
<desc>Speed 5.0 km/h Distance 0.58 km</desc>
<time>2010-10-24T10:29:26.07</time>
<name>392</name>
</trkpt>
<trkpt lat="48.944718" lon="8.660928">
<ele>302.0</ele>
<speed>1.10</speed>
<course>333.6</course>
<desc>Speed 4.0 km/h Distance 0.58 km</desc>
<time>2010-10-24T10:29:27.07</time>
<name>393</name>
</trkpt>
<trkpt lat="48.944732" lon="8.660918">
<ele>301.5</ele>
<speed>1.28</speed>
<course>330.2</course>
<desc>Speed 4.6 km/h Distance 0.58 km</desc>
<time>2010-10-24T10:29:28.07</time>
<name>394</name>
</trkpt>
<trkpt lat="48.944745" lon="8.660907">
<ele>301.5</ele>
<speed>1.35</speed>
<course>335.3</course>
<desc>Speed 4.9 km/h Distance 0.59 km</desc>
<time>2010-10-24T10:29:29.07</time>
<name>395</name>
</trkpt>
<trkpt lat="48.944762" lon="8.660895">
<ele>300.0</ele>
<speed>1.52</speed>
<course>279.1</course>
<desc>Speed 5.5 km/h Distance 0.59 km</desc>
<time>2010-10-24T10:29:30.07</time>
<name>396</name>
</trkpt>
<trkpt lat="48.944765" lon="8.660863">
<ele>303.5</ele>
<speed>1.54</speed>
<course>305.0</course>
<desc>Speed 5.5 km/h Distance 0.59 km</desc>
<time>2010-10-24T10:29:31.07</time>
<name>397</name>
</trkpt>
<trkpt lat="48.944775" lon="8.660842">
<ele>305.0</ele>
<speed>1.44</speed>
<course>299.7</course>
<desc>Speed 5.2 km/h Distance 0.59 km</desc>
<time>2010-10-24T10:29:32.07</time>
<name>398</name>
</trkpt>
<trkpt lat="48.944785" lon="8.660815">
<ele>306.5</ele>
<speed>1.51</speed>
<course>300.6</course>
<desc>Speed 5.4 km/h Distance 0.60 km</desc>
<time>2010-10-24T10:29:33.07</time>
<name>399</name>
</trkpt>
<trkpt lat="48.944797" lon="8.660785">
<ele>308.0</ele>
<speed>1.62</speed>
<course>270.0</course>
<desc>Speed 5.8 km/h Distance 0.60 km</desc>
<time>2010-10-24T10:29:34.07</time>
<name>400</name>
</trkpt>
<trkpt lat="48.944797" lon="8.660703">
<ele>319.5</ele>
<speed>0.67</speed>
<course>341.8</course>
<desc>Speed 2.4 km/h Distance 0.60 km</desc>
<time>2010-10-24T10:29:36.07</time>
<name>401</name>
</trkpt>
<trkpt lat="48.944807" lon="8.660698">
<ele>318.5</ele>
<speed>1.25</speed>
<course>321.9</course>
<desc>Speed 4.5 km/h Distance 0.60 km</desc>
<time>2010-10-24T10:29:37.07</time>
<name>402</name>
</trkpt>
<trkpt lat="48.944815" lon="8.660688">
<ele>318.5</ele>
<speed>0.85</speed>
<course>282.3</course>
<desc>Speed 3.1 km/h Distance 0.61 km</desc>
<time>2010-10-24T10:29:38.07</time>
<name>403</name>
</trkpt>
<trkpt lat="48.944818" lon="8.660665">
<ele>320.0</ele>
<speed>1.27</speed>
<course>304.7</course>
<desc>Speed 4.6 km/h Distance 0.61 km</desc>
<time>2010-10-24T10:29:39.07</time>
<name>404</name>
</trkpt>
<trkpt lat="48.944827" lon="8.660647">
<ele>321.0</ele>
<speed>1.25</speed>
<course>331.4</course>
<desc>Speed 4.5 km/h Distance 0.61 km</desc>
<time>2010-10-24T10:29:40.07</time>
<name>405</name>
</trkpt>
<trkpt lat="48.944837" lon="8.660638">
<ele>320.5</ele>
<speed>1.23</speed>
<course>310.2</course>
<desc>Speed 4.4 km/h Distance 0.61 km</desc>
<time>2010-10-24T10:29:41.07</time>
<name>406</name>
</trkpt>
<trkpt lat="48.944845" lon="8.660623">
<ele>320.5</ele>
<speed>1.16</speed>
<course>288.7</course>
<desc>Speed 4.2 km/h Distance 0.61 km</desc>
<time>2010-10-24T10:29:42.07</time>
<name>407</name>
</trkpt>
<trkpt lat="48.944848" lon="8.660608">
<ele>321.0</ele>
<speed>0.83</speed>
<course>293.5</course>
<desc>Speed 3.0 km/h Distance 0.61 km</desc>
<time>2010-10-24T10:29:43.07</time>
<name>408</name>
</trkpt>
<trkpt lat="48.944855" lon="8.660585">
<ele>322.5</ele>
<speed>1.67</speed>
<course>294.6</course>
<desc>Speed 6.0 km/h Distance 0.62 km</desc>
<time>2010-10-24T10:29:44.07</time>
<name>409</name>
</trkpt>
<trkpt lat="48.944860" lon="8.660568">
<ele>323.5</ele>
<speed>1.26</speed>
<course>283.2</course>
<desc>Speed 4.5 km/h Distance 0.62 km</desc>
<time>2010-10-24T10:29:45.07</time>
<name>410</name>
</trkpt>
<trkpt lat="48.944863" lon="8.660547">
<ele>325.5</ele>
<speed>1.26</speed>
<course>313.6</course>
<desc>Speed 4.5 km/h Distance 0.62 km</desc>
<time>2010-10-24T10:29:46.07</time>
<name>411</name>
</trkpt>
<trkpt lat="48.944872" lon="8.660533">
<ele>324.5</ele>
<speed>1.20</speed>
<course>263.9</course>
<desc>Speed 4.3 km/h Distance 0.62 km</desc>
<time>2010-10-24T10:29:47.07</time>
<name>412</name>
</trkpt>
<trkpt lat="48.944867" lon="8.660462">
<ele>333.0</ele>
<speed>1.01</speed>
<course>332.8</course>
<desc>Speed 3.6 km/h Distance 0.62 km</desc>
<time>2010-10-24T10:29:49.07</time>
<name>413</name>
</trkpt>
<trkpt lat="48.944882" lon="8.660450">
<ele>333.0</ele>
<speed>1.28</speed>
<course>344.0</course>
<desc>Speed 4.6 km/h Distance 0.63 km</desc>
<time>2010-10-24T10:29:50.07</time>
<name>414</name>
</trkpt>
<trkpt lat="48.944893" lon="8.660445">
<ele>332.5</ele>
<speed>1.30</speed>
<course>307.3</course>
<desc>Speed 4.7 km/h Distance 0.63 km</desc>
<time>2010-10-24T10:29:51.07</time>
<name>415</name>
</trkpt>
<trkpt lat="48.944902" lon="8.660428">
<ele>332.5</ele>
<speed>1.30</speed>
<course>303.1</course>
<desc>Speed 4.7 km/h Distance 0.63 km</desc>
<time>2010-10-24T10:29:52.07</time>
<name>416</name>
</trkpt>
<trkpt lat="48.944912" lon="8.660405">
<ele>333.0</ele>
<speed>1.38</speed>
<course>336.2</course>
<desc>Speed 5.0 km/h Distance 0.63 km</desc>
<time>2010-10-24T10:29:53.07</time>
<name>417</name>
</trkpt>
<trkpt lat="48.944922" lon="8.660398">
<ele>332.0</ele>
<speed>1.09</speed>
<course>315.3</course>
<desc>Speed 3.9 km/h Distance 0.63 km</desc>
<time>2010-10-24T10:29:54.07</time>
<name>418</name>
</trkpt>
<trkpt lat="48.944932" lon="8.660383">
<ele>332.5</ele>
<speed>1.22</speed>
<course>314.1</course>
<desc>Speed 4.4 km/h Distance 0.63 km</desc>
<time>2010-10-24T10:29:55.07</time>
<name>419</name>
</trkpt>
<trkpt lat="48.944943" lon="8.660365">
<ele>333.5</ele>
<speed>1.22</speed>
<course>313.1</course>
<desc>Speed 4.4 km/h Distance 0.64 km</desc>
<time>2010-10-24T10:29:56.07</time>
<name>420</name>
</trkpt>
<trkpt lat="48.944957" lon="8.660343">
<ele>334.0</ele>
<speed>1.40</speed>
<course>1.2</course>
<desc>Speed 5.0 km/h Distance 0.64 km</desc>
<time>2010-10-24T10:29:57.07</time>
<name>421</name>
</trkpt>
<trkpt lat="48.944970" lon="8.660343">
<ele>333.0</ele>
<speed>1.44</speed>
<course>326.8</course>
<desc>Speed 5.2 km/h Distance 0.64 km</desc>
<time>2010-10-24T10:29:58.07</time>
<name>422</name>
</trkpt>
<trkpt lat="48.944980" lon="8.660333">
<ele>333.0</ele>
<speed>1.03</speed>
<course>330.8</course>
<desc>Speed 3.7 km/h Distance 0.64 km</desc>
<time>2010-10-24T10:29:59.07</time>
<name>423</name>
</trkpt>
<trkpt lat="48.944992" lon="8.660323">
<ele>332.5</ele>
<speed>1.14</speed>
<course>270.0</course>
<desc>Speed 4.1 km/h Distance 0.64 km</desc>
<time>2010-10-24T10:30:00.07</time>
<name>424</name>
</trkpt>
<trkpt lat="48.944992" lon="8.660295">
<ele>334.0</ele>
<speed>0.85</speed>
<course>312.5</course>
<desc>Speed 3.1 km/h Distance 0.64 km</desc>
<time>2010-10-24T10:30:01.07</time>
<name>425</name>
</trkpt>
<trkpt lat="48.945002" lon="8.660278">
<ele>334.5</ele>
<speed>1.17</speed>
<course>344.0</course>
<desc>Speed 4.2 km/h Distance 0.65 km</desc>
<time>2010-10-24T10:30:02.07</time>
<name>426</name>
</trkpt>
<trkpt lat="48.945013" lon="8.660273">
<ele>333.5</ele>
<speed>1.16</speed>
<course>322.5</course>
<desc>Speed 4.2 km/h Distance 0.65 km</desc>
<time>2010-10-24T10:30:03.07</time>
<name>427</name>
</trkpt>
<trkpt lat="48.945023" lon="8.660262">
<ele>333.0</ele>
<speed>1.10</speed>
<course>330.8</course>
<desc>Speed 4.0 km/h Distance 0.65 km</desc>
<time>2010-10-24T10:30:04.07</time>
<name>428</name>
</trkpt>
<trkpt lat="48.945035" lon="8.660252">
<ele>333.0</ele>
<speed>1.09</speed>
<course>304.7</course>
<desc>Speed 3.9 km/h Distance 0.65 km</desc>
<time>2010-10-24T10:30:05.07</time>
<name>429</name>
</trkpt>
<trkpt lat="48.945043" lon="8.660233">
<ele>334.0</ele>
<speed>1.25</speed>
<course>356.2</course>
<desc>Speed 4.5 km/h Distance 0.65 km</desc>
<time>2010-10-24T10:30:06.07</time>
<name>430</name>
</trkpt>
<trkpt lat="48.945058" lon="8.660232">
<ele>333.0</ele>
<speed>1.46</speed>
<course>321.2</course>
<desc>Speed 5.3 km/h Distance 0.65 km</desc>
<time>2010-10-24T10:30:07.07</time>
<name>431</name>
</trkpt>
<trkpt lat="48.945073" lon="8.660213">
<ele>332.0</ele>
<speed>1.44</speed>
<course>285.9</course>
<desc>Speed 5.2 km/h Distance 0.66 km</desc>
<time>2010-10-24T10:30:08.07</time>
<name>432</name>
</trkpt>
<trkpt lat="48.945078" lon="8.660187">
<ele>334.0</ele>
<speed>1.54</speed>
<course>316.8</course>
<desc>Speed 5.5 km/h Distance 0.66 km</desc>
<time>2010-10-24T10:30:09.07</time>
<name>433</name>
</trkpt>
<trkpt lat="48.945090" lon="8.660170">
<ele>334.0</ele>
<speed>1.46</speed>
<course>326.8</course>
<desc>Speed 5.3 km/h Distance 0.66 km</desc>
<time>2010-10-24T10:30:10.07</time>
<name>434</name>
</trkpt>
<trkpt lat="48.945100" lon="8.660160">
<ele>333.5</ele>
<speed>1.02</speed>
<course>298.5</course>
<desc>Speed 3.7 km/h Distance 0.66 km</desc>
<time>2010-10-24T10:30:11.07</time>
<name>435</name>
</trkpt>
<trkpt lat="48.945108" lon="8.660137">
<ele>335.0</ele>
<speed>0.75</speed>
<course>275.8</course>
<desc>Speed 2.7 km/h Distance 0.66 km</desc>
<time>2010-10-24T10:30:12.07</time>
<name>436</name>
</trkpt>
<trkpt lat="48.945110" lon="8.660112">
<ele>336.5</ele>
<speed>1.47</speed>
<course>316.9</course>
<desc>Speed 5.3 km/h Distance 0.67 km</desc>
<time>2010-10-24T10:30:13.07</time>
<name>437</name>
</trkpt>
<trkpt lat="48.945122" lon="8.660095">
<ele>336.0</ele>
<speed>1.37</speed>
<course>309.7</course>
<desc>Speed 4.9 km/h Distance 0.67 km</desc>
<time>2010-10-24T10:30:14.07</time>
<name>438</name>
</trkpt>
<trkpt lat="48.945132" lon="8.660077">
<ele>336.0</ele>
<speed>1.36</speed>
<course>270.0</course>
<desc>Speed 4.9 km/h Distance 0.67 km</desc>
<time>2010-10-24T10:30:15.07</time>
<name>439</name>
</trkpt>
<trkpt lat="48.945132" lon="8.660045">
<ele>339.0</ele>
<speed>1.38</speed>
<course>296.9</course>
<desc>Speed 5.0 km/h Distance 0.67 km</desc>
<time>2010-10-24T10:30:16.40</time>
<name>440</name>
</trkpt>
<trkpt lat="48.945138" lon="8.660025">
<ele>340.0</ele>
<speed>1.27</speed>
<course>295.1</course>
<desc>Speed 4.6 km/h Distance 0.67 km</desc>
<time>2010-10-24T10:30:17.08</time>
<name>441</name>
</trkpt>
<trkpt lat="48.945145" lon="8.660003">
<ele>339.5</ele>
<speed>1.20</speed>
<course>332.1</course>
<desc>Speed 4.3 km/h Distance 0.67 km</desc>
<time>2010-10-24T10:30:18.08</time>
<name>442</name>
</trkpt>
<trkpt lat="48.945153" lon="8.659997">
<ele>339.0</ele>
<speed>0.85</speed>
<course>343.4</course>
<desc>Speed 3.1 km/h Distance 0.68 km</desc>
<time>2010-10-24T10:30:19.08</time>
<name>443</name>
</trkpt>
<trkpt lat="48.945168" lon="8.659990">
<ele>337.5</ele>
<speed>1.36</speed>
<course>330.6</course>
<desc>Speed 4.9 km/h Distance 0.68 km</desc>
<time>2010-10-24T10:30:20.08</time>
<name>444</name>
</trkpt>
<trkpt lat="48.945180" lon="8.659980">
<ele>337.5</ele>
<speed>1.09</speed>
<course>322.3</course>
<desc>Speed 3.9 km/h Distance 0.68 km</desc>
<time>2010-10-24T10:30:21.08</time>
<name>445</name>
</trkpt>
<trkpt lat="48.945190" lon="8.659968">
<ele>337.0</ele>
<speed>1.29</speed>
<course>3.8</course>
<desc>Speed 4.6 km/h Distance 0.68 km</desc>
<time>2010-10-24T10:30:22.08</time>
<name>446</name>
</trkpt>
<trkpt lat="48.945205" lon="8.659968">
<ele>335.5</ele>
<speed>1.44</speed>
<course>330.6</course>
<desc>Speed 5.2 km/h Distance 0.68 km</desc>
<time>2010-10-24T10:30:23.08</time>
<name>447</name>
</trkpt>
<trkpt lat="48.945217" lon="8.659958">
<ele>334.5</ele>
<speed>1.12</speed>
<course>298.5</course>
<desc>Speed 4.0 km/h Distance 0.68 km</desc>
<time>2010-10-24T10:30:24.08</time>
<name>448</name>
</trkpt>
<trkpt lat="48.945225" lon="8.659935">
<ele>336.0</ele>
<speed>1.04</speed>
<course>315.5</course>
<desc>Speed 3.7 km/h Distance 0.69 km</desc>
<time>2010-10-24T10:30:25.08</time>
<name>449</name>
</trkpt>
<trkpt lat="48.945232" lon="8.659925">
<ele>336.0</ele>
<speed>1.11</speed>
<course>282.3</course>
<desc>Speed 4.0 km/h Distance 0.69 km</desc>
<time>2010-10-24T10:30:26.08</time>
<name>450</name>
</trkpt>
<trkpt lat="48.945235" lon="8.659902">
<ele>338.5</ele>
<speed>1.00</speed>
<course>319.8</course>
<desc>Speed 3.6 km/h Distance 0.69 km</desc>
<time>2010-10-24T10:30:27.08</time>
<name>451</name>
</trkpt>
<trkpt lat="48.945247" lon="8.659887">
<ele>337.5</ele>
<speed>1.39</speed>
<course>329.3</course>
<desc>Speed 5.0 km/h Distance 0.69 km</desc>
<time>2010-10-24T10:30:28.08</time>
<name>452</name>
</trkpt>
<trkpt lat="48.945263" lon="8.659872">
<ele>336.0</ele>
<speed>1.57</speed>
<course>303.1</course>
<desc>Speed 5.7 km/h Distance 0.69 km</desc>
<time>2010-10-24T10:30:29.08</time>
<name>453</name>
</trkpt>
<trkpt lat="48.945273" lon="8.659848">
<ele>337.0</ele>
<speed>1.45</speed>
<course>333.8</course>
<desc>Speed 5.2 km/h Distance 0.69 km</desc>
<time>2010-10-24T10:30:30.08</time>
<name>454</name>
</trkpt>
<trkpt lat="48.945287" lon="8.659838">
<ele>336.0</ele>
<speed>1.33</speed>
<course>331.4</course>
<desc>Speed 4.8 km/h Distance 0.70 km</desc>
<time>2010-10-24T10:30:31.08</time>
<name>455</name>
</trkpt>
<trkpt lat="48.945297" lon="8.659830">
<ele>335.5</ele>
<speed>0.97</speed>
<course>307.3</course>
<desc>Speed 3.5 km/h Distance 0.70 km</desc>
<time>2010-10-24T10:30:32.08</time>
<name>456</name>
</trkpt>
<trkpt lat="48.945303" lon="8.659817">
<ele>336.0</ele>
<speed>0.76</speed>
<course>319.8</course>
<desc>Speed 2.7 km/h Distance 0.70 km</desc>
<time>2010-10-24T10:30:33.08</time>
<name>457</name>
</trkpt>
<trkpt lat="48.945315" lon="8.659802">
<ele>335.5</ele>
<speed>1.23</speed>
<course>317.8</course>
<desc>Speed 4.4 km/h Distance 0.70 km</desc>
<time>2010-10-24T10:30:34.08</time>
<name>458</name>
</trkpt>
<trkpt lat="48.945328" lon="8.659783">
<ele>335.0</ele>
<speed>1.27</speed>
<course>307.2</course>
<desc>Speed 4.6 km/h Distance 0.70 km</desc>
<time>2010-10-24T10:30:35.08</time>
<name>459</name>
</trkpt>
<trkpt lat="48.945340" lon="8.659760">
<ele>335.5</ele>
<speed>1.20</speed>
<course>333.6</course>
<desc>Speed 4.3 km/h Distance 0.70 km</desc>
<time>2010-10-24T10:30:36.08</time>
<name>460</name>
</trkpt>
<trkpt lat="48.945353" lon="8.659750">
<ele>334.5</ele>
<speed>1.32</speed>
<course>286.9</course>
<desc>Speed 4.8 km/h Distance 0.71 km</desc>
<time>2010-10-24T10:30:37.08</time>
<name>461</name>
</trkpt>
<trkpt lat="48.945358" lon="8.659725">
<ele>336.0</ele>
<speed>1.07</speed>
<course>322.5</course>
<desc>Speed 3.9 km/h Distance 0.71 km</desc>
<time>2010-10-24T10:30:38.08</time>
<name>462</name>
</trkpt>
<trkpt lat="48.945368" lon="8.659713">
<ele>335.5</ele>
<speed>0.93</speed>
<course>326.7</course>
<desc>Speed 3.3 km/h Distance 0.71 km</desc>
<time>2010-10-24T10:30:39.08</time>
<name>463</name>
</trkpt>
<trkpt lat="48.945382" lon="8.659700">
<ele>335.5</ele>
<speed>1.28</speed>
<course>357.5</course>
<desc>Speed 4.6 km/h Distance 0.71 km</desc>
<time>2010-10-24T10:30:40.08</time>
<name>464</name>
</trkpt>
<trkpt lat="48.945400" lon="8.659698">
<ele>334.0</ele>
<speed>1.25</speed>
<course>277.0</course>
<desc>Speed 4.5 km/h Distance 0.71 km</desc>
<time>2010-10-24T10:30:41.08</time>
<name>465</name>
</trkpt>
<trkpt lat="48.945405" lon="8.659637">
<ele>341.5</ele>
<speed>1.15</speed>
<course>345.1</course>
<desc>Speed 4.1 km/h Distance 0.72 km</desc>
<time>2010-10-24T10:30:43.08</time>
<name>466</name>
</trkpt>
<trkpt lat="48.945413" lon="8.659633">
<ele>341.5</ele>
<speed>0.87</speed>
<course>222.6</course>
<desc>Speed 3.1 km/h Distance 0.72 km</desc>
<time>2010-10-24T10:30:44.08</time>
<name>467</name>
</trkpt>
<trkpt lat="48.945405" lon="8.659622">
<ele>343.5</ele>
<speed>0.43</speed>
<course>0.0</course>
<desc>Speed 1.5 km/h Distance 0.72 km</desc>
<time>2010-10-24T10:30:45.08</time>
<name>468</name>
</trkpt>
<trkpt lat="48.945410" lon="8.659622">
<ele>343.5</ele>
<speed>0.73</speed>
<course>352.3</course>
<desc>Speed 2.6 km/h Distance 0.72 km</desc>
<time>2010-10-24T10:30:46.08</time>
<name>469</name>
</trkpt>
<trkpt lat="48.945427" lon="8.659618">
<ele>344.0</ele>
<speed>1.26</speed>
<course>347.4</course>
<desc>Speed 4.5 km/h Distance 0.72 km</desc>
<time>2010-10-24T10:30:47.08</time>
<name>470</name>
</trkpt>
<trkpt lat="48.945437" lon="8.659615">
<ele>344.0</ele>
<speed>1.26</speed>
<course>353.0</course>
<desc>Speed 4.5 km/h Distance 0.72 km</desc>
<time>2010-10-24T10:30:48.08</time>
<name>471</name>
</trkpt>
<trkpt lat="48.945455" lon="8.659612">
<ele>344.0</ele>
<speed>0.33</speed>
<course>288.4</course>
<desc>Speed 1.2 km/h Distance 0.72 km</desc>
<time>2010-10-24T10:30:49.08</time>
<name>472</name>
</trkpt>
<trkpt lat="48.945467" lon="8.659558">
<ele>344.5</ele>
<speed>0.55</speed>
<course>334.4</course>
<desc>Speed 2.0 km/h Distance 0.73 km</desc>
<time>2010-10-24T10:30:51.08</time>
<name>473</name>
</trkpt>
<trkpt lat="48.945473" lon="8.659553">
<ele>343.0</ele>
<speed>0.67</speed>
<course>342.4</course>
<desc>Speed 2.4 km/h Distance 0.73 km</desc>
<time>2010-10-24T10:30:52.08</time>
<name>474</name>
</trkpt>
<trkpt lat="48.945483" lon="8.659548">
<ele>341.5</ele>
<speed>0.85</speed>
<course>339.1</course>
<desc>Speed 3.1 km/h Distance 0.73 km</desc>
<time>2010-10-24T10:30:53.08</time>
<name>475</name>
</trkpt>
<trkpt lat="48.945495" lon="8.659542">
<ele>340.0</ele>
<speed>1.13</speed>
<course>351.0</course>
<desc>Speed 4.1 km/h Distance 0.73 km</desc>
<time>2010-10-24T10:30:54.08</time>
<name>476</name>
</trkpt>
<trkpt lat="48.945508" lon="8.659538">
<ele>338.5</ele>
<speed>1.11</speed>
<course>318.0</course>
<desc>Speed 4.0 km/h Distance 0.73 km</desc>
<time>2010-10-24T10:30:55.08</time>
<name>477</name>
</trkpt>
<trkpt lat="48.945522" lon="8.659520">
<ele>338.5</ele>
<speed>1.04</speed>
<course>335.4</course>
<desc>Speed 3.7 km/h Distance 0.74 km</desc>
<time>2010-10-24T10:30:56.08</time>
<name>478</name>
</trkpt>
<trkpt lat="48.945538" lon="8.659508">
<ele>338.0</ele>
<speed>1.05</speed>
<course>316.8</course>
<desc>Speed 3.8 km/h Distance 0.74 km</desc>
<time>2010-10-24T10:30:57.08</time>
<name>479</name>
</trkpt>
<trkpt lat="48.945550" lon="8.659492">
<ele>339.5</ele>
<speed>1.05</speed>
<course>312.4</course>
<desc>Speed 3.8 km/h Distance 0.74 km</desc>
<time>2010-10-24T10:30:58.08</time>
<name>480</name>
</trkpt>
<trkpt lat="48.945560" lon="8.659475">
<ele>341.0</ele>
<speed>1.11</speed>
<course>319.8</course>
<desc>Speed 4.0 km/h Distance 0.74 km</desc>
<time>2010-10-24T10:30:59.08</time>
<name>481</name>
</trkpt>
<trkpt lat="48.945572" lon="8.659460">
<ele>342.5</ele>
<speed>1.09</speed>
<course>326.8</course>
<desc>Speed 3.9 km/h Distance 0.74 km</desc>
<time>2010-10-24T10:31:00.08</time>
<name>482</name>
</trkpt>
<trkpt lat="48.945578" lon="8.659453">
<ele>343.5</ele>
<speed>0.55</speed>
<course>279.6</course>
<desc>Speed 2.0 km/h Distance 0.74 km</desc>
<time>2010-10-24T10:31:01.08</time>
<name>483</name>
</trkpt>
<trkpt lat="48.945582" lon="8.659423">
<ele>346.0</ele>
<speed>0.57</speed>
<course>278.7</course>
<desc>Speed 2.1 km/h Distance 0.75 km</desc>
<time>2010-10-24T10:31:02.08</time>
<name>484</name>
</trkpt>
<trkpt lat="48.945585" lon="8.659390">
<ele>349.0</ele>
<speed>0.50</speed>
<course>315.5</course>
<desc>Speed 1.8 km/h Distance 0.75 km</desc>
<time>2010-10-24T10:31:03.08</time>
<name>485</name>
</trkpt>
<trkpt lat="48.945592" lon="8.659380">
<ele>349.0</ele>
<speed>0.92</speed>
<course>315.5</course>
<desc>Speed 3.3 km/h Distance 0.75 km</desc>
<time>2010-10-24T10:31:04.08</time>
<name>486</name>
</trkpt>
<trkpt lat="48.945598" lon="8.659370">
<ele>348.5</ele>
<speed>1.03</speed>
<course>318.8</course>
<desc>Speed 3.7 km/h Distance 0.75 km</desc>
<time>2010-10-24T10:31:05.08</time>
<name>487</name>
</trkpt>
<trkpt lat="48.945608" lon="8.659357">
<ele>348.5</ele>
<speed>0.93</speed>
<course>305.1</course>
<desc>Speed 3.3 km/h Distance 0.75 km</desc>
<time>2010-10-24T10:31:06.08</time>
<name>488</name>
</trkpt>
<trkpt lat="48.945618" lon="8.659335">
<ele>350.5</ele>
<speed>1.03</speed>
<course>307.3</course>
<desc>Speed 3.7 km/h Distance 0.75 km</desc>
<time>2010-10-24T10:31:07.08</time>
<name>489</name>
</trkpt>
<trkpt lat="48.945625" lon="8.659322">
<ele>350.5</ele>
<speed>1.26</speed>
<course>310.9</course>
<desc>Speed 4.5 km/h Distance 0.76 km</desc>
<time>2010-10-24T10:31:08.08</time>
<name>490</name>
</trkpt>
<trkpt lat="48.945632" lon="8.659310">
<ele>350.5</ele>
<speed>1.02</speed>
<course>343.4</course>
<desc>Speed 3.7 km/h Distance 0.76 km</desc>
<time>2010-10-24T10:31:09.08</time>
<name>491</name>
</trkpt>
<trkpt lat="48.945647" lon="8.659303">
<ele>351.0</ele>
<speed>1.10</speed>
<course>333.8</course>
<desc>Speed 4.0 km/h Distance 0.76 km</desc>
<time>2010-10-24T10:31:10.08</time>
<name>492</name>
</trkpt>
<trkpt lat="48.945667" lon="8.659288">
<ele>351.5</ele>
<speed>1.01</speed>
<course>303.1</course>
<desc>Speed 3.6 km/h Distance 0.76 km</desc>
<time>2010-10-24T10:31:11.08</time>
<name>493</name>
</trkpt>
<trkpt lat="48.945677" lon="8.659265">
<ele>353.0</ele>
<speed>1.00</speed>
<course>329.9</course>
<desc>Speed 3.6 km/h Distance 0.76 km</desc>
<time>2010-10-24T10:31:12.08</time>
<name>494</name>
</trkpt>
<trkpt lat="48.945692" lon="8.659252">
<ele>353.0</ele>
<speed>1.20</speed>
<course>329.9</course>
<desc>Speed 4.3 km/h Distance 0.76 km</desc>
<time>2010-10-24T10:31:13.08</time>
<name>495</name>
</trkpt>
<trkpt lat="48.945707" lon="8.659238">
<ele>353.0</ele>
<speed>1.15</speed>
<course>326.7</course>
<desc>Speed 4.1 km/h Distance 0.77 km</desc>
<time>2010-10-24T10:31:14.08</time>
<name>496</name>
</trkpt>
<trkpt lat="48.945718" lon="8.659227">
<ele>353.0</ele>
<speed>1.14</speed>
<course>309.1</course>
<desc>Speed 4.1 km/h Distance 0.77 km</desc>
<time>2010-10-24T10:31:15.08</time>
<name>497</name>
</trkpt>
<trkpt lat="48.945732" lon="8.659202">
<ele>353.0</ele>
<speed>1.22</speed>
<course>323.4</course>
<desc>Speed 4.4 km/h Distance 0.77 km</desc>
<time>2010-10-24T10:31:16.08</time>
<name>498</name>
</trkpt>
<trkpt lat="48.945745" lon="8.659187">
<ele>353.5</ele>
<speed>1.25</speed>
<course>330.6</course>
<desc>Speed 4.5 km/h Distance 0.77 km</desc>
<time>2010-10-24T10:31:17.08</time>
<name>499</name>
</trkpt>
<trkpt lat="48.945757" lon="8.659177">
<ele>354.0</ele>
<speed>1.22</speed>
<course>326.7</course>
<desc>Speed 4.4 km/h Distance 0.77 km</desc>
<time>2010-10-24T10:31:18.08</time>
<name>500</name>
</trkpt>
<trkpt lat="48.945770" lon="8.659163">
<ele>353.5</ele>
<speed>1.29</speed>
<course>326.6</course>
<desc>Speed 4.6 km/h Distance 0.78 km</desc>
<time>2010-10-24T10:31:19.08</time>
<name>501</name>
</trkpt>
<trkpt lat="48.945783" lon="8.659150">
<ele>354.0</ele>
<speed>1.22</speed>
<course>317.9</course>
<desc>Speed 4.4 km/h Distance 0.78 km</desc>
<time>2010-10-24T10:31:20.08</time>
<name>502</name>
</trkpt>
<trkpt lat="48.945797" lon="8.659132">
<ele>354.0</ele>
<speed>1.09</speed>
<course>301.3</course>
<desc>Speed 3.9 km/h Distance 0.78 km</desc>
<time>2010-10-24T10:31:21.08</time>
<name>503</name>
</trkpt>
<trkpt lat="48.945803" lon="8.659115">
<ele>354.0</ele>
<speed>0.99</speed>
<course>296.9</course>
<desc>Speed 3.6 km/h Distance 0.78 km</desc>
<time>2010-10-24T10:31:22.08</time>
<name>504</name>
</trkpt>
<trkpt lat="48.945808" lon="8.659100">
<ele>354.5</ele>
<speed>0.76</speed>
<course>326.7</course>
<desc>Speed 2.7 km/h Distance 0.78 km</desc>
<time>2010-10-24T10:31:23.08</time>
<name>505</name>
</trkpt>
<trkpt lat="48.945820" lon="8.659088">
<ele>354.0</ele>
<speed>1.02</speed>
<course>334.0</course>
<desc>Speed 3.7 km/h Distance 0.78 km</desc>
<time>2010-10-24T10:31:24.08</time>
<name>506</name>
</trkpt>
<trkpt lat="48.945833" lon="8.659078">
<ele>353.5</ele>
<speed>0.91</speed>
<course>317.9</course>
<desc>Speed 3.3 km/h Distance 0.79 km</desc>
<time>2010-10-24T10:31:25.08</time>
<name>507</name>
</trkpt>
<trkpt lat="48.945847" lon="8.659060">
<ele>353.0</ele>
<speed>1.26</speed>
<course>326.8</course>
<desc>Speed 4.5 km/h Distance 0.79 km</desc>
<time>2010-10-24T10:31:26.08</time>
<name>508</name>
</trkpt>
<trkpt lat="48.945857" lon="8.659050">
<ele>353.0</ele>
<speed>0.99</speed>
<course>326.7</course>
<desc>Speed 3.6 km/h Distance 0.79 km</desc>
<time>2010-10-24T10:31:27.08</time>
<name>509</name>
</trkpt>
<trkpt lat="48.945870" lon="8.659037">
<ele>353.0</ele>
<speed>1.20</speed>
<course>313.5</course>
<desc>Speed 4.3 km/h Distance 0.79 km</desc>
<time>2010-10-24T10:31:28.08</time>
<name>510</name>
</trkpt>
<trkpt lat="48.945878" lon="8.659023">
<ele>353.5</ele>
<speed>1.00</speed>
<course>319.8</course>
<desc>Speed 3.6 km/h Distance 0.79 km</desc>
<time>2010-10-24T10:31:29.08</time>
<name>511</name>
</trkpt>
<trkpt lat="48.945890" lon="8.659008">
<ele>353.0</ele>
<speed>1.17</speed>
<course>323.4</course>
<desc>Speed 4.2 km/h Distance 0.79 km</desc>
<time>2010-10-24T10:31:30.08</time>
<name>512</name>
</trkpt>
<trkpt lat="48.945903" lon="8.658993">
<ele>353.5</ele>
<speed>1.17</speed>
<course>315.5</course>
<desc>Speed 4.2 km/h Distance 0.80 km</desc>
<time>2010-10-24T10:31:31.08</time>
<name>513</name>
</trkpt>
<trkpt lat="48.945910" lon="8.658983">
<ele>354.0</ele>
<speed>0.85</speed>
<course>320.6</course>
<desc>Speed 3.1 km/h Distance 0.80 km</desc>
<time>2010-10-24T10:31:32.08</time>
<name>514</name>
</trkpt>
<trkpt lat="48.945917" lon="8.658975">
<ele>353.5</ele>
<speed>0.62</speed>
<course>321.9</course>
<desc>Speed 2.2 km/h Distance 0.80 km</desc>
<time>2010-10-24T10:31:33.08</time>
<name>515</name>
</trkpt>
<trkpt lat="48.945925" lon="8.658965">
<ele>353.5</ele>
<speed>0.64</speed>
<course>317.4</course>
<desc>Speed 2.3 km/h Distance 0.80 km</desc>
<time>2010-10-24T10:31:34.08</time>
<name>516</name>
</trkpt>
<trkpt lat="48.945933" lon="8.658953">
<ele>354.0</ele>
<speed>0.85</speed>
<course>315.5</course>
<desc>Speed 3.1 km/h Distance 0.80 km</desc>
<time>2010-10-24T10:31:35.08</time>
<name>517</name>
</trkpt>
<trkpt lat="48.945940" lon="8.658943">
<ele>354.5</ele>
<speed>0.83</speed>
<course>307.2</course>
<desc>Speed 3.0 km/h Distance 0.80 km</desc>
<time>2010-10-24T10:31:36.08</time>
<name>518</name>
</trkpt>
<trkpt lat="48.945945" lon="8.658933">
<ele>354.5</ele>
<speed>0.66</speed>
<course>321.6</course>
<desc>Speed 2.4 km/h Distance 0.80 km</desc>
<time>2010-10-24T10:31:37.08</time>
<name>519</name>
</trkpt>
<trkpt lat="48.945953" lon="8.658923">
<ele>355.0</ele>
<speed>0.50</speed>
<course>270.0</course>
<desc>Speed 1.8 km/h Distance 0.80 km</desc>
<time>2010-10-24T10:31:39.08</time>
<name>520</name>
</trkpt>
<trkpt lat="48.945953" lon="8.658922">
<ele>354.5</ele>
<speed>0.34</speed>
<course>321.2</course>
<desc>Speed 1.2 km/h Distance 0.80 km</desc>
<time>2010-10-24T10:31:42.08</time>
<name>521</name>
</trkpt>
<trkpt lat="48.945968" lon="8.658903">
<ele>354.0</ele>
<speed>0.62</speed>
<course>330.2</course>
<desc>Speed 2.2 km/h Distance 0.81 km</desc>
<time>2010-10-24T10:31:44.08</time>
<name>522</name>
</trkpt>
<trkpt lat="48.945982" lon="8.658892">
<ele>354.0</ele>
<speed>0.79</speed>
<course>312.2</course>
<desc>Speed 2.8 km/h Distance 0.81 km</desc>
<time>2010-10-24T10:31:45.08</time>
<name>523</name>
</trkpt>
<trkpt lat="48.945987" lon="8.658883">
<ele>354.0</ele>
<speed>0.55</speed>
<course>62.6</course>
<desc>Speed 2.0 km/h Distance 0.81 km</desc>
<time>2010-10-24T10:31:46.08</time>
<name>524</name>
</trkpt>
<trkpt lat="48.945988" lon="8.658888">
<ele>354.0</ele>
<speed>0.34</speed>
<course>294.1</course>
<desc>Speed 1.2 km/h Distance 0.81 km</desc>
<time>2010-10-24T10:31:48.08</time>
<name>525</name>
</trkpt>
<trkpt lat="48.945997" lon="8.658860">
<ele>355.0</ele>
<speed>0.37</speed>
<course>307.6</course>
<desc>Speed 1.3 km/h Distance 0.81 km</desc>
<time>2010-10-24T10:32:06.08</time>
<name>526</name>
</trkpt>
<trkpt lat="48.946000" lon="8.658853">
<ele>355.0</ele>
<speed>0.56</speed>
<course>331.7</course>
<desc>Speed 2.0 km/h Distance 0.81 km</desc>
<time>2010-10-24T10:32:07.08</time>
<name>527</name>
</trkpt>
<trkpt lat="48.946018" lon="8.658838">
<ele>355.0</ele>
<speed>0.36</speed>
<course>312.4</course>
<desc>Speed 1.3 km/h Distance 0.81 km</desc>
<time>2010-10-24T10:33:13.08</time>
<name>528</name>
</trkpt>
<trkpt lat="48.946028" lon="8.658822">
<ele>353.5</ele>
<speed>0.70</speed>
<course>326.3</course>
<desc>Speed 2.5 km/h Distance 0.81 km</desc>
<time>2010-10-24T10:33:43.08</time>
<name>529</name>
</trkpt>
<trkpt lat="48.946035" lon="8.658815">
<ele>353.5</ele>
<speed>0.97</speed>
<course>294.6</course>
<desc>Speed 3.5 km/h Distance 0.82 km</desc>
<time>2010-10-24T10:33:44.08</time>
<name>530</name>
</trkpt>
<trkpt lat="48.946040" lon="8.658798">
<ele>353.0</ele>
<speed>1.16</speed>
<course>311.1</course>
<desc>Speed 4.2 km/h Distance 0.82 km</desc>
<time>2010-10-24T10:33:45.08</time>
<name>531</name>
</trkpt>
<trkpt lat="48.946047" lon="8.658787">
<ele>353.0</ele>
<speed>0.86</speed>
<course>303.3</course>
<desc>Speed 3.1 km/h Distance 0.82 km</desc>
<time>2010-10-24T10:33:46.08</time>
<name>532</name>
</trkpt>
<trkpt lat="48.946052" lon="8.658775">
<ele>353.0</ele>
<speed>0.93</speed>
<course>305.6</course>
<desc>Speed 3.3 km/h Distance 0.82 km</desc>
<time>2010-10-24T10:33:47.08</time>
<name>533</name>
</trkpt>
<trkpt lat="48.946065" lon="8.658747">
<ele>352.5</ele>
<speed>2.39</speed>
<course>335.2</course>
<desc>Speed 8.6 km/h Distance 0.82 km</desc>
<time>2010-10-24T10:33:48.08</time>
<name>534</name>
</trkpt>
<trkpt lat="48.946072" lon="8.658742">
<ele>352.0</ele>
<speed>0.50</speed>
<course>326.8</course>
<desc>Speed 1.8 km/h Distance 0.82 km</desc>
<time>2010-10-24T10:33:49.08</time>
<name>535</name>
</trkpt>
<trkpt lat="48.946082" lon="8.658732">
<ele>352.0</ele>
<speed>0.88</speed>
<course>327.0</course>
<desc>Speed 3.2 km/h Distance 0.82 km</desc>
<time>2010-10-24T10:33:50.08</time>
<name>536</name>
</trkpt>
<trkpt lat="48.946092" lon="8.658722">
<ele>351.0</ele>
<speed>0.93</speed>
<course>326.8</course>
<desc>Speed 3.3 km/h Distance 0.83 km</desc>
<time>2010-10-24T10:33:51.08</time>
<name>537</name>
</trkpt>
<trkpt lat="48.946105" lon="8.658708">
<ele>351.0</ele>
<speed>0.85</speed>
<course>315.5</course>
<desc>Speed 3.1 km/h Distance 0.83 km</desc>
<time>2010-10-24T10:33:52.08</time>
<name>538</name>
</trkpt>
<trkpt lat="48.946112" lon="8.658698">
<ele>351.0</ele>
<speed>0.73</speed>
<course>318.6</course>
<desc>Speed 2.6 km/h Distance 0.83 km</desc>
<time>2010-10-24T10:33:53.08</time>
<name>539</name>
</trkpt>
<trkpt lat="48.946117" lon="8.658692">
<ele>351.0</ele>
<speed>0.75</speed>
<course>317.4</course>
<desc>Speed 2.7 km/h Distance 0.83 km</desc>
<time>2010-10-24T10:33:54.08</time>
<name>540</name>
</trkpt>
<trkpt lat="48.946125" lon="8.658680">
<ele>350.0</ele>
<speed>0.70</speed>
<course>315.3</course>
<desc>Speed 2.5 km/h Distance 0.83 km</desc>
<time>2010-10-24T10:33:55.08</time>
<name>541</name>
</trkpt>
<trkpt lat="48.946135" lon="8.658665">
<ele>349.5</ele>
<speed>0.95</speed>
<course>302.9</course>
<desc>Speed 3.4 km/h Distance 0.83 km</desc>
<time>2010-10-24T10:33:56.08</time>
<name>542</name>
</trkpt>
<trkpt lat="48.946140" lon="8.658653">
<ele>349.5</ele>
<speed>0.73</speed>
<course>320.6</course>
<desc>Speed 2.6 km/h Distance 0.83 km</desc>
<time>2010-10-24T10:33:57.08</time>
<name>543</name>
</trkpt>
<trkpt lat="48.946147" lon="8.658645">
<ele>350.0</ele>
<speed>0.56</speed>
<course>317.4</course>
<desc>Speed 2.0 km/h Distance 0.83 km</desc>
<time>2010-10-24T10:33:58.08</time>
<name>544</name>
</trkpt>
<trkpt lat="48.946155" lon="8.658633">
<ele>349.5</ele>
<speed>0.50</speed>
<course>326.3</course>
<desc>Speed 1.8 km/h Distance 0.83 km</desc>
<time>2010-10-24T10:33:59.08</time>
<name>545</name>
</trkpt>
<trkpt lat="48.946158" lon="8.658630">
<ele>349.5</ele>
<speed>0.33</speed>
<course>318.8</course>
<desc>Speed 1.2 km/h Distance 0.84 km</desc>
<time>2010-10-24T10:34:00.08</time>
<name>546</name>
</trkpt>
<trkpt lat="48.946173" lon="8.658610">
<ele>349.0</ele>
<speed>0.38</speed>
<course>327.4</course>
<desc>Speed 1.4 km/h Distance 0.84 km</desc>
<time>2010-10-24T10:34:05.08</time>
<name>547</name>
</trkpt>
<trkpt lat="48.946180" lon="8.658603">
<ele>349.5</ele>
<speed>0.46</speed>
<course>319.1</course>
<desc>Speed 1.7 km/h Distance 0.84 km</desc>
<time>2010-10-24T10:34:06.08</time>
<name>548</name>
</trkpt>
<trkpt lat="48.946185" lon="8.658597">
<ele>349.0</ele>
<speed>0.43</speed>
<course>345.1</course>
<desc>Speed 1.5 km/h Distance 0.84 km</desc>
<time>2010-10-24T10:34:07.08</time>
<name>549</name>
</trkpt>
<trkpt lat="48.946193" lon="8.658593">
<ele>349.0</ele>
<speed>0.52</speed>
<course>307.0</course>
<desc>Speed 1.9 km/h Distance 0.84 km</desc>
<time>2010-10-24T10:34:08.08</time>
<name>550</name>
</trkpt>
<trkpt lat="48.946197" lon="8.658587">
<ele>348.0</ele>
<speed>0.34</speed>
<course>335.8</course>
<desc>Speed 1.2 km/h Distance 0.84 km</desc>
<time>2010-10-24T10:34:09.08</time>
<name>551</name>
</trkpt>
<trkpt lat="48.946207" lon="8.658580">
<ele>347.5</ele>
<speed>0.69</speed>
<course>334.8</course>
<desc>Speed 2.5 km/h Distance 0.84 km</desc>
<time>2010-10-24T10:34:10.08</time>
<name>552</name>
</trkpt>
<trkpt lat="48.946218" lon="8.658572">
<ele>347.5</ele>
<speed>0.93</speed>
<course>326.8</course>
<desc>Speed 3.3 km/h Distance 0.84 km</desc>
<time>2010-10-24T10:34:11.08</time>
<name>553</name>
</trkpt>
<trkpt lat="48.946225" lon="8.658565">
<ele>347.0</ele>
<speed>0.81</speed>
<course>337.9</course>
<desc>Speed 2.9 km/h Distance 0.84 km</desc>
<time>2010-10-24T10:34:12.08</time>
<name>554</name>
</trkpt>
<trkpt lat="48.946238" lon="8.658557">
<ele>347.0</ele>
<speed>0.77</speed>
<course>331.4</course>
<desc>Speed 2.8 km/h Distance 0.85 km</desc>
<time>2010-10-24T10:34:13.08</time>
<name>555</name>
</trkpt>
<trkpt lat="48.946248" lon="8.658548">
<ele>346.5</ele>
<speed>0.79</speed>
<course>318.8</course>
<desc>Speed 2.8 km/h Distance 0.85 km</desc>
<time>2010-10-24T10:34:14.08</time>
<name>556</name>
</trkpt>
<trkpt lat="48.946258" lon="8.658535">
<ele>346.0</ele>
<speed>1.24</speed>
<course>321.9</course>
<desc>Speed 4.5 km/h Distance 0.85 km</desc>
<time>2010-10-24T10:34:15.08</time>
<name>557</name>
</trkpt>
<trkpt lat="48.946267" lon="8.658525">
<ele>346.5</ele>
<speed>1.11</speed>
<course>333.6</course>
<desc>Speed 4.0 km/h Distance 0.85 km</desc>
<time>2010-10-24T10:34:16.08</time>
<name>558</name>
</trkpt>
<trkpt lat="48.946273" lon="8.658520">
<ele>347.0</ele>
<speed>0.73</speed>
<course>297.4</course>
<desc>Speed 2.6 km/h Distance 0.85 km</desc>
<time>2010-10-24T10:34:17.08</time>
<name>559</name>
</trkpt>
<trkpt lat="48.946275" lon="8.658515">
<ele>346.0</ele>
<speed>0.31</speed>
<course>318.6</course>
<desc>Speed 1.1 km/h Distance 0.85 km</desc>
<time>2010-10-24T10:34:18.08</time>
<name>560</name>
</trkpt>
<trkpt lat="48.946280" lon="8.658508">
<ele>345.5</ele>
<speed>0.52</speed>
<course>320.6</course>
<desc>Speed 1.9 km/h Distance 0.85 km</desc>
<time>2010-10-24T10:34:19.08</time>
<name>561</name>
</trkpt>
<trkpt lat="48.946287" lon="8.658500">
<ele>345.5</ele>
<speed>0.87</speed>
<course>313.6</course>
<desc>Speed 3.1 km/h Distance 0.85 km</desc>
<time>2010-10-24T10:34:20.08</time>
<name>562</name>
</trkpt>
<trkpt lat="48.946295" lon="8.658487">
<ele>345.5</ele>
<speed>1.19</speed>
<course>326.8</course>
<desc>Speed 4.3 km/h Distance 0.85 km</desc>
<time>2010-10-24T10:34:21.08</time>
<name>563</name>
</trkpt>
<trkpt lat="48.946305" lon="8.658477">
<ele>345.5</ele>
<speed>1.14</speed>
<course>331.8</course>
<desc>Speed 4.1 km/h Distance 0.86 km</desc>
<time>2010-10-24T10:34:22.08</time>
<name>564</name>
</trkpt>
<trkpt lat="48.946323" lon="8.658462">
<ele>344.5</ele>
<speed>1.29</speed>
<course>299.8</course>
<desc>Speed 4.6 km/h Distance 0.86 km</desc>
<time>2010-10-24T10:34:23.08</time>
<name>565</name>
</trkpt>
<trkpt lat="48.946328" lon="8.658448">
<ele>344.5</ele>
<speed>1.03</speed>
<course>320.6</course>
<desc>Speed 3.7 km/h Distance 0.86 km</desc>
<time>2010-10-24T10:34:24.08</time>
<name>566</name>
</trkpt>
<trkpt lat="48.946342" lon="8.658432">
<ele>343.5</ele>
<speed>1.23</speed>
<course>323.4</course>
<desc>Speed 4.4 km/h Distance 0.86 km</desc>
<time>2010-10-24T10:34:25.08</time>
<name>567</name>
</trkpt>
<trkpt lat="48.946355" lon="8.658417">
<ele>342.5</ele>
<speed>1.08</speed>
<course>326.6</course>
<desc>Speed 3.9 km/h Distance 0.86 km</desc>
<time>2010-10-24T10:34:26.08</time>
<name>568</name>
</trkpt>
<trkpt lat="48.946367" lon="8.658405">
<ele>342.0</ele>
<speed>0.98</speed>
<course>315.5</course>
<desc>Speed 3.5 km/h Distance 0.86 km</desc>
<time>2010-10-24T10:34:27.08</time>
<name>569</name>
</trkpt>
<trkpt lat="48.946377" lon="8.658390">
<ele>341.0</ele>
<speed>0.88</speed>
<course>326.7</course>
<desc>Speed 3.2 km/h Distance 0.87 km</desc>
<time>2010-10-24T10:34:28.08</time>
<name>570</name>
</trkpt>
<trkpt lat="48.946388" lon="8.658378">
<ele>340.0</ele>
<speed>0.98</speed>
<course>330.3</course>
<desc>Speed 3.5 km/h Distance 0.87 km</desc>
<time>2010-10-24T10:34:29.08</time>
<name>571</name>
</trkpt>
<trkpt lat="48.946413" lon="8.658357">
<ele>338.5</ele>
<speed>1.02</speed>
<course>329.7</course>
<desc>Speed 3.7 km/h Distance 0.87 km</desc>
<time>2010-10-24T10:34:33.91</time>
<name>572</name>
</trkpt>
<trkpt lat="48.946428" lon="8.658343">
<ele>338.0</ele>
<speed>1.26</speed>
<course>326.6</course>
<desc>Speed 4.5 km/h Distance 0.87 km</desc>
<time>2010-10-24T10:34:35.10</time>
<name>573</name>
</trkpt>
<trkpt lat="48.946440" lon="8.658332">
<ele>337.0</ele>
<speed>0.83</speed>
<course>323.1</course>
<desc>Speed 3.0 km/h Distance 0.87 km</desc>
<time>2010-10-24T10:34:36.10</time>
<name>574</name>
</trkpt>
<trkpt lat="48.946452" lon="8.658318">
<ele>336.5</ele>
<speed>1.19</speed>
<course>337.9</course>
<desc>Speed 4.3 km/h Distance 0.88 km</desc>
<time>2010-10-24T10:34:37.10</time>
<name>575</name>
</trkpt>
<trkpt lat="48.946465" lon="8.658310">
<ele>335.5</ele>
<speed>0.86</speed>
<course>326.8</course>
<desc>Speed 3.1 km/h Distance 0.88 km</desc>
<time>2010-10-24T10:34:38.10</time>
<name>576</name>
</trkpt>
<trkpt lat="48.946478" lon="8.658297">
<ele>334.5</ele>
<speed>1.00</speed>
<course>326.7</course>
<desc>Speed 3.6 km/h Distance 0.88 km</desc>
<time>2010-10-24T10:34:39.10</time>
<name>577</name>
</trkpt>
<trkpt lat="48.946493" lon="8.658282">
<ele>334.0</ele>
<speed>1.17</speed>
<course>326.6</course>
<desc>Speed 4.2 km/h Distance 0.88 km</desc>
<time>2010-10-24T10:34:40.10</time>
<name>578</name>
</trkpt>
<trkpt lat="48.946503" lon="8.658272">
<ele>333.0</ele>
<speed>0.99</speed>
<course>313.6</course>
<desc>Speed 3.6 km/h Distance 0.88 km</desc>
<time>2010-10-24T10:34:41.10</time>
<name>579</name>
</trkpt>
<trkpt lat="48.946512" lon="8.658258">
<ele>331.5</ele>
<speed>0.79</speed>
<course>323.1</course>
<desc>Speed 2.8 km/h Distance 0.88 km</desc>
<time>2010-10-24T10:34:42.10</time>
<name>580</name>
</trkpt>
<trkpt lat="48.946523" lon="8.658245">
<ele>331.0</ele>
<speed>0.93</speed>
<course>304.1</course>
<desc>Speed 3.3 km/h Distance 0.89 km</desc>
<time>2010-10-24T10:34:43.10</time>
<name>581</name>
</trkpt>
<trkpt lat="48.946530" lon="8.658230">
<ele>329.5</ele>
<speed>0.94</speed>
<course>321.9</course>
<desc>Speed 3.4 km/h Distance 0.89 km</desc>
<time>2010-10-24T10:34:44.10</time>
<name>582</name>
</trkpt>
<trkpt lat="48.946538" lon="8.658220">
<ele>329.0</ele>
<speed>1.12</speed>
<course>330.6</course>
<desc>Speed 4.0 km/h Distance 0.89 km</desc>
<time>2010-10-24T10:34:45.10</time>
<name>583</name>
</trkpt>
<trkpt lat="48.946550" lon="8.658210">
<ele>328.0</ele>
<speed>1.16</speed>
<course>285.5</course>
<desc>Speed 4.2 km/h Distance 0.89 km</desc>
<time>2010-10-24T10:34:46.10</time>
<name>584</name>
</trkpt>
<trkpt lat="48.946553" lon="8.658192">
<ele>326.5</ele>
<speed>0.73</speed>
<course>318.8</course>
<desc>Speed 2.6 km/h Distance 0.89 km</desc>
<time>2010-10-24T10:34:47.10</time>
<name>585</name>
</trkpt>
<trkpt lat="48.946563" lon="8.658178">
<ele>326.5</ele>
<speed>1.37</speed>
<course>311.1</course>
<desc>Speed 4.9 km/h Distance 0.89 km</desc>
<time>2010-10-24T10:34:48.10</time>
<name>586</name>
</trkpt>
<trkpt lat="48.946570" lon="8.658167">
<ele>325.5</ele>
<speed>1.09</speed>
<course>323.2</course>
<desc>Speed 3.9 km/h Distance 0.89 km</desc>
<time>2010-10-24T10:34:49.10</time>
<name>587</name>
</trkpt>
<trkpt lat="48.946582" lon="8.658153">
<ele>326.0</ele>
<speed>1.45</speed>
<course>315.5</course>
<desc>Speed 5.2 km/h Distance 0.90 km</desc>
<time>2010-10-24T10:34:50.10</time>
<name>588</name>
</trkpt>
<trkpt lat="48.946592" lon="8.658138">
<ele>326.0</ele>
<speed>1.28</speed>
<course>323.1</course>
<desc>Speed 4.6 km/h Distance 0.90 km</desc>
<time>2010-10-24T10:34:51.10</time>
<name>589</name>
</trkpt>
<trkpt lat="48.946603" lon="8.658125">
<ele>326.0</ele>
<speed>1.27</speed>
<course>310.3</course>
<desc>Speed 4.6 km/h Distance 0.90 km</desc>
<time>2010-10-24T10:34:52.10</time>
<name>590</name>
</trkpt>
<trkpt lat="48.946612" lon="8.658110">
<ele>326.0</ele>
<speed>0.97</speed>
<course>323.1</course>
<desc>Speed 3.5 km/h Distance 0.90 km</desc>
<time>2010-10-24T10:34:53.10</time>
<name>591</name>
</trkpt>
<trkpt lat="48.946623" lon="8.658097">
<ele>326.5</ele>
<speed>1.00</speed>
<course>326.7</course>
<desc>Speed 3.6 km/h Distance 0.90 km</desc>
<time>2010-10-24T10:34:54.10</time>
<name>592</name>
</trkpt>
<trkpt lat="48.946637" lon="8.658083">
<ele>326.5</ele>
<speed>1.12</speed>
<course>329.7</course>
<desc>Speed 4.0 km/h Distance 0.90 km</desc>
<time>2010-10-24T10:34:55.10</time>
<name>593</name>
</trkpt>
<trkpt lat="48.946652" lon="8.658070">
<ele>327.0</ele>
<speed>1.11</speed>
<course>315.4</course>
<desc>Speed 4.0 km/h Distance 0.90 km</desc>
<time>2010-10-24T10:34:56.10</time>
<name>594</name>
</trkpt>
<trkpt lat="48.946662" lon="8.658055">
<ele>326.5</ele>
<speed>1.22</speed>
<course>319.8</course>
<desc>Speed 4.4 km/h Distance 0.91 km</desc>
<time>2010-10-24T10:34:57.10</time>
<name>595</name>
</trkpt>
<trkpt lat="48.946673" lon="8.658040">
<ele>327.0</ele>
<speed>1.24</speed>
<course>307.3</course>
<desc>Speed 4.5 km/h Distance 0.91 km</desc>
<time>2010-10-24T10:34:58.10</time>
<name>596</name>
</trkpt>
<trkpt lat="48.946680" lon="8.658027">
<ele>326.5</ele>
<speed>1.16</speed>
<course>317.4</course>
<desc>Speed 4.2 km/h Distance 0.91 km</desc>
<time>2010-10-24T10:34:59.10</time>
<name>597</name>
</trkpt>
<trkpt lat="48.946688" lon="8.658015">
<ele>326.0</ele>
<speed>0.98</speed>
<course>326.8</course>
<desc>Speed 3.5 km/h Distance 0.91 km</desc>
<time>2010-10-24T10:35:00.10</time>
<name>598</name>
</trkpt>
<trkpt lat="48.946697" lon="8.658007">
<ele>326.0</ele>
<speed>0.80</speed>
<course>320.6</course>
<desc>Speed 2.9 km/h Distance 0.91 km</desc>
<time>2010-10-24T10:35:01.10</time>
<name>599</name>
</trkpt>
<trkpt lat="48.946703" lon="8.657998">
<ele>326.0</ele>
<speed>0.87</speed>
<course>310.9</course>
<desc>Speed 3.1 km/h Distance 0.91 km</desc>
<time>2010-10-24T10:35:02.10</time>
<name>600</name>
</trkpt>
<trkpt lat="48.946710" lon="8.657987">
<ele>325.5</ele>
<speed>1.07</speed>
<course>307.2</course>
<desc>Speed 3.9 km/h Distance 0.91 km</desc>
<time>2010-10-24T10:35:03.10</time>
<name>601</name>
</trkpt>
<trkpt lat="48.946715" lon="8.657977">
<ele>325.5</ele>
<speed>0.91</speed>
<course>317.4</course>
<desc>Speed 3.3 km/h Distance 0.91 km</desc>
<time>2010-10-24T10:35:04.10</time>
<name>602</name>
</trkpt>
<trkpt lat="48.946723" lon="8.657965">
<ele>325.0</ele>
<speed>1.12</speed>
<course>307.3</course>
<desc>Speed 4.0 km/h Distance 0.92 km</desc>
<time>2010-10-24T10:35:05.10</time>
<name>603</name>
</trkpt>
<trkpt lat="48.946730" lon="8.657952">
<ele>325.0</ele>
<speed>1.20</speed>
<course>322.8</course>
<desc>Speed 4.3 km/h Distance 0.92 km</desc>
<time>2010-10-24T10:35:06.10</time>
<name>604</name>
</trkpt>
<trkpt lat="48.946740" lon="8.657940">
<ele>325.0</ele>
<speed>1.12</speed>
<course>307.3</course>
<desc>Speed 4.0 km/h Distance 0.92 km</desc>
<time>2010-10-24T10:35:07.10</time>
<name>605</name>
</trkpt>
<trkpt lat="48.946750" lon="8.657920">
<ele>324.5</ele>
<speed>1.15</speed>
<course>315.5</course>
<desc>Speed 4.1 km/h Distance 0.92 km</desc>
<time>2010-10-24T10:35:08.10</time>
<name>606</name>
</trkpt>
<trkpt lat="48.946760" lon="8.657905">
<ele>325.0</ele>
<speed>1.15</speed>
<course>303.3</course>
<desc>Speed 4.1 km/h Distance 0.92 km</desc>
<time>2010-10-24T10:35:09.10</time>
<name>607</name>
</trkpt>
<trkpt lat="48.946765" lon="8.657893">
<ele>324.5</ele>
<speed>0.99</speed>
<course>313.1</course>
<desc>Speed 3.6 km/h Distance 0.92 km</desc>
<time>2010-10-24T10:35:10.10</time>
<name>608</name>
</trkpt>
<trkpt lat="48.946778" lon="8.657872">
<ele>324.5</ele>
<speed>1.39</speed>
<course>313.6</course>
<desc>Speed 5.0 km/h Distance 0.93 km</desc>
<time>2010-10-24T10:35:11.10</time>
<name>609</name>
</trkpt>
<trkpt lat="48.946787" lon="8.657858">
<ele>324.0</ele>
<speed>1.15</speed>
<course>307.2</course>
<desc>Speed 4.1 km/h Distance 0.93 km</desc>
<time>2010-10-24T10:35:12.10</time>
<name>610</name>
</trkpt>
<trkpt lat="48.946792" lon="8.657848">
<ele>323.5</ele>
<speed>0.93</speed>
<course>316.8</course>
<desc>Speed 3.3 km/h Distance 0.93 km</desc>
<time>2010-10-24T10:35:13.10</time>
<name>611</name>
</trkpt>
<trkpt lat="48.946803" lon="8.657832">
<ele>323.5</ele>
<speed>1.44</speed>
<course>313.6</course>
<desc>Speed 5.2 km/h Distance 0.93 km</desc>
<time>2010-10-24T10:35:14.10</time>
<name>612</name>
</trkpt>
<trkpt lat="48.946812" lon="8.657818">
<ele>323.5</ele>
<speed>1.08</speed>
<course>312.2</course>
<desc>Speed 3.9 km/h Distance 0.93 km</desc>
<time>2010-10-24T10:35:15.10</time>
<name>613</name>
</trkpt>
<trkpt lat="48.946817" lon="8.657810">
<ele>322.5</ele>
<speed>0.77</speed>
<course>298.3</course>
<desc>Speed 2.8 km/h Distance 0.93 km</desc>
<time>2010-10-24T10:35:16.10</time>
<name>614</name>
</trkpt>
<trkpt lat="48.946827" lon="8.657782">
<ele>324.5</ele>
<speed>1.05</speed>
<course>326.8</course>
<desc>Speed 3.8 km/h Distance 0.93 km</desc>
<time>2010-10-24T10:35:17.10</time>
<name>615</name>
</trkpt>
<trkpt lat="48.946837" lon="8.657772">
<ele>324.0</ele>
<speed>1.17</speed>
<course>313.6</course>
<desc>Speed 4.2 km/h Distance 0.94 km</desc>
<time>2010-10-24T10:35:18.10</time>
<name>616</name>
</trkpt>
<trkpt lat="48.946845" lon="8.657758">
<ele>323.5</ele>
<speed>1.25</speed>
<course>307.3</course>
<desc>Speed 4.5 km/h Distance 0.94 km</desc>
<time>2010-10-24T10:35:19.10</time>
<name>617</name>
</trkpt>
<trkpt lat="48.946852" lon="8.657745">
<ele>323.0</ele>
<speed>1.09</speed>
<course>336.2</course>
<desc>Speed 3.9 km/h Distance 0.94 km</desc>
<time>2010-10-24T10:35:20.10</time>
<name>618</name>
</trkpt>
<trkpt lat="48.946862" lon="8.657738">
<ele>322.5</ele>
<speed>1.03</speed>
<course>336.2</course>
<desc>Speed 3.7 km/h Distance 0.94 km</desc>
<time>2010-10-24T10:35:21.10</time>
<name>619</name>
</trkpt>
<trkpt lat="48.946872" lon="8.657732">
<ele>321.5</ele>
<speed>1.09</speed>
<course>317.4</course>
<desc>Speed 3.9 km/h Distance 0.94 km</desc>
<time>2010-10-24T10:35:22.10</time>
<name>620</name>
</trkpt>
<trkpt lat="48.946880" lon="8.657720">
<ele>320.5</ele>
<speed>1.09</speed>
<course>332.3</course>
<desc>Speed 3.9 km/h Distance 0.94 km</desc>
<time>2010-10-24T10:35:23.10</time>
<name>621</name>
</trkpt>
<trkpt lat="48.946897" lon="8.657707">
<ele>319.0</ele>
<speed>1.50</speed>
<course>339.1</course>
<desc>Speed 5.4 km/h Distance 0.94 km</desc>
<time>2010-10-24T10:35:24.10</time>
<name>622</name>
</trkpt>
<trkpt lat="48.946908" lon="8.657700">
<ele>317.5</ele>
<speed>1.17</speed>
<course>331.4</course>
<desc>Speed 4.2 km/h Distance 0.94 km</desc>
<time>2010-10-24T10:35:25.10</time>
<name>623</name>
</trkpt>
<trkpt lat="48.946918" lon="8.657692">
<ele>316.5</ele>
<speed>1.16</speed>
<course>341.9</course>
<desc>Speed 4.2 km/h Distance 0.95 km</desc>
<time>2010-10-24T10:35:26.10</time>
<name>624</name>
</trkpt>
<trkpt lat="48.946932" lon="8.657685">
<ele>316.5</ele>
<speed>1.15</speed>
<course>336.2</course>
<desc>Speed 4.1 km/h Distance 0.95 km</desc>
<time>2010-10-24T10:35:27.10</time>
<name>625</name>
</trkpt>
<trkpt lat="48.946942" lon="8.657678">
<ele>315.5</ele>
<speed>1.23</speed>
<course>326.8</course>
<desc>Speed 4.4 km/h Distance 0.95 km</desc>
<time>2010-10-24T10:35:28.10</time>
<name>626</name>
</trkpt>
<trkpt lat="48.946950" lon="8.657670">
<ele>315.0</ele>
<speed>1.01</speed>
<course>331.4</course>
<desc>Speed 3.6 km/h Distance 0.95 km</desc>
<time>2010-10-24T10:35:29.10</time>
<name>627</name>
</trkpt>
<trkpt lat="48.946960" lon="8.657662">
<ele>314.0</ele>
<speed>1.12</speed>
<course>320.6</course>
<desc>Speed 4.0 km/h Distance 0.95 km</desc>
<time>2010-10-24T10:35:30.10</time>
<name>628</name>
</trkpt>
<trkpt lat="48.946967" lon="8.657653">
<ele>313.0</ele>
<speed>0.89</speed>
<course>326.3</course>
<desc>Speed 3.2 km/h Distance 0.95 km</desc>
<time>2010-10-24T10:35:31.10</time>
<name>629</name>
</trkpt>
<trkpt lat="48.946973" lon="8.657647">
<ele>311.5</ele>
<speed>0.67</speed>
<course>320.6</course>
<desc>Speed 2.4 km/h Distance 0.95 km</desc>
<time>2010-10-24T10:35:32.10</time>
<name>630</name>
</trkpt>
<trkpt lat="48.946980" lon="8.657638">
<ele>310.5</ele>
<speed>0.91</speed>
<course>341.8</course>
<desc>Speed 3.3 km/h Distance 0.95 km</desc>
<time>2010-10-24T10:35:33.10</time>
<name>631</name>
</trkpt>
<trkpt lat="48.946990" lon="8.657633">
<ele>309.5</ele>
<speed>1.09</speed>
<course>333.6</course>
<desc>Speed 3.9 km/h Distance 0.96 km</desc>
<time>2010-10-24T10:35:34.10</time>
<name>632</name>
</trkpt>
<trkpt lat="48.946997" lon="8.657628">
<ele>308.0</ele>
<speed>0.62</speed>
<course>314.1</course>
<desc>Speed 2.2 km/h Distance 0.96 km</desc>
<time>2010-10-24T10:35:35.10</time>
<name>633</name>
</trkpt>
<trkpt lat="48.947008" lon="8.657610">
<ele>308.5</ele>
<speed>1.32</speed>
<course>329.4</course>
<desc>Speed 4.8 km/h Distance 0.96 km</desc>
<time>2010-10-24T10:35:36.10</time>
<name>634</name>
</trkpt>
<trkpt lat="48.947025" lon="8.657595">
<ele>308.5</ele>
<speed>1.26</speed>
<course>299.7</course>
<desc>Speed 4.5 km/h Distance 0.96 km</desc>
<time>2010-10-24T10:35:37.10</time>
<name>635</name>
</trkpt>
<trkpt lat="48.947030" lon="8.657582">
<ele>308.5</ele>
<speed>1.10</speed>
<course>312.6</course>
<desc>Speed 4.0 km/h Distance 0.96 km</desc>
<time>2010-10-24T10:35:38.10</time>
<name>636</name>
</trkpt>
<trkpt lat="48.947035" lon="8.657573">
<ele>308.5</ele>
<speed>0.72</speed>
<course>321.9</course>
<desc>Speed 2.6 km/h Distance 0.96 km</desc>
<time>2010-10-24T10:35:39.10</time>
<name>637</name>
</trkpt>
<trkpt lat="48.947043" lon="8.657563">
<ele>308.0</ele>
<speed>0.97</speed>
<course>315.5</course>
<desc>Speed 3.5 km/h Distance 0.96 km</desc>
<time>2010-10-24T10:35:40.10</time>
<name>638</name>
</trkpt>
<trkpt lat="48.947053" lon="8.657548">
<ele>307.5</ele>
<speed>1.41</speed>
<course>311.3</course>
<desc>Speed 5.1 km/h Distance 0.96 km</desc>
<time>2010-10-24T10:35:41.10</time>
<name>639</name>
</trkpt>
<trkpt lat="48.947060" lon="8.657537">
<ele>307.0</ele>
<speed>1.22</speed>
<course>312.6</course>
<desc>Speed 4.4 km/h Distance 0.97 km</desc>
<time>2010-10-24T10:35:42.10</time>
<name>640</name>
</trkpt>
<trkpt lat="48.947065" lon="8.657528">
<ele>306.5</ele>
<speed>0.81</speed>
<course>302.9</course>
<desc>Speed 2.9 km/h Distance 0.97 km</desc>
<time>2010-10-24T10:35:43.10</time>
<name>641</name>
</trkpt>
<trkpt lat="48.947070" lon="8.657517">
<ele>306.0</ele>
<speed>0.93</speed>
<course>313.5</course>
<desc>Speed 3.3 km/h Distance 0.97 km</desc>
<time>2010-10-24T10:35:44.10</time>
<name>642</name>
</trkpt>
<trkpt lat="48.947078" lon="8.657503">
<ele>305.5</ele>
<speed>1.19</speed>
<course>307.2</course>
<desc>Speed 4.3 km/h Distance 0.97 km</desc>
<time>2010-10-24T10:35:45.10</time>
<name>643</name>
</trkpt>
<trkpt lat="48.947083" lon="8.657493">
<ele>305.0</ele>
<speed>0.81</speed>
<course>321.9</course>
<desc>Speed 2.9 km/h Distance 0.97 km</desc>
<time>2010-10-24T10:35:46.10</time>
<name>644</name>
</trkpt>
<trkpt lat="48.947092" lon="8.657483">
<ele>304.5</ele>
<speed>1.00</speed>
<course>320.6</course>
<desc>Speed 3.6 km/h Distance 0.97 km</desc>
<time>2010-10-24T10:35:47.10</time>
<name>645</name>
</trkpt>
<trkpt lat="48.947098" lon="8.657475">
<ele>303.5</ele>
<speed>0.81</speed>
<course>320.6</course>
<desc>Speed 2.9 km/h Distance 0.97 km</desc>
<time>2010-10-24T10:35:48.10</time>
<name>646</name>
</trkpt>
<trkpt lat="48.947105" lon="8.657467">
<ele>302.5</ele>
<speed>0.89</speed>
<course>299.0</course>
<desc>Speed 3.2 km/h Distance 0.97 km</desc>
<time>2010-10-24T10:35:49.10</time>
<name>647</name>
</trkpt>
<trkpt lat="48.947112" lon="8.657448">
<ele>302.5</ele>
<speed>1.37</speed>
<course>326.8</course>
<desc>Speed 4.9 km/h Distance 0.97 km</desc>
<time>2010-10-24T10:35:50.10</time>
<name>648</name>
</trkpt>
<trkpt lat="48.947122" lon="8.657438">
<ele>302.0</ele>
<speed>1.12</speed>
<course>311.3</course>
<desc>Speed 4.0 km/h Distance 0.98 km</desc>
<time>2010-10-24T10:35:51.10</time>
<name>649</name>
</trkpt>
<trkpt lat="48.947128" lon="8.657427">
<ele>302.0</ele>
<speed>0.94</speed>
<course>296.9</course>
<desc>Speed 3.4 km/h Distance 0.98 km</desc>
<time>2010-10-24T10:35:52.10</time>
<name>650</name>
</trkpt>
<trkpt lat="48.947133" lon="8.657412">
<ele>301.5</ele>
<speed>0.98</speed>
<course>276.7</course>
<desc>Speed 3.5 km/h Distance 0.98 km</desc>
<time>2010-10-24T10:35:53.10</time>
<name>651</name>
</trkpt>
<trkpt lat="48.947135" lon="8.657390">
<ele>302.0</ele>
<speed>1.47</speed>
<course>301.8</course>
<desc>Speed 5.3 km/h Distance 0.98 km</desc>
<time>2010-10-24T10:35:54.10</time>
<name>652</name>
</trkpt>
<trkpt lat="48.947138" lon="8.657382">
<ele>301.0</ele>
<speed>0.46</speed>
<course>316.5</course>
<desc>Speed 1.7 km/h Distance 0.98 km</desc>
<time>2010-10-24T10:35:55.10</time>
<name>653</name>
</trkpt>
<trkpt lat="48.947142" lon="8.657377">
<ele>300.0</ele>
<speed>0.38</speed>
<course>290.9</course>
<desc>Speed 1.4 km/h Distance 0.98 km</desc>
<time>2010-10-24T10:35:56.10</time>
<name>654</name>
</trkpt>
<trkpt lat="48.947145" lon="8.657363">
<ele>300.0</ele>
<speed>0.93</speed>
<course>320.6</course>
<desc>Speed 3.3 km/h Distance 0.98 km</desc>
<time>2010-10-24T10:35:57.10</time>
<name>655</name>
</trkpt>
<trkpt lat="48.947152" lon="8.657355">
<ele>300.0</ele>
<speed>0.81</speed>
<course>290.8</course>
<desc>Speed 2.9 km/h Distance 0.98 km</desc>
<time>2010-10-24T10:35:58.10</time>
<name>656</name>
</trkpt>
<trkpt lat="48.947157" lon="8.657335">
<ele>301.0</ele>
<speed>1.58</speed>
<course>33.7</course>
<desc>Speed 5.7 km/h Distance 0.98 km</desc>
<time>2010-10-24T10:35:59.10</time>
<name>657</name>
</trkpt>
<trkpt lat="48.947163" lon="8.657342">
<ele>299.5</ele>
<speed>0.97</speed>
<course>311.3</course>
<desc>Speed 3.5 km/h Distance 0.99 km</desc>
<time>2010-10-24T10:36:00.10</time>
<name>658</name>
</trkpt>
<trkpt lat="48.947170" lon="8.657330">
<ele>299.5</ele>
<speed>0.99</speed>
<course>332.1</course>
<desc>Speed 3.6 km/h Distance 0.99 km</desc>
<time>2010-10-24T10:36:01.10</time>
<name>659</name>
</trkpt>
<trkpt lat="48.947178" lon="8.657323">
<ele>299.0</ele>
<speed>0.94</speed>
<course>304.1</course>
<desc>Speed 3.4 km/h Distance 0.99 km</desc>
<time>2010-10-24T10:36:02.10</time>
<name>660</name>
</trkpt>
<trkpt lat="48.947185" lon="8.657308">
<ele>298.5</ele>
<speed>1.13</speed>
<course>314.3</course>
<desc>Speed 4.1 km/h Distance 0.99 km</desc>
<time>2010-10-24T10:36:03.10</time>
<name>661</name>
</trkpt>
<trkpt lat="48.947200" lon="8.657285">
<ele>299.0</ele>
<speed>0.83</speed>
<course>332.1</course>
<desc>Speed 3.0 km/h Distance 0.99 km</desc>
<time>2010-10-24T10:36:04.10</time>
<name>662</name>
</trkpt>
<trkpt lat="48.947208" lon="8.657278">
<ele>298.5</ele>
<speed>0.98</speed>
<course>326.3</course>
<desc>Speed 3.5 km/h Distance 0.99 km</desc>
<time>2010-10-24T10:36:05.10</time>
<name>663</name>
</trkpt>
<trkpt lat="48.947215" lon="8.657272">
<ele>298.5</ele>
<speed>0.83</speed>
<course>321.9</course>
<desc>Speed 3.0 km/h Distance 0.99 km</desc>
<time>2010-10-24T10:36:06.10</time>
<name>664</name>
</trkpt>
<trkpt lat="48.947223" lon="8.657262">
<ele>298.5</ele>
<speed>1.05</speed>
<course>326.8</course>
<desc>Speed 3.8 km/h Distance 0.99 km</desc>
<time>2010-10-24T10:36:07.10</time>
<name>665</name>
</trkpt>
<trkpt lat="48.947232" lon="8.657253">
<ele>298.0</ele>
<speed>0.98</speed>
<course>326.8</course>
<desc>Speed 3.5 km/h Distance 1.00 km</desc>
<time>2010-10-24T10:36:08.10</time>
<name>666</name>
</trkpt>
<trkpt lat="48.947240" lon="8.657245">
<ele>297.0</ele>
<speed>1.00</speed>
<course>321.9</course>
<desc>Speed 3.6 km/h Distance 1.00 km</desc>
<time>2010-10-24T10:36:09.10</time>
<name>667</name>
</trkpt>
<trkpt lat="48.947248" lon="8.657235">
<ele>296.5</ele>
<speed>1.04</speed>
<course>321.9</course>
<desc>Speed 3.7 km/h Distance 1.00 km</desc>
<time>2010-10-24T10:36:10.10</time>
<name>668</name>
</trkpt>
<trkpt lat="48.947257" lon="8.657225">
<ele>296.0</ele>
<speed>0.98</speed>
<course>326.8</course>
<desc>Speed 3.5 km/h Distance 1.00 km</desc>
<time>2010-10-24T10:36:11.10</time>
<name>669</name>
</trkpt>
<trkpt lat="48.947265" lon="8.657217">
<ele>295.0</ele>
<speed>0.68</speed>
<course>323.1</course>
<desc>Speed 2.4 km/h Distance 1.00 km</desc>
<time>2010-10-24T10:36:12.10</time>
<name>670</name>
</trkpt>
<trkpt lat="48.947277" lon="8.657203">
<ele>295.0</ele>
<speed>0.93</speed>
<course>323.4</course>
<desc>Speed 3.3 km/h Distance 1.00 km</desc>
<time>2010-10-24T10:36:13.10</time>
<name>671</name>
</trkpt>
<trkpt lat="48.947290" lon="8.657188">
<ele>294.0</ele>
<speed>1.10</speed>
<course>296.9</course>
<desc>Speed 4.0 km/h Distance 1.00 km</desc>
<time>2010-10-24T10:36:14.10</time>
<name>672</name>
</trkpt>
<trkpt lat="48.947295" lon="8.657173">
<ele>295.0</ele>
<speed>1.00</speed>
<course>326.8</course>
<desc>Speed 3.6 km/h Distance 1.01 km</desc>
<time>2010-10-24T10:36:15.10</time>
<name>673</name>
</trkpt>
<trkpt lat="48.947303" lon="8.657165">
<ele>295.0</ele>
<speed>1.02</speed>
<course>320.6</course>
<desc>Speed 3.7 km/h Distance 1.01 km</desc>
<time>2010-10-24T10:36:16.10</time>
<name>674</name>
</trkpt>
<trkpt lat="48.947310" lon="8.657157">
<ele>294.5</ele>
<speed>0.87</speed>
<course>320.6</course>
<desc>Speed 3.1 km/h Distance 1.01 km</desc>
<time>2010-10-24T10:36:17.10</time>
<name>675</name>
</trkpt>
<trkpt lat="48.947317" lon="8.657148">
<ele>294.0</ele>
<speed>0.86</speed>
<course>317.4</course>
<desc>Speed 3.1 km/h Distance 1.01 km</desc>
<time>2010-10-24T10:36:18.10</time>
<name>676</name>
</trkpt>
<trkpt lat="48.947325" lon="8.657137">
<ele>293.5</ele>
<speed>1.02</speed>
<course>307.2</course>
<desc>Speed 3.7 km/h Distance 1.01 km</desc>
<time>2010-10-24T10:36:19.10</time>
<name>677</name>
</trkpt>
<trkpt lat="48.947330" lon="8.657127">
<ele>293.5</ele>
<speed>0.93</speed>
<course>296.9</course>
<desc>Speed 3.3 km/h Distance 1.01 km</desc>
<time>2010-10-24T10:36:20.10</time>
<name>678</name>
</trkpt>
<trkpt lat="48.947360" lon="8.657037">
<ele>300.5</ele>
<speed>0.46</speed>
<course>283.2</course>
<desc>Speed 1.7 km/h Distance 1.02 km</desc>
<time>2010-10-24T10:36:22.10</time>
<name>679</name>
</trkpt>
<trkpt lat="48.947373" lon="8.656950">
<ele>306.0</ele>
<speed>0.40</speed>
<course>312.9</course>
<desc>Speed 1.4 km/h Distance 1.02 km</desc>
<time>2010-10-24T10:36:24.10</time>
<name>680</name>
</trkpt>
<trkpt lat="48.947438" lon="8.656843">
<ele>314.0</ele>
<speed>0.34</speed>
<course>345.1</course>
<desc>Speed 1.2 km/h Distance 1.03 km</desc>
<time>2010-10-24T10:36:41.10</time>
<name>681</name>
</trkpt>
<trkpt lat="48.947455" lon="8.656837">
<ele>314.0</ele>
<speed>0.68</speed>
<course>331.4</course>
<desc>Speed 2.4 km/h Distance 1.04 km</desc>
<time>2010-10-24T10:36:42.10</time>
<name>682</name>
</trkpt>
<trkpt lat="48.947465" lon="8.656828">
<ele>314.0</ele>
<speed>1.04</speed>
<course>331.4</course>
<desc>Speed 3.7 km/h Distance 1.04 km</desc>
<time>2010-10-24T10:36:43.10</time>
<name>683</name>
</trkpt>
<trkpt lat="48.947475" lon="8.656820">
<ele>313.5</ele>
<speed>0.92</speed>
<course>336.2</course>
<desc>Speed 3.3 km/h Distance 1.04 km</desc>
<time>2010-10-24T10:36:44.10</time>
<name>684</name>
</trkpt>
<trkpt lat="48.947485" lon="8.656813">
<ele>313.0</ele>
<speed>0.93</speed>
<course>337.0</course>
<desc>Speed 3.3 km/h Distance 1.04 km</desc>
<time>2010-10-24T10:36:45.10</time>
<name>685</name>
</trkpt>
<trkpt lat="48.947508" lon="8.656798">
<ele>312.5</ele>
<speed>0.94</speed>
<course>337.0</course>
<desc>Speed 3.4 km/h Distance 1.04 km</desc>
<time>2010-10-24T10:36:46.10</time>
<name>686</name>
</trkpt>
<trkpt lat="48.947532" lon="8.656783">
<ele>313.0</ele>
<speed>1.00</speed>
<course>330.6</course>
<desc>Speed 3.6 km/h Distance 1.05 km</desc>
<time>2010-10-24T10:36:47.10</time>
<name>687</name>
</trkpt>
<trkpt lat="48.947590" lon="8.656733">
<ele>314.5</ele>
<speed>1.12</speed>
<course>336.3</course>
<desc>Speed 4.0 km/h Distance 1.05 km</desc>
<time>2010-10-24T10:36:49.10</time>
<name>688</name>
</trkpt>
<trkpt lat="48.947610" lon="8.656720">
<ele>313.5</ele>
<speed>1.25</speed>
<course>334.5</course>
<desc>Speed 4.5 km/h Distance 1.06 km</desc>
<time>2010-10-24T10:36:50.10</time>
<name>689</name>
</trkpt>
<trkpt lat="48.947628" lon="8.656707">
<ele>313.0</ele>
<speed>0.93</speed>
<course>326.7</course>
<desc>Speed 3.3 km/h Distance 1.06 km</desc>
<time>2010-10-24T10:36:51.10</time>
<name>690</name>
</trkpt>
<trkpt lat="48.947647" lon="8.656688">
<ele>313.0</ele>
<speed>0.89</speed>
<course>326.3</course>
<desc>Speed 3.2 km/h Distance 1.06 km</desc>
<time>2010-10-24T10:36:52.10</time>
<name>691</name>
</trkpt>
<trkpt lat="48.947653" lon="8.656682">
<ele>312.0</ele>
<speed>0.88</speed>
<course>326.6</course>
<desc>Speed 3.2 km/h Distance 1.06 km</desc>
<time>2010-10-24T10:36:53.10</time>
<name>692</name>
</trkpt>
<trkpt lat="48.947665" lon="8.656670">
<ele>311.0</ele>
<speed>0.89</speed>
<course>353.0</course>
<desc>Speed 3.2 km/h Distance 1.06 km</desc>
<time>2010-10-24T10:36:54.10</time>
<name>693</name>
</trkpt>
<trkpt lat="48.947683" lon="8.656667">
<ele>309.5</ele>
<speed>0.95</speed>
<course>326.5</course>
<desc>Speed 3.4 km/h Distance 1.07 km</desc>
<time>2010-10-24T10:36:55.10</time>
<name>694</name>
</trkpt>
<trkpt lat="48.947692" lon="8.656658">
<ele>308.0</ele>
<speed>0.87</speed>
<course>324.2</course>
<desc>Speed 3.1 km/h Distance 1.07 km</desc>
<time>2010-10-24T10:36:56.10</time>
<name>695</name>
</trkpt>
<trkpt lat="48.947708" lon="8.656640">
<ele>307.5</ele>
<speed>0.89</speed>
<course>331.7</course>
<desc>Speed 3.2 km/h Distance 1.07 km</desc>
<time>2010-10-24T10:36:57.10</time>
<name>696</name>
</trkpt>
<trkpt lat="48.947727" lon="8.656625">
<ele>307.5</ele>
<speed>1.19</speed>
<course>330.2</course>
<desc>Speed 4.3 km/h Distance 1.07 km</desc>
<time>2010-10-24T10:36:58.10</time>
<name>697</name>
</trkpt>
<trkpt lat="48.947740" lon="8.656613">
<ele>307.0</ele>
<speed>1.15</speed>
<course>340.3</course>
<desc>Speed 4.1 km/h Distance 1.07 km</desc>
<time>2010-10-24T10:36:59.10</time>
<name>698</name>
</trkpt>
<trkpt lat="48.947758" lon="8.656603">
<ele>306.5</ele>
<speed>1.12</speed>
<course>301.3</course>
<desc>Speed 4.0 km/h Distance 1.07 km</desc>
<time>2010-10-24T10:37:00.10</time>
<name>699</name>
</trkpt>
<trkpt lat="48.947768" lon="8.656578">
<ele>306.5</ele>
<speed>1.67</speed>
<course>332.1</course>
<desc>Speed 6.0 km/h Distance 1.08 km</desc>
<time>2010-10-24T10:37:01.10</time>
<name>700</name>
</trkpt>
<trkpt lat="48.947777" lon="8.656572">
<ele>306.0</ele>
<speed>0.85</speed>
<course>330.2</course>
<desc>Speed 3.1 km/h Distance 1.08 km</desc>
<time>2010-10-24T10:37:02.10</time>
<name>701</name>
</trkpt>
<trkpt lat="48.947790" lon="8.656560">
<ele>305.5</ele>
<speed>1.20</speed>
<course>326.8</course>
<desc>Speed 4.3 km/h Distance 1.08 km</desc>
<time>2010-10-24T10:37:03.10</time>
<name>702</name>
</trkpt>
<trkpt lat="48.947803" lon="8.656547">
<ele>304.5</ele>
<speed>0.99</speed>
<course>333.0</course>
<desc>Speed 3.6 km/h Distance 1.08 km</desc>
<time>2010-10-24T10:37:04.10</time>
<name>703</name>
</trkpt>
<trkpt lat="48.947818" lon="8.656535">
<ele>304.0</ele>
<speed>0.98</speed>
<course>332.2</course>
<desc>Speed 3.5 km/h Distance 1.08 km</desc>
<time>2010-10-24T10:37:05.10</time>
<name>704</name>
</trkpt>
<trkpt lat="48.947835" lon="8.656522">
<ele>303.0</ele>
<speed>0.98</speed>
<course>312.2</course>
<desc>Speed 3.5 km/h Distance 1.09 km</desc>
<time>2010-10-24T10:37:06.10</time>
<name>705</name>
</trkpt>
<trkpt lat="48.947840" lon="8.656513">
<ele>302.0</ele>
<speed>0.75</speed>
<course>315.5</course>
<desc>Speed 2.7 km/h Distance 1.09 km</desc>
<time>2010-10-24T10:37:07.10</time>
<name>706</name>
</trkpt>
<trkpt lat="48.947847" lon="8.656503">
<ele>300.5</ele>
<speed>0.79</speed>
<course>317.4</course>
<desc>Speed 2.8 km/h Distance 1.09 km</desc>
<time>2010-10-24T10:37:08.10</time>
<name>707</name>
</trkpt>
<trkpt lat="48.947855" lon="8.656492">
<ele>299.0</ele>
<speed>0.97</speed>
<course>339.2</course>
<desc>Speed 3.5 km/h Distance 1.09 km</desc>
<time>2010-10-24T10:37:09.10</time>
<name>708</name>
</trkpt>
<trkpt lat="48.947875" lon="8.656480">
<ele>298.5</ele>
<speed>1.10</speed>
<course>329.2</course>
<desc>Speed 4.0 km/h Distance 1.09 km</desc>
<time>2010-10-24T10:37:10.10</time>
<name>709</name>
</trkpt>
<trkpt lat="48.947893" lon="8.656463">
<ele>298.5</ele>
<speed>1.05</speed>
<course>317.4</course>
<desc>Speed 3.8 km/h Distance 1.09 km</desc>
<time>2010-10-24T10:37:11.10</time>
<name>710</name>
</trkpt>
<trkpt lat="48.947902" lon="8.656452">
<ele>297.5</ele>
<speed>1.00</speed>
<course>315.5</course>
<desc>Speed 3.6 km/h Distance 1.09 km</desc>
<time>2010-10-24T10:37:12.10</time>
<name>711</name>
</trkpt>
<trkpt lat="48.947908" lon="8.656442">
<ele>296.0</ele>
<speed>0.87</speed>
<course>315.2</course>
<desc>Speed 3.1 km/h Distance 1.10 km</desc>
<time>2010-10-24T10:37:13.10</time>
<name>712</name>
</trkpt>
<trkpt lat="48.947915" lon="8.656432">
<ele>295.5</ele>
<speed>0.81</speed>
<course>320.6</course>
<desc>Speed 2.9 km/h Distance 1.10 km</desc>
<time>2010-10-24T10:37:14.10</time>
<name>713</name>
</trkpt>
<trkpt lat="48.947922" lon="8.656423">
<ele>294.5</ele>
<speed>0.83</speed>
<course>322.5</course>
<desc>Speed 3.0 km/h Distance 1.10 km</desc>
<time>2010-10-24T10:37:15.10</time>
<name>714</name>
</trkpt>
<trkpt lat="48.947932" lon="8.656412">
<ele>294.0</ele>
<speed>1.14</speed>
<course>323.5</course>
<desc>Speed 4.1 km/h Distance 1.10 km</desc>
<time>2010-10-24T10:37:16.10</time>
<name>715</name>
</trkpt>
<trkpt lat="48.947945" lon="8.656397">
<ele>294.0</ele>
<speed>1.16</speed>
<course>335.3</course>
<desc>Speed 4.2 km/h Distance 1.10 km</desc>
<time>2010-10-24T10:37:17.10</time>
<name>716</name>
</trkpt>
<trkpt lat="48.947962" lon="8.656385">
<ele>293.5</ele>
<speed>1.03</speed>
<course>320.6</course>
<desc>Speed 3.7 km/h Distance 1.10 km</desc>
<time>2010-10-24T10:37:18.10</time>
<name>717</name>
</trkpt>
<trkpt lat="48.947968" lon="8.656377">
<ele>292.5</ele>
<speed>0.82</speed>
<course>55.4</course>
<desc>Speed 3.0 km/h Distance 1.10 km</desc>
<time>2010-10-24T10:37:19.10</time>
<name>718</name>
</trkpt>
<trkpt lat="48.947977" lon="8.656395">
<ele>290.5</ele>
<speed>1.64</speed>
<course>309.4</course>
<desc>Speed 5.9 km/h Distance 1.11 km</desc>
<time>2010-10-24T10:37:21.10</time>
<name>719</name>
</trkpt>
<trkpt lat="48.947988" lon="8.656373">
<ele>290.5</ele>
<speed>0.40</speed>
<course>324.4</course>
<desc>Speed 1.4 km/h Distance 1.11 km</desc>
<time>2010-10-24T10:37:27.10</time>
<name>720</name>
</trkpt>
<trkpt lat="48.948007" lon="8.656353">
<ele>289.5</ele>
<speed>0.92</speed>
<course>318.8</course>
<desc>Speed 3.3 km/h Distance 1.11 km</desc>
<time>2010-10-24T10:37:29.10</time>
<name>721</name>
</trkpt>
<trkpt lat="48.948017" lon="8.656340">
<ele>289.5</ele>
<speed>0.93</speed>
<course>321.9</course>
<desc>Speed 3.3 km/h Distance 1.11 km</desc>
<time>2010-10-24T10:37:30.10</time>
<name>722</name>
</trkpt>
<trkpt lat="48.948025" lon="8.656330">
<ele>289.0</ele>
<speed>1.01</speed>
<course>334.8</course>
<desc>Speed 3.6 km/h Distance 1.11 km</desc>
<time>2010-10-24T10:37:31.10</time>
<name>723</name>
</trkpt>
<trkpt lat="48.948037" lon="8.656322">
<ele>288.5</ele>
<speed>0.80</speed>
<course>321.4</course>
<desc>Speed 2.9 km/h Distance 1.11 km</desc>
<time>2010-10-24T10:37:32.10</time>
<name>724</name>
</trkpt>
<trkpt lat="48.948045" lon="8.656312">
<ele>287.5</ele>
<speed>0.99</speed>
<course>313.1</course>
<desc>Speed 3.6 km/h Distance 1.12 km</desc>
<time>2010-10-24T10:37:33.10</time>
<name>725</name>
</trkpt>
<trkpt lat="48.948058" lon="8.656290">
<ele>288.0</ele>
<speed>1.11</speed>
<course>307.4</course>
<desc>Speed 4.0 km/h Distance 1.12 km</desc>
<time>2010-10-24T10:37:34.10</time>
<name>726</name>
</trkpt>
<trkpt lat="48.948063" lon="8.656280">
<ele>286.5</ele>
<speed>0.75</speed>
<course>315.5</course>
<desc>Speed 2.7 km/h Distance 1.12 km</desc>
<time>2010-10-24T10:37:35.10</time>
<name>727</name>
</trkpt>
<trkpt lat="48.948070" lon="8.656270">
<ele>286.0</ele>
<speed>1.01</speed>
<course>330.6</course>
<desc>Speed 3.6 km/h Distance 1.12 km</desc>
<time>2010-10-24T10:37:36.10</time>
<name>728</name>
</trkpt>
<trkpt lat="48.948082" lon="8.656260">
<ele>286.0</ele>
<speed>1.30</speed>
<course>304.1</course>
<desc>Speed 4.7 km/h Distance 1.12 km</desc>
<time>2010-10-24T10:37:37.10</time>
<name>729</name>
</trkpt>
<trkpt lat="48.948088" lon="8.656245">
<ele>286.0</ele>
<speed>1.24</speed>
<course>311.6</course>
<desc>Speed 4.5 km/h Distance 1.12 km</desc>
<time>2010-10-24T10:37:38.10</time>
<name>730</name>
</trkpt>
<trkpt lat="48.948100" lon="8.656225">
<ele>286.0</ele>
<speed>1.32</speed>
<course>301.4</course>
<desc>Speed 4.8 km/h Distance 1.12 km</desc>
<time>2010-10-24T10:37:39.10</time>
<name>731</name>
</trkpt>
<trkpt lat="48.948107" lon="8.656208">
<ele>286.0</ele>
<speed>0.86</speed>
<course>321.0</course>
<desc>Speed 3.1 km/h Distance 1.13 km</desc>
<time>2010-10-24T10:37:40.10</time>
<name>732</name>
</trkpt>
<trkpt lat="48.948113" lon="8.656200">
<ele>285.5</ele>
<speed>0.72</speed>
<course>320.6</course>
<desc>Speed 2.6 km/h Distance 1.13 km</desc>
<time>2010-10-24T10:37:41.10</time>
<name>733</name>
</trkpt>
<trkpt lat="48.948120" lon="8.656192">
<ele>284.0</ele>
<speed>0.81</speed>
<course>310.9</course>
<desc>Speed 2.9 km/h Distance 1.13 km</desc>
<time>2010-10-24T10:37:42.10</time>
<name>734</name>
</trkpt>
<trkpt lat="48.948127" lon="8.656180">
<ele>283.5</ele>
<speed>0.82</speed>
<course>296.9</course>
<desc>Speed 3.0 km/h Distance 1.13 km</desc>
<time>2010-10-24T10:37:43.10</time>
<name>735</name>
</trkpt>
<trkpt lat="48.948133" lon="8.656160">
<ele>283.5</ele>
<speed>1.50</speed>
<course>313.6</course>
<desc>Speed 5.4 km/h Distance 1.13 km</desc>
<time>2010-10-24T10:37:44.10</time>
<name>736</name>
</trkpt>
<trkpt lat="48.948142" lon="8.656147">
<ele>283.5</ele>
<speed>1.24</speed>
<course>320.6</course>
<desc>Speed 4.5 km/h Distance 1.13 km</desc>
<time>2010-10-24T10:37:45.10</time>
<name>737</name>
</trkpt>
<trkpt lat="48.948148" lon="8.656138">
<ele>283.0</ele>
<speed>0.95</speed>
<course>326.6</course>
<desc>Speed 3.4 km/h Distance 1.13 km</desc>
<time>2010-10-24T10:37:46.10</time>
<name>738</name>
</trkpt>
<trkpt lat="48.948160" lon="8.656127">
<ele>282.0</ele>
<speed>1.07</speed>
<course>315.5</course>
<desc>Speed 3.9 km/h Distance 1.13 km</desc>
<time>2010-10-24T10:37:47.10</time>
<name>739</name>
</trkpt>
<trkpt lat="48.948167" lon="8.656117">
<ele>281.5</ele>
<speed>0.92</speed>
<course>326.8</course>
<desc>Speed 3.3 km/h Distance 1.14 km</desc>
<time>2010-10-24T10:37:48.10</time>
<name>740</name>
</trkpt>
<trkpt lat="48.948173" lon="8.656110">
<ele>281.0</ele>
<speed>0.68</speed>
<course>307.3</course>
<desc>Speed 2.4 km/h Distance 1.14 km</desc>
<time>2010-10-24T10:37:49.10</time>
<name>741</name>
</trkpt>
<trkpt lat="48.948180" lon="8.656097">
<ele>281.5</ele>
<speed>0.97</speed>
<course>299.0</course>
<desc>Speed 3.5 km/h Distance 1.14 km</desc>
<time>2010-10-24T10:37:50.10</time>
<name>742</name>
</trkpt>
<trkpt lat="48.948187" lon="8.656078">
<ele>281.5</ele>
<speed>1.16</speed>
<course>277.9</course>
<desc>Speed 4.2 km/h Distance 1.14 km</desc>
<time>2010-10-24T10:37:51.10</time>
<name>743</name>
</trkpt>
<trkpt lat="48.948188" lon="8.656060">
<ele>282.0</ele>
<speed>0.75</speed>
<course>48.7</course>
<desc>Speed 2.7 km/h Distance 1.14 km</desc>
<time>2010-10-24T10:37:52.10</time>
<name>744</name>
</trkpt>
<trkpt lat="48.948195" lon="8.656072">
<ele>280.0</ele>
<speed>1.25</speed>
<course>349.7</course>
<desc>Speed 4.5 km/h Distance 1.14 km</desc>
<time>2010-10-24T10:37:53.11</time>
<name>745</name>
</trkpt>
<trkpt lat="48.948202" lon="8.656070">
<ele>279.5</ele>
<speed>0.63</speed>
<course>326.8</course>
<desc>Speed 2.3 km/h Distance 1.14 km</desc>
<time>2010-10-24T10:37:54.11</time>
<name>746</name>
</trkpt>
<trkpt lat="48.948210" lon="8.656062">
<ele>279.5</ele>
<speed>0.98</speed>
<course>332.1</course>
<desc>Speed 3.5 km/h Distance 1.14 km</desc>
<time>2010-10-24T10:37:55.11</time>
<name>747</name>
</trkpt>
<trkpt lat="48.948218" lon="8.656055">
<ele>278.5</ele>
<speed>0.93</speed>
<course>333.6</course>
<desc>Speed 3.3 km/h Distance 1.14 km</desc>
<time>2010-10-24T10:37:56.11</time>
<name>748</name>
</trkpt>
<trkpt lat="48.948225" lon="8.656050">
<ele>278.0</ele>
<speed>0.74</speed>
<course>352.3</course>
<desc>Speed 2.7 km/h Distance 1.15 km</desc>
<time>2010-10-24T10:37:57.11</time>
<name>749</name>
</trkpt>
<trkpt lat="48.948233" lon="8.656048">
<ele>277.0</ele>
<speed>0.95</speed>
<course>321.9</course>
<desc>Speed 3.4 km/h Distance 1.15 km</desc>
<time>2010-10-24T10:37:58.11</time>
<name>750</name>
</trkpt>
<trkpt lat="48.948242" lon="8.656038">
<ele>276.0</ele>
<speed>0.98</speed>
<course>311.1</course>
<desc>Speed 3.5 km/h Distance 1.15 km</desc>
<time>2010-10-24T10:37:59.11</time>
<name>751</name>
</trkpt>
<trkpt lat="48.948248" lon="8.656027">
<ele>275.5</ele>
<speed>0.94</speed>
<course>312.2</course>
<desc>Speed 3.4 km/h Distance 1.15 km</desc>
<time>2010-10-24T10:38:00.11</time>
<name>752</name>
</trkpt>
<trkpt lat="48.948253" lon="8.656018">
<ele>274.0</ele>
<speed>0.52</speed>
<course>333.8</course>
<desc>Speed 1.9 km/h Distance 1.15 km</desc>
<time>2010-10-24T10:38:01.11</time>
<name>753</name>
</trkpt>
<trkpt lat="48.948267" lon="8.656008">
<ele>273.5</ele>
<speed>0.93</speed>
<course>352.6</course>
<desc>Speed 3.3 km/h Distance 1.15 km</desc>
<time>2010-10-24T10:38:02.11</time>
<name>754</name>
</trkpt>
<trkpt lat="48.948273" lon="8.656007">
<ele>272.5</ele>
<speed>0.72</speed>
<course>318.6</course>
<desc>Speed 2.6 km/h Distance 1.15 km</desc>
<time>2010-10-24T10:38:03.11</time>
<name>755</name>
</trkpt>
<trkpt lat="48.948278" lon="8.656000">
<ele>271.5</ele>
<speed>0.43</speed>
<course>276.2</course>
<desc>Speed 1.5 km/h Distance 1.15 km</desc>
<time>2010-10-24T10:38:04.11</time>
<name>756</name>
</trkpt>
<trkpt lat="48.948298" lon="8.655720">
<ele>287.5</ele>
<speed>0.61</speed>
<course>315.2</course>
<desc>Speed 2.2 km/h Distance 1.17 km</desc>
<time>2010-10-24T10:38:08.12</time>
<name>757</name>
</trkpt>
<trkpt lat="48.948305" lon="8.655710">
<ele>287.0</ele>
<speed>0.83</speed>
<course>318.7</course>
<desc>Speed 3.0 km/h Distance 1.17 km</desc>
<time>2010-10-24T10:38:09.12</time>
<name>758</name>
</trkpt>
<trkpt lat="48.948315" lon="8.655697">
<ele>287.0</ele>
<speed>0.87</speed>
<course>285.0</course>
<desc>Speed 3.1 km/h Distance 1.18 km</desc>
<time>2010-10-24T10:38:10.12</time>
<name>759</name>
</trkpt>
<trkpt lat="48.948325" lon="8.655640">
<ele>289.0</ele>
<speed>0.95</speed>
<course>326.8</course>
<desc>Speed 3.4 km/h Distance 1.18 km</desc>
<time>2010-10-24T10:38:18.12</time>
<name>760</name>
</trkpt>
<trkpt lat="48.948333" lon="8.655632">
<ele>288.5</ele>
<speed>0.82</speed>
<course>341.9</course>
<desc>Speed 3.0 km/h Distance 1.18 km</desc>
<time>2010-10-24T10:38:19.11</time>
<name>761</name>
</trkpt>
<trkpt lat="48.948347" lon="8.655625">
<ele>288.0</ele>
<speed>0.93</speed>
<course>337.4</course>
<desc>Speed 3.3 km/h Distance 1.18 km</desc>
<time>2010-10-24T10:38:20.11</time>
<name>762</name>
</trkpt>
<trkpt lat="48.948360" lon="8.655617">
<ele>288.0</ele>
<speed>0.73</speed>
<course>310.6</course>
<desc>Speed 2.6 km/h Distance 1.18 km</desc>
<time>2010-10-24T10:38:21.11</time>
<name>763</name>
</trkpt>
<trkpt lat="48.948375" lon="8.655590">
<ele>289.0</ele>
<speed>0.99</speed>
<course>308.7</course>
<desc>Speed 3.6 km/h Distance 1.19 km</desc>
<time>2010-10-24T10:38:22.11</time>
<name>764</name>
</trkpt>
<trkpt lat="48.948392" lon="8.655558">
<ele>290.0</ele>
<speed>0.87</speed>
<course>0.0</course>
<desc>Speed 3.1 km/h Distance 1.19 km</desc>
<time>2010-10-24T10:38:23.10</time>
<name>765</name>
</trkpt>
<trkpt lat="48.948402" lon="8.655558">
<ele>289.0</ele>
<speed>0.94</speed>
<course>334.6</course>
<desc>Speed 3.4 km/h Distance 1.19 km</desc>
<time>2010-10-24T10:38:24.10</time>
<name>766</name>
</trkpt>
<trkpt lat="48.948450" lon="8.655523">
<ele>288.5</ele>
<speed>1.12</speed>
<course>308.6</course>
<desc>Speed 4.0 km/h Distance 1.20 km</desc>
<time>2010-10-24T10:38:26.10</time>
<name>767</name>
</trkpt>
<trkpt lat="48.948485" lon="8.655457">
<ele>291.5</ele>
<speed>1.01</speed>
<course>315.5</course>
<desc>Speed 3.6 km/h Distance 1.20 km</desc>
<time>2010-10-24T10:38:28.10</time>
<name>768</name>
</trkpt>
<trkpt lat="48.948495" lon="8.655442">
<ele>291.0</ele>
<speed>0.72</speed>
<course>329.3</course>
<desc>Speed 2.6 km/h Distance 1.20 km</desc>
<time>2010-10-24T10:38:29.10</time>
<name>769</name>
</trkpt>
<trkpt lat="48.948512" lon="8.655427">
<ele>291.0</ele>
<speed>0.95</speed>
<course>338.5</course>
<desc>Speed 3.4 km/h Distance 1.21 km</desc>
<time>2010-10-24T10:38:30.10</time>
<name>770</name>
</trkpt>
<trkpt lat="48.948520" lon="8.655422">
<ele>289.5</ele>
<speed>0.88</speed>
<course>341.9</course>
<desc>Speed 3.2 km/h Distance 1.21 km</desc>
<time>2010-10-24T10:38:31.10</time>
<name>771</name>
</trkpt>
<trkpt lat="48.948533" lon="8.655415">
<ele>288.0</ele>
<speed>0.86</speed>
<course>339.9</course>
<desc>Speed 3.1 km/h Distance 1.21 km</desc>
<time>2010-10-24T10:38:32.10</time>
<name>772</name>
</trkpt>
<trkpt lat="48.948548" lon="8.655407">
<ele>286.5</ele>
<speed>0.88</speed>
<course>332.1</course>
<desc>Speed 3.2 km/h Distance 1.21 km</desc>
<time>2010-10-24T10:38:33.10</time>
<name>773</name>
</trkpt>
<trkpt lat="48.948557" lon="8.655400">
<ele>285.5</ele>
<speed>0.85</speed>
<course>336.2</course>
<desc>Speed 3.1 km/h Distance 1.21 km</desc>
<time>2010-10-24T10:38:34.10</time>
<name>774</name>
</trkpt>
<trkpt lat="48.948567" lon="8.655393">
<ele>284.5</ele>
<speed>1.02</speed>
<course>341.8</course>
<desc>Speed 3.7 km/h Distance 1.21 km</desc>
<time>2010-10-24T10:38:35.10</time>
<name>775</name>
</trkpt>
<trkpt lat="48.948577" lon="8.655388">
<ele>283.0</ele>
<speed>0.69</speed>
<course>345.1</course>
<desc>Speed 2.5 km/h Distance 1.21 km</desc>
<time>2010-10-24T10:38:36.10</time>
<name>776</name>
</trkpt>
<trkpt lat="48.948585" lon="8.655385">
<ele>281.0</ele>
<speed>0.62</speed>
<course>312.2</course>
<desc>Speed 2.2 km/h Distance 1.22 km</desc>
<time>2010-10-24T10:38:37.10</time>
<name>777</name>
</trkpt>
<trkpt lat="48.948590" lon="8.655377">
<ele>279.5</ele>
<speed>0.64</speed>
<course>294.0</course>
<desc>Speed 2.3 km/h Distance 1.22 km</desc>
<time>2010-10-24T10:38:38.10</time>
<name>778</name>
</trkpt>
<trkpt lat="48.948610" lon="8.655308">
<ele>282.0</ele>
<speed>0.89</speed>
<course>326.8</course>
<desc>Speed 3.2 km/h Distance 1.22 km</desc>
<time>2010-10-24T10:38:40.10</time>
<name>779</name>
</trkpt>
<trkpt lat="48.948618" lon="8.655300">
<ele>281.0</ele>
<speed>0.91</speed>
<course>289.7</course>
<desc>Speed 3.3 km/h Distance 1.22 km</desc>
<time>2010-10-24T10:38:41.10</time>
<name>780</name>
</trkpt>
<trkpt lat="48.948625" lon="8.655272">
<ele>282.0</ele>
<speed>0.68</speed>
<course>290.8</course>
<desc>Speed 2.4 km/h Distance 1.23 km</desc>
<time>2010-10-24T10:38:42.10</time>
<name>781</name>
</trkpt>
<trkpt lat="48.948647" lon="8.655185">
<ele>286.0</ele>
<speed>0.57</speed>
<course>335.8</course>
<desc>Speed 2.1 km/h Distance 1.23 km</desc>
<time>2010-10-24T10:38:44.10</time>
<name>782</name>
</trkpt>
<trkpt lat="48.948678" lon="8.655163">
<ele>285.0</ele>
<speed>0.75</speed>
<course>318.1</course>
<desc>Speed 2.7 km/h Distance 1.24 km</desc>
<time>2010-10-24T10:38:46.10</time>
<name>783</name>
</trkpt>
<trkpt lat="48.948683" lon="8.655157">
<ele>284.0</ele>
<speed>0.68</speed>
<course>332.1</course>
<desc>Speed 2.4 km/h Distance 1.24 km</desc>
<time>2010-10-24T10:38:47.10</time>
<name>784</name>
</trkpt>
<trkpt lat="48.948692" lon="8.655150">
<ele>283.0</ele>
<speed>0.80</speed>
<course>303.1</course>
<desc>Speed 2.9 km/h Distance 1.24 km</desc>
<time>2010-10-24T10:38:48.10</time>
<name>785</name>
</trkpt>
<trkpt lat="48.948697" lon="8.655138">
<ele>282.5</ele>
<speed>1.10</speed>
<course>312.4</course>
<desc>Speed 4.0 km/h Distance 1.24 km</desc>
<time>2010-10-24T10:38:49.09</time>
<name>786</name>
</trkpt>
<trkpt lat="48.948707" lon="8.655122">
<ele>282.5</ele>
<speed>1.35</speed>
<course>332.8</course>
<desc>Speed 4.9 km/h Distance 1.24 km</desc>
<time>2010-10-24T10:38:50.09</time>
<name>787</name>
</trkpt>
<trkpt lat="48.948722" lon="8.655110">
<ele>281.5</ele>
<speed>1.39</speed>
<course>326.8</course>
<desc>Speed 5.0 km/h Distance 1.24 km</desc>
<time>2010-10-24T10:38:51.09</time>
<name>788</name>
</trkpt>
<trkpt lat="48.948730" lon="8.655102">
<ele>281.0</ele>
<speed>1.02</speed>
<course>326.8</course>
<desc>Speed 3.7 km/h Distance 1.24 km</desc>
<time>2010-10-24T10:38:52.09</time>
<name>789</name>
</trkpt>
<trkpt lat="48.948740" lon="8.655092">
<ele>280.0</ele>
<speed>1.21</speed>
<course>326.7</course>
<desc>Speed 4.4 km/h Distance 1.24 km</desc>
<time>2010-10-24T10:38:53.09</time>
<name>790</name>
</trkpt>
<trkpt lat="48.948762" lon="8.655070">
<ele>280.5</ele>
<speed>1.12</speed>
<course>320.6</course>
<desc>Speed 4.0 km/h Distance 1.25 km</desc>
<time>2010-10-24T10:38:54.09</time>
<name>791</name>
</trkpt>
<trkpt lat="48.948768" lon="8.655062">
<ele>279.0</ele>
<speed>0.87</speed>
<course>321.9</course>
<desc>Speed 3.1 km/h Distance 1.25 km</desc>
<time>2010-10-24T10:38:55.18</time>
<name>792</name>
</trkpt>
<trkpt lat="48.948777" lon="8.655052">
<ele>278.0</ele>
<speed>0.99</speed>
<course>326.3</course>
<desc>Speed 3.6 km/h Distance 1.25 km</desc>
<time>2010-10-24T10:38:56.09</time>
<name>793</name>
</trkpt>
<trkpt lat="48.948783" lon="8.655045">
<ele>277.0</ele>
<speed>0.77</speed>
<course>321.8</course>
<desc>Speed 2.8 km/h Distance 1.25 km</desc>
<time>2010-10-24T10:38:57.09</time>
<name>794</name>
</trkpt>
<trkpt lat="48.948800" lon="8.655025">
<ele>277.0</ele>
<speed>1.00</speed>
<course>338.5</course>
<desc>Speed 3.6 km/h Distance 1.25 km</desc>
<time>2010-10-24T10:38:58.09</time>
<name>795</name>
</trkpt>
<trkpt lat="48.948808" lon="8.655020">
<ele>276.5</ele>
<speed>0.94</speed>
<course>333.8</course>
<desc>Speed 3.4 km/h Distance 1.25 km</desc>
<time>2010-10-24T10:38:59.09</time>
<name>796</name>
</trkpt>
<trkpt lat="48.948822" lon="8.655010">
<ele>275.5</ele>
<speed>1.14</speed>
<course>334.8</course>
<desc>Speed 4.1 km/h Distance 1.26 km</desc>
<time>2010-10-24T10:39:00.09</time>
<name>797</name>
</trkpt>
<trkpt lat="48.948833" lon="8.655002">
<ele>275.5</ele>
<speed>0.86</speed>
<course>346.5</course>
<desc>Speed 3.1 km/h Distance 1.26 km</desc>
<time>2010-10-24T10:39:01.09</time>
<name>798</name>
</trkpt>
<trkpt lat="48.948847" lon="8.654997">
<ele>275.0</ele>
<speed>0.82</speed>
<course>345.1</course>
<desc>Speed 3.0 km/h Distance 1.26 km</desc>
<time>2010-10-24T10:39:02.09</time>
<name>799</name>
</trkpt>
<trkpt lat="48.948863" lon="8.654990">
<ele>274.0</ele>
<speed>1.00</speed>
<course>339.1</course>
<desc>Speed 3.6 km/h Distance 1.26 km</desc>
<time>2010-10-24T10:39:03.09</time>
<name>800</name>
</trkpt>
<trkpt lat="48.948883" lon="8.654978">
<ele>273.0</ele>
<speed>1.12</speed>
<course>333.2</course>
<desc>Speed 4.0 km/h Distance 1.26 km</desc>
<time>2010-10-24T10:39:04.09</time>
<name>801</name>
</trkpt>
<trkpt lat="48.948905" lon="8.654962">
<ele>272.5</ele>
<speed>1.15</speed>
<course>337.7</course>
<desc>Speed 4.1 km/h Distance 1.27 km</desc>
<time>2010-10-24T10:39:05.09</time>
<name>802</name>
</trkpt>
<trkpt lat="48.948918" lon="8.654953">
<ele>271.0</ele>
<speed>1.16</speed>
<course>323.4</course>
<desc>Speed 4.2 km/h Distance 1.27 km</desc>
<time>2010-10-24T10:39:06.09</time>
<name>803</name>
</trkpt>
<trkpt lat="48.948932" lon="8.654938">
<ele>272.0</ele>
<speed>1.52</speed>
<course>312.2</course>
<desc>Speed 5.5 km/h Distance 1.27 km</desc>
<time>2010-10-24T10:39:07.09</time>
<name>804</name>
</trkpt>
<trkpt lat="48.948937" lon="8.654930">
<ele>271.0</ele>
<speed>0.82</speed>
<course>320.6</course>
<desc>Speed 3.0 km/h Distance 1.27 km</desc>
<time>2010-10-24T10:39:08.09</time>
<name>805</name>
</trkpt>
<trkpt lat="48.948943" lon="8.654922">
<ele>270.0</ele>
<speed>0.64</speed>
<course>0.0</course>
<desc>Speed 2.3 km/h Distance 1.27 km</desc>
<time>2010-10-24T10:39:09.09</time>
<name>806</name>
</trkpt>
<trkpt lat="48.948952" lon="8.654922">
<ele>268.5</ele>
<speed>0.87</speed>
<course>286.9</course>
<desc>Speed 3.1 km/h Distance 1.27 km</desc>
<time>2010-10-24T10:39:10.09</time>
<name>807</name>
</trkpt>
<trkpt lat="48.948965" lon="8.654855">
<ele>269.5</ele>
<speed>0.62</speed>
<course>325.9</course>
<desc>Speed 2.2 km/h Distance 1.28 km</desc>
<time>2010-10-24T10:39:12.09</time>
<name>808</name>
</trkpt>
<trkpt lat="48.948970" lon="8.654850">
<ele>268.0</ele>
<speed>0.63</speed>
<course>294.6</course>
<desc>Speed 2.3 km/h Distance 1.28 km</desc>
<time>2010-10-24T10:39:13.09</time>
<name>809</name>
</trkpt>
<trkpt lat="48.948985" lon="8.654800">
<ele>267.5</ele>
<speed>0.68</speed>
<course>5.0</course>
<desc>Speed 2.4 km/h Distance 1.28 km</desc>
<time>2010-10-24T10:39:15.09</time>
<name>810</name>
</trkpt>
<trkpt lat="48.948993" lon="8.654800">
<ele>265.5</ele>
<speed>0.82</speed>
<course>339.9</course>
<desc>Speed 3.0 km/h Distance 1.28 km</desc>
<time>2010-10-24T10:39:16.09</time>
<name>811</name>
</trkpt>
<trkpt lat="48.949008" lon="8.654792">
<ele>264.0</ele>
<speed>0.64</speed>
<course>312.9</course>
<desc>Speed 2.3 km/h Distance 1.28 km</desc>
<time>2010-10-24T10:39:17.09</time>
<name>812</name>
</trkpt>
<trkpt lat="48.949013" lon="8.654783">
<ele>263.0</ele>
<speed>0.86</speed>
<course>326.8</course>
<desc>Speed 3.1 km/h Distance 1.28 km</desc>
<time>2010-10-24T10:39:18.09</time>
<name>813</name>
</trkpt>
<trkpt lat="48.949032" lon="8.654765">
<ele>263.5</ele>
<speed>0.99</speed>
<course>328.9</course>
<desc>Speed 3.6 km/h Distance 1.29 km</desc>
<time>2010-10-24T10:39:19.09</time>
<name>814</name>
</trkpt>
<trkpt lat="48.949052" lon="8.654747">
<ele>263.0</ele>
<speed>0.81</speed>
<course>305.1</course>
<desc>Speed 2.9 km/h Distance 1.29 km</desc>
<time>2010-10-24T10:39:20.09</time>
<name>815</name>
</trkpt>
<trkpt lat="48.949092" lon="8.654660">
<ele>267.0</ele>
<speed>1.01</speed>
<course>286.7</course>
<desc>Speed 3.6 km/h Distance 1.30 km</desc>
<time>2010-10-24T10:39:22.09</time>
<name>816</name>
</trkpt>
<trkpt lat="48.949115" lon="8.654542">
<ele>273.5</ele>
<speed>0.83</speed>
<course>299.0</course>
<desc>Speed 3.0 km/h Distance 1.31 km</desc>
<time>2010-10-24T10:39:24.09</time>
<name>817</name>
</trkpt>
<trkpt lat="48.949122" lon="8.654523">
<ele>274.5</ele>
<speed>0.72</speed>
<course>333.6</course>
<desc>Speed 2.6 km/h Distance 1.31 km</desc>
<time>2010-10-24T10:39:25.09</time>
<name>818</name>
</trkpt>
<trkpt lat="48.949128" lon="8.654518">
<ele>273.0</ele>
<speed>0.69</speed>
<course>315.5</course>
<desc>Speed 2.5 km/h Distance 1.31 km</desc>
<time>2010-10-24T10:39:26.09</time>
<name>819</name>
</trkpt>
<trkpt lat="48.949132" lon="8.654513">
<ele>271.0</ele>
<speed>0.50</speed>
<course>0.0</course>
<desc>Speed 1.8 km/h Distance 1.31 km</desc>
<time>2010-10-24T10:39:27.09</time>
<name>820</name>
</trkpt>
<trkpt lat="48.949140" lon="8.654513">
<ele>269.5</ele>
<speed>0.58</speed>
<course>347.4</course>
<desc>Speed 2.1 km/h Distance 1.31 km</desc>
<time>2010-10-24T10:39:29.09</time>
<name>821</name>
</trkpt>
<trkpt lat="48.949145" lon="8.654512">
<ele>268.0</ele>
<speed>0.56</speed>
<course>349.7</course>
<desc>Speed 2.0 km/h Distance 1.31 km</desc>
<time>2010-10-24T10:39:30.09</time>
<name>822</name>
</trkpt>
<trkpt lat="48.949152" lon="8.654510">
<ele>265.5</ele>
<speed>0.46</speed>
<course>345.1</course>
<desc>Speed 1.7 km/h Distance 1.31 km</desc>
<time>2010-10-24T10:39:31.09</time>
<name>823</name>
</trkpt>
<trkpt lat="48.949160" lon="8.654507">
<ele>263.5</ele>
<speed>0.93</speed>
<course>329.4</course>
<desc>Speed 3.3 km/h Distance 1.31 km</desc>
<time>2010-10-24T10:39:32.09</time>
<name>824</name>
</trkpt>
<trkpt lat="48.949177" lon="8.654492">
<ele>264.0</ele>
<speed>0.88</speed>
<course>341.2</course>
<desc>Speed 3.2 km/h Distance 1.31 km</desc>
<time>2010-10-24T10:39:33.09</time>
<name>825</name>
</trkpt>
<trkpt lat="48.949183" lon="8.654488">
<ele>262.0</ele>
<speed>0.68</speed>
<course>336.2</course>
<desc>Speed 2.4 km/h Distance 1.32 km</desc>
<time>2010-10-24T10:39:34.09</time>
<name>826</name>
</trkpt>
<trkpt lat="48.949188" lon="8.654485">
<ele>260.5</ele>
<speed>0.46</speed>
<course>352.6</course>
<desc>Speed 1.7 km/h Distance 1.32 km</desc>
<time>2010-10-24T10:39:35.09</time>
<name>827</name>
</trkpt>
<trkpt lat="48.949195" lon="8.654483">
<ele>258.0</ele>
<speed>0.62</speed>
<course>326.8</course>
<desc>Speed 2.2 km/h Distance 1.32 km</desc>
<time>2010-10-24T10:39:36.09</time>
<name>828</name>
</trkpt>
<trkpt lat="48.949200" lon="8.654478">
<ele>256.5</ele>
<speed>0.56</speed>
<course>333.6</course>
<desc>Speed 2.0 km/h Distance 1.32 km</desc>
<time>2010-10-24T10:39:37.09</time>
<name>829</name>
</trkpt>
<trkpt lat="48.949207" lon="8.654473">
<ele>255.0</ele>
<speed>0.75</speed>
<course>315.5</course>
<desc>Speed 2.7 km/h Distance 1.32 km</desc>
<time>2010-10-24T10:39:38.09</time>
<name>830</name>
</trkpt>
<trkpt lat="48.949210" lon="8.654468">
<ele>253.5</ele>
<speed>0.33</speed>
<course>326.3</course>
<desc>Speed 1.2 km/h Distance 1.32 km</desc>
<time>2010-10-24T10:39:39.09</time>
<name>831</name>
</trkpt>
<trkpt lat="48.949213" lon="8.654465">
<ele>251.5</ele>
<speed>0.40</speed>
<course>4.7</course>
<desc>Speed 1.4 km/h Distance 1.32 km</desc>
<time>2010-10-24T10:39:40.09</time>
<name>832</name>
</trkpt>
<trkpt lat="48.949225" lon="8.654465">
<ele>250.0</ele>
<speed>0.46</speed>
<course>347.4</course>
<desc>Speed 1.7 km/h Distance 1.32 km</desc>
<time>2010-10-24T10:39:43.09</time>
<name>833</name>
</trkpt>
<trkpt lat="48.949230" lon="8.654463">
<ele>249.5</ele>
<speed>0.37</speed>
<course>284.2</course>
<desc>Speed 1.3 km/h Distance 1.32 km</desc>
<time>2010-10-24T10:39:44.09</time>
<name>834</name>
</trkpt>
<trkpt lat="48.949235" lon="8.654433">
<ele>250.0</ele>
<speed>0.43</speed>
<course>334.8</course>
<desc>Speed 1.5 km/h Distance 1.32 km</desc>
<time>2010-10-24T10:39:45.12</time>
<name>835</name>
</trkpt>
<trkpt lat="48.949247" lon="8.654425">
<ele>250.0</ele>
<speed>1.38</speed>
<course>326.8</course>
<desc>Speed 5.0 km/h Distance 1.33 km</desc>
<time>2010-10-24T10:39:46.10</time>
<name>836</name>
</trkpt>
<trkpt lat="48.949260" lon="8.654412">
<ele>249.0</ele>
<speed>0.86</speed>
<course>321.0</course>
<desc>Speed 3.1 km/h Distance 1.33 km</desc>
<time>2010-10-24T10:39:47.10</time>
<name>837</name>
</trkpt>
<trkpt lat="48.949267" lon="8.654403">
<ele>248.5</ele>
<speed>0.82</speed>
<course>322.2</course>
<desc>Speed 3.0 km/h Distance 1.33 km</desc>
<time>2010-10-24T10:39:48.10</time>
<name>838</name>
</trkpt>
<trkpt lat="48.949285" lon="8.654382">
<ele>249.5</ele>
<speed>1.00</speed>
<course>329.1</course>
<desc>Speed 3.6 km/h Distance 1.33 km</desc>
<time>2010-10-24T10:39:49.10</time>
<name>839</name>
</trkpt>
<trkpt lat="48.949303" lon="8.654365">
<ele>250.5</ele>
<speed>1.09</speed>
<course>323.6</course>
<desc>Speed 3.9 km/h Distance 1.33 km</desc>
<time>2010-10-24T10:39:50.10</time>
<name>840</name>
</trkpt>
<trkpt lat="48.949317" lon="8.654350">
<ele>250.5</ele>
<speed>1.04</speed>
<course>324.2</course>
<desc>Speed 3.7 km/h Distance 1.33 km</desc>
<time>2010-10-24T10:39:51.10</time>
<name>841</name>
</trkpt>
<trkpt lat="48.949333" lon="8.654332">
<ele>251.0</ele>
<speed>1.00</speed>
<course>317.4</course>
<desc>Speed 3.6 km/h Distance 1.34 km</desc>
<time>2010-10-24T10:39:52.10</time>
<name>842</name>
</trkpt>
<trkpt lat="48.949342" lon="8.654320">
<ele>250.5</ele>
<speed>1.08</speed>
<course>315.4</course>
<desc>Speed 3.9 km/h Distance 1.34 km</desc>
<time>2010-10-24T10:39:53.10</time>
<name>843</name>
</trkpt>
<trkpt lat="48.949375" lon="8.654270">
<ele>250.5</ele>
<speed>0.70</speed>
<course>280.4</course>
<desc>Speed 2.5 km/h Distance 1.34 km</desc>
<time>2010-10-24T10:39:55.10</time>
<name>844</name>
</trkpt>
<trkpt lat="48.949385" lon="8.654187">
<ele>252.0</ele>
<speed>0.50</speed>
<course>284.9</course>
<desc>Speed 1.8 km/h Distance 1.35 km</desc>
<time>2010-10-24T10:39:57.09</time>
<name>845</name>
</trkpt>
<trkpt lat="48.949403" lon="8.654082">
<ele>255.5</ele>
<speed>0.87</speed>
<course>318.0</course>
<desc>Speed 3.1 km/h Distance 1.36 km</desc>
<time>2010-10-24T10:39:59.09</time>
<name>846</name>
</trkpt>
<trkpt lat="48.949417" lon="8.654063">
<ele>256.0</ele>
<speed>1.22</speed>
<course>331.8</course>
<desc>Speed 4.4 km/h Distance 1.36 km</desc>
<time>2010-10-24T10:40:00.09</time>
<name>847</name>
</trkpt>
<trkpt lat="48.949435" lon="8.654048">
<ele>257.0</ele>
<speed>1.25</speed>
<course>334.5</course>
<desc>Speed 4.5 km/h Distance 1.36 km</desc>
<time>2010-10-24T10:40:01.09</time>
<name>848</name>
</trkpt>
<trkpt lat="48.949453" lon="8.654035">
<ele>257.0</ele>
<speed>1.05</speed>
<course>328.8</course>
<desc>Speed 3.8 km/h Distance 1.36 km</desc>
<time>2010-10-24T10:40:02.21</time>
<name>849</name>
</trkpt>
<trkpt lat="48.949475" lon="8.654015">
<ele>257.5</ele>
<speed>1.21</speed>
<course>320.6</course>
<desc>Speed 4.4 km/h Distance 1.37 km</desc>
<time>2010-10-24T10:40:03.13</time>
<name>850</name>
</trkpt>
<trkpt lat="48.949482" lon="8.654007">
<ele>256.0</ele>
<speed>0.79</speed>
<course>294.1</course>
<desc>Speed 2.8 km/h Distance 1.37 km</desc>
<time>2010-10-24T10:40:04.13</time>
<name>851</name>
</trkpt>
<trkpt lat="48.949490" lon="8.653978">
<ele>257.0</ele>
<speed>0.66</speed>
<course>315.5</course>
<desc>Speed 2.4 km/h Distance 1.37 km</desc>
<time>2010-10-24T10:40:05.13</time>
<name>852</name>
</trkpt>
<trkpt lat="48.949497" lon="8.653968">
<ele>256.5</ele>
<speed>1.10</speed>
<course>315.5</course>
<desc>Speed 4.0 km/h Distance 1.37 km</desc>
<time>2010-10-24T10:40:06.13</time>
<name>853</name>
</trkpt>
<trkpt lat="48.949503" lon="8.653958">
<ele>255.5</ele>
<speed>0.80</speed>
<course>310.9</course>
<desc>Speed 2.9 km/h Distance 1.37 km</desc>
<time>2010-10-24T10:40:07.13</time>
<name>854</name>
</trkpt>
<trkpt lat="48.949510" lon="8.653947">
<ele>255.0</ele>
<speed>0.93</speed>
<course>349.7</course>
<desc>Speed 3.3 km/h Distance 1.37 km</desc>
<time>2010-10-24T10:40:08.13</time>
<name>855</name>
</trkpt>
<trkpt lat="48.949517" lon="8.653945">
<ele>254.0</ele>
<speed>0.63</speed>
<course>341.2</course>
<desc>Speed 2.3 km/h Distance 1.37 km</desc>
<time>2010-10-24T10:40:09.13</time>
<name>856</name>
</trkpt>
<trkpt lat="48.949523" lon="8.653942">
<ele>253.5</ele>
<speed>0.49</speed>
<course>352.6</course>
<desc>Speed 1.8 km/h Distance 1.37 km</desc>
<time>2010-10-24T10:40:10.13</time>
<name>857</name>
</trkpt>
<trkpt lat="48.949530" lon="8.653940">
<ele>252.0</ele>
<speed>0.66</speed>
<course>326.8</course>
<desc>Speed 2.4 km/h Distance 1.38 km</desc>
<time>2010-10-24T10:40:11.13</time>
<name>858</name>
</trkpt>
<trkpt lat="48.949538" lon="8.653932">
<ele>251.0</ele>
<speed>0.68</speed>
<course>315.5</course>
<desc>Speed 2.4 km/h Distance 1.38 km</desc>
<time>2010-10-24T10:40:12.13</time>
<name>859</name>
</trkpt>
<trkpt lat="48.949545" lon="8.653922">
<ele>250.5</ele>
<speed>0.81</speed>
<course>284.0</course>
<desc>Speed 2.9 km/h Distance 1.38 km</desc>
<time>2010-10-24T10:40:13.13</time>
<name>860</name>
</trkpt>
<trkpt lat="48.949562" lon="8.653820">
<ele>254.0</ele>
<speed>0.80</speed>
<course>304.1</course>
<desc>Speed 2.9 km/h Distance 1.39 km</desc>
<time>2010-10-24T10:40:15.13</time>
<name>861</name>
</trkpt>
<trkpt lat="48.949568" lon="8.653805">
<ele>253.5</ele>
<speed>0.93</speed>
<course>341.2</course>
<desc>Speed 3.3 km/h Distance 1.39 km</desc>
<time>2010-10-24T10:40:16.13</time>
<name>862</name>
</trkpt>
<trkpt lat="48.949575" lon="8.653802">
<ele>252.5</ele>
<speed>0.60</speed>
<course>12.6</course>
<desc>Speed 2.2 km/h Distance 1.39 km</desc>
<time>2010-10-24T10:40:17.13</time>
<name>863</name>
</trkpt>
<trkpt lat="48.949580" lon="8.653803">
<ele>251.0</ele>
<speed>0.57</speed>
<course>339.1</course>
<desc>Speed 2.1 km/h Distance 1.39 km</desc>
<time>2010-10-24T10:40:18.13</time>
<name>864</name>
</trkpt>
<trkpt lat="48.949592" lon="8.653797">
<ele>250.5</ele>
<speed>1.00</speed>
<course>283.6</course>
<desc>Speed 3.6 km/h Distance 1.39 km</desc>
<time>2010-10-24T10:40:19.13</time>
<name>865</name>
</trkpt>
<trkpt lat="48.949603" lon="8.653723">
<ele>250.5</ele>
<speed>0.57</speed>
<course>12.6</course>
<desc>Speed 2.1 km/h Distance 1.39 km</desc>
<time>2010-10-24T10:40:22.13</time>
<name>866</name>
</trkpt>
<trkpt lat="48.949613" lon="8.653727">
<ele>248.5</ele>
<speed>0.34</speed>
<course>4.4</course>
<desc>Speed 1.2 km/h Distance 1.40 km</desc>
<time>2010-10-24T10:40:24.13</time>
<name>867</name>
</trkpt>
<trkpt lat="48.949623" lon="8.653727">
<ele>247.5</ele>
<speed>0.52</speed>
<course>323.1</course>
<desc>Speed 1.9 km/h Distance 1.40 km</desc>
<time>2010-10-24T10:40:25.13</time>
<name>868</name>
</trkpt>
<trkpt lat="48.949635" lon="8.653713">
<ele>243.0</ele>
<speed>0.33</speed>
<course>339.4</course>
<desc>Speed 1.2 km/h Distance 1.40 km</desc>
<time>2010-10-24T10:40:29.13</time>
<name>869</name>
</trkpt>
<trkpt lat="48.949647" lon="8.653707">
<ele>243.5</ele>
<speed>0.30</speed>
<course>326.8</course>
<desc>Speed 1.1 km/h Distance 1.40 km</desc>
<time>2010-10-24T10:40:30.13</time>
<name>870</name>
</trkpt>
<trkpt lat="48.949655" lon="8.653698">
<ele>243.0</ele>
<speed>0.50</speed>
<course>303.3</course>
<desc>Speed 1.8 km/h Distance 1.40 km</desc>
<time>2010-10-24T10:40:31.13</time>
<name>871</name>
</trkpt>
<trkpt lat="48.949660" lon="8.653687">
<ele>242.5</ele>
<speed>0.41</speed>
<course>320.6</course>
<desc>Speed 1.5 km/h Distance 1.40 km</desc>
<time>2010-10-24T10:40:32.13</time>
<name>872</name>
</trkpt>
<trkpt lat="48.949667" lon="8.653678">
<ele>241.0</ele>
<speed>0.43</speed>
<course>299.7</course>
<desc>Speed 1.5 km/h Distance 1.40 km</desc>
<time>2010-10-24T10:40:33.13</time>
<name>873</name>
</trkpt>
<trkpt lat="48.949677" lon="8.653652">
<ele>241.0</ele>
<speed>0.40</speed>
<course>304.7</course>
<desc>Speed 1.4 km/h Distance 1.41 km</desc>
<time>2010-10-24T10:40:35.13</time>
<name>874</name>
</trkpt>
<trkpt lat="48.949685" lon="8.653633">
<ele>241.0</ele>
<speed>1.12</speed>
<course>317.4</course>
<desc>Speed 4.0 km/h Distance 1.41 km</desc>
<time>2010-10-24T10:40:36.13</time>
<name>875</name>
</trkpt>
<trkpt lat="48.949693" lon="8.653622">
<ele>240.5</ele>
<speed>0.75</speed>
<course>310.2</course>
<desc>Speed 2.7 km/h Distance 1.41 km</desc>
<time>2010-10-24T10:40:37.13</time>
<name>876</name>
</trkpt>
<trkpt lat="48.949702" lon="8.653607">
<ele>241.5</ele>
<speed>0.82</speed>
<course>320.6</course>
<desc>Speed 3.0 km/h Distance 1.41 km</desc>
<time>2010-10-24T10:40:38.13</time>
<name>877</name>
</trkpt>
<trkpt lat="48.949708" lon="8.653598">
<ele>241.5</ele>
<speed>0.41</speed>
<course>284.4</course>
<desc>Speed 1.5 km/h Distance 1.41 km</desc>
<time>2010-10-24T10:40:39.13</time>
<name>878</name>
</trkpt>
<trkpt lat="48.949780" lon="8.653173">
<ele>272.5</ele>
<speed>0.37</speed>
<course>307.0</course>
<desc>Speed 1.3 km/h Distance 1.44 km</desc>
<time>2010-10-24T10:40:43.20</time>
<name>879</name>
</trkpt>
<trkpt lat="48.949783" lon="8.653167">
<ele>271.5</ele>
<speed>0.44</speed>
<course>291.0</course>
<desc>Speed 1.6 km/h Distance 1.44 km</desc>
<time>2010-10-24T10:40:44.20</time>
<name>880</name>
</trkpt>
<trkpt lat="48.949832" lon="8.652975">
<ele>287.5</ele>
<speed>0.30</speed>
<course>331.3</course>
<desc>Speed 1.1 km/h Distance 1.46 km</desc>
<time>2010-10-24T10:40:47.20</time>
<name>881</name>
</trkpt>
<trkpt lat="48.949872" lon="8.652942">
<ele>289.5</ele>
<speed>0.77</speed>
<course>307.3</course>
<desc>Speed 2.8 km/h Distance 1.46 km</desc>
<time>2010-10-24T10:40:49.20</time>
<name>882</name>
</trkpt>
<trkpt lat="48.949887" lon="8.652912">
<ele>291.0</ele>
<speed>0.70</speed>
<course>330.2</course>
<desc>Speed 2.5 km/h Distance 1.47 km</desc>
<time>2010-10-24T10:40:50.20</time>
<name>883</name>
</trkpt>
<trkpt lat="48.949900" lon="8.652900">
<ele>291.0</ele>
<speed>0.46</speed>
<course>347.4</course>
<desc>Speed 1.7 km/h Distance 1.47 km</desc>
<time>2010-10-24T10:40:51.20</time>
<name>884</name>
</trkpt>
<trkpt lat="48.949910" lon="8.652897">
<ele>289.5</ele>
<speed>0.55</speed>
<course>338.5</course>
<desc>Speed 2.0 km/h Distance 1.47 km</desc>
<time>2010-10-24T10:40:52.20</time>
<name>885</name>
</trkpt>
<trkpt lat="48.949918" lon="8.652892">
<ele>288.5</ele>
<speed>0.81</speed>
<course>333.6</course>
<desc>Speed 2.9 km/h Distance 1.47 km</desc>
<time>2010-10-24T10:40:53.20</time>
<name>886</name>
</trkpt>
<trkpt lat="48.949925" lon="8.652887">
<ele>286.5</ele>
<speed>0.46</speed>
<course>322.5</course>
<desc>Speed 1.7 km/h Distance 1.47 km</desc>
<time>2010-10-24T10:40:54.20</time>
<name>887</name>
</trkpt>
<trkpt lat="48.949935" lon="8.652875">
<ele>286.0</ele>
<speed>0.80</speed>
<course>294.6</course>
<desc>Speed 2.9 km/h Distance 1.47 km</desc>
<time>2010-10-24T10:40:55.20</time>
<name>888</name>
</trkpt>
<trkpt lat="48.949940" lon="8.652858">
<ele>285.5</ele>
<speed>0.52</speed>
<course>305.7</course>
<desc>Speed 1.9 km/h Distance 1.47 km</desc>
<time>2010-10-24T10:40:56.20</time>
<name>889</name>
</trkpt>
<trkpt lat="48.949968" lon="8.652798">
<ele>286.5</ele>
<speed>0.81</speed>
<course>302.6</course>
<desc>Speed 2.9 km/h Distance 1.48 km</desc>
<time>2010-10-24T10:40:58.20</time>
<name>890</name>
</trkpt>
<trkpt lat="48.949982" lon="8.652767">
<ele>287.0</ele>
<speed>0.77</speed>
<course>277.4</course>
<desc>Speed 2.8 km/h Distance 1.48 km</desc>
<time>2010-10-24T10:40:59.20</time>
<name>891</name>
</trkpt>
<trkpt lat="48.949990" lon="8.652668">
<ele>295.0</ele>
<speed>0.52</speed>
<course>283.2</course>
<desc>Speed 1.9 km/h Distance 1.49 km</desc>
<time>2010-10-24T10:41:01.20</time>
<name>892</name>
</trkpt>
<trkpt lat="48.949993" lon="8.652647">
<ele>296.0</ele>
<speed>0.61</speed>
<course>290.8</course>
<desc>Speed 2.2 km/h Distance 1.49 km</desc>
<time>2010-10-24T10:41:02.20</time>
<name>893</name>
</trkpt>
<trkpt lat="48.950000" lon="8.652620">
<ele>297.0</ele>
<speed>0.58</speed>
<course>292.9</course>
<desc>Speed 2.1 km/h Distance 1.49 km</desc>
<time>2010-10-24T10:41:03.20</time>
<name>894</name>
</trkpt>
<trkpt lat="48.950008" lon="8.652590">
<ele>298.5</ele>
<speed>0.49</speed>
<course>307.4</course>
<desc>Speed 1.8 km/h Distance 1.50 km</desc>
<time>2010-10-24T10:41:04.20</time>
<name>895</name>
</trkpt>
<trkpt lat="48.950013" lon="8.652580">
<ele>298.5</ele>
<speed>0.51</speed>
<course>297.0</course>
<desc>Speed 1.8 km/h Distance 1.50 km</desc>
<time>2010-10-24T10:41:05.20</time>
<name>896</name>
</trkpt>
<trkpt lat="48.950017" lon="8.652570">
<ele>298.0</ele>
<speed>0.50</speed>
<course>299.8</course>
<desc>Speed 1.8 km/h Distance 1.50 km</desc>
<time>2010-10-24T10:41:06.20</time>
<name>897</name>
</trkpt>
<trkpt lat="48.950022" lon="8.652557">
<ele>297.5</ele>
<speed>0.41</speed>
<course>307.2</course>
<desc>Speed 1.5 km/h Distance 1.50 km</desc>
<time>2010-10-24T10:41:07.20</time>
<name>898</name>
</trkpt>
<trkpt lat="48.950027" lon="8.652547">
<ele>298.0</ele>
<speed>0.34</speed>
<course>339.4</course>
<desc>Speed 1.2 km/h Distance 1.50 km</desc>
<time>2010-10-24T10:41:08.20</time>
<name>899</name>
</trkpt>
<trkpt lat="48.950038" lon="8.652540">
<ele>298.5</ele>
<speed>0.47</speed>
<course>317.4</course>
<desc>Speed 1.7 km/h Distance 1.50 km</desc>
<time>2010-10-24T10:41:09.20</time>
<name>900</name>
</trkpt>
<trkpt lat="48.950047" lon="8.652528">
<ele>299.5</ele>
<speed>0.30</speed>
<course>307.3</course>
<desc>Speed 1.1 km/h Distance 1.50 km</desc>
<time>2010-10-24T10:41:10.20</time>
<name>901</name>
</trkpt>
<trkpt lat="48.950053" lon="8.652515">
<ele>299.0</ele>
<speed>0.47</speed>
<course>312.4</course>
<desc>Speed 1.7 km/h Distance 1.50 km</desc>
<time>2010-10-24T10:41:11.20</time>
<name>902</name>
</trkpt>
<trkpt lat="48.950063" lon="8.652498">
<ele>299.5</ele>
<speed>0.49</speed>
<course>305.0</course>
<desc>Speed 1.8 km/h Distance 1.50 km</desc>
<time>2010-10-24T10:41:12.20</time>
<name>903</name>
</trkpt>
<trkpt lat="48.950073" lon="8.652477">
<ele>300.0</ele>
<speed>0.49</speed>
<course>319.6</course>
<desc>Speed 1.8 km/h Distance 1.51 km</desc>
<time>2010-10-24T10:41:13.20</time>
<name>904</name>
</trkpt>
<trkpt lat="48.950090" lon="8.652455">
<ele>301.0</ele>
<speed>0.56</speed>
<course>336.3</course>
<desc>Speed 2.0 km/h Distance 1.51 km</desc>
<time>2010-10-24T10:41:14.20</time>
<name>905</name>
</trkpt>
<trkpt lat="48.950105" lon="8.652445">
<ele>302.0</ele>
<speed>0.51</speed>
<course>329.1</course>
<desc>Speed 1.8 km/h Distance 1.51 km</desc>
<time>2010-10-24T10:41:15.20</time>
<name>906</name>
</trkpt>
<trkpt lat="48.950123" lon="8.652428">
<ele>303.5</ele>
<speed>0.56</speed>
<course>303.7</course>
<desc>Speed 2.0 km/h Distance 1.51 km</desc>
<time>2010-10-24T10:41:16.20</time>
<name>907</name>
</trkpt>
<trkpt lat="48.950135" lon="8.652402">
<ele>303.0</ele>
<speed>0.57</speed>
<course>334.2</course>
<desc>Speed 2.1 km/h Distance 1.52 km</desc>
<time>2010-10-24T10:41:17.20</time>
<name>908</name>
</trkpt>
<trkpt lat="48.950167" lon="8.652378">
<ele>301.5</ele>
<speed>0.62</speed>
<course>11.2</course>
<desc>Speed 2.2 km/h Distance 1.52 km</desc>
<time>2010-10-24T10:41:19.20</time>
<name>909</name>
</trkpt>
<trkpt lat="48.950178" lon="8.652382">
<ele>300.0</ele>
<speed>0.51</speed>
<course>356.8</course>
<desc>Speed 1.8 km/h Distance 1.52 km</desc>
<time>2010-10-24T10:41:20.20</time>
<name>910</name>
</trkpt>
<trkpt lat="48.950200" lon="8.652380">
<ele>298.5</ele>
<speed>0.43</speed>
<course>317.9</course>
<desc>Speed 1.5 km/h Distance 1.52 km</desc>
<time>2010-10-24T10:41:23.20</time>
<name>911</name>
</trkpt>
<trkpt lat="48.950253" lon="8.652307">
<ele>305.5</ele>
<speed>1.00</speed>
<course>285.4</course>
<desc>Speed 3.6 km/h Distance 1.53 km</desc>
<time>2010-10-24T10:41:32.20</time>
<name>912</name>
</trkpt>
<trkpt lat="48.950257" lon="8.652288">
<ele>305.5</ele>
<speed>1.01</speed>
<course>323.4</course>
<desc>Speed 3.6 km/h Distance 1.53 km</desc>
<time>2010-10-24T10:41:33.20</time>
<name>913</name>
</trkpt>
<trkpt lat="48.950270" lon="8.652273">
<ele>306.5</ele>
<speed>0.70</speed>
<course>326.7</course>
<desc>Speed 2.5 km/h Distance 1.53 km</desc>
<time>2010-10-24T10:41:34.20</time>
<name>914</name>
</trkpt>
<trkpt lat="48.950305" lon="8.652238">
<ele>307.5</ele>
<speed>1.40</speed>
<course>344.0</course>
<desc>Speed 5.0 km/h Distance 1.54 km</desc>
<time>2010-10-24T10:41:36.20</time>
<name>915</name>
</trkpt>
<trkpt lat="48.950320" lon="8.652232">
<ele>308.0</ele>
<speed>0.62</speed>
<course>321.0</course>
<desc>Speed 2.2 km/h Distance 1.54 km</desc>
<time>2010-10-24T10:41:37.29</time>
<name>916</name>
</trkpt>
<trkpt lat="48.950327" lon="8.652223">
<ele>308.5</ele>
<speed>0.57</speed>
<course>307.2</course>
<desc>Speed 2.1 km/h Distance 1.54 km</desc>
<time>2010-10-24T10:41:38.22</time>
<name>917</name>
</trkpt>
<trkpt lat="48.950332" lon="8.652213">
<ele>308.5</ele>
<speed>0.77</speed>
<course>233.0</course>
<desc>Speed 2.8 km/h Distance 1.54 km</desc>
<time>2010-10-24T10:41:39.22</time>
<name>918</name>
</trkpt>
<trkpt lat="48.950328" lon="8.652207">
<ele>309.0</ele>
<speed>0.37</speed>
<course>288.7</course>
<desc>Speed 1.3 km/h Distance 1.54 km</desc>
<time>2010-10-24T10:41:40.22</time>
<name>919</name>
</trkpt>
<trkpt lat="48.950335" lon="8.652177">
<ele>311.0</ele>
<speed>0.41</speed>
<course>335.2</course>
<desc>Speed 1.5 km/h Distance 1.55 km</desc>
<time>2010-10-24T10:41:41.22</time>
<name>920</name>
</trkpt>
<trkpt lat="48.950342" lon="8.652172">
<ele>311.5</ele>
<speed>0.41</speed>
<course>312.2</course>
<desc>Speed 1.5 km/h Distance 1.55 km</desc>
<time>2010-10-24T10:41:42.22</time>
<name>921</name>
</trkpt>
<trkpt lat="48.950347" lon="8.652163">
<ele>311.5</ele>
<speed>0.70</speed>
<course>104.4</course>
<desc>Speed 2.5 km/h Distance 1.55 km</desc>
<time>2010-10-24T10:41:43.22</time>
<name>922</name>
</trkpt>
<trkpt lat="48.950345" lon="8.652173">
<ele>310.0</ele>
<speed>0.86</speed>
<course>270.0</course>
<desc>Speed 3.1 km/h Distance 1.55 km</desc>
<time>2010-10-24T10:41:44.22</time>
<name>923</name>
</trkpt>
<trkpt lat="48.950345" lon="8.652170">
<ele>310.0</ele>
<speed>0.31</speed>
<course>284.8</course>
<desc>Speed 1.1 km/h Distance 1.55 km</desc>
<time>2010-10-24T10:41:46.22</time>
<name>924</name>
</trkpt>
<trkpt lat="48.950352" lon="8.652132">
<ele>313.0</ele>
<speed>0.34</speed>
<course>287.1</course>
<desc>Speed 1.2 km/h Distance 1.55 km</desc>
<time>2010-10-24T10:41:51.22</time>
<name>925</name>
</trkpt>
<trkpt lat="48.950353" lon="8.652123">
<ele>313.5</ele>
<speed>0.41</speed>
<course>319.1</course>
<desc>Speed 1.5 km/h Distance 1.55 km</desc>
<time>2010-10-24T10:41:52.22</time>
<name>926</name>
</trkpt>
<trkpt lat="48.950358" lon="8.652117">
<ele>313.0</ele>
<speed>0.73</speed>
<course>319.1</course>
<desc>Speed 2.6 km/h Distance 1.55 km</desc>
<time>2010-10-24T10:41:53.22</time>
<name>927</name>
</trkpt>
<trkpt lat="48.950363" lon="8.652110">
<ele>312.0</ele>
<speed>0.56</speed>
<course>326.8</course>
<desc>Speed 2.0 km/h Distance 1.55 km</desc>
<time>2010-10-24T10:41:54.22</time>
<name>928</name>
</trkpt>
<trkpt lat="48.950368" lon="8.652105">
<ele>312.0</ele>
<speed>0.76</speed>
<course>338.0</course>
<desc>Speed 2.7 km/h Distance 1.55 km</desc>
<time>2010-10-24T10:41:55.22</time>
<name>929</name>
</trkpt>
<trkpt lat="48.950412" lon="8.652078">
<ele>313.0</ele>
<speed>1.21</speed>
<course>346.6</course>
<desc>Speed 4.4 km/h Distance 1.56 km</desc>
<time>2010-10-24T10:41:56.74</time>
<name>930</name>
</trkpt>
<trkpt lat="48.950490" lon="8.652050">
<ele>305.0</ele>
<speed>1.01</speed>
<course>336.6</course>
<desc>Speed 3.6 km/h Distance 1.57 km</desc>
<time>2010-10-24T10:41:58.73</time>
<name>931</name>
</trkpt>
<trkpt lat="48.950500" lon="8.652043">
<ele>305.0</ele>
<speed>0.99</speed>
<course>335.5</course>
<desc>Speed 3.6 km/h Distance 1.57 km</desc>
<time>2010-10-24T10:41:59.72</time>
<name>932</name>
</trkpt>
<trkpt lat="48.950517" lon="8.652032">
<ele>304.0</ele>
<speed>0.99</speed>
<course>301.3</course>
<desc>Speed 3.6 km/h Distance 1.57 km</desc>
<time>2010-10-24T10:42:00.72</time>
<name>933</name>
</trkpt>
<trkpt lat="48.950523" lon="8.652015">
<ele>303.5</ele>
<speed>0.81</speed>
<course>332.1</course>
<desc>Speed 2.9 km/h Distance 1.57 km</desc>
<time>2010-10-24T10:42:01.72</time>
<name>934</name>
</trkpt>
<trkpt lat="48.950532" lon="8.652008">
<ele>303.0</ele>
<speed>0.86</speed>
<course>307.0</course>
<desc>Speed 3.1 km/h Distance 1.57 km</desc>
<time>2010-10-24T10:42:02.71</time>
<name>935</name>
</trkpt>
<trkpt lat="48.950535" lon="8.652002">
<ele>302.5</ele>
<speed>0.40</speed>
<course>348.8</course>
<desc>Speed 1.4 km/h Distance 1.57 km</desc>
<time>2010-10-24T10:42:03.71</time>
<name>936</name>
</trkpt>
<trkpt lat="48.950547" lon="8.651998">
<ele>302.0</ele>
<speed>0.57</speed>
<course>337.7</course>
<desc>Speed 2.1 km/h Distance 1.58 km</desc>
<time>2010-10-24T10:42:04.71</time>
<name>937</name>
</trkpt>
<trkpt lat="48.950560" lon="8.651990">
<ele>302.0</ele>
<speed>0.99</speed>
<course>348.8</course>
<desc>Speed 3.6 km/h Distance 1.58 km</desc>
<time>2010-10-24T10:42:05.70</time>
<name>938</name>
</trkpt>
<trkpt lat="48.950572" lon="8.651987">
<ele>302.0</ele>
<speed>0.83</speed>
<course>326.6</course>
<desc>Speed 3.0 km/h Distance 1.58 km</desc>
<time>2010-10-24T10:42:06.70</time>
<name>939</name>
</trkpt>
<trkpt lat="48.950583" lon="8.651975">
<ele>300.5</ele>
<speed>1.25</speed>
<course>336.6</course>
<desc>Speed 4.5 km/h Distance 1.58 km</desc>
<time>2010-10-24T10:42:07.69</time>
<name>940</name>
</trkpt>
<trkpt lat="48.950593" lon="8.651968">
<ele>300.5</ele>
<speed>0.93</speed>
<course>330.6</course>
<desc>Speed 3.3 km/h Distance 1.58 km</desc>
<time>2010-10-24T10:42:08.69</time>
<name>941</name>
</trkpt>
<trkpt lat="48.950605" lon="8.651958">
<ele>300.0</ele>
<speed>0.69</speed>
<course>319.1</course>
<desc>Speed 2.5 km/h Distance 1.58 km</desc>
<time>2010-10-24T10:42:09.69</time>
<name>942</name>
</trkpt>
<trkpt lat="48.950610" lon="8.651952">
<ele>299.5</ele>
<speed>0.44</speed>
<course>355.3</course>
<desc>Speed 1.6 km/h Distance 1.58 km</desc>
<time>2010-10-24T10:42:10.69</time>
<name>943</name>
</trkpt>
<trkpt lat="48.950622" lon="8.651950">
<ele>298.5</ele>
<speed>0.85</speed>
<course>347.8</course>
<desc>Speed 3.1 km/h Distance 1.59 km</desc>
<time>2010-10-24T10:42:11.68</time>
<name>944</name>
</trkpt>
<trkpt lat="48.950637" lon="8.651945">
<ele>296.5</ele>
<speed>0.56</speed>
<course>345.1</course>
<desc>Speed 2.0 km/h Distance 1.59 km</desc>
<time>2010-10-24T10:42:12.68</time>
<name>945</name>
</trkpt>
<trkpt lat="48.950645" lon="8.651942">
<ele>295.5</ele>
<speed>0.57</speed>
<course>336.2</course>
<desc>Speed 2.1 km/h Distance 1.59 km</desc>
<time>2010-10-24T10:42:13.67</time>
<name>946</name>
</trkpt>
<trkpt lat="48.950655" lon="8.651935">
<ele>295.0</ele>
<speed>1.03</speed>
<course>326.8</course>
<desc>Speed 3.7 km/h Distance 1.59 km</desc>
<time>2010-10-24T10:42:14.67</time>
<name>947</name>
</trkpt>
<trkpt lat="48.950660" lon="8.651930">
<ele>294.5</ele>
<speed>0.68</speed>
<course>277.2</course>
<desc>Speed 2.4 km/h Distance 1.59 km</desc>
<time>2010-10-24T10:42:15.66</time>
<name>948</name>
</trkpt>
<trkpt lat="48.950663" lon="8.651890">
<ele>298.0</ele>
<speed>0.73</speed>
<course>292.5</course>
<desc>Speed 2.6 km/h Distance 1.59 km</desc>
<time>2010-10-24T10:42:18.66</time>
<name>949</name>
</trkpt>
<trkpt lat="48.950668" lon="8.651872">
<ele>298.5</ele>
<speed>0.92</speed>
<course>338.5</course>
<desc>Speed 3.3 km/h Distance 1.59 km</desc>
<time>2010-10-24T10:42:19.65</time>
<name>950</name>
</trkpt>
<trkpt lat="48.950677" lon="8.651867">
<ele>298.5</ele>
<speed>1.02</speed>
<course>338.5</course>
<desc>Speed 3.7 km/h Distance 1.59 km</desc>
<time>2010-10-24T10:42:20.65</time>
<name>951</name>
</trkpt>
<trkpt lat="48.950685" lon="8.651862">
<ele>298.0</ele>
<speed>0.94</speed>
<course>1.2</course>
<desc>Speed 3.4 km/h Distance 1.60 km</desc>
<time>2010-10-24T10:42:21.65</time>
<name>952</name>
</trkpt>
<trkpt lat="48.950692" lon="8.651862">
<ele>297.0</ele>
<speed>0.61</speed>
<course>341.2</course>
<desc>Speed 2.2 km/h Distance 1.60 km</desc>
<time>2010-10-24T10:42:22.64</time>
<name>953</name>
</trkpt>
<trkpt lat="48.950698" lon="8.651858">
<ele>296.5</ele>
<speed>0.62</speed>
<course>339.1</course>
<desc>Speed 2.2 km/h Distance 1.60 km</desc>
<time>2010-10-24T10:42:23.63</time>
<name>954</name>
</trkpt>
<trkpt lat="48.950710" lon="8.651852">
<ele>296.0</ele>
<speed>0.76</speed>
<course>351.2</course>
<desc>Speed 2.7 km/h Distance 1.60 km</desc>
<time>2010-10-24T10:42:24.63</time>
<name>955</name>
</trkpt>
<trkpt lat="48.950725" lon="8.651848">
<ele>296.0</ele>
<speed>1.04</speed>
<course>354.7</course>
<desc>Speed 3.7 km/h Distance 1.60 km</desc>
<time>2010-10-24T10:42:25.63</time>
<name>956</name>
</trkpt>
<trkpt lat="48.950738" lon="8.651847">
<ele>295.5</ele>
<speed>0.63</speed>
<course>345.1</course>
<desc>Speed 2.3 km/h Distance 1.60 km</desc>
<time>2010-10-24T10:42:26.63</time>
<name>957</name>
</trkpt>
<trkpt lat="48.950747" lon="8.651843">
<ele>294.5</ele>
<speed>0.91</speed>
<course>341.7</course>
<desc>Speed 3.3 km/h Distance 1.60 km</desc>
<time>2010-10-24T10:42:27.62</time>
<name>958</name>
</trkpt>
<trkpt lat="48.950767" lon="8.651833">
<ele>293.5</ele>
<speed>0.74</speed>
<course>304.9</course>
<desc>Speed 2.7 km/h Distance 1.61 km</desc>
<time>2010-10-24T10:42:28.62</time>
<name>959</name>
</trkpt>
<trkpt lat="48.950785" lon="8.651793">
<ele>294.0</ele>
<speed>0.98</speed>
<course>332.1</course>
<desc>Speed 3.5 km/h Distance 1.61 km</desc>
<time>2010-10-24T10:42:30.61</time>
<name>960</name>
</trkpt>
<trkpt lat="48.950793" lon="8.651787">
<ele>293.5</ele>
<speed>1.01</speed>
<course>336.2</course>
<desc>Speed 3.6 km/h Distance 1.61 km</desc>
<time>2010-10-24T10:42:31.61</time>
<name>961</name>
</trkpt>
<trkpt lat="48.950803" lon="8.651780">
<ele>292.5</ele>
<speed>1.01</speed>
<course>342.4</course>
<desc>Speed 3.6 km/h Distance 1.61 km</desc>
<time>2010-10-24T10:42:32.60</time>
<name>962</name>
</trkpt>
<trkpt lat="48.950813" lon="8.651775">
<ele>291.0</ele>
<speed>0.79</speed>
<course>311.0</course>
<desc>Speed 2.8 km/h Distance 1.61 km</desc>
<time>2010-10-24T10:42:33.60</time>
<name>963</name>
</trkpt>
<trkpt lat="48.950847" lon="8.651717">
<ele>293.0</ele>
<speed>1.11</speed>
<course>351.9</course>
<desc>Speed 4.0 km/h Distance 1.62 km</desc>
<time>2010-10-24T10:42:35.59</time>
<name>964</name>
</trkpt>
<trkpt lat="48.950862" lon="8.651713">
<ele>292.5</ele>
<speed>1.01</speed>
<course>347.4</course>
<desc>Speed 3.6 km/h Distance 1.62 km</desc>
<time>2010-10-24T10:42:36.59</time>
<name>965</name>
</trkpt>
<trkpt lat="48.950877" lon="8.651708">
<ele>290.5</ele>
<speed>0.75</speed>
<course>343.4</course>
<desc>Speed 2.7 km/h Distance 1.62 km</desc>
<time>2010-10-24T10:42:37.58</time>
<name>966</name>
</trkpt>
<trkpt lat="48.950895" lon="8.651700">
<ele>290.0</ele>
<speed>0.80</speed>
<course>318.1</course>
<desc>Speed 2.9 km/h Distance 1.62 km</desc>
<time>2010-10-24T10:42:38.58</time>
<name>967</name>
</trkpt>
<trkpt lat="48.950900" lon="8.651693">
<ele>289.5</ele>
<speed>0.69</speed>
<course>344.0</course>
<desc>Speed 2.5 km/h Distance 1.62 km</desc>
<time>2010-10-24T10:42:39.58</time>
<name>968</name>
</trkpt>
<trkpt lat="48.950912" lon="8.651688">
<ele>289.0</ele>
<speed>0.98</speed>
<course>337.7</course>
<desc>Speed 3.5 km/h Distance 1.63 km</desc>
<time>2010-10-24T10:42:40.58</time>
<name>969</name>
</trkpt>
<trkpt lat="48.950925" lon="8.651680">
<ele>288.5</ele>
<speed>0.99</speed>
<course>352.3</course>
<desc>Speed 3.6 km/h Distance 1.63 km</desc>
<time>2010-10-24T10:42:41.57</time>
<name>970</name>
</trkpt>
<trkpt lat="48.950933" lon="8.651678">
<ele>286.5</ele>
<speed>0.85</speed>
<course>336.2</course>
<desc>Speed 3.1 km/h Distance 1.63 km</desc>
<time>2010-10-24T10:42:42.56</time>
<name>971</name>
</trkpt>
<trkpt lat="48.950943" lon="8.651672">
<ele>285.0</ele>
<speed>0.82</speed>
<course>333.6</course>
<desc>Speed 3.0 km/h Distance 1.63 km</desc>
<time>2010-10-24T10:42:43.56</time>
<name>972</name>
</trkpt>
<trkpt lat="48.950950" lon="8.651667">
<ele>284.5</ele>
<speed>0.72</speed>
<course>326.3</course>
<desc>Speed 2.6 km/h Distance 1.63 km</desc>
<time>2010-10-24T10:42:44.55</time>
<name>973</name>
</trkpt>
<trkpt lat="48.950953" lon="8.651663">
<ele>283.5</ele>
<speed>0.40</speed>
<course>326.3</course>
<desc>Speed 1.4 km/h Distance 1.63 km</desc>
<time>2010-10-24T10:42:45.58</time>
<name>974</name>
</trkpt>
<trkpt lat="48.950953" lon="8.651663">
<ele>283.5</ele>
<speed>0.40</speed>
<course>344.0</course>
<desc>Speed 1.4 km/h Distance 1.63 km</desc>
<time>2010-10-24T10:42:46.06</time>
<name>975</name>
</trkpt>
<trkpt lat="48.950980" lon="8.651652">
<ele>283.5</ele>
<speed>0.81</speed>
<course>296.9</course>
<desc>Speed 2.9 km/h Distance 1.63 km</desc>
<time>2010-10-24T10:42:47.53</time>
<name>976</name>
</trkpt>
<trkpt lat="48.950990" lon="8.651622">
<ele>284.5</ele>
<speed>0.66</speed>
<course>337.7</course>
<desc>Speed 2.4 km/h Distance 1.64 km</desc>
<time>2010-10-24T10:42:48.53</time>
<name>977</name>
</trkpt>
<trkpt lat="48.951003" lon="8.651613">
<ele>283.5</ele>
<speed>1.10</speed>
<course>339.9</course>
<desc>Speed 4.0 km/h Distance 1.64 km</desc>
<time>2010-10-24T10:42:49.53</time>
<name>978</name>
</trkpt>
<trkpt lat="48.951018" lon="8.651605">
<ele>283.0</ele>
<speed>0.79</speed>
<course>326.8</course>
<desc>Speed 2.8 km/h Distance 1.64 km</desc>
<time>2010-10-24T10:42:50.53</time>
<name>979</name>
</trkpt>
<trkpt lat="48.951027" lon="8.651597">
<ele>281.5</ele>
<speed>0.89</speed>
<course>341.9</course>
<desc>Speed 3.2 km/h Distance 1.64 km</desc>
<time>2010-10-24T10:42:51.52</time>
<name>980</name>
</trkpt>
<trkpt lat="48.951043" lon="8.651588">
<ele>280.0</ele>
<speed>0.56</speed>
<course>343.4</course>
<desc>Speed 2.0 km/h Distance 1.64 km</desc>
<time>2010-10-24T10:42:52.52</time>
<name>981</name>
</trkpt>
<trkpt lat="48.951062" lon="8.651580">
<ele>280.0</ele>
<speed>0.91</speed>
<course>346.2</course>
<desc>Speed 3.3 km/h Distance 1.64 km</desc>
<time>2010-10-24T10:42:53.51</time>
<name>982</name>
</trkpt>
<trkpt lat="48.951070" lon="8.651577">
<ele>278.5</ele>
<speed>0.93</speed>
<course>332.5</course>
<desc>Speed 3.3 km/h Distance 1.65 km</desc>
<time>2010-10-24T10:42:54.50</time>
<name>983</name>
</trkpt>
<trkpt lat="48.951078" lon="8.651570">
<ele>278.0</ele>
<speed>0.88</speed>
<course>338.5</course>
<desc>Speed 3.2 km/h Distance 1.65 km</desc>
<time>2010-10-24T10:42:55.50</time>
<name>984</name>
</trkpt>
<trkpt lat="48.951087" lon="8.651565">
<ele>277.5</ele>
<speed>0.80</speed>
<course>341.8</course>
<desc>Speed 2.9 km/h Distance 1.65 km</desc>
<time>2010-10-24T10:42:56.50</time>
<name>985</name>
</trkpt>
<trkpt lat="48.951097" lon="8.651560">
<ele>277.0</ele>
<speed>0.86</speed>
<course>332.3</course>
<desc>Speed 3.1 km/h Distance 1.65 km</desc>
<time>2010-10-24T10:42:57.50</time>
<name>986</name>
</trkpt>
<trkpt lat="48.951113" lon="8.651547">
<ele>276.5</ele>
<speed>0.99</speed>
<course>332.3</course>
<desc>Speed 3.6 km/h Distance 1.65 km</desc>
<time>2010-10-24T10:42:58.50</time>
<name>987</name>
</trkpt>
<trkpt lat="48.951130" lon="8.651533">
<ele>276.5</ele>
<speed>1.10</speed>
<course>323.5</course>
<desc>Speed 4.0 km/h Distance 1.65 km</desc>
<time>2010-10-24T10:42:59.73</time>
<name>988</name>
</trkpt>
<trkpt lat="48.951143" lon="8.651518">
<ele>276.0</ele>
<speed>1.15</speed>
<course>337.9</course>
<desc>Speed 4.1 km/h Distance 1.65 km</desc>
<time>2010-10-24T10:43:00.49</time>
<name>989</name>
</trkpt>
<trkpt lat="48.951157" lon="8.651510">
<ele>275.0</ele>
<speed>1.07</speed>
<course>315.4</course>
<desc>Speed 3.9 km/h Distance 1.66 km</desc>
<time>2010-10-24T10:43:01.49</time>
<name>990</name>
</trkpt>
<trkpt lat="48.951167" lon="8.651495">
<ele>274.5</ele>
<speed>0.86</speed>
<course>332.1</course>
<desc>Speed 3.1 km/h Distance 1.66 km</desc>
<time>2010-10-24T10:43:02.48</time>
<name>991</name>
</trkpt>
<trkpt lat="48.951175" lon="8.651488">
<ele>273.5</ele>
<speed>0.79</speed>
<course>331.4</course>
<desc>Speed 2.8 km/h Distance 1.66 km</desc>
<time>2010-10-24T10:43:03.47</time>
<name>992</name>
</trkpt>
<trkpt lat="48.951185" lon="8.651480">
<ele>273.5</ele>
<speed>1.00</speed>
<course>326.5</course>
<desc>Speed 3.6 km/h Distance 1.66 km</desc>
<time>2010-10-24T10:43:04.46</time>
<name>993</name>
</trkpt>
<trkpt lat="48.951193" lon="8.651472">
<ele>274.0</ele>
<speed>0.86</speed>
<course>337.8</course>
<desc>Speed 3.1 km/h Distance 1.66 km</desc>
<time>2010-10-24T10:43:05.45</time>
<name>994</name>
</trkpt>
<trkpt lat="48.951198" lon="8.651468">
<ele>273.5</ele>
<speed>0.40</speed>
<course>347.4</course>
<desc>Speed 1.4 km/h Distance 1.66 km</desc>
<time>2010-10-24T10:43:06.44</time>
<name>995</name>
</trkpt>
<trkpt lat="48.951203" lon="8.651467">
<ele>274.0</ele>
<speed>0.49</speed>
<course>347.4</course>
<desc>Speed 1.8 km/h Distance 1.66 km</desc>
<time>2010-10-24T10:43:07.44</time>
<name>996</name>
</trkpt>
<trkpt lat="48.951207" lon="8.651465">
<ele>274.0</ele>
<speed>0.33</speed>
<course>272.7</course>
<desc>Speed 1.2 km/h Distance 1.66 km</desc>
<time>2010-10-24T10:43:08.44</time>
<name>997</name>
</trkpt>
<trkpt lat="48.951212" lon="8.651305">
<ele>288.5</ele>
<speed>0.30</speed>
<course>312.9</course>
<desc>Speed 1.1 km/h Distance 1.67 km</desc>
<time>2010-10-24T10:43:33.44</time>
<name>998</name>
</trkpt>
<trkpt lat="48.951217" lon="8.651297">
<ele>288.5</ele>
<speed>0.69</speed>
<course>310.2</course>
<desc>Speed 2.5 km/h Distance 1.68 km</desc>
<time>2010-10-24T10:43:34.42</time>
<name>999</name>
</trkpt>
<trkpt lat="48.951225" lon="8.651282">
<ele>288.5</ele>
<speed>0.93</speed>
<course>338.5</course>
<desc>Speed 3.3 km/h Distance 1.68 km</desc>
<time>2010-10-24T10:43:35.42</time>
<name>1000</name>
</trkpt>
<trkpt lat="48.951233" lon="8.651277">
<ele>288.0</ele>
<speed>0.63</speed>
<course>333.6</course>
<desc>Speed 2.3 km/h Distance 1.68 km</desc>
<time>2010-10-24T10:43:36.41</time>
<name>1001</name>
</trkpt>
<trkpt lat="48.951240" lon="8.651272">
<ele>287.5</ele>
<speed>0.72</speed>
<course>357.2</course>
<desc>Speed 2.6 km/h Distance 1.68 km</desc>
<time>2010-10-24T10:43:37.40</time>
<name>1002</name>
</trkpt>
<trkpt lat="48.951257" lon="8.651270">
<ele>287.5</ele>
<speed>0.80</speed>
<course>318.1</course>
<desc>Speed 2.9 km/h Distance 1.68 km</desc>
<time>2010-10-24T10:43:38.39</time>
<name>1003</name>
</trkpt>
<trkpt lat="48.951262" lon="8.651263">
<ele>287.0</ele>
<speed>0.69</speed>
<course>342.5</course>
<desc>Speed 2.5 km/h Distance 1.68 km</desc>
<time>2010-10-24T10:43:39.39</time>
<name>1004</name>
</trkpt>
<trkpt lat="48.951268" lon="8.651260">
<ele>286.0</ele>
<speed>0.79</speed>
<course>344.0</course>
<desc>Speed 2.8 km/h Distance 1.68 km</desc>
<time>2010-10-24T10:43:40.39</time>
<name>1005</name>
</trkpt>
<trkpt lat="48.951283" lon="8.651253">
<ele>286.5</ele>
<speed>0.79</speed>
<course>334.8</course>
<desc>Speed 2.8 km/h Distance 1.68 km</desc>
<time>2010-10-24T10:43:41.39</time>
<name>1006</name>
</trkpt>
<trkpt lat="48.951295" lon="8.651245">
<ele>286.5</ele>
<speed>0.93</speed>
<course>304.1</course>
<desc>Speed 3.3 km/h Distance 1.69 km</desc>
<time>2010-10-24T10:43:42.39</time>
<name>1007</name>
</trkpt>
<trkpt lat="48.951302" lon="8.651230">
<ele>286.0</ele>
<speed>0.79</speed>
<course>343.7</course>
<desc>Speed 2.8 km/h Distance 1.69 km</desc>
<time>2010-10-24T10:43:43.39</time>
<name>1008</name>
</trkpt>
<trkpt lat="48.951317" lon="8.651223">
<ele>286.5</ele>
<speed>1.00</speed>
<course>279.6</course>
<desc>Speed 3.6 km/h Distance 1.69 km</desc>
<time>2010-10-24T10:43:44.38</time>
<name>1009</name>
</trkpt>
<trkpt lat="48.951320" lon="8.651193">
<ele>286.5</ele>
<speed>0.69</speed>
<course>341.8</course>
<desc>Speed 2.5 km/h Distance 1.69 km</desc>
<time>2010-10-24T10:43:45.37</time>
<name>1010</name>
</trkpt>
<trkpt lat="48.951330" lon="8.651188">
<ele>286.0</ele>
<speed>0.85</speed>
<course>312.2</course>
<desc>Speed 3.1 km/h Distance 1.69 km</desc>
<time>2010-10-24T10:43:46.36</time>
<name>1011</name>
</trkpt>
<trkpt lat="48.951335" lon="8.651180">
<ele>285.0</ele>
<speed>0.68</speed>
<course>321.9</course>
<desc>Speed 2.4 km/h Distance 1.69 km</desc>
<time>2010-10-24T10:43:47.36</time>
<name>1012</name>
</trkpt>
<trkpt lat="48.951343" lon="8.651170">
<ele>285.0</ele>
<speed>0.57</speed>
<course>346.2</course>
<desc>Speed 2.1 km/h Distance 1.69 km</desc>
<time>2010-10-24T10:43:48.36</time>
<name>1013</name>
</trkpt>
<trkpt lat="48.951352" lon="8.651167">
<ele>284.5</ele>
<speed>0.81</speed>
<course>326.8</course>
<desc>Speed 2.9 km/h Distance 1.69 km</desc>
<time>2010-10-24T10:43:49.35</time>
<name>1014</name>
</trkpt>
<trkpt lat="48.951360" lon="8.651158">
<ele>284.5</ele>
<speed>0.92</speed>
<course>312.6</course>
<desc>Speed 3.3 km/h Distance 1.70 km</desc>
<time>2010-10-24T10:43:50.35</time>
<name>1015</name>
</trkpt>
<trkpt lat="48.951365" lon="8.651150">
<ele>283.5</ele>
<speed>0.75</speed>
<course>334.4</course>
<desc>Speed 2.7 km/h Distance 1.70 km</desc>
<time>2010-10-24T10:43:51.35</time>
<name>1016</name>
</trkpt>
<trkpt lat="48.951372" lon="8.651145">
<ele>282.5</ele>
<speed>0.69</speed>
<course>329.2</course>
<desc>Speed 2.5 km/h Distance 1.70 km</desc>
<time>2010-10-24T10:43:52.34</time>
<name>1017</name>
</trkpt>
<trkpt lat="48.951390" lon="8.651128">
<ele>283.0</ele>
<speed>0.62</speed>
<course>318.1</course>
<desc>Speed 2.2 km/h Distance 1.70 km</desc>
<time>2010-10-24T10:43:53.34</time>
<name>1018</name>
</trkpt>
<trkpt lat="48.951395" lon="8.651122">
<ele>283.0</ele>
<speed>0.62</speed>
<course>326.3</course>
<desc>Speed 2.2 km/h Distance 1.70 km</desc>
<time>2010-10-24T10:43:54.33</time>
<name>1019</name>
</trkpt>
<trkpt lat="48.951402" lon="8.651115">
<ele>283.0</ele>
<speed>0.85</speed>
<course>334.6</course>
<desc>Speed 3.1 km/h Distance 1.70 km</desc>
<time>2010-10-24T10:43:55.32</time>
<name>1020</name>
</trkpt>
<trkpt lat="48.951407" lon="8.651112">
<ele>282.0</ele>
<speed>0.58</speed>
<course>304.7</course>
<desc>Speed 2.1 km/h Distance 1.70 km</desc>
<time>2010-10-24T10:43:56.32</time>
<name>1021</name>
</trkpt>
<trkpt lat="48.951432" lon="8.651057">
<ele>284.0</ele>
<speed>0.79</speed>
<course>344.7</course>
<desc>Speed 2.8 km/h Distance 1.71 km</desc>
<time>2010-10-24T10:43:58.32</time>
<name>1022</name>
</trkpt>
<trkpt lat="48.951452" lon="8.651048">
<ele>283.5</ele>
<speed>0.95</speed>
<course>344.7</course>
<desc>Speed 3.4 km/h Distance 1.71 km</desc>
<time>2010-10-24T10:43:59.37</time>
<name>1023</name>
</trkpt>
<trkpt lat="48.951452" lon="8.651048">
<ele>283.5</ele>
<speed>0.95</speed>
<course>347.6</course>
<desc>Speed 3.4 km/h Distance 1.71 km</desc>
<time>2010-10-24T10:43:59.86</time>
<name>1024</name>
</trkpt>
<trkpt lat="48.951482" lon="8.651038">
<ele>282.0</ele>
<speed>1.20</speed>
<course>338.5</course>
<desc>Speed 4.3 km/h Distance 1.71 km</desc>
<time>2010-10-24T10:44:01.30</time>
<name>1025</name>
</trkpt>
<trkpt lat="48.951490" lon="8.651033">
<ele>281.0</ele>
<speed>0.74</speed>
<course>331.4</course>
<desc>Speed 2.7 km/h Distance 1.71 km</desc>
<time>2010-10-24T10:44:02.33</time>
<name>1026</name>
</trkpt>
<trkpt lat="48.951500" lon="8.651025">
<ele>281.0</ele>
<speed>0.72</speed>
<course>304.6</course>
<desc>Speed 2.6 km/h Distance 1.72 km</desc>
<time>2010-10-24T10:44:03.30</time>
<name>1027</name>
</trkpt>
<trkpt lat="48.951508" lon="8.651007">
<ele>281.5</ele>
<speed>0.87</speed>
<course>326.6</course>
<desc>Speed 3.1 km/h Distance 1.72 km</desc>
<time>2010-10-24T10:44:04.30</time>
<name>1028</name>
</trkpt>
<trkpt lat="48.951520" lon="8.650995">
<ele>281.5</ele>
<speed>0.67</speed>
<course>326.6</course>
<desc>Speed 2.4 km/h Distance 1.72 km</desc>
<time>2010-10-24T10:44:05.33</time>
<name>1029</name>
</trkpt>
<trkpt lat="48.951533" lon="8.650982">
<ele>282.5</ele>
<speed>0.67</speed>
<course>315.4</course>
<desc>Speed 2.4 km/h Distance 1.72 km</desc>
<time>2010-10-24T10:44:06.29</time>
<name>1030</name>
</trkpt>
<trkpt lat="48.951543" lon="8.650967">
<ele>283.0</ele>
<speed>0.98</speed>
<course>310.2</course>
<desc>Speed 3.5 km/h Distance 1.72 km</desc>
<time>2010-10-24T10:44:07.29</time>
<name>1031</name>
</trkpt>
<trkpt lat="48.951552" lon="8.650952">
<ele>282.5</ele>
<speed>1.04</speed>
<course>307.3</course>
<desc>Speed 3.7 km/h Distance 1.72 km</desc>
<time>2010-10-24T10:44:08.31</time>
<name>1032</name>
</trkpt>
<trkpt lat="48.951560" lon="8.650935">
<ele>283.0</ele>
<speed>0.99</speed>
<course>345.4</course>
<desc>Speed 3.6 km/h Distance 1.72 km</desc>
<time>2010-10-24T10:44:09.27</time>
<name>1033</name>
</trkpt>
<trkpt lat="48.951577" lon="8.650928">
<ele>282.0</ele>
<speed>1.03</speed>
<course>326.8</course>
<desc>Speed 3.7 km/h Distance 1.73 km</desc>
<time>2010-10-24T10:44:10.27</time>
<name>1034</name>
</trkpt>
<trkpt lat="48.951583" lon="8.650922">
<ele>281.5</ele>
<speed>0.80</speed>
<course>318.6</course>
<desc>Speed 2.9 km/h Distance 1.73 km</desc>
<time>2010-10-24T10:44:11.30</time>
<name>1035</name>
</trkpt>
<trkpt lat="48.951588" lon="8.650915">
<ele>280.5</ele>
<speed>0.66</speed>
<course>286.9</course>
<desc>Speed 2.4 km/h Distance 1.73 km</desc>
<time>2010-10-24T10:44:12.26</time>
<name>1036</name>
</trkpt>
<trkpt lat="48.951592" lon="8.650898">
<ele>279.5</ele>
<speed>0.83</speed>
<course>326.8</course>
<desc>Speed 3.0 km/h Distance 1.73 km</desc>
<time>2010-10-24T10:44:13.26</time>
<name>1037</name>
</trkpt>
<trkpt lat="48.951600" lon="8.650890">
<ele>278.5</ele>
<speed>0.87</speed>
<course>339.2</course>
<desc>Speed 3.1 km/h Distance 1.73 km</desc>
<time>2010-10-24T10:44:14.26</time>
<name>1038</name>
</trkpt>
<trkpt lat="48.951608" lon="8.650885">
<ele>277.5</ele>
<speed>0.88</speed>
<course>339.1</course>
<desc>Speed 3.2 km/h Distance 1.73 km</desc>
<time>2010-10-24T10:44:15.26</time>
<name>1039</name>
</trkpt>
<trkpt lat="48.951620" lon="8.650878">
<ele>276.5</ele>
<speed>0.88</speed>
<course>330.6</course>
<desc>Speed 3.2 km/h Distance 1.73 km</desc>
<time>2010-10-24T10:44:16.29</time>
<name>1040</name>
</trkpt>
<trkpt lat="48.951632" lon="8.650868">
<ele>276.0</ele>
<speed>0.88</speed>
<course>288.1</course>
<desc>Speed 3.2 km/h Distance 1.73 km</desc>
<time>2010-10-24T10:44:17.25</time>
<name>1041</name>
</trkpt>
<trkpt lat="48.951637" lon="8.650845">
<ele>277.0</ele>
<speed>0.66</speed>
<course>312.2</course>
<desc>Speed 2.4 km/h Distance 1.74 km</desc>
<time>2010-10-24T10:44:18.25</time>
<name>1042</name>
</trkpt>
<trkpt lat="48.951642" lon="8.650837">
<ele>276.0</ele>
<speed>0.63</speed>
<course>319.1</course>
<desc>Speed 2.3 km/h Distance 1.74 km</desc>
<time>2010-10-24T10:44:19.28</time>
<name>1043</name>
</trkpt>
<trkpt lat="48.951647" lon="8.650830">
<ele>275.0</ele>
<speed>0.72</speed>
<course>291.8</course>
<desc>Speed 2.6 km/h Distance 1.74 km</desc>
<time>2010-10-24T10:44:20.24</time>
<name>1044</name>
</trkpt>
<trkpt lat="48.951655" lon="8.650798">
<ele>276.5</ele>
<speed>0.82</speed>
<course>303.1</course>
<desc>Speed 3.0 km/h Distance 1.74 km</desc>
<time>2010-10-24T10:44:21.24</time>
<name>1045</name>
</trkpt>
<trkpt lat="48.951660" lon="8.650787">
<ele>275.5</ele>
<speed>0.82</speed>
<course>295.2</course>
<desc>Speed 3.0 km/h Distance 1.74 km</desc>
<time>2010-10-24T10:44:22.26</time>
<name>1046</name>
</trkpt>
<trkpt lat="48.951682" lon="8.650717">
<ele>277.5</ele>
<speed>1.05</speed>
<course>344.0</course>
<desc>Speed 3.8 km/h Distance 1.75 km</desc>
<time>2010-10-24T10:44:24.23</time>
<name>1047</name>
</trkpt>
<trkpt lat="48.951697" lon="8.650710">
<ele>276.0</ele>
<speed>0.93</speed>
<course>341.9</course>
<desc>Speed 3.3 km/h Distance 1.75 km</desc>
<time>2010-10-24T10:44:25.26</time>
<name>1048</name>
</trkpt>
<trkpt lat="48.951710" lon="8.650703">
<ele>275.5</ele>
<speed>0.97</speed>
<course>337.7</course>
<desc>Speed 3.5 km/h Distance 1.75 km</desc>
<time>2010-10-24T10:44:26.22</time>
<name>1049</name>
</trkpt>
<trkpt lat="48.951723" lon="8.650695">
<ele>276.0</ele>
<speed>0.86</speed>
<course>326.8</course>
<desc>Speed 3.1 km/h Distance 1.75 km</desc>
<time>2010-10-24T10:44:27.22</time>
<name>1050</name>
</trkpt>
<trkpt lat="48.951732" lon="8.650687">
<ele>275.0</ele>
<speed>0.72</speed>
<course>334.8</course>
<desc>Speed 2.6 km/h Distance 1.75 km</desc>
<time>2010-10-24T10:44:28.24</time>
<name>1051</name>
</trkpt>
<trkpt lat="48.951743" lon="8.650678">
<ele>274.5</ele>
<speed>0.87</speed>
<course>298.3</course>
<desc>Speed 3.1 km/h Distance 1.75 km</desc>
<time>2010-10-24T10:44:29.21</time>
<name>1052</name>
</trkpt>
<trkpt lat="48.951753" lon="8.650650">
<ele>275.5</ele>
<speed>0.93</speed>
<course>341.8</course>
<desc>Speed 3.3 km/h Distance 1.76 km</desc>
<time>2010-10-24T10:44:30.21</time>
<name>1053</name>
</trkpt>
<trkpt lat="48.951763" lon="8.650645">
<ele>275.0</ele>
<speed>0.80</speed>
<course>331.4</course>
<desc>Speed 2.9 km/h Distance 1.76 km</desc>
<time>2010-10-24T10:44:31.24</time>
<name>1054</name>
</trkpt>
<trkpt lat="48.951773" lon="8.650637">
<ele>274.0</ele>
<speed>0.50</speed>
<course>301.4</course>
<desc>Speed 1.8 km/h Distance 1.76 km</desc>
<time>2010-10-24T10:44:32.20</time>
<name>1055</name>
</trkpt>
<trkpt lat="48.951780" lon="8.650620">
<ele>273.5</ele>
<speed>0.49</speed>
<course>336.6</course>
<desc>Speed 1.8 km/h Distance 1.76 km</desc>
<time>2010-10-24T10:44:33.21</time>
<name>1056</name>
</trkpt>
<trkpt lat="48.951790" lon="8.650613">
<ele>273.5</ele>
<speed>0.86</speed>
<course>319.8</course>
<desc>Speed 3.1 km/h Distance 1.76 km</desc>
<time>2010-10-24T10:44:34.25</time>
<name>1057</name>
</trkpt>
<trkpt lat="48.951802" lon="8.650598">
<ele>273.5</ele>
<speed>0.99</speed>
<course>312.5</course>
<desc>Speed 3.6 km/h Distance 1.76 km</desc>
<time>2010-10-24T10:44:35.19</time>
<name>1058</name>
</trkpt>
<trkpt lat="48.951812" lon="8.650582">
<ele>273.0</ele>
<speed>1.23</speed>
<course>310.9</course>
<desc>Speed 4.4 km/h Distance 1.77 km</desc>
<time>2010-10-24T10:44:36.19</time>
<name>1059</name>
</trkpt>
<trkpt lat="48.951818" lon="8.650570">
<ele>273.5</ele>
<speed>0.60</speed>
<course>341.2</course>
<desc>Speed 2.2 km/h Distance 1.77 km</desc>
<time>2010-10-24T10:44:37.19</time>
<name>1060</name>
</trkpt>
<trkpt lat="48.951828" lon="8.650565">
<ele>273.0</ele>
<speed>0.66</speed>
<course>333.6</course>
<desc>Speed 2.4 km/h Distance 1.77 km</desc>
<time>2010-10-24T10:44:38.18</time>
<name>1061</name>
</trkpt>
<trkpt lat="48.951842" lon="8.650555">
<ele>272.0</ele>
<speed>0.85</speed>
<course>288.8</course>
<desc>Speed 3.1 km/h Distance 1.77 km</desc>
<time>2010-10-24T10:44:39.18</time>
<name>1062</name>
</trkpt>
<trkpt lat="48.951863" lon="8.650458">
<ele>279.5</ele>
<speed>0.94</speed>
<course>323.1</course>
<desc>Speed 3.4 km/h Distance 1.78 km</desc>
<time>2010-10-24T10:44:41.17</time>
<name>1063</name>
</trkpt>
<trkpt lat="48.951875" lon="8.650445">
<ele>279.0</ele>
<speed>0.93</speed>
<course>290.0</course>
<desc>Speed 3.3 km/h Distance 1.78 km</desc>
<time>2010-10-24T10:44:42.16</time>
<name>1064</name>
</trkpt>
<trkpt lat="48.951893" lon="8.650368">
<ele>285.5</ele>
<speed>0.89</speed>
<course>307.4</course>
<desc>Speed 3.2 km/h Distance 1.78 km</desc>
<time>2010-10-24T10:44:44.16</time>
<name>1065</name>
</trkpt>
<trkpt lat="48.951898" lon="8.650358">
<ele>285.5</ele>
<speed>0.51</speed>
<course>312.6</course>
<desc>Speed 1.8 km/h Distance 1.79 km</desc>
<time>2010-10-24T10:44:45.16</time>
<name>1066</name>
</trkpt>
<trkpt lat="48.951903" lon="8.650350">
<ele>285.0</ele>
<speed>0.64</speed>
<course>332.5</course>
<desc>Speed 2.3 km/h Distance 1.79 km</desc>
<time>2010-10-24T10:44:46.16</time>
<name>1067</name>
</trkpt>
<trkpt lat="48.951912" lon="8.650343">
<ele>284.5</ele>
<speed>0.75</speed>
<course>312.4</course>
<desc>Speed 2.7 km/h Distance 1.79 km</desc>
<time>2010-10-24T10:44:47.15</time>
<name>1068</name>
</trkpt>
<trkpt lat="48.951922" lon="8.650327">
<ele>284.0</ele>
<speed>0.75</speed>
<course>349.6</course>
<desc>Speed 2.7 km/h Distance 1.79 km</desc>
<time>2010-10-24T10:44:48.15</time>
<name>1069</name>
</trkpt>
<trkpt lat="48.951933" lon="8.650323">
<ele>284.0</ele>
<speed>0.91</speed>
<course>307.3</course>
<desc>Speed 3.3 km/h Distance 1.79 km</desc>
<time>2010-10-24T10:44:49.14</time>
<name>1070</name>
</trkpt>
<trkpt lat="48.951942" lon="8.650307">
<ele>284.5</ele>
<speed>0.75</speed>
<course>338.5</course>
<desc>Speed 2.7 km/h Distance 1.79 km</desc>
<time>2010-10-24T10:44:50.14</time>
<name>1071</name>
</trkpt>
<trkpt lat="48.951950" lon="8.650302">
<ele>284.0</ele>
<speed>0.67</speed>
<course>341.8</course>
<desc>Speed 2.4 km/h Distance 1.79 km</desc>
<time>2010-10-24T10:44:51.12</time>
<name>1072</name>
</trkpt>
<trkpt lat="48.951960" lon="8.650297">
<ele>283.0</ele>
<speed>0.63</speed>
<course>308.3</course>
<desc>Speed 2.3 km/h Distance 1.79 km</desc>
<time>2010-10-24T10:44:52.12</time>
<name>1073</name>
</trkpt>
<trkpt lat="48.952008" lon="8.650203">
<ele>282.0</ele>
<speed>0.50</speed>
<course>298.1</course>
<desc>Speed 1.8 km/h Distance 1.80 km</desc>
<time>2010-10-24T10:45:10.11</time>
<name>1074</name>
</trkpt>
<trkpt lat="48.952030" lon="8.650142">
<ele>282.0</ele>
<speed>0.86</speed>
<course>296.9</course>
<desc>Speed 3.1 km/h Distance 1.81 km</desc>
<time>2010-10-24T10:45:13.10</time>
<name>1075</name>
</trkpt>
<trkpt lat="48.952053" lon="8.650072">
<ele>283.5</ele>
<speed>0.93</speed>
<course>323.1</course>
<desc>Speed 3.3 km/h Distance 1.81 km</desc>
<time>2010-10-24T10:45:15.09</time>
<name>1076</name>
</trkpt>
<trkpt lat="48.952065" lon="8.650058">
<ele>283.5</ele>
<speed>1.27</speed>
<course>326.3</course>
<desc>Speed 4.6 km/h Distance 1.81 km</desc>
<time>2010-10-24T10:45:16.08</time>
<name>1077</name>
</trkpt>
<trkpt lat="48.952072" lon="8.650052">
<ele>282.5</ele>
<speed>0.68</speed>
<course>321.6</course>
<desc>Speed 2.4 km/h Distance 1.82 km</desc>
<time>2010-10-24T10:45:17.08</time>
<name>1078</name>
</trkpt>
<trkpt lat="48.952080" lon="8.650042">
<ele>283.0</ele>
<speed>0.58</speed>
<course>319.5</course>
<desc>Speed 2.1 km/h Distance 1.82 km</desc>
<time>2010-10-24T10:45:18.07</time>
<name>1079</name>
</trkpt>
<trkpt lat="48.952097" lon="8.650020">
<ele>281.5</ele>
<speed>0.30</speed>
<course>326.8</course>
<desc>Speed 1.1 km/h Distance 1.82 km</desc>
<time>2010-10-24T10:45:33.07</time>
<name>1080</name>
</trkpt>
<trkpt lat="48.952110" lon="8.650007">
<ele>281.5</ele>
<speed>0.54</speed>
<course>294.3</course>
<desc>Speed 1.9 km/h Distance 1.82 km</desc>
<time>2010-10-24T10:45:36.05</time>
<name>1081</name>
</trkpt>
<trkpt lat="48.952123" lon="8.649962">
<ele>282.0</ele>
<speed>0.79</speed>
<course>318.8</course>
<desc>Speed 2.8 km/h Distance 1.82 km</desc>
<time>2010-10-24T10:45:38.04</time>
<name>1082</name>
</trkpt>
<trkpt lat="48.952133" lon="8.649948">
<ele>282.5</ele>
<speed>0.75</speed>
<course>312.6</course>
<desc>Speed 2.7 km/h Distance 1.83 km</desc>
<time>2010-10-24T10:45:39.04</time>
<name>1083</name>
</trkpt>
<trkpt lat="48.952138" lon="8.649940">
<ele>282.0</ele>
<speed>0.69</speed>
<course>270.0</course>
<desc>Speed 2.5 km/h Distance 1.83 km</desc>
<time>2010-10-24T10:45:40.04</time>
<name>1084</name>
</trkpt>
<trkpt lat="48.952138" lon="8.649913">
<ele>280.5</ele>
<speed>0.49</speed>
<course>326.8</course>
<desc>Speed 1.8 km/h Distance 1.83 km</desc>
<time>2010-10-24T10:45:41.03</time>
<name>1085</name>
</trkpt>
<trkpt lat="48.952147" lon="8.649905">
<ele>280.0</ele>
<speed>0.68</speed>
<course>333.6</course>
<desc>Speed 2.4 km/h Distance 1.83 km</desc>
<time>2010-10-24T10:45:42.02</time>
<name>1086</name>
</trkpt>
<trkpt lat="48.952160" lon="8.649895">
<ele>280.0</ele>
<speed>0.97</speed>
<course>323.5</course>
<desc>Speed 3.5 km/h Distance 1.83 km</desc>
<time>2010-10-24T10:45:43.02</time>
<name>1087</name>
</trkpt>
<trkpt lat="48.952173" lon="8.649880">
<ele>279.5</ele>
<speed>1.12</speed>
<course>326.8</course>
<desc>Speed 4.0 km/h Distance 1.83 km</desc>
<time>2010-10-24T10:45:44.02</time>
<name>1088</name>
</trkpt>
<trkpt lat="48.952183" lon="8.649870">
<ele>279.5</ele>
<speed>0.86</speed>
<course>320.6</course>
<desc>Speed 3.1 km/h Distance 1.83 km</desc>
<time>2010-10-24T10:45:45.01</time>
<name>1089</name>
</trkpt>
<trkpt lat="48.952190" lon="8.649862">
<ele>278.5</ele>
<speed>0.79</speed>
<course>334.8</course>
<desc>Speed 2.8 km/h Distance 1.84 km</desc>
<time>2010-10-24T10:45:46.01</time>
<name>1090</name>
</trkpt>
<trkpt lat="48.952202" lon="8.649853">
<ele>278.5</ele>
<speed>0.76</speed>
<course>331.1</course>
<desc>Speed 2.7 km/h Distance 1.84 km</desc>
<time>2010-10-24T10:45:47.00</time>
<name>1091</name>
</trkpt>
<trkpt lat="48.952212" lon="8.649845">
<ele>278.5</ele>
<speed>1.21</speed>
<course>331.1</course>
<desc>Speed 4.4 km/h Distance 1.84 km</desc>
<time>2010-10-24T10:45:47.99</time>
<name>1092</name>
</trkpt>
<trkpt lat="48.952222" lon="8.649837">
<ele>278.0</ele>
<speed>1.02</speed>
<course>326.6</course>
<desc>Speed 3.7 km/h Distance 1.84 km</desc>
<time>2010-10-24T10:45:48.99</time>
<name>1093</name>
</trkpt>
<trkpt lat="48.952233" lon="8.649825">
<ele>278.0</ele>
<speed>0.99</speed>
<course>289.6</course>
<desc>Speed 3.6 km/h Distance 1.84 km</desc>
<time>2010-10-24T10:45:49.98</time>
<name>1094</name>
</trkpt>
<trkpt lat="48.952252" lon="8.649747">
<ele>281.0</ele>
<speed>0.63</speed>
<course>332.1</course>
<desc>Speed 2.3 km/h Distance 1.85 km</desc>
<time>2010-10-24T10:45:51.98</time>
<name>1095</name>
</trkpt>
<trkpt lat="48.952260" lon="8.649740">
<ele>280.0</ele>
<speed>0.75</speed>
<course>285.9</course>
<desc>Speed 2.7 km/h Distance 1.85 km</desc>
<time>2010-10-24T10:45:52.98</time>
<name>1096</name>
</trkpt>
<trkpt lat="48.952275" lon="8.649660">
<ele>281.5</ele>
<speed>0.91</speed>
<course>286.2</course>
<desc>Speed 3.3 km/h Distance 1.85 km</desc>
<time>2010-10-24T10:45:54.97</time>
<name>1097</name>
</trkpt>
<trkpt lat="48.952282" lon="8.649625">
<ele>282.5</ele>
<speed>1.02</speed>
<course>345.1</course>
<desc>Speed 3.7 km/h Distance 1.86 km</desc>
<time>2010-10-24T10:45:55.97</time>
<name>1098</name>
</trkpt>
<trkpt lat="48.952290" lon="8.649622">
<ele>281.5</ele>
<speed>0.97</speed>
<course>347.4</course>
<desc>Speed 3.5 km/h Distance 1.86 km</desc>
<time>2010-10-24T10:45:56.97</time>
<name>1099</name>
</trkpt>
<trkpt lat="48.952300" lon="8.649618">
<ele>280.0</ele>
<speed>0.88</speed>
<course>343.7</course>
<desc>Speed 3.2 km/h Distance 1.86 km</desc>
<time>2010-10-24T10:45:57.96</time>
<name>1100</name>
</trkpt>
<trkpt lat="48.952315" lon="8.649612">
<ele>279.5</ele>
<speed>1.20</speed>
<course>352.5</course>
<desc>Speed 4.3 km/h Distance 1.86 km</desc>
<time>2010-10-24T10:45:58.96</time>
<name>1101</name>
</trkpt>
<trkpt lat="48.952330" lon="8.649608">
<ele>279.5</ele>
<speed>1.20</speed>
<course>341.8</course>
<desc>Speed 4.3 km/h Distance 1.86 km</desc>
<time>2010-10-24T10:45:59.95</time>
<name>1102</name>
</trkpt>
<trkpt lat="48.952340" lon="8.649603">
<ele>280.0</ele>
<speed>0.95</speed>
<course>26.4</course>
<desc>Speed 3.4 km/h Distance 1.86 km</desc>
<time>2010-10-24T10:46:00.95</time>
<name>1103</name>
</trkpt>
<trkpt lat="48.952347" lon="8.649608">
<ele>279.0</ele>
<speed>0.87</speed>
<course>44.5</course>
<desc>Speed 3.1 km/h Distance 1.86 km</desc>
<time>2010-10-24T10:46:01.94</time>
<name>1104</name>
</trkpt>
<trkpt lat="48.952350" lon="8.649613">
<ele>278.0</ele>
<speed>0.62</speed>
<course>18.2</course>
<desc>Speed 2.2 km/h Distance 1.87 km</desc>
<time>2010-10-24T10:46:02.97</time>
<name>1105</name>
</trkpt>
<trkpt lat="48.952360" lon="8.649618">
<ele>278.5</ele>
<speed>1.03</speed>
<course>288.1</course>
<desc>Speed 3.7 km/h Distance 1.87 km</desc>
<time>2010-10-24T10:46:03.93</time>
<name>1106</name>
</trkpt>
<trkpt lat="48.952365" lon="8.649595">
<ele>282.0</ele>
<speed>0.61</speed>
<course>12.6</course>
<desc>Speed 2.2 km/h Distance 1.87 km</desc>
<time>2010-10-24T10:46:04.93</time>
<name>1107</name>
</trkpt>
<trkpt lat="48.952370" lon="8.649597">
<ele>281.0</ele>
<speed>0.64</speed>
<course>326.3</course>
<desc>Speed 2.3 km/h Distance 1.87 km</desc>
<time>2010-10-24T10:46:05.93</time>
<name>1108</name>
</trkpt>
<trkpt lat="48.952377" lon="8.649590">
<ele>283.5</ele>
<speed>0.93</speed>
<course>355.0</course>
<desc>Speed 3.3 km/h Distance 1.87 km</desc>
<time>2010-10-24T10:46:06.92</time>
<name>1109</name>
</trkpt>
<trkpt lat="48.952385" lon="8.649588">
<ele>284.5</ele>
<speed>1.08</speed>
<course>347.4</course>
<desc>Speed 3.9 km/h Distance 1.87 km</desc>
<time>2010-10-24T10:46:07.92</time>
<name>1110</name>
</trkpt>
<trkpt lat="48.952390" lon="8.649587">
<ele>285.0</ele>
<speed>0.68</speed>
<course>33.7</course>
<desc>Speed 2.4 km/h Distance 1.87 km</desc>
<time>2010-10-24T10:46:08.91</time>
<name>1111</name>
</trkpt>
<trkpt lat="48.952397" lon="8.649593">
<ele>285.0</ele>
<speed>0.69</speed>
<course>58.6</course>
<desc>Speed 2.5 km/h Distance 1.87 km</desc>
<time>2010-10-24T10:46:09.90</time>
<name>1112</name>
</trkpt>
<trkpt lat="48.952400" lon="8.649602">
<ele>284.0</ele>
<speed>0.77</speed>
<course>12.6</course>
<desc>Speed 2.8 km/h Distance 1.87 km</desc>
<time>2010-10-24T10:46:10.90</time>
<name>1113</name>
</trkpt>
<trkpt lat="48.952403" lon="8.649602">
<ele>284.5</ele>
<speed>0.68</speed>
<course>62.6</course>
<desc>Speed 2.4 km/h Distance 1.87 km</desc>
<time>2010-10-24T10:46:11.90</time>
<name>1114</name>
</trkpt>
<trkpt lat="48.952405" lon="8.649607">
<ele>284.0</ele>
<speed>0.52</speed>
<course>336.2</course>
<desc>Speed 1.9 km/h Distance 1.87 km</desc>
<time>2010-10-24T10:46:12.90</time>
<name>1115</name>
</trkpt>
<trkpt lat="48.952415" lon="8.649600">
<ele>285.5</ele>
<speed>0.80</speed>
<course>301.1</course>
<desc>Speed 2.9 km/h Distance 1.87 km</desc>
<time>2010-10-24T10:46:13.90</time>
<name>1116</name>
</trkpt>
<trkpt lat="48.952418" lon="8.649592">
<ele>285.5</ele>
<speed>0.40</speed>
<course>315.5</course>
<desc>Speed 1.4 km/h Distance 1.88 km</desc>
<time>2010-10-24T10:46:14.90</time>
<name>1117</name>
</trkpt>
<trkpt lat="48.952422" lon="8.649587">
<ele>285.5</ele>
<speed>0.67</speed>
<course>286.7</course>
<desc>Speed 2.4 km/h Distance 1.88 km</desc>
<time>2010-10-24T10:46:15.90</time>
<name>1118</name>
</trkpt>
<trkpt lat="48.952423" lon="8.649578">
<ele>285.0</ele>
<speed>0.49</speed>
<course>53.9</course>
<desc>Speed 1.8 km/h Distance 1.88 km</desc>
<time>2010-10-24T10:46:16.89</time>
<name>1119</name>
</trkpt>
<trkpt lat="48.952425" lon="8.649582">
<ele>285.0</ele>
<speed>0.69</speed>
<course>79.2</course>
<desc>Speed 2.5 km/h Distance 1.88 km</desc>
<time>2010-10-24T10:46:17.89</time>
<name>1120</name>
</trkpt>
<trkpt lat="48.952427" lon="8.649595">
<ele>284.0</ele>
<speed>0.70</speed>
<course>121.1</course>
<desc>Speed 2.5 km/h Distance 1.88 km</desc>
<time>2010-10-24T10:46:18.88</time>
<name>1121</name>
</trkpt>
<trkpt lat="48.952423" lon="8.649603">
<ele>282.0</ele>
<speed>0.81</speed>
<course>121.4</course>
<desc>Speed 2.9 km/h Distance 1.88 km</desc>
<time>2010-10-24T10:46:19.88</time>
<name>1122</name>
</trkpt>
<trkpt lat="48.952420" lon="8.649612">
<ele>281.5</ele>
<speed>0.94</speed>
<course>130.9</course>
<desc>Speed 3.4 km/h Distance 1.88 km</desc>
<time>2010-10-24T10:46:20.88</time>
<name>1123</name>
</trkpt>
<trkpt lat="48.952413" lon="8.649623">
<ele>279.5</ele>
<speed>1.28</speed>
<course>127.2</course>
<desc>Speed 4.6 km/h Distance 1.88 km</desc>
<time>2010-10-24T10:46:21.87</time>
<name>1124</name>
</trkpt>
<trkpt lat="48.952408" lon="8.649633">
<ele>278.0</ele>
<speed>1.05</speed>
<course>270.0</course>
<desc>Speed 3.8 km/h Distance 1.88 km</desc>
<time>2010-10-24T10:46:22.87</time>
<name>1125</name>
</trkpt>
<trkpt lat="48.952408" lon="8.649625">
<ele>279.0</ele>
<speed>0.72</speed>
<course>270.0</course>
<desc>Speed 2.6 km/h Distance 1.88 km</desc>
<time>2010-10-24T10:46:23.87</time>
<name>1126</name>
</trkpt>
<trkpt lat="48.952408" lon="8.649623">
<ele>279.5</ele>
<speed>0.70</speed>
<course>334.6</course>
<desc>Speed 2.5 km/h Distance 1.88 km</desc>
<time>2010-10-24T10:46:24.86</time>
<name>1127</name>
</trkpt>
<trkpt lat="48.952413" lon="8.649620">
<ele>280.5</ele>
<speed>0.58</speed>
<course>69.8</course>
<desc>Speed 2.1 km/h Distance 1.88 km</desc>
<time>2010-10-24T10:46:25.85</time>
<name>1128</name>
</trkpt>
<trkpt lat="48.952415" lon="8.649627">
<ele>279.5</ele>
<speed>0.56</speed>
<course>106.7</course>
<desc>Speed 2.0 km/h Distance 1.88 km</desc>
<time>2010-10-24T10:46:26.84</time>
<name>1129</name>
</trkpt>
<trkpt lat="48.952413" lon="8.649635">
<ele>279.5</ele>
<speed>0.80</speed>
<course>142.8</course>
<desc>Speed 2.9 km/h Distance 1.88 km</desc>
<time>2010-10-24T10:46:27.83</time>
<name>1130</name>
</trkpt>
<trkpt lat="48.952412" lon="8.649637">
<ele>278.5</ele>
<speed>0.64</speed>
<course>53.0</course>
<desc>Speed 2.3 km/h Distance 1.88 km</desc>
<time>2010-10-24T10:46:28.83</time>
<name>1131</name>
</trkpt>
<trkpt lat="48.952415" lon="8.649643">
<ele>278.5</ele>
<speed>0.54</speed>
<course>90.0</course>
<desc>Speed 1.9 km/h Distance 1.88 km</desc>
<time>2010-10-24T10:46:29.83</time>
<name>1132</name>
</trkpt>
<trkpt lat="48.952415" lon="8.649647">
<ele>277.5</ele>
<speed>0.37</speed>
<course>198.8</course>
<desc>Speed 1.3 km/h Distance 1.89 km</desc>
<time>2010-10-24T10:46:30.82</time>
<name>1133</name>
</trkpt>
<trkpt lat="48.952412" lon="8.649645">
<ele>276.0</ele>
<speed>0.50</speed>
<course>37.2</course>
<desc>Speed 1.8 km/h Distance 1.89 km</desc>
<time>2010-10-24T10:46:31.81</time>
<name>1134</name>
</trkpt>
<trkpt lat="48.952413" lon="8.649647">
<ele>276.5</ele>
<speed>0.38</speed>
<course>126.1</course>
<desc>Speed 1.4 km/h Distance 1.89 km</desc>
<time>2010-10-24T10:46:32.81</time>
<name>1135</name>
</trkpt>
<trkpt lat="48.952412" lon="8.649650">
<ele>275.5</ele>
<speed>0.41</speed>
<course>126.1</course>
<desc>Speed 1.5 km/h Distance 1.89 km</desc>
<time>2010-10-24T10:46:33.80</time>
<name>1136</name>
</trkpt>
<trkpt lat="48.952410" lon="8.649653">
<ele>274.0</ele>
<speed>0.31</speed>
<course>167.4</course>
<desc>Speed 1.1 km/h Distance 1.89 km</desc>
<time>2010-10-24T10:46:34.81</time>
<name>1137</name>
</trkpt>
<trkpt lat="48.952407" lon="8.649655">
<ele>273.0</ele>
<speed>0.68</speed>
<course>46.4</course>
<desc>Speed 2.4 km/h Distance 1.89 km</desc>
<time>2010-10-24T10:46:35.80</time>
<name>1138</name>
</trkpt>
<trkpt lat="48.952415" lon="8.649668">
<ele>273.5</ele>
<speed>0.55</speed>
<course>135.5</course>
<desc>Speed 2.0 km/h Distance 1.89 km</desc>
<time>2010-10-24T10:46:36.80</time>
<name>1139</name>
</trkpt>
<trkpt lat="48.952412" lon="8.649673">
<ele>272.0</ele>
<speed>0.64</speed>
<course>154.6</course>
<desc>Speed 2.3 km/h Distance 1.89 km</desc>
<time>2010-10-24T10:46:37.79</time>
<name>1140</name>
</trkpt>
<trkpt lat="48.952407" lon="8.649677">
<ele>271.5</ele>
<speed>0.51</speed>
<course>35.6</course>
<desc>Speed 1.8 km/h Distance 1.89 km</desc>
<time>2010-10-24T10:46:38.79</time>
<name>1141</name>
</trkpt>
<trkpt lat="48.952425" lon="8.649697">
<ele>275.5</ele>
<speed>0.31</speed>
<course>79.2</course>
<desc>Speed 1.1 km/h Distance 1.89 km</desc>
<time>2010-10-24T10:46:55.78</time>
<name>1142</name>
</trkpt>
<trkpt lat="48.952427" lon="8.649710">
<ele>275.5</ele>
<speed>0.85</speed>
<course>79.2</course>
<desc>Speed 3.1 km/h Distance 1.89 km</desc>
<time>2010-10-24T10:46:56.78</time>
<name>1143</name>
</trkpt>
<trkpt lat="48.952428" lon="8.649723">
<ele>276.0</ele>
<speed>0.93</speed>
<course>90.0</course>
<desc>Speed 3.3 km/h Distance 1.89 km</desc>
<time>2010-10-24T10:46:57.77</time>
<name>1144</name>
</trkpt>
<trkpt lat="48.952428" lon="8.649738">
<ele>276.0</ele>
<speed>0.80</speed>
<course>119.7</course>
<desc>Speed 2.9 km/h Distance 1.89 km</desc>
<time>2010-10-24T10:46:58.76</time>
<name>1145</name>
</trkpt>
<trkpt lat="48.952423" lon="8.649752">
<ele>275.5</ele>
<speed>0.88</speed>
<course>100.7</course>
<desc>Speed 3.2 km/h Distance 1.90 km</desc>
<time>2010-10-24T10:46:59.76</time>
<name>1146</name>
</trkpt>
<trkpt lat="48.952422" lon="8.649765">
<ele>274.5</ele>
<speed>0.64</speed>
<course>69.2</course>
<desc>Speed 2.3 km/h Distance 1.90 km</desc>
<time>2010-10-24T10:47:00.75</time>
<name>1147</name>
</trkpt>
<trkpt lat="48.952428" lon="8.649792">
<ele>275.5</ele>
<speed>0.93</speed>
<course>138.8</course>
<desc>Speed 3.3 km/h Distance 1.90 km</desc>
<time>2010-10-24T10:47:01.75</time>
<name>1148</name>
</trkpt>
<trkpt lat="48.952418" lon="8.649805">
<ele>274.5</ele>
<speed>1.37</speed>
<course>66.5</course>
<desc>Speed 4.9 km/h Distance 1.90 km</desc>
<time>2010-10-24T10:47:02.74</time>
<name>1149</name>
</trkpt>
<trkpt lat="48.952422" lon="8.649817">
<ele>275.0</ele>
<speed>0.70</speed>
<course>90.0</course>
<desc>Speed 2.5 km/h Distance 1.90 km</desc>
<time>2010-10-24T10:47:03.74</time>
<name>1150</name>
</trkpt>
<trkpt lat="48.952422" lon="8.649828">
<ele>274.5</ele>
<speed>0.95</speed>
<course>80.4</course>
<desc>Speed 3.4 km/h Distance 1.90 km</desc>
<time>2010-10-24T10:47:04.74</time>
<name>1151</name>
</trkpt>
<trkpt lat="48.952423" lon="8.649843">
<ele>274.0</ele>
<speed>0.76</speed>
<course>129.6</course>
<desc>Speed 2.7 km/h Distance 1.90 km</desc>
<time>2010-10-24T10:47:05.73</time>
<name>1152</name>
</trkpt>
<trkpt lat="48.952413" lon="8.649862">
<ele>273.0</ele>
<speed>1.12</speed>
<course>119.7</course>
<desc>Speed 4.0 km/h Distance 1.91 km</desc>
<time>2010-10-24T10:47:06.73</time>
<name>1153</name>
</trkpt>
<trkpt lat="48.952408" lon="8.649875">
<ele>271.5</ele>
<speed>0.94</speed>
<course>119.8</course>
<desc>Speed 3.4 km/h Distance 1.91 km</desc>
<time>2010-10-24T10:47:07.72</time>
<name>1154</name>
</trkpt>
<trkpt lat="48.952403" lon="8.649888">
<ele>270.5</ele>
<speed>0.43</speed>
<course>69.2</course>
<desc>Speed 1.5 km/h Distance 1.91 km</desc>
<time>2010-10-24T10:47:08.71</time>
<name>1155</name>
</trkpt>
<trkpt lat="48.952407" lon="8.649902">
<ele>270.5</ele>
<speed>0.69</speed>
<course>61.1</course>
<desc>Speed 2.5 km/h Distance 1.91 km</desc>
<time>2010-10-24T10:47:09.71</time>
<name>1156</name>
</trkpt>
<trkpt lat="48.952413" lon="8.649920">
<ele>270.5</ele>
<speed>0.73</speed>
<course>63.2</course>
<desc>Speed 2.6 km/h Distance 1.91 km</desc>
<time>2010-10-24T10:47:10.70</time>
<name>1157</name>
</trkpt>
<trkpt lat="48.952417" lon="8.649930">
<ele>269.0</ele>
<speed>0.70</speed>
<course>90.0</course>
<desc>Speed 2.5 km/h Distance 1.91 km</desc>
<time>2010-10-24T10:47:11.69</time>
<name>1158</name>
</trkpt>
<trkpt lat="48.952417" lon="8.649948">
<ele>268.5</ele>
<speed>0.75</speed>
<course>90.0</course>
<desc>Speed 2.7 km/h Distance 1.91 km</desc>
<time>2010-10-24T10:47:12.69</time>
<name>1159</name>
</trkpt>
<trkpt lat="48.952417" lon="8.649965">
<ele>268.5</ele>
<speed>0.62</speed>
<course>84.6</course>
<desc>Speed 2.2 km/h Distance 1.91 km</desc>
<time>2010-10-24T10:47:13.69</time>
<name>1160</name>
</trkpt>
<trkpt lat="48.952418" lon="8.649992">
<ele>270.0</ele>
<speed>1.17</speed>
<course>64.9</course>
<desc>Speed 4.2 km/h Distance 1.92 km</desc>
<time>2010-10-24T10:47:14.68</time>
<name>1161</name>
</trkpt>
<trkpt lat="48.952425" lon="8.650013">
<ele>271.0</ele>
<speed>0.73</speed>
<course>55.3</course>
<desc>Speed 2.6 km/h Distance 1.92 km</desc>
<time>2010-10-24T10:47:15.68</time>
<name>1162</name>
</trkpt>
<trkpt lat="48.952433" lon="8.650032">
<ele>272.5</ele>
<speed>0.57</speed>
<course>33.3</course>
<desc>Speed 2.1 km/h Distance 1.92 km</desc>
<time>2010-10-24T10:47:16.67</time>
<name>1163</name>
</trkpt>
<trkpt lat="48.952450" lon="8.650048">
<ele>273.0</ele>
<speed>0.63</speed>
<course>46.9</course>
<desc>Speed 2.3 km/h Distance 1.92 km</desc>
<time>2010-10-24T10:47:17.66</time>
<name>1164</name>
</trkpt>
<trkpt lat="48.952463" lon="8.650070">
<ele>273.5</ele>
<speed>0.79</speed>
<course>75.6</course>
<desc>Speed 2.8 km/h Distance 1.92 km</desc>
<time>2010-10-24T10:47:18.66</time>
<name>1165</name>
</trkpt>
<trkpt lat="48.952465" lon="8.650080">
<ele>273.0</ele>
<speed>0.49</speed>
<course>73.0</course>
<desc>Speed 1.8 km/h Distance 1.92 km</desc>
<time>2010-10-24T10:47:19.66</time>
<name>1166</name>
</trkpt>
<trkpt lat="48.952468" lon="8.650097">
<ele>272.0</ele>
<speed>0.79</speed>
<course>46.4</course>
<desc>Speed 2.8 km/h Distance 1.93 km</desc>
<time>2010-10-24T10:47:20.66</time>
<name>1167</name>
</trkpt>
<trkpt lat="48.952477" lon="8.650110">
<ele>272.0</ele>
<speed>0.68</speed>
<course>23.7</course>
<desc>Speed 2.4 km/h Distance 1.93 km</desc>
<time>2010-10-24T10:47:21.65</time>
<name>1168</name>
</trkpt>
<trkpt lat="48.952492" lon="8.650120">
<ele>271.5</ele>
<speed>0.55</speed>
<course>46.9</course>
<desc>Speed 2.0 km/h Distance 1.93 km</desc>
<time>2010-10-24T10:47:22.65</time>
<name>1169</name>
</trkpt>
<trkpt lat="48.952505" lon="8.650142">
<ele>273.5</ele>
<speed>1.22</speed>
<course>29.8</course>
<desc>Speed 4.4 km/h Distance 1.93 km</desc>
<time>2010-10-24T10:47:23.64</time>
<name>1170</name>
</trkpt>
<trkpt lat="48.952518" lon="8.650153">
<ele>274.5</ele>
<speed>0.43</speed>
<course>77.7</course>
<desc>Speed 1.5 km/h Distance 1.93 km</desc>
<time>2010-10-24T10:47:24.64</time>
<name>1171</name>
</trkpt>
<trkpt lat="48.952520" lon="8.650165">
<ele>273.5</ele>
<speed>0.47</speed>
<course>73.0</course>
<desc>Speed 1.7 km/h Distance 1.93 km</desc>
<time>2010-10-24T10:47:25.62</time>
<name>1172</name>
</trkpt>
<trkpt lat="48.952523" lon="8.650182">
<ele>273.5</ele>
<speed>1.11</speed>
<course>41.2</course>
<desc>Speed 4.0 km/h Distance 1.93 km</desc>
<time>2010-10-24T10:47:26.62</time>
<name>1173</name>
</trkpt>
<trkpt lat="48.952533" lon="8.650195">
<ele>273.5</ele>
<speed>0.67</speed>
<course>63.1</course>
<desc>Speed 2.4 km/h Distance 1.94 km</desc>
<time>2010-10-24T10:47:27.62</time>
<name>1174</name>
</trkpt>
<trkpt lat="48.952540" lon="8.650215">
<ele>274.0</ele>
<speed>0.57</speed>
<course>27.9</course>
<desc>Speed 2.1 km/h Distance 1.94 km</desc>
<time>2010-10-24T10:47:28.62</time>
<name>1175</name>
</trkpt>
<trkpt lat="48.952548" lon="8.650222">
<ele>273.0</ele>
<speed>0.43</speed>
<course>79.3</course>
<desc>Speed 1.5 km/h Distance 1.94 km</desc>
<time>2010-10-24T10:47:29.61</time>
<name>1176</name>
</trkpt>
<trkpt lat="48.952550" lon="8.650235">
<ele>272.5</ele>
<speed>0.75</speed>
<course>73.1</course>
<desc>Speed 2.7 km/h Distance 1.94 km</desc>
<time>2010-10-24T10:47:30.61</time>
<name>1177</name>
</trkpt>
<trkpt lat="48.952553" lon="8.650252">
<ele>272.0</ele>
<speed>0.68</speed>
<course>113.5</course>
<desc>Speed 2.4 km/h Distance 1.94 km</desc>
<time>2010-10-24T10:47:31.61</time>
<name>1178</name>
</trkpt>
<trkpt lat="48.952550" lon="8.650263">
<ele>271.5</ele>
<speed>0.64</speed>
<course>108.6</course>
<desc>Speed 2.3 km/h Distance 1.94 km</desc>
<time>2010-10-24T10:47:32.62</time>
<name>1179</name>
</trkpt>
<trkpt lat="48.952547" lon="8.650278">
<ele>271.5</ele>
<speed>0.56</speed>
<course>109.4</course>
<desc>Speed 2.0 km/h Distance 1.94 km</desc>
<time>2010-10-24T10:47:33.61</time>
<name>1180</name>
</trkpt>
<trkpt lat="48.952542" lon="8.650300">
<ele>271.5</ele>
<speed>1.12</speed>
<course>115.4</course>
<desc>Speed 4.0 km/h Distance 1.94 km</desc>
<time>2010-10-24T10:47:34.60</time>
<name>1181</name>
</trkpt>
<trkpt lat="48.952533" lon="8.650327">
<ele>272.0</ele>
<speed>1.25</speed>
<course>130.1</course>
<desc>Speed 4.5 km/h Distance 1.95 km</desc>
<time>2010-10-24T10:47:35.60</time>
<name>1182</name>
</trkpt>
<trkpt lat="48.952525" lon="8.650342">
<ele>272.5</ele>
<speed>0.82</speed>
<course>73.1</course>
<desc>Speed 3.0 km/h Distance 1.95 km</desc>
<time>2010-10-24T10:47:36.60</time>
<name>1183</name>
</trkpt>
<trkpt lat="48.952528" lon="8.650358">
<ele>272.0</ele>
<speed>0.75</speed>
<course>56.9</course>
<desc>Speed 2.7 km/h Distance 1.95 km</desc>
<time>2010-10-24T10:47:37.59</time>
<name>1184</name>
</trkpt>
<trkpt lat="48.952533" lon="8.650370">
<ele>272.0</ele>
<speed>0.87</speed>
<course>44.5</course>
<desc>Speed 3.1 km/h Distance 1.95 km</desc>
<time>2010-10-24T10:47:38.58</time>
<name>1185</name>
</trkpt>
<trkpt lat="48.952540" lon="8.650380">
<ele>272.0</ele>
<speed>0.58</speed>
<course>66.5</course>
<desc>Speed 2.1 km/h Distance 1.95 km</desc>
<time>2010-10-24T10:47:39.58</time>
<name>1186</name>
</trkpt>
<trkpt lat="48.952543" lon="8.650392">
<ele>272.5</ele>
<speed>0.74</speed>
<course>110.8</course>
<desc>Speed 2.7 km/h Distance 1.95 km</desc>
<time>2010-10-24T10:47:40.57</time>
<name>1187</name>
</trkpt>
<trkpt lat="48.952538" lon="8.650412">
<ele>274.0</ele>
<speed>0.72</speed>
<course>108.7</course>
<desc>Speed 2.6 km/h Distance 1.95 km</desc>
<time>2010-10-24T10:47:41.57</time>
<name>1188</name>
</trkpt>
<trkpt lat="48.952535" lon="8.650427">
<ele>272.5</ele>
<speed>0.73</speed>
<course>69.1</course>
<desc>Speed 2.6 km/h Distance 1.96 km</desc>
<time>2010-10-24T10:47:42.56</time>
<name>1189</name>
</trkpt>
<trkpt lat="48.952538" lon="8.650440">
<ele>271.5</ele>
<speed>0.40</speed>
<course>44.5</course>
<desc>Speed 1.4 km/h Distance 1.96 km</desc>
<time>2010-10-24T10:47:43.55</time>
<name>1190</name>
</trkpt>
<trkpt lat="48.952545" lon="8.650450">
<ele>270.0</ele>
<speed>0.43</speed>
<course>58.7</course>
<desc>Speed 1.5 km/h Distance 1.96 km</desc>
<time>2010-10-24T10:47:44.55</time>
<name>1191</name>
</trkpt>
<trkpt lat="48.952552" lon="8.650467">
<ele>269.5</ele>
<speed>0.63</speed>
<course>71.3</course>
<desc>Speed 2.3 km/h Distance 1.96 km</desc>
<time>2010-10-24T10:47:45.54</time>
<name>1192</name>
</trkpt>
<trkpt lat="48.952555" lon="8.650482">
<ele>270.5</ele>
<speed>0.94</speed>
<course>72.9</course>
<desc>Speed 3.4 km/h Distance 1.96 km</desc>
<time>2010-10-24T10:47:46.53</time>
<name>1193</name>
</trkpt>
<trkpt lat="48.952557" lon="8.650490">
<ele>270.0</ele>
<speed>0.56</speed>
<course>73.1</course>
<desc>Speed 2.0 km/h Distance 1.96 km</desc>
<time>2010-10-24T10:47:47.53</time>
<name>1194</name>
</trkpt>
<trkpt lat="48.952558" lon="8.650498">
<ele>269.0</ele>
<speed>0.49</speed>
<course>118.1</course>
<desc>Speed 1.8 km/h Distance 1.96 km</desc>
<time>2010-10-24T10:47:48.53</time>
<name>1195</name>
</trkpt>
<trkpt lat="48.952535" lon="8.650565">
<ele>271.5</ele>
<speed>0.98</speed>
<course>60.3</course>
<desc>Speed 3.5 km/h Distance 1.97 km</desc>
<time>2010-10-24T10:47:50.53</time>
<name>1196</name>
</trkpt>
<trkpt lat="48.952540" lon="8.650578">
<ele>271.0</ele>
<speed>0.62</speed>
<course>53.0</course>
<desc>Speed 2.2 km/h Distance 1.97 km</desc>
<time>2010-10-24T10:47:51.51</time>
<name>1197</name>
</trkpt>
<trkpt lat="48.952543" lon="8.650585">
<ele>270.5</ele>
<speed>0.40</speed>
<course>99.6</course>
<desc>Speed 1.4 km/h Distance 1.97 km</desc>
<time>2010-10-24T10:47:52.52</time>
<name>1198</name>
</trkpt>
<trkpt lat="48.952542" lon="8.650600">
<ele>269.5</ele>
<speed>0.43</speed>
<course>90.0</course>
<desc>Speed 1.5 km/h Distance 1.97 km</desc>
<time>2010-10-24T10:47:53.51</time>
<name>1199</name>
</trkpt>
<trkpt lat="48.952542" lon="8.650622">
<ele>269.0</ele>
<speed>0.66</speed>
<course>102.3</course>
<desc>Speed 2.4 km/h Distance 1.97 km</desc>
<time>2010-10-24T10:47:54.51</time>
<name>1200</name>
</trkpt>
<trkpt lat="48.952540" lon="8.650633">
<ele>268.0</ele>
<speed>0.73</speed>
<course>121.4</course>
<desc>Speed 2.6 km/h Distance 1.97 km</desc>
<time>2010-10-24T10:47:55.50</time>
<name>1201</name>
</trkpt>
<trkpt lat="48.952537" lon="8.650642">
<ele>267.5</ele>
<speed>0.75</speed>
<course>121.4</course>
<desc>Speed 2.7 km/h Distance 1.97 km</desc>
<time>2010-10-24T10:47:56.51</time>
<name>1202</name>
</trkpt>
<trkpt lat="48.952533" lon="8.650650">
<ele>266.5</ele>
<speed>0.50</speed>
<course>90.0</course>
<desc>Speed 1.8 km/h Distance 1.97 km</desc>
<time>2010-10-24T10:47:57.51</time>
<name>1203</name>
</trkpt>
<trkpt lat="48.952533" lon="8.650662">
<ele>265.0</ele>
<speed>0.58</speed>
<course>90.0</course>
<desc>Speed 2.1 km/h Distance 1.97 km</desc>
<time>2010-10-24T10:47:58.49</time>
<name>1204</name>
</trkpt>
<trkpt lat="48.952533" lon="8.650682">
<ele>265.0</ele>
<speed>0.94</speed>
<course>56.9</course>
<desc>Speed 3.4 km/h Distance 1.98 km</desc>
<time>2010-10-24T10:47:59.49</time>
<name>1205</name>
</trkpt>
<trkpt lat="48.952538" lon="8.650693">
<ele>264.0</ele>
<speed>0.54</speed>
<course>60.3</course>
<desc>Speed 1.9 km/h Distance 1.98 km</desc>
<time>2010-10-24T10:48:00.49</time>
<name>1206</name>
</trkpt>
<trkpt lat="48.952543" lon="8.650707">
<ele>263.0</ele>
<speed>0.46</speed>
<course>58.7</course>
<desc>Speed 1.7 km/h Distance 1.98 km</desc>
<time>2010-10-24T10:48:01.49</time>
<name>1207</name>
</trkpt>
<trkpt lat="48.952550" lon="8.650723">
<ele>262.5</ele>
<speed>0.50</speed>
<course>52.7</course>
<desc>Speed 1.8 km/h Distance 1.98 km</desc>
<time>2010-10-24T10:48:02.48</time>
<name>1208</name>
</trkpt>
<trkpt lat="48.952557" lon="8.650737">
<ele>262.5</ele>
<speed>0.57</speed>
<course>58.7</course>
<desc>Speed 2.1 km/h Distance 1.98 km</desc>
<time>2010-10-24T10:48:03.48</time>
<name>1209</name>
</trkpt>
<trkpt lat="48.952563" lon="8.650753">
<ele>262.5</ele>
<speed>0.73</speed>
<course>71.3</course>
<desc>Speed 2.6 km/h Distance 1.98 km</desc>
<time>2010-10-24T10:48:04.48</time>
<name>1210</name>
</trkpt>
<trkpt lat="48.952567" lon="8.650768">
<ele>262.5</ele>
<speed>0.80</speed>
<course>81.3</course>
<desc>Speed 2.9 km/h Distance 1.98 km</desc>
<time>2010-10-24T10:48:05.48</time>
<name>1211</name>
</trkpt>
<trkpt lat="48.952568" lon="8.650785">
<ele>262.5</ele>
<speed>0.77</speed>
<course>116.1</course>
<desc>Speed 2.8 km/h Distance 1.98 km</desc>
<time>2010-10-24T10:48:06.48</time>
<name>1212</name>
</trkpt>
<trkpt lat="48.952553" lon="8.650832">
<ele>263.5</ele>
<speed>0.64</speed>
<course>90.0</course>
<desc>Speed 2.3 km/h Distance 1.99 km</desc>
<time>2010-10-24T10:48:08.47</time>
<name>1213</name>
</trkpt>
<trkpt lat="48.952553" lon="8.650843">
<ele>262.5</ele>
<speed>0.56</speed>
<course>44.3</course>
<desc>Speed 2.0 km/h Distance 1.99 km</desc>
<time>2010-10-24T10:48:09.47</time>
<name>1214</name>
</trkpt>
<trkpt lat="48.952560" lon="8.650853">
<ele>262.0</ele>
<speed>0.61</speed>
<course>96.7</course>
<desc>Speed 2.2 km/h Distance 1.99 km</desc>
<time>2010-10-24T10:48:10.46</time>
<name>1215</name>
</trkpt>
<trkpt lat="48.952558" lon="8.650875">
<ele>259.0</ele>
<speed>0.87</speed>
<course>132.1</course>
<desc>Speed 3.1 km/h Distance 1.99 km</desc>
<time>2010-10-24T10:48:12.46</time>
<name>1216</name>
</trkpt>
<trkpt lat="48.952532" lon="8.650920">
<ele>256.5</ele>
<speed>1.07</speed>
<course>113.5</course>
<desc>Speed 3.9 km/h Distance 2.00 km</desc>
<time>2010-10-24T10:48:14.46</time>
<name>1217</name>
</trkpt>
<trkpt lat="48.952528" lon="8.650932">
<ele>255.0</ele>
<speed>0.56</speed>
<course>79.2</course>
<desc>Speed 2.0 km/h Distance 2.00 km</desc>
<time>2010-10-24T10:48:15.45</time>
<name>1218</name>
</trkpt>
<trkpt lat="48.952530" lon="8.650945">
<ele>254.0</ele>
<speed>0.60</speed>
<course>127.2</course>
<desc>Speed 2.2 km/h Distance 2.00 km</desc>
<time>2010-10-24T10:48:16.45</time>
<name>1219</name>
</trkpt>
<trkpt lat="48.952517" lon="8.650972">
<ele>254.5</ele>
<speed>0.56</speed>
<course>121.3</course>
<desc>Speed 2.0 km/h Distance 2.00 km</desc>
<time>2010-10-24T10:48:17.45</time>
<name>1220</name>
</trkpt>
<trkpt lat="48.952487" lon="8.651047">
<ele>259.5</ele>
<speed>0.68</speed>
<course>114.1</course>
<desc>Speed 2.4 km/h Distance 2.01 km</desc>
<time>2010-10-24T10:48:19.44</time>
<name>1221</name>
</trkpt>
<trkpt lat="48.952478" lon="8.651075">
<ele>258.5</ele>
<speed>0.37</speed>
<course>38.1</course>
<desc>Speed 1.3 km/h Distance 2.01 km</desc>
<time>2010-10-24T10:48:20.44</time>
<name>1222</name>
</trkpt>
<trkpt lat="48.952487" lon="8.651085">
<ele>257.5</ele>
<speed>0.46</speed>
<course>102.3</course>
<desc>Speed 1.7 km/h Distance 2.01 km</desc>
<time>2010-10-24T10:48:21.43</time>
<name>1223</name>
</trkpt>
<trkpt lat="48.952483" lon="8.651108">
<ele>259.0</ele>
<speed>0.43</speed>
<course>103.2</course>
<desc>Speed 1.5 km/h Distance 2.01 km</desc>
<time>2010-10-24T10:48:22.43</time>
<name>1224</name>
</trkpt>
<trkpt lat="48.952480" lon="8.651130">
<ele>258.5</ele>
<speed>0.57</speed>
<course>107.0</course>
<desc>Speed 2.1 km/h Distance 2.01 km</desc>
<time>2010-10-24T10:48:23.42</time>
<name>1225</name>
</trkpt>
<trkpt lat="48.952477" lon="8.651147">
<ele>258.0</ele>
<speed>1.12</speed>
<course>90.0</course>
<desc>Speed 4.0 km/h Distance 2.01 km</desc>
<time>2010-10-24T10:48:24.41</time>
<name>1226</name>
</trkpt>
<trkpt lat="48.952477" lon="8.651162">
<ele>257.0</ele>
<speed>0.56</speed>
<course>121.3</course>
<desc>Speed 2.0 km/h Distance 2.02 km</desc>
<time>2010-10-24T10:48:25.41</time>
<name>1227</name>
</trkpt>
<trkpt lat="48.952470" lon="8.651178">
<ele>255.5</ele>
<speed>0.40</speed>
<course>109.4</course>
<desc>Speed 1.4 km/h Distance 2.02 km</desc>
<time>2010-10-24T10:48:26.41</time>
<name>1228</name>
</trkpt>
<trkpt lat="48.952465" lon="8.651200">
<ele>254.5</ele>
<speed>0.37</speed>
<course>123.5</course>
<desc>Speed 1.3 km/h Distance 2.02 km</desc>
<time>2010-10-24T10:48:27.40</time>
<name>1229</name>
</trkpt>
<trkpt lat="48.952448" lon="8.651238">
<ele>253.5</ele>
<speed>0.83</speed>
<course>52.6</course>
<desc>Speed 3.0 km/h Distance 2.02 km</desc>
<time>2010-10-24T10:48:29.40</time>
<name>1230</name>
</trkpt>
<trkpt lat="48.952455" lon="8.651252">
<ele>253.0</ele>
<speed>0.43</speed>
<course>44.3</course>
<desc>Speed 1.5 km/h Distance 2.02 km</desc>
<time>2010-10-24T10:48:30.39</time>
<name>1231</name>
</trkpt>
<trkpt lat="48.952462" lon="8.651262">
<ele>252.0</ele>
<speed>0.41</speed>
<course>75.8</course>
<desc>Speed 1.5 km/h Distance 2.02 km</desc>
<time>2010-10-24T10:48:31.38</time>
<name>1232</name>
</trkpt>
<trkpt lat="48.952463" lon="8.651272">
<ele>251.0</ele>
<speed>0.57</speed>
<course>72.9</course>
<desc>Speed 2.1 km/h Distance 2.03 km</desc>
<time>2010-10-24T10:48:32.39</time>
<name>1233</name>
</trkpt>
<trkpt lat="48.952465" lon="8.651280">
<ele>250.0</ele>
<speed>0.38</speed>
<course>90.0</course>
<desc>Speed 1.4 km/h Distance 2.03 km</desc>
<time>2010-10-24T10:48:33.37</time>
<name>1234</name>
</trkpt>
<trkpt lat="48.952465" lon="8.651292">
<ele>248.5</ele>
<speed>0.46</speed>
<course>71.3</course>
<desc>Speed 1.7 km/h Distance 2.03 km</desc>
<time>2010-10-24T10:48:34.37</time>
<name>1235</name>
</trkpt>
<trkpt lat="48.952468" lon="8.651307">
<ele>248.0</ele>
<speed>0.46</speed>
<course>136.5</course>
<desc>Speed 1.7 km/h Distance 2.03 km</desc>
<time>2010-10-24T10:48:35.36</time>
<name>1236</name>
</trkpt>
<trkpt lat="48.952438" lon="8.651350">
<ele>251.0</ele>
<speed>0.33</speed>
<course>107.1</course>
<desc>Speed 1.2 km/h Distance 2.03 km</desc>
<time>2010-10-24T10:48:37.36</time>
<name>1237</name>
</trkpt>
<trkpt lat="48.952437" lon="8.651358">
<ele>249.5</ele>
<speed>0.31</speed>
<course>58.6</course>
<desc>Speed 1.1 km/h Distance 2.03 km</desc>
<time>2010-10-24T10:48:38.36</time>
<name>1238</name>
</trkpt>
<trkpt lat="48.952440" lon="8.651367">
<ele>248.0</ele>
<speed>0.36</speed>
<course>58.7</course>
<desc>Speed 1.3 km/h Distance 2.03 km</desc>
<time>2010-10-24T10:48:39.35</time>
<name>1239</name>
</trkpt>
<trkpt lat="48.952447" lon="8.651383">
<ele>247.0</ele>
<speed>0.68</speed>
<course>60.1</course>
<desc>Speed 2.4 km/h Distance 2.04 km</desc>
<time>2010-10-24T10:48:40.34</time>
<name>1240</name>
</trkpt>
<trkpt lat="48.952452" lon="8.651397">
<ele>246.5</ele>
<speed>0.54</speed>
<course>113.5</course>
<desc>Speed 1.9 km/h Distance 2.04 km</desc>
<time>2010-10-24T10:48:41.35</time>
<name>1241</name>
</trkpt>
<trkpt lat="48.952445" lon="8.651420">
<ele>248.5</ele>
<speed>0.49</speed>
<course>104.1</course>
<desc>Speed 1.8 km/h Distance 2.04 km</desc>
<time>2010-10-24T10:48:42.34</time>
<name>1242</name>
</trkpt>
<trkpt lat="48.952443" lon="8.651430">
<ele>247.0</ele>
<speed>0.36</speed>
<course>100.7</course>
<desc>Speed 1.3 km/h Distance 2.04 km</desc>
<time>2010-10-24T10:48:43.34</time>
<name>1243</name>
</trkpt>
<trkpt lat="48.952442" lon="8.651443">
<ele>244.5</ele>
<speed>0.46</speed>
<course>63.2</course>
<desc>Speed 1.7 km/h Distance 2.04 km</desc>
<time>2010-10-24T10:48:45.33</time>
<name>1244</name>
</trkpt>
<trkpt lat="48.952445" lon="8.651453">
<ele>243.5</ele>
<speed>0.43</speed>
<course>63.1</course>
<desc>Speed 1.5 km/h Distance 2.04 km</desc>
<time>2010-10-24T10:48:46.33</time>
<name>1245</name>
</trkpt>
<trkpt lat="48.952450" lon="8.651468">
<ele>243.5</ele>
<speed>0.77</speed>
<course>118.3</course>
<desc>Speed 2.8 km/h Distance 2.04 km</desc>
<time>2010-10-24T10:48:47.32</time>
<name>1246</name>
</trkpt>
<trkpt lat="48.952440" lon="8.651497">
<ele>244.5</ele>
<speed>1.09</speed>
<course>120.6</course>
<desc>Speed 3.9 km/h Distance 2.04 km</desc>
<time>2010-10-24T10:48:48.31</time>
<name>1247</name>
</trkpt>
<trkpt lat="48.952408" lon="8.651578">
<ele>249.0</ele>
<speed>0.63</speed>
<course>65.5</course>
<desc>Speed 2.3 km/h Distance 2.05 km</desc>
<time>2010-10-24T10:48:50.31</time>
<name>1248</name>
</trkpt>
<trkpt lat="48.952413" lon="8.651595">
<ele>249.0</ele>
<speed>0.66</speed>
<course>104.1</course>
<desc>Speed 2.4 km/h Distance 2.05 km</desc>
<time>2010-10-24T10:48:51.30</time>
<name>1249</name>
</trkpt>
<trkpt lat="48.952412" lon="8.651605">
<ele>248.5</ele>
<speed>0.40</speed>
<course>52.8</course>
<desc>Speed 1.4 km/h Distance 2.05 km</desc>
<time>2010-10-24T10:48:52.30</time>
<name>1250</name>
</trkpt>
<trkpt lat="48.952417" lon="8.651615">
<ele>248.0</ele>
<speed>0.46</speed>
<course>122.9</course>
<desc>Speed 1.7 km/h Distance 2.05 km</desc>
<time>2010-10-24T10:48:53.29</time>
<name>1251</name>
</trkpt>
<trkpt lat="48.952412" lon="8.651627">
<ele>249.0</ele>
<speed>0.41</speed>
<course>104.2</course>
<desc>Speed 1.5 km/h Distance 2.06 km</desc>
<time>2010-10-24T10:48:54.29</time>
<name>1252</name>
</trkpt>
<trkpt lat="48.952408" lon="8.651647">
<ele>250.0</ele>
<speed>0.62</speed>
<course>134.4</course>
<desc>Speed 2.2 km/h Distance 2.06 km</desc>
<time>2010-10-24T10:48:55.28</time>
<name>1253</name>
</trkpt>
<trkpt lat="48.952393" lon="8.651670">
<ele>251.5</ele>
<speed>0.76</speed>
<course>133.2</course>
<desc>Speed 2.7 km/h Distance 2.06 km</desc>
<time>2010-10-24T10:48:56.28</time>
<name>1254</name>
</trkpt>
<trkpt lat="48.952380" lon="8.651692">
<ele>252.5</ele>
<speed>0.43</speed>
<course>130.9</course>
<desc>Speed 1.5 km/h Distance 2.06 km</desc>
<time>2010-10-24T10:48:57.27</time>
<name>1255</name>
</trkpt>
<trkpt lat="48.952373" lon="8.651703">
<ele>253.0</ele>
<speed>0.40</speed>
<course>97.2</course>
<desc>Speed 1.4 km/h Distance 2.06 km</desc>
<time>2010-10-24T10:48:58.27</time>
<name>1256</name>
</trkpt>
<trkpt lat="48.952372" lon="8.651723">
<ele>254.0</ele>
<speed>0.51</speed>
<course>97.2</course>
<desc>Speed 1.8 km/h Distance 2.06 km</desc>
<time>2010-10-24T10:48:59.26</time>
<name>1257</name>
</trkpt>
<trkpt lat="48.952370" lon="8.651743">
<ele>255.5</ele>
<speed>0.37</speed>
<course>106.9</course>
<desc>Speed 1.3 km/h Distance 2.07 km</desc>
<time>2010-10-24T10:49:00.26</time>
<name>1258</name>
</trkpt>
<trkpt lat="48.952367" lon="8.651760">
<ele>255.5</ele>
<speed>0.47</speed>
<course>129.6</course>
<desc>Speed 1.7 km/h Distance 2.07 km</desc>
<time>2010-10-24T10:49:01.26</time>
<name>1259</name>
</trkpt>
<trkpt lat="48.952357" lon="8.651778">
<ele>256.0</ele>
<speed>1.01</speed>
<course>119.0</course>
<desc>Speed 3.6 km/h Distance 2.07 km</desc>
<time>2010-10-24T10:49:02.26</time>
<name>1260</name>
</trkpt>
<trkpt lat="48.952350" lon="8.651797">
<ele>256.0</ele>
<speed>0.56</speed>
<course>127.3</course>
<desc>Speed 2.0 km/h Distance 2.07 km</desc>
<time>2010-10-24T10:49:03.26</time>
<name>1261</name>
</trkpt>
<trkpt lat="48.952340" lon="8.651817">
<ele>257.0</ele>
<speed>0.46</speed>
<course>124.6</course>
<desc>Speed 1.7 km/h Distance 2.07 km</desc>
<time>2010-10-24T10:49:04.25</time>
<name>1262</name>
</trkpt>
<trkpt lat="48.952300" lon="8.651905">
<ele>261.0</ele>
<speed>0.81</speed>
<course>90.0</course>
<desc>Speed 2.9 km/h Distance 2.08 km</desc>
<time>2010-10-24T10:49:07.24</time>
<name>1263</name>
</trkpt>
<trkpt lat="48.952300" lon="8.651953">
<ele>262.5</ele>
<speed>0.34</speed>
<course>76.1</course>
<desc>Speed 1.2 km/h Distance 2.08 km</desc>
<time>2010-10-24T10:49:09.27</time>
<name>1264</name>
</trkpt>
<trkpt lat="48.952310" lon="8.652015">
<ele>263.0</ele>
<speed>1.37</speed>
<course>118.8</course>
<desc>Speed 4.9 km/h Distance 2.09 km</desc>
<time>2010-10-24T10:49:11.23</time>
<name>1265</name>
</trkpt>
<trkpt lat="48.952273" lon="8.652117">
<ele>265.5</ele>
<speed>0.79</speed>
<course>110.8</course>
<desc>Speed 2.8 km/h Distance 2.10 km</desc>
<time>2010-10-24T10:49:13.23</time>
<name>1266</name>
</trkpt>
<trkpt lat="48.952257" lon="8.652183">
<ele>268.0</ele>
<speed>0.69</speed>
<course>109.7</course>
<desc>Speed 2.5 km/h Distance 2.10 km</desc>
<time>2010-10-24T10:49:15.23</time>
<name>1267</name>
</trkpt>
<trkpt lat="48.952250" lon="8.652212">
<ele>270.5</ele>
<speed>0.81</speed>
<course>102.3</course>
<desc>Speed 2.9 km/h Distance 2.10 km</desc>
<time>2010-10-24T10:49:16.23</time>
<name>1268</name>
</trkpt>
<trkpt lat="48.952248" lon="8.652223">
<ele>270.5</ele>
<speed>0.56</speed>
<course>72.9</course>
<desc>Speed 2.0 km/h Distance 2.10 km</desc>
<time>2010-10-24T10:49:17.22</time>
<name>1269</name>
</trkpt>
<trkpt lat="48.952250" lon="8.652232">
<ele>270.5</ele>
<speed>0.89</speed>
<course>345.1</course>
<desc>Speed 3.2 km/h Distance 2.11 km</desc>
<time>2010-10-24T10:49:18.22</time>
<name>1270</name>
</trkpt>
<trkpt lat="48.952258" lon="8.652228">
<ele>270.5</ele>
<speed>0.97</speed>
<course>8.1</course>
<desc>Speed 3.5 km/h Distance 2.11 km</desc>
<time>2010-10-24T10:49:19.21</time>
<name>1271</name>
</trkpt>
<trkpt lat="48.952263" lon="8.652230">
<ele>270.0</ele>
<speed>0.98</speed>
<course>8.1</course>
<desc>Speed 3.5 km/h Distance 2.11 km</desc>
<time>2010-10-24T10:49:20.21</time>
<name>1272</name>
</trkpt>
<trkpt lat="48.952263" lon="8.652232">
<ele>269.5</ele>
<speed>0.51</speed>
<course>90.0</course>
<desc>Speed 1.8 km/h Distance 2.11 km</desc>
<time>2010-10-24T10:49:21.21</time>
<name>1273</name>
</trkpt>
<trkpt lat="48.952263" lon="8.652235">
<ele>269.0</ele>
<speed>0.62</speed>
<course>123.3</course>
<desc>Speed 2.2 km/h Distance 2.11 km</desc>
<time>2010-10-24T10:49:22.20</time>
<name>1274</name>
</trkpt>
<trkpt lat="48.952258" lon="8.652247">
<ele>268.5</ele>
<speed>0.38</speed>
<course>116.9</course>
<desc>Speed 1.4 km/h Distance 2.11 km</desc>
<time>2010-10-24T10:49:23.20</time>
<name>1275</name>
</trkpt>
<trkpt lat="48.952252" lon="8.652267">
<ele>269.0</ele>
<speed>0.50</speed>
<course>156.2</course>
<desc>Speed 1.8 km/h Distance 2.11 km</desc>
<time>2010-10-24T10:49:24.19</time>
<name>1276</name>
</trkpt>
<trkpt lat="48.952247" lon="8.652270">
<ele>268.5</ele>
<speed>0.56</speed>
<course>119.0</course>
<desc>Speed 2.0 km/h Distance 2.11 km</desc>
<time>2010-10-24T10:49:25.19</time>
<name>1277</name>
</trkpt>
<trkpt lat="48.952240" lon="8.652288">
<ele>270.0</ele>
<speed>0.82</speed>
<course>122.3</course>
<desc>Speed 3.0 km/h Distance 2.11 km</desc>
<time>2010-10-24T10:49:26.18</time>
<name>1278</name>
</trkpt>
<trkpt lat="48.952232" lon="8.652308">
<ele>272.0</ele>
<speed>0.67</speed>
<course>119.0</course>
<desc>Speed 2.4 km/h Distance 2.11 km</desc>
<time>2010-10-24T10:49:27.18</time>
<name>1279</name>
</trkpt>
<trkpt lat="48.952225" lon="8.652327">
<ele>273.5</ele>
<speed>0.64</speed>
<course>0.0</course>
<desc>Speed 2.3 km/h Distance 2.12 km</desc>
<time>2010-10-24T10:49:28.18</time>
<name>1280</name>
</trkpt>
<trkpt lat="48.952228" lon="8.652327">
<ele>274.0</ele>
<speed>1.12</speed>
<course>104.4</course>
<desc>Speed 4.0 km/h Distance 2.12 km</desc>
<time>2010-10-24T10:49:29.18</time>
<name>1281</name>
</trkpt>
<trkpt lat="48.952227" lon="8.652337">
<ele>274.5</ele>
<speed>0.54</speed>
<course>108.7</course>
<desc>Speed 1.9 km/h Distance 2.12 km</desc>
<time>2010-10-24T10:49:30.18</time>
<name>1282</name>
</trkpt>
<trkpt lat="48.952223" lon="8.652352">
<ele>275.0</ele>
<speed>0.56</speed>
<course>12.6</course>
<desc>Speed 2.0 km/h Distance 2.12 km</desc>
<time>2010-10-24T10:49:31.17</time>
<name>1283</name>
</trkpt>
<trkpt lat="48.952227" lon="8.652353">
<ele>274.5</ele>
<speed>0.55</speed>
<course>0.0</course>
<desc>Speed 2.0 km/h Distance 2.12 km</desc>
<time>2010-10-24T10:49:32.17</time>
<name>1284</name>
</trkpt>
<trkpt lat="48.952232" lon="8.652353">
<ele>273.5</ele>
<speed>0.56</speed>
<course>127.3</course>
<desc>Speed 2.0 km/h Distance 2.12 km</desc>
<time>2010-10-24T10:49:33.16</time>
<name>1285</name>
</trkpt>
<trkpt lat="48.952225" lon="8.652367">
<ele>275.5</ele>
<speed>0.72</speed>
<course>249.1</course>
<desc>Speed 2.6 km/h Distance 2.12 km</desc>
<time>2010-10-24T10:49:35.15</time>
<name>1286</name>
</trkpt>
<trkpt lat="48.952223" lon="8.652360">
<ele>274.5</ele>
<speed>0.81</speed>
<course>253.1</course>
<desc>Speed 2.9 km/h Distance 2.12 km</desc>
<time>2010-10-24T10:49:36.14</time>
<name>1287</name>
</trkpt>
<trkpt lat="48.952222" lon="8.652352">
<ele>273.0</ele>
<speed>0.75</speed>
<course>8.1</course>
<desc>Speed 2.7 km/h Distance 2.12 km</desc>
<time>2010-10-24T10:49:37.15</time>
<name>1288</name>
</trkpt>
<trkpt lat="48.952227" lon="8.652352">
<ele>273.0</ele>
<speed>0.41</speed>
<course>231.9</course>
<desc>Speed 1.5 km/h Distance 2.12 km</desc>
<time>2010-10-24T10:49:38.14</time>
<name>1289</name>
</trkpt>
<trkpt lat="48.952225" lon="8.652348">
<ele>272.5</ele>
<speed>0.68</speed>
<course>270.0</course>
<desc>Speed 2.4 km/h Distance 2.12 km</desc>
<time>2010-10-24T10:49:39.13</time>
<name>1290</name>
</trkpt>
<trkpt lat="48.952225" lon="8.652347">
<ele>271.0</ele>
<speed>0.55</speed>
<course>347.4</course>
<desc>Speed 2.0 km/h Distance 2.12 km</desc>
<time>2010-10-24T10:49:40.13</time>
<name>1291</name>
</trkpt>
<trkpt lat="48.952227" lon="8.652345">
<ele>270.0</ele>
<speed>0.69</speed>
<course>0.0</course>
<desc>Speed 2.5 km/h Distance 2.12 km</desc>
<time>2010-10-24T10:49:41.13</time>
<name>1292</name>
</trkpt>
<trkpt lat="48.952228" lon="8.652345">
<ele>269.0</ele>
<speed>0.68</speed>
<course>341.2</course>
<desc>Speed 2.4 km/h Distance 2.12 km</desc>
<time>2010-10-24T10:49:42.13</time>
<name>1293</name>
</trkpt>
<trkpt lat="48.952235" lon="8.652342">
<ele>270.0</ele>
<speed>0.87</speed>
<course>249.1</course>
<desc>Speed 3.1 km/h Distance 2.12 km</desc>
<time>2010-10-24T10:49:43.12</time>
<name>1294</name>
</trkpt>
<trkpt lat="48.952233" lon="8.652335">
<ele>269.5</ele>
<speed>0.74</speed>
<course>31.6</course>
<desc>Speed 2.7 km/h Distance 2.12 km</desc>
<time>2010-10-24T10:49:44.12</time>
<name>1295</name>
</trkpt>
<trkpt lat="48.952237" lon="8.652338">
<ele>269.5</ele>
<speed>0.58</speed>
<course>347.4</course>
<desc>Speed 2.1 km/h Distance 2.12 km</desc>
<time>2010-10-24T10:49:45.12</time>
<name>1296</name>
</trkpt>
<trkpt lat="48.952252" lon="8.652333">
<ele>271.0</ele>
<speed>1.00</speed>
<course>37.2</course>
<desc>Speed 3.6 km/h Distance 2.13 km</desc>
<time>2010-10-24T10:49:46.12</time>
<name>1297</name>
</trkpt>
<trkpt lat="48.952253" lon="8.652335">
<ele>270.5</ele>
<speed>0.69</speed>
<course>270.0</course>
<desc>Speed 2.5 km/h Distance 2.13 km</desc>
<time>2010-10-24T10:49:47.12</time>
<name>1298</name>
</trkpt>
<trkpt lat="48.952253" lon="8.652328">
<ele>269.5</ele>
<speed>0.62</speed>
<course>336.2</course>
<desc>Speed 2.2 km/h Distance 2.13 km</desc>
<time>2010-10-24T10:49:48.11</time>
<name>1299</name>
</trkpt>
<trkpt lat="48.952258" lon="8.652325">
<ele>269.0</ele>
<speed>0.68</speed>
<course>319.1</course>
<desc>Speed 2.4 km/h Distance 2.13 km</desc>
<time>2010-10-24T10:49:49.11</time>
<name>1300</name>
</trkpt>
<trkpt lat="48.952263" lon="8.652318">
<ele>269.0</ele>
<speed>0.75</speed>
<course>0.0</course>
<desc>Speed 2.7 km/h Distance 2.13 km</desc>
<time>2010-10-24T10:49:50.10</time>
<name>1301</name>
</trkpt>
<trkpt lat="48.952285" lon="8.652318">
<ele>271.0</ele>
<speed>0.86</speed>
<course>338.5</course>
<desc>Speed 3.1 km/h Distance 2.13 km</desc>
<time>2010-10-24T10:49:51.10</time>
<name>1302</name>
</trkpt>
<trkpt lat="48.952293" lon="8.652313">
<ele>271.0</ele>
<speed>0.87</speed>
<course>345.1</course>
<desc>Speed 3.1 km/h Distance 2.13 km</desc>
<time>2010-10-24T10:49:52.09</time>
<name>1303</name>
</trkpt>
<trkpt lat="48.952302" lon="8.652310">
<ele>271.0</ele>
<speed>0.93</speed>
<course>319.1</course>
<desc>Speed 3.3 km/h Distance 2.13 km</desc>
<time>2010-10-24T10:49:53.09</time>
<name>1304</name>
</trkpt>
<trkpt lat="48.952307" lon="8.652303">
<ele>270.0</ele>
<speed>0.82</speed>
<course>291.3</course>
<desc>Speed 3.0 km/h Distance 2.13 km</desc>
<time>2010-10-24T10:49:54.09</time>
<name>1305</name>
</trkpt>
<trkpt lat="48.952308" lon="8.652297">
<ele>270.0</ele>
<speed>0.66</speed>
<course>327.4</course>
<desc>Speed 2.4 km/h Distance 2.13 km</desc>
<time>2010-10-24T10:49:55.08</time>
<name>1306</name>
</trkpt>
<trkpt lat="48.952315" lon="8.652290">
<ele>269.5</ele>
<speed>0.76</speed>
<course>307.0</course>
<desc>Speed 2.7 km/h Distance 2.13 km</desc>
<time>2010-10-24T10:49:56.07</time>
<name>1307</name>
</trkpt>
<trkpt lat="48.952318" lon="8.652283">
<ele>269.0</ele>
<speed>0.93</speed>
<course>270.0</course>
<desc>Speed 3.3 km/h Distance 2.14 km</desc>
<time>2010-10-24T10:49:57.07</time>
<name>1308</name>
</trkpt>
<trkpt lat="48.952318" lon="8.652277">
<ele>268.5</ele>
<speed>0.67</speed>
<course>326.8</course>
<desc>Speed 2.4 km/h Distance 2.14 km</desc>
<time>2010-10-24T10:49:58.06</time>
<name>1309</name>
</trkpt>
<trkpt lat="48.952323" lon="8.652272">
<ele>268.0</ele>
<speed>0.68</speed>
<course>270.0</course>
<desc>Speed 2.4 km/h Distance 2.14 km</desc>
<time>2010-10-24T10:49:59.06</time>
<name>1310</name>
</trkpt>
<trkpt lat="48.952323" lon="8.652265">
<ele>268.0</ele>
<speed>0.62</speed>
<course>287.1</course>
<desc>Speed 2.2 km/h Distance 2.14 km</desc>
<time>2010-10-24T10:50:00.05</time>
<name>1311</name>
</trkpt>
<trkpt lat="48.952325" lon="8.652257">
<ele>267.0</ele>
<speed>0.81</speed>
<course>290.5</course>
<desc>Speed 2.9 km/h Distance 2.14 km</desc>
<time>2010-10-24T10:50:01.05</time>
<name>1312</name>
</trkpt>
<trkpt lat="48.952327" lon="8.652250">
<ele>267.0</ele>
<speed>0.70</speed>
<course>327.7</course>
<desc>Speed 2.5 km/h Distance 2.14 km</desc>
<time>2010-10-24T10:50:02.05</time>
<name>1313</name>
</trkpt>
<trkpt lat="48.952332" lon="8.652245">
<ele>267.0</ele>
<speed>0.88</speed>
<course>326.8</course>
<desc>Speed 3.2 km/h Distance 2.14 km</desc>
<time>2010-10-24T10:50:03.05</time>
<name>1314</name>
</trkpt>
<trkpt lat="48.952337" lon="8.652240">
<ele>266.5</ele>
<speed>0.50</speed>
<course>297.0</course>
<desc>Speed 1.8 km/h Distance 2.14 km</desc>
<time>2010-10-24T10:50:04.05</time>
<name>1315</name>
</trkpt>
<trkpt lat="48.952340" lon="8.652230">
<ele>265.5</ele>
<speed>0.82</speed>
<course>307.6</course>
<desc>Speed 3.0 km/h Distance 2.14 km</desc>
<time>2010-10-24T10:50:05.04</time>
<name>1316</name>
</trkpt>
<trkpt lat="48.952343" lon="8.652223">
<ele>265.5</ele>
<speed>0.70</speed>
<course>284.2</course>
<desc>Speed 2.5 km/h Distance 2.14 km</desc>
<time>2010-10-24T10:50:06.03</time>
<name>1317</name>
</trkpt>
<trkpt lat="48.952345" lon="8.652213">
<ele>265.0</ele>
<speed>0.82</speed>
<course>284.2</course>
<desc>Speed 3.0 km/h Distance 2.14 km</desc>
<time>2010-10-24T10:50:07.03</time>
<name>1318</name>
</trkpt>
<trkpt lat="48.952347" lon="8.652203">
<ele>264.5</ele>
<speed>0.89</speed>
<course>307.0</course>
<desc>Speed 3.2 km/h Distance 2.14 km</desc>
<time>2010-10-24T10:50:08.03</time>
<name>1319</name>
</trkpt>
<trkpt lat="48.952350" lon="8.652197">
<ele>263.5</ele>
<speed>0.63</speed>
<course>312.6</course>
<desc>Speed 2.3 km/h Distance 2.14 km</desc>
<time>2010-10-24T10:50:09.03</time>
<name>1320</name>
</trkpt>
<trkpt lat="48.952355" lon="8.652188">
<ele>263.0</ele>
<speed>0.72</speed>
<course>290.9</course>
<desc>Speed 2.6 km/h Distance 2.14 km</desc>
<time>2010-10-24T10:50:10.03</time>
<name>1321</name>
</trkpt>
<trkpt lat="48.952357" lon="8.652182">
<ele>262.0</ele>
<speed>0.66</speed>
<course>293.5</course>
<desc>Speed 2.4 km/h Distance 2.14 km</desc>
<time>2010-10-24T10:50:11.02</time>
<name>1322</name>
</trkpt>
<trkpt lat="48.952360" lon="8.652170">
<ele>261.0</ele>
<speed>0.89</speed>
<course>351.3</course>
<desc>Speed 3.2 km/h Distance 2.14 km</desc>
<time>2010-10-24T10:50:12.02</time>
<name>1323</name>
</trkpt>
<trkpt lat="48.952382" lon="8.652165">
<ele>262.5</ele>
<speed>0.85</speed>
<course>346.7</course>
<desc>Speed 3.1 km/h Distance 2.15 km</desc>
<time>2010-10-24T10:50:13.02</time>
<name>1324</name>
</trkpt>
<trkpt lat="48.952400" lon="8.652158">
<ele>263.0</ele>
<speed>0.64</speed>
<course>284.1</course>
<desc>Speed 2.3 km/h Distance 2.15 km</desc>
<time>2010-10-24T10:50:14.02</time>
<name>1325</name>
</trkpt>
<trkpt lat="48.952402" lon="8.652148">
<ele>263.0</ele>
<speed>0.64</speed>
<course>280.7</course>
<desc>Speed 2.3 km/h Distance 2.15 km</desc>
<time>2010-10-24T10:50:15.01</time>
<name>1326</name>
</trkpt>
<trkpt lat="48.952403" lon="8.652135">
<ele>262.0</ele>
<speed>0.98</speed>
<course>295.4</course>
<desc>Speed 3.5 km/h Distance 2.15 km</desc>
<time>2010-10-24T10:50:16.01</time>
<name>1327</name>
</trkpt>
<trkpt lat="48.952412" lon="8.652108">
<ele>263.0</ele>
<speed>0.87</speed>
<course>307.2</course>
<desc>Speed 3.1 km/h Distance 2.15 km</desc>
<time>2010-10-24T10:50:17.01</time>
<name>1328</name>
</trkpt>
<trkpt lat="48.952417" lon="8.652098">
<ele>263.0</ele>
<speed>0.81</speed>
<course>290.9</course>
<desc>Speed 2.9 km/h Distance 2.15 km</desc>
<time>2010-10-24T10:50:18.00</time>
<name>1329</name>
</trkpt>
<trkpt lat="48.952420" lon="8.652085">
<ele>262.5</ele>
<speed>0.85</speed>
<course>345.1</course>
<desc>Speed 3.1 km/h Distance 2.16 km</desc>
<time>2010-10-24T10:50:19.00</time>
<name>1330</name>
</trkpt>
<trkpt lat="48.952437" lon="8.652078">
<ele>262.5</ele>
<speed>0.44</speed>
<course>347.4</course>
<desc>Speed 1.6 km/h Distance 2.16 km</desc>
<time>2010-10-24T10:50:20.00</time>
<name>1331</name>
</trkpt>
<trkpt lat="48.952457" lon="8.652072">
<ele>263.0</ele>
<speed>0.40</speed>
<course>343.7</course>
<desc>Speed 1.4 km/h Distance 2.16 km</desc>
<time>2010-10-24T10:50:21.00</time>
<name>1332</name>
</trkpt>
<trkpt lat="48.952487" lon="8.652058">
<ele>262.5</ele>
<speed>0.49</speed>
<course>318.1</course>
<desc>Speed 1.8 km/h Distance 2.16 km</desc>
<time>2010-10-24T10:50:23.00</time>
<name>1333</name>
</trkpt>
<trkpt lat="48.952492" lon="8.652052">
<ele>262.0</ele>
<speed>0.47</speed>
<course>335.8</course>
<desc>Speed 1.7 km/h Distance 2.16 km</desc>
<time>2010-10-24T10:50:23.99</time>
<name>1334</name>
</trkpt>
<trkpt lat="48.952502" lon="8.652045">
<ele>261.5</ele>
<speed>0.56</speed>
<course>343.4</course>
<desc>Speed 2.0 km/h Distance 2.17 km</desc>
<time>2010-10-24T10:50:24.98</time>
<name>1335</name>
</trkpt>
<trkpt lat="48.952517" lon="8.652038">
<ele>262.0</ele>
<speed>0.46</speed>
<course>326.6</course>
<desc>Speed 1.7 km/h Distance 2.17 km</desc>
<time>2010-10-24T10:50:25.98</time>
<name>1336</name>
</trkpt>
<trkpt lat="48.952527" lon="8.652028">
<ele>262.0</ele>
<speed>0.57</speed>
<course>333.6</course>
<desc>Speed 2.1 km/h Distance 2.17 km</desc>
<time>2010-10-24T10:50:26.98</time>
<name>1337</name>
</trkpt>
<trkpt lat="48.952533" lon="8.652023">
<ele>262.0</ele>
<speed>0.41</speed>
<course>290.8</course>
<desc>Speed 1.5 km/h Distance 2.17 km</desc>
<time>2010-10-24T10:50:27.97</time>
<name>1338</name>
</trkpt>
<trkpt lat="48.952540" lon="8.651997">
<ele>263.5</ele>
<speed>1.00</speed>
<course>286.9</course>
<desc>Speed 3.6 km/h Distance 2.17 km</desc>
<time>2010-10-24T10:50:28.97</time>
<name>1339</name>
</trkpt>
<trkpt lat="48.952547" lon="8.651963">
<ele>265.0</ele>
<speed>1.14</speed>
<course>293.5</course>
<desc>Speed 4.1 km/h Distance 2.17 km</desc>
<time>2010-10-24T10:50:29.97</time>
<name>1340</name>
</trkpt>
<trkpt lat="48.952550" lon="8.651952">
<ele>264.5</ele>
<speed>0.92</speed>
<course>319.7</course>
<desc>Speed 3.3 km/h Distance 2.17 km</desc>
<time>2010-10-24T10:50:30.96</time>
<name>1341</name>
</trkpt>
<trkpt lat="48.952562" lon="8.651937">
<ele>265.0</ele>
<speed>0.91</speed>
<course>318.8</course>
<desc>Speed 3.3 km/h Distance 2.18 km</desc>
<time>2010-10-24T10:50:31.96</time>
<name>1342</name>
</trkpt>
<trkpt lat="48.952572" lon="8.651923">
<ele>266.0</ele>
<speed>0.50</speed>
<course>338.5</course>
<desc>Speed 1.8 km/h Distance 2.18 km</desc>
<time>2010-10-24T10:50:32.95</time>
<name>1343</name>
</trkpt>
<trkpt lat="48.952580" lon="8.651918">
<ele>266.0</ele>
<speed>0.40</speed>
<course>346.4</course>
<desc>Speed 1.4 km/h Distance 2.18 km</desc>
<time>2010-10-24T10:50:33.94</time>
<name>1344</name>
</trkpt>
<trkpt lat="48.952598" lon="8.651912">
<ele>264.5</ele>
<speed>0.37</speed>
<course>325.9</course>
<desc>Speed 1.3 km/h Distance 2.18 km</desc>
<time>2010-10-24T10:50:35.94</time>
<name>1345</name>
</trkpt>
<trkpt lat="48.952603" lon="8.651907">
<ele>263.5</ele>
<speed>0.36</speed>
<course>289.4</course>
<desc>Speed 1.3 km/h Distance 2.18 km</desc>
<time>2010-10-24T10:50:37.01</time>
<name>1346</name>
</trkpt>
<trkpt lat="48.952608" lon="8.651885">
<ele>264.5</ele>
<speed>1.51</speed>
<course>300.3</course>
<desc>Speed 5.4 km/h Distance 2.18 km</desc>
<time>2010-10-24T10:50:37.92</time>
<name>1347</name>
</trkpt>
<trkpt lat="48.952617" lon="8.651863">
<ele>265.0</ele>
<speed>1.65</speed>
<course>326.8</course>
<desc>Speed 5.9 km/h Distance 2.18 km</desc>
<time>2010-10-24T10:50:38.92</time>
<name>1348</name>
</trkpt>
<trkpt lat="48.952625" lon="8.651855">
<ele>265.5</ele>
<speed>0.81</speed>
<course>299.0</course>
<desc>Speed 2.9 km/h Distance 2.19 km</desc>
<time>2010-10-24T10:50:39.95</time>
<name>1349</name>
</trkpt>
<trkpt lat="48.952632" lon="8.651837">
<ele>266.0</ele>
<speed>1.26</speed>
<course>313.6</course>
<desc>Speed 4.5 km/h Distance 2.19 km</desc>
<time>2010-10-24T10:50:40.94</time>
<name>1350</name>
</trkpt>
<trkpt lat="48.952640" lon="8.651823">
<ele>265.5</ele>
<speed>0.94</speed>
<course>300.5</course>
<desc>Speed 3.4 km/h Distance 2.19 km</desc>
<time>2010-10-24T10:50:41.91</time>
<name>1351</name>
</trkpt>
<trkpt lat="48.952660" lon="8.651772">
<ele>268.0</ele>
<speed>0.79</speed>
<course>347.4</course>
<desc>Speed 2.8 km/h Distance 2.19 km</desc>
<time>2010-10-24T10:50:43.93</time>
<name>1352</name>
</trkpt>
<trkpt lat="48.952663" lon="8.651770">
<ele>267.0</ele>
<speed>0.34</speed>
<course>333.1</course>
<desc>Speed 1.2 km/h Distance 2.19 km</desc>
<time>2010-10-24T10:50:44.90</time>
<name>1353</name>
</trkpt>
<trkpt lat="48.952678" lon="8.651758">
<ele>265.5</ele>
<speed>0.51</speed>
<course>243.2</course>
<desc>Speed 1.8 km/h Distance 2.20 km</desc>
<time>2010-10-24T10:50:46.92</time>
<name>1354</name>
</trkpt>
<trkpt lat="48.952675" lon="8.651748">
<ele>264.5</ele>
<speed>0.87</speed>
<course>330.6</course>
<desc>Speed 3.1 km/h Distance 2.20 km</desc>
<time>2010-10-24T10:50:47.89</time>
<name>1355</name>
</trkpt>
<trkpt lat="48.952687" lon="8.651738">
<ele>264.5</ele>
<speed>0.73</speed>
<course>312.6</course>
<desc>Speed 2.6 km/h Distance 2.20 km</desc>
<time>2010-10-24T10:50:48.89</time>
<name>1356</name>
</trkpt>
<trkpt lat="48.952692" lon="8.651730">
<ele>264.5</ele>
<speed>0.67</speed>
<course>326.8</course>
<desc>Speed 2.4 km/h Distance 2.20 km</desc>
<time>2010-10-24T10:50:49.89</time>
<name>1357</name>
</trkpt>
<trkpt lat="48.952698" lon="8.651723">
<ele>263.5</ele>
<speed>0.46</speed>
<course>306.4</course>
<desc>Speed 1.7 km/h Distance 2.20 km</desc>
<time>2010-10-24T10:50:50.88</time>
<name>1358</name>
</trkpt>
<trkpt lat="48.952725" lon="8.651668">
<ele>265.5</ele>
<speed>0.43</speed>
<course>302.9</course>
<desc>Speed 1.5 km/h Distance 2.20 km</desc>
<time>2010-10-24T10:50:53.90</time>
<name>1359</name>
</trkpt>
<trkpt lat="48.952730" lon="8.651657">
<ele>264.0</ele>
<speed>0.54</speed>
<course>301.4</course>
<desc>Speed 1.9 km/h Distance 2.21 km</desc>
<time>2010-10-24T10:50:55.86</time>
<name>1360</name>
</trkpt>
<trkpt lat="48.952733" lon="8.651648">
<ele>263.0</ele>
<speed>0.50</speed>
<course>308.1</course>
<desc>Speed 1.8 km/h Distance 2.21 km</desc>
<time>2010-10-24T10:50:56.89</time>
<name>1361</name>
</trkpt>
<trkpt lat="48.952737" lon="8.651642">
<ele>262.0</ele>
<speed>0.43</speed>
<course>327.7</course>
<desc>Speed 1.5 km/h Distance 2.21 km</desc>
<time>2010-10-24T10:50:57.85</time>
<name>1362</name>
</trkpt>
<trkpt lat="48.952742" lon="8.651637">
<ele>261.5</ele>
<speed>0.37</speed>
<course>326.8</course>
<desc>Speed 1.3 km/h Distance 2.21 km</desc>
<time>2010-10-24T10:50:58.85</time>
<name>1363</name>
</trkpt>
<trkpt lat="48.952750" lon="8.651628">
<ele>260.5</ele>
<speed>0.31</speed>
<course>307.0</course>
<desc>Speed 1.1 km/h Distance 2.21 km</desc>
<time>2010-10-24T10:51:00.85</time>
<name>1364</name>
</trkpt>
<trkpt lat="48.952753" lon="8.651622">
<ele>260.0</ele>
<speed>0.46</speed>
<course>326.5</course>
<desc>Speed 1.7 km/h Distance 2.21 km</desc>
<time>2010-10-24T10:51:01.84</time>
<name>1365</name>
</trkpt>
<trkpt lat="48.952762" lon="8.651613">
<ele>259.5</ele>
<speed>0.44</speed>
<course>284.2</course>
<desc>Speed 1.6 km/h Distance 2.21 km</desc>
<time>2010-10-24T10:51:03.84</time>
<name>1366</name>
</trkpt>
<trkpt lat="48.952763" lon="8.651603">
<ele>258.5</ele>
<speed>0.68</speed>
<course>312.2</course>
<desc>Speed 2.4 km/h Distance 2.21 km</desc>
<time>2010-10-24T10:51:04.84</time>
<name>1367</name>
</trkpt>
<trkpt lat="48.952768" lon="8.651595">
<ele>258.5</ele>
<speed>0.46</speed>
<course>333.6</course>
<desc>Speed 1.7 km/h Distance 2.21 km</desc>
<time>2010-10-24T10:51:05.83</time>
<name>1368</name>
</trkpt>
<trkpt lat="48.952775" lon="8.651590">
<ele>259.0</ele>
<speed>0.55</speed>
<course>318.6</course>
<desc>Speed 2.0 km/h Distance 2.21 km</desc>
<time>2010-10-24T10:51:06.83</time>
<name>1369</name>
</trkpt>
<trkpt lat="48.952780" lon="8.651583">
<ele>259.0</ele>
<speed>0.50</speed>
<course>292.9</course>
<desc>Speed 1.8 km/h Distance 2.21 km</desc>
<time>2010-10-24T10:51:07.83</time>
<name>1370</name>
</trkpt>
<trkpt lat="48.952788" lon="8.651553">
<ele>260.5</ele>
<speed>0.70</speed>
<course>297.4</course>
<desc>Speed 2.5 km/h Distance 2.22 km</desc>
<time>2010-10-24T10:51:08.82</time>
<name>1371</name>
</trkpt>
<trkpt lat="48.952790" lon="8.651548">
<ele>259.5</ele>
<speed>0.37</speed>
<course>298.3</course>
<desc>Speed 1.3 km/h Distance 2.22 km</desc>
<time>2010-10-24T10:51:09.82</time>
<name>1372</name>
</trkpt>
<trkpt lat="48.952792" lon="8.651543">
<ele>259.0</ele>
<speed>0.31</speed>
<course>318.6</course>
<desc>Speed 1.1 km/h Distance 2.22 km</desc>
<time>2010-10-24T10:51:10.81</time>
<name>1373</name>
</trkpt>
<trkpt lat="48.952797" lon="8.651537">
<ele>258.5</ele>
<speed>0.41</speed>
<course>306.5</course>
<desc>Speed 1.5 km/h Distance 2.22 km</desc>
<time>2010-10-24T10:51:11.81</time>
<name>1374</name>
</trkpt>
<trkpt lat="48.952800" lon="8.651530">
<ele>257.5</ele>
<speed>0.46</speed>
<course>203.0</course>
<desc>Speed 1.7 km/h Distance 2.22 km</desc>
<time>2010-10-24T10:51:12.80</time>
<name>1375</name>
</trkpt>
<trkpt lat="48.952797" lon="8.651528">
<ele>256.5</ele>
<speed>0.52</speed>
<course>286.7</course>
<desc>Speed 1.9 km/h Distance 2.22 km</desc>
<time>2010-10-24T10:51:13.80</time>
<name>1376</name>
</trkpt>
<trkpt lat="48.952798" lon="8.651520">
<ele>256.0</ele>
<speed>0.51</speed>
<course>270.0</course>
<desc>Speed 1.8 km/h Distance 2.22 km</desc>
<time>2010-10-24T10:51:14.80</time>
<name>1377</name>
</trkpt>
<trkpt lat="48.952798" lon="8.651515">
<ele>255.0</ele>
<speed>0.40</speed>
<course>319.7</course>
<desc>Speed 1.4 km/h Distance 2.22 km</desc>
<time>2010-10-24T10:51:15.80</time>
<name>1378</name>
</trkpt>
<trkpt lat="48.952838" lon="8.651463">
<ele>252.0</ele>
<speed>0.38</speed>
<course>270.0</course>
<desc>Speed 1.4 km/h Distance 2.23 km</desc>
<time>2010-10-24T10:51:23.79</time>
<name>1379</name>
</trkpt>
<trkpt lat="48.952838" lon="8.651442">
<ele>252.0</ele>
<speed>0.47</speed>
<course>246.5</course>
<desc>Speed 1.7 km/h Distance 2.23 km</desc>
<time>2010-10-24T10:51:24.79</time>
<name>1380</name>
</trkpt>
<trkpt lat="48.952835" lon="8.651430">
<ele>250.5</ele>
<speed>0.54</speed>
<course>253.1</course>
<desc>Speed 1.9 km/h Distance 2.23 km</desc>
<time>2010-10-24T10:51:25.78</time>
<name>1381</name>
</trkpt>
<trkpt lat="48.952833" lon="8.651422">
<ele>248.5</ele>
<speed>0.34</speed>
<course>277.9</course>
<desc>Speed 1.2 km/h Distance 2.23 km</desc>
<time>2010-10-24T10:51:26.77</time>
<name>1382</name>
</trkpt>
<trkpt lat="48.952837" lon="8.651385">
<ele>246.5</ele>
<speed>0.31</speed>
<course>265.9</course>
<desc>Speed 1.1 km/h Distance 2.23 km</desc>
<time>2010-10-24T10:51:29.77</time>
<name>1383</name>
</trkpt>
<trkpt lat="48.952833" lon="8.651313">
<ele>247.0</ele>
<speed>0.63</speed>
<course>282.3</course>
<desc>Speed 2.3 km/h Distance 2.24 km</desc>
<time>2010-10-24T10:51:31.77</time>
<name>1384</name>
</trkpt>
<trkpt lat="48.952835" lon="8.651302">
<ele>246.0</ele>
<speed>0.50</speed>
<course>293.5</course>
<desc>Speed 1.8 km/h Distance 2.24 km</desc>
<time>2010-10-24T10:51:32.76</time>
<name>1385</name>
</trkpt>
<trkpt lat="48.952838" lon="8.651290">
<ele>244.5</ele>
<speed>0.37</speed>
<course>304.1</course>
<desc>Speed 1.3 km/h Distance 2.24 km</desc>
<time>2010-10-24T10:51:33.75</time>
<name>1386</name>
</trkpt>
<trkpt lat="48.952845" lon="8.651275">
<ele>244.0</ele>
<speed>0.62</speed>
<course>252.9</course>
<desc>Speed 2.2 km/h Distance 2.24 km</desc>
<time>2010-10-24T10:51:34.75</time>
<name>1387</name>
</trkpt>
<trkpt lat="48.952843" lon="8.651267">
<ele>242.5</ele>
<speed>0.31</speed>
<course>287.4</course>
<desc>Speed 1.1 km/h Distance 2.24 km</desc>
<time>2010-10-24T10:51:35.74</time>
<name>1388</name>
</trkpt>
<trkpt lat="48.952865" lon="8.651162">
<ele>244.5</ele>
<speed>0.67</speed>
<course>293.7</course>
<desc>Speed 2.4 km/h Distance 2.25 km</desc>
<time>2010-10-24T10:51:39.73</time>
<name>1389</name>
</trkpt>
<trkpt lat="48.952868" lon="8.651150">
<ele>243.5</ele>
<speed>0.52</speed>
<course>297.0</course>
<desc>Speed 1.9 km/h Distance 2.25 km</desc>
<time>2010-10-24T10:51:40.73</time>
<name>1390</name>
</trkpt>
<trkpt lat="48.952872" lon="8.651140">
<ele>242.0</ele>
<speed>0.36</speed>
<course>277.9</course>
<desc>Speed 1.3 km/h Distance 2.25 km</desc>
<time>2010-10-24T10:51:41.72</time>
<name>1391</name>
</trkpt>
<trkpt lat="48.952878" lon="8.651067">
<ele>246.0</ele>
<speed>0.44</speed>
<course>249.1</course>
<desc>Speed 1.6 km/h Distance 2.26 km</desc>
<time>2010-10-24T10:51:43.74</time>
<name>1392</name>
</trkpt>
<trkpt lat="48.952877" lon="8.651060">
<ele>245.5</ele>
<speed>0.44</speed>
<course>264.9</course>
<desc>Speed 1.6 km/h Distance 2.26 km</desc>
<time>2010-10-24T10:51:44.71</time>
<name>1393</name>
</trkpt>
<trkpt lat="48.952875" lon="8.651032">
<ele>247.5</ele>
<speed>0.36</speed>
<course>270.0</course>
<desc>Speed 1.3 km/h Distance 2.26 km</desc>
<time>2010-10-24T10:51:45.71</time>
<name>1394</name>
</trkpt>
<trkpt lat="48.952875" lon="8.651005">
<ele>248.0</ele>
<speed>0.44</speed>
<course>252.9</course>
<desc>Speed 1.6 km/h Distance 2.26 km</desc>
<time>2010-10-24T10:51:46.71</time>
<name>1395</name>
</trkpt>
<trkpt lat="48.952873" lon="8.650997">
<ele>246.0</ele>
<speed>0.40</speed>
<course>257.7</course>
<desc>Speed 1.4 km/h Distance 2.26 km</desc>
<time>2010-10-24T10:51:47.71</time>
<name>1396</name>
</trkpt>
<trkpt lat="48.952872" lon="8.650985">
<ele>243.5</ele>
<speed>0.47</speed>
<course>293.5</course>
<desc>Speed 1.7 km/h Distance 2.26 km</desc>
<time>2010-10-24T10:51:49.70</time>
<name>1397</name>
</trkpt>
<trkpt lat="48.952875" lon="8.650973">
<ele>242.5</ele>
<speed>0.56</speed>
<course>301.8</course>
<desc>Speed 2.0 km/h Distance 2.26 km</desc>
<time>2010-10-24T10:51:50.70</time>
<name>1398</name>
</trkpt>
<trkpt lat="48.952878" lon="8.650965">
<ele>240.5</ele>
<speed>0.40</speed>
<course>301.1</course>
<desc>Speed 1.4 km/h Distance 2.26 km</desc>
<time>2010-10-24T10:51:51.69</time>
<name>1399</name>
</trkpt>
<trkpt lat="48.952882" lon="8.650957">
<ele>240.0</ele>
<speed>0.43</speed>
<course>326.8</course>
<desc>Speed 1.5 km/h Distance 2.26 km</desc>
<time>2010-10-24T10:51:52.69</time>
<name>1400</name>
</trkpt>
<trkpt lat="48.952890" lon="8.650948">
<ele>240.0</ele>
<speed>0.72</speed>
<course>292.9</course>
<desc>Speed 2.6 km/h Distance 2.26 km</desc>
<time>2010-10-24T10:51:53.68</time>
<name>1401</name>
</trkpt>
<trkpt lat="48.952898" lon="8.650918">
<ele>241.5</ele>
<speed>0.68</speed>
<course>284.4</course>
<desc>Speed 2.4 km/h Distance 2.27 km</desc>
<time>2010-10-24T10:51:54.68</time>
<name>1402</name>
</trkpt>
<trkpt lat="48.952900" lon="8.650908">
<ele>241.0</ele>
<speed>0.68</speed>
<course>330.6</course>
<desc>Speed 2.4 km/h Distance 2.27 km</desc>
<time>2010-10-24T10:51:55.68</time>
<name>1403</name>
</trkpt>
<trkpt lat="48.952912" lon="8.650898">
<ele>240.5</ele>
<speed>0.66</speed>
<course>305.4</course>
<desc>Speed 2.4 km/h Distance 2.27 km</desc>
<time>2010-10-24T10:51:56.67</time>
<name>1404</name>
</trkpt>
<trkpt lat="48.952923" lon="8.650873">
<ele>240.0</ele>
<speed>0.31</speed>
<course>301.4</course>
<desc>Speed 1.1 km/h Distance 2.27 km</desc>
<time>2010-10-24T10:51:58.66</time>
<name>1405</name>
</trkpt>
<trkpt lat="48.952927" lon="8.650865">
<ele>239.0</ele>
<speed>0.31</speed>
<course>288.7</course>
<desc>Speed 1.1 km/h Distance 2.27 km</desc>
<time>2010-10-24T10:51:59.65</time>
<name>1406</name>
</trkpt>
<trkpt lat="48.952930" lon="8.650850">
<ele>238.5</ele>
<speed>0.86</speed>
<course>307.3</course>
<desc>Speed 3.1 km/h Distance 2.27 km</desc>
<time>2010-10-24T10:52:00.65</time>
<name>1407</name>
</trkpt>
<trkpt lat="48.952937" lon="8.650837">
<ele>237.5</ele>
<speed>0.57</speed>
<course>313.6</course>
<desc>Speed 2.1 km/h Distance 2.27 km</desc>
<time>2010-10-24T10:52:01.65</time>
<name>1408</name>
</trkpt>
<trkpt lat="48.952945" lon="8.650823">
<ele>236.5</ele>
<speed>0.57</speed>
<course>293.5</course>
<desc>Speed 2.1 km/h Distance 2.28 km</desc>
<time>2010-10-24T10:52:02.64</time>
<name>1409</name>
</trkpt>
<trkpt lat="48.952948" lon="8.650812">
<ele>235.5</ele>
<speed>0.52</speed>
<course>307.2</course>
<desc>Speed 1.9 km/h Distance 2.28 km</desc>
<time>2010-10-24T10:52:03.64</time>
<name>1410</name>
</trkpt>
<trkpt lat="48.952953" lon="8.650802">
<ele>235.0</ele>
<speed>0.54</speed>
<course>285.1</course>
<desc>Speed 1.9 km/h Distance 2.28 km</desc>
<time>2010-10-24T10:52:04.63</time>
<name>1411</name>
</trkpt>
<trkpt lat="48.952967" lon="8.650727">
<ele>239.5</ele>
<speed>0.31</speed>
<course>293.5</course>
<desc>Speed 1.1 km/h Distance 2.28 km</desc>
<time>2010-10-24T10:52:08.62</time>
<name>1412</name>
</trkpt>
<trkpt lat="48.952970" lon="8.650715">
<ele>239.0</ele>
<speed>0.55</speed>
<course>292.9</course>
<desc>Speed 2.0 km/h Distance 2.28 km</desc>
<time>2010-10-24T10:52:09.62</time>
<name>1413</name>
</trkpt>
<trkpt lat="48.952987" lon="8.650655">
<ele>240.0</ele>
<speed>0.51</speed>
<course>307.3</course>
<desc>Speed 1.8 km/h Distance 2.29 km</desc>
<time>2010-10-24T10:52:12.61</time>
<name>1414</name>
</trkpt>
<trkpt lat="48.952993" lon="8.650642">
<ele>240.0</ele>
<speed>0.30</speed>
<course>277.1</course>
<desc>Speed 1.1 km/h Distance 2.29 km</desc>
<time>2010-10-24T10:52:13.61</time>
<name>1415</name>
</trkpt>
<trkpt lat="48.953000" lon="8.650560">
<ele>242.5</ele>
<speed>0.34</speed>
<course>288.7</course>
<desc>Speed 1.2 km/h Distance 2.30 km</desc>
<time>2010-10-24T10:52:15.60</time>
<name>1416</name>
</trkpt>
<trkpt lat="48.953003" lon="8.650545">
<ele>242.0</ele>
<speed>0.66</speed>
<course>301.0</course>
<desc>Speed 2.4 km/h Distance 2.30 km</desc>
<time>2010-10-24T10:52:16.59</time>
<name>1417</name>
</trkpt>
<trkpt lat="48.953028" lon="8.650482">
<ele>245.0</ele>
<speed>1.87</speed>
<course>307.2</course>
<desc>Speed 6.7 km/h Distance 2.30 km</desc>
<time>2010-10-24T10:52:18.58</time>
<name>1418</name>
</trkpt>
<trkpt lat="48.953033" lon="8.650472">
<ele>245.5</ele>
<speed>0.76</speed>
<course>270.0</course>
<desc>Speed 2.7 km/h Distance 2.30 km</desc>
<time>2010-10-24T10:52:19.57</time>
<name>1419</name>
</trkpt>
<trkpt lat="48.953033" lon="8.650458">
<ele>246.0</ele>
<speed>0.87</speed>
<course>270.0</course>
<desc>Speed 3.1 km/h Distance 2.31 km</desc>
<time>2010-10-24T10:52:20.56</time>
<name>1420</name>
</trkpt>
<trkpt lat="48.953033" lon="8.650448">
<ele>245.5</ele>
<speed>0.51</speed>
<course>299.7</course>
<desc>Speed 1.8 km/h Distance 2.31 km</desc>
<time>2010-10-24T10:52:21.56</time>
<name>1421</name>
</trkpt>
<trkpt lat="48.953043" lon="8.650422">
<ele>245.5</ele>
<speed>0.31</speed>
<course>287.8</course>
<desc>Speed 1.1 km/h Distance 2.31 km</desc>
<time>2010-10-24T10:52:22.56</time>
<name>1422</name>
</trkpt>
<trkpt lat="48.953057" lon="8.650358">
<ele>247.0</ele>
<speed>1.15</speed>
<course>281.2</course>
<desc>Speed 4.1 km/h Distance 2.31 km</desc>
<time>2010-10-24T10:52:24.56</time>
<name>1423</name>
</trkpt>
<trkpt lat="48.953068" lon="8.650268">
<ele>251.5</ele>
<speed>0.57</speed>
<course>298.0</course>
<desc>Speed 2.1 km/h Distance 2.32 km</desc>
<time>2010-10-24T10:52:26.55</time>
<name>1424</name>
</trkpt>
<trkpt lat="48.953093" lon="8.650197">
<ele>255.0</ele>
<speed>1.65</speed>
<course>262.0</course>
<desc>Speed 5.9 km/h Distance 2.33 km</desc>
<time>2010-10-24T10:52:28.54</time>
<name>1425</name>
</trkpt>
<trkpt lat="48.953083" lon="8.650088">
<ele>260.0</ele>
<speed>1.30</speed>
<course>229.1</course>
<desc>Speed 4.7 km/h Distance 2.33 km</desc>
<time>2010-10-24T10:52:30.53</time>
<name>1426</name>
</trkpt>
<trkpt lat="48.953077" lon="8.650077">
<ele>259.0</ele>
<speed>0.50</speed>
<course>265.2</course>
<desc>Speed 1.8 km/h Distance 2.33 km</desc>
<time>2010-10-24T10:52:31.54</time>
<name>1427</name>
</trkpt>
<trkpt lat="48.953075" lon="8.650047">
<ele>259.0</ele>
<speed>0.77</speed>
<course>283.5</course>
<desc>Speed 2.8 km/h Distance 2.34 km</desc>
<time>2010-10-24T10:52:32.52</time>
<name>1428</name>
</trkpt>
<trkpt lat="48.953085" lon="8.649983">
<ele>259.5</ele>
<speed>0.83</speed>
<course>277.1</course>
<desc>Speed 3.0 km/h Distance 2.34 km</desc>
<time>2010-10-24T10:52:34.51</time>
<name>1429</name>
</trkpt>
<trkpt lat="48.953095" lon="8.649862">
<ele>263.5</ele>
<speed>0.62</speed>
<course>265.4</course>
<desc>Speed 2.2 km/h Distance 2.35 km</desc>
<time>2010-10-24T10:52:36.51</time>
<name>1430</name>
</trkpt>
<trkpt lat="48.953090" lon="8.649767">
<ele>265.0</ele>
<speed>0.60</speed>
<course>272.5</course>
<desc>Speed 2.2 km/h Distance 2.36 km</desc>
<time>2010-10-24T10:52:38.50</time>
<name>1431</name>
</trkpt>
<trkpt lat="48.953092" lon="8.649708">
<ele>264.0</ele>
<speed>0.58</speed>
<course>290.9</course>
<desc>Speed 2.1 km/h Distance 2.36 km</desc>
<time>2010-10-24T10:52:40.49</time>
<name>1432</name>
</trkpt>
<trkpt lat="48.953097" lon="8.649688">
<ele>264.0</ele>
<speed>0.68</speed>
<course>274.8</course>
<desc>Speed 2.4 km/h Distance 2.36 km</desc>
<time>2010-10-24T10:52:41.48</time>
<name>1433</name>
</trkpt>
<trkpt lat="48.953098" lon="8.649658">
<ele>263.5</ele>
<speed>0.77</speed>
<course>270.0</course>
<desc>Speed 2.8 km/h Distance 2.37 km</desc>
<time>2010-10-24T10:52:42.48</time>
<name>1434</name>
</trkpt>
<trkpt lat="48.953098" lon="8.649643">
<ele>262.5</ele>
<speed>0.72</speed>
<course>277.9</course>
<desc>Speed 2.6 km/h Distance 2.37 km</desc>
<time>2010-10-24T10:52:43.47</time>
<name>1435</name>
</trkpt>
<trkpt lat="48.953100" lon="8.649625">
<ele>263.0</ele>
<speed>0.80</speed>
<course>296.8</course>
<desc>Speed 2.9 km/h Distance 2.37 km</desc>
<time>2010-10-24T10:52:44.46</time>
<name>1436</name>
</trkpt>
<trkpt lat="48.953103" lon="8.649615">
<ele>262.5</ele>
<speed>0.51</speed>
<course>259.9</course>
<desc>Speed 1.8 km/h Distance 2.37 km</desc>
<time>2010-10-24T10:52:45.46</time>
<name>1437</name>
</trkpt>
<trkpt lat="48.953100" lon="8.649587">
<ele>261.5</ele>
<speed>0.76</speed>
<course>282.3</course>
<desc>Speed 2.7 km/h Distance 2.37 km</desc>
<time>2010-10-24T10:52:46.46</time>
<name>1438</name>
</trkpt>
<trkpt lat="48.953102" lon="8.649575">
<ele>260.5</ele>
<speed>0.74</speed>
<course>259.2</course>
<desc>Speed 2.7 km/h Distance 2.37 km</desc>
<time>2010-10-24T10:52:47.45</time>
<name>1439</name>
</trkpt>
<trkpt lat="48.953095" lon="8.649522">
<ele>258.5</ele>
<speed>0.81</speed>
<course>267.1</course>
<desc>Speed 2.9 km/h Distance 2.38 km</desc>
<time>2010-10-24T10:52:49.45</time>
<name>1440</name>
</trkpt>
<trkpt lat="48.953092" lon="8.649422">
<ele>262.0</ele>
<speed>0.75</speed>
<course>276.7</course>
<desc>Speed 2.7 km/h Distance 2.38 km</desc>
<time>2010-10-24T10:52:51.45</time>
<name>1441</name>
</trkpt>
<trkpt lat="48.953093" lon="8.649400">
<ele>264.0</ele>
<speed>0.57</speed>
<course>265.6</course>
<desc>Speed 2.1 km/h Distance 2.38 km</desc>
<time>2010-10-24T10:52:52.44</time>
<name>1442</name>
</trkpt>
<trkpt lat="48.953092" lon="8.649367">
<ele>266.5</ele>
<speed>0.64</speed>
<course>270.0</course>
<desc>Speed 2.3 km/h Distance 2.39 km</desc>
<time>2010-10-24T10:52:53.44</time>
<name>1443</name>
</trkpt>
<trkpt lat="48.953092" lon="8.649355">
<ele>266.0</ele>
<speed>0.80</speed>
<course>282.3</course>
<desc>Speed 2.9 km/h Distance 2.39 km</desc>
<time>2010-10-24T10:52:54.43</time>
<name>1444</name>
</trkpt>
<trkpt lat="48.953093" lon="8.649343">
<ele>264.5</ele>
<speed>0.80</speed>
<course>251.3</course>
<desc>Speed 2.9 km/h Distance 2.39 km</desc>
<time>2010-10-24T10:52:55.43</time>
<name>1445</name>
</trkpt>
<trkpt lat="48.953090" lon="8.649328">
<ele>263.0</ele>
<speed>0.87</speed>
<course>262.1</course>
<desc>Speed 3.1 km/h Distance 2.39 km</desc>
<time>2010-10-24T10:52:56.43</time>
<name>1446</name>
</trkpt>
<trkpt lat="48.953088" lon="8.649310">
<ele>264.0</ele>
<speed>0.69</speed>
<course>256.8</course>
<desc>Speed 2.5 km/h Distance 2.39 km</desc>
<time>2010-10-24T10:52:57.42</time>
<name>1447</name>
</trkpt>
<trkpt lat="48.953085" lon="8.649288">
<ele>264.5</ele>
<speed>0.87</speed>
<course>278.3</course>
<desc>Speed 3.1 km/h Distance 2.39 km</desc>
<time>2010-10-24T10:52:58.42</time>
<name>1448</name>
</trkpt>
<trkpt lat="48.953088" lon="8.649253">
<ele>266.0</ele>
<speed>0.93</speed>
<course>290.9</course>
<desc>Speed 3.3 km/h Distance 2.40 km</desc>
<time>2010-10-24T10:52:59.41</time>
<name>1449</name>
</trkpt>
<trkpt lat="48.953092" lon="8.649240">
<ele>265.0</ele>
<speed>0.79</speed>
<course>280.8</course>
<desc>Speed 2.8 km/h Distance 2.40 km</desc>
<time>2010-10-24T10:53:00.41</time>
<name>1450</name>
</trkpt>
<trkpt lat="48.953093" lon="8.649227">
<ele>264.0</ele>
<speed>0.76</speed>
<course>292.1</course>
<desc>Speed 2.7 km/h Distance 2.40 km</desc>
<time>2010-10-24T10:53:01.40</time>
<name>1451</name>
</trkpt>
<trkpt lat="48.953100" lon="8.649202">
<ele>264.5</ele>
<speed>0.69</speed>
<course>286.9</course>
<desc>Speed 2.5 km/h Distance 2.40 km</desc>
<time>2010-10-24T10:53:02.39</time>
<name>1452</name>
</trkpt>
<trkpt lat="48.953103" lon="8.649185">
<ele>265.0</ele>
<speed>1.04</speed>
<course>307.3</course>
<desc>Speed 3.7 km/h Distance 2.40 km</desc>
<time>2010-10-24T10:53:03.38</time>
<name>1453</name>
</trkpt>
<trkpt lat="48.953113" lon="8.649165">
<ele>265.5</ele>
<speed>1.25</speed>
<course>270.0</course>
<desc>Speed 4.5 km/h Distance 2.40 km</desc>
<time>2010-10-24T10:53:04.37</time>
<name>1454</name>
</trkpt>
<trkpt lat="48.953113" lon="8.649097">
<ele>266.5</ele>
<speed>0.86</speed>
<course>313.6</course>
<desc>Speed 3.1 km/h Distance 2.41 km</desc>
<time>2010-10-24T10:53:06.37</time>
<name>1455</name>
</trkpt>
<trkpt lat="48.953122" lon="8.649083">
<ele>266.0</ele>
<speed>0.87</speed>
<course>264.9</course>
<desc>Speed 3.1 km/h Distance 2.41 km</desc>
<time>2010-10-24T10:53:07.37</time>
<name>1456</name>
</trkpt>
<trkpt lat="48.953120" lon="8.649055">
<ele>266.0</ele>
<speed>0.77</speed>
<course>249.0</course>
<desc>Speed 2.8 km/h Distance 2.41 km</desc>
<time>2010-10-24T10:53:08.36</time>
<name>1457</name>
</trkpt>
<trkpt lat="48.953117" lon="8.649042">
<ele>264.5</ele>
<speed>0.69</speed>
<course>285.5</course>
<desc>Speed 2.5 km/h Distance 2.41 km</desc>
<time>2010-10-24T10:53:09.36</time>
<name>1458</name>
</trkpt>
<trkpt lat="48.953120" lon="8.649023">
<ele>265.0</ele>
<speed>0.75</speed>
<course>284.4</course>
<desc>Speed 2.7 km/h Distance 2.41 km</desc>
<time>2010-10-24T10:53:10.36</time>
<name>1459</name>
</trkpt>
<trkpt lat="48.953122" lon="8.649013">
<ele>265.0</ele>
<speed>0.56</speed>
<course>270.0</course>
<desc>Speed 2.0 km/h Distance 2.41 km</desc>
<time>2010-10-24T10:53:11.36</time>
<name>1460</name>
</trkpt>
<trkpt lat="48.953122" lon="8.648987">
<ele>265.0</ele>
<speed>0.74</speed>
<course>299.9</course>
<desc>Speed 2.7 km/h Distance 2.42 km</desc>
<time>2010-10-24T10:53:12.38</time>
<name>1461</name>
</trkpt>
<trkpt lat="48.953127" lon="8.648973">
<ele>264.0</ele>
<speed>0.68</speed>
<course>297.0</course>
<desc>Speed 2.4 km/h Distance 2.42 km</desc>
<time>2010-10-24T10:53:13.34</time>
<name>1462</name>
</trkpt>
<trkpt lat="48.953130" lon="8.648963">
<ele>262.0</ele>
<speed>0.43</speed>
<course>270.0</course>
<desc>Speed 1.5 km/h Distance 2.42 km</desc>
<time>2010-10-24T10:53:14.34</time>
<name>1463</name>
</trkpt>
<trkpt lat="48.953130" lon="8.648947">
<ele>262.0</ele>
<speed>0.73</speed>
<course>284.2</course>
<desc>Speed 2.6 km/h Distance 2.42 km</desc>
<time>2010-10-24T10:53:15.34</time>
<name>1464</name>
</trkpt>
<trkpt lat="48.953133" lon="8.648927">
<ele>262.5</ele>
<speed>0.47</speed>
<course>255.6</course>
<desc>Speed 1.7 km/h Distance 2.42 km</desc>
<time>2010-10-24T10:53:16.32</time>
<name>1465</name>
</trkpt>
<trkpt lat="48.953132" lon="8.648917">
<ele>259.5</ele>
<speed>0.36</speed>
<course>274.1</course>
<desc>Speed 1.3 km/h Distance 2.42 km</desc>
<time>2010-10-24T10:53:17.32</time>
<name>1466</name>
</trkpt>
<trkpt lat="48.953135" lon="8.648845">
<ele>262.5</ele>
<speed>0.70</speed>
<course>277.2</course>
<desc>Speed 2.5 km/h Distance 2.43 km</desc>
<time>2010-10-24T10:53:19.32</time>
<name>1467</name>
</trkpt>
<trkpt lat="48.953137" lon="8.648825">
<ele>262.5</ele>
<speed>0.68</speed>
<course>257.7</course>
<desc>Speed 2.4 km/h Distance 2.43 km</desc>
<time>2010-10-24T10:53:20.31</time>
<name>1468</name>
</trkpt>
<trkpt lat="48.953133" lon="8.648802">
<ele>262.5</ele>
<speed>0.67</speed>
<course>278.7</course>
<desc>Speed 2.4 km/h Distance 2.43 km</desc>
<time>2010-10-24T10:53:21.30</time>
<name>1469</name>
</trkpt>
<trkpt lat="48.953137" lon="8.648768">
<ele>263.0</ele>
<speed>0.62</speed>
<course>273.4</course>
<desc>Speed 2.2 km/h Distance 2.43 km</desc>
<time>2010-10-24T10:53:22.30</time>
<name>1470</name>
</trkpt>
<trkpt lat="48.953140" lon="8.648682">
<ele>265.5</ele>
<speed>0.83</speed>
<course>282.6</course>
<desc>Speed 3.0 km/h Distance 2.44 km</desc>
<time>2010-10-24T10:53:24.29</time>
<name>1471</name>
</trkpt>
<trkpt lat="48.953158" lon="8.648557">
<ele>270.5</ele>
<speed>0.81</speed>
<course>275.1</course>
<desc>Speed 2.9 km/h Distance 2.45 km</desc>
<time>2010-10-24T10:53:26.28</time>
<name>1472</name>
</trkpt>
<trkpt lat="48.953163" lon="8.648472">
<ele>276.0</ele>
<speed>0.79</speed>
<course>266.0</course>
<desc>Speed 2.8 km/h Distance 2.45 km</desc>
<time>2010-10-24T10:53:28.27</time>
<name>1473</name>
</trkpt>
<trkpt lat="48.953160" lon="8.648398">
<ele>278.0</ele>
<speed>0.74</speed>
<course>247.5</course>
<desc>Speed 2.7 km/h Distance 2.46 km</desc>
<time>2010-10-24T10:53:30.27</time>
<name>1474</name>
</trkpt>
<trkpt lat="48.953155" lon="8.648380">
<ele>276.5</ele>
<speed>0.80</speed>
<course>252.9</course>
<desc>Speed 2.9 km/h Distance 2.46 km</desc>
<time>2010-10-24T10:53:31.27</time>
<name>1475</name>
</trkpt>
<trkpt lat="48.953153" lon="8.648372">
<ele>275.5</ele>
<speed>0.54</speed>
<course>255.9</course>
<desc>Speed 1.9 km/h Distance 2.46 km</desc>
<time>2010-10-24T10:53:32.25</time>
<name>1476</name>
</trkpt>
<trkpt lat="48.953152" lon="8.648362">
<ele>274.5</ele>
<speed>0.47</speed>
<course>257.7</course>
<desc>Speed 1.7 km/h Distance 2.46 km</desc>
<time>2010-10-24T10:53:33.24</time>
<name>1477</name>
</trkpt>
<trkpt lat="48.953150" lon="8.648350">
<ele>273.0</ele>
<speed>0.56</speed>
<course>243.0</course>
<desc>Speed 2.0 km/h Distance 2.46 km</desc>
<time>2010-10-24T10:53:34.24</time>
<name>1478</name>
</trkpt>
<trkpt lat="48.953145" lon="8.648335">
<ele>272.0</ele>
<speed>0.63</speed>
<course>244.9</course>
<desc>Speed 2.3 km/h Distance 2.47 km</desc>
<time>2010-10-24T10:53:35.23</time>
<name>1479</name>
</trkpt>
<trkpt lat="48.953138" lon="8.648313">
<ele>271.0</ele>
<speed>0.82</speed>
<course>259.2</course>
<desc>Speed 3.0 km/h Distance 2.47 km</desc>
<time>2010-10-24T10:53:36.22</time>
<name>1480</name>
</trkpt>
<trkpt lat="48.953135" lon="8.648287">
<ele>272.0</ele>
<speed>0.73</speed>
<course>260.1</course>
<desc>Speed 2.6 km/h Distance 2.47 km</desc>
<time>2010-10-24T10:53:37.22</time>
<name>1481</name>
</trkpt>
<trkpt lat="48.953128" lon="8.648228">
<ele>269.5</ele>
<speed>0.64</speed>
<course>263.3</course>
<desc>Speed 2.3 km/h Distance 2.47 km</desc>
<time>2010-10-24T10:53:39.21</time>
<name>1482</name>
</trkpt>
<trkpt lat="48.953127" lon="8.648207">
<ele>270.0</ele>
<speed>0.81</speed>
<course>270.0</course>
<desc>Speed 2.9 km/h Distance 2.47 km</desc>
<time>2010-10-24T10:53:40.24</time>
<name>1483</name>
</trkpt>
<trkpt lat="48.953127" lon="8.648175">
<ele>270.0</ele>
<speed>0.81</speed>
<course>265.2</course>
<desc>Speed 2.9 km/h Distance 2.48 km</desc>
<time>2010-10-24T10:53:41.21</time>
<name>1484</name>
</trkpt>
<trkpt lat="48.953125" lon="8.648145">
<ele>271.0</ele>
<speed>0.81</speed>
<course>266.0</course>
<desc>Speed 2.9 km/h Distance 2.48 km</desc>
<time>2010-10-24T10:53:42.21</time>
<name>1485</name>
</trkpt>
<trkpt lat="48.953123" lon="8.648108">
<ele>273.5</ele>
<speed>0.94</speed>
<course>270.0</course>
<desc>Speed 3.4 km/h Distance 2.48 km</desc>
<time>2010-10-24T10:53:43.20</time>
<name>1486</name>
</trkpt>
<trkpt lat="48.953123" lon="8.648053">
<ele>275.0</ele>
<speed>0.72</speed>
<course>256.8</course>
<desc>Speed 2.6 km/h Distance 2.49 km</desc>
<time>2010-10-24T10:53:45.20</time>
<name>1487</name>
</trkpt>
<trkpt lat="48.953120" lon="8.648032">
<ele>275.5</ele>
<speed>0.94</speed>
<course>255.6</course>
<desc>Speed 3.4 km/h Distance 2.49 km</desc>
<time>2010-10-24T10:53:46.20</time>
<name>1488</name>
</trkpt>
<trkpt lat="48.953118" lon="8.648022">
<ele>274.0</ele>
<speed>0.81</speed>
<course>259.2</course>
<desc>Speed 2.9 km/h Distance 2.49 km</desc>
<time>2010-10-24T10:53:47.19</time>
<name>1489</name>
</trkpt>
<trkpt lat="48.953117" lon="8.648008">
<ele>274.0</ele>
<speed>0.99</speed>
<course>258.3</course>
<desc>Speed 3.6 km/h Distance 2.49 km</desc>
<time>2010-10-24T10:53:48.22</time>
<name>1490</name>
</trkpt>
<trkpt lat="48.953112" lon="8.647972">
<ele>275.0</ele>
<speed>1.09</speed>
<course>232.8</course>
<desc>Speed 3.9 km/h Distance 2.49 km</desc>
<time>2010-10-24T10:53:49.18</time>
<name>1491</name>
</trkpt>
<trkpt lat="48.953107" lon="8.647962">
<ele>274.0</ele>
<speed>0.94</speed>
<course>246.5</course>
<desc>Speed 3.4 km/h Distance 2.49 km</desc>
<time>2010-10-24T10:53:50.17</time>
<name>1492</name>
</trkpt>
<trkpt lat="48.953103" lon="8.647950">
<ele>272.5</ele>
<speed>1.00</speed>
<course>240.3</course>
<desc>Speed 3.6 km/h Distance 2.49 km</desc>
<time>2010-10-24T10:53:51.17</time>
<name>1493</name>
</trkpt>
<trkpt lat="48.953098" lon="8.647937">
<ele>271.0</ele>
<speed>1.05</speed>
<course>255.9</course>
<desc>Speed 3.8 km/h Distance 2.50 km</desc>
<time>2010-10-24T10:53:52.17</time>
<name>1494</name>
</trkpt>
<trkpt lat="48.953097" lon="8.647927">
<ele>269.5</ele>
<speed>0.82</speed>
<course>224.5</course>
<desc>Speed 3.0 km/h Distance 2.50 km</desc>
<time>2010-10-24T10:53:53.16</time>
<name>1495</name>
</trkpt>
<trkpt lat="48.953093" lon="8.647922">
<ele>268.0</ele>
<speed>0.62</speed>
<course>282.3</course>
<desc>Speed 2.2 km/h Distance 2.50 km</desc>
<time>2010-10-24T10:53:54.16</time>
<name>1496</name>
</trkpt>
<trkpt lat="48.953095" lon="8.647910">
<ele>268.5</ele>
<speed>0.62</speed>
<course>200.8</course>
<desc>Speed 2.2 km/h Distance 2.50 km</desc>
<time>2010-10-24T10:53:55.16</time>
<name>1497</name>
</trkpt>
<trkpt lat="48.953087" lon="8.647905">
<ele>265.5</ele>
<speed>0.83</speed>
<course>224.5</course>
<desc>Speed 3.0 km/h Distance 2.50 km</desc>
<time>2010-10-24T10:53:56.15</time>
<name>1498</name>
</trkpt>
<trkpt lat="48.953080" lon="8.647895">
<ele>262.5</ele>
<speed>0.63</speed>
<course>239.7</course>
<desc>Speed 2.3 km/h Distance 2.50 km</desc>
<time>2010-10-24T10:53:57.14</time>
<name>1499</name>
</trkpt>
<trkpt lat="48.953072" lon="8.647873">
<ele>262.5</ele>
<speed>1.12</speed>
<course>213.2</course>
<desc>Speed 4.0 km/h Distance 2.50 km</desc>
<time>2010-10-24T10:53:58.13</time>
<name>1500</name>
</trkpt>
<trkpt lat="48.953063" lon="8.647865">
<ele>261.0</ele>
<speed>1.03</speed>
<course>246.5</course>
<desc>Speed 3.7 km/h Distance 2.50 km</desc>
<time>2010-10-24T10:53:59.13</time>
<name>1501</name>
</trkpt>
<trkpt lat="48.953060" lon="8.647853">
<ele>260.0</ele>
<speed>0.91</speed>
<course>229.1</course>
<desc>Speed 3.3 km/h Distance 2.50 km</desc>
<time>2010-10-24T10:54:00.13</time>
<name>1502</name>
</trkpt>
<trkpt lat="48.953053" lon="8.647842">
<ele>257.5</ele>
<speed>0.82</speed>
<course>227.8</course>
<desc>Speed 3.0 km/h Distance 2.50 km</desc>
<time>2010-10-24T10:54:01.12</time>
<name>1503</name>
</trkpt>
<trkpt lat="48.953048" lon="8.647833">
<ele>255.5</ele>
<speed>0.80</speed>
<course>253.3</course>
<desc>Speed 2.9 km/h Distance 2.51 km</desc>
<time>2010-10-24T10:54:02.11</time>
<name>1504</name>
</trkpt>
<trkpt lat="48.953047" lon="8.647825">
<ele>254.0</ele>
<speed>0.67</speed>
<course>246.5</course>
<desc>Speed 2.4 km/h Distance 2.51 km</desc>
<time>2010-10-24T10:54:03.10</time>
<name>1505</name>
</trkpt>
<trkpt lat="48.953043" lon="8.647813">
<ele>253.5</ele>
<speed>0.86</speed>
<course>261.3</course>
<desc>Speed 3.1 km/h Distance 2.51 km</desc>
<time>2010-10-24T10:54:04.10</time>
<name>1506</name>
</trkpt>
<trkpt lat="48.953042" lon="8.647797">
<ele>253.0</ele>
<speed>1.14</speed>
<course>251.3</course>
<desc>Speed 4.1 km/h Distance 2.51 km</desc>
<time>2010-10-24T10:54:05.09</time>
<name>1507</name>
</trkpt>
<trkpt lat="48.953038" lon="8.647782">
<ele>251.0</ele>
<speed>0.99</speed>
<course>243.0</course>
<desc>Speed 3.6 km/h Distance 2.51 km</desc>
<time>2010-10-24T10:54:06.09</time>
<name>1508</name>
</trkpt>
<trkpt lat="48.953035" lon="8.647772">
<ele>250.0</ele>
<speed>0.74</speed>
<course>260.4</course>
<desc>Speed 2.7 km/h Distance 2.51 km</desc>
<time>2010-10-24T10:54:07.09</time>
<name>1509</name>
</trkpt>
<trkpt lat="48.953033" lon="8.647757">
<ele>249.5</ele>
<speed>1.01</speed>
<course>270.0</course>
<desc>Speed 3.6 km/h Distance 2.51 km</desc>
<time>2010-10-24T10:54:08.08</time>
<name>1510</name>
</trkpt>
<trkpt lat="48.953033" lon="8.647750">
<ele>248.5</ele>
<speed>0.50</speed>
<course>238.6</course>
<desc>Speed 1.8 km/h Distance 2.51 km</desc>
<time>2010-10-24T10:54:09.07</time>
<name>1511</name>
</trkpt>
<trkpt lat="48.953030" lon="8.647742">
<ele>247.5</ele>
<speed>0.64</speed>
<course>242.8</course>
<desc>Speed 2.3 km/h Distance 2.51 km</desc>
<time>2010-10-24T10:54:10.06</time>
<name>1512</name>
</trkpt>
<trkpt lat="48.953027" lon="8.647732">
<ele>246.5</ele>
<speed>0.75</speed>
<course>256.6</course>
<desc>Speed 2.7 km/h Distance 2.51 km</desc>
<time>2010-10-24T10:54:11.06</time>
<name>1513</name>
</trkpt>
<trkpt lat="48.953018" lon="8.647678">
<ele>247.5</ele>
<speed>0.88</speed>
<course>259.8</course>
<desc>Speed 3.2 km/h Distance 2.52 km</desc>
<time>2010-10-24T10:54:13.05</time>
<name>1514</name>
</trkpt>
<trkpt lat="48.953015" lon="8.647650">
<ele>248.0</ele>
<speed>1.10</speed>
<course>238.9</course>
<desc>Speed 4.0 km/h Distance 2.52 km</desc>
<time>2010-10-24T10:54:14.04</time>
<name>1515</name>
</trkpt>
<trkpt lat="48.953012" lon="8.647642">
<ele>246.5</ele>
<speed>0.68</speed>
<course>238.6</course>
<desc>Speed 2.4 km/h Distance 2.52 km</desc>
<time>2010-10-24T10:54:15.03</time>
<name>1516</name>
</trkpt>
<trkpt lat="48.953008" lon="8.647633">
<ele>245.5</ele>
<speed>0.69</speed>
<course>267.1</course>
<desc>Speed 2.5 km/h Distance 2.52 km</desc>
<time>2010-10-24T10:54:16.03</time>
<name>1517</name>
</trkpt>
<trkpt lat="48.953007" lon="8.647583">
<ele>247.0</ele>
<speed>0.80</speed>
<course>256.8</course>
<desc>Speed 2.9 km/h Distance 2.52 km</desc>
<time>2010-10-24T10:54:18.03</time>
<name>1518</name>
</trkpt>
<trkpt lat="48.953003" lon="8.647562">
<ele>247.0</ele>
<speed>0.81</speed>
<course>220.9</course>
<desc>Speed 2.9 km/h Distance 2.53 km</desc>
<time>2010-10-24T10:54:19.03</time>
<name>1519</name>
</trkpt>
<trkpt lat="48.952998" lon="8.647555">
<ele>246.0</ele>
<speed>0.83</speed>
<course>236.7</course>
<desc>Speed 3.0 km/h Distance 2.53 km</desc>
<time>2010-10-24T10:54:20.03</time>
<name>1520</name>
</trkpt>
<trkpt lat="48.952993" lon="8.647543">
<ele>245.0</ele>
<speed>0.95</speed>
<course>243.1</course>
<desc>Speed 3.4 km/h Distance 2.53 km</desc>
<time>2010-10-24T10:54:21.03</time>
<name>1521</name>
</trkpt>
<trkpt lat="48.952988" lon="8.647528">
<ele>244.0</ele>
<speed>1.13</speed>
<course>238.6</course>
<desc>Speed 4.1 km/h Distance 2.53 km</desc>
<time>2010-10-24T10:54:22.02</time>
<name>1522</name>
</trkpt>
<trkpt lat="48.952985" lon="8.647520">
<ele>243.0</ele>
<speed>0.58</speed>
<course>212.3</course>
<desc>Speed 2.1 km/h Distance 2.53 km</desc>
<time>2010-10-24T10:54:23.01</time>
<name>1523</name>
</trkpt>
<trkpt lat="48.952980" lon="8.647515">
<ele>242.0</ele>
<speed>0.72</speed>
<course>259.2</course>
<desc>Speed 2.6 km/h Distance 2.53 km</desc>
<time>2010-10-24T10:54:24.00</time>
<name>1524</name>
</trkpt>
<trkpt lat="48.952978" lon="8.647502">
<ele>241.5</ele>
<speed>0.99</speed>
<course>219.4</course>
<desc>Speed 3.6 km/h Distance 2.53 km</desc>
<time>2010-10-24T10:54:25.00</time>
<name>1525</name>
</trkpt>
<trkpt lat="48.952972" lon="8.647493">
<ele>240.5</ele>
<speed>0.87</speed>
<course>232.8</course>
<desc>Speed 3.1 km/h Distance 2.53 km</desc>
<time>2010-10-24T10:54:25.99</time>
<name>1526</name>
</trkpt>
<trkpt lat="48.952967" lon="8.647483">
<ele>239.5</ele>
<speed>0.83</speed>
<course>208.6</course>
<desc>Speed 3.0 km/h Distance 2.53 km</desc>
<time>2010-10-24T10:54:26.99</time>
<name>1527</name>
</trkpt>
<trkpt lat="48.952957" lon="8.647475">
<ele>238.0</ele>
<speed>1.00</speed>
<course>219.4</course>
<desc>Speed 3.6 km/h Distance 2.53 km</desc>
<time>2010-10-24T10:54:27.99</time>
<name>1528</name>
</trkpt>
<trkpt lat="48.952950" lon="8.647467">
<ele>236.5</ele>
<speed>0.91</speed>
<course>224.5</course>
<desc>Speed 3.3 km/h Distance 2.54 km</desc>
<time>2010-10-24T10:54:28.98</time>
<name>1529</name>
</trkpt>
<trkpt lat="48.952943" lon="8.647457">
<ele>235.0</ele>
<speed>1.00</speed>
<course>219.4</course>
<desc>Speed 3.6 km/h Distance 2.54 km</desc>
<time>2010-10-24T10:54:29.97</time>
<name>1530</name>
</trkpt>
<trkpt lat="48.952937" lon="8.647448">
<ele>233.5</ele>
<speed>0.87</speed>
<course>227.4</course>
<desc>Speed 3.1 km/h Distance 2.54 km</desc>
<time>2010-10-24T10:54:30.98</time>
<name>1531</name>
</trkpt>
<trkpt lat="48.952932" lon="8.647440">
<ele>232.0</ele>
<speed>0.87</speed>
<course>232.8</course>
<desc>Speed 3.1 km/h Distance 2.54 km</desc>
<time>2010-10-24T10:54:31.96</time>
<name>1532</name>
</trkpt>
<trkpt lat="48.952927" lon="8.647430">
<ele>231.0</ele>
<speed>0.77</speed>
<course>201.5</course>
<desc>Speed 2.8 km/h Distance 2.54 km</desc>
<time>2010-10-24T10:54:32.96</time>
<name>1533</name>
</trkpt>
<trkpt lat="48.952918" lon="8.647425">
<ele>230.0</ele>
<speed>0.94</speed>
<course>203.8</course>
<desc>Speed 3.4 km/h Distance 2.54 km</desc>
<time>2010-10-24T10:54:33.95</time>
<name>1534</name>
</trkpt>
<trkpt lat="48.952908" lon="8.647418">
<ele>228.5</ele>
<speed>1.19</speed>
<course>219.4</course>
<desc>Speed 4.3 km/h Distance 2.54 km</desc>
<time>2010-10-24T10:54:34.94</time>
<name>1535</name>
</trkpt>
<trkpt lat="48.952902" lon="8.647410">
<ele>227.0</ele>
<speed>0.88</speed>
<course>236.7</course>
<desc>Speed 3.2 km/h Distance 2.54 km</desc>
<time>2010-10-24T10:54:35.94</time>
<name>1536</name>
</trkpt>
<trkpt lat="48.952897" lon="8.647398">
<ele>225.5</ele>
<speed>0.82</speed>
<course>208.6</course>
<desc>Speed 3.0 km/h Distance 2.54 km</desc>
<time>2010-10-24T10:54:36.93</time>
<name>1537</name>
</trkpt>
<trkpt lat="48.952887" lon="8.647390">
<ele>223.5</ele>
<speed>1.03</speed>
<course>213.7</course>
<desc>Speed 3.7 km/h Distance 2.54 km</desc>
<time>2010-10-24T10:54:37.93</time>
<name>1538</name>
</trkpt>
<trkpt lat="48.952880" lon="8.647383">
<ele>222.0</ele>
<speed>0.85</speed>
<course>207.9</course>
<desc>Speed 3.1 km/h Distance 2.55 km</desc>
<time>2010-10-24T10:54:38.93</time>
<name>1539</name>
</trkpt>
<trkpt lat="48.952872" lon="8.647377">
<ele>220.5</ele>
<speed>0.93</speed>
<course>203.8</course>
<desc>Speed 3.3 km/h Distance 2.55 km</desc>
<time>2010-10-24T10:54:39.93</time>
<name>1540</name>
</trkpt>
<trkpt lat="48.952862" lon="8.647370">
<ele>219.0</ele>
<speed>1.14</speed>
<course>213.7</course>
<desc>Speed 4.1 km/h Distance 2.55 km</desc>
<time>2010-10-24T10:54:40.92</time>
<name>1541</name>
</trkpt>
<trkpt lat="48.952855" lon="8.647363">
<ele>218.0</ele>
<speed>0.91</speed>
<course>198.2</course>
<desc>Speed 3.3 km/h Distance 2.55 km</desc>
<time>2010-10-24T10:54:41.92</time>
<name>1542</name>
</trkpt>
<trkpt lat="48.952845" lon="8.647358">
<ele>217.0</ele>
<speed>1.02</speed>
<course>206.4</course>
<desc>Speed 3.7 km/h Distance 2.55 km</desc>
<time>2010-10-24T10:54:42.92</time>
<name>1543</name>
</trkpt>
<trkpt lat="48.952838" lon="8.647353">
<ele>216.0</ele>
<speed>0.74</speed>
<course>196.0</course>
<desc>Speed 2.7 km/h Distance 2.55 km</desc>
<time>2010-10-24T10:54:43.92</time>
<name>1544</name>
</trkpt>
<trkpt lat="48.952827" lon="8.647348">
<ele>214.5</ele>
<speed>1.25</speed>
<course>207.9</course>
<desc>Speed 4.5 km/h Distance 2.55 km</desc>
<time>2010-10-24T10:54:44.91</time>
<name>1545</name>
</trkpt>
<trkpt lat="48.952818" lon="8.647342">
<ele>213.5</ele>
<speed>1.00</speed>
<course>192.6</course>
<desc>Speed 3.6 km/h Distance 2.55 km</desc>
<time>2010-10-24T10:54:45.91</time>
<name>1546</name>
</trkpt>
<trkpt lat="48.952808" lon="8.647338">
<ele>212.0</ele>
<speed>1.12</speed>
<course>261.3</course>
<desc>Speed 4.0 km/h Distance 2.55 km</desc>
<time>2010-10-24T10:54:46.91</time>
<name>1547</name>
</trkpt>
<trkpt lat="48.952805" lon="8.647305">
<ele>213.0</ele>
<speed>0.88</speed>
<course>248.5</course>
<desc>Speed 3.2 km/h Distance 2.56 km</desc>
<time>2010-10-24T10:54:47.91</time>
<name>1548</name>
</trkpt>
<trkpt lat="48.952793" lon="8.647260">
<ele>214.0</ele>
<speed>0.93</speed>
<course>200.8</course>
<desc>Speed 3.3 km/h Distance 2.56 km</desc>
<time>2010-10-24T10:54:49.90</time>
<name>1549</name>
</trkpt>
<trkpt lat="48.952785" lon="8.647255">
<ele>212.5</ele>
<speed>0.81</speed>
<course>208.6</course>
<desc>Speed 2.9 km/h Distance 2.56 km</desc>
<time>2010-10-24T10:54:50.90</time>
<name>1550</name>
</trkpt>
<trkpt lat="48.952775" lon="8.647247">
<ele>211.0</ele>
<speed>1.03</speed>
<course>190.4</course>
<desc>Speed 3.7 km/h Distance 2.56 km</desc>
<time>2010-10-24T10:54:51.92</time>
<name>1551</name>
</trkpt>
<trkpt lat="48.952763" lon="8.647243">
<ele>209.5</ele>
<speed>1.11</speed>
<course>208.6</course>
<desc>Speed 4.0 km/h Distance 2.56 km</desc>
<time>2010-10-24T10:54:52.91</time>
<name>1552</name>
</trkpt>
<trkpt lat="48.952753" lon="8.647235">
<ele>209.5</ele>
<speed>1.04</speed>
<course>236.0</course>
<desc>Speed 3.7 km/h Distance 2.56 km</desc>
<time>2010-10-24T10:54:53.87</time>
<name>1553</name>
</trkpt>
<trkpt lat="48.952747" lon="8.647220">
<ele>209.0</ele>
<speed>1.17</speed>
<course>198.2</course>
<desc>Speed 4.2 km/h Distance 2.57 km</desc>
<time>2010-10-24T10:54:54.88</time>
<name>1554</name>
</trkpt>
<trkpt lat="48.952737" lon="8.647215">
<ele>208.0</ele>
<speed>0.98</speed>
<course>246.3</course>
<desc>Speed 3.5 km/h Distance 2.57 km</desc>
<time>2010-10-24T10:54:55.89</time>
<name>1555</name>
</trkpt>
<trkpt lat="48.952733" lon="8.647203">
<ele>208.0</ele>
<speed>0.77</speed>
<course>261.3</course>
<desc>Speed 2.8 km/h Distance 2.57 km</desc>
<time>2010-10-24T10:54:56.85</time>
<name>1556</name>
</trkpt>
<trkpt lat="48.952732" lon="8.647187">
<ele>205.0</ele>
<speed>0.46</speed>
<course>307.0</course>
<desc>Speed 1.7 km/h Distance 2.57 km</desc>
<time>2010-10-24T10:54:58.87</time>
<name>1557</name>
</trkpt>
<trkpt lat="48.952735" lon="8.647180">
<ele>203.5</ele>
<speed>0.74</speed>
<course>333.6</course>
<desc>Speed 2.7 km/h Distance 2.57 km</desc>
<time>2010-10-24T10:54:59.84</time>
<name>1558</name>
</trkpt>
<trkpt lat="48.952742" lon="8.647175">
<ele>202.5</ele>
<speed>1.00</speed>
<course>307.3</course>
<desc>Speed 3.6 km/h Distance 2.57 km</desc>
<time>2010-10-24T10:55:00.86</time>
<name>1559</name>
</trkpt>
<trkpt lat="48.952752" lon="8.647155">
<ele>203.5</ele>
<speed>1.17</speed>
<course>294.1</course>
<desc>Speed 4.2 km/h Distance 2.57 km</desc>
<time>2010-10-24T10:55:01.85</time>
<name>1560</name>
</trkpt>
<trkpt lat="48.952760" lon="8.647127">
<ele>204.5</ele>
<speed>0.85</speed>
<course>286.2</course>
<desc>Speed 3.1 km/h Distance 2.58 km</desc>
<time>2010-10-24T10:55:02.82</time>
<name>1561</name>
</trkpt>
<trkpt lat="48.952767" lon="8.647092">
<ele>207.0</ele>
<speed>0.62</speed>
<course>302.6</course>
<desc>Speed 2.2 km/h Distance 2.58 km</desc>
<time>2010-10-24T10:55:03.82</time>
<name>1562</name>
</trkpt>
<trkpt lat="48.952788" lon="8.647040">
<ele>210.5</ele>
<speed>0.93</speed>
<course>350.4</course>
<desc>Speed 3.3 km/h Distance 2.58 km</desc>
<time>2010-10-24T10:55:05.84</time>
<name>1563</name>
</trkpt>
<trkpt lat="48.952797" lon="8.647038">
<ele>209.5</ele>
<speed>1.16</speed>
<course>312.6</course>
<desc>Speed 4.2 km/h Distance 2.58 km</desc>
<time>2010-10-24T10:55:06.81</time>
<name>1564</name>
</trkpt>
<trkpt lat="48.952802" lon="8.647030">
<ele>209.5</ele>
<speed>0.76</speed>
<course>296.9</course>
<desc>Speed 2.7 km/h Distance 2.58 km</desc>
<time>2010-10-24T10:55:07.81</time>
<name>1565</name>
</trkpt>
<trkpt lat="48.952808" lon="8.647010">
<ele>209.5</ele>
<speed>0.69</speed>
<course>320.3</course>
<desc>Speed 2.5 km/h Distance 2.59 km</desc>
<time>2010-10-24T10:55:09.81</time>
<name>1566</name>
</trkpt>
<trkpt lat="48.952815" lon="8.647002">
<ele>209.5</ele>
<speed>0.77</speed>
<course>326.3</course>
<desc>Speed 2.8 km/h Distance 2.59 km</desc>
<time>2010-10-24T10:55:10.80</time>
<name>1567</name>
</trkpt>
<trkpt lat="48.952822" lon="8.646995">
<ele>209.5</ele>
<speed>0.81</speed>
<course>336.2</course>
<desc>Speed 2.9 km/h Distance 2.59 km</desc>
<time>2010-10-24T10:55:11.79</time>
<name>1568</name>
</trkpt>
<trkpt lat="48.952832" lon="8.646988">
<ele>208.5</ele>
<speed>1.21</speed>
<course>345.1</course>
<desc>Speed 4.4 km/h Distance 2.59 km</desc>
<time>2010-10-24T10:55:12.78</time>
<name>1569</name>
</trkpt>
<trkpt lat="48.952840" lon="8.646985">
<ele>207.5</ele>
<speed>0.97</speed>
<course>319.1</course>
<desc>Speed 3.5 km/h Distance 2.59 km</desc>
<time>2010-10-24T10:55:13.77</time>
<name>1570</name>
</trkpt>
<trkpt lat="48.952845" lon="8.646978">
<ele>206.5</ele>
<speed>0.63</speed>
<course>332.1</course>
<desc>Speed 2.3 km/h Distance 2.59 km</desc>
<time>2010-10-24T10:55:14.77</time>
<name>1571</name>
</trkpt>
<trkpt lat="48.952853" lon="8.646972">
<ele>206.0</ele>
<speed>1.09</speed>
<course>333.6</course>
<desc>Speed 3.9 km/h Distance 2.59 km</desc>
<time>2010-10-24T10:55:15.76</time>
<name>1572</name>
</trkpt>
<trkpt lat="48.952860" lon="8.646967">
<ele>205.0</ele>
<speed>0.64</speed>
<course>341.8</course>
<desc>Speed 2.3 km/h Distance 2.59 km</desc>
<time>2010-10-24T10:55:16.76</time>
<name>1573</name>
</trkpt>
<trkpt lat="48.952870" lon="8.646962">
<ele>204.5</ele>
<speed>1.03</speed>
<course>286.9</course>
<desc>Speed 3.7 km/h Distance 2.59 km</desc>
<time>2010-10-24T10:55:17.78</time>
<name>1574</name>
</trkpt>
<trkpt lat="48.952892" lon="8.646853">
<ele>212.5</ele>
<speed>1.33</speed>
<course>335.2</course>
<desc>Speed 4.8 km/h Distance 2.60 km</desc>
<time>2010-10-24T10:55:19.78</time>
<name>1575</name>
</trkpt>
<trkpt lat="48.952898" lon="8.646848">
<ele>212.5</ele>
<speed>0.93</speed>
<course>352.3</course>
<desc>Speed 3.3 km/h Distance 2.60 km</desc>
<time>2010-10-24T10:55:20.75</time>
<name>1576</name>
</trkpt>
<trkpt lat="48.952907" lon="8.646847">
<ele>212.0</ele>
<speed>0.95</speed>
<course>334.6</course>
<desc>Speed 3.4 km/h Distance 2.60 km</desc>
<time>2010-10-24T10:55:21.74</time>
<name>1577</name>
</trkpt>
<trkpt lat="48.952912" lon="8.646843">
<ele>212.0</ele>
<speed>0.40</speed>
<course>345.1</course>
<desc>Speed 1.4 km/h Distance 2.60 km</desc>
<time>2010-10-24T10:55:22.74</time>
<name>1578</name>
</trkpt>
<trkpt lat="48.952920" lon="8.646840">
<ele>211.5</ele>
<speed>0.93</speed>
<course>333.6</course>
<desc>Speed 3.3 km/h Distance 2.61 km</desc>
<time>2010-10-24T10:55:23.74</time>
<name>1579</name>
</trkpt>
<trkpt lat="48.952927" lon="8.646835">
<ele>211.0</ele>
<speed>0.62</speed>
<course>307.2</course>
<desc>Speed 2.2 km/h Distance 2.61 km</desc>
<time>2010-10-24T10:55:24.73</time>
<name>1580</name>
</trkpt>
<trkpt lat="48.952932" lon="8.646825">
<ele>210.5</ele>
<speed>0.67</speed>
<course>316.0</course>
<desc>Speed 2.4 km/h Distance 2.61 km</desc>
<time>2010-10-24T10:55:25.73</time>
<name>1581</name>
</trkpt>
<trkpt lat="48.952938" lon="8.646815">
<ele>210.5</ele>
<speed>0.34</speed>
<course>355.0</course>
<desc>Speed 1.2 km/h Distance 2.61 km</desc>
<time>2010-10-24T10:55:27.72</time>
<name>1582</name>
</trkpt>
<trkpt lat="48.952947" lon="8.646813">
<ele>210.0</ele>
<speed>0.75</speed>
<course>352.3</course>
<desc>Speed 2.7 km/h Distance 2.61 km</desc>
<time>2010-10-24T10:55:28.72</time>
<name>1583</name>
</trkpt>
<trkpt lat="48.952955" lon="8.646812">
<ele>210.0</ele>
<speed>0.77</speed>
<course>345.1</course>
<desc>Speed 2.8 km/h Distance 2.61 km</desc>
<time>2010-10-24T10:55:29.71</time>
<name>1584</name>
</trkpt>
<trkpt lat="48.952963" lon="8.646808">
<ele>210.0</ele>
<speed>0.63</speed>
<course>349.7</course>
<desc>Speed 2.3 km/h Distance 2.61 km</desc>
<time>2010-10-24T10:55:30.72</time>
<name>1585</name>
</trkpt>
<trkpt lat="48.952970" lon="8.646807">
<ele>209.5</ele>
<speed>0.52</speed>
<course>349.4</course>
<desc>Speed 1.9 km/h Distance 2.61 km</desc>
<time>2010-10-24T10:55:31.71</time>
<name>1586</name>
</trkpt>
<trkpt lat="48.952980" lon="8.646803">
<ele>210.0</ele>
<speed>1.12</speed>
<course>355.0</course>
<desc>Speed 4.0 km/h Distance 2.61 km</desc>
<time>2010-10-24T10:55:32.71</time>
<name>1587</name>
</trkpt>
<trkpt lat="48.952988" lon="8.646802">
<ele>209.5</ele>
<speed>0.86</speed>
<course>348.4</course>
<desc>Speed 3.1 km/h Distance 2.61 km</desc>
<time>2010-10-24T10:55:33.71</time>
<name>1588</name>
</trkpt>
<trkpt lat="48.952998" lon="8.646798">
<ele>209.5</ele>
<speed>0.72</speed>
<course>349.6</course>
<desc>Speed 2.6 km/h Distance 2.61 km</desc>
<time>2010-10-24T10:55:34.70</time>
<name>1589</name>
</trkpt>
<trkpt lat="48.953010" lon="8.646795">
<ele>209.5</ele>
<speed>1.00</speed>
<course>345.1</course>
<desc>Speed 3.6 km/h Distance 2.62 km</desc>
<time>2010-10-24T10:55:35.69</time>
<name>1590</name>
</trkpt>
<trkpt lat="48.953018" lon="8.646792">
<ele>209.0</ele>
<speed>0.79</speed>
<course>315.5</course>
<desc>Speed 2.8 km/h Distance 2.62 km</desc>
<time>2010-10-24T10:55:36.68</time>
<name>1591</name>
</trkpt>
<trkpt lat="48.953025" lon="8.646782">
<ele>208.5</ele>
<speed>0.43</speed>
<course>321.4</course>
<desc>Speed 1.5 km/h Distance 2.62 km</desc>
<time>2010-10-24T10:55:37.68</time>
<name>1592</name>
</trkpt>
<trkpt lat="48.953033" lon="8.646772">
<ele>208.5</ele>
<speed>0.77</speed>
<course>326.8</course>
<desc>Speed 2.8 km/h Distance 2.62 km</desc>
<time>2010-10-24T10:55:38.67</time>
<name>1593</name>
</trkpt>
<trkpt lat="48.953038" lon="8.646767">
<ele>207.5</ele>
<speed>0.47</speed>
<course>352.3</course>
<desc>Speed 1.7 km/h Distance 2.62 km</desc>
<time>2010-10-24T10:55:39.66</time>
<name>1594</name>
</trkpt>
<trkpt lat="48.953047" lon="8.646765">
<ele>207.0</ele>
<speed>0.85</speed>
<course>4.4</course>
<desc>Speed 3.1 km/h Distance 2.62 km</desc>
<time>2010-10-24T10:55:40.66</time>
<name>1595</name>
</trkpt>
<trkpt lat="48.953057" lon="8.646765">
<ele>206.5</ele>
<speed>1.09</speed>
<course>7.4</course>
<desc>Speed 3.9 km/h Distance 2.62 km</desc>
<time>2010-10-24T10:55:41.65</time>
<name>1596</name>
</trkpt>
<trkpt lat="48.953063" lon="8.646765">
<ele>205.5</ele>
<speed>0.69</speed>
<course>4.4</course>
<desc>Speed 2.5 km/h Distance 2.62 km</desc>
<time>2010-10-24T10:55:42.65</time>
<name>1597</name>
</trkpt>
<trkpt lat="48.953073" lon="8.646765">
<ele>205.0</ele>
<speed>0.94</speed>
<course>4.4</course>
<desc>Speed 3.4 km/h Distance 2.62 km</desc>
<time>2010-10-24T10:55:43.64</time>
<name>1598</name>
</trkpt>
<trkpt lat="48.953083" lon="8.646765">
<ele>204.5</ele>
<speed>0.83</speed>
<course>348.8</course>
<desc>Speed 3.0 km/h Distance 2.62 km</desc>
<time>2010-10-24T10:55:44.64</time>
<name>1599</name>
</trkpt>
<trkpt lat="48.953095" lon="8.646762">
<ele>204.0</ele>
<speed>0.85</speed>
<course>344.5</course>
<desc>Speed 3.1 km/h Distance 2.63 km</desc>
<time>2010-10-24T10:55:45.63</time>
<name>1600</name>
</trkpt>
<trkpt lat="48.953107" lon="8.646757">
<ele>203.5</ele>
<speed>0.68</speed>
<course>4.4</course>
<desc>Speed 2.4 km/h Distance 2.63 km</desc>
<time>2010-10-24T10:55:46.63</time>
<name>1601</name>
</trkpt>
<trkpt lat="48.953117" lon="8.646758">
<ele>202.5</ele>
<speed>0.73</speed>
<course>5.0</course>
<desc>Speed 2.6 km/h Distance 2.63 km</desc>
<time>2010-10-24T10:55:47.62</time>
<name>1602</name>
</trkpt>
<trkpt lat="48.953125" lon="8.646760">
<ele>202.0</ele>
<speed>0.87</speed>
<course>349.7</course>
<desc>Speed 3.1 km/h Distance 2.63 km</desc>
<time>2010-10-24T10:55:48.62</time>
<name>1603</name>
</trkpt>
<trkpt lat="48.953132" lon="8.646758">
<ele>201.0</ele>
<speed>0.58</speed>
<course>352.3</course>
<desc>Speed 2.1 km/h Distance 2.63 km</desc>
<time>2010-10-24T10:55:49.62</time>
<name>1604</name>
</trkpt>
<trkpt lat="48.953140" lon="8.646757">
<ele>200.5</ele>
<speed>0.64</speed>
<course>353.4</course>
<desc>Speed 2.3 km/h Distance 2.63 km</desc>
<time>2010-10-24T10:55:50.62</time>
<name>1605</name>
</trkpt>
<trkpt lat="48.953150" lon="8.646755">
<ele>199.5</ele>
<speed>0.60</speed>
<course>347.4</course>
<desc>Speed 2.2 km/h Distance 2.63 km</desc>
<time>2010-10-24T10:55:51.61</time>
<name>1606</name>
</trkpt>
<trkpt lat="48.953160" lon="8.646752">
<ele>199.0</ele>
<speed>0.62</speed>
<course>352.3</course>
<desc>Speed 2.2 km/h Distance 2.63 km</desc>
<time>2010-10-24T10:55:52.61</time>
<name>1607</name>
</trkpt>
<trkpt lat="48.953168" lon="8.646750">
<ele>198.5</ele>
<speed>0.66</speed>
<course>0.0</course>
<desc>Speed 2.4 km/h Distance 2.63 km</desc>
<time>2010-10-24T10:55:53.60</time>
<name>1608</name>
</trkpt>
<trkpt lat="48.953177" lon="8.646750">
<ele>198.0</ele>
<speed>0.67</speed>
<course>5.0</course>
<desc>Speed 2.4 km/h Distance 2.64 km</desc>
<time>2010-10-24T10:55:54.59</time>
<name>1609</name>
</trkpt>
<trkpt lat="48.953185" lon="8.646752">
<ele>197.0</ele>
<speed>0.93</speed>
<course>0.0</course>
<desc>Speed 3.3 km/h Distance 2.64 km</desc>
<time>2010-10-24T10:55:55.59</time>
<name>1610</name>
</trkpt>
<trkpt lat="48.953195" lon="8.646752">
<ele>196.5</ele>
<speed>0.93</speed>
<course>5.0</course>
<desc>Speed 3.3 km/h Distance 2.64 km</desc>
<time>2010-10-24T10:55:56.58</time>
<name>1611</name>
</trkpt>
<trkpt lat="48.953203" lon="8.646752">
<ele>196.0</ele>
<speed>0.76</speed>
<course>0.0</course>
<desc>Speed 2.7 km/h Distance 2.64 km</desc>
<time>2010-10-24T10:55:57.57</time>
<name>1612</name>
</trkpt>
<trkpt lat="48.953212" lon="8.646752">
<ele>196.0</ele>
<speed>0.80</speed>
<course>0.0</course>
<desc>Speed 2.9 km/h Distance 2.64 km</desc>
<time>2010-10-24T10:55:58.57</time>
<name>1613</name>
</trkpt>
<trkpt lat="48.953220" lon="8.646752">
<ele>195.0</ele>
<speed>0.75</speed>
<course>303.3</course>
<desc>Speed 2.7 km/h Distance 2.64 km</desc>
<time>2010-10-24T10:55:59.56</time>
<name>1614</name>
</trkpt>
<trkpt lat="48.953225" lon="8.646740">
<ele>196.0</ele>
<speed>0.44</speed>
<course>286.9</course>
<desc>Speed 1.6 km/h Distance 2.64 km</desc>
<time>2010-10-24T10:56:00.56</time>
<name>1615</name>
</trkpt>
<trkpt lat="48.953242" lon="8.646657">
<ele>202.5</ele>
<speed>0.46</speed>
<course>11.6</course>
<desc>Speed 1.7 km/h Distance 2.65 km</desc>
<time>2010-10-24T10:56:03.56</time>
<name>1616</name>
</trkpt>
<trkpt lat="48.953252" lon="8.646660">
<ele>202.0</ele>
<speed>1.09</speed>
<course>17.5</course>
<desc>Speed 3.9 km/h Distance 2.65 km</desc>
<time>2010-10-24T10:56:04.55</time>
<name>1617</name>
</trkpt>
<trkpt lat="48.953258" lon="8.646663">
<ele>201.5</ele>
<speed>0.64</speed>
<course>287.7</course>
<desc>Speed 2.3 km/h Distance 2.65 km</desc>
<time>2010-10-24T10:56:05.54</time>
<name>1618</name>
</trkpt>
<trkpt lat="48.953287" lon="8.646528">
<ele>212.5</ele>
<speed>0.66</speed>
<course>299.7</course>
<desc>Speed 2.4 km/h Distance 2.66 km</desc>
<time>2010-10-24T10:56:11.50</time>
<name>1619</name>
</trkpt>
<trkpt lat="48.953297" lon="8.646502">
<ele>215.0</ele>
<speed>0.68</speed>
<course>308.7</course>
<desc>Speed 2.4 km/h Distance 2.66 km</desc>
<time>2010-10-24T10:56:12.50</time>
<name>1620</name>
</trkpt>
<trkpt lat="48.953313" lon="8.646470">
<ele>217.5</ele>
<speed>0.46</speed>
<course>34.1</course>
<desc>Speed 1.7 km/h Distance 2.67 km</desc>
<time>2010-10-24T10:56:14.50</time>
<name>1621</name>
</trkpt>
<trkpt lat="48.953318" lon="8.646475">
<ele>216.5</ele>
<speed>0.60</speed>
<course>53.0</course>
<desc>Speed 2.2 km/h Distance 2.67 km</desc>
<time>2010-10-24T10:56:15.50</time>
<name>1622</name>
</trkpt>
<trkpt lat="48.953322" lon="8.646482">
<ele>215.5</ele>
<speed>0.51</speed>
<course>293.5</course>
<desc>Speed 1.8 km/h Distance 2.67 km</desc>
<time>2010-10-24T10:56:16.49</time>
<name>1623</name>
</trkpt>
<trkpt lat="48.953325" lon="8.646470">
<ele>216.0</ele>
<speed>0.55</speed>
<course>307.3</course>
<desc>Speed 2.0 km/h Distance 2.67 km</desc>
<time>2010-10-24T10:56:17.49</time>
<name>1624</name>
</trkpt>
<trkpt lat="48.953332" lon="8.646457">
<ele>217.0</ele>
<speed>0.58</speed>
<course>302.4</course>
<desc>Speed 2.1 km/h Distance 2.67 km</desc>
<time>2010-10-24T10:56:18.48</time>
<name>1625</name>
</trkpt>
<trkpt lat="48.953340" lon="8.646437">
<ele>219.0</ele>
<speed>0.46</speed>
<course>33.2</course>
<desc>Speed 1.7 km/h Distance 2.67 km</desc>
<time>2010-10-24T10:56:19.48</time>
<name>1626</name>
</trkpt>
<trkpt lat="48.953345" lon="8.646442">
<ele>218.0</ele>
<speed>0.49</speed>
<course>289.4</course>
<desc>Speed 1.8 km/h Distance 2.67 km</desc>
<time>2010-10-24T10:56:20.47</time>
<name>1627</name>
</trkpt>
<trkpt lat="48.953350" lon="8.646420">
<ele>221.0</ele>
<speed>0.51</speed>
<course>337.8</course>
<desc>Speed 1.8 km/h Distance 2.67 km</desc>
<time>2010-10-24T10:56:21.47</time>
<name>1628</name>
</trkpt>
<trkpt lat="48.953355" lon="8.646417">
<ele>221.5</ele>
<speed>0.63</speed>
<course>18.8</course>
<desc>Speed 2.3 km/h Distance 2.67 km</desc>
<time>2010-10-24T10:56:22.47</time>
<name>1629</name>
</trkpt>
<trkpt lat="48.953362" lon="8.646420">
<ele>220.5</ele>
<speed>0.70</speed>
<course>14.9</course>
<desc>Speed 2.5 km/h Distance 2.67 km</desc>
<time>2010-10-24T10:56:23.46</time>
<name>1630</name>
</trkpt>
<trkpt lat="48.953370" lon="8.646423">
<ele>220.5</ele>
<speed>0.83</speed>
<course>27.9</course>
<desc>Speed 3.0 km/h Distance 2.67 km</desc>
<time>2010-10-24T10:56:24.45</time>
<name>1631</name>
</trkpt>
<trkpt lat="48.953378" lon="8.646430">
<ele>219.5</ele>
<speed>0.87</speed>
<course>355.9</course>
<desc>Speed 3.1 km/h Distance 2.68 km</desc>
<time>2010-10-24T10:56:25.45</time>
<name>1632</name>
</trkpt>
<trkpt lat="48.953395" lon="8.646428">
<ele>220.0</ele>
<speed>1.25</speed>
<course>9.5</course>
<desc>Speed 4.5 km/h Distance 2.68 km</desc>
<time>2010-10-24T10:56:26.45</time>
<name>1633</name>
</trkpt>
<trkpt lat="48.953407" lon="8.646432">
<ele>220.0</ele>
<speed>0.80</speed>
<course>9.7</course>
<desc>Speed 2.9 km/h Distance 2.68 km</desc>
<time>2010-10-24T10:56:27.44</time>
<name>1634</name>
</trkpt>
<trkpt lat="48.953420" lon="8.646435">
<ele>220.5</ele>
<speed>0.85</speed>
<course>8.8</course>
<desc>Speed 3.1 km/h Distance 2.68 km</desc>
<time>2010-10-24T10:56:28.44</time>
<name>1635</name>
</trkpt>
<trkpt lat="48.953435" lon="8.646438">
<ele>220.0</ele>
<speed>0.87</speed>
<course>352.3</course>
<desc>Speed 3.1 km/h Distance 2.68 km</desc>
<time>2010-10-24T10:56:29.44</time>
<name>1636</name>
</trkpt>
<trkpt lat="48.953443" lon="8.646437">
<ele>219.5</ele>
<speed>0.61</speed>
<course>16.0</course>
<desc>Speed 2.2 km/h Distance 2.68 km</desc>
<time>2010-10-24T10:56:30.43</time>
<name>1637</name>
</trkpt>
<trkpt lat="48.953455" lon="8.646442">
<ele>219.5</ele>
<speed>1.05</speed>
<course>12.6</course>
<desc>Speed 3.8 km/h Distance 2.68 km</desc>
<time>2010-10-24T10:56:31.43</time>
<name>1638</name>
</trkpt>
<trkpt lat="48.953465" lon="8.646445">
<ele>220.0</ele>
<speed>0.60</speed>
<course>16.0</course>
<desc>Speed 2.2 km/h Distance 2.69 km</desc>
<time>2010-10-24T10:56:32.42</time>
<name>1639</name>
</trkpt>
<trkpt lat="48.953477" lon="8.646450">
<ele>220.0</ele>
<speed>0.64</speed>
<course>0.0</course>
<desc>Speed 2.3 km/h Distance 2.69 km</desc>
<time>2010-10-24T10:56:33.42</time>
<name>1640</name>
</trkpt>
<trkpt lat="48.953488" lon="8.646450">
<ele>220.5</ele>
<speed>0.94</speed>
<course>334.4</course>
<desc>Speed 3.4 km/h Distance 2.69 km</desc>
<time>2010-10-24T10:56:34.40</time>
<name>1641</name>
</trkpt>
<trkpt lat="48.953495" lon="8.646445">
<ele>220.5</ele>
<speed>0.62</speed>
<course>321.9</course>
<desc>Speed 2.2 km/h Distance 2.69 km</desc>
<time>2010-10-24T10:56:35.40</time>
<name>1642</name>
</trkpt>
<trkpt lat="48.953503" lon="8.646435">
<ele>221.5</ele>
<speed>0.50</speed>
<course>312.3</course>
<desc>Speed 1.8 km/h Distance 2.69 km</desc>
<time>2010-10-24T10:56:36.40</time>
<name>1643</name>
</trkpt>
<trkpt lat="48.953513" lon="8.646418">
<ele>222.5</ele>
<speed>0.43</speed>
<course>315.5</course>
<desc>Speed 1.5 km/h Distance 2.69 km</desc>
<time>2010-10-24T10:56:37.39</time>
<name>1644</name>
</trkpt>
<trkpt lat="48.953527" lon="8.646398">
<ele>224.0</ele>
<speed>0.68</speed>
<course>334.8</course>
<desc>Speed 2.4 km/h Distance 2.69 km</desc>
<time>2010-10-24T10:56:38.39</time>
<name>1645</name>
</trkpt>
<trkpt lat="48.953538" lon="8.646390">
<ele>223.5</ele>
<speed>0.56</speed>
<course>321.9</course>
<desc>Speed 2.0 km/h Distance 2.70 km</desc>
<time>2010-10-24T10:56:39.38</time>
<name>1646</name>
</trkpt>
<trkpt lat="48.953547" lon="8.646380">
<ele>224.0</ele>
<speed>0.61</speed>
<course>318.8</course>
<desc>Speed 2.2 km/h Distance 2.70 km</desc>
<time>2010-10-24T10:56:40.38</time>
<name>1647</name>
</trkpt>
<trkpt lat="48.953557" lon="8.646367">
<ele>225.0</ele>
<speed>0.60</speed>
<course>349.6</course>
<desc>Speed 2.2 km/h Distance 2.70 km</desc>
<time>2010-10-24T10:56:41.37</time>
<name>1648</name>
</trkpt>
<trkpt lat="48.953568" lon="8.646363">
<ele>224.5</ele>
<speed>0.68</speed>
<course>342.4</course>
<desc>Speed 2.4 km/h Distance 2.70 km</desc>
<time>2010-10-24T10:56:42.36</time>
<name>1649</name>
</trkpt>
<trkpt lat="48.953578" lon="8.646358">
<ele>225.5</ele>
<speed>0.63</speed>
<course>0.0</course>
<desc>Speed 2.3 km/h Distance 2.70 km</desc>
<time>2010-10-24T10:56:43.36</time>
<name>1650</name>
</trkpt>
<trkpt lat="48.953592" lon="8.646358">
<ele>226.0</ele>
<speed>0.75</speed>
<course>0.0</course>
<desc>Speed 2.7 km/h Distance 2.70 km</desc>
<time>2010-10-24T10:56:44.35</time>
<name>1651</name>
</trkpt>
<trkpt lat="48.953603" lon="8.646358">
<ele>225.5</ele>
<speed>1.02</speed>
<course>347.4</course>
<desc>Speed 3.7 km/h Distance 2.70 km</desc>
<time>2010-10-24T10:56:45.35</time>
<name>1652</name>
</trkpt>
<trkpt lat="48.953613" lon="8.646355">
<ele>226.0</ele>
<speed>0.58</speed>
<course>345.1</course>
<desc>Speed 2.1 km/h Distance 2.70 km</desc>
<time>2010-10-24T10:56:46.35</time>
<name>1653</name>
</trkpt>
<trkpt lat="48.953630" lon="8.646348">
<ele>226.0</ele>
<speed>1.00</speed>
<course>341.8</course>
<desc>Speed 3.6 km/h Distance 2.71 km</desc>
<time>2010-10-24T10:56:47.34</time>
<name>1654</name>
</trkpt>
<trkpt lat="48.953650" lon="8.646338">
<ele>226.0</ele>
<speed>1.03</speed>
<course>0.0</course>
<desc>Speed 3.7 km/h Distance 2.71 km</desc>
<time>2010-10-24T10:56:48.34</time>
<name>1655</name>
</trkpt>
<trkpt lat="48.953672" lon="8.646337">
<ele>226.0</ele>
<speed>0.97</speed>
<course>337.5</course>
<desc>Speed 3.5 km/h Distance 2.71 km</desc>
<time>2010-10-24T10:56:49.33</time>
<name>1656</name>
</trkpt>
<trkpt lat="48.953690" lon="8.646325">
<ele>226.0</ele>
<speed>0.75</speed>
<course>351.2</course>
<desc>Speed 2.7 km/h Distance 2.71 km</desc>
<time>2010-10-24T10:56:51.33</time>
<name>1657</name>
</trkpt>
<trkpt lat="48.953705" lon="8.646322">
<ele>226.0</ele>
<speed>0.92</speed>
<course>349.8</course>
<desc>Speed 3.3 km/h Distance 2.72 km</desc>
<time>2010-10-24T10:56:52.32</time>
<name>1658</name>
</trkpt>
<trkpt lat="48.953723" lon="8.646317">
<ele>227.0</ele>
<speed>0.87</speed>
<course>356.3</course>
<desc>Speed 3.1 km/h Distance 2.72 km</desc>
<time>2010-10-24T10:56:53.32</time>
<name>1659</name>
</trkpt>
<trkpt lat="48.953743" lon="8.646315">
<ele>230.0</ele>
<speed>0.85</speed>
<course>348.8</course>
<desc>Speed 3.1 km/h Distance 2.72 km</desc>
<time>2010-10-24T10:56:54.32</time>
<name>1660</name>
</trkpt>
<trkpt lat="48.953755" lon="8.646312">
<ele>229.5</ele>
<speed>0.87</speed>
<course>346.5</course>
<desc>Speed 3.1 km/h Distance 2.72 km</desc>
<time>2010-10-24T10:56:55.32</time>
<name>1661</name>
</trkpt>
<trkpt lat="48.953768" lon="8.646307">
<ele>229.0</ele>
<speed>0.75</speed>
<course>311.7</course>
<desc>Speed 2.7 km/h Distance 2.72 km</desc>
<time>2010-10-24T10:56:56.32</time>
<name>1662</name>
</trkpt>
<trkpt lat="48.953780" lon="8.646287">
<ele>231.0</ele>
<speed>1.07</speed>
<course>351.2</course>
<desc>Speed 3.9 km/h Distance 2.72 km</desc>
<time>2010-10-24T10:56:57.31</time>
<name>1663</name>
</trkpt>
<trkpt lat="48.953795" lon="8.646283">
<ele>231.0</ele>
<speed>1.25</speed>
<course>347.4</course>
<desc>Speed 4.5 km/h Distance 2.73 km</desc>
<time>2010-10-24T10:56:58.31</time>
<name>1664</name>
</trkpt>
<trkpt lat="48.953810" lon="8.646278">
<ele>231.0</ele>
<speed>1.20</speed>
<course>343.4</course>
<desc>Speed 4.3 km/h Distance 2.73 km</desc>
<time>2010-10-24T10:56:59.31</time>
<name>1665</name>
</trkpt>
<trkpt lat="48.953825" lon="8.646272">
<ele>231.5</ele>
<speed>1.00</speed>
<course>333.8</course>
<desc>Speed 3.6 km/h Distance 2.73 km</desc>
<time>2010-10-24T10:57:00.30</time>
<name>1666</name>
</trkpt>
<trkpt lat="48.953838" lon="8.646262">
<ele>232.0</ele>
<speed>0.67</speed>
<course>307.3</course>
<desc>Speed 2.4 km/h Distance 2.73 km</desc>
<time>2010-10-24T10:57:01.30</time>
<name>1667</name>
</trkpt>
<trkpt lat="48.953847" lon="8.646245">
<ele>232.0</ele>
<speed>0.61</speed>
<course>344.0</course>
<desc>Speed 2.2 km/h Distance 2.73 km</desc>
<time>2010-10-24T10:57:02.30</time>
<name>1668</name>
</trkpt>
<trkpt lat="48.953858" lon="8.646240">
<ele>231.5</ele>
<speed>0.66</speed>
<course>335.7</course>
<desc>Speed 2.4 km/h Distance 2.73 km</desc>
<time>2010-10-24T10:57:03.28</time>
<name>1669</name>
</trkpt>
<trkpt lat="48.953885" lon="8.646222">
<ele>235.5</ele>
<speed>0.37</speed>
<course>349.6</course>
<desc>Speed 1.3 km/h Distance 2.74 km</desc>
<time>2010-10-24T10:57:05.28</time>
<name>1670</name>
</trkpt>
<trkpt lat="48.953897" lon="8.646218">
<ele>234.5</ele>
<speed>0.93</speed>
<course>336.6</course>
<desc>Speed 3.3 km/h Distance 2.74 km</desc>
<time>2010-10-24T10:57:06.28</time>
<name>1671</name>
</trkpt>
<trkpt lat="48.953907" lon="8.646212">
<ele>234.0</ele>
<speed>0.62</speed>
<course>326.3</course>
<desc>Speed 2.2 km/h Distance 2.74 km</desc>
<time>2010-10-24T10:57:07.28</time>
<name>1672</name>
</trkpt>
<trkpt lat="48.953913" lon="8.646205">
<ele>233.5</ele>
<speed>0.36</speed>
<course>326.5</course>
<desc>Speed 1.3 km/h Distance 2.74 km</desc>
<time>2010-10-24T10:57:09.28</time>
<name>1673</name>
</trkpt>
<trkpt lat="48.953922" lon="8.646197">
<ele>233.0</ele>
<speed>0.62</speed>
<course>299.0</course>
<desc>Speed 2.2 km/h Distance 2.74 km</desc>
<time>2010-10-24T10:57:10.27</time>
<name>1674</name>
</trkpt>
<trkpt lat="48.953928" lon="8.646178">
<ele>233.0</ele>
<speed>0.56</speed>
<course>345.1</course>
<desc>Speed 2.0 km/h Distance 2.74 km</desc>
<time>2010-10-24T10:57:11.26</time>
<name>1675</name>
</trkpt>
<trkpt lat="48.953937" lon="8.646175">
<ele>232.0</ele>
<speed>0.87</speed>
<course>338.5</course>
<desc>Speed 3.1 km/h Distance 2.74 km</desc>
<time>2010-10-24T10:57:12.26</time>
<name>1676</name>
</trkpt>
<trkpt lat="48.953945" lon="8.646170">
<ele>231.0</ele>
<speed>0.80</speed>
<course>341.8</course>
<desc>Speed 2.9 km/h Distance 2.75 km</desc>
<time>2010-10-24T10:57:13.25</time>
<name>1677</name>
</trkpt>
<trkpt lat="48.953955" lon="8.646165">
<ele>231.0</ele>
<speed>0.91</speed>
<course>346.5</course>
<desc>Speed 3.3 km/h Distance 2.75 km</desc>
<time>2010-10-24T10:57:14.25</time>
<name>1678</name>
</trkpt>
<trkpt lat="48.953968" lon="8.646160">
<ele>230.5</ele>
<speed>1.03</speed>
<course>347.4</course>
<desc>Speed 3.7 km/h Distance 2.75 km</desc>
<time>2010-10-24T10:57:15.25</time>
<name>1679</name>
</trkpt>
<trkpt lat="48.953983" lon="8.646155">
<ele>229.5</ele>
<speed>0.87</speed>
<course>352.3</course>
<desc>Speed 3.1 km/h Distance 2.75 km</desc>
<time>2010-10-24T10:57:16.25</time>
<name>1680</name>
</trkpt>
<trkpt lat="48.954000" lon="8.646152">
<ele>228.5</ele>
<speed>0.70</speed>
<course>353.9</course>
<desc>Speed 2.5 km/h Distance 2.75 km</desc>
<time>2010-10-24T10:57:17.24</time>
<name>1681</name>
</trkpt>
<trkpt lat="48.954020" lon="8.646148">
<ele>229.0</ele>
<speed>0.81</speed>
<course>349.6</course>
<desc>Speed 2.9 km/h Distance 2.75 km</desc>
<time>2010-10-24T10:57:18.24</time>
<name>1682</name>
</trkpt>
<trkpt lat="48.954032" lon="8.646145">
<ele>228.0</ele>
<speed>0.81</speed>
<course>333.1</course>
<desc>Speed 2.9 km/h Distance 2.76 km</desc>
<time>2010-10-24T10:57:19.23</time>
<name>1683</name>
</trkpt>
<trkpt lat="48.954047" lon="8.646133">
<ele>229.0</ele>
<speed>0.95</speed>
<course>351.9</course>
<desc>Speed 3.4 km/h Distance 2.76 km</desc>
<time>2010-10-24T10:57:20.23</time>
<name>1684</name>
</trkpt>
<trkpt lat="48.954062" lon="8.646130">
<ele>228.5</ele>
<speed>0.92</speed>
<course>355.0</course>
<desc>Speed 3.3 km/h Distance 2.76 km</desc>
<time>2010-10-24T10:57:21.23</time>
<name>1685</name>
</trkpt>
<trkpt lat="48.954077" lon="8.646128">
<ele>228.0</ele>
<speed>0.79</speed>
<course>349.6</course>
<desc>Speed 2.8 km/h Distance 2.76 km</desc>
<time>2010-10-24T10:57:22.22</time>
<name>1686</name>
</trkpt>
<trkpt lat="48.954088" lon="8.646125">
<ele>226.5</ele>
<speed>0.88</speed>
<course>348.3</course>
<desc>Speed 3.2 km/h Distance 2.76 km</desc>
<time>2010-10-24T10:57:23.22</time>
<name>1687</name>
</trkpt>
<trkpt lat="48.954103" lon="8.646120">
<ele>225.5</ele>
<speed>0.81</speed>
<course>348.3</course>
<desc>Speed 2.9 km/h Distance 2.76 km</desc>
<time>2010-10-24T10:57:24.21</time>
<name>1688</name>
</trkpt>
<trkpt lat="48.954118" lon="8.646115">
<ele>225.5</ele>
<speed>0.75</speed>
<course>326.8</course>
<desc>Speed 2.7 km/h Distance 2.77 km</desc>
<time>2010-10-24T10:57:25.21</time>
<name>1689</name>
</trkpt>
<trkpt lat="48.954127" lon="8.646107">
<ele>224.5</ele>
<speed>0.73</speed>
<course>336.3</course>
<desc>Speed 2.6 km/h Distance 2.77 km</desc>
<time>2010-10-24T10:57:26.20</time>
<name>1690</name>
</trkpt>
<trkpt lat="48.954142" lon="8.646097">
<ele>224.5</ele>
<speed>1.30</speed>
<course>330.2</course>
<desc>Speed 4.7 km/h Distance 2.77 km</desc>
<time>2010-10-24T10:57:27.20</time>
<name>1691</name>
</trkpt>
<trkpt lat="48.954155" lon="8.646085">
<ele>224.5</ele>
<speed>1.00</speed>
<course>353.4</course>
<desc>Speed 3.6 km/h Distance 2.77 km</desc>
<time>2010-10-24T10:57:28.19</time>
<name>1692</name>
</trkpt>
<trkpt lat="48.954175" lon="8.646082">
<ele>225.5</ele>
<speed>0.61</speed>
<course>332.1</course>
<desc>Speed 2.2 km/h Distance 2.77 km</desc>
<time>2010-10-24T10:57:29.18</time>
<name>1693</name>
</trkpt>
<trkpt lat="48.954183" lon="8.646075">
<ele>224.5</ele>
<speed>0.86</speed>
<course>347.7</course>
<desc>Speed 3.1 km/h Distance 2.77 km</desc>
<time>2010-10-24T10:57:30.18</time>
<name>1694</name>
</trkpt>
<trkpt lat="48.954228" lon="8.646060">
<ele>226.0</ele>
<speed>0.87</speed>
<course>349.2</course>
<desc>Speed 3.1 km/h Distance 2.78 km</desc>
<time>2010-10-24T10:57:32.18</time>
<name>1695</name>
</trkpt>
<trkpt lat="48.954280" lon="8.646045">
<ele>227.5</ele>
<speed>0.87</speed>
<course>317.4</course>
<desc>Speed 3.1 km/h Distance 2.78 km</desc>
<time>2010-10-24T10:57:34.17</time>
<name>1696</name>
</trkpt>
<trkpt lat="48.954288" lon="8.646033">
<ele>226.0</ele>
<speed>0.80</speed>
<course>339.1</course>
<desc>Speed 2.9 km/h Distance 2.79 km</desc>
<time>2010-10-24T10:57:35.16</time>
<name>1697</name>
</trkpt>
<trkpt lat="48.954300" lon="8.646027">
<ele>225.5</ele>
<speed>0.88</speed>
<course>345.1</course>
<desc>Speed 3.2 km/h Distance 2.79 km</desc>
<time>2010-10-24T10:57:36.15</time>
<name>1698</name>
</trkpt>
<trkpt lat="48.954312" lon="8.646022">
<ele>224.5</ele>
<speed>0.79</speed>
<course>335.2</course>
<desc>Speed 2.8 km/h Distance 2.79 km</desc>
<time>2010-10-24T10:57:37.14</time>
<name>1699</name>
</trkpt>
<trkpt lat="48.954318" lon="8.646017">
<ele>223.5</ele>
<speed>0.62</speed>
<course>334.0</course>
<desc>Speed 2.2 km/h Distance 2.79 km</desc>
<time>2010-10-24T10:57:38.14</time>
<name>1700</name>
</trkpt>
<trkpt lat="48.954332" lon="8.646007">
<ele>223.0</ele>
<speed>1.12</speed>
<course>341.6</course>
<desc>Speed 4.0 km/h Distance 2.79 km</desc>
<time>2010-10-24T10:57:39.14</time>
<name>1701</name>
</trkpt>
<trkpt lat="48.954345" lon="8.646000">
<ele>222.5</ele>
<speed>0.87</speed>
<course>339.1</course>
<desc>Speed 3.1 km/h Distance 2.79 km</desc>
<time>2010-10-24T10:57:40.14</time>
<name>1702</name>
</trkpt>
<trkpt lat="48.954357" lon="8.645993">
<ele>222.0</ele>
<speed>0.54</speed>
<course>350.3</course>
<desc>Speed 1.9 km/h Distance 2.79 km</desc>
<time>2010-10-24T10:57:41.13</time>
<name>1703</name>
</trkpt>
<trkpt lat="48.954370" lon="8.645990">
<ele>223.0</ele>
<speed>1.00</speed>
<course>347.8</course>
<desc>Speed 3.6 km/h Distance 2.79 km</desc>
<time>2010-10-24T10:57:42.12</time>
<name>1704</name>
</trkpt>
<trkpt lat="48.954385" lon="8.645985">
<ele>223.0</ele>
<speed>1.03</speed>
<course>331.4</course>
<desc>Speed 3.7 km/h Distance 2.80 km</desc>
<time>2010-10-24T10:57:43.14</time>
<name>1705</name>
</trkpt>
<trkpt lat="48.954395" lon="8.645977">
<ele>222.5</ele>
<speed>0.88</speed>
<course>353.0</course>
<desc>Speed 3.2 km/h Distance 2.80 km</desc>
<time>2010-10-24T10:57:44.10</time>
<name>1706</name>
</trkpt>
<trkpt lat="48.954413" lon="8.645973">
<ele>223.0</ele>
<speed>0.87</speed>
<course>326.8</course>
<desc>Speed 3.1 km/h Distance 2.80 km</desc>
<time>2010-10-24T10:57:45.09</time>
<name>1707</name>
</trkpt>
<trkpt lat="48.954418" lon="8.645968">
<ele>222.5</ele>
<speed>0.47</speed>
<course>314.4</course>
<desc>Speed 1.7 km/h Distance 2.80 km</desc>
<time>2010-10-24T10:57:46.08</time>
<name>1708</name>
</trkpt>
<trkpt lat="48.954433" lon="8.645945">
<ele>224.5</ele>
<speed>0.81</speed>
<course>331.4</course>
<desc>Speed 2.9 km/h Distance 2.80 km</desc>
<time>2010-10-24T10:57:47.08</time>
<name>1709</name>
</trkpt>
<trkpt lat="48.954453" lon="8.645928">
<ele>223.5</ele>
<speed>0.92</speed>
<course>334.0</course>
<desc>Speed 3.3 km/h Distance 2.81 km</desc>
<time>2010-10-24T10:57:50.08</time>
<name>1710</name>
</trkpt>
<trkpt lat="48.954467" lon="8.645918">
<ele>224.0</ele>
<speed>1.17</speed>
<course>326.8</course>
<desc>Speed 4.2 km/h Distance 2.81 km</desc>
<time>2010-10-24T10:57:51.08</time>
<name>1711</name>
</trkpt>
<trkpt lat="48.954475" lon="8.645910">
<ele>224.0</ele>
<speed>0.74</speed>
<course>334.8</course>
<desc>Speed 2.7 km/h Distance 2.81 km</desc>
<time>2010-10-24T10:57:52.07</time>
<name>1712</name>
</trkpt>
<trkpt lat="48.954487" lon="8.645902">
<ele>224.5</ele>
<speed>0.82</speed>
<course>326.8</course>
<desc>Speed 3.0 km/h Distance 2.81 km</desc>
<time>2010-10-24T10:57:53.06</time>
<name>1713</name>
</trkpt>
<trkpt lat="48.954497" lon="8.645892">
<ele>224.5</ele>
<speed>0.97</speed>
<course>338.5</course>
<desc>Speed 3.5 km/h Distance 2.81 km</desc>
<time>2010-10-24T10:57:54.06</time>
<name>1714</name>
</trkpt>
<trkpt lat="48.954505" lon="8.645887">
<ele>224.0</ele>
<speed>0.86</speed>
<course>338.5</course>
<desc>Speed 3.1 km/h Distance 2.81 km</desc>
<time>2010-10-24T10:57:55.05</time>
<name>1715</name>
</trkpt>
<trkpt lat="48.954513" lon="8.645882">
<ele>223.0</ele>
<speed>0.64</speed>
<course>310.6</course>
<desc>Speed 2.3 km/h Distance 2.81 km</desc>
<time>2010-10-24T10:57:56.05</time>
<name>1716</name>
</trkpt>
<trkpt lat="48.954543" lon="8.645828">
<ele>228.0</ele>
<speed>1.14</speed>
<course>338.5</course>
<desc>Speed 4.1 km/h Distance 2.82 km</desc>
<time>2010-10-24T10:57:58.05</time>
<name>1717</name>
</trkpt>
<trkpt lat="48.954552" lon="8.645823">
<ele>227.0</ele>
<speed>0.75</speed>
<course>310.9</course>
<desc>Speed 2.7 km/h Distance 2.82 km</desc>
<time>2010-10-24T10:57:59.05</time>
<name>1718</name>
</trkpt>
<trkpt lat="48.954558" lon="8.645812">
<ele>227.5</ele>
<speed>0.77</speed>
<course>315.5</course>
<desc>Speed 2.8 km/h Distance 2.82 km</desc>
<time>2010-10-24T10:58:00.04</time>
<name>1719</name>
</trkpt>
<trkpt lat="48.954562" lon="8.645807">
<ele>227.5</ele>
<speed>0.52</speed>
<course>326.3</course>
<desc>Speed 1.9 km/h Distance 2.82 km</desc>
<time>2010-10-24T10:58:01.03</time>
<name>1720</name>
</trkpt>
<trkpt lat="48.954568" lon="8.645800">
<ele>228.0</ele>
<speed>0.62</speed>
<course>346.4</course>
<desc>Speed 2.2 km/h Distance 2.82 km</desc>
<time>2010-10-24T10:58:02.03</time>
<name>1721</name>
</trkpt>
<trkpt lat="48.954587" lon="8.645793">
<ele>228.5</ele>
<speed>0.80</speed>
<course>339.8</course>
<desc>Speed 2.9 km/h Distance 2.82 km</desc>
<time>2010-10-24T10:58:03.02</time>
<name>1722</name>
</trkpt>
<trkpt lat="48.954598" lon="8.645787">
<ele>228.0</ele>
<speed>0.76</speed>
<course>354.4</course>
<desc>Speed 2.7 km/h Distance 2.83 km</desc>
<time>2010-10-24T10:58:04.02</time>
<name>1723</name>
</trkpt>
<trkpt lat="48.954622" lon="8.645783">
<ele>228.5</ele>
<speed>0.70</speed>
<course>348.8</course>
<desc>Speed 2.5 km/h Distance 2.83 km</desc>
<time>2010-10-24T10:58:05.01</time>
<name>1724</name>
</trkpt>
<trkpt lat="48.954638" lon="8.645778">
<ele>227.5</ele>
<speed>0.86</speed>
<course>349.2</course>
<desc>Speed 3.1 km/h Distance 2.83 km</desc>
<time>2010-10-24T10:58:06.00</time>
<name>1725</name>
</trkpt>
<trkpt lat="48.954655" lon="8.645773">
<ele>226.5</ele>
<speed>0.37</speed>
<course>349.2</course>
<desc>Speed 1.3 km/h Distance 2.83 km</desc>
<time>2010-10-24T10:58:07.00</time>
<name>1726</name>
</trkpt>
<trkpt lat="48.954672" lon="8.645768">
<ele>226.0</ele>
<speed>0.49</speed>
<course>346.5</course>
<desc>Speed 1.8 km/h Distance 2.83 km</desc>
<time>2010-10-24T10:58:07.99</time>
<name>1727</name>
</trkpt>
<trkpt lat="48.954685" lon="8.645763">
<ele>225.0</ele>
<speed>0.70</speed>
<course>339.4</course>
<desc>Speed 2.5 km/h Distance 2.84 km</desc>
<time>2010-10-24T10:58:08.98</time>
<name>1728</name>
</trkpt>
<trkpt lat="48.954697" lon="8.645757">
<ele>224.0</ele>
<speed>0.87</speed>
<course>345.6</course>
<desc>Speed 3.1 km/h Distance 2.84 km</desc>
<time>2010-10-24T10:58:09.98</time>
<name>1729</name>
</trkpt>
<trkpt lat="48.954710" lon="8.645752">
<ele>223.5</ele>
<speed>0.93</speed>
<course>301.3</course>
<desc>Speed 3.3 km/h Distance 2.84 km</desc>
<time>2010-10-24T10:58:10.98</time>
<name>1730</name>
</trkpt>
<trkpt lat="48.954717" lon="8.645735">
<ele>225.0</ele>
<speed>0.43</speed>
<course>0.0</course>
<desc>Speed 1.5 km/h Distance 2.84 km</desc>
<time>2010-10-24T10:58:11.98</time>
<name>1731</name>
</trkpt>
<trkpt lat="48.954732" lon="8.645735">
<ele>226.0</ele>
<speed>0.68</speed>
<course>289.0</course>
<desc>Speed 2.4 km/h Distance 2.84 km</desc>
<time>2010-10-24T10:58:12.97</time>
<name>1732</name>
</trkpt>
<trkpt lat="48.954743" lon="8.645683">
<ele>228.5</ele>
<speed>0.37</speed>
<course>270.0</course>
<desc>Speed 1.3 km/h Distance 2.85 km</desc>
<time>2010-10-24T10:58:16.97</time>
<name>1733</name>
</trkpt>
<trkpt lat="48.954743" lon="8.645675">
<ele>228.5</ele>
<speed>0.34</speed>
<course>353.4</course>
<desc>Speed 1.2 km/h Distance 2.85 km</desc>
<time>2010-10-24T10:58:17.96</time>
<name>1734</name>
</trkpt>
<trkpt lat="48.954753" lon="8.645673">
<ele>228.5</ele>
<speed>0.55</speed>
<course>341.8</course>
<desc>Speed 2.0 km/h Distance 2.85 km</desc>
<time>2010-10-24T10:58:18.96</time>
<name>1735</name>
</trkpt>
<trkpt lat="48.954763" lon="8.645668">
<ele>228.0</ele>
<speed>0.62</speed>
<course>317.4</course>
<desc>Speed 2.2 km/h Distance 2.85 km</desc>
<time>2010-10-24T10:58:19.96</time>
<name>1736</name>
</trkpt>
<trkpt lat="48.954780" lon="8.645645">
<ele>228.5</ele>
<speed>0.46</speed>
<course>289.1</course>
<desc>Speed 1.7 km/h Distance 2.85 km</desc>
<time>2010-10-24T10:58:20.95</time>
<name>1737</name>
</trkpt>
<trkpt lat="48.954797" lon="8.645572">
<ele>227.5</ele>
<speed>1.53</speed>
<course>324.4</course>
<desc>Speed 5.5 km/h Distance 2.86 km</desc>
<time>2010-10-24T10:58:23.94</time>
<name>1738</name>
</trkpt>
<trkpt lat="48.954815" lon="8.645552">
<ele>228.0</ele>
<speed>0.46</speed>
<course>12.6</course>
<desc>Speed 1.7 km/h Distance 2.86 km</desc>
<time>2010-10-24T10:58:25.93</time>
<name>1739</name>
</trkpt>
<trkpt lat="48.954818" lon="8.645553">
<ele>228.0</ele>
<speed>0.52</speed>
<course>316.5</course>
<desc>Speed 1.9 km/h Distance 2.86 km</desc>
<time>2010-10-24T10:58:26.93</time>
<name>1740</name>
</trkpt>
<trkpt lat="48.954848" lon="8.645510">
<ele>228.0</ele>
<speed>0.37</speed>
<course>12.6</course>
<desc>Speed 1.3 km/h Distance 2.86 km</desc>
<time>2010-10-24T10:58:28.92</time>
<name>1741</name>
</trkpt>
<trkpt lat="48.954858" lon="8.645513">
<ele>227.5</ele>
<speed>0.75</speed>
<course>353.5</course>
<desc>Speed 2.7 km/h Distance 2.86 km</desc>
<time>2010-10-24T10:58:29.95</time>
<name>1742</name>
</trkpt>
<trkpt lat="48.954877" lon="8.645510">
<ele>228.0</ele>
<speed>0.54</speed>
<course>358.9</course>
<desc>Speed 1.9 km/h Distance 2.87 km</desc>
<time>2010-10-24T10:58:30.91</time>
<name>1743</name>
</trkpt>
<trkpt lat="48.954925" lon="8.645508">
<ele>228.5</ele>
<speed>0.86</speed>
<course>353.1</course>
<desc>Speed 3.1 km/h Distance 2.87 km</desc>
<time>2010-10-24T10:58:32.92</time>
<name>1744</name>
</trkpt>
<trkpt lat="48.955025" lon="8.645490">
<ele>230.0</ele>
<speed>0.63</speed>
<course>1.1</course>
<desc>Speed 2.3 km/h Distance 2.88 km</desc>
<time>2010-10-24T10:58:36.45</time>
<name>1745</name>
</trkpt>
<trkpt lat="48.955073" lon="8.645492">
<ele>231.5</ele>
<speed>0.83</speed>
<course>326.7</course>
<desc>Speed 3.0 km/h Distance 2.89 km</desc>
<time>2010-10-24T10:58:38.44</time>
<name>1746</name>
</trkpt>
<trkpt lat="48.955085" lon="8.645480">
<ele>232.0</ele>
<speed>0.89</speed>
<course>2.5</course>
<desc>Speed 3.2 km/h Distance 2.89 km</desc>
<time>2010-10-24T10:58:39.43</time>
<name>1747</name>
</trkpt>
<trkpt lat="48.955103" lon="8.645482">
<ele>232.0</ele>
<speed>0.98</speed>
<course>326.3</course>
<desc>Speed 3.5 km/h Distance 2.89 km</desc>
<time>2010-10-24T10:58:40.43</time>
<name>1748</name>
</trkpt>
<trkpt lat="48.955107" lon="8.645478">
<ele>231.5</ele>
<speed>0.57</speed>
<course>18.8</course>
<desc>Speed 2.1 km/h Distance 2.89 km</desc>
<time>2010-10-24T10:58:41.43</time>
<name>1749</name>
</trkpt>
<trkpt lat="48.955113" lon="8.645482">
<ele>232.0</ele>
<speed>0.94</speed>
<course>11.9</course>
<desc>Speed 3.4 km/h Distance 2.89 km</desc>
<time>2010-10-24T10:58:42.42</time>
<name>1750</name>
</trkpt>
<trkpt lat="48.955165" lon="8.645498">
<ele>235.0</ele>
<speed>1.23</speed>
<course>6.1</course>
<desc>Speed 4.4 km/h Distance 2.90 km</desc>
<time>2010-10-24T10:58:44.42</time>
<name>1751</name>
</trkpt>
<trkpt lat="48.955185" lon="8.645502">
<ele>237.0</ele>
<speed>0.87</speed>
<course>12.6</course>
<desc>Speed 3.1 km/h Distance 2.90 km</desc>
<time>2010-10-24T10:58:45.42</time>
<name>1752</name>
</trkpt>
<trkpt lat="48.955195" lon="8.645505">
<ele>237.0</ele>
<speed>1.00</speed>
<course>14.9</course>
<desc>Speed 3.6 km/h Distance 2.90 km</desc>
<time>2010-10-24T10:58:46.41</time>
<name>1753</name>
</trkpt>
<trkpt lat="48.955212" lon="8.645512">
<ele>238.0</ele>
<speed>1.00</speed>
<course>39.4</course>
<desc>Speed 3.6 km/h Distance 2.90 km</desc>
<time>2010-10-24T10:58:47.41</time>
<name>1754</name>
</trkpt>
<trkpt lat="48.955218" lon="8.645520">
<ele>238.0</ele>
<speed>0.94</speed>
<course>20.8</course>
<desc>Speed 3.4 km/h Distance 2.91 km</desc>
<time>2010-10-24T10:58:48.40</time>
<name>1755</name>
</trkpt>
<trkpt lat="48.955227" lon="8.645525">
<ele>238.0</ele>
<speed>1.08</speed>
<course>9.6</course>
<desc>Speed 3.9 km/h Distance 2.91 km</desc>
<time>2010-10-24T10:58:49.39</time>
<name>1756</name>
</trkpt>
<trkpt lat="48.955265" lon="8.645535">
<ele>239.0</ele>
<speed>0.85</speed>
<course>357.2</course>
<desc>Speed 3.1 km/h Distance 2.91 km</desc>
<time>2010-10-24T10:58:51.39</time>
<name>1757</name>
</trkpt>
<trkpt lat="48.955282" lon="8.645533">
<ele>240.0</ele>
<speed>1.26</speed>
<course>21.5</course>
<desc>Speed 4.5 km/h Distance 2.91 km</desc>
<time>2010-10-24T10:58:52.39</time>
<name>1758</name>
</trkpt>
<trkpt lat="48.955290" lon="8.645538">
<ele>239.5</ele>
<speed>0.95</speed>
<course>7.1</course>
<desc>Speed 3.4 km/h Distance 2.91 km</desc>
<time>2010-10-24T10:58:53.38</time>
<name>1759</name>
</trkpt>
<trkpt lat="48.955307" lon="8.645542">
<ele>239.5</ele>
<speed>1.04</speed>
<course>23.8</course>
<desc>Speed 3.7 km/h Distance 2.92 km</desc>
<time>2010-10-24T10:58:54.37</time>
<name>1760</name>
</trkpt>
<trkpt lat="48.955317" lon="8.645548">
<ele>240.0</ele>
<speed>1.12</speed>
<course>33.7</course>
<desc>Speed 4.0 km/h Distance 2.92 km</desc>
<time>2010-10-24T10:58:55.36</time>
<name>1761</name>
</trkpt>
<trkpt lat="48.955323" lon="8.645555">
<ele>239.5</ele>
<speed>0.99</speed>
<course>14.9</course>
<desc>Speed 3.6 km/h Distance 2.92 km</desc>
<time>2010-10-24T10:58:56.36</time>
<name>1762</name>
</trkpt>
<trkpt lat="48.955332" lon="8.645558">
<ele>238.5</ele>
<speed>0.68</speed>
<course>41.4</course>
<desc>Speed 2.4 km/h Distance 2.92 km</desc>
<time>2010-10-24T10:58:57.35</time>
<name>1763</name>
</trkpt>
<trkpt lat="48.955337" lon="8.645565">
<ele>237.0</ele>
<speed>0.87</speed>
<course>18.2</course>
<desc>Speed 3.1 km/h Distance 2.92 km</desc>
<time>2010-10-24T10:58:58.35</time>
<name>1764</name>
</trkpt>
<trkpt lat="48.955347" lon="8.645570">
<ele>236.5</ele>
<speed>0.87</speed>
<course>23.8</course>
<desc>Speed 3.1 km/h Distance 2.92 km</desc>
<time>2010-10-24T10:58:59.34</time>
<name>1765</name>
</trkpt>
<trkpt lat="48.955357" lon="8.645577">
<ele>235.5</ele>
<speed>0.79</speed>
<course>2.8</course>
<desc>Speed 2.8 km/h Distance 2.92 km</desc>
<time>2010-10-24T10:59:00.33</time>
<name>1766</name>
</trkpt>
<trkpt lat="48.955373" lon="8.645578">
<ele>235.0</ele>
<speed>0.77</speed>
<course>12.9</course>
<desc>Speed 2.8 km/h Distance 2.92 km</desc>
<time>2010-10-24T10:59:01.33</time>
<name>1767</name>
</trkpt>
<trkpt lat="48.955412" lon="8.645592">
<ele>234.5</ele>
<speed>1.04</speed>
<course>15.3</course>
<desc>Speed 3.7 km/h Distance 2.93 km</desc>
<time>2010-10-24T10:59:03.32</time>
<name>1768</name>
</trkpt>
<trkpt lat="48.955432" lon="8.645600">
<ele>234.5</ele>
<speed>1.13</speed>
<course>13.2</course>
<desc>Speed 4.1 km/h Distance 2.93 km</desc>
<time>2010-10-24T10:59:04.31</time>
<name>1769</name>
</trkpt>
<trkpt lat="48.955455" lon="8.645608">
<ele>235.0</ele>
<speed>1.20</speed>
<course>12.7</course>
<desc>Speed 4.3 km/h Distance 2.93 km</desc>
<time>2010-10-24T10:59:05.31</time>
<name>1770</name>
</trkpt>
<trkpt lat="48.955518" lon="8.645630">
<ele>238.0</ele>
<speed>1.21</speed>
<course>13.3</course>
<desc>Speed 4.4 km/h Distance 2.94 km</desc>
<time>2010-10-24T10:59:07.30</time>
<name>1771</name>
</trkpt>
<trkpt lat="48.955597" lon="8.645658">
<ele>242.0</ele>
<speed>1.37</speed>
<course>14.2</course>
<desc>Speed 4.9 km/h Distance 2.95 km</desc>
<time>2010-10-24T10:59:09.30</time>
<name>1772</name>
</trkpt>
<trkpt lat="48.955618" lon="8.645667">
<ele>242.0</ele>
<speed>1.29</speed>
<course>14.6</course>
<desc>Speed 4.6 km/h Distance 2.95 km</desc>
<time>2010-10-24T10:59:10.29</time>
<name>1773</name>
</trkpt>
<trkpt lat="48.955643" lon="8.645677">
<ele>242.5</ele>
<speed>1.48</speed>
<course>13.0</course>
<desc>Speed 5.3 km/h Distance 2.95 km</desc>
<time>2010-10-24T10:59:11.29</time>
<name>1774</name>
</trkpt>
<trkpt lat="48.955672" lon="8.645687">
<ele>243.0</ele>
<speed>1.44</speed>
<course>10.9</course>
<desc>Speed 5.2 km/h Distance 2.96 km</desc>
<time>2010-10-24T10:59:12.29</time>
<name>1775</name>
</trkpt>
<trkpt lat="48.955700" lon="8.645695">
<ele>244.0</ele>
<speed>1.42</speed>
<course>11.5</course>
<desc>Speed 5.1 km/h Distance 2.96 km</desc>
<time>2010-10-24T10:59:13.28</time>
<name>1776</name>
</trkpt>
<trkpt lat="48.955727" lon="8.645703">
<ele>245.0</ele>
<speed>1.49</speed>
<course>3.7</course>
<desc>Speed 5.4 km/h Distance 2.96 km</desc>
<time>2010-10-24T10:59:14.28</time>
<name>1777</name>
</trkpt>
<trkpt lat="48.955747" lon="8.645705">
<ele>245.0</ele>
<speed>1.44</speed>
<course>3.2</course>
<desc>Speed 5.2 km/h Distance 2.97 km</desc>
<time>2010-10-24T10:59:15.28</time>
<name>1778</name>
</trkpt>
<trkpt lat="48.955768" lon="8.645707">
<ele>245.0</ele>
<speed>1.38</speed>
<course>352.3</course>
<desc>Speed 5.0 km/h Distance 2.97 km</desc>
<time>2010-10-24T10:59:16.27</time>
<name>1779</name>
</trkpt>
<trkpt lat="48.955785" lon="8.645703">
<ele>244.5</ele>
<speed>1.51</speed>
<course>354.4</course>
<desc>Speed 5.4 km/h Distance 2.97 km</desc>
<time>2010-10-24T10:59:17.27</time>
<name>1780</name>
</trkpt>
<trkpt lat="48.955805" lon="8.645700">
<ele>244.0</ele>
<speed>1.53</speed>
<course>341.8</course>
<desc>Speed 5.5 km/h Distance 2.97 km</desc>
<time>2010-10-24T10:59:18.26</time>
<name>1781</name>
</trkpt>
<trkpt lat="48.955825" lon="8.645690">
<ele>244.0</ele>
<speed>1.67</speed>
<course>337.3</course>
<desc>Speed 6.0 km/h Distance 2.98 km</desc>
<time>2010-10-24T10:59:19.26</time>
<name>1782</name>
</trkpt>
<trkpt lat="48.955843" lon="8.645678">
<ele>244.0</ele>
<speed>1.49</speed>
<course>333.0</course>
<desc>Speed 5.4 km/h Distance 2.98 km</desc>
<time>2010-10-24T10:59:20.25</time>
<name>1783</name>
</trkpt>
<trkpt lat="48.955858" lon="8.645667">
<ele>244.0</ele>
<speed>1.33</speed>
<course>337.4</course>
<desc>Speed 4.8 km/h Distance 2.98 km</desc>
<time>2010-10-24T10:59:21.25</time>
<name>1784</name>
</trkpt>
<trkpt lat="48.955872" lon="8.645658">
<ele>243.5</ele>
<speed>1.26</speed>
<course>331.7</course>
<desc>Speed 4.5 km/h Distance 2.98 km</desc>
<time>2010-10-24T10:59:22.25</time>
<name>1785</name>
</trkpt>
<trkpt lat="48.955890" lon="8.645643">
<ele>244.0</ele>
<speed>1.52</speed>
<course>321.2</course>
<desc>Speed 5.5 km/h Distance 2.98 km</desc>
<time>2010-10-24T10:59:23.25</time>
<name>1786</name>
</trkpt>
<trkpt lat="48.955905" lon="8.645625">
<ele>244.5</ele>
<speed>1.28</speed>
<course>304.7</course>
<desc>Speed 4.6 km/h Distance 2.99 km</desc>
<time>2010-10-24T10:59:24.24</time>
<name>1787</name>
</trkpt>
<trkpt lat="48.955913" lon="8.645607">
<ele>244.5</ele>
<speed>1.37</speed>
<course>301.4</course>
<desc>Speed 4.9 km/h Distance 2.99 km</desc>
<time>2010-10-24T10:59:25.24</time>
<name>1788</name>
</trkpt>
<trkpt lat="48.955920" lon="8.645590">
<ele>244.5</ele>
<speed>1.03</speed>
<course>326.7</course>
<desc>Speed 3.7 km/h Distance 2.99 km</desc>
<time>2010-10-24T10:59:26.23</time>
<name>1789</name>
</trkpt>
<trkpt lat="48.955932" lon="8.645578">
<ele>243.5</ele>
<speed>0.92</speed>
<course>307.3</course>
<desc>Speed 3.3 km/h Distance 2.99 km</desc>
<time>2010-10-24T10:59:27.23</time>
<name>1790</name>
</trkpt>
<trkpt lat="48.955940" lon="8.645562">
<ele>243.5</ele>
<speed>1.28</speed>
<course>298.9</course>
<desc>Speed 4.6 km/h Distance 2.99 km</desc>
<time>2010-10-24T10:59:28.23</time>
<name>1791</name>
</trkpt>
<trkpt lat="48.955947" lon="8.645543">
<ele>244.0</ele>
<speed>1.37</speed>
<course>304.7</course>
<desc>Speed 4.9 km/h Distance 2.99 km</desc>
<time>2010-10-24T10:59:29.22</time>
<name>1792</name>
</trkpt>
<trkpt lat="48.955955" lon="8.645525">
<ele>243.5</ele>
<speed>1.35</speed>
<course>307.3</course>
<desc>Speed 4.9 km/h Distance 2.99 km</desc>
<time>2010-10-24T10:59:30.22</time>
<name>1793</name>
</trkpt>
<trkpt lat="48.955965" lon="8.645505">
<ele>244.0</ele>
<speed>1.54</speed>
<course>304.7</course>
<desc>Speed 5.5 km/h Distance 3.00 km</desc>
<time>2010-10-24T10:59:31.21</time>
<name>1794</name>
</trkpt>
<trkpt lat="48.955973" lon="8.645487">
<ele>243.5</ele>
<speed>1.38</speed>
<course>304.6</course>
<desc>Speed 5.0 km/h Distance 3.00 km</desc>
<time>2010-10-24T10:59:32.21</time>
<name>1795</name>
</trkpt>
<trkpt lat="48.955982" lon="8.645468">
<ele>243.5</ele>
<speed>1.33</speed>
<course>304.1</course>
<desc>Speed 4.8 km/h Distance 3.00 km</desc>
<time>2010-10-24T10:59:33.22</time>
<name>1796</name>
</trkpt>
<trkpt lat="48.955988" lon="8.645453">
<ele>243.0</ele>
<speed>1.19</speed>
<course>296.9</course>
<desc>Speed 4.3 km/h Distance 3.00 km</desc>
<time>2010-10-24T10:59:34.20</time>
<name>1797</name>
</trkpt>
<trkpt lat="48.955995" lon="8.645433">
<ele>243.0</ele>
<speed>1.49</speed>
<course>292.5</course>
<desc>Speed 5.4 km/h Distance 3.00 km</desc>
<time>2010-10-24T10:59:35.20</time>
<name>1798</name>
</trkpt>
<trkpt lat="48.956000" lon="8.645415">
<ele>243.0</ele>
<speed>1.37</speed>
<course>296.9</course>
<desc>Speed 4.9 km/h Distance 3.00 km</desc>
<time>2010-10-24T10:59:36.20</time>
<name>1799</name>
</trkpt>
<trkpt lat="48.956007" lon="8.645395">
<ele>243.0</ele>
<speed>1.57</speed>
<course>304.8</course>
<desc>Speed 5.7 km/h Distance 3.01 km</desc>
<time>2010-10-24T10:59:37.20</time>
<name>1800</name>
</trkpt>
<trkpt lat="48.956015" lon="8.645377">
<ele>243.0</ele>
<speed>1.50</speed>
<course>307.3</course>
<desc>Speed 5.4 km/h Distance 3.01 km</desc>
<time>2010-10-24T10:59:38.19</time>
<name>1801</name>
</trkpt>
<trkpt lat="48.956023" lon="8.645360">
<ele>242.5</ele>
<speed>1.38</speed>
<course>299.0</course>
<desc>Speed 5.0 km/h Distance 3.01 km</desc>
<time>2010-10-24T10:59:39.19</time>
<name>1802</name>
</trkpt>
<trkpt lat="48.956030" lon="8.645342">
<ele>242.0</ele>
<speed>1.44</speed>
<course>301.3</course>
<desc>Speed 5.2 km/h Distance 3.01 km</desc>
<time>2010-10-24T10:59:40.19</time>
<name>1803</name>
</trkpt>
<trkpt lat="48.956037" lon="8.645325">
<ele>241.5</ele>
<speed>1.33</speed>
<course>299.0</course>
<desc>Speed 4.8 km/h Distance 3.01 km</desc>
<time>2010-10-24T10:59:41.18</time>
<name>1804</name>
</trkpt>
<trkpt lat="48.956043" lon="8.645307">
<ele>241.0</ele>
<speed>1.38</speed>
<course>299.0</course>
<desc>Speed 5.0 km/h Distance 3.01 km</desc>
<time>2010-10-24T10:59:42.18</time>
<name>1805</name>
</trkpt>
<trkpt lat="48.956050" lon="8.645288">
<ele>241.0</ele>
<speed>1.45</speed>
<course>295.1</course>
<desc>Speed 5.2 km/h Distance 3.02 km</desc>
<time>2010-10-24T10:59:43.18</time>
<name>1806</name>
</trkpt>
<trkpt lat="48.956057" lon="8.645267">
<ele>241.0</ele>
<speed>1.62</speed>
<course>290.9</course>
<desc>Speed 5.8 km/h Distance 3.02 km</desc>
<time>2010-10-24T10:59:44.18</time>
<name>1807</name>
</trkpt>
<trkpt lat="48.956062" lon="8.645247">
<ele>240.5</ele>
<speed>1.45</speed>
<course>283.2</course>
<desc>Speed 5.2 km/h Distance 3.02 km</desc>
<time>2010-10-24T10:59:45.18</time>
<name>1808</name>
</trkpt>
<trkpt lat="48.956065" lon="8.645225">
<ele>240.5</ele>
<speed>1.61</speed>
<course>290.9</course>
<desc>Speed 5.8 km/h Distance 3.02 km</desc>
<time>2010-10-24T10:59:46.18</time>
<name>1809</name>
</trkpt>
<trkpt lat="48.956070" lon="8.645205">
<ele>240.5</ele>
<speed>1.42</speed>
<course>299.0</course>
<desc>Speed 5.1 km/h Distance 3.02 km</desc>
<time>2010-10-24T10:59:47.18</time>
<name>1810</name>
</trkpt>
<trkpt lat="48.956077" lon="8.645187">
<ele>240.0</ele>
<speed>1.46</speed>
<course>290.8</course>
<desc>Speed 5.3 km/h Distance 3.02 km</desc>
<time>2010-10-24T10:59:48.18</time>
<name>1811</name>
</trkpt>
<trkpt lat="48.956082" lon="8.645167">
<ele>240.0</ele>
<speed>1.40</speed>
<course>295.1</course>
<desc>Speed 5.0 km/h Distance 3.02 km</desc>
<time>2010-10-24T10:59:49.18</time>
<name>1812</name>
</trkpt>
<trkpt lat="48.956088" lon="8.645145">
<ele>240.0</ele>
<speed>1.66</speed>
<course>295.1</course>
<desc>Speed 6.0 km/h Distance 3.03 km</desc>
<time>2010-10-24T10:59:50.18</time>
<name>1813</name>
</trkpt>
<trkpt lat="48.956095" lon="8.645123">
<ele>239.5</ele>
<speed>1.54</speed>
<course>294.5</course>
<desc>Speed 5.5 km/h Distance 3.03 km</desc>
<time>2010-10-24T10:59:51.18</time>
<name>1814</name>
</trkpt>
<trkpt lat="48.956100" lon="8.645107">
<ele>239.0</ele>
<speed>1.29</speed>
<course>284.2</course>
<desc>Speed 4.6 km/h Distance 3.03 km</desc>
<time>2010-10-24T10:59:52.18</time>
<name>1815</name>
</trkpt>
<trkpt lat="48.956103" lon="8.645087">
<ele>239.0</ele>
<speed>1.34</speed>
<course>277.2</course>
<desc>Speed 4.8 km/h Distance 3.03 km</desc>
<time>2010-10-24T10:59:53.18</time>
<name>1816</name>
</trkpt>
<trkpt lat="48.956105" lon="8.645067">
<ele>239.0</ele>
<speed>1.47</speed>
<course>277.9</course>
<desc>Speed 5.3 km/h Distance 3.03 km</desc>
<time>2010-10-24T10:59:54.18</time>
<name>1817</name>
</trkpt>
<trkpt lat="48.956107" lon="8.645048">
<ele>238.5</ele>
<speed>1.32</speed>
<course>262.8</course>
<desc>Speed 4.8 km/h Distance 3.03 km</desc>
<time>2010-10-24T10:59:55.18</time>
<name>1818</name>
</trkpt>
<trkpt lat="48.956105" lon="8.645028">
<ele>238.5</ele>
<speed>1.37</speed>
<course>247.4</course>
<desc>Speed 4.9 km/h Distance 3.04 km</desc>
<time>2010-10-24T10:59:56.18</time>
<name>1819</name>
</trkpt>
<trkpt lat="48.956100" lon="8.645010">
<ele>238.5</ele>
<speed>1.47</speed>
<course>245.5</course>
<desc>Speed 5.3 km/h Distance 3.04 km</desc>
<time>2010-10-24T10:59:57.18</time>
<name>1820</name>
</trkpt>
<trkpt lat="48.956095" lon="8.644993">
<ele>238.5</ele>
<speed>1.45</speed>
<course>244.6</course>
<desc>Speed 5.2 km/h Distance 3.04 km</desc>
<time>2010-10-24T10:59:58.18</time>
<name>1821</name>
</trkpt>
<trkpt lat="48.956087" lon="8.644967">
<ele>239.5</ele>
<speed>1.57</speed>
<course>239.7</course>
<desc>Speed 5.7 km/h Distance 3.04 km</desc>
<time>2010-10-24T10:59:59.18</time>
<name>1822</name>
</trkpt>
<trkpt lat="48.956078" lon="8.644945">
<ele>240.5</ele>
<speed>1.16</speed>
<course>230.3</course>
<desc>Speed 4.2 km/h Distance 3.04 km</desc>
<time>2010-10-24T11:00:00.18</time>
<name>1823</name>
</trkpt>
<trkpt lat="48.956068" lon="8.644927">
<ele>241.0</ele>
<speed>1.36</speed>
<course>225.9</course>
<desc>Speed 4.9 km/h Distance 3.04 km</desc>
<time>2010-10-24T11:00:01.18</time>
<name>1824</name>
</trkpt>
<trkpt lat="48.956057" lon="8.644908">
<ele>241.5</ele>
<speed>1.59</speed>
<course>213.4</course>
<desc>Speed 5.7 km/h Distance 3.05 km</desc>
<time>2010-10-24T11:00:02.18</time>
<name>1825</name>
</trkpt>
<trkpt lat="48.956045" lon="8.644897">
<ele>241.5</ele>
<speed>1.60</speed>
<course>213.3</course>
<desc>Speed 5.8 km/h Distance 3.05 km</desc>
<time>2010-10-24T11:00:03.18</time>
<name>1826</name>
</trkpt>
<trkpt lat="48.956033" lon="8.644885">
<ele>241.5</ele>
<speed>1.44</speed>
<course>216.9</course>
<desc>Speed 5.2 km/h Distance 3.05 km</desc>
<time>2010-10-24T11:00:04.18</time>
<name>1827</name>
</trkpt>
<trkpt lat="48.956022" lon="8.644872">
<ele>242.5</ele>
<speed>1.44</speed>
<course>213.4</course>
<desc>Speed 5.2 km/h Distance 3.05 km</desc>
<time>2010-10-24T11:00:05.18</time>
<name>1828</name>
</trkpt>
<trkpt lat="48.956010" lon="8.644860">
<ele>242.5</ele>
<speed>1.46</speed>
<course>213.4</course>
<desc>Speed 5.3 km/h Distance 3.05 km</desc>
<time>2010-10-24T11:00:06.18</time>
<name>1829</name>
</trkpt>
<trkpt lat="48.955998" lon="8.644848">
<ele>243.0</ele>
<speed>1.45</speed>
<course>205.2</course>
<desc>Speed 5.2 km/h Distance 3.05 km</desc>
<time>2010-10-24T11:00:07.18</time>
<name>1830</name>
</trkpt>
<trkpt lat="48.955987" lon="8.644840">
<ele>243.0</ele>
<speed>1.42</speed>
<course>213.1</course>
<desc>Speed 5.1 km/h Distance 3.06 km</desc>
<time>2010-10-24T11:00:08.18</time>
<name>1831</name>
</trkpt>
<trkpt lat="48.955975" lon="8.644828">
<ele>243.5</ele>
<speed>1.48</speed>
<course>205.2</course>
<desc>Speed 5.3 km/h Distance 3.06 km</desc>
<time>2010-10-24T11:00:09.18</time>
<name>1832</name>
</trkpt>
<trkpt lat="48.955963" lon="8.644820">
<ele>243.5</ele>
<speed>1.34</speed>
<course>209.4</course>
<desc>Speed 4.8 km/h Distance 3.06 km</desc>
<time>2010-10-24T11:00:10.18</time>
<name>1833</name>
</trkpt>
<trkpt lat="48.955952" lon="8.644810">
<ele>244.0</ele>
<speed>1.47</speed>
<course>232.6</course>
<desc>Speed 5.3 km/h Distance 3.06 km</desc>
<time>2010-10-24T11:00:11.18</time>
<name>1834</name>
</trkpt>
<trkpt lat="48.955945" lon="8.644797">
<ele>244.0</ele>
<speed>1.23</speed>
<course>198.2</course>
<desc>Speed 4.4 km/h Distance 3.06 km</desc>
<time>2010-10-24T11:00:12.18</time>
<name>1835</name>
</trkpt>
<trkpt lat="48.955935" lon="8.644792">
<ele>244.0</ele>
<speed>1.02</speed>
<course>203.8</course>
<desc>Speed 3.7 km/h Distance 3.06 km</desc>
<time>2010-10-24T11:00:13.18</time>
<name>1836</name>
</trkpt>
<trkpt lat="48.955925" lon="8.644785">
<ele>244.0</ele>
<speed>1.28</speed>
<course>196.0</course>
<desc>Speed 4.6 km/h Distance 3.06 km</desc>
<time>2010-10-24T11:00:14.18</time>
<name>1837</name>
</trkpt>
<trkpt lat="48.955913" lon="8.644780">
<ele>244.5</ele>
<speed>1.37</speed>
<course>208.6</course>
<desc>Speed 4.9 km/h Distance 3.06 km</desc>
<time>2010-10-24T11:00:15.18</time>
<name>1838</name>
</trkpt>
<trkpt lat="48.955903" lon="8.644772">
<ele>244.5</ele>
<speed>1.38</speed>
<course>193.5</course>
<desc>Speed 5.0 km/h Distance 3.07 km</desc>
<time>2010-10-24T11:00:16.19</time>
<name>1839</name>
</trkpt>
<trkpt lat="48.955890" lon="8.644767">
<ele>244.5</ele>
<speed>1.52</speed>
<course>208.9</course>
<desc>Speed 5.5 km/h Distance 3.07 km</desc>
<time>2010-10-24T11:00:17.17</time>
<name>1840</name>
</trkpt>
<trkpt lat="48.955880" lon="8.644758">
<ele>244.5</ele>
<speed>1.25</speed>
<course>213.8</course>
<desc>Speed 4.5 km/h Distance 3.07 km</desc>
<time>2010-10-24T11:00:18.17</time>
<name>1841</name>
</trkpt>
<trkpt lat="48.955872" lon="8.644750">
<ele>244.5</ele>
<speed>1.20</speed>
<course>203.8</course>
<desc>Speed 4.3 km/h Distance 3.07 km</desc>
<time>2010-10-24T11:00:19.18</time>
<name>1842</name>
</trkpt>
<trkpt lat="48.955862" lon="8.644743">
<ele>245.0</ele>
<speed>1.37</speed>
<course>207.9</course>
<desc>Speed 4.9 km/h Distance 3.07 km</desc>
<time>2010-10-24T11:00:20.16</time>
<name>1843</name>
</trkpt>
<trkpt lat="48.955853" lon="8.644737">
<ele>245.0</ele>
<speed>1.08</speed>
<course>192.6</course>
<desc>Speed 3.9 km/h Distance 3.07 km</desc>
<time>2010-10-24T11:00:21.17</time>
<name>1844</name>
</trkpt>
<trkpt lat="48.955848" lon="8.644735">
<ele>245.0</ele>
<speed>0.50</speed>
<course>205.4</course>
<desc>Speed 1.8 km/h Distance 3.07 km</desc>
<time>2010-10-24T11:00:24.17</time>
<name>1845</name>
</trkpt>
<trkpt lat="48.955843" lon="8.644732">
<ele>245.0</ele>
<speed>0.52</speed>
<course>213.2</course>
<desc>Speed 1.9 km/h Distance 3.07 km</desc>
<time>2010-10-24T11:00:25.15</time>
<name>1846</name>
</trkpt>
<trkpt lat="48.955838" lon="8.644727">
<ele>245.0</ele>
<speed>0.74</speed>
<course>187.7</course>
<desc>Speed 2.7 km/h Distance 3.07 km</desc>
<time>2010-10-24T11:00:26.15</time>
<name>1847</name>
</trkpt>
<trkpt lat="48.955822" lon="8.644723">
<ele>245.5</ele>
<speed>1.55</speed>
<course>205.2</course>
<desc>Speed 5.6 km/h Distance 3.08 km</desc>
<time>2010-10-24T11:00:27.16</time>
<name>1848</name>
</trkpt>
<trkpt lat="48.955810" lon="8.644715">
<ele>245.0</ele>
<speed>1.27</speed>
<course>209.2</course>
<desc>Speed 4.6 km/h Distance 3.08 km</desc>
<time>2010-10-24T11:00:28.14</time>
<name>1849</name>
</trkpt>
<trkpt lat="48.955798" lon="8.644705">
<ele>245.5</ele>
<speed>1.41</speed>
<course>188.1</course>
<desc>Speed 5.1 km/h Distance 3.08 km</desc>
<time>2010-10-24T11:00:29.14</time>
<name>1850</name>
</trkpt>
<trkpt lat="48.955783" lon="8.644702">
<ele>245.0</ele>
<speed>1.41</speed>
<course>194.9</course>
<desc>Speed 5.1 km/h Distance 3.08 km</desc>
<time>2010-10-24T11:00:30.15</time>
<name>1851</name>
</trkpt>
<trkpt lat="48.955772" lon="8.644697">
<ele>245.5</ele>
<speed>1.44</speed>
<course>193.8</course>
<desc>Speed 5.2 km/h Distance 3.08 km</desc>
<time>2010-10-24T11:00:31.13</time>
<name>1852</name>
</trkpt>
<trkpt lat="48.955763" lon="8.644693">
<ele>245.5</ele>
<speed>0.89</speed>
<course>198.2</course>
<desc>Speed 3.2 km/h Distance 3.08 km</desc>
<time>2010-10-24T11:00:32.13</time>
<name>1853</name>
</trkpt>
<trkpt lat="48.955753" lon="8.644688">
<ele>245.5</ele>
<speed>1.37</speed>
<course>170.7</course>
<desc>Speed 4.9 km/h Distance 3.08 km</desc>
<time>2010-10-24T11:00:33.13</time>
<name>1854</name>
</trkpt>
<trkpt lat="48.955727" lon="8.644695">
<ele>245.5</ele>
<speed>2.99</speed>
<course>205.2</course>
<desc>Speed 10.8 km/h Distance 3.09 km</desc>
<time>2010-10-24T11:00:34.12</time>
<name>1855</name>
</trkpt>
<trkpt lat="48.955715" lon="8.644687">
<ele>246.0</ele>
<speed>1.62</speed>
<course>205.2</course>
<desc>Speed 5.8 km/h Distance 3.09 km</desc>
<time>2010-10-24T11:00:35.12</time>
<name>1856</name>
</trkpt>
<trkpt lat="48.955703" lon="8.644678">
<ele>246.0</ele>
<speed>1.40</speed>
<course>200.6</course>
<desc>Speed 5.0 km/h Distance 3.09 km</desc>
<time>2010-10-24T11:00:36.12</time>
<name>1857</name>
</trkpt>
<trkpt lat="48.955692" lon="8.644672">
<ele>246.0</ele>
<speed>1.46</speed>
<course>200.6</course>
<desc>Speed 5.3 km/h Distance 3.09 km</desc>
<time>2010-10-24T11:00:37.12</time>
<name>1858</name>
</trkpt>
<trkpt lat="48.955680" lon="8.644665">
<ele>246.0</ele>
<speed>1.45</speed>
<course>204.9</course>
<desc>Speed 5.2 km/h Distance 3.09 km</desc>
<time>2010-10-24T11:00:38.12</time>
<name>1859</name>
</trkpt>
<trkpt lat="48.955668" lon="8.644657">
<ele>246.0</ele>
<speed>1.49</speed>
<course>213.2</course>
<desc>Speed 5.4 km/h Distance 3.09 km</desc>
<time>2010-10-24T11:00:39.12</time>
<name>1860</name>
</trkpt>
<trkpt lat="48.955660" lon="8.644648">
<ele>246.0</ele>
<speed>1.29</speed>
<course>204.9</course>
<desc>Speed 4.6 km/h Distance 3.09 km</desc>
<time>2010-10-24T11:00:40.12</time>
<name>1861</name>
</trkpt>
<trkpt lat="48.955648" lon="8.644640">
<ele>246.0</ele>
<speed>1.50</speed>
<course>205.2</course>
<desc>Speed 5.4 km/h Distance 3.10 km</desc>
<time>2010-10-24T11:00:41.12</time>
<name>1862</name>
</trkpt>
<trkpt lat="48.955637" lon="8.644632">
<ele>246.5</ele>
<speed>1.50</speed>
<course>221.2</course>
<desc>Speed 5.4 km/h Distance 3.10 km</desc>
<time>2010-10-24T11:00:42.12</time>
<name>1863</name>
</trkpt>
<trkpt lat="48.955627" lon="8.644618">
<ele>246.5</ele>
<speed>1.46</speed>
<course>213.2</course>
<desc>Speed 5.3 km/h Distance 3.10 km</desc>
<time>2010-10-24T11:00:43.12</time>
<name>1864</name>
</trkpt>
<trkpt lat="48.955617" lon="8.644608">
<ele>246.5</ele>
<speed>1.37</speed>
<course>226.4</course>
<desc>Speed 4.9 km/h Distance 3.10 km</desc>
<time>2010-10-24T11:00:44.12</time>
<name>1865</name>
</trkpt>
<trkpt lat="48.955608" lon="8.644595">
<ele>246.5</ele>
<speed>1.28</speed>
<course>232.7</course>
<desc>Speed 4.6 km/h Distance 3.10 km</desc>
<time>2010-10-24T11:00:45.12</time>
<name>1866</name>
</trkpt>
<trkpt lat="48.955602" lon="8.644582">
<ele>246.5</ele>
<speed>1.26</speed>
<course>209.4</course>
<desc>Speed 4.5 km/h Distance 3.10 km</desc>
<time>2010-10-24T11:00:46.12</time>
<name>1867</name>
</trkpt>
<trkpt lat="48.955590" lon="8.644572">
<ele>246.5</ele>
<speed>1.44</speed>
<course>228.7</course>
<desc>Speed 5.2 km/h Distance 3.10 km</desc>
<time>2010-10-24T11:00:47.12</time>
<name>1868</name>
</trkpt>
<trkpt lat="48.955583" lon="8.644560">
<ele>246.5</ele>
<speed>1.12</speed>
<course>203.8</course>
<desc>Speed 4.0 km/h Distance 3.11 km</desc>
<time>2010-10-24T11:00:48.12</time>
<name>1869</name>
</trkpt>
<trkpt lat="48.955573" lon="8.644553">
<ele>247.0</ele>
<speed>1.22</speed>
<course>200.6</course>
<desc>Speed 4.4 km/h Distance 3.11 km</desc>
<time>2010-10-24T11:00:49.12</time>
<name>1870</name>
</trkpt>
<trkpt lat="48.955562" lon="8.644547">
<ele>247.0</ele>
<speed>1.32</speed>
<course>196.0</course>
<desc>Speed 4.8 km/h Distance 3.11 km</desc>
<time>2010-10-24T11:00:50.12</time>
<name>1871</name>
</trkpt>
<trkpt lat="48.955550" lon="8.644542">
<ele>247.0</ele>
<speed>1.44</speed>
<course>198.1</course>
<desc>Speed 5.2 km/h Distance 3.11 km</desc>
<time>2010-10-24T11:00:51.12</time>
<name>1872</name>
</trkpt>
<trkpt lat="48.955537" lon="8.644535">
<ele>247.0</ele>
<speed>1.41</speed>
<course>193.5</course>
<desc>Speed 5.1 km/h Distance 3.11 km</desc>
<time>2010-10-24T11:00:52.12</time>
<name>1873</name>
</trkpt>
<trkpt lat="48.955523" lon="8.644530">
<ele>247.0</ele>
<speed>1.39</speed>
<course>189.0</course>
<desc>Speed 5.0 km/h Distance 3.11 km</desc>
<time>2010-10-24T11:00:53.12</time>
<name>1874</name>
</trkpt>
<trkpt lat="48.955510" lon="8.644527">
<ele>247.0</ele>
<speed>1.48</speed>
<course>198.2</course>
<desc>Speed 5.3 km/h Distance 3.11 km</desc>
<time>2010-10-24T11:00:54.12</time>
<name>1875</name>
</trkpt>
<trkpt lat="48.955500" lon="8.644522">
<ele>247.0</ele>
<speed>1.27</speed>
<course>187.7</course>
<desc>Speed 4.6 km/h Distance 3.12 km</desc>
<time>2010-10-24T11:00:55.12</time>
<name>1876</name>
</trkpt>
<trkpt lat="48.955492" lon="8.644520">
<ele>247.0</ele>
<speed>0.81</speed>
<course>180.0</course>
<desc>Speed 2.9 km/h Distance 3.12 km</desc>
<time>2010-10-24T11:00:56.12</time>
<name>1877</name>
</trkpt>
<trkpt lat="48.955482" lon="8.644520">
<ele>247.0</ele>
<speed>0.62</speed>
<course>203.8</course>
<desc>Speed 2.2 km/h Distance 3.12 km</desc>
<time>2010-10-24T11:01:00.12</time>
<name>1878</name>
</trkpt>
<trkpt lat="48.955472" lon="8.644513">
<ele>247.0</ele>
<speed>0.75</speed>
<course>203.7</course>
<desc>Speed 2.7 km/h Distance 3.12 km</desc>
<time>2010-10-24T11:01:06.12</time>
<name>1879</name>
</trkpt>
<trkpt lat="48.955457" lon="8.644503">
<ele>246.0</ele>
<speed>0.88</speed>
<course>194.9</course>
<desc>Speed 3.2 km/h Distance 3.12 km</desc>
<time>2010-10-24T11:01:08.12</time>
<name>1880</name>
</trkpt>
<trkpt lat="48.955448" lon="8.644500">
<ele>245.5</ele>
<speed>0.98</speed>
<course>214.1</course>
<desc>Speed 3.5 km/h Distance 3.12 km</desc>
<time>2010-10-24T11:01:09.11</time>
<name>1881</name>
</trkpt>
<trkpt lat="48.955443" lon="8.644495">
<ele>244.5</ele>
<speed>0.81</speed>
<course>194.9</course>
<desc>Speed 2.9 km/h Distance 3.12 km</desc>
<time>2010-10-24T11:01:10.12</time>
<name>1882</name>
</trkpt>
<trkpt lat="48.955435" lon="8.644492">
<ele>243.0</ele>
<speed>1.00</speed>
<course>196.0</course>
<desc>Speed 3.6 km/h Distance 3.12 km</desc>
<time>2010-10-24T11:01:11.10</time>
<name>1883</name>
</trkpt>
<trkpt lat="48.955423" lon="8.644487">
<ele>243.0</ele>
<speed>1.28</speed>
<course>206.4</course>
<desc>Speed 4.6 km/h Distance 3.12 km</desc>
<time>2010-10-24T11:01:12.10</time>
<name>1884</name>
</trkpt>
<trkpt lat="48.955417" lon="8.644482">
<ele>242.5</ele>
<speed>0.94</speed>
<course>166.5</course>
<desc>Speed 3.4 km/h Distance 3.13 km</desc>
<time>2010-10-24T11:01:13.09</time>
<name>1885</name>
</trkpt>
<trkpt lat="48.955403" lon="8.644487">
<ele>241.5</ele>
<speed>1.25</speed>
<course>176.1</course>
<desc>Speed 4.5 km/h Distance 3.13 km</desc>
<time>2010-10-24T11:01:14.09</time>
<name>1886</name>
</trkpt>
<trkpt lat="48.955390" lon="8.644488">
<ele>241.5</ele>
<speed>1.09</speed>
<course>195.5</course>
<desc>Speed 3.9 km/h Distance 3.13 km</desc>
<time>2010-10-24T11:01:15.09</time>
<name>1887</name>
</trkpt>
<trkpt lat="48.955378" lon="8.644483">
<ele>241.0</ele>
<speed>1.26</speed>
<course>192.6</course>
<desc>Speed 4.5 km/h Distance 3.13 km</desc>
<time>2010-10-24T11:01:16.09</time>
<name>1888</name>
</trkpt>
<trkpt lat="48.955368" lon="8.644480">
<ele>241.0</ele>
<speed>1.12</speed>
<course>203.8</course>
<desc>Speed 4.0 km/h Distance 3.13 km</desc>
<time>2010-10-24T11:01:17.08</time>
<name>1889</name>
</trkpt>
<trkpt lat="48.955358" lon="8.644473">
<ele>240.5</ele>
<speed>1.05</speed>
<course>184.7</course>
<desc>Speed 3.8 km/h Distance 3.13 km</desc>
<time>2010-10-24T11:01:18.08</time>
<name>1890</name>
</trkpt>
<trkpt lat="48.955347" lon="8.644472">
<ele>240.0</ele>
<speed>1.10</speed>
<course>183.8</course>
<desc>Speed 4.0 km/h Distance 3.13 km</desc>
<time>2010-10-24T11:01:19.08</time>
<name>1891</name>
</trkpt>
<trkpt lat="48.955332" lon="8.644470">
<ele>239.5</ele>
<speed>1.37</speed>
<course>178.8</course>
<desc>Speed 4.9 km/h Distance 3.14 km</desc>
<time>2010-10-24T11:01:20.08</time>
<name>1892</name>
</trkpt>
<trkpt lat="48.955318" lon="8.644470">
<ele>239.0</ele>
<speed>1.21</speed>
<course>188.1</course>
<desc>Speed 4.4 km/h Distance 3.14 km</desc>
<time>2010-10-24T11:01:21.07</time>
<name>1893</name>
</trkpt>
<trkpt lat="48.955303" lon="8.644467">
<ele>239.0</ele>
<speed>1.25</speed>
<course>180.0</course>
<desc>Speed 4.5 km/h Distance 3.14 km</desc>
<time>2010-10-24T11:01:22.07</time>
<name>1894</name>
</trkpt>
<trkpt lat="48.955287" lon="8.644467">
<ele>239.0</ele>
<speed>1.14</speed>
<course>189.5</course>
<desc>Speed 4.1 km/h Distance 3.14 km</desc>
<time>2010-10-24T11:01:23.07</time>
<name>1895</name>
</trkpt>
<trkpt lat="48.955275" lon="8.644463">
<ele>238.0</ele>
<speed>1.17</speed>
<course>187.5</course>
<desc>Speed 4.2 km/h Distance 3.14 km</desc>
<time>2010-10-24T11:01:24.07</time>
<name>1896</name>
</trkpt>
<trkpt lat="48.955260" lon="8.644460">
<ele>238.0</ele>
<speed>1.41</speed>
<course>206.4</course>
<desc>Speed 5.1 km/h Distance 3.14 km</desc>
<time>2010-10-24T11:01:25.06</time>
<name>1897</name>
</trkpt>
<trkpt lat="48.955247" lon="8.644450">
<ele>238.5</ele>
<speed>1.38</speed>
<course>206.9</course>
<desc>Speed 5.0 km/h Distance 3.14 km</desc>
<time>2010-10-24T11:01:26.06</time>
<name>1898</name>
</trkpt>
<trkpt lat="48.955232" lon="8.644438">
<ele>238.0</ele>
<speed>1.72</speed>
<course>216.9</course>
<desc>Speed 6.2 km/h Distance 3.15 km</desc>
<time>2010-10-24T11:01:27.06</time>
<name>1899</name>
</trkpt>
<trkpt lat="48.955220" lon="8.644425">
<ele>237.0</ele>
<speed>1.39</speed>
<course>209.4</course>
<desc>Speed 5.0 km/h Distance 3.15 km</desc>
<time>2010-10-24T11:01:28.06</time>
<name>1900</name>
</trkpt>
<trkpt lat="48.955208" lon="8.644415">
<ele>236.5</ele>
<speed>1.21</speed>
<course>198.1</course>
<desc>Speed 4.4 km/h Distance 3.15 km</desc>
<time>2010-10-24T11:01:29.06</time>
<name>1901</name>
</trkpt>
<trkpt lat="48.955192" lon="8.644407">
<ele>236.5</ele>
<speed>1.50</speed>
<course>217.5</course>
<desc>Speed 5.4 km/h Distance 3.15 km</desc>
<time>2010-10-24T11:01:30.06</time>
<name>1902</name>
</trkpt>
<trkpt lat="48.955182" lon="8.644395">
<ele>236.5</ele>
<speed>1.25</speed>
<course>238.7</course>
<desc>Speed 4.5 km/h Distance 3.15 km</desc>
<time>2010-10-24T11:01:31.06</time>
<name>1903</name>
</trkpt>
<trkpt lat="48.955175" lon="8.644378">
<ele>236.0</ele>
<speed>1.46</speed>
<course>245.4</course>
<desc>Speed 5.3 km/h Distance 3.15 km</desc>
<time>2010-10-24T11:01:32.08</time>
<name>1904</name>
</trkpt>
<trkpt lat="48.955170" lon="8.644362">
<ele>235.5</ele>
<speed>1.35</speed>
<course>236.7</course>
<desc>Speed 4.9 km/h Distance 3.16 km</desc>
<time>2010-10-24T11:01:33.08</time>
<name>1905</name>
</trkpt>
<trkpt lat="48.955165" lon="8.644350">
<ele>235.0</ele>
<speed>0.98</speed>
<course>243.0</course>
<desc>Speed 3.5 km/h Distance 3.16 km</desc>
<time>2010-10-24T11:01:34.08</time>
<name>1906</name>
</trkpt>
<trkpt lat="48.955162" lon="8.644340">
<ele>234.0</ele>
<speed>0.81</speed>
<course>243.0</course>
<desc>Speed 2.9 km/h Distance 3.16 km</desc>
<time>2010-10-24T11:01:35.08</time>
<name>1907</name>
</trkpt>
<trkpt lat="48.955157" lon="8.644325">
<ele>233.5</ele>
<speed>1.20</speed>
<course>249.1</course>
<desc>Speed 4.3 km/h Distance 3.16 km</desc>
<time>2010-10-24T11:01:36.08</time>
<name>1908</name>
</trkpt>
<trkpt lat="48.955153" lon="8.644312">
<ele>233.0</ele>
<speed>1.15</speed>
<course>259.2</course>
<desc>Speed 4.1 km/h Distance 3.16 km</desc>
<time>2010-10-24T11:01:37.08</time>
<name>1909</name>
</trkpt>
<trkpt lat="48.955152" lon="8.644298">
<ele>232.0</ele>
<speed>1.03</speed>
<course>240.3</course>
<desc>Speed 3.7 km/h Distance 3.16 km</desc>
<time>2010-10-24T11:01:38.08</time>
<name>1910</name>
</trkpt>
<trkpt lat="48.955147" lon="8.644285">
<ele>232.0</ele>
<speed>1.17</speed>
<course>260.4</course>
<desc>Speed 4.2 km/h Distance 3.16 km</desc>
<time>2010-10-24T11:01:39.08</time>
<name>1911</name>
</trkpt>
<trkpt lat="48.955145" lon="8.644270">
<ele>231.5</ele>
<speed>1.05</speed>
<course>261.3</course>
<desc>Speed 3.8 km/h Distance 3.16 km</desc>
<time>2010-10-24T11:01:40.08</time>
<name>1912</name>
</trkpt>
<trkpt lat="48.955143" lon="8.644253">
<ele>231.0</ele>
<speed>1.24</speed>
<course>253.1</course>
<desc>Speed 4.5 km/h Distance 3.16 km</desc>
<time>2010-10-24T11:01:41.08</time>
<name>1913</name>
</trkpt>
<trkpt lat="48.955140" lon="8.644237">
<ele>230.5</ele>
<speed>1.37</speed>
<course>254.6</course>
<desc>Speed 4.9 km/h Distance 3.17 km</desc>
<time>2010-10-24T11:01:42.08</time>
<name>1914</name>
</trkpt>
<trkpt lat="48.955137" lon="8.644218">
<ele>230.5</ele>
<speed>1.49</speed>
<course>247.5</course>
<desc>Speed 5.4 km/h Distance 3.17 km</desc>
<time>2010-10-24T11:01:43.08</time>
<name>1915</name>
</trkpt>
<trkpt lat="48.955132" lon="8.644200">
<ele>230.5</ele>
<speed>1.52</speed>
<course>263.3</course>
<desc>Speed 5.5 km/h Distance 3.17 km</desc>
<time>2010-10-24T11:01:44.08</time>
<name>1916</name>
</trkpt>
<trkpt lat="48.955130" lon="8.644178">
<ele>230.5</ele>
<speed>1.60</speed>
<course>277.2</course>
<desc>Speed 5.8 km/h Distance 3.17 km</desc>
<time>2010-10-24T11:01:45.08</time>
<name>1917</name>
</trkpt>
<trkpt lat="48.955132" lon="8.644158">
<ele>230.0</ele>
<speed>1.44</speed>
<course>270.0</course>
<desc>Speed 5.2 km/h Distance 3.17 km</desc>
<time>2010-10-24T11:01:46.08</time>
<name>1918</name>
</trkpt>
<trkpt lat="48.955132" lon="8.644140">
<ele>230.0</ele>
<speed>1.30</speed>
<course>254.6</course>
<desc>Speed 4.7 km/h Distance 3.17 km</desc>
<time>2010-10-24T11:01:47.08</time>
<name>1919</name>
</trkpt>
<trkpt lat="48.955128" lon="8.644122">
<ele>229.5</ele>
<speed>1.29</speed>
<course>262.1</course>
<desc>Speed 4.6 km/h Distance 3.17 km</desc>
<time>2010-10-24T11:01:48.08</time>
<name>1920</name>
</trkpt>
<trkpt lat="48.955127" lon="8.644103">
<ele>229.5</ele>
<speed>1.37</speed>
<course>253.1</course>
<desc>Speed 4.9 km/h Distance 3.18 km</desc>
<time>2010-10-24T11:01:49.08</time>
<name>1921</name>
</trkpt>
<trkpt lat="48.955123" lon="8.644087">
<ele>229.0</ele>
<speed>1.26</speed>
<course>254.5</course>
<desc>Speed 4.5 km/h Distance 3.18 km</desc>
<time>2010-10-24T11:01:50.08</time>
<name>1922</name>
</trkpt>
<trkpt lat="48.955120" lon="8.644068">
<ele>229.0</ele>
<speed>1.33</speed>
<course>255.8</course>
<desc>Speed 4.8 km/h Distance 3.18 km</desc>
<time>2010-10-24T11:01:51.08</time>
<name>1923</name>
</trkpt>
<trkpt lat="48.955117" lon="8.644048">
<ele>228.5</ele>
<speed>1.39</speed>
<course>255.8</course>
<desc>Speed 5.0 km/h Distance 3.18 km</desc>
<time>2010-10-24T11:01:52.08</time>
<name>1924</name>
</trkpt>
<trkpt lat="48.955113" lon="8.644028">
<ele>228.5</ele>
<speed>1.46</speed>
<course>254.5</course>
<desc>Speed 5.3 km/h Distance 3.18 km</desc>
<time>2010-10-24T11:01:53.08</time>
<name>1925</name>
</trkpt>
<trkpt lat="48.955110" lon="8.644010">
<ele>228.0</ele>
<speed>1.40</speed>
<course>262.1</course>
<desc>Speed 5.0 km/h Distance 3.18 km</desc>
<time>2010-10-24T11:01:54.08</time>
<name>1926</name>
</trkpt>
<trkpt lat="48.955108" lon="8.643992">
<ele>228.0</ele>
<speed>1.35</speed>
<course>254.5</course>
<desc>Speed 4.9 km/h Distance 3.18 km</desc>
<time>2010-10-24T11:01:55.08</time>
<name>1927</name>
</trkpt>
<trkpt lat="48.955105" lon="8.643973">
<ele>228.0</ele>
<speed>1.35</speed>
<course>254.5</course>
<desc>Speed 4.9 km/h Distance 3.19 km</desc>
<time>2010-10-24T11:01:56.08</time>
<name>1928</name>
</trkpt>
<trkpt lat="48.955102" lon="8.643955">
<ele>228.0</ele>
<speed>1.44</speed>
<course>256.8</course>
<desc>Speed 5.2 km/h Distance 3.19 km</desc>
<time>2010-10-24T11:01:57.08</time>
<name>1929</name>
</trkpt>
<trkpt lat="48.955098" lon="8.643933">
<ele>228.0</ele>
<speed>1.50</speed>
<course>270.0</course>
<desc>Speed 5.4 km/h Distance 3.19 km</desc>
<time>2010-10-24T11:01:58.08</time>
<name>1930</name>
</trkpt>
<trkpt lat="48.955098" lon="8.643888">
<ele>230.5</ele>
<speed>1.49</speed>
<course>263.8</course>
<desc>Speed 5.4 km/h Distance 3.19 km</desc>
<time>2010-10-24T11:01:59.08</time>
<name>1931</name>
</trkpt>
<trkpt lat="48.955097" lon="8.643865">
<ele>231.0</ele>
<speed>1.29</speed>
<course>280.2</course>
<desc>Speed 4.6 km/h Distance 3.19 km</desc>
<time>2010-10-24T11:02:00.08</time>
<name>1932</name>
</trkpt>
<trkpt lat="48.955100" lon="8.643837">
<ele>229.0</ele>
<speed>2.09</speed>
<course>259.2</course>
<desc>Speed 7.5 km/h Distance 3.20 km</desc>
<time>2010-10-24T11:02:01.08</time>
<name>1933</name>
</trkpt>
<trkpt lat="48.955097" lon="8.643810">
<ele>231.0</ele>
<speed>1.13</speed>
<course>253.1</course>
<desc>Speed 4.1 km/h Distance 3.20 km</desc>
<time>2010-10-24T11:02:02.08</time>
<name>1934</name>
</trkpt>
<trkpt lat="48.955093" lon="8.643793">
<ele>231.0</ele>
<speed>1.13</speed>
<course>256.8</course>
<desc>Speed 4.1 km/h Distance 3.20 km</desc>
<time>2010-10-24T11:02:03.08</time>
<name>1935</name>
</trkpt>
<trkpt lat="48.955090" lon="8.643772">
<ele>231.5</ele>
<speed>1.37</speed>
<course>238.7</course>
<desc>Speed 4.9 km/h Distance 3.20 km</desc>
<time>2010-10-24T11:02:04.08</time>
<name>1936</name>
</trkpt>
<trkpt lat="48.955083" lon="8.643755">
<ele>231.5</ele>
<speed>1.30</speed>
<course>250.6</course>
<desc>Speed 4.7 km/h Distance 3.20 km</desc>
<time>2010-10-24T11:02:05.08</time>
<name>1937</name>
</trkpt>
<trkpt lat="48.955078" lon="8.643733">
<ele>231.5</ele>
<speed>1.19</speed>
<course>264.2</course>
<desc>Speed 4.3 km/h Distance 3.20 km</desc>
<time>2010-10-24T11:02:06.08</time>
<name>1938</name>
</trkpt>
<trkpt lat="48.955077" lon="8.643708">
<ele>233.0</ele>
<speed>1.25</speed>
<course>250.6</course>
<desc>Speed 4.5 km/h Distance 3.21 km</desc>
<time>2010-10-24T11:02:07.08</time>
<name>1939</name>
</trkpt>
<trkpt lat="48.955072" lon="8.643687">
<ele>233.5</ele>
<speed>1.12</speed>
<course>241.0</course>
<desc>Speed 4.0 km/h Distance 3.21 km</desc>
<time>2010-10-24T11:02:08.08</time>
<name>1940</name>
</trkpt>
<trkpt lat="48.955065" lon="8.643668">
<ele>234.5</ele>
<speed>1.03</speed>
<course>224.5</course>
<desc>Speed 3.7 km/h Distance 3.21 km</desc>
<time>2010-10-24T11:02:09.08</time>
<name>1941</name>
</trkpt>
<trkpt lat="48.955055" lon="8.643653">
<ele>235.0</ele>
<speed>0.97</speed>
<course>224.5</course>
<desc>Speed 3.5 km/h Distance 3.21 km</desc>
<time>2010-10-24T11:02:10.08</time>
<name>1942</name>
</trkpt>
<trkpt lat="48.955045" lon="8.643638">
<ele>236.5</ele>
<speed>1.02</speed>
<course>196.3</course>
<desc>Speed 3.7 km/h Distance 3.21 km</desc>
<time>2010-10-24T11:02:11.08</time>
<name>1943</name>
</trkpt>
<trkpt lat="48.955030" lon="8.643632">
<ele>237.5</ele>
<speed>1.64</speed>
<course>188.1</course>
<desc>Speed 5.9 km/h Distance 3.21 km</desc>
<time>2010-10-24T11:02:12.08</time>
<name>1944</name>
</trkpt>
<trkpt lat="48.955015" lon="8.643628">
<ele>238.5</ele>
<speed>1.73</speed>
<course>196.0</course>
<desc>Speed 6.2 km/h Distance 3.22 km</desc>
<time>2010-10-24T11:02:13.08</time>
<name>1945</name>
</trkpt>
<trkpt lat="48.955000" lon="8.643622">
<ele>240.0</ele>
<speed>1.54</speed>
<course>180.0</course>
<desc>Speed 5.5 km/h Distance 3.22 km</desc>
<time>2010-10-24T11:02:14.08</time>
<name>1946</name>
</trkpt>
<trkpt lat="48.954983" lon="8.643622">
<ele>240.5</ele>
<speed>1.63</speed>
<course>176.2</course>
<desc>Speed 5.9 km/h Distance 3.22 km</desc>
<time>2010-10-24T11:02:15.08</time>
<name>1947</name>
</trkpt>
<trkpt lat="48.954968" lon="8.643623">
<ele>241.5</ele>
<speed>1.63</speed>
<course>184.1</course>
<desc>Speed 5.9 km/h Distance 3.22 km</desc>
<time>2010-10-24T11:02:16.08</time>
<name>1948</name>
</trkpt>
<trkpt lat="48.954952" lon="8.643622">
<ele>242.5</ele>
<speed>1.58</speed>
<course>184.1</course>
<desc>Speed 5.7 km/h Distance 3.22 km</desc>
<time>2010-10-24T11:02:17.08</time>
<name>1949</name>
</trkpt>
<trkpt lat="48.954935" lon="8.643620">
<ele>243.5</ele>
<speed>1.60</speed>
<course>180.0</course>
<desc>Speed 5.8 km/h Distance 3.22 km</desc>
<time>2010-10-24T11:02:18.08</time>
<name>1950</name>
</trkpt>
<trkpt lat="48.954918" lon="8.643620">
<ele>244.0</ele>
<speed>1.61</speed>
<course>178.8</course>
<desc>Speed 5.8 km/h Distance 3.23 km</desc>
<time>2010-10-24T11:02:19.08</time>
<name>1951</name>
</trkpt>
<trkpt lat="48.954905" lon="8.643620">
<ele>244.5</ele>
<speed>1.38</speed>
<course>172.9</course>
<desc>Speed 5.0 km/h Distance 3.23 km</desc>
<time>2010-10-24T11:02:20.08</time>
<name>1952</name>
</trkpt>
<trkpt lat="48.954888" lon="8.643623">
<ele>244.5</ele>
<speed>1.63</speed>
<course>180.0</course>
<desc>Speed 5.9 km/h Distance 3.23 km</desc>
<time>2010-10-24T11:02:21.08</time>
<name>1953</name>
</trkpt>
<trkpt lat="48.954873" lon="8.643623">
<ele>245.0</ele>
<speed>1.52</speed>
<course>178.8</course>
<desc>Speed 5.5 km/h Distance 3.23 km</desc>
<time>2010-10-24T11:02:22.08</time>
<name>1954</name>
</trkpt>
<trkpt lat="48.954860" lon="8.643623">
<ele>245.0</ele>
<speed>1.50</speed>
<course>171.0</course>
<desc>Speed 5.4 km/h Distance 3.23 km</desc>
<time>2010-10-24T11:02:23.08</time>
<name>1955</name>
</trkpt>
<trkpt lat="48.954847" lon="8.643627">
<ele>245.0</ele>
<speed>1.39</speed>
<course>176.2</course>
<desc>Speed 5.0 km/h Distance 3.23 km</desc>
<time>2010-10-24T11:02:24.08</time>
<name>1956</name>
</trkpt>
<trkpt lat="48.954832" lon="8.643628">
<ele>245.5</ele>
<speed>1.50</speed>
<course>169.6</course>
<desc>Speed 5.4 km/h Distance 3.24 km</desc>
<time>2010-10-24T11:02:25.08</time>
<name>1957</name>
</trkpt>
<trkpt lat="48.954815" lon="8.643633">
<ele>246.0</ele>
<speed>1.50</speed>
<course>167.4</course>
<desc>Speed 5.4 km/h Distance 3.24 km</desc>
<time>2010-10-24T11:02:26.08</time>
<name>1958</name>
</trkpt>
<trkpt lat="48.954800" lon="8.643638">
<ele>246.5</ele>
<speed>1.55</speed>
<course>165.1</course>
<desc>Speed 5.6 km/h Distance 3.24 km</desc>
<time>2010-10-24T11:02:27.08</time>
<name>1959</name>
</trkpt>
<trkpt lat="48.954783" lon="8.643645">
<ele>247.0</ele>
<speed>1.55</speed>
<course>163.7</course>
<desc>Speed 5.6 km/h Distance 3.24 km</desc>
<time>2010-10-24T11:02:28.08</time>
<name>1960</name>
</trkpt>
<trkpt lat="48.954768" lon="8.643652">
<ele>247.5</ele>
<speed>1.48</speed>
<course>165.1</course>
<desc>Speed 5.3 km/h Distance 3.24 km</desc>
<time>2010-10-24T11:02:29.08</time>
<name>1961</name>
</trkpt>
<trkpt lat="48.954752" lon="8.643658">
<ele>247.5</ele>
<speed>1.63</speed>
<course>168.8</course>
<desc>Speed 5.9 km/h Distance 3.24 km</desc>
<time>2010-10-24T11:02:30.08</time>
<name>1962</name>
</trkpt>
<trkpt lat="48.954735" lon="8.643663">
<ele>247.5</ele>
<speed>1.57</speed>
<course>168.8</course>
<desc>Speed 5.7 km/h Distance 3.25 km</desc>
<time>2010-10-24T11:02:31.08</time>
<name>1963</name>
</trkpt>
<trkpt lat="48.954718" lon="8.643668">
<ele>247.5</ele>
<speed>1.61</speed>
<course>175.0</course>
<desc>Speed 5.8 km/h Distance 3.25 km</desc>
<time>2010-10-24T11:02:32.08</time>
<name>1964</name>
</trkpt>
<trkpt lat="48.954703" lon="8.643670">
<ele>247.5</ele>
<speed>1.62</speed>
<course>171.9</course>
<desc>Speed 5.8 km/h Distance 3.25 km</desc>
<time>2010-10-24T11:02:33.08</time>
<name>1965</name>
</trkpt>
<trkpt lat="48.954688" lon="8.643673">
<ele>247.5</ele>
<speed>1.65</speed>
<course>176.2</course>
<desc>Speed 5.9 km/h Distance 3.25 km</desc>
<time>2010-10-24T11:02:34.08</time>
<name>1966</name>
</trkpt>
<trkpt lat="48.954673" lon="8.643675">
<ele>248.0</ele>
<speed>1.57</speed>
<course>172.5</course>
<desc>Speed 5.7 km/h Distance 3.25 km</desc>
<time>2010-10-24T11:02:35.08</time>
<name>1967</name>
</trkpt>
<trkpt lat="48.954658" lon="8.643678">
<ele>248.0</ele>
<speed>1.54</speed>
<course>176.2</course>
<desc>Speed 5.5 km/h Distance 3.26 km</desc>
<time>2010-10-24T11:02:36.08</time>
<name>1968</name>
</trkpt>
<trkpt lat="48.954643" lon="8.643680">
<ele>248.0</ele>
<speed>1.59</speed>
<course>174.7</course>
<desc>Speed 5.7 km/h Distance 3.26 km</desc>
<time>2010-10-24T11:02:37.08</time>
<name>1969</name>
</trkpt>
<trkpt lat="48.954630" lon="8.643682">
<ele>248.5</ele>
<speed>1.61</speed>
<course>171.2</course>
<desc>Speed 5.8 km/h Distance 3.26 km</desc>
<time>2010-10-24T11:02:38.08</time>
<name>1970</name>
</trkpt>
<trkpt lat="48.954615" lon="8.643685">
<ele>248.5</ele>
<speed>1.64</speed>
<course>176.2</course>
<desc>Speed 5.9 km/h Distance 3.26 km</desc>
<time>2010-10-24T11:02:39.08</time>
<name>1971</name>
</trkpt>
<trkpt lat="48.954600" lon="8.643687">
<ele>248.5</ele>
<speed>1.52</speed>
<course>174.7</course>
<desc>Speed 5.5 km/h Distance 3.26 km</desc>
<time>2010-10-24T11:02:40.08</time>
<name>1972</name>
</trkpt>
<trkpt lat="48.954587" lon="8.643688">
<ele>248.5</ele>
<speed>1.61</speed>
<course>178.8</course>
<desc>Speed 5.8 km/h Distance 3.26 km</desc>
<time>2010-10-24T11:02:41.08</time>
<name>1973</name>
</trkpt>
<trkpt lat="48.954573" lon="8.643688">
<ele>248.5</ele>
<speed>1.60</speed>
<course>171.2</course>
<desc>Speed 5.8 km/h Distance 3.27 km</desc>
<time>2010-10-24T11:02:42.08</time>
<name>1974</name>
</trkpt>
<trkpt lat="48.954558" lon="8.643692">
<ele>248.5</ele>
<speed>1.70</speed>
<course>178.8</course>
<desc>Speed 6.1 km/h Distance 3.27 km</desc>
<time>2010-10-24T11:02:43.08</time>
<name>1975</name>
</trkpt>
<trkpt lat="48.954545" lon="8.643692">
<ele>248.5</ele>
<speed>1.59</speed>
<course>171.2</course>
<desc>Speed 5.7 km/h Distance 3.27 km</desc>
<time>2010-10-24T11:02:44.08</time>
<name>1976</name>
</trkpt>
<trkpt lat="48.954530" lon="8.643695">
<ele>249.0</ele>
<speed>1.61</speed>
<course>174.7</course>
<desc>Speed 5.8 km/h Distance 3.27 km</desc>
<time>2010-10-24T11:02:45.08</time>
<name>1977</name>
</trkpt>
<trkpt lat="48.954517" lon="8.643697">
<ele>249.0</ele>
<speed>1.67</speed>
<course>171.9</course>
<desc>Speed 6.0 km/h Distance 3.27 km</desc>
<time>2010-10-24T11:02:46.08</time>
<name>1978</name>
</trkpt>
<trkpt lat="48.954502" lon="8.643700">
<ele>249.0</ele>
<speed>1.67</speed>
<course>178.8</course>
<desc>Speed 6.0 km/h Distance 3.27 km</desc>
<time>2010-10-24T11:02:47.08</time>
<name>1979</name>
</trkpt>
<trkpt lat="48.954488" lon="8.643700">
<ele>249.0</ele>
<speed>1.61</speed>
<course>178.1</course>
<desc>Speed 5.8 km/h Distance 3.27 km</desc>
<time>2010-10-24T11:02:48.08</time>
<name>1980</name>
</trkpt>
<trkpt lat="48.954473" lon="8.643702">
<ele>248.5</ele>
<speed>1.64</speed>
<course>176.2</course>
<desc>Speed 5.9 km/h Distance 3.28 km</desc>
<time>2010-10-24T11:02:49.08</time>
<name>1981</name>
</trkpt>
<trkpt lat="48.954458" lon="8.643703">
<ele>248.5</ele>
<speed>1.65</speed>
<course>174.7</course>
<desc>Speed 5.9 km/h Distance 3.28 km</desc>
<time>2010-10-24T11:02:50.08</time>
<name>1982</name>
</trkpt>
<trkpt lat="48.954445" lon="8.643705">
<ele>248.5</ele>
<speed>1.63</speed>
<course>176.2</course>
<desc>Speed 5.9 km/h Distance 3.28 km</desc>
<time>2010-10-24T11:02:51.08</time>
<name>1983</name>
</trkpt>
<trkpt lat="48.954430" lon="8.643707">
<ele>248.5</ele>
<speed>1.63</speed>
<course>176.2</course>
<desc>Speed 5.9 km/h Distance 3.28 km</desc>
<time>2010-10-24T11:02:52.08</time>
<name>1984</name>
</trkpt>
<trkpt lat="48.954415" lon="8.643708">
<ele>248.5</ele>
<speed>1.63</speed>
<course>176.1</course>
<desc>Speed 5.9 km/h Distance 3.28 km</desc>
<time>2010-10-24T11:02:53.08</time>
<name>1985</name>
</trkpt>
<trkpt lat="48.954402" lon="8.643710">
<ele>248.5</ele>
<speed>1.57</speed>
<course>176.2</course>
<desc>Speed 5.7 km/h Distance 3.28 km</desc>
<time>2010-10-24T11:02:54.08</time>
<name>1986</name>
</trkpt>
<trkpt lat="48.954387" lon="8.643712">
<ele>248.5</ele>
<speed>1.50</speed>
<course>174.7</course>
<desc>Speed 5.4 km/h Distance 3.29 km</desc>
<time>2010-10-24T11:02:55.08</time>
<name>1987</name>
</trkpt>
<trkpt lat="48.954373" lon="8.643713">
<ele>248.0</ele>
<speed>1.58</speed>
<course>178.8</course>
<desc>Speed 5.7 km/h Distance 3.29 km</desc>
<time>2010-10-24T11:02:56.08</time>
<name>1988</name>
</trkpt>
<trkpt lat="48.954360" lon="8.643713">
<ele>248.5</ele>
<speed>1.50</speed>
<course>176.2</course>
<desc>Speed 5.4 km/h Distance 3.29 km</desc>
<time>2010-10-24T11:02:57.08</time>
<name>1989</name>
</trkpt>
<trkpt lat="48.954345" lon="8.643713">
<ele>248.5</ele>
<speed>1.59</speed>
<course>178.1</course>
<desc>Speed 5.7 km/h Distance 3.29 km</desc>
<time>2010-10-24T11:02:58.08</time>
<name>1990</name>
</trkpt>
<trkpt lat="48.954330" lon="8.643713">
<ele>248.5</ele>
<speed>1.52</speed>
<course>185.3</course>
<desc>Speed 5.5 km/h Distance 3.29 km</desc>
<time>2010-10-24T11:02:59.08</time>
<name>1991</name>
</trkpt>
<trkpt lat="48.954317" lon="8.643712">
<ele>248.5</ele>
<speed>1.53</speed>
<course>174.7</course>
<desc>Speed 5.5 km/h Distance 3.29 km</desc>
<time>2010-10-24T11:03:00.08</time>
<name>1992</name>
</trkpt>
<trkpt lat="48.954303" lon="8.643713">
<ele>248.5</ele>
<speed>1.53</speed>
<course>176.1</course>
<desc>Speed 5.5 km/h Distance 3.30 km</desc>
<time>2010-10-24T11:03:01.08</time>
<name>1993</name>
</trkpt>
<trkpt lat="48.954290" lon="8.643715">
<ele>248.5</ele>
<speed>1.62</speed>
<course>183.8</course>
<desc>Speed 5.8 km/h Distance 3.30 km</desc>
<time>2010-10-24T11:03:02.08</time>
<name>1994</name>
</trkpt>
<trkpt lat="48.954275" lon="8.643713">
<ele>248.5</ele>
<speed>1.62</speed>
<course>188.8</course>
<desc>Speed 5.8 km/h Distance 3.30 km</desc>
<time>2010-10-24T11:03:03.08</time>
<name>1995</name>
</trkpt>
<trkpt lat="48.954260" lon="8.643710">
<ele>249.0</ele>
<speed>1.58</speed>
<course>183.9</course>
<desc>Speed 5.7 km/h Distance 3.30 km</desc>
<time>2010-10-24T11:03:04.08</time>
<name>1996</name>
</trkpt>
<trkpt lat="48.954247" lon="8.643708">
<ele>249.0</ele>
<speed>1.54</speed>
<course>183.8</course>
<desc>Speed 5.5 km/h Distance 3.30 km</desc>
<time>2010-10-24T11:03:05.08</time>
<name>1997</name>
</trkpt>
<trkpt lat="48.954232" lon="8.643707">
<ele>249.0</ele>
<speed>1.55</speed>
<course>184.7</course>
<desc>Speed 5.6 km/h Distance 3.30 km</desc>
<time>2010-10-24T11:03:06.08</time>
<name>1998</name>
</trkpt>
<trkpt lat="48.954220" lon="8.643705">
<ele>249.0</ele>
<speed>1.35</speed>
<course>190.4</course>
<desc>Speed 4.9 km/h Distance 3.30 km</desc>
<time>2010-10-24T11:03:07.08</time>
<name>1999</name>
</trkpt>
<trkpt lat="48.954208" lon="8.643702">
<ele>249.5</ele>
<speed>1.27</speed>
<course>194.9</course>
<desc>Speed 4.6 km/h Distance 3.31 km</desc>
<time>2010-10-24T11:03:08.08</time>
<name>2000</name>
</trkpt>
<trkpt lat="48.954197" lon="8.643697">
<ele>249.5</ele>
<speed>1.30</speed>
<course>191.2</course>
<desc>Speed 4.7 km/h Distance 3.31 km</desc>
<time>2010-10-24T11:03:09.08</time>
<name>2001</name>
</trkpt>
<trkpt lat="48.954185" lon="8.643693">
<ele>249.5</ele>
<speed>1.48</speed>
<course>190.3</course>
<desc>Speed 5.3 km/h Distance 3.31 km</desc>
<time>2010-10-24T11:03:10.08</time>
<name>2002</name>
</trkpt>
<trkpt lat="48.954172" lon="8.643690">
<ele>250.0</ele>
<speed>1.50</speed>
<course>189.0</course>
<desc>Speed 5.4 km/h Distance 3.31 km</desc>
<time>2010-10-24T11:03:11.08</time>
<name>2003</name>
</trkpt>
<trkpt lat="48.954158" lon="8.643687">
<ele>250.0</ele>
<speed>1.37</speed>
<course>198.2</course>
<desc>Speed 4.9 km/h Distance 3.31 km</desc>
<time>2010-10-24T11:03:12.08</time>
<name>2004</name>
</trkpt>
<trkpt lat="48.954148" lon="8.643682">
<ele>251.0</ele>
<speed>1.32</speed>
<course>200.6</course>
<desc>Speed 4.8 km/h Distance 3.31 km</desc>
<time>2010-10-24T11:03:13.08</time>
<name>2005</name>
</trkpt>
<trkpt lat="48.954137" lon="8.643675">
<ele>251.0</ele>
<speed>1.36</speed>
<course>193.5</course>
<desc>Speed 4.9 km/h Distance 3.31 km</desc>
<time>2010-10-24T11:03:14.08</time>
<name>2006</name>
</trkpt>
<trkpt lat="48.954123" lon="8.643670">
<ele>251.5</ele>
<speed>1.49</speed>
<course>195.5</course>
<desc>Speed 5.4 km/h Distance 3.32 km</desc>
<time>2010-10-24T11:03:15.08</time>
<name>2007</name>
</trkpt>
<trkpt lat="48.954112" lon="8.643665">
<ele>251.5</ele>
<speed>1.48</speed>
<course>190.4</course>
<desc>Speed 5.3 km/h Distance 3.32 km</desc>
<time>2010-10-24T11:03:16.08</time>
<name>2008</name>
</trkpt>
<trkpt lat="48.954100" lon="8.643662">
<ele>252.0</ele>
<speed>1.23</speed>
<course>189.0</course>
<desc>Speed 4.4 km/h Distance 3.32 km</desc>
<time>2010-10-24T11:03:17.08</time>
<name>2009</name>
</trkpt>
<trkpt lat="48.954087" lon="8.643658">
<ele>252.5</ele>
<speed>1.41</speed>
<course>198.2</course>
<desc>Speed 5.1 km/h Distance 3.32 km</desc>
<time>2010-10-24T11:03:18.08</time>
<name>2010</name>
</trkpt>
<trkpt lat="48.954077" lon="8.643653">
<ele>252.5</ele>
<speed>1.35</speed>
<course>193.5</course>
<desc>Speed 4.9 km/h Distance 3.32 km</desc>
<time>2010-10-24T11:03:19.08</time>
<name>2011</name>
</trkpt>
<trkpt lat="48.954063" lon="8.643648">
<ele>253.0</ele>
<speed>1.45</speed>
<course>195.5</course>
<desc>Speed 5.2 km/h Distance 3.32 km</desc>
<time>2010-10-24T11:03:20.08</time>
<name>2012</name>
</trkpt>
<trkpt lat="48.954052" lon="8.643643">
<ele>253.0</ele>
<speed>1.38</speed>
<course>200.2</course>
<desc>Speed 5.0 km/h Distance 3.32 km</desc>
<time>2010-10-24T11:03:21.08</time>
<name>2013</name>
</trkpt>
<trkpt lat="48.954040" lon="8.643637">
<ele>253.5</ele>
<speed>1.37</speed>
<course>190.3</course>
<desc>Speed 4.9 km/h Distance 3.33 km</desc>
<time>2010-10-24T11:03:22.08</time>
<name>2014</name>
</trkpt>
<trkpt lat="48.954027" lon="8.643633">
<ele>254.0</ele>
<speed>1.37</speed>
<course>207.9</course>
<desc>Speed 4.9 km/h Distance 3.33 km</desc>
<time>2010-10-24T11:03:23.08</time>
<name>2015</name>
</trkpt>
<trkpt lat="48.954018" lon="8.643627">
<ele>254.5</ele>
<speed>1.11</speed>
<course>200.9</course>
<desc>Speed 4.0 km/h Distance 3.33 km</desc>
<time>2010-10-24T11:03:24.08</time>
<name>2016</name>
</trkpt>
<trkpt lat="48.954007" lon="8.643620">
<ele>254.5</ele>
<speed>1.37</speed>
<course>198.4</course>
<desc>Speed 4.9 km/h Distance 3.33 km</desc>
<time>2010-10-24T11:03:25.08</time>
<name>2017</name>
</trkpt>
<trkpt lat="48.953993" lon="8.643613">
<ele>255.0</ele>
<speed>1.40</speed>
<course>194.0</course>
<desc>Speed 5.0 km/h Distance 3.33 km</desc>
<time>2010-10-24T11:03:26.08</time>
<name>2018</name>
</trkpt>
<trkpt lat="48.953980" lon="8.643608">
<ele>255.0</ele>
<speed>1.46</speed>
<course>189.0</course>
<desc>Speed 5.3 km/h Distance 3.33 km</desc>
<time>2010-10-24T11:03:27.08</time>
<name>2019</name>
</trkpt>
<trkpt lat="48.953967" lon="8.643605">
<ele>255.5</ele>
<speed>1.44</speed>
<course>189.0</course>
<desc>Speed 5.2 km/h Distance 3.33 km</desc>
<time>2010-10-24T11:03:28.08</time>
<name>2020</name>
</trkpt>
<trkpt lat="48.953953" lon="8.643602">
<ele>256.5</ele>
<speed>1.40</speed>
<course>196.0</course>
<desc>Speed 5.0 km/h Distance 3.34 km</desc>
<time>2010-10-24T11:03:29.08</time>
<name>2021</name>
</trkpt>
<trkpt lat="48.953942" lon="8.643597">
<ele>257.0</ele>
<speed>1.41</speed>
<course>198.1</course>
<desc>Speed 5.1 km/h Distance 3.34 km</desc>
<time>2010-10-24T11:03:30.08</time>
<name>2022</name>
</trkpt>
<trkpt lat="48.953928" lon="8.643590">
<ele>257.0</ele>
<speed>1.45</speed>
<course>194.0</course>
<desc>Speed 5.2 km/h Distance 3.34 km</desc>
<time>2010-10-24T11:03:31.08</time>
<name>2023</name>
</trkpt>
<trkpt lat="48.953915" lon="8.643585">
<ele>257.5</ele>
<speed>1.50</speed>
<course>198.1</course>
<desc>Speed 5.4 km/h Distance 3.34 km</desc>
<time>2010-10-24T11:03:32.08</time>
<name>2024</name>
</trkpt>
<trkpt lat="48.953902" lon="8.643578">
<ele>257.5</ele>
<speed>1.49</speed>
<course>190.4</course>
<desc>Speed 5.4 km/h Distance 3.34 km</desc>
<time>2010-10-24T11:03:33.08</time>
<name>2025</name>
</trkpt>
<trkpt lat="48.953890" lon="8.643575">
<ele>258.0</ele>
<speed>1.46</speed>
<course>193.5</course>
<desc>Speed 5.3 km/h Distance 3.34 km</desc>
<time>2010-10-24T11:03:34.08</time>
<name>2026</name>
</trkpt>
<trkpt lat="48.953877" lon="8.643570">
<ele>258.0</ele>
<speed>1.46</speed>
<course>200.9</course>
<desc>Speed 5.3 km/h Distance 3.34 km</desc>
<time>2010-10-24T11:03:35.08</time>
<name>2027</name>
</trkpt>
<trkpt lat="48.953865" lon="8.643563">
<ele>258.0</ele>
<speed>1.42</speed>
<course>200.6</course>
<desc>Speed 5.1 km/h Distance 3.35 km</desc>
<time>2010-10-24T11:03:36.08</time>
<name>2028</name>
</trkpt>
<trkpt lat="48.953853" lon="8.643557">
<ele>258.5</ele>
<speed>1.45</speed>
<course>200.6</course>
<desc>Speed 5.2 km/h Distance 3.35 km</desc>
<time>2010-10-24T11:03:37.08</time>
<name>2029</name>
</trkpt>
<trkpt lat="48.953842" lon="8.643550">
<ele>258.5</ele>
<speed>1.45</speed>
<course>194.9</course>
<desc>Speed 5.2 km/h Distance 3.35 km</desc>
<time>2010-10-24T11:03:38.08</time>
<name>2030</name>
</trkpt>
<trkpt lat="48.953830" lon="8.643545">
<ele>258.5</ele>
<speed>1.50</speed>
<course>202.3</course>
<desc>Speed 5.4 km/h Distance 3.35 km</desc>
<time>2010-10-24T11:03:39.08</time>
<name>2031</name>
</trkpt>
<trkpt lat="48.953817" lon="8.643537">
<ele>258.5</ele>
<speed>1.50</speed>
<course>193.5</course>
<desc>Speed 5.4 km/h Distance 3.35 km</desc>
<time>2010-10-24T11:03:40.08</time>
<name>2032</name>
</trkpt>
<trkpt lat="48.953803" lon="8.643532">
<ele>258.5</ele>
<speed>1.50</speed>
<course>198.1</course>
<desc>Speed 5.4 km/h Distance 3.35 km</desc>
<time>2010-10-24T11:03:41.08</time>
<name>2033</name>
</trkpt>
<trkpt lat="48.953790" lon="8.643525">
<ele>258.5</ele>
<speed>1.63</speed>
<course>198.1</course>
<desc>Speed 5.9 km/h Distance 3.35 km</desc>
<time>2010-10-24T11:03:42.08</time>
<name>2034</name>
</trkpt>
<trkpt lat="48.953777" lon="8.643518">
<ele>259.0</ele>
<speed>1.38</speed>
<course>203.8</course>
<desc>Speed 5.0 km/h Distance 3.36 km</desc>
<time>2010-10-24T11:03:43.08</time>
<name>2035</name>
</trkpt>
<trkpt lat="48.953767" lon="8.643512">
<ele>259.0</ele>
<speed>1.24</speed>
<course>198.2</course>
<desc>Speed 4.5 km/h Distance 3.36 km</desc>
<time>2010-10-24T11:03:44.08</time>
<name>2036</name>
</trkpt>
<trkpt lat="48.953757" lon="8.643507">
<ele>259.5</ele>
<speed>1.14</speed>
<course>196.0</course>
<desc>Speed 4.1 km/h Distance 3.36 km</desc>
<time>2010-10-24T11:03:45.08</time>
<name>2037</name>
</trkpt>
<trkpt lat="48.953745" lon="8.643502">
<ele>260.0</ele>
<speed>1.25</speed>
<course>202.6</course>
<desc>Speed 4.5 km/h Distance 3.36 km</desc>
<time>2010-10-24T11:03:46.08</time>
<name>2038</name>
</trkpt>
<trkpt lat="48.953732" lon="8.643493">
<ele>260.0</ele>
<speed>1.53</speed>
<course>192.6</course>
<desc>Speed 5.5 km/h Distance 3.36 km</desc>
<time>2010-10-24T11:03:47.08</time>
<name>2039</name>
</trkpt>
<trkpt lat="48.953722" lon="8.643490">
<ele>260.5</ele>
<speed>1.12</speed>
<course>206.4</course>
<desc>Speed 4.0 km/h Distance 3.36 km</desc>
<time>2010-10-24T11:03:48.08</time>
<name>2040</name>
</trkpt>
<trkpt lat="48.953715" lon="8.643485">
<ele>261.5</ele>
<speed>0.88</speed>
<course>201.5</course>
<desc>Speed 3.2 km/h Distance 3.36 km</desc>
<time>2010-10-24T11:03:49.08</time>
<name>2041</name>
</trkpt>
<trkpt lat="48.953707" lon="8.643480">
<ele>262.0</ele>
<speed>0.93</speed>
<course>207.1</course>
<desc>Speed 3.3 km/h Distance 3.36 km</desc>
<time>2010-10-24T11:03:50.08</time>
<name>2042</name>
</trkpt>
<trkpt lat="48.953700" lon="8.643475">
<ele>263.0</ele>
<speed>0.83</speed>
<course>232.8</course>
<desc>Speed 3.0 km/h Distance 3.36 km</desc>
<time>2010-10-24T11:03:51.08</time>
<name>2043</name>
</trkpt>
<trkpt lat="48.953695" lon="8.643465">
<ele>265.0</ele>
<speed>0.87</speed>
<course>200.9</course>
<desc>Speed 3.1 km/h Distance 3.37 km</desc>
<time>2010-10-24T11:03:52.08</time>
<name>2044</name>
</trkpt>
<trkpt lat="48.953683" lon="8.643458">
<ele>265.0</ele>
<speed>1.48</speed>
<course>183.7</course>
<desc>Speed 5.3 km/h Distance 3.37 km</desc>
<time>2010-10-24T11:03:53.08</time>
<name>2045</name>
</trkpt>
<trkpt lat="48.953665" lon="8.643457">
<ele>264.5</ele>
<speed>1.61</speed>
<course>193.5</course>
<desc>Speed 5.8 km/h Distance 3.37 km</desc>
<time>2010-10-24T11:03:54.08</time>
<name>2046</name>
</trkpt>
<trkpt lat="48.953652" lon="8.643452">
<ele>264.0</ele>
<speed>1.50</speed>
<course>198.2</course>
<desc>Speed 5.4 km/h Distance 3.37 km</desc>
<time>2010-10-24T11:03:55.08</time>
<name>2047</name>
</trkpt>
<trkpt lat="48.953642" lon="8.643447">
<ele>264.5</ele>
<speed>1.38</speed>
<course>200.9</course>
<desc>Speed 5.0 km/h Distance 3.37 km</desc>
<time>2010-10-24T11:03:56.08</time>
<name>2048</name>
</trkpt>
<trkpt lat="48.953630" lon="8.643440">
<ele>265.0</ele>
<speed>1.51</speed>
<course>194.9</course>
<desc>Speed 5.4 km/h Distance 3.37 km</desc>
<time>2010-10-24T11:03:57.08</time>
<name>2049</name>
</trkpt>
<trkpt lat="48.953622" lon="8.643437">
<ele>266.0</ele>
<speed>1.12</speed>
<course>189.0</course>
<desc>Speed 4.0 km/h Distance 3.37 km</desc>
<time>2010-10-24T11:03:58.08</time>
<name>2050</name>
</trkpt>
<trkpt lat="48.953608" lon="8.643433">
<ele>265.5</ele>
<speed>1.58</speed>
<course>208.6</course>
<desc>Speed 5.7 km/h Distance 3.38 km</desc>
<time>2010-10-24T11:03:59.08</time>
<name>2051</name>
</trkpt>
<trkpt lat="48.953598" lon="8.643425">
<ele>266.0</ele>
<speed>1.48</speed>
<course>205.2</course>
<desc>Speed 5.3 km/h Distance 3.38 km</desc>
<time>2010-10-24T11:04:00.08</time>
<name>2052</name>
</trkpt>
<trkpt lat="48.953587" lon="8.643417">
<ele>266.5</ele>
<speed>1.47</speed>
<course>200.9</course>
<desc>Speed 5.3 km/h Distance 3.38 km</desc>
<time>2010-10-24T11:04:01.08</time>
<name>2053</name>
</trkpt>
<trkpt lat="48.953575" lon="8.643410">
<ele>267.0</ele>
<speed>1.64</speed>
<course>202.6</course>
<desc>Speed 5.9 km/h Distance 3.38 km</desc>
<time>2010-10-24T11:04:02.08</time>
<name>2054</name>
</trkpt>
<trkpt lat="48.953562" lon="8.643402">
<ele>267.0</ele>
<speed>1.65</speed>
<course>196.6</course>
<desc>Speed 5.9 km/h Distance 3.38 km</desc>
<time>2010-10-24T11:04:03.08</time>
<name>2055</name>
</trkpt>
<trkpt lat="48.953547" lon="8.643395">
<ele>267.0</ele>
<speed>1.75</speed>
<course>202.6</course>
<desc>Speed 6.3 km/h Distance 3.38 km</desc>
<time>2010-10-24T11:04:04.08</time>
<name>2056</name>
</trkpt>
<trkpt lat="48.953533" lon="8.643387">
<ele>267.0</ele>
<speed>1.61</speed>
<course>202.3</course>
<desc>Speed 5.8 km/h Distance 3.38 km</desc>
<time>2010-10-24T11:04:05.08</time>
<name>2057</name>
</trkpt>
<trkpt lat="48.953520" lon="8.643378">
<ele>267.5</ele>
<speed>1.52</speed>
<course>213.4</course>
<desc>Speed 5.5 km/h Distance 3.39 km</desc>
<time>2010-10-24T11:04:06.08</time>
<name>2058</name>
</trkpt>
<trkpt lat="48.953508" lon="8.643367">
<ele>267.5</ele>
<speed>1.60</speed>
<course>203.7</course>
<desc>Speed 5.8 km/h Distance 3.39 km</desc>
<time>2010-10-24T11:04:07.08</time>
<name>2059</name>
</trkpt>
<trkpt lat="48.953493" lon="8.643357">
<ele>267.5</ele>
<speed>1.76</speed>
<course>206.2</course>
<desc>Speed 6.3 km/h Distance 3.39 km</desc>
<time>2010-10-24T11:04:08.08</time>
<name>2060</name>
</trkpt>
<trkpt lat="48.953480" lon="8.643347">
<ele>267.5</ele>
<speed>1.65</speed>
<course>209.8</course>
<desc>Speed 5.9 km/h Distance 3.39 km</desc>
<time>2010-10-24T11:04:09.08</time>
<name>2061</name>
</trkpt>
<trkpt lat="48.953467" lon="8.643335">
<ele>267.5</ele>
<speed>1.49</speed>
<course>202.1</course>
<desc>Speed 5.4 km/h Distance 3.39 km</desc>
<time>2010-10-24T11:04:10.08</time>
<name>2062</name>
</trkpt>
<trkpt lat="48.953453" lon="8.643327">
<ele>268.0</ele>
<speed>1.55</speed>
<course>202.3</course>
<desc>Speed 5.6 km/h Distance 3.39 km</desc>
<time>2010-10-24T11:04:11.08</time>
<name>2063</name>
</trkpt>
<trkpt lat="48.953440" lon="8.643318">
<ele>268.5</ele>
<speed>1.41</speed>
<course>198.1</course>
<desc>Speed 5.1 km/h Distance 3.40 km</desc>
<time>2010-10-24T11:04:12.08</time>
<name>2064</name>
</trkpt>
<trkpt lat="48.953427" lon="8.643312">
<ele>268.5</ele>
<speed>1.41</speed>
<course>201.5</course>
<desc>Speed 5.1 km/h Distance 3.40 km</desc>
<time>2010-10-24T11:04:13.08</time>
<name>2065</name>
</trkpt>
<trkpt lat="48.953410" lon="8.643302">
<ele>268.5</ele>
<speed>1.64</speed>
<course>216.9</course>
<desc>Speed 5.9 km/h Distance 3.40 km</desc>
<time>2010-10-24T11:04:14.08</time>
<name>2066</name>
</trkpt>
<trkpt lat="48.953398" lon="8.643288">
<ele>268.5</ele>
<speed>1.46</speed>
<course>200.1</course>
<desc>Speed 5.3 km/h Distance 3.40 km</desc>
<time>2010-10-24T11:04:15.08</time>
<name>2067</name>
</trkpt>
<trkpt lat="48.953383" lon="8.643280">
<ele>268.0</ele>
<speed>1.47</speed>
<course>199.9</course>
<desc>Speed 5.3 km/h Distance 3.40 km</desc>
<time>2010-10-24T11:04:16.08</time>
<name>2068</name>
</trkpt>
<trkpt lat="48.953368" lon="8.643272">
<ele>268.0</ele>
<speed>1.61</speed>
<course>203.7</course>
<desc>Speed 5.8 km/h Distance 3.41 km</desc>
<time>2010-10-24T11:04:17.08</time>
<name>2069</name>
</trkpt>
<trkpt lat="48.953353" lon="8.643262">
<ele>268.0</ele>
<speed>1.63</speed>
<course>200.1</course>
<desc>Speed 5.9 km/h Distance 3.41 km</desc>
<time>2010-10-24T11:04:18.08</time>
<name>2070</name>
</trkpt>
<trkpt lat="48.953338" lon="8.643253">
<ele>268.0</ele>
<speed>1.66</speed>
<course>201.6</course>
<desc>Speed 6.0 km/h Distance 3.41 km</desc>
<time>2010-10-24T11:04:19.08</time>
<name>2071</name>
</trkpt>
<trkpt lat="48.953322" lon="8.643243">
<ele>267.5</ele>
<speed>1.69</speed>
<course>193.6</course>
<desc>Speed 6.1 km/h Distance 3.41 km</desc>
<time>2010-10-24T11:04:20.08</time>
<name>2072</name>
</trkpt>
<trkpt lat="48.953303" lon="8.643237">
<ele>267.0</ele>
<speed>1.66</speed>
<course>213.4</course>
<desc>Speed 6.0 km/h Distance 3.41 km</desc>
<time>2010-10-24T11:04:21.08</time>
<name>2073</name>
</trkpt>
<trkpt lat="48.953292" lon="8.643225">
<ele>267.0</ele>
<speed>1.54</speed>
<course>206.4</course>
<desc>Speed 5.5 km/h Distance 3.41 km</desc>
<time>2010-10-24T11:04:22.08</time>
<name>2074</name>
</trkpt>
<trkpt lat="48.953278" lon="8.643215">
<ele>267.0</ele>
<speed>1.60</speed>
<course>198.2</course>
<desc>Speed 5.8 km/h Distance 3.42 km</desc>
<time>2010-10-24T11:04:23.08</time>
<name>2075</name>
</trkpt>
<trkpt lat="48.953258" lon="8.643205">
<ele>265.0</ele>
<speed>1.50</speed>
<course>191.6</course>
<desc>Speed 5.4 km/h Distance 3.42 km</desc>
<time>2010-10-24T11:04:24.08</time>
<name>2076</name>
</trkpt>
<trkpt lat="48.953237" lon="8.643198">
<ele>263.5</ele>
<speed>1.57</speed>
<course>202.1</course>
<desc>Speed 5.7 km/h Distance 3.42 km</desc>
<time>2010-10-24T11:04:25.08</time>
<name>2077</name>
</trkpt>
<trkpt lat="48.953223" lon="8.643190">
<ele>263.0</ele>
<speed>1.66</speed>
<course>198.1</course>
<desc>Speed 6.0 km/h Distance 3.42 km</desc>
<time>2010-10-24T11:04:26.08</time>
<name>2078</name>
</trkpt>
<trkpt lat="48.953210" lon="8.643183">
<ele>263.5</ele>
<speed>1.44</speed>
<course>202.6</course>
<desc>Speed 5.2 km/h Distance 3.42 km</desc>
<time>2010-10-24T11:04:27.08</time>
<name>2079</name>
</trkpt>
<trkpt lat="48.953197" lon="8.643175">
<ele>263.0</ele>
<speed>1.39</speed>
<course>196.6</course>
<desc>Speed 5.0 km/h Distance 3.43 km</desc>
<time>2010-10-24T11:04:28.08</time>
<name>2080</name>
</trkpt>
<trkpt lat="48.953182" lon="8.643168">
<ele>263.5</ele>
<speed>1.57</speed>
<course>198.1</course>
<desc>Speed 5.7 km/h Distance 3.43 km</desc>
<time>2010-10-24T11:04:29.08</time>
<name>2081</name>
</trkpt>
<trkpt lat="48.953168" lon="8.643162">
<ele>263.0</ele>
<speed>1.57</speed>
<course>193.5</course>
<desc>Speed 5.7 km/h Distance 3.43 km</desc>
<time>2010-10-24T11:04:30.08</time>
<name>2082</name>
</trkpt>
<trkpt lat="48.953155" lon="8.643157">
<ele>263.5</ele>
<speed>1.53</speed>
<course>184.4</course>
<desc>Speed 5.5 km/h Distance 3.43 km</desc>
<time>2010-10-24T11:04:31.08</time>
<name>2083</name>
</trkpt>
<trkpt lat="48.953145" lon="8.643155">
<ele>264.0</ele>
<speed>1.12</speed>
<course>180.0</course>
<desc>Speed 4.0 km/h Distance 3.43 km</desc>
<time>2010-10-24T11:04:32.08</time>
<name>2084</name>
</trkpt>
<trkpt lat="48.953130" lon="8.643155">
<ele>264.0</ele>
<speed>1.58</speed>
<course>175.3</course>
<desc>Speed 5.7 km/h Distance 3.43 km</desc>
<time>2010-10-24T11:04:34.07</time>
<name>2085</name>
</trkpt>
<trkpt lat="48.953118" lon="8.643157">
<ele>264.5</ele>
<speed>1.25</speed>
<course>175.6</course>
<desc>Speed 4.5 km/h Distance 3.43 km</desc>
<time>2010-10-24T11:04:35.07</time>
<name>2086</name>
</trkpt>
<trkpt lat="48.953108" lon="8.643157">
<ele>265.0</ele>
<speed>1.10</speed>
<course>154.6</course>
<desc>Speed 4.0 km/h Distance 3.44 km</desc>
<time>2010-10-24T11:04:36.07</time>
<name>2087</name>
</trkpt>
<trkpt lat="48.953103" lon="8.643160">
<ele>266.5</ele>
<speed>0.75</speed>
<course>171.9</course>
<desc>Speed 2.7 km/h Distance 3.44 km</desc>
<time>2010-10-24T11:04:37.07</time>
<name>2088</name>
</trkpt>
<trkpt lat="48.953093" lon="8.643162">
<ele>267.0</ele>
<speed>1.11</speed>
<course>185.0</course>
<desc>Speed 4.0 km/h Distance 3.44 km</desc>
<time>2010-10-24T11:04:38.07</time>
<name>2089</name>
</trkpt>
<trkpt lat="48.953085" lon="8.643160">
<ele>268.0</ele>
<speed>0.98</speed>
<course>184.7</course>
<desc>Speed 3.5 km/h Distance 3.44 km</desc>
<time>2010-10-24T11:04:39.07</time>
<name>2090</name>
</trkpt>
<trkpt lat="48.953073" lon="8.643158">
<ele>268.5</ele>
<speed>1.35</speed>
<course>186.3</course>
<desc>Speed 4.9 km/h Distance 3.44 km</desc>
<time>2010-10-24T11:04:40.07</time>
<name>2091</name>
</trkpt>
<trkpt lat="48.953062" lon="8.643157">
<ele>268.5</ele>
<speed>1.50</speed>
<course>158.5</course>
<desc>Speed 5.4 km/h Distance 3.44 km</desc>
<time>2010-10-24T11:04:41.07</time>
<name>2092</name>
</trkpt>
<trkpt lat="48.953053" lon="8.643162">
<ele>269.5</ele>
<speed>1.15</speed>
<course>176.3</course>
<desc>Speed 4.1 km/h Distance 3.44 km</desc>
<time>2010-10-24T11:04:42.07</time>
<name>2093</name>
</trkpt>
<trkpt lat="48.953035" lon="8.643163">
<ele>268.5</ele>
<speed>1.71</speed>
<course>172.5</course>
<desc>Speed 6.2 km/h Distance 3.44 km</desc>
<time>2010-10-24T11:04:43.07</time>
<name>2094</name>
</trkpt>
<trkpt lat="48.953020" lon="8.643167">
<ele>268.5</ele>
<speed>1.50</speed>
<course>171.0</course>
<desc>Speed 5.4 km/h Distance 3.45 km</desc>
<time>2010-10-24T11:04:44.07</time>
<name>2095</name>
</trkpt>
<trkpt lat="48.953007" lon="8.643170">
<ele>269.0</ele>
<speed>1.50</speed>
<course>176.2</course>
<desc>Speed 5.4 km/h Distance 3.45 km</desc>
<time>2010-10-24T11:04:45.07</time>
<name>2096</name>
</trkpt>
<trkpt lat="48.952992" lon="8.643172">
<ele>268.5</ele>
<speed>1.35</speed>
<course>177.8</course>
<desc>Speed 4.9 km/h Distance 3.45 km</desc>
<time>2010-10-24T11:04:46.07</time>
<name>2097</name>
</trkpt>
<trkpt lat="48.952980" lon="8.643173">
<ele>269.0</ele>
<speed>1.33</speed>
<course>176.1</course>
<desc>Speed 4.8 km/h Distance 3.45 km</desc>
<time>2010-10-24T11:04:47.07</time>
<name>2098</name>
</trkpt>
<trkpt lat="48.952967" lon="8.643175">
<ele>269.0</ele>
<speed>1.37</speed>
<course>174.7</course>
<desc>Speed 4.9 km/h Distance 3.45 km</desc>
<time>2010-10-24T11:04:48.07</time>
<name>2099</name>
</trkpt>
<trkpt lat="48.952953" lon="8.643177">
<ele>269.0</ele>
<speed>1.25</speed>
<course>175.3</course>
<desc>Speed 4.5 km/h Distance 3.45 km</desc>
<time>2010-10-24T11:04:49.07</time>
<name>2100</name>
</trkpt>
<trkpt lat="48.952942" lon="8.643178">
<ele>269.0</ele>
<speed>1.29</speed>
<course>164.0</course>
<desc>Speed 4.6 km/h Distance 3.45 km</desc>
<time>2010-10-24T11:04:50.07</time>
<name>2101</name>
</trkpt>
<trkpt lat="48.952930" lon="8.643183">
<ele>269.5</ele>
<speed>1.27</speed>
<course>176.1</course>
<desc>Speed 4.6 km/h Distance 3.46 km</desc>
<time>2010-10-24T11:04:51.07</time>
<name>2102</name>
</trkpt>
<trkpt lat="48.952917" lon="8.643185">
<ele>269.0</ele>
<speed>1.47</speed>
<course>166.5</course>
<desc>Speed 5.3 km/h Distance 3.46 km</desc>
<time>2010-10-24T11:04:52.07</time>
<name>2103</name>
</trkpt>
<trkpt lat="48.952903" lon="8.643190">
<ele>269.0</ele>
<speed>1.42</speed>
<course>166.4</course>
<desc>Speed 5.1 km/h Distance 3.46 km</desc>
<time>2010-10-24T11:04:53.07</time>
<name>2104</name>
</trkpt>
<trkpt lat="48.952885" lon="8.643197">
<ele>268.5</ele>
<speed>1.54</speed>
<course>186.4</course>
<desc>Speed 5.5 km/h Distance 3.46 km</desc>
<time>2010-10-24T11:04:54.07</time>
<name>2105</name>
</trkpt>
<trkpt lat="48.952863" lon="8.643193">
<ele>267.0</ele>
<speed>2.47</speed>
<course>166.4</course>
<desc>Speed 8.9 km/h Distance 3.46 km</desc>
<time>2010-10-24T11:04:55.07</time>
<name>2106</name>
</trkpt>
<trkpt lat="48.952845" lon="8.643200">
<ele>266.5</ele>
<speed>1.77</speed>
<course>172.3</course>
<desc>Speed 6.4 km/h Distance 3.47 km</desc>
<time>2010-10-24T11:04:56.07</time>
<name>2107</name>
</trkpt>
<trkpt lat="48.952828" lon="8.643203">
<ele>266.0</ele>
<speed>1.61</speed>
<course>170.5</course>
<desc>Speed 5.8 km/h Distance 3.47 km</desc>
<time>2010-10-24T11:04:57.07</time>
<name>2108</name>
</trkpt>
<trkpt lat="48.952808" lon="8.643208">
<ele>265.5</ele>
<speed>2.07</speed>
<course>333.8</course>
<desc>Speed 7.5 km/h Distance 3.47 km</desc>
<time>2010-10-24T11:04:58.07</time>
<name>2109</name>
</trkpt>
<trkpt lat="48.952835" lon="8.643188">
<ele>265.0</ele>
<speed>3.70</speed>
<course>190.9</course>
<desc>Speed 13.3 km/h Distance 3.47 km</desc>
<time>2010-10-24T11:04:59.07</time>
<name>2110</name>
</trkpt>
<trkpt lat="48.952795" lon="8.643177">
<ele>265.0</ele>
<speed>4.36</speed>
<course>175.6</course>
<desc>Speed 15.7 km/h Distance 3.48 km</desc>
<time>2010-10-24T11:05:00.07</time>
<name>2111</name>
</trkpt>
<trkpt lat="48.952753" lon="8.643182">
<ele>262.0</ele>
<speed>2.21</speed>
<course>178.6</course>
<desc>Speed 8.0 km/h Distance 3.48 km</desc>
<time>2010-10-24T11:05:02.07</time>
<name>2112</name>
</trkpt>
<trkpt lat="48.952725" lon="8.643182">
<ele>260.5</ele>
<speed>1.99</speed>
<course>165.1</course>
<desc>Speed 7.2 km/h Distance 3.49 km</desc>
<time>2010-10-24T11:05:03.07</time>
<name>2113</name>
</trkpt>
<trkpt lat="48.952717" lon="8.643185">
<ele>261.0</ele>
<speed>1.04</speed>
<course>188.8</course>
<desc>Speed 3.7 km/h Distance 3.49 km</desc>
<time>2010-10-24T11:05:04.07</time>
<name>2114</name>
</trkpt>
<trkpt lat="48.952702" lon="8.643182">
<ele>260.5</ele>
<speed>1.55</speed>
<course>166.0</course>
<desc>Speed 5.6 km/h Distance 3.49 km</desc>
<time>2010-10-24T11:05:05.07</time>
<name>2115</name>
</trkpt>
<trkpt lat="48.952688" lon="8.643187">
<ele>260.0</ele>
<speed>1.54</speed>
<course>166.5</course>
<desc>Speed 5.5 km/h Distance 3.49 km</desc>
<time>2010-10-24T11:05:06.07</time>
<name>2116</name>
</trkpt>
<trkpt lat="48.952675" lon="8.643192">
<ele>260.0</ele>
<speed>1.46</speed>
<course>171.0</course>
<desc>Speed 5.3 km/h Distance 3.49 km</desc>
<time>2010-10-24T11:05:07.07</time>
<name>2117</name>
</trkpt>
<trkpt lat="48.952662" lon="8.643195">
<ele>259.5</ele>
<speed>1.34</speed>
<course>166.5</course>
<desc>Speed 4.8 km/h Distance 3.49 km</desc>
<time>2010-10-24T11:05:08.07</time>
<name>2118</name>
</trkpt>
<trkpt lat="48.952648" lon="8.643200">
<ele>259.5</ele>
<speed>1.50</speed>
<course>164.5</course>
<desc>Speed 5.4 km/h Distance 3.49 km</desc>
<time>2010-10-24T11:05:09.07</time>
<name>2119</name>
</trkpt>
<trkpt lat="48.952637" lon="8.643205">
<ele>259.5</ele>
<speed>1.50</speed>
<course>147.7</course>
<desc>Speed 5.4 km/h Distance 3.50 km</desc>
<time>2010-10-24T11:05:10.07</time>
<name>2120</name>
</trkpt>
<trkpt lat="48.952632" lon="8.643210">
<ele>260.0</ele>
<speed>0.80</speed>
<course>157.8</course>
<desc>Speed 2.9 km/h Distance 3.50 km</desc>
<time>2010-10-24T11:05:11.07</time>
<name>2121</name>
</trkpt>
<trkpt lat="48.952627" lon="8.643213">
<ele>260.0</ele>
<speed>0.73</speed>
<course>166.5</course>
<desc>Speed 2.6 km/h Distance 3.50 km</desc>
<time>2010-10-24T11:05:12.07</time>
<name>2122</name>
</trkpt>
<trkpt lat="48.952590" lon="8.643227">
<ele>261.0</ele>
<speed>1.19</speed>
<course>158.5</course>
<desc>Speed 4.3 km/h Distance 3.50 km</desc>
<time>2010-10-24T11:05:14.07</time>
<name>2123</name>
</trkpt>
<trkpt lat="48.952582" lon="8.643232">
<ele>261.0</ele>
<speed>0.98</speed>
<course>185.0</course>
<desc>Speed 3.5 km/h Distance 3.50 km</desc>
<time>2010-10-24T11:05:15.07</time>
<name>2124</name>
</trkpt>
<trkpt lat="48.952567" lon="8.643230">
<ele>260.0</ele>
<speed>0.68</speed>
<course>156.3</course>
<desc>Speed 2.4 km/h Distance 3.50 km</desc>
<time>2010-10-24T11:05:16.07</time>
<name>2125</name>
</trkpt>
<trkpt lat="48.952552" lon="8.643240">
<ele>260.0</ele>
<speed>1.78</speed>
<course>164.0</course>
<desc>Speed 6.4 km/h Distance 3.51 km</desc>
<time>2010-10-24T11:05:17.07</time>
<name>2126</name>
</trkpt>
<trkpt lat="48.952540" lon="8.643245">
<ele>260.0</ele>
<speed>1.04</speed>
<course>164.0</course>
<desc>Speed 3.7 km/h Distance 3.51 km</desc>
<time>2010-10-24T11:05:18.07</time>
<name>2127</name>
</trkpt>
<trkpt lat="48.952528" lon="8.643250">
<ele>260.0</ele>
<speed>1.33</speed>
<course>176.2</course>
<desc>Speed 4.8 km/h Distance 3.51 km</desc>
<time>2010-10-24T11:05:19.07</time>
<name>2128</name>
</trkpt>
<trkpt lat="48.952513" lon="8.643252">
<ele>259.0</ele>
<speed>1.04</speed>
<course>175.0</course>
<desc>Speed 3.7 km/h Distance 3.51 km</desc>
<time>2010-10-24T11:05:20.07</time>
<name>2129</name>
</trkpt>
<trkpt lat="48.952505" lon="8.643253">
<ele>258.0</ele>
<speed>0.89</speed>
<course>164.5</course>
<desc>Speed 3.2 km/h Distance 3.51 km</desc>
<time>2010-10-24T11:05:21.07</time>
<name>2130</name>
</trkpt>
<trkpt lat="48.952493" lon="8.643258">
<ele>257.5</ele>
<speed>1.25</speed>
<course>173.4</course>
<desc>Speed 4.5 km/h Distance 3.51 km</desc>
<time>2010-10-24T11:05:22.07</time>
<name>2131</name>
</trkpt>
<trkpt lat="48.952483" lon="8.643260">
<ele>257.0</ele>
<speed>1.00</speed>
<course>167.4</course>
<desc>Speed 3.6 km/h Distance 3.51 km</desc>
<time>2010-10-24T11:05:23.07</time>
<name>2132</name>
</trkpt>
<trkpt lat="48.952473" lon="8.643263">
<ele>256.5</ele>
<speed>0.87</speed>
<course>167.4</course>
<desc>Speed 3.1 km/h Distance 3.51 km</desc>
<time>2010-10-24T11:05:24.07</time>
<name>2133</name>
</trkpt>
<trkpt lat="48.952468" lon="8.643265">
<ele>255.5</ele>
<speed>0.60</speed>
<course>270.0</course>
<desc>Speed 2.2 km/h Distance 3.51 km</desc>
<time>2010-10-24T11:05:25.07</time>
<name>2134</name>
</trkpt>
<trkpt lat="48.952468" lon="8.643260">
<ele>255.0</ele>
<speed>0.43</speed>
<course>153.6</course>
<desc>Speed 1.5 km/h Distance 3.52 km</desc>
<time>2010-10-24T11:05:26.07</time>
<name>2135</name>
</trkpt>
<trkpt lat="48.952462" lon="8.643265">
<ele>254.0</ele>
<speed>0.87</speed>
<course>146.7</course>
<desc>Speed 3.1 km/h Distance 3.52 km</desc>
<time>2010-10-24T11:05:27.07</time>
<name>2136</name>
</trkpt>
<trkpt lat="48.952447" lon="8.643280">
<ele>254.0</ele>
<speed>1.67</speed>
<course>178.8</course>
<desc>Speed 6.0 km/h Distance 3.52 km</desc>
<time>2010-10-24T11:05:28.07</time>
<name>2137</name>
</trkpt>
<trkpt lat="48.952440" lon="8.643280">
<ele>252.5</ele>
<speed>0.67</speed>
<course>149.7</course>
<desc>Speed 2.4 km/h Distance 3.52 km</desc>
<time>2010-10-24T11:05:29.07</time>
<name>2138</name>
</trkpt>
<trkpt lat="48.952425" lon="8.643293">
<ele>252.0</ele>
<speed>1.60</speed>
<course>139.1</course>
<desc>Speed 5.8 km/h Distance 3.52 km</desc>
<time>2010-10-24T11:05:30.07</time>
<name>2139</name>
</trkpt>
<trkpt lat="48.952420" lon="8.643300">
<ele>252.0</ele>
<speed>0.58</speed>
<course>121.3</course>
<desc>Speed 2.1 km/h Distance 3.52 km</desc>
<time>2010-10-24T11:05:31.07</time>
<name>2140</name>
</trkpt>
<trkpt lat="48.952413" lon="8.643317">
<ele>252.5</ele>
<speed>1.25</speed>
<course>161.8</course>
<desc>Speed 4.5 km/h Distance 3.52 km</desc>
<time>2010-10-24T11:05:32.07</time>
<name>2141</name>
</trkpt>
<trkpt lat="48.952403" lon="8.643322">
<ele>251.0</ele>
<speed>0.98</speed>
<course>152.1</course>
<desc>Speed 3.5 km/h Distance 3.52 km</desc>
<time>2010-10-24T11:05:33.07</time>
<name>2142</name>
</trkpt>
<trkpt lat="48.952395" lon="8.643328">
<ele>249.5</ele>
<speed>0.82</speed>
<course>130.3</course>
<desc>Speed 3.0 km/h Distance 3.53 km</desc>
<time>2010-10-24T11:05:34.07</time>
<name>2143</name>
</trkpt>
<trkpt lat="48.952387" lon="8.643343">
<ele>250.0</ele>
<speed>1.53</speed>
<course>153.6</course>
<desc>Speed 5.5 km/h Distance 3.53 km</desc>
<time>2010-10-24T11:05:35.07</time>
<name>2144</name>
</trkpt>
<trkpt lat="48.952380" lon="8.643348">
<ele>248.5</ele>
<speed>0.57</speed>
<course>146.3</course>
<desc>Speed 2.1 km/h Distance 3.53 km</desc>
<time>2010-10-24T11:05:36.07</time>
<name>2145</name>
</trkpt>
<trkpt lat="48.952373" lon="8.643355">
<ele>247.0</ele>
<speed>0.77</speed>
<course>104.2</course>
<desc>Speed 2.8 km/h Distance 3.53 km</desc>
<time>2010-10-24T11:05:37.07</time>
<name>2146</name>
</trkpt>
<trkpt lat="48.952370" lon="8.643375">
<ele>247.0</ele>
<speed>0.68</speed>
<course>79.2</course>
<desc>Speed 2.4 km/h Distance 3.53 km</desc>
<time>2010-10-24T11:05:38.07</time>
<name>2147</name>
</trkpt>
<trkpt lat="48.952372" lon="8.643388">
<ele>246.5</ele>
<speed>0.95</speed>
<course>119.0</course>
<desc>Speed 3.4 km/h Distance 3.53 km</desc>
<time>2010-10-24T11:05:39.07</time>
<name>2148</name>
</trkpt>
<trkpt lat="48.952365" lon="8.643407">
<ele>246.5</ele>
<speed>1.24</speed>
<course>107.1</course>
<desc>Speed 4.5 km/h Distance 3.53 km</desc>
<time>2010-10-24T11:05:40.07</time>
<name>2149</name>
</trkpt>
<trkpt lat="48.952363" lon="8.643415">
<ele>246.0</ele>
<speed>0.44</speed>
<course>117.0</course>
<desc>Speed 1.6 km/h Distance 3.53 km</desc>
<time>2010-10-24T11:05:41.07</time>
<name>2150</name>
</trkpt>
<trkpt lat="48.952360" lon="8.643425">
<ele>245.0</ele>
<speed>0.54</speed>
<course>124.7</course>
<desc>Speed 1.9 km/h Distance 3.53 km</desc>
<time>2010-10-24T11:05:42.07</time>
<name>2151</name>
</trkpt>
<trkpt lat="48.952352" lon="8.643443">
<ele>245.5</ele>
<speed>1.69</speed>
<course>138.8</course>
<desc>Speed 6.1 km/h Distance 3.54 km</desc>
<time>2010-10-24T11:05:43.07</time>
<name>2152</name>
</trkpt>
<trkpt lat="48.952342" lon="8.643457">
<ele>244.5</ele>
<speed>0.98</speed>
<course>135.4</course>
<desc>Speed 3.5 km/h Distance 3.54 km</desc>
<time>2010-10-24T11:05:44.07</time>
<name>2153</name>
</trkpt>
<trkpt lat="48.952332" lon="8.643472">
<ele>244.0</ele>
<speed>1.23</speed>
<course>130.3</course>
<desc>Speed 4.4 km/h Distance 3.54 km</desc>
<time>2010-10-24T11:05:45.07</time>
<name>2154</name>
</trkpt>
<trkpt lat="48.952323" lon="8.643487">
<ele>243.5</ele>
<speed>1.19</speed>
<course>141.0</course>
<desc>Speed 4.3 km/h Distance 3.54 km</desc>
<time>2010-10-24T11:05:46.07</time>
<name>2155</name>
</trkpt>
<trkpt lat="48.952317" lon="8.643495">
<ele>243.0</ele>
<speed>0.89</speed>
<course>137.5</course>
<desc>Speed 3.2 km/h Distance 3.54 km</desc>
<time>2010-10-24T11:05:47.07</time>
<name>2156</name>
</trkpt>
<trkpt lat="48.952308" lon="8.643507">
<ele>242.5</ele>
<speed>0.97</speed>
<course>117.0</course>
<desc>Speed 3.5 km/h Distance 3.54 km</desc>
<time>2010-10-24T11:05:48.07</time>
<name>2157</name>
</trkpt>
<trkpt lat="48.952305" lon="8.643517">
<ele>242.5</ele>
<speed>0.85</speed>
<course>146.7</course>
<desc>Speed 3.1 km/h Distance 3.54 km</desc>
<time>2010-10-24T11:05:49.07</time>
<name>2158</name>
</trkpt>
<trkpt lat="48.952272" lon="8.643550">
<ele>242.5</ele>
<speed>1.33</speed>
<course>162.4</course>
<desc>Speed 4.8 km/h Distance 3.55 km</desc>
<time>2010-10-24T11:05:51.07</time>
<name>2159</name>
</trkpt>
<trkpt lat="48.952262" lon="8.643555">
<ele>242.0</ele>
<speed>1.10</speed>
<course>159.4</course>
<desc>Speed 4.0 km/h Distance 3.55 km</desc>
<time>2010-10-24T11:05:52.07</time>
<name>2160</name>
</trkpt>
<trkpt lat="48.952250" lon="8.643562">
<ele>241.0</ele>
<speed>0.98</speed>
<course>153.6</course>
<desc>Speed 3.5 km/h Distance 3.55 km</desc>
<time>2010-10-24T11:05:53.07</time>
<name>2161</name>
</trkpt>
<trkpt lat="48.952243" lon="8.643567">
<ele>241.0</ele>
<speed>0.66</speed>
<course>163.4</course>
<desc>Speed 2.4 km/h Distance 3.55 km</desc>
<time>2010-10-24T11:05:54.07</time>
<name>2162</name>
</trkpt>
<trkpt lat="48.952228" lon="8.643573">
<ele>240.0</ele>
<speed>1.37</speed>
<course>161.9</course>
<desc>Speed 4.9 km/h Distance 3.55 km</desc>
<time>2010-10-24T11:05:55.07</time>
<name>2163</name>
</trkpt>
<trkpt lat="48.952215" lon="8.643580">
<ele>240.5</ele>
<speed>1.07</speed>
<course>152.7</course>
<desc>Speed 3.9 km/h Distance 3.55 km</desc>
<time>2010-10-24T11:05:56.07</time>
<name>2164</name>
</trkpt>
<trkpt lat="48.952192" lon="8.643598">
<ele>241.5</ele>
<speed>1.98</speed>
<course>152.3</course>
<desc>Speed 7.1 km/h Distance 3.56 km</desc>
<time>2010-10-24T11:05:57.07</time>
<name>2165</name>
</trkpt>
<trkpt lat="48.952175" lon="8.643612">
<ele>241.5</ele>
<speed>1.20</speed>
<course>149.4</course>
<desc>Speed 4.3 km/h Distance 3.56 km</desc>
<time>2010-10-24T11:05:58.07</time>
<name>2166</name>
</trkpt>
<trkpt lat="48.952158" lon="8.643627">
<ele>242.0</ele>
<speed>1.25</speed>
<course>153.8</course>
<desc>Speed 4.5 km/h Distance 3.56 km</desc>
<time>2010-10-24T11:05:59.07</time>
<name>2167</name>
</trkpt>
<trkpt lat="48.952138" lon="8.643642">
<ele>242.0</ele>
<speed>1.51</speed>
<course>154.8</course>
<desc>Speed 5.4 km/h Distance 3.56 km</desc>
<time>2010-10-24T11:06:00.07</time>
<name>2168</name>
</trkpt>
<trkpt lat="48.952127" lon="8.643650">
<ele>242.5</ele>
<speed>1.15</speed>
<course>171.0</course>
<desc>Speed 4.1 km/h Distance 3.57 km</desc>
<time>2010-10-24T11:06:01.07</time>
<name>2169</name>
</trkpt>
<trkpt lat="48.952113" lon="8.643653">
<ele>242.5</ele>
<speed>1.23</speed>
<course>161.9</course>
<desc>Speed 4.4 km/h Distance 3.57 km</desc>
<time>2010-10-24T11:06:02.07</time>
<name>2170</name>
</trkpt>
<trkpt lat="48.952100" lon="8.643660">
<ele>242.5</ele>
<speed>1.26</speed>
<course>163.7</course>
<desc>Speed 4.5 km/h Distance 3.57 km</desc>
<time>2010-10-24T11:06:03.07</time>
<name>2171</name>
</trkpt>
<trkpt lat="48.952085" lon="8.643667">
<ele>243.0</ele>
<speed>1.27</speed>
<course>163.4</course>
<desc>Speed 4.6 km/h Distance 3.57 km</desc>
<time>2010-10-24T11:06:04.07</time>
<name>2172</name>
</trkpt>
<trkpt lat="48.952070" lon="8.643673">
<ele>243.5</ele>
<speed>1.37</speed>
<course>157.7</course>
<desc>Speed 4.9 km/h Distance 3.57 km</desc>
<time>2010-10-24T11:06:05.07</time>
<name>2173</name>
</trkpt>
<trkpt lat="48.952057" lon="8.643682">
<ele>244.5</ele>
<speed>1.28</speed>
<course>163.7</course>
<desc>Speed 4.6 km/h Distance 3.57 km</desc>
<time>2010-10-24T11:06:06.07</time>
<name>2174</name>
</trkpt>
<trkpt lat="48.952042" lon="8.643688">
<ele>244.5</ele>
<speed>1.51</speed>
<course>167.4</course>
<desc>Speed 5.4 km/h Distance 3.57 km</desc>
<time>2010-10-24T11:06:07.07</time>
<name>2175</name>
</trkpt>
<trkpt lat="48.952027" lon="8.643693">
<ele>245.0</ele>
<speed>1.36</speed>
<course>154.0</course>
<desc>Speed 4.9 km/h Distance 3.58 km</desc>
<time>2010-10-24T11:06:08.07</time>
<name>2176</name>
</trkpt>
<trkpt lat="48.952013" lon="8.643703">
<ele>245.5</ele>
<speed>1.30</speed>
<course>161.9</course>
<desc>Speed 4.7 km/h Distance 3.58 km</desc>
<time>2010-10-24T11:06:09.07</time>
<name>2177</name>
</trkpt>
<trkpt lat="48.952000" lon="8.643710">
<ele>246.0</ele>
<speed>1.37</speed>
<course>161.9</course>
<desc>Speed 4.9 km/h Distance 3.58 km</desc>
<time>2010-10-24T11:06:10.07</time>
<name>2178</name>
</trkpt>
<trkpt lat="48.951987" lon="8.643717">
<ele>246.0</ele>
<speed>1.45</speed>
<course>156.2</course>
<desc>Speed 5.2 km/h Distance 3.58 km</desc>
<time>2010-10-24T11:06:11.07</time>
<name>2179</name>
</trkpt>
<trkpt lat="48.951977" lon="8.643723">
<ele>246.0</ele>
<speed>1.02</speed>
<course>163.4</course>
<desc>Speed 3.7 km/h Distance 3.58 km</desc>
<time>2010-10-24T11:06:12.07</time>
<name>2180</name>
</trkpt>
<trkpt lat="48.951962" lon="8.643730">
<ele>246.5</ele>
<speed>1.37</speed>
<course>159.1</course>
<desc>Speed 4.9 km/h Distance 3.58 km</desc>
<time>2010-10-24T11:06:13.07</time>
<name>2181</name>
</trkpt>
<trkpt lat="48.951950" lon="8.643737">
<ele>246.5</ele>
<speed>0.98</speed>
<course>161.9</course>
<desc>Speed 3.5 km/h Distance 3.59 km</desc>
<time>2010-10-24T11:06:14.07</time>
<name>2182</name>
</trkpt>
<trkpt lat="48.951937" lon="8.643743">
<ele>247.0</ele>
<speed>1.14</speed>
<course>156.2</course>
<desc>Speed 4.1 km/h Distance 3.59 km</desc>
<time>2010-10-24T11:06:15.07</time>
<name>2183</name>
</trkpt>
<trkpt lat="48.951927" lon="8.643750">
<ele>247.5</ele>
<speed>1.01</speed>
<course>164.0</course>
<desc>Speed 3.6 km/h Distance 3.59 km</desc>
<time>2010-10-24T11:06:16.07</time>
<name>2184</name>
</trkpt>
<trkpt lat="48.951912" lon="8.643757">
<ele>247.5</ele>
<speed>1.22</speed>
<course>180.0</course>
<desc>Speed 4.4 km/h Distance 3.59 km</desc>
<time>2010-10-24T11:06:17.07</time>
<name>2185</name>
</trkpt>
<trkpt lat="48.951900" lon="8.643757">
<ele>247.0</ele>
<speed>1.19</speed>
<course>165.4</course>
<desc>Speed 4.3 km/h Distance 3.59 km</desc>
<time>2010-10-24T11:06:18.07</time>
<name>2186</name>
</trkpt>
<trkpt lat="48.951883" lon="8.643763">
<ele>247.5</ele>
<speed>1.46</speed>
<course>175.6</course>
<desc>Speed 5.3 km/h Distance 3.59 km</desc>
<time>2010-10-24T11:06:19.07</time>
<name>2187</name>
</trkpt>
<trkpt lat="48.951873" lon="8.643763">
<ele>246.5</ele>
<speed>0.94</speed>
<course>168.8</course>
<desc>Speed 3.4 km/h Distance 3.59 km</desc>
<time>2010-10-24T11:06:20.07</time>
<name>2188</name>
</trkpt>
<trkpt lat="48.951862" lon="8.643767">
<ele>246.5</ele>
<speed>0.99</speed>
<course>155.4</course>
<desc>Speed 3.6 km/h Distance 3.60 km</desc>
<time>2010-10-24T11:06:21.07</time>
<name>2189</name>
</trkpt>
<trkpt lat="48.951845" lon="8.643778">
<ele>247.0</ele>
<speed>1.47</speed>
<course>152.1</course>
<desc>Speed 5.3 km/h Distance 3.60 km</desc>
<time>2010-10-24T11:06:22.07</time>
<name>2190</name>
</trkpt>
<trkpt lat="48.951837" lon="8.643785">
<ele>247.5</ele>
<speed>1.14</speed>
<course>165.1</course>
<desc>Speed 4.1 km/h Distance 3.60 km</desc>
<time>2010-10-24T11:06:23.07</time>
<name>2191</name>
</trkpt>
<trkpt lat="48.951820" lon="8.643792">
<ele>247.5</ele>
<speed>1.80</speed>
<course>157.3</course>
<desc>Speed 6.5 km/h Distance 3.60 km</desc>
<time>2010-10-24T11:06:24.07</time>
<name>2192</name>
</trkpt>
<trkpt lat="48.951802" lon="8.643803">
<ele>249.0</ele>
<speed>1.88</speed>
<course>168.8</course>
<desc>Speed 6.8 km/h Distance 3.60 km</desc>
<time>2010-10-24T11:06:25.07</time>
<name>2193</name>
</trkpt>
<trkpt lat="48.951785" lon="8.643808">
<ele>249.5</ele>
<speed>1.51</speed>
<course>156.3</course>
<desc>Speed 5.4 km/h Distance 3.61 km</desc>
<time>2010-10-24T11:06:26.07</time>
<name>2194</name>
</trkpt>
<trkpt lat="48.951770" lon="8.643818">
<ele>250.0</ele>
<speed>1.45</speed>
<course>164.5</course>
<desc>Speed 5.2 km/h Distance 3.61 km</desc>
<time>2010-10-24T11:06:27.07</time>
<name>2195</name>
</trkpt>
<trkpt lat="48.951758" lon="8.643823">
<ele>249.5</ele>
<speed>1.17</speed>
<course>144.6</course>
<desc>Speed 4.2 km/h Distance 3.61 km</desc>
<time>2010-10-24T11:06:28.07</time>
<name>2196</name>
</trkpt>
<trkpt lat="48.951738" lon="8.643845">
<ele>251.0</ele>
<speed>1.26</speed>
<course>165.1</course>
<desc>Speed 4.5 km/h Distance 3.61 km</desc>
<time>2010-10-24T11:06:29.07</time>
<name>2197</name>
</trkpt>
<trkpt lat="48.951722" lon="8.643852">
<ele>251.0</ele>
<speed>1.62</speed>
<course>161.9</course>
<desc>Speed 5.8 km/h Distance 3.61 km</desc>
<time>2010-10-24T11:06:30.07</time>
<name>2198</name>
</trkpt>
<trkpt lat="48.951708" lon="8.643858">
<ele>251.5</ele>
<speed>1.23</speed>
<course>166.5</course>
<desc>Speed 4.4 km/h Distance 3.61 km</desc>
<time>2010-10-24T11:06:31.07</time>
<name>2199</name>
</trkpt>
<trkpt lat="48.951695" lon="8.643863">
<ele>251.5</ele>
<speed>1.17</speed>
<course>157.9</course>
<desc>Speed 4.2 km/h Distance 3.62 km</desc>
<time>2010-10-24T11:06:32.07</time>
<name>2200</name>
</trkpt>
<trkpt lat="48.951682" lon="8.643872">
<ele>251.5</ele>
<speed>1.32</speed>
<course>163.7</course>
<desc>Speed 4.8 km/h Distance 3.62 km</desc>
<time>2010-10-24T11:06:33.07</time>
<name>2201</name>
</trkpt>
<trkpt lat="48.951667" lon="8.643878">
<ele>252.0</ele>
<speed>1.51</speed>
<course>165.1</course>
<desc>Speed 5.4 km/h Distance 3.62 km</desc>
<time>2010-10-24T11:06:34.07</time>
<name>2202</name>
</trkpt>
<trkpt lat="48.951650" lon="8.643885">
<ele>252.0</ele>
<speed>1.49</speed>
<course>166.0</course>
<desc>Speed 5.4 km/h Distance 3.62 km</desc>
<time>2010-10-24T11:06:35.07</time>
<name>2203</name>
</trkpt>
<trkpt lat="48.951637" lon="8.643890">
<ele>252.0</ele>
<speed>1.15</speed>
<course>171.9</course>
<desc>Speed 4.1 km/h Distance 3.62 km</desc>
<time>2010-10-24T11:06:36.07</time>
<name>2204</name>
</trkpt>
<trkpt lat="48.951622" lon="8.643893">
<ele>252.0</ele>
<speed>1.25</speed>
<course>165.4</course>
<desc>Speed 4.5 km/h Distance 3.62 km</desc>
<time>2010-10-24T11:06:37.07</time>
<name>2205</name>
</trkpt>
<trkpt lat="48.951605" lon="8.643900">
<ele>252.0</ele>
<speed>1.46</speed>
<course>167.4</course>
<desc>Speed 5.3 km/h Distance 3.63 km</desc>
<time>2010-10-24T11:06:38.07</time>
<name>2206</name>
</trkpt>
<trkpt lat="48.951590" lon="8.643905">
<ele>252.0</ele>
<speed>1.37</speed>
<course>171.0</course>
<desc>Speed 4.9 km/h Distance 3.63 km</desc>
<time>2010-10-24T11:06:39.07</time>
<name>2207</name>
</trkpt>
<trkpt lat="48.951577" lon="8.643908">
<ele>252.0</ele>
<speed>1.36</speed>
<course>176.1</course>
<desc>Speed 4.9 km/h Distance 3.63 km</desc>
<time>2010-10-24T11:06:40.07</time>
<name>2208</name>
</trkpt>
<trkpt lat="48.951563" lon="8.643910">
<ele>252.0</ele>
<speed>1.32</speed>
<course>161.9</course>
<desc>Speed 4.8 km/h Distance 3.63 km</desc>
<time>2010-10-24T11:06:41.07</time>
<name>2209</name>
</trkpt>
<trkpt lat="48.951550" lon="8.643917">
<ele>251.5</ele>
<speed>1.48</speed>
<course>164.8</course>
<desc>Speed 5.3 km/h Distance 3.63 km</desc>
<time>2010-10-24T11:06:42.07</time>
<name>2210</name>
</trkpt>
<trkpt lat="48.951530" lon="8.643925">
<ele>252.0</ele>
<speed>1.86</speed>
<course>165.1</course>
<desc>Speed 6.7 km/h Distance 3.63 km</desc>
<time>2010-10-24T11:06:43.07</time>
<name>2211</name>
</trkpt>
<trkpt lat="48.951518" lon="8.643930">
<ele>252.0</ele>
<speed>1.14</speed>
<course>166.5</course>
<desc>Speed 4.1 km/h Distance 3.64 km</desc>
<time>2010-10-24T11:06:44.07</time>
<name>2212</name>
</trkpt>
<trkpt lat="48.951505" lon="8.643935">
<ele>252.0</ele>
<speed>1.23</speed>
<course>159.8</course>
<desc>Speed 4.4 km/h Distance 3.64 km</desc>
<time>2010-10-24T11:06:45.07</time>
<name>2213</name>
</trkpt>
<trkpt lat="48.951493" lon="8.643942">
<ele>252.5</ele>
<speed>0.95</speed>
<course>161.9</course>
<desc>Speed 3.4 km/h Distance 3.64 km</desc>
<time>2010-10-24T11:06:46.07</time>
<name>2214</name>
</trkpt>
<trkpt lat="48.951480" lon="8.643948">
<ele>252.5</ele>
<speed>1.34</speed>
<course>156.2</course>
<desc>Speed 4.8 km/h Distance 3.64 km</desc>
<time>2010-10-24T11:06:47.07</time>
<name>2215</name>
</trkpt>
<trkpt lat="48.951470" lon="8.643955">
<ele>253.0</ele>
<speed>1.13</speed>
<course>161.6</course>
<desc>Speed 4.1 km/h Distance 3.64 km</desc>
<time>2010-10-24T11:06:48.07</time>
<name>2216</name>
</trkpt>
<trkpt lat="48.951457" lon="8.643962">
<ele>253.0</ele>
<speed>1.29</speed>
<course>170.5</course>
<desc>Speed 4.6 km/h Distance 3.64 km</desc>
<time>2010-10-24T11:06:49.07</time>
<name>2217</name>
</trkpt>
<trkpt lat="48.951445" lon="8.643965">
<ele>253.5</ele>
<speed>1.17</speed>
<course>167.8</course>
<desc>Speed 4.2 km/h Distance 3.64 km</desc>
<time>2010-10-24T11:06:50.07</time>
<name>2218</name>
</trkpt>
<trkpt lat="48.951430" lon="8.643970">
<ele>254.0</ele>
<speed>1.41</speed>
<course>168.8</course>
<desc>Speed 5.1 km/h Distance 3.65 km</desc>
<time>2010-10-24T11:06:51.07</time>
<name>2219</name>
</trkpt>
<trkpt lat="48.951418" lon="8.643973">
<ele>254.0</ele>
<speed>1.19</speed>
<course>166.5</course>
<desc>Speed 4.3 km/h Distance 3.65 km</desc>
<time>2010-10-24T11:06:52.07</time>
<name>2220</name>
</trkpt>
<trkpt lat="48.951405" lon="8.643978">
<ele>254.5</ele>
<speed>1.35</speed>
<course>162.5</course>
<desc>Speed 4.9 km/h Distance 3.65 km</desc>
<time>2010-10-24T11:06:53.07</time>
<name>2221</name>
</trkpt>
<trkpt lat="48.951398" lon="8.643982">
<ele>254.5</ele>
<speed>0.68</speed>
<course>164.5</course>
<desc>Speed 2.4 km/h Distance 3.65 km</desc>
<time>2010-10-24T11:06:54.07</time>
<name>2222</name>
</trkpt>
<trkpt lat="48.951387" lon="8.643987">
<ele>254.5</ele>
<speed>1.24</speed>
<course>175.3</course>
<desc>Speed 4.5 km/h Distance 3.65 km</desc>
<time>2010-10-24T11:06:55.07</time>
<name>2223</name>
</trkpt>
<trkpt lat="48.951375" lon="8.643988">
<ele>254.5</ele>
<speed>1.20</speed>
<course>171.0</course>
<desc>Speed 4.3 km/h Distance 3.65 km</desc>
<time>2010-10-24T11:06:56.07</time>
<name>2224</name>
</trkpt>
<trkpt lat="48.951362" lon="8.643992">
<ele>254.5</ele>
<speed>1.16</speed>
<course>152.3</course>
<desc>Speed 4.2 km/h Distance 3.65 km</desc>
<time>2010-10-24T11:06:57.07</time>
<name>2225</name>
</trkpt>
<trkpt lat="48.951345" lon="8.644005">
<ele>255.0</ele>
<speed>1.35</speed>
<course>165.1</course>
<desc>Speed 4.9 km/h Distance 3.66 km</desc>
<time>2010-10-24T11:06:58.07</time>
<name>2226</name>
</trkpt>
<trkpt lat="48.951337" lon="8.644008">
<ele>255.5</ele>
<speed>1.09</speed>
<course>168.8</course>
<desc>Speed 3.9 km/h Distance 3.66 km</desc>
<time>2010-10-24T11:06:59.07</time>
<name>2227</name>
</trkpt>
<trkpt lat="48.951320" lon="8.644013">
<ele>255.5</ele>
<speed>1.62</speed>
<course>171.0</course>
<desc>Speed 5.8 km/h Distance 3.66 km</desc>
<time>2010-10-24T11:07:00.07</time>
<name>2228</name>
</trkpt>
<trkpt lat="48.951307" lon="8.644017">
<ele>256.0</ele>
<speed>1.16</speed>
<course>166.5</course>
<desc>Speed 4.2 km/h Distance 3.66 km</desc>
<time>2010-10-24T11:07:01.07</time>
<name>2229</name>
</trkpt>
<trkpt lat="48.951293" lon="8.644022">
<ele>256.0</ele>
<speed>1.45</speed>
<course>161.9</course>
<desc>Speed 5.2 km/h Distance 3.66 km</desc>
<time>2010-10-24T11:07:02.07</time>
<name>2230</name>
</trkpt>
<trkpt lat="48.951280" lon="8.644028">
<ele>256.0</ele>
<speed>1.48</speed>
<course>154.8</course>
<desc>Speed 5.3 km/h Distance 3.66 km</desc>
<time>2010-10-24T11:07:03.07</time>
<name>2231</name>
</trkpt>
<trkpt lat="48.951268" lon="8.644037">
<ele>257.0</ele>
<speed>1.14</speed>
<course>159.4</course>
<desc>Speed 4.1 km/h Distance 3.67 km</desc>
<time>2010-10-24T11:07:04.07</time>
<name>2232</name>
</trkpt>
<trkpt lat="48.951257" lon="8.644043">
<ele>257.0</ele>
<speed>1.12</speed>
<course>166.0</course>
<desc>Speed 4.0 km/h Distance 3.67 km</desc>
<time>2010-10-24T11:07:05.07</time>
<name>2233</name>
</trkpt>
<trkpt lat="48.951243" lon="8.644048">
<ele>257.5</ele>
<speed>1.12</speed>
<course>159.9</course>
<desc>Speed 4.0 km/h Distance 3.67 km</desc>
<time>2010-10-24T11:07:06.07</time>
<name>2234</name>
</trkpt>
<trkpt lat="48.951228" lon="8.644057">
<ele>258.0</ele>
<speed>1.38</speed>
<course>161.9</course>
<desc>Speed 5.0 km/h Distance 3.67 km</desc>
<time>2010-10-24T11:07:07.07</time>
<name>2235</name>
</trkpt>
<trkpt lat="48.951212" lon="8.644065">
<ele>258.5</ele>
<speed>1.61</speed>
<course>159.9</course>
<desc>Speed 5.8 km/h Distance 3.67 km</desc>
<time>2010-10-24T11:07:08.07</time>
<name>2236</name>
</trkpt>
<trkpt lat="48.951197" lon="8.644073">
<ele>258.5</ele>
<speed>1.44</speed>
<course>166.5</course>
<desc>Speed 5.2 km/h Distance 3.67 km</desc>
<time>2010-10-24T11:07:09.07</time>
<name>2237</name>
</trkpt>
<trkpt lat="48.951183" lon="8.644078">
<ele>258.5</ele>
<speed>1.17</speed>
<course>157.7</course>
<desc>Speed 4.2 km/h Distance 3.68 km</desc>
<time>2010-10-24T11:07:10.07</time>
<name>2238</name>
</trkpt>
<trkpt lat="48.951170" lon="8.644087">
<ele>259.0</ele>
<speed>1.16</speed>
<course>157.7</course>
<desc>Speed 4.2 km/h Distance 3.68 km</desc>
<time>2010-10-24T11:07:11.07</time>
<name>2239</name>
</trkpt>
<trkpt lat="48.951157" lon="8.644095">
<ele>259.0</ele>
<speed>1.15</speed>
<course>170.5</course>
<desc>Speed 4.1 km/h Distance 3.68 km</desc>
<time>2010-10-24T11:07:12.07</time>
<name>2240</name>
</trkpt>
<trkpt lat="48.951145" lon="8.644098">
<ele>259.5</ele>
<speed>1.25</speed>
<course>163.4</course>
<desc>Speed 4.5 km/h Distance 3.68 km</desc>
<time>2010-10-24T11:07:13.07</time>
<name>2241</name>
</trkpt>
<trkpt lat="48.951130" lon="8.644105">
<ele>260.0</ele>
<speed>1.37</speed>
<course>171.0</course>
<desc>Speed 4.9 km/h Distance 3.68 km</desc>
<time>2010-10-24T11:07:14.07</time>
<name>2242</name>
</trkpt>
<trkpt lat="48.951117" lon="8.644108">
<ele>260.0</ele>
<speed>1.24</speed>
<course>167.0</course>
<desc>Speed 4.5 km/h Distance 3.68 km</desc>
<time>2010-10-24T11:07:15.07</time>
<name>2243</name>
</trkpt>
<trkpt lat="48.951027" lon="8.644140">
<ele>261.5</ele>
<speed>1.57</speed>
<course>151.6</course>
<desc>Speed 5.7 km/h Distance 3.69 km</desc>
<time>2010-10-24T11:07:19.07</time>
<name>2244</name>
</trkpt>
<trkpt lat="48.951008" lon="8.644155">
<ele>262.0</ele>
<speed>1.21</speed>
<course>159.9</course>
<desc>Speed 4.4 km/h Distance 3.70 km</desc>
<time>2010-10-24T11:07:20.07</time>
<name>2245</name>
</trkpt>
<trkpt lat="48.950993" lon="8.644163">
<ele>262.5</ele>
<speed>1.36</speed>
<course>165.1</course>
<desc>Speed 4.9 km/h Distance 3.70 km</desc>
<time>2010-10-24T11:07:21.07</time>
<name>2246</name>
</trkpt>
<trkpt lat="48.950977" lon="8.644170">
<ele>262.5</ele>
<speed>1.69</speed>
<course>171.2</course>
<desc>Speed 6.1 km/h Distance 3.70 km</desc>
<time>2010-10-24T11:07:22.07</time>
<name>2247</name>
</trkpt>
<trkpt lat="48.950962" lon="8.644173">
<ele>263.0</ele>
<speed>1.48</speed>
<course>163.0</course>
<desc>Speed 5.3 km/h Distance 3.70 km</desc>
<time>2010-10-24T11:07:23.07</time>
<name>2248</name>
</trkpt>
<trkpt lat="48.950940" lon="8.644183">
<ele>263.0</ele>
<speed>1.74</speed>
<course>171.0</course>
<desc>Speed 6.3 km/h Distance 3.70 km</desc>
<time>2010-10-24T11:07:24.07</time>
<name>2249</name>
</trkpt>
<trkpt lat="48.950927" lon="8.644187">
<ele>263.0</ele>
<speed>1.27</speed>
<course>167.4</course>
<desc>Speed 4.6 km/h Distance 3.71 km</desc>
<time>2010-10-24T11:07:25.07</time>
<name>2250</name>
</trkpt>
<trkpt lat="48.950912" lon="8.644192">
<ele>263.0</ele>
<speed>1.57</speed>
<course>178.8</course>
<desc>Speed 5.7 km/h Distance 3.71 km</desc>
<time>2010-10-24T11:07:26.07</time>
<name>2251</name>
</trkpt>
<trkpt lat="48.950898" lon="8.644192">
<ele>263.0</ele>
<speed>1.35</speed>
<course>171.2</course>
<desc>Speed 4.9 km/h Distance 3.71 km</desc>
<time>2010-10-24T11:07:27.07</time>
<name>2252</name>
</trkpt>
<trkpt lat="48.950883" lon="8.644195">
<ele>263.5</ele>
<speed>1.44</speed>
<course>175.0</course>
<desc>Speed 5.2 km/h Distance 3.71 km</desc>
<time>2010-10-24T11:07:28.07</time>
<name>2253</name>
</trkpt>
<trkpt lat="48.950868" lon="8.644197">
<ele>263.5</ele>
<speed>1.50</speed>
<course>180.0</course>
<desc>Speed 5.4 km/h Distance 3.71 km</desc>
<time>2010-10-24T11:07:29.07</time>
<name>2254</name>
</trkpt>
<trkpt lat="48.950852" lon="8.644197">
<ele>263.5</ele>
<speed>1.50</speed>
<course>168.8</course>
<desc>Speed 5.4 km/h Distance 3.71 km</desc>
<time>2010-10-24T11:07:30.07</time>
<name>2255</name>
</trkpt>
<trkpt lat="48.950835" lon="8.644202">
<ele>263.5</ele>
<speed>1.50</speed>
<course>177.2</course>
<desc>Speed 5.4 km/h Distance 3.72 km</desc>
<time>2010-10-24T11:07:31.07</time>
<name>2256</name>
</trkpt>
<trkpt lat="48.950818" lon="8.644203">
<ele>263.5</ele>
<speed>1.30</speed>
<course>174.1</course>
<desc>Speed 4.7 km/h Distance 3.72 km</desc>
<time>2010-10-24T11:07:32.07</time>
<name>2257</name>
</trkpt>
<trkpt lat="48.950797" lon="8.644207">
<ele>263.5</ele>
<speed>1.65</speed>
<course>177.5</course>
<desc>Speed 5.9 km/h Distance 3.72 km</desc>
<time>2010-10-24T11:07:33.07</time>
<name>2258</name>
</trkpt>
<trkpt lat="48.950778" lon="8.644208">
<ele>262.5</ele>
<speed>1.26</speed>
<course>176.2</course>
<desc>Speed 4.5 km/h Distance 3.72 km</desc>
<time>2010-10-24T11:07:34.07</time>
<name>2259</name>
</trkpt>
<trkpt lat="48.950763" lon="8.644210">
<ele>262.5</ele>
<speed>1.32</speed>
<course>176.2</course>
<desc>Speed 4.8 km/h Distance 3.72 km</desc>
<time>2010-10-24T11:07:35.07</time>
<name>2260</name>
</trkpt>
<trkpt lat="48.950748" lon="8.644210">
<ele>262.5</ele>
<speed>1.28</speed>
<course>181.9</course>
<desc>Speed 4.6 km/h Distance 3.73 km</desc>
<time>2010-10-24T11:07:36.07</time>
<name>2261</name>
</trkpt>
<trkpt lat="48.950733" lon="8.644208">
<ele>262.0</ele>
<speed>1.23</speed>
<course>182.8</course>
<desc>Speed 4.4 km/h Distance 3.73 km</desc>
<time>2010-10-24T11:07:37.07</time>
<name>2262</name>
</trkpt>
<trkpt lat="48.950717" lon="8.644207">
<ele>261.5</ele>
<speed>1.25</speed>
<course>178.8</course>
<desc>Speed 4.5 km/h Distance 3.73 km</desc>
<time>2010-10-24T11:07:38.07</time>
<name>2263</name>
</trkpt>
<trkpt lat="48.950703" lon="8.644207">
<ele>262.0</ele>
<speed>1.25</speed>
<course>176.2</course>
<desc>Speed 4.5 km/h Distance 3.73 km</desc>
<time>2010-10-24T11:07:39.07</time>
<name>2264</name>
</trkpt>
<trkpt lat="48.950688" lon="8.644208">
<ele>262.0</ele>
<speed>1.32</speed>
<course>181.9</course>
<desc>Speed 4.8 km/h Distance 3.73 km</desc>
<time>2010-10-24T11:07:40.07</time>
<name>2265</name>
</trkpt>
<trkpt lat="48.950673" lon="8.644207">
<ele>262.0</ele>
<speed>1.32</speed>
<course>172.9</course>
<desc>Speed 4.8 km/h Distance 3.73 km</desc>
<time>2010-10-24T11:07:41.07</time>
<name>2266</name>
</trkpt>
<trkpt lat="48.950657" lon="8.644210">
<ele>261.5</ele>
<speed>1.39</speed>
<course>182.8</course>
<desc>Speed 5.0 km/h Distance 3.74 km</desc>
<time>2010-10-24T11:07:42.07</time>
<name>2267</name>
</trkpt>
<trkpt lat="48.950640" lon="8.644208">
<ele>261.0</ele>
<speed>1.34</speed>
<course>169.4</course>
<desc>Speed 4.8 km/h Distance 3.74 km</desc>
<time>2010-10-24T11:07:43.07</time>
<name>2268</name>
</trkpt>
<trkpt lat="48.950617" lon="8.644215">
<ele>261.5</ele>
<speed>1.50</speed>
<course>191.7</course>
<desc>Speed 5.4 km/h Distance 3.74 km</desc>
<time>2010-10-24T11:07:44.07</time>
<name>2269</name>
</trkpt>
<trkpt lat="48.950602" lon="8.644210">
<ele>260.5</ele>
<speed>1.25</speed>
<course>183.9</course>
<desc>Speed 4.5 km/h Distance 3.74 km</desc>
<time>2010-10-24T11:07:45.07</time>
<name>2270</name>
</trkpt>
<trkpt lat="48.950588" lon="8.644208">
<ele>260.5</ele>
<speed>1.37</speed>
<course>172.3</course>
<desc>Speed 4.9 km/h Distance 3.74 km</desc>
<time>2010-10-24T11:07:46.07</time>
<name>2271</name>
</trkpt>
<trkpt lat="48.950572" lon="8.644212">
<ele>261.0</ele>
<speed>1.23</speed>
<course>180.0</course>
<desc>Speed 4.4 km/h Distance 3.74 km</desc>
<time>2010-10-24T11:07:47.07</time>
<name>2272</name>
</trkpt>
<trkpt lat="48.950555" lon="8.644212">
<ele>261.0</ele>
<speed>1.51</speed>
<course>180.0</course>
<desc>Speed 5.4 km/h Distance 3.75 km</desc>
<time>2010-10-24T11:07:48.07</time>
<name>2273</name>
</trkpt>
<trkpt lat="48.950540" lon="8.644212">
<ele>261.0</ele>
<speed>1.36</speed>
<course>183.8</course>
<desc>Speed 4.9 km/h Distance 3.75 km</desc>
<time>2010-10-24T11:07:49.07</time>
<name>2274</name>
</trkpt>
<trkpt lat="48.950525" lon="8.644210">
<ele>261.0</ele>
<speed>1.26</speed>
<course>198.2</course>
<desc>Speed 4.5 km/h Distance 3.75 km</desc>
<time>2010-10-24T11:07:50.07</time>
<name>2275</name>
</trkpt>
<trkpt lat="48.950515" lon="8.644205">
<ele>261.0</ele>
<speed>0.98</speed>
<course>175.6</course>
<desc>Speed 3.5 km/h Distance 3.75 km</desc>
<time>2010-10-24T11:07:51.07</time>
<name>2276</name>
</trkpt>
<trkpt lat="48.950505" lon="8.644205">
<ele>261.5</ele>
<speed>1.15</speed>
<course>178.8</course>
<desc>Speed 4.1 km/h Distance 3.75 km</desc>
<time>2010-10-24T11:07:52.07</time>
<name>2277</name>
</trkpt>
<trkpt lat="48.950498" lon="8.644205">
<ele>261.5</ele>
<speed>0.64</speed>
<course>184.7</course>
<desc>Speed 2.3 km/h Distance 3.75 km</desc>
<time>2010-10-24T11:07:53.07</time>
<name>2278</name>
</trkpt>
<trkpt lat="48.950487" lon="8.644203">
<ele>261.5</ele>
<speed>1.00</speed>
<course>185.3</course>
<desc>Speed 3.6 km/h Distance 3.75 km</desc>
<time>2010-10-24T11:07:54.07</time>
<name>2279</name>
</trkpt>
<trkpt lat="48.950473" lon="8.644202">
<ele>261.5</ele>
<speed>1.40</speed>
<course>186.3</course>
<desc>Speed 5.0 km/h Distance 3.76 km</desc>
<time>2010-10-24T11:07:55.07</time>
<name>2280</name>
</trkpt>
<trkpt lat="48.950462" lon="8.644200">
<ele>262.0</ele>
<speed>1.24</speed>
<course>171.2</course>
<desc>Speed 4.5 km/h Distance 3.76 km</desc>
<time>2010-10-24T11:07:56.07</time>
<name>2281</name>
</trkpt>
<trkpt lat="48.950447" lon="8.644203">
<ele>262.5</ele>
<speed>1.57</speed>
<course>175.0</course>
<desc>Speed 5.7 km/h Distance 3.76 km</desc>
<time>2010-10-24T11:07:57.07</time>
<name>2282</name>
</trkpt>
<trkpt lat="48.950430" lon="8.644205">
<ele>263.5</ele>
<speed>1.69</speed>
<course>189.7</course>
<desc>Speed 6.1 km/h Distance 3.76 km</desc>
<time>2010-10-24T11:07:58.07</time>
<name>2283</name>
</trkpt>
<trkpt lat="48.950417" lon="8.644202">
<ele>263.0</ele>
<speed>1.28</speed>
<course>198.2</course>
<desc>Speed 4.6 km/h Distance 3.76 km</desc>
<time>2010-10-24T11:07:59.07</time>
<name>2284</name>
</trkpt>
<trkpt lat="48.950407" lon="8.644197">
<ele>262.5</ele>
<speed>1.03</speed>
<course>180.0</course>
<desc>Speed 3.7 km/h Distance 3.76 km</desc>
<time>2010-10-24T11:08:00.07</time>
<name>2285</name>
</trkpt>
<trkpt lat="48.950393" lon="8.644197">
<ele>262.5</ele>
<speed>1.36</speed>
<course>175.9</course>
<desc>Speed 4.9 km/h Distance 3.76 km</desc>
<time>2010-10-24T11:08:01.07</time>
<name>2286</name>
</trkpt>
<trkpt lat="48.950377" lon="8.644198">
<ele>262.5</ele>
<speed>1.50</speed>
<course>183.8</course>
<desc>Speed 5.4 km/h Distance 3.77 km</desc>
<time>2010-10-24T11:08:02.07</time>
<name>2287</name>
</trkpt>
<trkpt lat="48.950362" lon="8.644197">
<ele>262.5</ele>
<speed>1.46</speed>
<course>185.3</course>
<desc>Speed 5.3 km/h Distance 3.77 km</desc>
<time>2010-10-24T11:08:03.07</time>
<name>2288</name>
</trkpt>
<trkpt lat="48.950348" lon="8.644195">
<ele>263.0</ele>
<speed>1.23</speed>
<course>193.5</course>
<desc>Speed 4.4 km/h Distance 3.77 km</desc>
<time>2010-10-24T11:08:04.07</time>
<name>2289</name>
</trkpt>
<trkpt lat="48.950335" lon="8.644190">
<ele>262.5</ele>
<speed>1.36</speed>
<course>183.8</course>
<desc>Speed 4.9 km/h Distance 3.77 km</desc>
<time>2010-10-24T11:08:05.07</time>
<name>2290</name>
</trkpt>
<trkpt lat="48.950320" lon="8.644188">
<ele>262.5</ele>
<speed>1.46</speed>
<course>178.1</course>
<desc>Speed 5.3 km/h Distance 3.77 km</desc>
<time>2010-10-24T11:08:06.07</time>
<name>2291</name>
</trkpt>
<trkpt lat="48.950305" lon="8.644190">
<ele>263.5</ele>
<speed>1.55</speed>
<course>170.2</course>
<desc>Speed 5.6 km/h Distance 3.77 km</desc>
<time>2010-10-24T11:08:07.07</time>
<name>2292</name>
</trkpt>
<trkpt lat="48.950287" lon="8.644195">
<ele>263.5</ele>
<speed>1.50</speed>
<course>171.2</course>
<desc>Speed 5.4 km/h Distance 3.78 km</desc>
<time>2010-10-24T11:08:08.07</time>
<name>2293</name>
</trkpt>
<trkpt lat="48.950272" lon="8.644198">
<ele>264.0</ele>
<speed>1.37</speed>
<course>163.4</course>
<desc>Speed 4.9 km/h Distance 3.78 km</desc>
<time>2010-10-24T11:08:09.07</time>
<name>2294</name>
</trkpt>
<trkpt lat="48.950257" lon="8.644205">
<ele>264.5</ele>
<speed>1.41</speed>
<course>168.8</course>
<desc>Speed 5.1 km/h Distance 3.78 km</desc>
<time>2010-10-24T11:08:10.07</time>
<name>2295</name>
</trkpt>
<trkpt lat="48.950240" lon="8.644210">
<ele>265.0</ele>
<speed>1.58</speed>
<course>168.3</course>
<desc>Speed 5.7 km/h Distance 3.78 km</desc>
<time>2010-10-24T11:08:11.07</time>
<name>2296</name>
</trkpt>
<trkpt lat="48.950225" lon="8.644215">
<ele>265.5</ele>
<speed>1.44</speed>
<course>183.8</course>
<desc>Speed 5.2 km/h Distance 3.78 km</desc>
<time>2010-10-24T11:08:12.07</time>
<name>2297</name>
</trkpt>
<trkpt lat="48.950210" lon="8.644213">
<ele>265.5</ele>
<speed>1.54</speed>
<course>184.4</course>
<desc>Speed 5.5 km/h Distance 3.79 km</desc>
<time>2010-10-24T11:08:13.07</time>
<name>2298</name>
</trkpt>
<trkpt lat="48.950200" lon="8.644212">
<ele>265.5</ele>
<speed>1.12</speed>
<course>180.0</course>
<desc>Speed 4.0 km/h Distance 3.79 km</desc>
<time>2010-10-24T11:08:14.07</time>
<name>2299</name>
</trkpt>
<trkpt lat="48.950187" lon="8.644212">
<ele>266.0</ele>
<speed>1.16</speed>
<course>170.5</course>
<desc>Speed 4.2 km/h Distance 3.79 km</desc>
<time>2010-10-24T11:08:15.07</time>
<name>2300</name>
</trkpt>
<trkpt lat="48.950175" lon="8.644215">
<ele>266.5</ele>
<speed>1.13</speed>
<course>180.0</course>
<desc>Speed 4.1 km/h Distance 3.79 km</desc>
<time>2010-10-24T11:08:16.07</time>
<name>2301</name>
</trkpt>
<trkpt lat="48.950157" lon="8.644215">
<ele>266.0</ele>
<speed>1.87</speed>
<course>171.0</course>
<desc>Speed 6.7 km/h Distance 3.79 km</desc>
<time>2010-10-24T11:08:17.07</time>
<name>2302</name>
</trkpt>
<trkpt lat="48.950143" lon="8.644218">
<ele>266.0</ele>
<speed>1.40</speed>
<course>159.9</course>
<desc>Speed 5.0 km/h Distance 3.79 km</desc>
<time>2010-10-24T11:08:18.07</time>
<name>2303</name>
</trkpt>
<trkpt lat="48.950128" lon="8.644227">
<ele>266.5</ele>
<speed>1.53</speed>
<course>176.2</course>
<desc>Speed 5.5 km/h Distance 3.79 km</desc>
<time>2010-10-24T11:08:19.07</time>
<name>2304</name>
</trkpt>
<trkpt lat="48.950113" lon="8.644227">
<ele>266.0</ele>
<speed>1.49</speed>
<course>160.1</course>
<desc>Speed 5.4 km/h Distance 3.80 km</desc>
<time>2010-10-24T11:08:20.07</time>
<name>2305</name>
</trkpt>
<trkpt lat="48.950098" lon="8.644235">
<ele>266.5</ele>
<speed>1.30</speed>
<course>153.8</course>
<desc>Speed 4.7 km/h Distance 3.80 km</desc>
<time>2010-10-24T11:08:21.07</time>
<name>2306</name>
</trkpt>
<trkpt lat="48.950078" lon="8.644250">
<ele>267.5</ele>
<speed>1.28</speed>
<course>167.4</course>
<desc>Speed 4.6 km/h Distance 3.80 km</desc>
<time>2010-10-24T11:08:22.07</time>
<name>2307</name>
</trkpt>
<trkpt lat="48.950068" lon="8.644253">
<ele>268.0</ele>
<speed>0.99</speed>
<course>153.0</course>
<desc>Speed 3.6 km/h Distance 3.80 km</desc>
<time>2010-10-24T11:08:23.07</time>
<name>2308</name>
</trkpt>
<trkpt lat="48.950053" lon="8.644265">
<ele>268.5</ele>
<speed>1.30</speed>
<course>153.6</course>
<desc>Speed 4.7 km/h Distance 3.80 km</desc>
<time>2010-10-24T11:08:24.07</time>
<name>2309</name>
</trkpt>
<trkpt lat="48.950040" lon="8.644275">
<ele>269.0</ele>
<speed>1.10</speed>
<course>153.6</course>
<desc>Speed 4.0 km/h Distance 3.81 km</desc>
<time>2010-10-24T11:08:25.07</time>
<name>2310</name>
</trkpt>
<trkpt lat="48.950027" lon="8.644285">
<ele>270.5</ele>
<speed>0.97</speed>
<course>149.7</course>
<desc>Speed 3.5 km/h Distance 3.81 km</desc>
<time>2010-10-24T11:08:26.07</time>
<name>2311</name>
</trkpt>
<trkpt lat="48.950012" lon="8.644298">
<ele>271.5</ele>
<speed>1.37</speed>
<course>159.9</course>
<desc>Speed 4.9 km/h Distance 3.81 km</desc>
<time>2010-10-24T11:08:27.07</time>
<name>2312</name>
</trkpt>
<trkpt lat="48.949997" lon="8.644307">
<ele>271.5</ele>
<speed>1.25</speed>
<course>153.8</course>
<desc>Speed 4.5 km/h Distance 3.81 km</desc>
<time>2010-10-24T11:08:28.07</time>
<name>2313</name>
</trkpt>
<trkpt lat="48.949983" lon="8.644317">
<ele>272.0</ele>
<speed>1.14</speed>
<course>152.8</course>
<desc>Speed 4.1 km/h Distance 3.81 km</desc>
<time>2010-10-24T11:08:29.07</time>
<name>2314</name>
</trkpt>
<trkpt lat="48.949968" lon="8.644328">
<ele>272.0</ele>
<speed>1.37</speed>
<course>154.8</course>
<desc>Speed 4.9 km/h Distance 3.81 km</desc>
<time>2010-10-24T11:08:30.07</time>
<name>2315</name>
</trkpt>
<trkpt lat="48.949957" lon="8.644337">
<ele>272.5</ele>
<speed>1.36</speed>
<course>157.7</course>
<desc>Speed 4.9 km/h Distance 3.82 km</desc>
<time>2010-10-24T11:08:31.07</time>
<name>2316</name>
</trkpt>
<trkpt lat="48.949943" lon="8.644345">
<ele>273.0</ele>
<speed>1.40</speed>
<course>175.0</course>
<desc>Speed 5.0 km/h Distance 3.82 km</desc>
<time>2010-10-24T11:08:32.07</time>
<name>2317</name>
</trkpt>
<trkpt lat="48.949928" lon="8.644347">
<ele>273.0</ele>
<speed>1.45</speed>
<course>173.4</course>
<desc>Speed 5.2 km/h Distance 3.82 km</desc>
<time>2010-10-24T11:08:33.07</time>
<name>2318</name>
</trkpt>
<trkpt lat="48.949918" lon="8.644348">
<ele>273.0</ele>
<speed>1.10</speed>
<course>175.3</course>
<desc>Speed 4.0 km/h Distance 3.82 km</desc>
<time>2010-10-24T11:08:34.07</time>
<name>2319</name>
</trkpt>
<trkpt lat="48.949907" lon="8.644350">
<ele>272.5</ele>
<speed>1.19</speed>
<course>151.4</course>
<desc>Speed 4.3 km/h Distance 3.82 km</desc>
<time>2010-10-24T11:08:35.07</time>
<name>2320</name>
</trkpt>
<trkpt lat="48.949897" lon="8.644358">
<ele>272.5</ele>
<speed>1.12</speed>
<course>146.8</course>
<desc>Speed 4.0 km/h Distance 3.82 km</desc>
<time>2010-10-24T11:08:36.07</time>
<name>2321</name>
</trkpt>
<trkpt lat="48.949888" lon="8.644367">
<ele>273.0</ele>
<speed>0.86</speed>
<course>150.8</course>
<desc>Speed 3.1 km/h Distance 3.82 km</desc>
<time>2010-10-24T11:08:37.07</time>
<name>2322</name>
</trkpt>
<trkpt lat="48.949877" lon="8.644377">
<ele>273.0</ele>
<speed>1.37</speed>
<course>151.4</course>
<desc>Speed 4.9 km/h Distance 3.83 km</desc>
<time>2010-10-24T11:08:38.07</time>
<name>2323</name>
</trkpt>
<trkpt lat="48.949867" lon="8.644385">
<ele>273.0</ele>
<speed>1.37</speed>
<course>130.9</course>
<desc>Speed 4.9 km/h Distance 3.83 km</desc>
<time>2010-10-24T11:08:39.07</time>
<name>2324</name>
</trkpt>
<trkpt lat="48.949860" lon="8.644397">
<ele>273.5</ele>
<speed>0.95</speed>
<course>141.9</course>
<desc>Speed 3.4 km/h Distance 3.83 km</desc>
<time>2010-10-24T11:08:40.07</time>
<name>2325</name>
</trkpt>
<trkpt lat="48.949852" lon="8.644407">
<ele>274.0</ele>
<speed>1.03</speed>
<course>146.9</course>
<desc>Speed 3.7 km/h Distance 3.83 km</desc>
<time>2010-10-24T11:08:41.07</time>
<name>2326</name>
</trkpt>
<trkpt lat="48.949840" lon="8.644418">
<ele>274.5</ele>
<speed>1.25</speed>
<course>151.4</course>
<desc>Speed 4.5 km/h Distance 3.83 km</desc>
<time>2010-10-24T11:08:42.07</time>
<name>2327</name>
</trkpt>
<trkpt lat="48.949830" lon="8.644427">
<ele>275.5</ele>
<speed>1.02</speed>
<course>150.0</course>
<desc>Speed 3.7 km/h Distance 3.83 km</desc>
<time>2010-10-24T11:08:43.07</time>
<name>2328</name>
</trkpt>
<trkpt lat="48.949817" lon="8.644438">
<ele>275.5</ele>
<speed>1.15</speed>
<course>159.9</course>
<desc>Speed 4.1 km/h Distance 3.83 km</desc>
<time>2010-10-24T11:08:44.07</time>
<name>2329</name>
</trkpt>
<trkpt lat="48.949802" lon="8.644447">
<ele>275.5</ele>
<speed>1.60</speed>
<course>131.1</course>
<desc>Speed 5.8 km/h Distance 3.84 km</desc>
<time>2010-10-24T11:08:45.07</time>
<name>2330</name>
</trkpt>
<trkpt lat="48.949795" lon="8.644458">
<ele>276.5</ele>
<speed>0.93</speed>
<course>171.3</course>
<desc>Speed 3.3 km/h Distance 3.84 km</desc>
<time>2010-10-24T11:08:46.07</time>
<name>2331</name>
</trkpt>
<trkpt lat="48.949773" lon="8.644463">
<ele>275.5</ele>
<speed>2.30</speed>
<course>137.4</course>
<desc>Speed 8.3 km/h Distance 3.84 km</desc>
<time>2010-10-24T11:08:47.07</time>
<name>2332</name>
</trkpt>
<trkpt lat="48.949765" lon="8.644475">
<ele>277.0</ele>
<speed>1.26</speed>
<course>156.7</course>
<desc>Speed 4.5 km/h Distance 3.84 km</desc>
<time>2010-10-24T11:08:48.07</time>
<name>2333</name>
</trkpt>
<trkpt lat="48.949750" lon="8.644485">
<ele>277.0</ele>
<speed>1.75</speed>
<course>167.4</course>
<desc>Speed 6.3 km/h Distance 3.84 km</desc>
<time>2010-10-24T11:08:49.07</time>
<name>2334</name>
</trkpt>
<trkpt lat="48.949745" lon="8.644487">
<ele>276.5</ele>
<speed>1.00</speed>
<course>163.4</course>
<desc>Speed 3.6 km/h Distance 3.84 km</desc>
<time>2010-10-24T11:08:50.07</time>
<name>2335</name>
</trkpt>
<trkpt lat="48.949730" lon="8.644493">
<ele>275.5</ele>
<speed>1.30</speed>
<course>144.0</course>
<desc>Speed 4.7 km/h Distance 3.84 km</desc>
<time>2010-10-24T11:08:51.07</time>
<name>2336</name>
</trkpt>
<trkpt lat="48.949715" lon="8.644510">
<ele>276.5</ele>
<speed>1.11</speed>
<course>146.7</course>
<desc>Speed 4.0 km/h Distance 3.85 km</desc>
<time>2010-10-24T11:08:52.07</time>
<name>2337</name>
</trkpt>
<trkpt lat="48.949695" lon="8.644530">
<ele>277.5</ele>
<speed>1.53</speed>
<course>156.6</course>
<desc>Speed 5.5 km/h Distance 3.85 km</desc>
<time>2010-10-24T11:08:53.07</time>
<name>2338</name>
</trkpt>
<trkpt lat="48.949685" lon="8.644537">
<ele>277.5</ele>
<speed>1.32</speed>
<course>159.4</course>
<desc>Speed 4.8 km/h Distance 3.85 km</desc>
<time>2010-10-24T11:08:54.07</time>
<name>2339</name>
</trkpt>
<trkpt lat="48.949673" lon="8.644543">
<ele>278.0</ele>
<speed>0.98</speed>
<course>156.3</course>
<desc>Speed 3.5 km/h Distance 3.85 km</desc>
<time>2010-10-24T11:08:55.07</time>
<name>2340</name>
</trkpt>
<trkpt lat="48.949658" lon="8.644553">
<ele>278.5</ele>
<speed>1.32</speed>
<course>152.2</course>
<desc>Speed 4.8 km/h Distance 3.85 km</desc>
<time>2010-10-24T11:08:56.07</time>
<name>2341</name>
</trkpt>
<trkpt lat="48.949642" lon="8.644567">
<ele>278.5</ele>
<speed>1.59</speed>
<course>161.6</course>
<desc>Speed 5.7 km/h Distance 3.86 km</desc>
<time>2010-10-24T11:08:57.07</time>
<name>2342</name>
</trkpt>
<trkpt lat="48.949628" lon="8.644573">
<ele>279.0</ele>
<speed>1.38</speed>
<course>138.8</course>
<desc>Speed 5.0 km/h Distance 3.86 km</desc>
<time>2010-10-24T11:08:58.07</time>
<name>2343</name>
</trkpt>
<trkpt lat="48.949618" lon="8.644587">
<ele>280.0</ele>
<speed>1.30</speed>
<course>146.8</course>
<desc>Speed 4.7 km/h Distance 3.86 km</desc>
<time>2010-10-24T11:08:59.07</time>
<name>2344</name>
</trkpt>
<trkpt lat="48.949610" lon="8.644595">
<ele>280.0</ele>
<speed>1.05</speed>
<course>119.8</course>
<desc>Speed 3.8 km/h Distance 3.86 km</desc>
<time>2010-10-24T11:09:00.07</time>
<name>2345</name>
</trkpt>
<trkpt lat="48.949605" lon="8.644608">
<ele>280.5</ele>
<speed>0.93</speed>
<course>152.1</course>
<desc>Speed 3.3 km/h Distance 3.86 km</desc>
<time>2010-10-24T11:09:01.07</time>
<name>2346</name>
</trkpt>
<trkpt lat="48.949597" lon="8.644615">
<ele>280.5</ele>
<speed>0.93</speed>
<course>163.4</course>
<desc>Speed 3.3 km/h Distance 3.86 km</desc>
<time>2010-10-24T11:09:02.07</time>
<name>2347</name>
</trkpt>
<trkpt lat="48.949578" lon="8.644623">
<ele>281.5</ele>
<speed>1.51</speed>
<course>146.8</course>
<desc>Speed 5.4 km/h Distance 3.86 km</desc>
<time>2010-10-24T11:09:03.07</time>
<name>2348</name>
</trkpt>
<trkpt lat="48.949570" lon="8.644632">
<ele>281.5</ele>
<speed>0.80</speed>
<course>155.3</course>
<desc>Speed 2.9 km/h Distance 3.86 km</desc>
<time>2010-10-24T11:09:04.07</time>
<name>2349</name>
</trkpt>
<trkpt lat="48.949553" lon="8.644643">
<ele>282.0</ele>
<speed>1.51</speed>
<course>156.2</course>
<desc>Speed 5.4 km/h Distance 3.87 km</desc>
<time>2010-10-24T11:09:05.07</time>
<name>2350</name>
</trkpt>
<trkpt lat="48.949543" lon="8.644650">
<ele>282.0</ele>
<speed>1.21</speed>
<course>146.7</course>
<desc>Speed 4.4 km/h Distance 3.87 km</desc>
<time>2010-10-24T11:09:06.07</time>
<name>2351</name>
</trkpt>
<trkpt lat="48.949528" lon="8.644665">
<ele>282.5</ele>
<speed>1.44</speed>
<course>157.7</course>
<desc>Speed 5.2 km/h Distance 3.87 km</desc>
<time>2010-10-24T11:09:07.07</time>
<name>2352</name>
</trkpt>
<trkpt lat="48.949515" lon="8.644673">
<ele>282.5</ele>
<speed>1.41</speed>
<course>156.2</course>
<desc>Speed 5.1 km/h Distance 3.87 km</desc>
<time>2010-10-24T11:09:08.07</time>
<name>2353</name>
</trkpt>
<trkpt lat="48.949505" lon="8.644680">
<ele>282.5</ele>
<speed>0.93</speed>
<course>159.1</course>
<desc>Speed 3.3 km/h Distance 3.87 km</desc>
<time>2010-10-24T11:09:09.07</time>
<name>2354</name>
</trkpt>
<trkpt lat="48.949493" lon="8.644687">
<ele>283.0</ele>
<speed>0.91</speed>
<course>152.1</course>
<desc>Speed 3.3 km/h Distance 3.87 km</desc>
<time>2010-10-24T11:09:10.07</time>
<name>2355</name>
</trkpt>
<trkpt lat="48.949485" lon="8.644693">
<ele>283.0</ele>
<speed>0.77</speed>
<course>137.4</course>
<desc>Speed 2.8 km/h Distance 3.88 km</desc>
<time>2010-10-24T11:09:11.07</time>
<name>2356</name>
</trkpt>
<trkpt lat="48.949477" lon="8.644705">
<ele>283.5</ele>
<speed>0.67</speed>
<course>138.5</course>
<desc>Speed 2.4 km/h Distance 3.88 km</desc>
<time>2010-10-24T11:09:12.07</time>
<name>2357</name>
</trkpt>
<trkpt lat="48.949433" lon="8.644763">
<ele>287.0</ele>
<speed>0.86</speed>
<course>163.2</course>
<desc>Speed 3.1 km/h Distance 3.88 km</desc>
<time>2010-10-24T11:09:14.07</time>
<name>2358</name>
</trkpt>
<trkpt lat="48.949372" lon="8.644792">
<ele>286.0</ele>
<speed>2.75</speed>
<course>161.9</course>
<desc>Speed 9.9 km/h Distance 3.89 km</desc>
<time>2010-10-24T11:09:16.07</time>
<name>2359</name>
</trkpt>
<trkpt lat="48.949355" lon="8.644800">
<ele>285.5</ele>
<speed>1.76</speed>
<course>156.3</course>
<desc>Speed 6.3 km/h Distance 3.89 km</desc>
<time>2010-10-24T11:09:17.07</time>
<name>2360</name>
</trkpt>
<trkpt lat="48.949340" lon="8.644810">
<ele>285.5</ele>
<speed>1.55</speed>
<course>156.6</course>
<desc>Speed 5.6 km/h Distance 3.89 km</desc>
<time>2010-10-24T11:09:18.07</time>
<name>2361</name>
</trkpt>
<trkpt lat="48.949330" lon="8.644817">
<ele>285.5</ele>
<speed>1.29</speed>
<course>137.4</course>
<desc>Speed 4.6 km/h Distance 3.90 km</desc>
<time>2010-10-24T11:09:19.07</time>
<name>2362</name>
</trkpt>
<trkpt lat="48.949322" lon="8.644828">
<ele>286.0</ele>
<speed>1.26</speed>
<course>154.9</course>
<desc>Speed 4.5 km/h Distance 3.90 km</desc>
<time>2010-10-24T11:09:20.07</time>
<name>2363</name>
</trkpt>
<trkpt lat="48.949298" lon="8.644845">
<ele>286.5</ele>
<speed>2.61</speed>
<course>146.8</course>
<desc>Speed 9.4 km/h Distance 3.90 km</desc>
<time>2010-10-24T11:09:21.07</time>
<name>2364</name>
</trkpt>
<trkpt lat="48.949288" lon="8.644855">
<ele>286.5</ele>
<speed>1.27</speed>
<course>173.4</course>
<desc>Speed 4.6 km/h Distance 3.90 km</desc>
<time>2010-10-24T11:09:22.07</time>
<name>2365</name>
</trkpt>
<trkpt lat="48.949268" lon="8.644858">
<ele>285.0</ele>
<speed>2.17</speed>
<course>159.4</course>
<desc>Speed 7.8 km/h Distance 3.90 km</desc>
<time>2010-10-24T11:09:23.07</time>
<name>2366</name>
</trkpt>
<trkpt lat="48.949257" lon="8.644865">
<ele>284.5</ele>
<speed>1.07</speed>
<course>127.2</course>
<desc>Speed 3.9 km/h Distance 3.90 km</desc>
<time>2010-10-24T11:09:24.07</time>
<name>2367</name>
</trkpt>
<trkpt lat="48.949252" lon="8.644875">
<ele>285.0</ele>
<speed>0.66</speed>
<course>151.4</course>
<desc>Speed 2.4 km/h Distance 3.91 km</desc>
<time>2010-10-24T11:09:25.07</time>
<name>2368</name>
</trkpt>
<trkpt lat="48.949242" lon="8.644883">
<ele>285.5</ele>
<speed>1.00</speed>
<course>156.6</course>
<desc>Speed 3.6 km/h Distance 3.91 km</desc>
<time>2010-10-24T11:09:26.07</time>
<name>2369</name>
</trkpt>
<trkpt lat="48.949232" lon="8.644890">
<ele>286.0</ele>
<speed>0.89</speed>
<course>111.8</course>
<desc>Speed 3.2 km/h Distance 3.91 km</desc>
<time>2010-10-24T11:09:27.07</time>
<name>2370</name>
</trkpt>
<trkpt lat="48.949223" lon="8.644922">
<ele>288.5</ele>
<speed>1.27</speed>
<course>99.6</course>
<desc>Speed 4.6 km/h Distance 3.91 km</desc>
<time>2010-10-24T11:09:28.07</time>
<name>2371</name>
</trkpt>
<trkpt lat="48.949222" lon="8.644937">
<ele>290.0</ele>
<speed>0.95</speed>
<course>144.2</course>
<desc>Speed 3.4 km/h Distance 3.91 km</desc>
<time>2010-10-24T11:09:29.07</time>
<name>2372</name>
</trkpt>
<trkpt lat="48.949205" lon="8.644955">
<ele>291.0</ele>
<speed>1.86</speed>
<course>150.8</course>
<desc>Speed 6.7 km/h Distance 3.91 km</desc>
<time>2010-10-24T11:09:30.07</time>
<name>2373</name>
</trkpt>
<trkpt lat="48.949193" lon="8.644965">
<ele>291.0</ele>
<speed>1.40</speed>
<course>156.2</course>
<desc>Speed 5.0 km/h Distance 3.92 km</desc>
<time>2010-10-24T11:09:31.07</time>
<name>2374</name>
</trkpt>
<trkpt lat="48.949183" lon="8.644972">
<ele>291.5</ele>
<speed>1.19</speed>
<course>154.8</course>
<desc>Speed 4.3 km/h Distance 3.92 km</desc>
<time>2010-10-24T11:09:32.07</time>
<name>2375</name>
</trkpt>
<trkpt lat="48.949172" lon="8.644980">
<ele>292.0</ele>
<speed>1.14</speed>
<course>142.5</course>
<desc>Speed 4.1 km/h Distance 3.92 km</desc>
<time>2010-10-24T11:09:33.07</time>
<name>2376</name>
</trkpt>
<trkpt lat="48.949162" lon="8.644992">
<ele>292.0</ele>
<speed>1.16</speed>
<course>159.9</course>
<desc>Speed 4.2 km/h Distance 3.92 km</desc>
<time>2010-10-24T11:09:34.07</time>
<name>2377</name>
</trkpt>
<trkpt lat="48.949147" lon="8.645000">
<ele>292.0</ele>
<speed>1.73</speed>
<course>176.2</course>
<desc>Speed 6.2 km/h Distance 3.92 km</desc>
<time>2010-10-24T11:09:35.07</time>
<name>2378</name>
</trkpt>
<trkpt lat="48.949132" lon="8.645002">
<ele>290.5</ele>
<speed>2.02</speed>
<course>135.3</course>
<desc>Speed 7.3 km/h Distance 3.92 km</desc>
<time>2010-10-24T11:09:36.07</time>
<name>2379</name>
</trkpt>
<trkpt lat="48.949122" lon="8.645017">
<ele>291.5</ele>
<speed>1.67</speed>
<course>164.0</course>
<desc>Speed 6.0 km/h Distance 3.92 km</desc>
<time>2010-10-24T11:09:37.07</time>
<name>2380</name>
</trkpt>
<trkpt lat="48.949110" lon="8.645022">
<ele>291.5</ele>
<speed>1.13</speed>
<course>165.1</course>
<desc>Speed 4.1 km/h Distance 3.93 km</desc>
<time>2010-10-24T11:09:38.07</time>
<name>2381</name>
</trkpt>
<trkpt lat="48.949098" lon="8.645027">
<ele>291.0</ele>
<speed>1.13</speed>
<course>175.0</course>
<desc>Speed 4.1 km/h Distance 3.93 km</desc>
<time>2010-10-24T11:09:39.07</time>
<name>2382</name>
</trkpt>
<trkpt lat="48.949090" lon="8.645028">
<ele>291.0</ele>
<speed>0.86</speed>
<course>150.9</course>
<desc>Speed 3.1 km/h Distance 3.93 km</desc>
<time>2010-10-24T11:09:40.07</time>
<name>2383</name>
</trkpt>
<trkpt lat="48.949068" lon="8.645047">
<ele>291.0</ele>
<speed>2.49</speed>
<course>163.4</course>
<desc>Speed 9.0 km/h Distance 3.93 km</desc>
<time>2010-10-24T11:09:41.07</time>
<name>2384</name>
</trkpt>
<trkpt lat="48.949053" lon="8.645053">
<ele>291.0</ele>
<speed>1.54</speed>
<course>136.8</course>
<desc>Speed 5.5 km/h Distance 3.93 km</desc>
<time>2010-10-24T11:09:42.07</time>
<name>2385</name>
</trkpt>
<trkpt lat="48.949042" lon="8.645070">
<ele>292.5</ele>
<speed>1.72</speed>
<course>173.4</course>
<desc>Speed 6.2 km/h Distance 3.93 km</desc>
<time>2010-10-24T11:09:43.07</time>
<name>2386</name>
</trkpt>
<trkpt lat="48.949032" lon="8.645072">
<ele>292.5</ele>
<speed>0.87</speed>
<course>164.7</course>
<desc>Speed 3.1 km/h Distance 3.94 km</desc>
<time>2010-10-24T11:09:44.07</time>
<name>2387</name>
</trkpt>
<trkpt lat="48.949012" lon="8.645080">
<ele>293.0</ele>
<speed>2.10</speed>
<course>170.2</course>
<desc>Speed 7.6 km/h Distance 3.94 km</desc>
<time>2010-10-24T11:09:45.07</time>
<name>2388</name>
</trkpt>
<trkpt lat="48.948993" lon="8.645085">
<ele>293.0</ele>
<speed>1.87</speed>
<course>157.8</course>
<desc>Speed 6.7 km/h Distance 3.94 km</desc>
<time>2010-10-24T11:09:46.07</time>
<name>2389</name>
</trkpt>
<trkpt lat="48.948988" lon="8.645088">
<ele>293.5</ele>
<speed>0.55</speed>
<course>153.8</course>
<desc>Speed 2.0 km/h Distance 3.94 km</desc>
<time>2010-10-24T11:09:47.07</time>
<name>2390</name>
</trkpt>
<trkpt lat="48.948975" lon="8.645098">
<ele>293.5</ele>
<speed>1.37</speed>
<course>161.9</course>
<desc>Speed 4.9 km/h Distance 3.94 km</desc>
<time>2010-10-24T11:09:48.07</time>
<name>2391</name>
</trkpt>
<trkpt lat="48.948962" lon="8.645105">
<ele>294.0</ele>
<speed>1.49</speed>
<course>159.9</course>
<desc>Speed 5.4 km/h Distance 3.94 km</desc>
<time>2010-10-24T11:09:49.07</time>
<name>2392</name>
</trkpt>
<trkpt lat="48.948947" lon="8.645113">
<ele>294.0</ele>
<speed>1.67</speed>
<course>208.6</course>
<desc>Speed 6.0 km/h Distance 3.95 km</desc>
<time>2010-10-24T11:09:50.07</time>
<name>2393</name>
</trkpt>
<trkpt lat="48.948937" lon="8.645105">
<ele>293.0</ele>
<speed>0.93</speed>
<course>180.0</course>
<desc>Speed 3.3 km/h Distance 3.95 km</desc>
<time>2010-10-24T11:09:51.07</time>
<name>2394</name>
</trkpt>
<trkpt lat="48.948925" lon="8.645105">
<ele>293.0</ele>
<speed>1.25</speed>
<course>182.8</course>
<desc>Speed 4.5 km/h Distance 3.95 km</desc>
<time>2010-10-24T11:09:52.07</time>
<name>2395</name>
</trkpt>
<trkpt lat="48.948908" lon="8.645103">
<ele>292.5</ele>
<speed>1.42</speed>
<course>187.5</course>
<desc>Speed 5.1 km/h Distance 3.95 km</desc>
<time>2010-10-24T11:09:53.07</time>
<name>2396</name>
</trkpt>
<trkpt lat="48.948893" lon="8.645100">
<ele>292.0</ele>
<speed>1.15</speed>
<course>180.0</course>
<desc>Speed 4.1 km/h Distance 3.95 km</desc>
<time>2010-10-24T11:09:54.07</time>
<name>2397</name>
</trkpt>
<trkpt lat="48.948872" lon="8.645100">
<ele>291.0</ele>
<speed>1.41</speed>
<course>175.6</course>
<desc>Speed 5.1 km/h Distance 3.95 km</desc>
<time>2010-10-24T11:09:55.07</time>
<name>2398</name>
</trkpt>
<trkpt lat="48.948842" lon="8.645103">
<ele>291.5</ele>
<speed>0.62</speed>
<course>172.3</course>
<desc>Speed 2.2 km/h Distance 3.96 km</desc>
<time>2010-10-24T11:09:57.07</time>
<name>2399</name>
</trkpt>
<trkpt lat="48.948825" lon="8.645107">
<ele>292.0</ele>
<speed>1.51</speed>
<course>157.4</course>
<desc>Speed 5.4 km/h Distance 3.96 km</desc>
<time>2010-10-24T11:09:58.07</time>
<name>2400</name>
</trkpt>
<trkpt lat="48.948812" lon="8.645115">
<ele>292.0</ele>
<speed>1.39</speed>
<course>163.7</course>
<desc>Speed 5.0 km/h Distance 3.96 km</desc>
<time>2010-10-24T11:09:59.07</time>
<name>2401</name>
</trkpt>
<trkpt lat="48.948797" lon="8.645122">
<ele>293.0</ele>
<speed>1.34</speed>
<course>182.7</course>
<desc>Speed 4.8 km/h Distance 3.96 km</desc>
<time>2010-10-24T11:10:00.07</time>
<name>2402</name>
</trkpt>
<trkpt lat="48.948777" lon="8.645120">
<ele>292.0</ele>
<speed>1.37</speed>
<course>187.0</course>
<desc>Speed 4.9 km/h Distance 3.96 km</desc>
<time>2010-10-24T11:10:01.07</time>
<name>2403</name>
</trkpt>
<trkpt lat="48.948758" lon="8.645117">
<ele>291.0</ele>
<speed>1.04</speed>
<course>175.6</course>
<desc>Speed 3.7 km/h Distance 3.97 km</desc>
<time>2010-10-24T11:10:02.07</time>
<name>2404</name>
</trkpt>
<trkpt lat="48.948748" lon="8.645117">
<ele>291.0</ele>
<speed>0.93</speed>
<course>192.6</course>
<desc>Speed 3.3 km/h Distance 3.97 km</desc>
<time>2010-10-24T11:10:03.07</time>
<name>2405</name>
</trkpt>
<trkpt lat="48.948738" lon="8.645113">
<ele>290.5</ele>
<speed>0.99</speed>
<course>200.1</course>
<desc>Speed 3.6 km/h Distance 3.97 km</desc>
<time>2010-10-24T11:10:04.07</time>
<name>2406</name>
</trkpt>
<trkpt lat="48.948723" lon="8.645105">
<ele>289.0</ele>
<speed>0.70</speed>
<course>203.7</course>
<desc>Speed 2.5 km/h Distance 3.97 km</desc>
<time>2010-10-24T11:10:05.07</time>
<name>2407</name>
</trkpt>
<trkpt lat="48.948708" lon="8.645095">
<ele>288.0</ele>
<speed>0.68</speed>
<course>195.3</course>
<desc>Speed 2.4 km/h Distance 3.97 km</desc>
<time>2010-10-24T11:10:06.07</time>
<name>2408</name>
</trkpt>
<trkpt lat="48.948688" lon="8.645087">
<ele>286.5</ele>
<speed>1.02</speed>
<course>175.3</course>
<desc>Speed 3.7 km/h Distance 3.97 km</desc>
<time>2010-10-24T11:10:07.07</time>
<name>2409</name>
</trkpt>
<trkpt lat="48.948677" lon="8.645087">
<ele>286.0</ele>
<speed>1.07</speed>
<course>174.7</course>
<desc>Speed 3.9 km/h Distance 3.98 km</desc>
<time>2010-10-24T11:10:08.07</time>
<name>2410</name>
</trkpt>
<trkpt lat="48.948663" lon="8.645088">
<ele>286.0</ele>
<speed>0.63</speed>
<course>180.0</course>
<desc>Speed 2.3 km/h Distance 3.98 km</desc>
<time>2010-10-24T11:10:09.07</time>
<name>2411</name>
</trkpt>
<trkpt lat="48.948648" lon="8.645088">
<ele>286.5</ele>
<speed>0.64</speed>
<course>167.4</course>
<desc>Speed 2.3 km/h Distance 3.98 km</desc>
<time>2010-10-24T11:10:10.07</time>
<name>2412</name>
</trkpt>
<trkpt lat="48.948638" lon="8.645092">
<ele>286.5</ele>
<speed>1.11</speed>
<course>189.5</course>
<desc>Speed 4.0 km/h Distance 3.98 km</desc>
<time>2010-10-24T11:10:11.07</time>
<name>2413</name>
</trkpt>
<trkpt lat="48.948627" lon="8.645088">
<ele>286.0</ele>
<speed>0.97</speed>
<course>175.0</course>
<desc>Speed 3.5 km/h Distance 3.98 km</desc>
<time>2010-10-24T11:10:12.07</time>
<name>2414</name>
</trkpt>
<trkpt lat="48.948618" lon="8.645090">
<ele>286.5</ele>
<speed>0.63</speed>
<course>158.5</course>
<desc>Speed 2.3 km/h Distance 3.98 km</desc>
<time>2010-10-24T11:10:13.07</time>
<name>2415</name>
</trkpt>
<trkpt lat="48.948610" lon="8.645095">
<ele>287.0</ele>
<speed>0.79</speed>
<course>175.3</course>
<desc>Speed 2.8 km/h Distance 3.98 km</desc>
<time>2010-10-24T11:10:14.07</time>
<name>2416</name>
</trkpt>
<trkpt lat="48.948598" lon="8.645095">
<ele>287.0</ele>
<speed>1.13</speed>
<course>188.1</course>
<desc>Speed 4.1 km/h Distance 3.98 km</desc>
<time>2010-10-24T11:10:15.07</time>
<name>2417</name>
</trkpt>
<trkpt lat="48.948588" lon="8.645093">
<ele>286.5</ele>
<speed>0.97</speed>
<course>184.7</course>
<desc>Speed 3.5 km/h Distance 3.99 km</desc>
<time>2010-10-24T11:10:16.07</time>
<name>2418</name>
</trkpt>
<trkpt lat="48.948577" lon="8.645092">
<ele>286.0</ele>
<speed>1.13</speed>
<course>150.6</course>
<desc>Speed 4.1 km/h Distance 3.99 km</desc>
<time>2010-10-24T11:10:17.07</time>
<name>2419</name>
</trkpt>
<trkpt lat="48.948565" lon="8.645102">
<ele>286.5</ele>
<speed>1.50</speed>
<course>176.1</course>
<desc>Speed 5.4 km/h Distance 3.99 km</desc>
<time>2010-10-24T11:10:18.07</time>
<name>2420</name>
</trkpt>
<trkpt lat="48.948552" lon="8.645102">
<ele>286.5</ele>
<speed>0.87</speed>
<course>28.6</course>
<desc>Speed 3.1 km/h Distance 3.99 km</desc>
<time>2010-10-24T11:10:19.07</time>
<name>2421</name>
</trkpt>
<trkpt lat="48.948562" lon="8.645110">
<ele>286.5</ele>
<speed>1.77</speed>
<course>158.5</course>
<desc>Speed 6.4 km/h Distance 3.99 km</desc>
<time>2010-10-24T11:10:20.07</time>
<name>2422</name>
</trkpt>
<trkpt lat="48.948537" lon="8.645125">
<ele>288.0</ele>
<speed>2.70</speed>
<course>213.2</course>
<desc>Speed 9.7 km/h Distance 3.99 km</desc>
<time>2010-10-24T11:10:21.07</time>
<name>2423</name>
</trkpt>
<trkpt lat="48.948527" lon="8.645115">
<ele>285.5</ele>
<speed>0.79</speed>
<course>160.2</course>
<desc>Speed 2.8 km/h Distance 4.00 km</desc>
<time>2010-10-24T11:10:23.07</time>
<name>2424</name>
</trkpt>
<trkpt lat="48.948508" lon="8.645125">
<ele>286.5</ele>
<speed>1.86</speed>
<course>186.6</course>
<desc>Speed 6.7 km/h Distance 4.00 km</desc>
<time>2010-10-24T11:10:24.07</time>
<name>2425</name>
</trkpt>
<trkpt lat="48.948498" lon="8.645123">
<ele>285.5</ele>
<speed>0.98</speed>
<course>184.7</course>
<desc>Speed 3.5 km/h Distance 4.00 km</desc>
<time>2010-10-24T11:10:25.07</time>
<name>2426</name>
</trkpt>
<trkpt lat="48.948487" lon="8.645122">
<ele>285.5</ele>
<speed>0.85</speed>
<course>185.3</course>
<desc>Speed 3.1 km/h Distance 4.00 km</desc>
<time>2010-10-24T11:10:26.07</time>
<name>2427</name>
</trkpt>
<trkpt lat="48.948473" lon="8.645120">
<ele>285.0</ele>
<speed>0.95</speed>
<course>28.6</course>
<desc>Speed 3.4 km/h Distance 4.00 km</desc>
<time>2010-10-24T11:10:27.07</time>
<name>2428</name>
</trkpt>
<trkpt lat="48.948483" lon="8.645128">
<ele>286.5</ele>
<speed>1.40</speed>
<course>180.0</course>
<desc>Speed 5.0 km/h Distance 4.00 km</desc>
<time>2010-10-24T11:10:28.07</time>
<name>2429</name>
</trkpt>
<trkpt lat="48.948472" lon="8.645128">
<ele>285.0</ele>
<speed>0.72</speed>
<course>176.1</course>
<desc>Speed 2.6 km/h Distance 4.00 km</desc>
<time>2010-10-24T11:10:30.07</time>
<name>2430</name>
</trkpt>
<trkpt lat="48.948458" lon="8.645130">
<ele>283.5</ele>
<speed>0.92</speed>
<course>166.5</course>
<desc>Speed 3.3 km/h Distance 4.01 km</desc>
<time>2010-10-24T11:10:31.07</time>
<name>2431</name>
</trkpt>
<trkpt lat="48.948445" lon="8.645135">
<ele>282.5</ele>
<speed>1.15</speed>
<course>173.4</course>
<desc>Speed 4.1 km/h Distance 4.01 km</desc>
<time>2010-10-24T11:10:32.07</time>
<name>2432</name>
</trkpt>
<trkpt lat="48.948435" lon="8.645137">
<ele>282.5</ele>
<speed>0.75</speed>
<course>168.4</course>
<desc>Speed 2.7 km/h Distance 4.01 km</desc>
<time>2010-10-24T11:10:33.07</time>
<name>2433</name>
</trkpt>
<trkpt lat="48.948425" lon="8.645140">
<ele>282.5</ele>
<speed>0.81</speed>
<course>175.0</course>
<desc>Speed 2.9 km/h Distance 4.01 km</desc>
<time>2010-10-24T11:10:34.07</time>
<name>2434</name>
</trkpt>
<trkpt lat="48.948417" lon="8.645142">
<ele>281.5</ele>
<speed>0.46</speed>
<course>175.3</course>
<desc>Speed 1.7 km/h Distance 4.01 km</desc>
<time>2010-10-24T11:10:35.07</time>
<name>2435</name>
</trkpt>
<trkpt lat="48.948405" lon="8.645143">
<ele>280.5</ele>
<speed>0.36</speed>
<course>200.9</course>
<desc>Speed 1.3 km/h Distance 4.01 km</desc>
<time>2010-10-24T11:10:36.07</time>
<name>2436</name>
</trkpt>
<trkpt lat="48.948393" lon="8.645137">
<ele>279.5</ele>
<speed>0.68</speed>
<course>196.6</course>
<desc>Speed 2.4 km/h Distance 4.01 km</desc>
<time>2010-10-24T11:10:37.07</time>
<name>2437</name>
</trkpt>
<trkpt lat="48.948375" lon="8.645128">
<ele>278.5</ele>
<speed>1.21</speed>
<course>183.9</course>
<desc>Speed 4.4 km/h Distance 4.02 km</desc>
<time>2010-10-24T11:10:38.07</time>
<name>2438</name>
</trkpt>
<trkpt lat="48.948362" lon="8.645127">
<ele>278.0</ele>
<speed>1.00</speed>
<course>168.8</course>
<desc>Speed 3.6 km/h Distance 4.02 km</desc>
<time>2010-10-24T11:10:39.07</time>
<name>2439</name>
</trkpt>
<trkpt lat="48.948350" lon="8.645130">
<ele>278.5</ele>
<speed>1.12</speed>
<course>193.6</course>
<desc>Speed 4.0 km/h Distance 4.02 km</desc>
<time>2010-10-24T11:10:40.07</time>
<name>2440</name>
</trkpt>
<trkpt lat="48.948332" lon="8.645123">
<ele>278.0</ele>
<speed>1.11</speed>
<course>198.1</course>
<desc>Speed 4.0 km/h Distance 4.02 km</desc>
<time>2010-10-24T11:10:41.07</time>
<name>2441</name>
</trkpt>
<trkpt lat="48.948318" lon="8.645117">
<ele>277.0</ele>
<speed>0.89</speed>
<course>180.0</course>
<desc>Speed 3.2 km/h Distance 4.02 km</desc>
<time>2010-10-24T11:10:42.07</time>
<name>2442</name>
</trkpt>
<trkpt lat="48.948308" lon="8.645117">
<ele>277.0</ele>
<speed>1.10</speed>
<course>198.2</course>
<desc>Speed 4.0 km/h Distance 4.02 km</desc>
<time>2010-10-24T11:10:43.07</time>
<name>2443</name>
</trkpt>
<trkpt lat="48.948298" lon="8.645112">
<ele>277.0</ele>
<speed>0.72</speed>
<course>177.8</course>
<desc>Speed 2.6 km/h Distance 4.02 km</desc>
<time>2010-10-24T11:10:44.07</time>
<name>2444</name>
</trkpt>
<trkpt lat="48.948287" lon="8.645112">
<ele>277.0</ele>
<speed>0.79</speed>
<course>180.0</course>
<desc>Speed 2.8 km/h Distance 4.03 km</desc>
<time>2010-10-24T11:10:45.07</time>
<name>2445</name>
</trkpt>
<trkpt lat="48.948270" lon="8.645112">
<ele>277.0</ele>
<speed>0.93</speed>
<course>180.0</course>
<desc>Speed 3.3 km/h Distance 4.03 km</desc>
<time>2010-10-24T11:10:46.07</time>
<name>2446</name>
</trkpt>
<trkpt lat="48.948255" lon="8.645112">
<ele>277.0</ele>
<speed>0.56</speed>
<course>174.4</course>
<desc>Speed 2.0 km/h Distance 4.03 km</desc>
<time>2010-10-24T11:10:47.07</time>
<name>2447</name>
</trkpt>
<trkpt lat="48.948235" lon="8.645115">
<ele>277.0</ele>
<speed>0.89</speed>
<course>191.7</course>
<desc>Speed 3.2 km/h Distance 4.03 km</desc>
<time>2010-10-24T11:10:48.07</time>
<name>2448</name>
</trkpt>
<trkpt lat="48.948220" lon="8.645110">
<ele>276.5</ele>
<speed>1.12</speed>
<course>154.0</course>
<desc>Speed 4.0 km/h Distance 4.03 km</desc>
<time>2010-10-24T11:10:49.07</time>
<name>2449</name>
</trkpt>
<trkpt lat="48.948207" lon="8.645120">
<ele>279.0</ele>
<speed>0.97</speed>
<course>203.8</course>
<desc>Speed 3.5 km/h Distance 4.03 km</desc>
<time>2010-10-24T11:10:50.07</time>
<name>2450</name>
</trkpt>
<trkpt lat="48.948197" lon="8.645113">
<ele>278.5</ele>
<speed>0.94</speed>
<course>203.8</course>
<desc>Speed 3.4 km/h Distance 4.04 km</desc>
<time>2010-10-24T11:10:51.07</time>
<name>2451</name>
</trkpt>
<trkpt lat="48.948187" lon="8.645107">
<ele>277.5</ele>
<speed>0.89</speed>
<course>189.0</course>
<desc>Speed 3.2 km/h Distance 4.04 km</desc>
<time>2010-10-24T11:10:52.07</time>
<name>2452</name>
</trkpt>
<trkpt lat="48.948173" lon="8.645103">
<ele>277.0</ele>
<speed>0.86</speed>
<course>200.2</course>
<desc>Speed 3.1 km/h Distance 4.04 km</desc>
<time>2010-10-24T11:10:53.07</time>
<name>2453</name>
</trkpt>
<trkpt lat="48.948162" lon="8.645097">
<ele>276.5</ele>
<speed>0.70</speed>
<course>191.7</course>
<desc>Speed 2.5 km/h Distance 4.04 km</desc>
<time>2010-10-24T11:10:54.07</time>
<name>2454</name>
</trkpt>
<trkpt lat="48.948147" lon="8.645092">
<ele>275.5</ele>
<speed>0.88</speed>
<course>189.7</course>
<desc>Speed 3.2 km/h Distance 4.04 km</desc>
<time>2010-10-24T11:10:55.07</time>
<name>2455</name>
</trkpt>
<trkpt lat="48.948133" lon="8.645088">
<ele>275.0</ele>
<speed>1.23</speed>
<course>200.6</course>
<desc>Speed 4.4 km/h Distance 4.04 km</desc>
<time>2010-10-24T11:10:56.07</time>
<name>2456</name>
</trkpt>
<trkpt lat="48.948122" lon="8.645082">
<ele>275.0</ele>
<speed>0.79</speed>
<course>191.7</course>
<desc>Speed 2.8 km/h Distance 4.04 km</desc>
<time>2010-10-24T11:10:57.07</time>
<name>2457</name>
</trkpt>
<trkpt lat="48.948107" lon="8.645077">
<ele>274.0</ele>
<speed>1.11</speed>
<course>200.1</course>
<desc>Speed 4.0 km/h Distance 4.05 km</desc>
<time>2010-10-24T11:10:58.07</time>
<name>2458</name>
</trkpt>
<trkpt lat="48.948092" lon="8.645068">
<ele>273.0</ele>
<speed>1.10</speed>
<course>198.2</course>
<desc>Speed 4.0 km/h Distance 4.05 km</desc>
<time>2010-10-24T11:10:59.07</time>
<name>2459</name>
</trkpt>
<trkpt lat="48.948072" lon="8.645058">
<ele>272.0</ele>
<speed>1.16</speed>
<course>183.8</course>
<desc>Speed 4.2 km/h Distance 4.05 km</desc>
<time>2010-10-24T11:11:00.07</time>
<name>2460</name>
</trkpt>
<trkpt lat="48.948057" lon="8.645057">
<ele>271.5</ele>
<speed>0.73</speed>
<course>178.8</course>
<desc>Speed 2.6 km/h Distance 4.05 km</desc>
<time>2010-10-24T11:11:01.07</time>
<name>2461</name>
</trkpt>
<trkpt lat="48.948037" lon="8.645057">
<ele>270.5</ele>
<speed>1.12</speed>
<course>198.8</course>
<desc>Speed 4.0 km/h Distance 4.05 km</desc>
<time>2010-10-24T11:11:02.07</time>
<name>2462</name>
</trkpt>
<trkpt lat="48.948023" lon="8.645050">
<ele>270.5</ele>
<speed>1.05</speed>
<course>202.6</course>
<desc>Speed 3.8 km/h Distance 4.06 km</desc>
<time>2010-10-24T11:11:03.07</time>
<name>2463</name>
</trkpt>
<trkpt lat="48.948010" lon="8.645042">
<ele>270.5</ele>
<speed>1.11</speed>
<course>192.6</course>
<desc>Speed 4.0 km/h Distance 4.06 km</desc>
<time>2010-10-24T11:11:04.07</time>
<name>2464</name>
</trkpt>
<trkpt lat="48.948000" lon="8.645038">
<ele>270.0</ele>
<speed>0.87</speed>
<course>194.9</course>
<desc>Speed 3.1 km/h Distance 4.06 km</desc>
<time>2010-10-24T11:11:05.07</time>
<name>2465</name>
</trkpt>
<trkpt lat="48.947992" lon="8.645035">
<ele>269.5</ele>
<speed>0.75</speed>
<course>213.7</course>
<desc>Speed 2.7 km/h Distance 4.06 km</desc>
<time>2010-10-24T11:11:06.07</time>
<name>2466</name>
</trkpt>
<trkpt lat="48.947985" lon="8.645028">
<ele>269.0</ele>
<speed>0.68</speed>
<course>198.2</course>
<desc>Speed 2.4 km/h Distance 4.06 km</desc>
<time>2010-10-24T11:11:07.07</time>
<name>2467</name>
</trkpt>
<trkpt lat="48.947975" lon="8.645023">
<ele>268.5</ele>
<speed>0.86</speed>
<course>189.7</course>
<desc>Speed 3.1 km/h Distance 4.06 km</desc>
<time>2010-10-24T11:11:08.07</time>
<name>2468</name>
</trkpt>
<trkpt lat="48.947962" lon="8.645020">
<ele>268.5</ele>
<speed>1.00</speed>
<course>198.8</course>
<desc>Speed 3.6 km/h Distance 4.06 km</desc>
<time>2010-10-24T11:11:09.07</time>
<name>2469</name>
</trkpt>
<trkpt lat="48.947955" lon="8.645017">
<ele>268.0</ele>
<speed>0.52</speed>
<course>201.5</course>
<desc>Speed 1.9 km/h Distance 4.06 km</desc>
<time>2010-10-24T11:11:10.07</time>
<name>2470</name>
</trkpt>
<trkpt lat="48.947947" lon="8.645012">
<ele>267.0</ele>
<speed>0.50</speed>
<course>191.2</course>
<desc>Speed 1.8 km/h Distance 4.07 km</desc>
<time>2010-10-24T11:11:11.07</time>
<name>2471</name>
</trkpt>
<trkpt lat="48.947935" lon="8.645008">
<ele>266.0</ele>
<speed>0.92</speed>
<course>183.8</course>
<desc>Speed 3.3 km/h Distance 4.07 km</desc>
<time>2010-10-24T11:11:13.07</time>
<name>2472</name>
</trkpt>
<trkpt lat="48.947920" lon="8.645007">
<ele>265.0</ele>
<speed>0.93</speed>
<course>166.5</course>
<desc>Speed 3.3 km/h Distance 4.07 km</desc>
<time>2010-10-24T11:11:14.07</time>
<name>2473</name>
</trkpt>
<trkpt lat="48.947907" lon="8.645012">
<ele>265.5</ele>
<speed>0.72</speed>
<course>185.3</course>
<desc>Speed 2.6 km/h Distance 4.07 km</desc>
<time>2010-10-24T11:11:15.07</time>
<name>2474</name>
</trkpt>
<trkpt lat="48.947893" lon="8.645010">
<ele>266.0</ele>
<speed>1.02</speed>
<course>180.0</course>
<desc>Speed 3.7 km/h Distance 4.07 km</desc>
<time>2010-10-24T11:11:16.07</time>
<name>2475</name>
</trkpt>
<trkpt lat="48.947885" lon="8.645010">
<ele>266.5</ele>
<speed>0.75</speed>
<course>190.4</course>
<desc>Speed 2.7 km/h Distance 4.07 km</desc>
<time>2010-10-24T11:11:17.07</time>
<name>2476</name>
</trkpt>
<trkpt lat="48.947873" lon="8.645007">
<ele>266.5</ele>
<speed>1.00</speed>
<course>207.9</course>
<desc>Speed 3.6 km/h Distance 4.07 km</desc>
<time>2010-10-24T11:11:18.07</time>
<name>2477</name>
</trkpt>
<trkpt lat="48.947865" lon="8.645000">
<ele>267.0</ele>
<speed>0.86</speed>
<course>218.1</course>
<desc>Speed 3.1 km/h Distance 4.07 km</desc>
<time>2010-10-24T11:11:19.07</time>
<name>2478</name>
</trkpt>
<trkpt lat="48.947857" lon="8.644990">
<ele>266.0</ele>
<speed>0.95</speed>
<course>194.9</course>
<desc>Speed 3.4 km/h Distance 4.08 km</desc>
<time>2010-10-24T11:11:20.07</time>
<name>2479</name>
</trkpt>
<trkpt lat="48.947845" lon="8.644985">
<ele>265.5</ele>
<speed>0.93</speed>
<course>198.2</course>
<desc>Speed 3.3 km/h Distance 4.08 km</desc>
<time>2010-10-24T11:11:21.07</time>
<name>2480</name>
</trkpt>
<trkpt lat="48.947835" lon="8.644980">
<ele>265.0</ele>
<speed>1.21</speed>
<course>200.9</course>
<desc>Speed 4.4 km/h Distance 4.08 km</desc>
<time>2010-10-24T11:11:22.07</time>
<name>2481</name>
</trkpt>
<trkpt lat="48.947823" lon="8.644973">
<ele>264.5</ele>
<speed>1.12</speed>
<course>193.5</course>
<desc>Speed 4.0 km/h Distance 4.08 km</desc>
<time>2010-10-24T11:11:23.07</time>
<name>2482</name>
</trkpt>
<trkpt lat="48.947810" lon="8.644968">
<ele>263.5</ele>
<speed>1.27</speed>
<course>200.9</course>
<desc>Speed 4.6 km/h Distance 4.08 km</desc>
<time>2010-10-24T11:11:24.07</time>
<name>2483</name>
</trkpt>
<trkpt lat="48.947798" lon="8.644962">
<ele>262.5</ele>
<speed>1.09</speed>
<course>202.3</course>
<desc>Speed 3.9 km/h Distance 4.08 km</desc>
<time>2010-10-24T11:11:25.07</time>
<name>2484</name>
</trkpt>
<trkpt lat="48.947785" lon="8.644953">
<ele>261.5</ele>
<speed>1.20</speed>
<course>202.1</course>
<desc>Speed 4.3 km/h Distance 4.08 km</desc>
<time>2010-10-24T11:11:26.07</time>
<name>2485</name>
</trkpt>
<trkpt lat="48.947772" lon="8.644945">
<ele>261.5</ele>
<speed>0.94</speed>
<course>204.7</course>
<desc>Speed 3.4 km/h Distance 4.09 km</desc>
<time>2010-10-24T11:11:27.07</time>
<name>2486</name>
</trkpt>
<trkpt lat="48.947755" lon="8.644933">
<ele>260.5</ele>
<speed>1.21</speed>
<course>193.5</course>
<desc>Speed 4.4 km/h Distance 4.09 km</desc>
<time>2010-10-24T11:11:28.07</time>
<name>2487</name>
</trkpt>
<trkpt lat="48.947742" lon="8.644928">
<ele>261.0</ele>
<speed>0.99</speed>
<course>203.7</course>
<desc>Speed 3.6 km/h Distance 4.09 km</desc>
<time>2010-10-24T11:11:29.07</time>
<name>2488</name>
</trkpt>
<trkpt lat="48.947727" lon="8.644918">
<ele>260.5</ele>
<speed>1.21</speed>
<course>190.2</course>
<desc>Speed 4.4 km/h Distance 4.09 km</desc>
<time>2010-10-24T11:11:30.07</time>
<name>2489</name>
</trkpt>
<trkpt lat="48.947708" lon="8.644913">
<ele>260.5</ele>
<speed>1.38</speed>
<course>194.0</course>
<desc>Speed 5.0 km/h Distance 4.09 km</desc>
<time>2010-10-24T11:11:31.07</time>
<name>2490</name>
</trkpt>
<trkpt lat="48.947695" lon="8.644908">
<ele>261.0</ele>
<speed>1.34</speed>
<course>208.6</course>
<desc>Speed 4.8 km/h Distance 4.09 km</desc>
<time>2010-10-24T11:11:32.07</time>
<name>2491</name>
</trkpt>
<trkpt lat="48.947685" lon="8.644900">
<ele>261.0</ele>
<speed>0.91</speed>
<course>202.3</course>
<desc>Speed 3.3 km/h Distance 4.10 km</desc>
<time>2010-10-24T11:11:33.07</time>
<name>2492</name>
</trkpt>
<trkpt lat="48.947672" lon="8.644892">
<ele>260.5</ele>
<speed>1.13</speed>
<course>203.7</course>
<desc>Speed 4.1 km/h Distance 4.10 km</desc>
<time>2010-10-24T11:11:34.07</time>
<name>2493</name>
</trkpt>
<trkpt lat="48.947657" lon="8.644882">
<ele>260.5</ele>
<speed>1.28</speed>
<course>201.5</course>
<desc>Speed 4.6 km/h Distance 4.10 km</desc>
<time>2010-10-24T11:11:35.07</time>
<name>2494</name>
</trkpt>
<trkpt lat="48.947640" lon="8.644872">
<ele>260.0</ele>
<speed>1.32</speed>
<course>175.0</course>
<desc>Speed 4.8 km/h Distance 4.10 km</desc>
<time>2010-10-24T11:11:36.07</time>
<name>2495</name>
</trkpt>
<trkpt lat="48.947615" lon="8.644875">
<ele>261.5</ele>
<speed>1.97</speed>
<course>189.2</course>
<desc>Speed 7.1 km/h Distance 4.10 km</desc>
<time>2010-10-24T11:11:37.07</time>
<name>2496</name>
</trkpt>
<trkpt lat="48.947595" lon="8.644870">
<ele>261.5</ele>
<speed>1.37</speed>
<course>199.9</course>
<desc>Speed 4.9 km/h Distance 4.11 km</desc>
<time>2010-10-24T11:11:38.07</time>
<name>2497</name>
</trkpt>
<trkpt lat="48.947580" lon="8.644862">
<ele>261.0</ele>
<speed>1.04</speed>
<course>207.7</course>
<desc>Speed 3.7 km/h Distance 4.11 km</desc>
<time>2010-10-24T11:11:39.07</time>
<name>2498</name>
</trkpt>
<trkpt lat="48.947563" lon="8.644848">
<ele>260.0</ele>
<speed>1.37</speed>
<course>204.9</course>
<desc>Speed 4.9 km/h Distance 4.11 km</desc>
<time>2010-10-24T11:11:40.07</time>
<name>2499</name>
</trkpt>
<trkpt lat="48.947552" lon="8.644840">
<ele>260.0</ele>
<speed>0.99</speed>
<course>200.2</course>
<desc>Speed 3.6 km/h Distance 4.11 km</desc>
<time>2010-10-24T11:11:41.07</time>
<name>2500</name>
</trkpt>
<trkpt lat="48.947540" lon="8.644833">
<ele>259.5</ele>
<speed>1.07</speed>
<course>208.3</course>
<desc>Speed 3.9 km/h Distance 4.11 km</desc>
<time>2010-10-24T11:11:42.07</time>
<name>2501</name>
</trkpt>
<trkpt lat="48.947530" lon="8.644825">
<ele>260.0</ele>
<speed>0.92</speed>
<course>209.0</course>
<desc>Speed 3.3 km/h Distance 4.11 km</desc>
<time>2010-10-24T11:11:43.07</time>
<name>2502</name>
</trkpt>
<trkpt lat="48.947518" lon="8.644815">
<ele>259.5</ele>
<speed>1.22</speed>
<course>210.2</course>
<desc>Speed 4.4 km/h Distance 4.12 km</desc>
<time>2010-10-24T11:11:44.07</time>
<name>2503</name>
</trkpt>
<trkpt lat="48.947503" lon="8.644802">
<ele>259.0</ele>
<speed>1.22</speed>
<course>163.3</course>
<desc>Speed 4.4 km/h Distance 4.12 km</desc>
<time>2010-10-24T11:11:45.07</time>
<name>2504</name>
</trkpt>
<trkpt lat="48.947482" lon="8.644812">
<ele>261.0</ele>
<speed>2.39</speed>
<course>201.5</course>
<desc>Speed 8.6 km/h Distance 4.12 km</desc>
<time>2010-10-24T11:11:46.07</time>
<name>2505</name>
</trkpt>
<trkpt lat="48.947473" lon="8.644807">
<ele>261.5</ele>
<speed>0.76</speed>
<course>217.5</course>
<desc>Speed 2.7 km/h Distance 4.12 km</desc>
<time>2010-10-24T11:11:47.07</time>
<name>2506</name>
</trkpt>
<trkpt lat="48.947463" lon="8.644795">
<ele>261.0</ele>
<speed>0.98</speed>
<course>213.3</course>
<desc>Speed 3.5 km/h Distance 4.12 km</desc>
<time>2010-10-24T11:11:48.07</time>
<name>2507</name>
</trkpt>
<trkpt lat="48.947452" lon="8.644783">
<ele>261.0</ele>
<speed>1.16</speed>
<course>203.5</course>
<desc>Speed 4.2 km/h Distance 4.12 km</desc>
<time>2010-10-24T11:11:49.07</time>
<name>2508</name>
</trkpt>
<trkpt lat="48.947437" lon="8.644773">
<ele>260.5</ele>
<speed>1.21</speed>
<course>216.5</course>
<desc>Speed 4.4 km/h Distance 4.13 km</desc>
<time>2010-10-24T11:11:50.07</time>
<name>2509</name>
</trkpt>
<trkpt lat="48.947423" lon="8.644758">
<ele>260.0</ele>
<speed>1.12</speed>
<course>203.8</course>
<desc>Speed 4.0 km/h Distance 4.13 km</desc>
<time>2010-10-24T11:11:51.07</time>
<name>2510</name>
</trkpt>
<trkpt lat="48.947413" lon="8.644752">
<ele>260.5</ele>
<speed>0.83</speed>
<course>202.1</course>
<desc>Speed 3.0 km/h Distance 4.13 km</desc>
<time>2010-10-24T11:11:52.07</time>
<name>2511</name>
</trkpt>
<trkpt lat="48.947400" lon="8.644743">
<ele>260.5</ele>
<speed>1.10</speed>
<course>183.9</course>
<desc>Speed 4.0 km/h Distance 4.13 km</desc>
<time>2010-10-24T11:11:53.07</time>
<name>2512</name>
</trkpt>
<trkpt lat="48.947387" lon="8.644742">
<ele>260.0</ele>
<speed>0.94</speed>
<course>196.6</course>
<desc>Speed 3.4 km/h Distance 4.13 km</desc>
<time>2010-10-24T11:11:54.07</time>
<name>2513</name>
</trkpt>
<trkpt lat="48.947368" lon="8.644733">
<ele>259.0</ele>
<speed>1.46</speed>
<course>170.7</course>
<desc>Speed 5.3 km/h Distance 4.13 km</desc>
<time>2010-10-24T11:11:55.07</time>
<name>2514</name>
</trkpt>
<trkpt lat="48.947342" lon="8.644740">
<ele>259.5</ele>
<speed>2.70</speed>
<course>243.1</course>
<desc>Speed 9.7 km/h Distance 4.14 km</desc>
<time>2010-10-24T11:11:56.07</time>
<name>2515</name>
</trkpt>
<trkpt lat="48.947335" lon="8.644720">
<ele>258.0</ele>
<speed>1.41</speed>
<course>224.7</course>
<desc>Speed 5.1 km/h Distance 4.14 km</desc>
<time>2010-10-24T11:11:57.07</time>
<name>2516</name>
</trkpt>
<trkpt lat="48.947325" lon="8.644705">
<ele>257.5</ele>
<speed>1.13</speed>
<course>194.9</course>
<desc>Speed 4.1 km/h Distance 4.14 km</desc>
<time>2010-10-24T11:11:58.07</time>
<name>2517</name>
</trkpt>
<trkpt lat="48.947313" lon="8.644700">
<ele>256.5</ele>
<speed>1.15</speed>
<course>209.4</course>
<desc>Speed 4.1 km/h Distance 4.14 km</desc>
<time>2010-10-24T11:11:59.07</time>
<name>2518</name>
</trkpt>
<trkpt lat="48.947302" lon="8.644690">
<ele>256.5</ele>
<speed>1.16</speed>
<course>208.6</course>
<desc>Speed 4.2 km/h Distance 4.14 km</desc>
<time>2010-10-24T11:12:00.07</time>
<name>2519</name>
</trkpt>
<trkpt lat="48.947292" lon="8.644682">
<ele>256.0</ele>
<speed>1.00</speed>
<course>203.7</course>
<desc>Speed 3.6 km/h Distance 4.14 km</desc>
<time>2010-10-24T11:12:01.07</time>
<name>2520</name>
</trkpt>
<trkpt lat="48.947277" lon="8.644672">
<ele>256.0</ele>
<speed>1.30</speed>
<course>217.3</course>
<desc>Speed 4.7 km/h Distance 4.15 km</desc>
<time>2010-10-24T11:12:02.07</time>
<name>2521</name>
</trkpt>
<trkpt lat="48.947267" lon="8.644660">
<ele>254.5</ele>
<speed>1.07</speed>
<course>194.6</course>
<desc>Speed 3.9 km/h Distance 4.15 km</desc>
<time>2010-10-24T11:12:03.07</time>
<name>2522</name>
</trkpt>
<trkpt lat="48.947250" lon="8.644653">
<ele>253.0</ele>
<speed>1.08</speed>
<course>209.2</course>
<desc>Speed 3.9 km/h Distance 4.15 km</desc>
<time>2010-10-24T11:12:04.07</time>
<name>2523</name>
</trkpt>
<trkpt lat="48.947238" lon="8.644643">
<ele>252.5</ele>
<speed>1.16</speed>
<course>213.3</course>
<desc>Speed 4.2 km/h Distance 4.15 km</desc>
<time>2010-10-24T11:12:05.07</time>
<name>2524</name>
</trkpt>
<trkpt lat="48.947223" lon="8.644628">
<ele>252.5</ele>
<speed>1.23</speed>
<course>236.7</course>
<desc>Speed 4.4 km/h Distance 4.15 km</desc>
<time>2010-10-24T11:12:06.07</time>
<name>2525</name>
</trkpt>
<trkpt lat="48.947218" lon="8.644617">
<ele>252.5</ele>
<speed>0.81</speed>
<course>203.5</course>
<desc>Speed 2.9 km/h Distance 4.15 km</desc>
<time>2010-10-24T11:12:07.07</time>
<name>2526</name>
</trkpt>
<trkpt lat="48.947203" lon="8.644607">
<ele>252.0</ele>
<speed>1.12</speed>
<course>224.5</course>
<desc>Speed 4.0 km/h Distance 4.16 km</desc>
<time>2010-10-24T11:12:08.07</time>
<name>2527</name>
</trkpt>
<trkpt lat="48.947193" lon="8.644592">
<ele>251.5</ele>
<speed>1.02</speed>
<course>217.5</course>
<desc>Speed 3.7 km/h Distance 4.16 km</desc>
<time>2010-10-24T11:12:09.07</time>
<name>2528</name>
</trkpt>
<trkpt lat="48.947183" lon="8.644580">
<ele>251.0</ele>
<speed>1.23</speed>
<course>199.9</course>
<desc>Speed 4.4 km/h Distance 4.16 km</desc>
<time>2010-10-24T11:12:10.07</time>
<name>2529</name>
</trkpt>
<trkpt lat="48.947168" lon="8.644572">
<ele>251.5</ele>
<speed>1.27</speed>
<course>224.6</course>
<desc>Speed 4.6 km/h Distance 4.16 km</desc>
<time>2010-10-24T11:12:11.07</time>
<name>2530</name>
</trkpt>
<trkpt lat="48.947158" lon="8.644557">
<ele>251.0</ele>
<speed>1.26</speed>
<course>213.2</course>
<desc>Speed 4.5 km/h Distance 4.16 km</desc>
<time>2010-10-24T11:12:12.07</time>
<name>2531</name>
</trkpt>
<trkpt lat="48.947148" lon="8.644547">
<ele>250.0</ele>
<speed>0.97</speed>
<course>224.5</course>
<desc>Speed 3.5 km/h Distance 4.16 km</desc>
<time>2010-10-24T11:12:13.07</time>
<name>2532</name>
</trkpt>
<trkpt lat="48.947138" lon="8.644532">
<ele>250.5</ele>
<speed>1.01</speed>
<course>230.3</course>
<desc>Speed 3.6 km/h Distance 4.17 km</desc>
<time>2010-10-24T11:12:14.07</time>
<name>2533</name>
</trkpt>
<trkpt lat="48.947128" lon="8.644513">
<ele>250.5</ele>
<speed>1.23</speed>
<course>226.4</course>
<desc>Speed 4.4 km/h Distance 4.17 km</desc>
<time>2010-10-24T11:12:15.07</time>
<name>2534</name>
</trkpt>
<trkpt lat="48.947120" lon="8.644500">
<ele>250.0</ele>
<speed>1.20</speed>
<course>222.6</course>
<desc>Speed 4.3 km/h Distance 4.17 km</desc>
<time>2010-10-24T11:12:16.07</time>
<name>2535</name>
</trkpt>
<trkpt lat="48.947112" lon="8.644488">
<ele>250.5</ele>
<speed>1.25</speed>
<course>229.7</course>
<desc>Speed 4.5 km/h Distance 4.17 km</desc>
<time>2010-10-24T11:12:17.07</time>
<name>2536</name>
</trkpt>
<trkpt lat="48.947103" lon="8.644473">
<ele>249.5</ele>
<speed>1.35</speed>
<course>204.9</course>
<desc>Speed 4.9 km/h Distance 4.17 km</desc>
<time>2010-10-24T11:12:18.07</time>
<name>2537</name>
</trkpt>
<trkpt lat="48.947092" lon="8.644465">
<ele>250.5</ele>
<speed>1.11</speed>
<course>209.4</course>
<desc>Speed 4.0 km/h Distance 4.17 km</desc>
<time>2010-10-24T11:12:19.07</time>
<name>2538</name>
</trkpt>
<trkpt lat="48.947080" lon="8.644455">
<ele>250.5</ele>
<speed>1.14</speed>
<course>250.6</course>
<desc>Speed 4.1 km/h Distance 4.17 km</desc>
<time>2010-10-24T11:12:20.07</time>
<name>2539</name>
</trkpt>
<trkpt lat="48.947075" lon="8.644433">
<ele>249.5</ele>
<speed>1.49</speed>
<course>168.6</course>
<desc>Speed 5.4 km/h Distance 4.18 km</desc>
<time>2010-10-24T11:12:21.07</time>
<name>2540</name>
</trkpt>
<trkpt lat="48.947053" lon="8.644440">
<ele>251.0</ele>
<speed>1.75</speed>
<course>165.1</course>
<desc>Speed 6.3 km/h Distance 4.18 km</desc>
<time>2010-10-24T11:12:22.07</time>
<name>2541</name>
</trkpt>
<trkpt lat="48.947045" lon="8.644443">
<ele>252.5</ele>
<speed>0.87</speed>
<course>203.8</course>
<desc>Speed 3.1 km/h Distance 4.18 km</desc>
<time>2010-10-24T11:12:23.07</time>
<name>2542</name>
</trkpt>
<trkpt lat="48.947035" lon="8.644437">
<ele>252.5</ele>
<speed>1.26</speed>
<course>217.5</course>
<desc>Speed 4.5 km/h Distance 4.18 km</desc>
<time>2010-10-24T11:12:24.07</time>
<name>2543</name>
</trkpt>
<trkpt lat="48.947025" lon="8.644425">
<ele>252.0</ele>
<speed>1.20</speed>
<course>194.0</course>
<desc>Speed 4.3 km/h Distance 4.18 km</desc>
<time>2010-10-24T11:12:25.07</time>
<name>2544</name>
</trkpt>
<trkpt lat="48.947012" lon="8.644420">
<ele>252.0</ele>
<speed>1.37</speed>
<course>192.3</course>
<desc>Speed 4.9 km/h Distance 4.18 km</desc>
<time>2010-10-24T11:12:26.07</time>
<name>2545</name>
</trkpt>
<trkpt lat="48.946992" lon="8.644413">
<ele>252.0</ele>
<speed>1.66</speed>
<course>206.2</course>
<desc>Speed 6.0 km/h Distance 4.19 km</desc>
<time>2010-10-24T11:12:27.07</time>
<name>2546</name>
</trkpt>
<trkpt lat="48.946978" lon="8.644403">
<ele>253.0</ele>
<speed>1.29</speed>
<course>198.2</course>
<desc>Speed 4.6 km/h Distance 4.19 km</desc>
<time>2010-10-24T11:12:28.07</time>
<name>2547</name>
</trkpt>
<trkpt lat="48.946968" lon="8.644398">
<ele>253.5</ele>
<speed>1.13</speed>
<course>194.9</course>
<desc>Speed 4.1 km/h Distance 4.19 km</desc>
<time>2010-10-24T11:12:29.07</time>
<name>2548</name>
</trkpt>
<trkpt lat="48.946952" lon="8.644392">
<ele>253.5</ele>
<speed>1.58</speed>
<course>194.9</course>
<desc>Speed 5.7 km/h Distance 4.19 km</desc>
<time>2010-10-24T11:12:30.07</time>
<name>2549</name>
</trkpt>
<trkpt lat="48.946935" lon="8.644385">
<ele>253.0</ele>
<speed>1.72</speed>
<course>226.4</course>
<desc>Speed 6.2 km/h Distance 4.19 km</desc>
<time>2010-10-24T11:12:31.07</time>
<name>2550</name>
</trkpt>
<trkpt lat="48.946927" lon="8.644372">
<ele>253.5</ele>
<speed>1.00</speed>
<course>217.5</course>
<desc>Speed 3.6 km/h Distance 4.19 km</desc>
<time>2010-10-24T11:12:32.07</time>
<name>2551</name>
</trkpt>
<trkpt lat="48.946917" lon="8.644360">
<ele>255.0</ele>
<speed>0.94</speed>
<course>188.8</course>
<desc>Speed 3.4 km/h Distance 4.19 km</desc>
<time>2010-10-24T11:12:33.07</time>
<name>2552</name>
</trkpt>
<trkpt lat="48.946902" lon="8.644357">
<ele>256.5</ele>
<speed>1.26</speed>
<course>173.9</course>
<desc>Speed 4.5 km/h Distance 4.20 km</desc>
<time>2010-10-24T11:12:34.07</time>
<name>2553</name>
</trkpt>
<trkpt lat="48.946882" lon="8.644360">
<ele>258.0</ele>
<speed>1.15</speed>
<course>190.4</course>
<desc>Speed 4.1 km/h Distance 4.20 km</desc>
<time>2010-10-24T11:12:35.07</time>
<name>2554</name>
</trkpt>
<trkpt lat="48.946865" lon="8.644355">
<ele>258.5</ele>
<speed>1.30</speed>
<course>196.6</course>
<desc>Speed 4.7 km/h Distance 4.20 km</desc>
<time>2010-10-24T11:12:36.07</time>
<name>2555</name>
</trkpt>
<trkpt lat="48.946847" lon="8.644347">
<ele>258.0</ele>
<speed>1.36</speed>
<course>193.6</course>
<desc>Speed 4.9 km/h Distance 4.20 km</desc>
<time>2010-10-24T11:12:37.07</time>
<name>2556</name>
</trkpt>
<trkpt lat="48.946828" lon="8.644340">
<ele>257.0</ele>
<speed>1.14</speed>
<course>210.0</course>
<desc>Speed 4.1 km/h Distance 4.21 km</desc>
<time>2010-10-24T11:12:38.07</time>
<name>2557</name>
</trkpt>
<trkpt lat="48.946815" lon="8.644328">
<ele>257.0</ele>
<speed>1.10</speed>
<course>232.6</course>
<desc>Speed 4.0 km/h Distance 4.21 km</desc>
<time>2010-10-24T11:12:39.07</time>
<name>2558</name>
</trkpt>
<trkpt lat="48.946810" lon="8.644318">
<ele>257.0</ele>
<speed>1.02</speed>
<course>243.1</course>
<desc>Speed 3.7 km/h Distance 4.21 km</desc>
<time>2010-10-24T11:12:40.07</time>
<name>2559</name>
</trkpt>
<trkpt lat="48.946805" lon="8.644303">
<ele>256.0</ele>
<speed>1.19</speed>
<course>203.4</course>
<desc>Speed 4.3 km/h Distance 4.21 km</desc>
<time>2010-10-24T11:12:41.07</time>
<name>2560</name>
</trkpt>
<trkpt lat="48.946795" lon="8.644297">
<ele>255.5</ele>
<speed>1.26</speed>
<course>218.1</course>
<desc>Speed 4.5 km/h Distance 4.21 km</desc>
<time>2010-10-24T11:12:42.07</time>
<name>2561</name>
</trkpt>
<trkpt lat="48.946787" lon="8.644287">
<ele>255.5</ele>
<speed>1.16</speed>
<course>227.6</course>
<desc>Speed 4.2 km/h Distance 4.21 km</desc>
<time>2010-10-24T11:12:43.07</time>
<name>2562</name>
</trkpt>
<trkpt lat="48.946777" lon="8.644270">
<ele>255.0</ele>
<speed>1.24</speed>
<course>207.9</course>
<desc>Speed 4.5 km/h Distance 4.21 km</desc>
<time>2010-10-24T11:12:44.07</time>
<name>2563</name>
</trkpt>
<trkpt lat="48.946768" lon="8.644263">
<ele>255.0</ele>
<speed>1.14</speed>
<course>240.2</course>
<desc>Speed 4.1 km/h Distance 4.21 km</desc>
<time>2010-10-24T11:12:45.07</time>
<name>2564</name>
</trkpt>
<trkpt lat="48.946763" lon="8.644250">
<ele>255.0</ele>
<speed>0.99</speed>
<course>200.8</course>
<desc>Speed 3.6 km/h Distance 4.22 km</desc>
<time>2010-10-24T11:12:46.07</time>
<name>2565</name>
</trkpt>
<trkpt lat="48.946755" lon="8.644245">
<ele>255.5</ele>
<speed>1.12</speed>
<course>216.9</course>
<desc>Speed 4.0 km/h Distance 4.22 km</desc>
<time>2010-10-24T11:12:47.07</time>
<name>2566</name>
</trkpt>
<trkpt lat="48.946743" lon="8.644232">
<ele>255.5</ele>
<speed>1.33</speed>
<course>159.0</course>
<desc>Speed 4.8 km/h Distance 4.22 km</desc>
<time>2010-10-24T11:12:48.07</time>
<name>2567</name>
</trkpt>
<trkpt lat="48.946723" lon="8.644243">
<ele>258.0</ele>
<speed>1.95</speed>
<course>224.3</course>
<desc>Speed 7.0 km/h Distance 4.22 km</desc>
<time>2010-10-24T11:12:49.07</time>
<name>2568</name>
</trkpt>
<trkpt lat="48.946717" lon="8.644233">
<ele>258.5</ele>
<speed>1.02</speed>
<course>180.0</course>
<desc>Speed 3.7 km/h Distance 4.22 km</desc>
<time>2010-10-24T11:12:50.07</time>
<name>2569</name>
</trkpt>
<trkpt lat="48.946702" lon="8.644232">
<ele>259.0</ele>
<speed>1.07</speed>
<course>187.7</course>
<desc>Speed 3.9 km/h Distance 4.22 km</desc>
<time>2010-10-24T11:12:51.07</time>
<name>2570</name>
</trkpt>
<trkpt lat="48.946685" lon="8.644228">
<ele>259.0</ele>
<speed>1.35</speed>
<course>191.6</course>
<desc>Speed 4.9 km/h Distance 4.22 km</desc>
<time>2010-10-24T11:12:52.07</time>
<name>2571</name>
</trkpt>
<trkpt lat="48.946675" lon="8.644225">
<ele>259.5</ele>
<speed>1.11</speed>
<course>196.0</course>
<desc>Speed 4.0 km/h Distance 4.23 km</desc>
<time>2010-10-24T11:12:53.07</time>
<name>2572</name>
</trkpt>
<trkpt lat="48.946663" lon="8.644220">
<ele>259.5</ele>
<speed>1.21</speed>
<course>194.4</course>
<desc>Speed 4.4 km/h Distance 4.23 km</desc>
<time>2010-10-24T11:12:54.07</time>
<name>2573</name>
</trkpt>
<trkpt lat="48.946650" lon="8.644215">
<ele>260.0</ele>
<speed>1.29</speed>
<course>200.9</course>
<desc>Speed 4.6 km/h Distance 4.23 km</desc>
<time>2010-10-24T11:12:55.07</time>
<name>2574</name>
</trkpt>
<trkpt lat="48.946638" lon="8.644208">
<ele>261.0</ele>
<speed>1.33</speed>
<course>229.1</course>
<desc>Speed 4.8 km/h Distance 4.23 km</desc>
<time>2010-10-24T11:12:56.07</time>
<name>2575</name>
</trkpt>
<trkpt lat="48.946632" lon="8.644197">
<ele>261.5</ele>
<speed>1.29</speed>
<course>208.6</course>
<desc>Speed 4.6 km/h Distance 4.23 km</desc>
<time>2010-10-24T11:12:57.07</time>
<name>2576</name>
</trkpt>
<trkpt lat="48.946622" lon="8.644188">
<ele>262.0</ele>
<speed>1.23</speed>
<course>209.4</course>
<desc>Speed 4.4 km/h Distance 4.23 km</desc>
<time>2010-10-24T11:12:58.07</time>
<name>2577</name>
</trkpt>
<trkpt lat="48.946610" lon="8.644178">
<ele>262.0</ele>
<speed>1.36</speed>
<course>213.1</course>
<desc>Speed 4.9 km/h Distance 4.23 km</desc>
<time>2010-10-24T11:12:59.07</time>
<name>2578</name>
</trkpt>
<trkpt lat="48.946598" lon="8.644167">
<ele>262.0</ele>
<speed>1.19</speed>
<course>185.3</course>
<desc>Speed 4.3 km/h Distance 4.24 km</desc>
<time>2010-10-24T11:13:00.07</time>
<name>2579</name>
</trkpt>
<trkpt lat="48.946585" lon="8.644165">
<ele>262.5</ele>
<speed>1.35</speed>
<course>210.0</course>
<desc>Speed 4.9 km/h Distance 4.24 km</desc>
<time>2010-10-24T11:13:01.07</time>
<name>2580</name>
</trkpt>
<trkpt lat="48.946572" lon="8.644153">
<ele>261.5</ele>
<speed>1.37</speed>
<course>206.2</course>
<desc>Speed 4.9 km/h Distance 4.24 km</desc>
<time>2010-10-24T11:13:02.07</time>
<name>2581</name>
</trkpt>
<trkpt lat="48.946558" lon="8.644143">
<ele>261.0</ele>
<speed>1.22</speed>
<course>213.3</course>
<desc>Speed 4.4 km/h Distance 4.24 km</desc>
<time>2010-10-24T11:13:03.07</time>
<name>2582</name>
</trkpt>
<trkpt lat="48.946542" lon="8.644127">
<ele>260.0</ele>
<speed>1.54</speed>
<course>192.6</course>
<desc>Speed 5.5 km/h Distance 4.24 km</desc>
<time>2010-10-24T11:13:04.07</time>
<name>2583</name>
</trkpt>
<trkpt lat="48.946533" lon="8.644123">
<ele>261.5</ele>
<speed>1.42</speed>
<course>206.9</course>
<desc>Speed 5.1 km/h Distance 4.24 km</desc>
<time>2010-10-24T11:13:05.07</time>
<name>2584</name>
</trkpt>
<trkpt lat="48.946518" lon="8.644112">
<ele>261.0</ele>
<speed>1.36</speed>
<course>218.1</course>
<desc>Speed 4.9 km/h Distance 4.25 km</desc>
<time>2010-10-24T11:13:06.07</time>
<name>2585</name>
</trkpt>
<trkpt lat="48.946510" lon="8.644102">
<ele>261.5</ele>
<speed>1.10</speed>
<course>163.3</course>
<desc>Speed 4.0 km/h Distance 4.25 km</desc>
<time>2010-10-24T11:13:07.07</time>
<name>2586</name>
</trkpt>
<trkpt lat="48.946488" lon="8.644112">
<ele>263.0</ele>
<speed>2.24</speed>
<course>239.6</course>
<desc>Speed 8.1 km/h Distance 4.25 km</desc>
<time>2010-10-24T11:13:08.07</time>
<name>2587</name>
</trkpt>
<trkpt lat="48.946480" lon="8.644090">
<ele>261.5</ele>
<speed>1.60</speed>
<course>220.2</course>
<desc>Speed 5.8 km/h Distance 4.25 km</desc>
<time>2010-10-24T11:13:09.07</time>
<name>2588</name>
</trkpt>
<trkpt lat="48.946468" lon="8.644075">
<ele>260.0</ele>
<speed>1.41</speed>
<course>226.4</course>
<desc>Speed 5.1 km/h Distance 4.25 km</desc>
<time>2010-10-24T11:13:10.07</time>
<name>2589</name>
</trkpt>
<trkpt lat="48.946460" lon="8.644062">
<ele>260.0</ele>
<speed>1.25</speed>
<course>226.4</course>
<desc>Speed 4.5 km/h Distance 4.25 km</desc>
<time>2010-10-24T11:13:11.07</time>
<name>2590</name>
</trkpt>
<trkpt lat="48.946452" lon="8.644048">
<ele>260.5</ele>
<speed>1.15</speed>
<course>221.2</course>
<desc>Speed 4.1 km/h Distance 4.26 km</desc>
<time>2010-10-24T11:13:12.07</time>
<name>2591</name>
</trkpt>
<trkpt lat="48.946442" lon="8.644035">
<ele>259.5</ele>
<speed>1.28</speed>
<course>235.3</course>
<desc>Speed 4.6 km/h Distance 4.26 km</desc>
<time>2010-10-24T11:13:13.07</time>
<name>2592</name>
</trkpt>
<trkpt lat="48.946433" lon="8.644017">
<ele>259.0</ele>
<speed>1.25</speed>
<course>201.5</course>
<desc>Speed 4.5 km/h Distance 4.26 km</desc>
<time>2010-10-24T11:13:14.07</time>
<name>2593</name>
</trkpt>
<trkpt lat="48.946417" lon="8.644007">
<ele>258.5</ele>
<speed>1.36</speed>
<course>221.4</course>
<desc>Speed 4.9 km/h Distance 4.26 km</desc>
<time>2010-10-24T11:13:15.07</time>
<name>2594</name>
</trkpt>
<trkpt lat="48.946412" lon="8.644000">
<ele>260.0</ele>
<speed>0.74</speed>
<course>180.0</course>
<desc>Speed 2.7 km/h Distance 4.26 km</desc>
<time>2010-10-24T11:13:16.07</time>
<name>2595</name>
</trkpt>
<trkpt lat="48.946395" lon="8.644000">
<ele>262.5</ele>
<speed>1.83</speed>
<course>208.6</course>
<desc>Speed 6.6 km/h Distance 4.26 km</desc>
<time>2010-10-24T11:13:17.07</time>
<name>2596</name>
</trkpt>
<trkpt lat="48.946385" lon="8.643992">
<ele>262.5</ele>
<speed>1.25</speed>
<course>169.6</course>
<desc>Speed 4.5 km/h Distance 4.26 km</desc>
<time>2010-10-24T11:13:18.07</time>
<name>2597</name>
</trkpt>
<trkpt lat="48.946373" lon="8.643995">
<ele>264.0</ele>
<speed>1.26</speed>
<course>191.2</course>
<desc>Speed 4.5 km/h Distance 4.27 km</desc>
<time>2010-10-24T11:13:19.07</time>
<name>2598</name>
</trkpt>
<trkpt lat="48.946357" lon="8.643990">
<ele>264.0</ele>
<speed>1.23</speed>
<course>197.0</course>
<desc>Speed 4.4 km/h Distance 4.27 km</desc>
<time>2010-10-24T11:13:20.07</time>
<name>2599</name>
</trkpt>
<trkpt lat="48.946335" lon="8.643980">
<ele>263.5</ele>
<speed>1.69</speed>
<course>213.7</course>
<desc>Speed 6.1 km/h Distance 4.27 km</desc>
<time>2010-10-24T11:13:21.07</time>
<name>2600</name>
</trkpt>
<trkpt lat="48.946328" lon="8.643973">
<ele>264.5</ele>
<speed>0.81</speed>
<course>222.6</course>
<desc>Speed 2.9 km/h Distance 4.27 km</desc>
<time>2010-10-24T11:13:22.07</time>
<name>2601</name>
</trkpt>
<trkpt lat="48.946320" lon="8.643962">
<ele>264.0</ele>
<speed>1.12</speed>
<course>213.5</course>
<desc>Speed 4.0 km/h Distance 4.27 km</desc>
<time>2010-10-24T11:13:23.07</time>
<name>2602</name>
</trkpt>
<trkpt lat="48.946312" lon="8.643953">
<ele>264.0</ele>
<speed>1.17</speed>
<course>216.9</course>
<desc>Speed 4.2 km/h Distance 4.27 km</desc>
<time>2010-10-24T11:13:24.07</time>
<name>2603</name>
</trkpt>
<trkpt lat="48.946300" lon="8.643940">
<ele>264.0</ele>
<speed>1.32</speed>
<course>232.7</course>
<desc>Speed 4.8 km/h Distance 4.27 km</desc>
<time>2010-10-24T11:13:25.07</time>
<name>2604</name>
</trkpt>
<trkpt lat="48.946293" lon="8.643927">
<ele>264.5</ele>
<speed>1.03</speed>
<course>209.8</course>
<desc>Speed 3.7 km/h Distance 4.28 km</desc>
<time>2010-10-24T11:13:26.07</time>
<name>2605</name>
</trkpt>
<trkpt lat="48.946280" lon="8.643915">
<ele>265.0</ele>
<speed>1.15</speed>
<course>205.5</course>
<desc>Speed 4.1 km/h Distance 4.28 km</desc>
<time>2010-10-24T11:13:27.07</time>
<name>2606</name>
</trkpt>
<trkpt lat="48.946262" lon="8.643902">
<ele>264.5</ele>
<speed>1.32</speed>
<course>235.4</course>
<desc>Speed 4.8 km/h Distance 4.28 km</desc>
<time>2010-10-24T11:13:28.07</time>
<name>2607</name>
</trkpt>
<trkpt lat="48.946253" lon="8.643883">
<ele>264.0</ele>
<speed>1.01</speed>
<course>207.2</course>
<desc>Speed 3.6 km/h Distance 4.28 km</desc>
<time>2010-10-24T11:13:29.07</time>
<name>2608</name>
</trkpt>
<trkpt lat="48.946238" lon="8.643872">
<ele>263.0</ele>
<speed>1.25</speed>
<course>216.5</course>
<desc>Speed 4.5 km/h Distance 4.28 km</desc>
<time>2010-10-24T11:13:30.07</time>
<name>2609</name>
</trkpt>
<trkpt lat="48.946225" lon="8.643857">
<ele>262.5</ele>
<speed>1.24</speed>
<course>204.7</course>
<desc>Speed 4.5 km/h Distance 4.29 km</desc>
<time>2010-10-24T11:13:31.07</time>
<name>2610</name>
</trkpt>
<trkpt lat="48.946208" lon="8.643845">
<ele>262.5</ele>
<speed>1.19</speed>
<course>207.9</course>
<desc>Speed 4.3 km/h Distance 4.29 km</desc>
<time>2010-10-24T11:13:32.07</time>
<name>2611</name>
</trkpt>
<trkpt lat="48.946200" lon="8.643838">
<ele>263.0</ele>
<speed>0.95</speed>
<course>184.7</course>
<desc>Speed 3.4 km/h Distance 4.29 km</desc>
<time>2010-10-24T11:13:33.07</time>
<name>2612</name>
</trkpt>
<trkpt lat="48.946188" lon="8.643837">
<ele>263.0</ele>
<speed>1.11</speed>
<course>189.0</course>
<desc>Speed 4.0 km/h Distance 4.29 km</desc>
<time>2010-10-24T11:13:34.07</time>
<name>2613</name>
</trkpt>
<trkpt lat="48.946175" lon="8.643833">
<ele>263.0</ele>
<speed>1.09</speed>
<course>175.3</course>
<desc>Speed 3.9 km/h Distance 4.29 km</desc>
<time>2010-10-24T11:13:35.07</time>
<name>2614</name>
</trkpt>
<trkpt lat="48.946163" lon="8.643835">
<ele>265.5</ele>
<speed>1.04</speed>
<course>199.9</course>
<desc>Speed 3.7 km/h Distance 4.29 km</desc>
<time>2010-10-24T11:13:36.07</time>
<name>2615</name>
</trkpt>
<trkpt lat="48.946148" lon="8.643827">
<ele>265.5</ele>
<speed>1.25</speed>
<course>210.0</course>
<desc>Speed 4.5 km/h Distance 4.29 km</desc>
<time>2010-10-24T11:13:37.07</time>
<name>2616</name>
</trkpt>
<trkpt lat="48.946135" lon="8.643815">
<ele>265.5</ele>
<speed>1.37</speed>
<course>213.4</course>
<desc>Speed 4.9 km/h Distance 4.30 km</desc>
<time>2010-10-24T11:13:38.07</time>
<name>2617</name>
</trkpt>
<trkpt lat="48.946120" lon="8.643800">
<ele>265.5</ele>
<speed>1.33</speed>
<course>176.9</course>
<desc>Speed 4.8 km/h Distance 4.30 km</desc>
<time>2010-10-24T11:13:39.07</time>
<name>2618</name>
</trkpt>
<trkpt lat="48.946095" lon="8.643802">
<ele>268.0</ele>
<speed>2.05</speed>
<course>194.9</course>
<desc>Speed 7.4 km/h Distance 4.30 km</desc>
<time>2010-10-24T11:13:40.07</time>
<name>2619</name>
</trkpt>
<trkpt lat="48.946078" lon="8.643795">
<ele>269.0</ele>
<speed>1.45</speed>
<course>205.2</course>
<desc>Speed 5.2 km/h Distance 4.30 km</desc>
<time>2010-10-24T11:13:41.07</time>
<name>2620</name>
</trkpt>
<trkpt lat="48.946067" lon="8.643787">
<ele>269.0</ele>
<speed>1.25</speed>
<course>209.8</course>
<desc>Speed 4.5 km/h Distance 4.30 km</desc>
<time>2010-10-24T11:13:42.07</time>
<name>2621</name>
</trkpt>
<trkpt lat="48.946053" lon="8.643775">
<ele>269.5</ele>
<speed>1.30</speed>
<course>203.5</course>
<desc>Speed 4.7 km/h Distance 4.31 km</desc>
<time>2010-10-24T11:13:43.07</time>
<name>2622</name>
</trkpt>
<trkpt lat="48.946038" lon="8.643765">
<ele>269.5</ele>
<speed>1.36</speed>
<course>213.2</course>
<desc>Speed 4.9 km/h Distance 4.31 km</desc>
<time>2010-10-24T11:13:44.07</time>
<name>2623</name>
</trkpt>
<trkpt lat="48.946028" lon="8.643755">
<ele>269.5</ele>
<speed>1.12</speed>
<course>221.3</course>
<desc>Speed 4.0 km/h Distance 4.31 km</desc>
<time>2010-10-24T11:13:45.07</time>
<name>2624</name>
</trkpt>
<trkpt lat="48.946018" lon="8.643742">
<ele>269.0</ele>
<speed>1.28</speed>
<course>235.4</course>
<desc>Speed 4.6 km/h Distance 4.31 km</desc>
<time>2010-10-24T11:13:46.07</time>
<name>2625</name>
</trkpt>
<trkpt lat="48.946010" lon="8.643723">
<ele>269.0</ele>
<speed>1.20</speed>
<course>168.5</course>
<desc>Speed 4.3 km/h Distance 4.31 km</desc>
<time>2010-10-24T11:13:47.07</time>
<name>2626</name>
</trkpt>
<trkpt lat="48.945983" lon="8.643732">
<ele>272.5</ele>
<speed>1.36</speed>
<course>208.6</course>
<desc>Speed 4.9 km/h Distance 4.32 km</desc>
<time>2010-10-24T11:13:48.07</time>
<name>2627</name>
</trkpt>
<trkpt lat="48.945973" lon="8.643723">
<ele>272.5</ele>
<speed>1.17</speed>
<course>198.2</course>
<desc>Speed 4.2 km/h Distance 4.32 km</desc>
<time>2010-10-24T11:13:49.07</time>
<name>2628</name>
</trkpt>
<trkpt lat="48.945963" lon="8.643718">
<ele>273.0</ele>
<speed>1.04</speed>
<course>232.8</course>
<desc>Speed 3.7 km/h Distance 4.32 km</desc>
<time>2010-10-24T11:13:50.07</time>
<name>2629</name>
</trkpt>
<trkpt lat="48.945958" lon="8.643708">
<ele>274.0</ele>
<speed>1.01</speed>
<course>164.9</course>
<desc>Speed 3.6 km/h Distance 4.32 km</desc>
<time>2010-10-24T11:13:51.07</time>
<name>2630</name>
</trkpt>
<trkpt lat="48.945922" lon="8.643723">
<ele>281.5</ele>
<speed>1.48</speed>
<course>205.2</course>
<desc>Speed 5.3 km/h Distance 4.32 km</desc>
<time>2010-10-24T11:13:53.07</time>
<name>2631</name>
</trkpt>
<trkpt lat="48.945910" lon="8.643715">
<ele>282.0</ele>
<speed>1.15</speed>
<course>194.9</course>
<desc>Speed 4.1 km/h Distance 4.32 km</desc>
<time>2010-10-24T11:13:54.07</time>
<name>2632</name>
</trkpt>
<trkpt lat="48.945898" lon="8.643710">
<ele>282.0</ele>
<speed>1.23</speed>
<course>186.5</course>
<desc>Speed 4.4 km/h Distance 4.33 km</desc>
<time>2010-10-24T11:13:55.07</time>
<name>2633</name>
</trkpt>
<trkpt lat="48.945880" lon="8.643707">
<ele>281.5</ele>
<speed>1.47</speed>
<course>216.9</course>
<desc>Speed 5.3 km/h Distance 4.33 km</desc>
<time>2010-10-24T11:13:56.07</time>
<name>2634</name>
</trkpt>
<trkpt lat="48.945868" lon="8.643693">
<ele>281.5</ele>
<speed>1.45</speed>
<course>224.7</course>
<desc>Speed 5.2 km/h Distance 4.33 km</desc>
<time>2010-10-24T11:13:57.07</time>
<name>2635</name>
</trkpt>
<trkpt lat="48.945858" lon="8.643678">
<ele>282.0</ele>
<speed>1.22</speed>
<course>232.7</course>
<desc>Speed 4.4 km/h Distance 4.33 km</desc>
<time>2010-10-24T11:13:58.07</time>
<name>2636</name>
</trkpt>
<trkpt lat="48.945852" lon="8.643665">
<ele>282.5</ele>
<speed>1.08</speed>
<course>195.5</course>
<desc>Speed 3.9 km/h Distance 4.33 km</desc>
<time>2010-10-24T11:13:59.07</time>
<name>2637</name>
</trkpt>
<trkpt lat="48.945840" lon="8.643660">
<ele>284.0</ele>
<speed>1.01</speed>
<course>190.8</course>
<desc>Speed 3.6 km/h Distance 4.33 km</desc>
<time>2010-10-24T11:14:00.07</time>
<name>2638</name>
</trkpt>
<trkpt lat="48.945823" lon="8.643655">
<ele>285.5</ele>
<speed>1.12</speed>
<course>190.2</course>
<desc>Speed 4.0 km/h Distance 4.34 km</desc>
<time>2010-10-24T11:14:01.07</time>
<name>2639</name>
</trkpt>
<trkpt lat="48.945805" lon="8.643650">
<ele>287.5</ele>
<speed>1.00</speed>
<course>202.6</course>
<desc>Speed 3.6 km/h Distance 4.34 km</desc>
<time>2010-10-24T11:14:02.07</time>
<name>2640</name>
</trkpt>
<trkpt lat="48.945792" lon="8.643642">
<ele>287.5</ele>
<speed>1.21</speed>
<course>220.3</course>
<desc>Speed 4.4 km/h Distance 4.34 km</desc>
<time>2010-10-24T11:14:03.07</time>
<name>2641</name>
</trkpt>
<trkpt lat="48.945780" lon="8.643627">
<ele>287.0</ele>
<speed>1.16</speed>
<course>177.8</course>
<desc>Speed 4.2 km/h Distance 4.34 km</desc>
<time>2010-10-24T11:14:04.07</time>
<name>2642</name>
</trkpt>
<trkpt lat="48.945757" lon="8.643628">
<ele>290.0</ele>
<speed>1.39</speed>
<course>235.0</course>
<desc>Speed 5.0 km/h Distance 4.34 km</desc>
<time>2010-10-24T11:14:05.07</time>
<name>2643</name>
</trkpt>
<trkpt lat="48.945747" lon="8.643607">
<ele>289.5</ele>
<speed>1.46</speed>
<course>209.4</course>
<desc>Speed 5.3 km/h Distance 4.35 km</desc>
<time>2010-10-24T11:14:06.07</time>
<name>2644</name>
</trkpt>
<trkpt lat="48.945735" lon="8.643597">
<ele>289.5</ele>
<speed>1.35</speed>
<course>198.1</course>
<desc>Speed 4.9 km/h Distance 4.35 km</desc>
<time>2010-10-24T11:14:07.07</time>
<name>2645</name>
</trkpt>
<trkpt lat="48.945722" lon="8.643590">
<ele>290.0</ele>
<speed>1.28</speed>
<course>199.9</course>
<desc>Speed 4.6 km/h Distance 4.35 km</desc>
<time>2010-10-24T11:14:08.07</time>
<name>2646</name>
</trkpt>
<trkpt lat="48.945707" lon="8.643582">
<ele>290.0</ele>
<speed>1.29</speed>
<course>205.2</course>
<desc>Speed 4.6 km/h Distance 4.35 km</desc>
<time>2010-10-24T11:14:09.07</time>
<name>2647</name>
</trkpt>
<trkpt lat="48.945695" lon="8.643573">
<ele>290.0</ele>
<speed>1.22</speed>
<course>207.2</course>
<desc>Speed 4.4 km/h Distance 4.35 km</desc>
<time>2010-10-24T11:14:10.07</time>
<name>2648</name>
</trkpt>
<trkpt lat="48.945680" lon="8.643562">
<ele>290.0</ele>
<speed>1.37</speed>
<course>206.9</course>
<desc>Speed 4.9 km/h Distance 4.35 km</desc>
<time>2010-10-24T11:14:11.07</time>
<name>2649</name>
</trkpt>
<trkpt lat="48.945665" lon="8.643550">
<ele>289.5</ele>
<speed>1.34</speed>
<course>246.5</course>
<desc>Speed 4.8 km/h Distance 4.36 km</desc>
<time>2010-10-24T11:14:12.07</time>
<name>2650</name>
</trkpt>
<trkpt lat="48.945658" lon="8.643527">
<ele>290.0</ele>
<speed>1.33</speed>
<course>225.9</course>
<desc>Speed 4.8 km/h Distance 4.36 km</desc>
<time>2010-10-24T11:14:13.07</time>
<name>2651</name>
</trkpt>
<trkpt lat="48.945647" lon="8.643508">
<ele>289.5</ele>
<speed>1.48</speed>
<course>237.6</course>
<desc>Speed 5.3 km/h Distance 4.36 km</desc>
<time>2010-10-24T11:14:14.07</time>
<name>2652</name>
</trkpt>
<trkpt lat="48.945638" lon="8.643488">
<ele>289.0</ele>
<speed>1.32</speed>
<course>213.3</course>
<desc>Speed 4.8 km/h Distance 4.36 km</desc>
<time>2010-10-24T11:14:15.07</time>
<name>2653</name>
</trkpt>
<trkpt lat="48.945623" lon="8.643473">
<ele>288.5</ele>
<speed>1.57</speed>
<course>206.0</course>
<desc>Speed 5.7 km/h Distance 4.36 km</desc>
<time>2010-10-24T11:14:16.07</time>
<name>2654</name>
</trkpt>
<trkpt lat="48.945610" lon="8.643463">
<ele>288.0</ele>
<speed>1.34</speed>
<course>221.2</course>
<desc>Speed 4.8 km/h Distance 4.36 km</desc>
<time>2010-10-24T11:14:17.07</time>
<name>2655</name>
</trkpt>
<trkpt lat="48.945600" lon="8.643450">
<ele>288.5</ele>
<speed>0.92</speed>
<course>221.4</course>
<desc>Speed 3.3 km/h Distance 4.37 km</desc>
<time>2010-10-24T11:14:18.07</time>
<name>2656</name>
</trkpt>
<trkpt lat="48.945590" lon="8.643437">
<ele>289.0</ele>
<speed>1.00</speed>
<course>209.4</course>
<desc>Speed 3.6 km/h Distance 4.37 km</desc>
<time>2010-10-24T11:14:19.07</time>
<name>2657</name>
</trkpt>
<trkpt lat="48.945578" lon="8.643427">
<ele>289.0</ele>
<speed>1.21</speed>
<course>209.4</course>
<desc>Speed 4.4 km/h Distance 4.37 km</desc>
<time>2010-10-24T11:14:20.07</time>
<name>2658</name>
</trkpt>
<trkpt lat="48.945567" lon="8.643417">
<ele>288.5</ele>
<speed>1.32</speed>
<course>243.1</course>
<desc>Speed 4.8 km/h Distance 4.37 km</desc>
<time>2010-10-24T11:14:21.07</time>
<name>2659</name>
</trkpt>
<trkpt lat="48.945562" lon="8.643402">
<ele>288.5</ele>
<speed>1.07</speed>
<course>206.2</course>
<desc>Speed 3.9 km/h Distance 4.37 km</desc>
<time>2010-10-24T11:14:22.07</time>
<name>2660</name>
</trkpt>
<trkpt lat="48.945548" lon="8.643392">
<ele>288.0</ele>
<speed>1.50</speed>
<course>213.4</course>
<desc>Speed 5.4 km/h Distance 4.37 km</desc>
<time>2010-10-24T11:14:23.07</time>
<name>2661</name>
</trkpt>
<trkpt lat="48.945537" lon="8.643380">
<ele>288.0</ele>
<speed>1.26</speed>
<course>189.7</course>
<desc>Speed 4.5 km/h Distance 4.37 km</desc>
<time>2010-10-24T11:14:24.07</time>
<name>2662</name>
</trkpt>
<trkpt lat="48.945523" lon="8.643377">
<ele>288.0</ele>
<speed>1.44</speed>
<course>200.9</course>
<desc>Speed 5.2 km/h Distance 4.38 km</desc>
<time>2010-10-24T11:14:25.07</time>
<name>2663</name>
</trkpt>
<trkpt lat="48.945512" lon="8.643370">
<ele>288.0</ele>
<speed>1.35</speed>
<course>198.1</course>
<desc>Speed 4.9 km/h Distance 4.38 km</desc>
<time>2010-10-24T11:14:26.07</time>
<name>2664</name>
</trkpt>
<trkpt lat="48.945498" lon="8.643363">
<ele>288.0</ele>
<speed>1.44</speed>
<course>200.6</course>
<desc>Speed 5.2 km/h Distance 4.38 km</desc>
<time>2010-10-24T11:14:27.07</time>
<name>2665</name>
</trkpt>
<trkpt lat="48.945487" lon="8.643357">
<ele>287.5</ele>
<speed>1.38</speed>
<course>198.1</course>
<desc>Speed 5.0 km/h Distance 4.38 km</desc>
<time>2010-10-24T11:14:28.07</time>
<name>2666</name>
</trkpt>
<trkpt lat="48.945473" lon="8.643350">
<ele>287.5</ele>
<speed>1.36</speed>
<course>203.0</course>
<desc>Speed 4.9 km/h Distance 4.38 km</desc>
<time>2010-10-24T11:14:29.07</time>
<name>2667</name>
</trkpt>
<trkpt lat="48.945463" lon="8.643343">
<ele>287.0</ele>
<speed>1.09</speed>
<course>187.4</course>
<desc>Speed 3.9 km/h Distance 4.38 km</desc>
<time>2010-10-24T11:14:30.07</time>
<name>2668</name>
</trkpt>
<trkpt lat="48.945457" lon="8.643342">
<ele>287.5</ele>
<speed>1.07</speed>
<course>180.0</course>
<desc>Speed 3.9 km/h Distance 4.38 km</desc>
<time>2010-10-24T11:14:31.07</time>
<name>2669</name>
</trkpt>
<trkpt lat="48.945452" lon="8.643342">
<ele>288.0</ele>
<speed>0.97</speed>
<course>167.4</course>
<desc>Speed 3.5 km/h Distance 4.38 km</desc>
<time>2010-10-24T11:14:32.07</time>
<name>2670</name>
</trkpt>
<trkpt lat="48.945448" lon="8.643343">
<ele>288.0</ele>
<speed>0.91</speed>
<course>157.8</course>
<desc>Speed 3.3 km/h Distance 4.39 km</desc>
<time>2010-10-24T11:14:33.07</time>
<name>2671</name>
</trkpt>
<trkpt lat="48.945443" lon="8.643347">
<ele>287.5</ele>
<speed>0.81</speed>
<course>136.5</course>
<desc>Speed 2.9 km/h Distance 4.39 km</desc>
<time>2010-10-24T11:14:34.07</time>
<name>2672</name>
</trkpt>
<trkpt lat="48.945440" lon="8.643352">
<ele>286.5</ele>
<speed>0.56</speed>
<course>157.0</course>
<desc>Speed 2.0 km/h Distance 4.39 km</desc>
<time>2010-10-24T11:14:35.07</time>
<name>2673</name>
</trkpt>
<trkpt lat="48.945430" lon="8.643358">
<ele>285.5</ele>
<speed>1.38</speed>
<course>90.0</course>
<desc>Speed 5.0 km/h Distance 4.39 km</desc>
<time>2010-10-24T11:14:36.07</time>
<name>2674</name>
</trkpt>
<trkpt lat="48.945430" lon="8.643363">
<ele>285.5</ele>
<speed>0.67</speed>
<course>127.0</course>
<desc>Speed 2.4 km/h Distance 4.39 km</desc>
<time>2010-10-24T11:14:37.07</time>
<name>2675</name>
</trkpt>
<trkpt lat="48.945427" lon="8.643370">
<ele>285.5</ele>
<speed>0.70</speed>
<course>117.0</course>
<desc>Speed 2.5 km/h Distance 4.39 km</desc>
<time>2010-10-24T11:14:38.07</time>
<name>2676</name>
</trkpt>
<trkpt lat="48.945423" lon="8.643380">
<ele>285.0</ele>
<speed>0.82</speed>
<course>108.6</course>
<desc>Speed 3.0 km/h Distance 4.39 km</desc>
<time>2010-10-24T11:14:39.07</time>
<name>2677</name>
</trkpt>
<trkpt lat="48.945420" lon="8.643395">
<ele>285.0</ele>
<speed>1.22</speed>
<course>106.9</course>
<desc>Speed 4.4 km/h Distance 4.39 km</desc>
<time>2010-10-24T11:14:40.07</time>
<name>2678</name>
</trkpt>
<trkpt lat="48.945417" lon="8.643412">
<ele>285.5</ele>
<speed>1.09</speed>
<course>82.1</course>
<desc>Speed 3.9 km/h Distance 4.39 km</desc>
<time>2010-10-24T11:14:41.07</time>
<name>2679</name>
</trkpt>
<trkpt lat="48.945418" lon="8.643430">
<ele>286.5</ele>
<speed>1.32</speed>
<course>90.0</course>
<desc>Speed 4.8 km/h Distance 4.39 km</desc>
<time>2010-10-24T11:14:42.07</time>
<name>2680</name>
</trkpt>
<trkpt lat="48.945418" lon="8.643447">
<ele>287.0</ele>
<speed>1.23</speed>
<course>110.8</course>
<desc>Speed 4.4 km/h Distance 4.39 km</desc>
<time>2010-10-24T11:14:43.07</time>
<name>2681</name>
</trkpt>
<trkpt lat="48.945415" lon="8.643460">
<ele>287.0</ele>
<speed>1.12</speed>
<course>66.5</course>
<desc>Speed 4.0 km/h Distance 4.40 km</desc>
<time>2010-10-24T11:14:44.07</time>
<name>2682</name>
</trkpt>
<trkpt lat="48.945418" lon="8.643472">
<ele>287.5</ele>
<speed>1.02</speed>
<course>77.7</course>
<desc>Speed 3.7 km/h Distance 4.40 km</desc>
<time>2010-10-24T11:14:45.07</time>
<name>2683</name>
</trkpt>
<trkpt lat="48.945420" lon="8.643483">
<ele>288.0</ele>
<speed>0.93</speed>
<course>63.1</course>
<desc>Speed 3.3 km/h Distance 4.40 km</desc>
<time>2010-10-24T11:14:46.07</time>
<name>2684</name>
</trkpt>
<trkpt lat="48.945425" lon="8.643498">
<ele>288.5</ele>
<speed>1.13</speed>
<course>46.6</course>
<desc>Speed 4.1 km/h Distance 4.40 km</desc>
<time>2010-10-24T11:14:47.07</time>
<name>2685</name>
</trkpt>
<trkpt lat="48.945433" lon="8.643512">
<ele>289.0</ele>
<speed>1.19</speed>
<course>52.7</course>
<desc>Speed 4.3 km/h Distance 4.40 km</desc>
<time>2010-10-24T11:14:48.07</time>
<name>2686</name>
</trkpt>
<trkpt lat="48.945452" lon="8.643548">
<ele>291.5</ele>
<speed>1.60</speed>
<course>56.0</course>
<desc>Speed 5.8 km/h Distance 4.40 km</desc>
<time>2010-10-24T11:14:50.07</time>
<name>2687</name>
</trkpt>
<trkpt lat="48.945458" lon="8.643563">
<ele>292.5</ele>
<speed>0.87</speed>
<course>66.5</course>
<desc>Speed 3.1 km/h Distance 4.40 km</desc>
<time>2010-10-24T11:14:51.07</time>
<name>2688</name>
</trkpt>
<trkpt lat="48.945462" lon="8.643575">
<ele>292.5</ele>
<speed>0.87</speed>
<course>82.1</course>
<desc>Speed 3.1 km/h Distance 4.41 km</desc>
<time>2010-10-24T11:14:52.07</time>
<name>2689</name>
</trkpt>
<trkpt lat="48.945463" lon="8.643593">
<ele>293.0</ele>
<speed>1.15</speed>
<course>60.3</course>
<desc>Speed 4.1 km/h Distance 4.41 km</desc>
<time>2010-10-24T11:14:53.07</time>
<name>2690</name>
</trkpt>
<trkpt lat="48.945468" lon="8.643607">
<ele>293.5</ele>
<speed>1.04</speed>
<course>49.1</course>
<desc>Speed 3.7 km/h Distance 4.41 km</desc>
<time>2010-10-24T11:14:54.07</time>
<name>2691</name>
</trkpt>
<trkpt lat="48.945475" lon="8.643618">
<ele>294.0</ele>
<speed>1.15</speed>
<course>42.6</course>
<desc>Speed 4.1 km/h Distance 4.41 km</desc>
<time>2010-10-24T11:14:55.07</time>
<name>2692</name>
</trkpt>
<trkpt lat="48.945483" lon="8.643630">
<ele>294.5</ele>
<speed>1.14</speed>
<course>63.1</course>
<desc>Speed 4.1 km/h Distance 4.41 km</desc>
<time>2010-10-24T11:14:56.07</time>
<name>2693</name>
</trkpt>
<trkpt lat="48.945488" lon="8.643645">
<ele>295.0</ele>
<speed>1.11</speed>
<course>58.6</course>
<desc>Speed 4.0 km/h Distance 4.41 km</desc>
<time>2010-10-24T11:14:57.07</time>
<name>2694</name>
</trkpt>
<trkpt lat="48.945492" lon="8.643653">
<ele>295.5</ele>
<speed>0.93</speed>
<course>44.5</course>
<desc>Speed 3.3 km/h Distance 4.41 km</desc>
<time>2010-10-24T11:14:58.07</time>
<name>2695</name>
</trkpt>
<trkpt lat="48.945498" lon="8.643663">
<ele>295.5</ele>
<speed>0.82</speed>
<course>58.6</course>
<desc>Speed 3.0 km/h Distance 4.41 km</desc>
<time>2010-10-24T11:14:59.07</time>
<name>2696</name>
</trkpt>
<trkpt lat="48.945502" lon="8.643672">
<ele>295.5</ele>
<speed>0.77</speed>
<course>48.9</course>
<desc>Speed 2.8 km/h Distance 4.41 km</desc>
<time>2010-10-24T11:15:00.07</time>
<name>2697</name>
</trkpt>
<trkpt lat="48.945508" lon="8.643683">
<ele>296.0</ele>
<speed>0.98</speed>
<course>44.5</course>
<desc>Speed 3.5 km/h Distance 4.42 km</desc>
<time>2010-10-24T11:15:01.07</time>
<name>2698</name>
</trkpt>
<trkpt lat="48.945515" lon="8.643693">
<ele>296.5</ele>
<speed>1.07</speed>
<course>49.1</course>
<desc>Speed 3.9 km/h Distance 4.42 km</desc>
<time>2010-10-24T11:15:02.07</time>
<name>2699</name>
</trkpt>
<trkpt lat="48.945522" lon="8.643705">
<ele>297.0</ele>
<speed>1.15</speed>
<course>42.6</course>
<desc>Speed 4.1 km/h Distance 4.42 km</desc>
<time>2010-10-24T11:15:03.07</time>
<name>2700</name>
</trkpt>
<trkpt lat="48.945530" lon="8.643717">
<ele>298.0</ele>
<speed>0.98</speed>
<course>37.5</course>
<desc>Speed 3.5 km/h Distance 4.42 km</desc>
<time>2010-10-24T11:15:04.07</time>
<name>2701</name>
</trkpt>
<trkpt lat="48.945540" lon="8.643728">
<ele>298.0</ele>
<speed>1.19</speed>
<course>29.4</course>
<desc>Speed 4.3 km/h Distance 4.42 km</desc>
<time>2010-10-24T11:15:05.07</time>
<name>2702</name>
</trkpt>
<trkpt lat="48.945552" lon="8.643738">
<ele>299.0</ele>
<speed>1.08</speed>
<course>44.5</course>
<desc>Speed 3.9 km/h Distance 4.42 km</desc>
<time>2010-10-24T11:15:06.07</time>
<name>2703</name>
</trkpt>
<trkpt lat="48.945558" lon="8.643748">
<ele>299.5</ele>
<speed>1.07</speed>
<course>52.8</course>
<desc>Speed 3.9 km/h Distance 4.42 km</desc>
<time>2010-10-24T11:15:07.07</time>
<name>2704</name>
</trkpt>
<trkpt lat="48.945563" lon="8.643758">
<ele>299.5</ele>
<speed>1.03</speed>
<course>42.6</course>
<desc>Speed 3.7 km/h Distance 4.42 km</desc>
<time>2010-10-24T11:15:08.07</time>
<name>2705</name>
</trkpt>
<trkpt lat="48.945572" lon="8.643770">
<ele>299.5</ele>
<speed>1.10</speed>
<course>48.9</course>
<desc>Speed 4.0 km/h Distance 4.42 km</desc>
<time>2010-10-24T11:15:09.07</time>
<name>2706</name>
</trkpt>
<trkpt lat="48.945578" lon="8.643782">
<ele>299.5</ele>
<speed>1.09</speed>
<course>58.6</course>
<desc>Speed 3.9 km/h Distance 4.43 km</desc>
<time>2010-10-24T11:15:10.07</time>
<name>2707</name>
</trkpt>
<trkpt lat="48.945582" lon="8.643790">
<ele>299.5</ele>
<speed>0.72</speed>
<course>66.4</course>
<desc>Speed 2.6 km/h Distance 4.43 km</desc>
<time>2010-10-24T11:15:11.07</time>
<name>2708</name>
</trkpt>
<trkpt lat="48.945585" lon="8.643802">
<ele>300.0</ele>
<speed>0.87</speed>
<course>56.9</course>
<desc>Speed 3.1 km/h Distance 4.43 km</desc>
<time>2010-10-24T11:15:12.07</time>
<name>2709</name>
</trkpt>
<trkpt lat="48.945590" lon="8.643813">
<ele>300.5</ele>
<speed>0.92</speed>
<course>75.8</course>
<desc>Speed 3.3 km/h Distance 4.43 km</desc>
<time>2010-10-24T11:15:13.07</time>
<name>2710</name>
</trkpt>
<trkpt lat="48.945592" lon="8.643823">
<ele>301.0</ele>
<speed>0.81</speed>
<course>52.8</course>
<desc>Speed 2.9 km/h Distance 4.43 km</desc>
<time>2010-10-24T11:15:14.07</time>
<name>2711</name>
</trkpt>
<trkpt lat="48.945597" lon="8.643833">
<ele>301.0</ele>
<speed>0.77</speed>
<course>44.5</course>
<desc>Speed 2.8 km/h Distance 4.43 km</desc>
<time>2010-10-24T11:15:15.07</time>
<name>2712</name>
</trkpt>
<trkpt lat="48.945603" lon="8.643843">
<ele>301.5</ele>
<speed>0.97</speed>
<course>47.1</course>
<desc>Speed 3.5 km/h Distance 4.43 km</desc>
<time>2010-10-24T11:15:16.07</time>
<name>2713</name>
</trkpt>
<trkpt lat="48.945608" lon="8.643852">
<ele>302.5</ele>
<speed>0.81</speed>
<course>75.6</course>
<desc>Speed 2.9 km/h Distance 4.43 km</desc>
<time>2010-10-24T11:15:17.07</time>
<name>2714</name>
</trkpt>
<trkpt lat="48.945610" lon="8.643862">
<ele>303.0</ele>
<speed>0.82</speed>
<course>75.6</course>
<desc>Speed 3.0 km/h Distance 4.43 km</desc>
<time>2010-10-24T11:15:18.07</time>
<name>2715</name>
</trkpt>
<trkpt lat="48.945612" lon="8.643872">
<ele>303.0</ele>
<speed>0.81</speed>
<course>52.7</course>
<desc>Speed 2.9 km/h Distance 4.43 km</desc>
<time>2010-10-24T11:15:19.07</time>
<name>2716</name>
</trkpt>
<trkpt lat="48.945618" lon="8.643885">
<ele>303.5</ele>
<speed>1.12</speed>
<course>66.5</course>
<desc>Speed 4.0 km/h Distance 4.43 km</desc>
<time>2010-10-24T11:15:20.07</time>
<name>2717</name>
</trkpt>
<trkpt lat="48.945622" lon="8.643897">
<ele>304.0</ele>
<speed>0.92</speed>
<course>57.1</course>
<desc>Speed 3.3 km/h Distance 4.44 km</desc>
<time>2010-10-24T11:15:21.07</time>
<name>2718</name>
</trkpt>
<trkpt lat="48.945627" lon="8.643908">
<ele>304.5</ele>
<speed>1.05</speed>
<course>49.1</course>
<desc>Speed 3.8 km/h Distance 4.44 km</desc>
<time>2010-10-24T11:15:22.07</time>
<name>2719</name>
</trkpt>
<trkpt lat="48.945633" lon="8.643920">
<ele>305.0</ele>
<speed>0.97</speed>
<course>90.0</course>
<desc>Speed 3.5 km/h Distance 4.44 km</desc>
<time>2010-10-24T11:15:23.07</time>
<name>2720</name>
</trkpt>
<trkpt lat="48.945633" lon="8.643930">
<ele>305.5</ele>
<speed>0.87</speed>
<course>66.5</course>
<desc>Speed 3.1 km/h Distance 4.44 km</desc>
<time>2010-10-24T11:15:24.07</time>
<name>2721</name>
</trkpt>
<trkpt lat="48.945637" lon="8.643942">
<ele>306.0</ele>
<speed>1.00</speed>
<course>66.5</course>
<desc>Speed 3.6 km/h Distance 4.44 km</desc>
<time>2010-10-24T11:15:25.07</time>
<name>2722</name>
</trkpt>
<trkpt lat="48.945640" lon="8.643953">
<ele>306.0</ele>
<speed>1.00</speed>
<course>81.3</course>
<desc>Speed 3.6 km/h Distance 4.44 km</desc>
<time>2010-10-24T11:15:26.07</time>
<name>2723</name>
</trkpt>
<trkpt lat="48.945642" lon="8.643970">
<ele>306.5</ele>
<speed>1.12</speed>
<course>90.0</course>
<desc>Speed 4.0 km/h Distance 4.44 km</desc>
<time>2010-10-24T11:15:27.07</time>
<name>2724</name>
</trkpt>
<trkpt lat="48.945642" lon="8.643982">
<ele>306.0</ele>
<speed>1.00</speed>
<course>90.0</course>
<desc>Speed 3.6 km/h Distance 4.44 km</desc>
<time>2010-10-24T11:15:28.07</time>
<name>2725</name>
</trkpt>
<trkpt lat="48.945642" lon="8.643993">
<ele>306.0</ele>
<speed>0.95</speed>
<course>77.7</course>
<desc>Speed 3.4 km/h Distance 4.44 km</desc>
<time>2010-10-24T11:15:29.07</time>
<name>2726</name>
</trkpt>
<trkpt lat="48.945643" lon="8.644005">
<ele>306.5</ele>
<speed>0.91</speed>
<course>121.4</course>
<desc>Speed 3.3 km/h Distance 4.44 km</desc>
<time>2010-10-24T11:15:30.07</time>
<name>2727</name>
</trkpt>
<trkpt lat="48.945640" lon="8.644013">
<ele>307.0</ele>
<speed>0.76</speed>
<course>63.0</course>
<desc>Speed 2.7 km/h Distance 4.44 km</desc>
<time>2010-10-24T11:15:31.07</time>
<name>2728</name>
</trkpt>
<trkpt lat="48.945643" lon="8.644023">
<ele>308.0</ele>
<speed>0.83</speed>
<course>79.3</course>
<desc>Speed 3.0 km/h Distance 4.45 km</desc>
<time>2010-10-24T11:15:32.07</time>
<name>2729</name>
</trkpt>
<trkpt lat="48.945645" lon="8.644037">
<ele>308.5</ele>
<speed>1.07</speed>
<course>61.0</course>
<desc>Speed 3.9 km/h Distance 4.45 km</desc>
<time>2010-10-24T11:15:33.07</time>
<name>2730</name>
</trkpt>
<trkpt lat="48.945652" lon="8.644055">
<ele>309.5</ele>
<speed>1.20</speed>
<course>49.7</course>
<desc>Speed 4.3 km/h Distance 4.45 km</desc>
<time>2010-10-24T11:15:34.07</time>
<name>2731</name>
</trkpt>
<trkpt lat="48.945660" lon="8.644070">
<ele>310.0</ele>
<speed>0.81</speed>
<course>90.0</course>
<desc>Speed 2.9 km/h Distance 4.45 km</desc>
<time>2010-10-24T11:15:35.07</time>
<name>2732</name>
</trkpt>
<trkpt lat="48.945660" lon="8.644083">
<ele>310.0</ele>
<speed>1.03</speed>
<course>52.7</course>
<desc>Speed 3.7 km/h Distance 4.45 km</desc>
<time>2010-10-24T11:15:36.07</time>
<name>2733</name>
</trkpt>
<trkpt lat="48.945670" lon="8.644103">
<ele>311.0</ele>
<speed>1.10</speed>
<course>67.5</course>
<desc>Speed 4.0 km/h Distance 4.45 km</desc>
<time>2010-10-24T11:15:37.07</time>
<name>2734</name>
</trkpt>
<trkpt lat="48.945675" lon="8.644122">
<ele>311.0</ele>
<speed>1.19</speed>
<course>65.4</course>
<desc>Speed 4.3 km/h Distance 4.45 km</desc>
<time>2010-10-24T11:15:38.07</time>
<name>2735</name>
</trkpt>
<trkpt lat="48.945680" lon="8.644138">
<ele>311.0</ele>
<speed>1.05</speed>
<course>50.3</course>
<desc>Speed 3.8 km/h Distance 4.46 km</desc>
<time>2010-10-24T11:15:39.07</time>
<name>2736</name>
</trkpt>
<trkpt lat="48.945690" lon="8.644157">
<ele>312.0</ele>
<speed>1.02</speed>
<course>90.0</course>
<desc>Speed 3.7 km/h Distance 4.46 km</desc>
<time>2010-10-24T11:15:40.07</time>
<name>2737</name>
</trkpt>
<trkpt lat="48.945690" lon="8.644170">
<ele>313.0</ele>
<speed>0.87</speed>
<course>106.9</course>
<desc>Speed 3.1 km/h Distance 4.46 km</desc>
<time>2010-10-24T11:15:41.07</time>
<name>2738</name>
</trkpt>
<trkpt lat="48.945688" lon="8.644178">
<ele>313.5</ele>
<speed>0.67</speed>
<course>77.7</course>
<desc>Speed 2.4 km/h Distance 4.46 km</desc>
<time>2010-10-24T11:15:42.07</time>
<name>2739</name>
</trkpt>
<trkpt lat="48.945690" lon="8.644190">
<ele>314.0</ele>
<speed>0.80</speed>
<course>90.0</course>
<desc>Speed 2.9 km/h Distance 4.46 km</desc>
<time>2010-10-24T11:15:43.07</time>
<name>2740</name>
</trkpt>
<trkpt lat="48.945690" lon="8.644203">
<ele>314.5</ele>
<speed>0.95</speed>
<course>80.4</course>
<desc>Speed 3.4 km/h Distance 4.46 km</desc>
<time>2010-10-24T11:15:44.07</time>
<name>2741</name>
</trkpt>
<trkpt lat="48.945692" lon="8.644218">
<ele>315.0</ele>
<speed>0.93</speed>
<course>60.1</course>
<desc>Speed 3.3 km/h Distance 4.46 km</desc>
<time>2010-10-24T11:15:45.07</time>
<name>2742</name>
</trkpt>
<trkpt lat="48.945697" lon="8.644232">
<ele>315.5</ele>
<speed>1.16</speed>
<course>52.7</course>
<desc>Speed 4.2 km/h Distance 4.46 km</desc>
<time>2010-10-24T11:15:46.07</time>
<name>2743</name>
</trkpt>
<trkpt lat="48.945703" lon="8.644245">
<ele>315.5</ele>
<speed>1.10</speed>
<course>44.6</course>
<desc>Speed 4.0 km/h Distance 4.46 km</desc>
<time>2010-10-24T11:15:47.07</time>
<name>2744</name>
</trkpt>
<trkpt lat="48.945717" lon="8.644265">
<ele>316.0</ele>
<speed>1.07</speed>
<course>58.6</course>
<desc>Speed 3.9 km/h Distance 4.47 km</desc>
<time>2010-10-24T11:15:48.07</time>
<name>2745</name>
</trkpt>
<trkpt lat="48.945723" lon="8.644282">
<ele>316.0</ele>
<speed>1.10</speed>
<course>80.4</course>
<desc>Speed 4.0 km/h Distance 4.47 km</desc>
<time>2010-10-24T11:15:49.07</time>
<name>2746</name>
</trkpt>
<trkpt lat="48.945725" lon="8.644297">
<ele>316.0</ele>
<speed>1.01</speed>
<course>90.0</course>
<desc>Speed 3.6 km/h Distance 4.47 km</desc>
<time>2010-10-24T11:15:50.07</time>
<name>2747</name>
</trkpt>
<trkpt lat="48.945725" lon="8.644310">
<ele>315.5</ele>
<speed>0.93</speed>
<course>79.2</course>
<desc>Speed 3.3 km/h Distance 4.47 km</desc>
<time>2010-10-24T11:15:51.07</time>
<name>2748</name>
</trkpt>
<trkpt lat="48.945727" lon="8.644323">
<ele>315.5</ele>
<speed>0.93</speed>
<course>63.1</course>
<desc>Speed 3.3 km/h Distance 4.47 km</desc>
<time>2010-10-24T11:15:52.07</time>
<name>2749</name>
</trkpt>
<trkpt lat="48.945732" lon="8.644338">
<ele>316.0</ele>
<speed>1.13</speed>
<course>63.1</course>
<desc>Speed 4.1 km/h Distance 4.47 km</desc>
<time>2010-10-24T11:15:53.07</time>
<name>2750</name>
</trkpt>
<trkpt lat="48.945737" lon="8.644353">
<ele>316.0</ele>
<speed>1.12</speed>
<course>71.3</course>
<desc>Speed 4.0 km/h Distance 4.47 km</desc>
<time>2010-10-24T11:15:54.07</time>
<name>2751</name>
</trkpt>
<trkpt lat="48.945740" lon="8.644368">
<ele>316.5</ele>
<speed>1.10</speed>
<course>82.1</course>
<desc>Speed 4.0 km/h Distance 4.47 km</desc>
<time>2010-10-24T11:15:55.07</time>
<name>2752</name>
</trkpt>
<trkpt lat="48.945742" lon="8.644387">
<ele>316.5</ele>
<speed>1.23</speed>
<course>61.0</course>
<desc>Speed 4.4 km/h Distance 4.48 km</desc>
<time>2010-10-24T11:15:56.07</time>
<name>2753</name>
</trkpt>
<trkpt lat="48.945748" lon="8.644405">
<ele>317.0</ele>
<speed>1.04</speed>
<course>71.3</course>
<desc>Speed 3.7 km/h Distance 4.48 km</desc>
<time>2010-10-24T11:15:57.07</time>
<name>2754</name>
</trkpt>
<trkpt lat="48.945752" lon="8.644420">
<ele>316.5</ele>
<speed>1.03</speed>
<course>71.3</course>
<desc>Speed 3.7 km/h Distance 4.48 km</desc>
<time>2010-10-24T11:15:58.07</time>
<name>2755</name>
</trkpt>
<trkpt lat="48.945755" lon="8.644435">
<ele>316.0</ele>
<speed>0.94</speed>
<course>100.8</course>
<desc>Speed 3.4 km/h Distance 4.48 km</desc>
<time>2010-10-24T11:15:59.07</time>
<name>2756</name>
</trkpt>
<trkpt lat="48.945753" lon="8.644448">
<ele>316.0</ele>
<speed>1.00</speed>
<course>74.5</course>
<desc>Speed 3.6 km/h Distance 4.48 km</desc>
<time>2010-10-24T11:16:00.07</time>
<name>2757</name>
</trkpt>
<trkpt lat="48.945757" lon="8.644467">
<ele>316.0</ele>
<speed>1.15</speed>
<course>80.4</course>
<desc>Speed 4.1 km/h Distance 4.48 km</desc>
<time>2010-10-24T11:16:01.07</time>
<name>2758</name>
</trkpt>
<trkpt lat="48.945758" lon="8.644482">
<ele>315.5</ele>
<speed>1.07</speed>
<course>60.3</course>
<desc>Speed 3.9 km/h Distance 4.48 km</desc>
<time>2010-10-24T11:16:02.07</time>
<name>2759</name>
</trkpt>
<trkpt lat="48.945763" lon="8.644495">
<ele>315.0</ele>
<speed>1.00</speed>
<course>69.3</course>
<desc>Speed 3.6 km/h Distance 4.48 km</desc>
<time>2010-10-24T11:16:03.07</time>
<name>2760</name>
</trkpt>
<trkpt lat="48.945767" lon="8.644508">
<ele>315.0</ele>
<speed>0.98</speed>
<course>81.4</course>
<desc>Speed 3.5 km/h Distance 4.48 km</desc>
<time>2010-10-24T11:16:04.07</time>
<name>2761</name>
</trkpt>
<trkpt lat="48.945768" lon="8.644525">
<ele>315.0</ele>
<speed>1.14</speed>
<course>65.5</course>
<desc>Speed 4.1 km/h Distance 4.49 km</desc>
<time>2010-10-24T11:16:05.07</time>
<name>2762</name>
</trkpt>
<trkpt lat="48.945773" lon="8.644542">
<ele>314.5</ele>
<speed>1.23</speed>
<course>74.5</course>
<desc>Speed 4.4 km/h Distance 4.49 km</desc>
<time>2010-10-24T11:16:06.07</time>
<name>2763</name>
</trkpt>
<trkpt lat="48.945777" lon="8.644560">
<ele>315.0</ele>
<speed>1.13</speed>
<course>65.5</course>
<desc>Speed 4.1 km/h Distance 4.49 km</desc>
<time>2010-10-24T11:16:07.07</time>
<name>2764</name>
</trkpt>
<trkpt lat="48.945782" lon="8.644577">
<ele>315.0</ele>
<speed>1.10</speed>
<course>73.1</course>
<desc>Speed 4.0 km/h Distance 4.49 km</desc>
<time>2010-10-24T11:16:08.07</time>
<name>2765</name>
</trkpt>
<trkpt lat="48.945785" lon="8.644593">
<ele>315.0</ele>
<speed>1.19</speed>
<course>74.5</course>
<desc>Speed 4.3 km/h Distance 4.49 km</desc>
<time>2010-10-24T11:16:09.07</time>
<name>2766</name>
</trkpt>
<trkpt lat="48.945788" lon="8.644612">
<ele>315.0</ele>
<speed>1.33</speed>
<course>67.4</course>
<desc>Speed 4.8 km/h Distance 4.49 km</desc>
<time>2010-10-24T11:16:10.07</time>
<name>2767</name>
</trkpt>
<trkpt lat="48.945793" lon="8.644630">
<ele>315.0</ele>
<speed>1.25</speed>
<course>61.0</course>
<desc>Speed 4.5 km/h Distance 4.49 km</desc>
<time>2010-10-24T11:16:11.07</time>
<name>2768</name>
</trkpt>
<trkpt lat="48.945800" lon="8.644648">
<ele>315.0</ele>
<speed>1.37</speed>
<course>34.2</course>
<desc>Speed 4.9 km/h Distance 4.50 km</desc>
<time>2010-10-24T11:16:12.07</time>
<name>2769</name>
</trkpt>
<trkpt lat="48.945850" lon="8.644700">
<ele>318.0</ele>
<speed>1.25</speed>
<course>61.0</course>
<desc>Speed 4.5 km/h Distance 4.50 km</desc>
<time>2010-10-24T11:16:14.07</time>
<name>2770</name>
</trkpt>
<trkpt lat="48.945857" lon="8.644718">
<ele>318.0</ele>
<speed>1.28</speed>
<course>61.0</course>
<desc>Speed 4.6 km/h Distance 4.50 km</desc>
<time>2010-10-24T11:16:15.07</time>
<name>2771</name>
</trkpt>
<trkpt lat="48.945863" lon="8.644737">
<ele>318.0</ele>
<speed>1.37</speed>
<course>81.4</course>
<desc>Speed 4.9 km/h Distance 4.51 km</desc>
<time>2010-10-24T11:16:16.07</time>
<name>2772</name>
</trkpt>
<trkpt lat="48.945865" lon="8.644753">
<ele>317.5</ele>
<speed>1.10</speed>
<course>67.5</course>
<desc>Speed 4.0 km/h Distance 4.51 km</desc>
<time>2010-10-24T11:16:17.07</time>
<name>2773</name>
</trkpt>
<trkpt lat="48.945870" lon="8.644772">
<ele>317.0</ele>
<speed>1.27</speed>
<course>58.7</course>
<desc>Speed 4.6 km/h Distance 4.51 km</desc>
<time>2010-10-24T11:16:18.07</time>
<name>2774</name>
</trkpt>
<trkpt lat="48.945877" lon="8.644788">
<ele>317.0</ele>
<speed>1.23</speed>
<course>65.5</course>
<desc>Speed 4.4 km/h Distance 4.51 km</desc>
<time>2010-10-24T11:16:19.07</time>
<name>2775</name>
</trkpt>
<trkpt lat="48.945882" lon="8.644805">
<ele>316.5</ele>
<speed>1.08</speed>
<course>63.1</course>
<desc>Speed 3.9 km/h Distance 4.51 km</desc>
<time>2010-10-24T11:16:20.07</time>
<name>2776</name>
</trkpt>
<trkpt lat="48.945888" lon="8.644825">
<ele>314.5</ele>
<speed>1.15</speed>
<course>65.5</course>
<desc>Speed 4.1 km/h Distance 4.51 km</desc>
<time>2010-10-24T11:16:21.07</time>
<name>2777</name>
</trkpt>
<trkpt lat="48.945893" lon="8.644842">
<ele>315.0</ele>
<speed>1.25</speed>
<course>57.6</course>
<desc>Speed 4.5 km/h Distance 4.51 km</desc>
<time>2010-10-24T11:16:22.07</time>
<name>2778</name>
</trkpt>
<trkpt lat="48.945902" lon="8.644862">
<ele>313.5</ele>
<speed>1.19</speed>
<course>73.0</course>
<desc>Speed 4.3 km/h Distance 4.52 km</desc>
<time>2010-10-24T11:16:23.07</time>
<name>2779</name>
</trkpt>
<trkpt lat="48.945905" lon="8.644878">
<ele>313.0</ele>
<speed>1.19</speed>
<course>73.0</course>
<desc>Speed 4.3 km/h Distance 4.52 km</desc>
<time>2010-10-24T11:16:24.07</time>
<name>2780</name>
</trkpt>
<trkpt lat="48.945908" lon="8.644895">
<ele>312.5</ele>
<speed>1.14</speed>
<course>70.6</course>
<desc>Speed 4.1 km/h Distance 4.52 km</desc>
<time>2010-10-24T11:16:25.07</time>
<name>2781</name>
</trkpt>
<trkpt lat="48.945913" lon="8.644917">
<ele>312.5</ele>
<speed>1.48</speed>
<course>73.1</course>
<desc>Speed 5.3 km/h Distance 4.52 km</desc>
<time>2010-10-24T11:16:26.07</time>
<name>2782</name>
</trkpt>
<trkpt lat="48.945917" lon="8.644933">
<ele>312.0</ele>
<speed>1.14</speed>
<course>67.4</course>
<desc>Speed 4.1 km/h Distance 4.52 km</desc>
<time>2010-10-24T11:16:27.07</time>
<name>2783</name>
</trkpt>
<trkpt lat="48.945922" lon="8.644952">
<ele>311.5</ele>
<speed>1.24</speed>
<course>61.0</course>
<desc>Speed 4.5 km/h Distance 4.52 km</desc>
<time>2010-10-24T11:16:28.07</time>
<name>2784</name>
</trkpt>
<trkpt lat="48.945928" lon="8.644970">
<ele>311.5</ele>
<speed>1.27</speed>
<course>52.7</course>
<desc>Speed 4.6 km/h Distance 4.52 km</desc>
<time>2010-10-24T11:16:29.07</time>
<name>2785</name>
</trkpt>
<trkpt lat="48.945937" lon="8.644987">
<ele>311.0</ele>
<speed>1.17</speed>
<course>43.2</course>
<desc>Speed 4.2 km/h Distance 4.53 km</desc>
<time>2010-10-24T11:16:30.07</time>
<name>2786</name>
</trkpt>
<trkpt lat="48.945948" lon="8.645003">
<ele>310.0</ele>
<speed>1.24</speed>
<course>64.9</course>
<desc>Speed 4.5 km/h Distance 4.53 km</desc>
<time>2010-10-24T11:16:31.07</time>
<name>2787</name>
</trkpt>
<trkpt lat="48.945955" lon="8.645025">
<ele>309.5</ele>
<speed>1.25</speed>
<course>70.6</course>
<desc>Speed 4.5 km/h Distance 4.53 km</desc>
<time>2010-10-24T11:16:32.07</time>
<name>2788</name>
</trkpt>
<trkpt lat="48.945960" lon="8.645047">
<ele>309.5</ele>
<speed>1.32</speed>
<course>75.8</course>
<desc>Speed 4.8 km/h Distance 4.53 km</desc>
<time>2010-10-24T11:16:33.07</time>
<name>2789</name>
</trkpt>
<trkpt lat="48.945963" lon="8.645067">
<ele>310.0</ele>
<speed>1.37</speed>
<course>90.0</course>
<desc>Speed 4.9 km/h Distance 4.53 km</desc>
<time>2010-10-24T11:16:34.07</time>
<name>2790</name>
</trkpt>
<trkpt lat="48.945963" lon="8.645088">
<ele>310.0</ele>
<speed>1.39</speed>
<course>105.5</course>
<desc>Speed 5.0 km/h Distance 4.53 km</desc>
<time>2010-10-24T11:16:35.07</time>
<name>2791</name>
</trkpt>
<trkpt lat="48.945960" lon="8.645107">
<ele>310.0</ele>
<speed>1.46</speed>
<course>82.8</course>
<desc>Speed 5.3 km/h Distance 4.54 km</desc>
<time>2010-10-24T11:16:36.07</time>
<name>2792</name>
</trkpt>
<trkpt lat="48.945962" lon="8.645127">
<ele>310.0</ele>
<speed>1.29</speed>
<course>104.2</course>
<desc>Speed 4.6 km/h Distance 4.54 km</desc>
<time>2010-10-24T11:16:37.07</time>
<name>2793</name>
</trkpt>
<trkpt lat="48.945958" lon="8.645147">
<ele>310.5</ele>
<speed>1.33</speed>
<course>119.0</course>
<desc>Speed 4.8 km/h Distance 4.54 km</desc>
<time>2010-10-24T11:16:38.07</time>
<name>2794</name>
</trkpt>
<trkpt lat="48.945952" lon="8.645165">
<ele>310.0</ele>
<speed>1.50</speed>
<course>127.3</course>
<desc>Speed 5.4 km/h Distance 4.54 km</desc>
<time>2010-10-24T11:16:39.07</time>
<name>2795</name>
</trkpt>
<trkpt lat="48.945943" lon="8.645182">
<ele>309.5</ele>
<speed>1.54</speed>
<course>112.5</course>
<desc>Speed 5.5 km/h Distance 4.54 km</desc>
<time>2010-10-24T11:16:40.07</time>
<name>2796</name>
</trkpt>
<trkpt lat="48.945938" lon="8.645200">
<ele>309.5</ele>
<speed>1.37</speed>
<course>122.9</course>
<desc>Speed 4.9 km/h Distance 4.54 km</desc>
<time>2010-10-24T11:16:41.07</time>
<name>2797</name>
</trkpt>
<trkpt lat="48.945933" lon="8.645212">
<ele>309.5</ele>
<speed>0.95</speed>
<course>152.1</course>
<desc>Speed 3.4 km/h Distance 4.54 km</desc>
<time>2010-10-24T11:16:42.07</time>
<name>2798</name>
</trkpt>
<trkpt lat="48.945925" lon="8.645218">
<ele>309.5</ele>
<speed>1.29</speed>
<course>165.1</course>
<desc>Speed 4.6 km/h Distance 4.55 km</desc>
<time>2010-10-24T11:16:43.07</time>
<name>2799</name>
</trkpt>
<trkpt lat="48.945917" lon="8.645222">
<ele>309.0</ele>
<speed>1.09</speed>
<course>167.4</course>
<desc>Speed 3.9 km/h Distance 4.55 km</desc>
<time>2010-10-24T11:16:44.07</time>
<name>2800</name>
</trkpt>
<trkpt lat="48.945912" lon="8.645223">
<ele>309.5</ele>
<speed>0.88</speed>
<course>172.6</course>
<desc>Speed 3.2 km/h Distance 4.55 km</desc>
<time>2010-10-24T11:16:45.07</time>
<name>2801</name>
</trkpt>
<trkpt lat="48.945905" lon="8.645225">
<ele>310.0</ele>
<speed>1.21</speed>
<course>167.4</course>
<desc>Speed 4.4 km/h Distance 4.55 km</desc>
<time>2010-10-24T11:16:46.07</time>
<name>2802</name>
</trkpt>
<trkpt lat="48.945900" lon="8.645227">
<ele>310.0</ele>
<speed>1.00</speed>
<course>198.8</course>
<desc>Speed 3.6 km/h Distance 4.55 km</desc>
<time>2010-10-24T11:16:47.07</time>
<name>2803</name>
</trkpt>
<trkpt lat="48.945897" lon="8.645225">
<ele>310.5</ele>
<speed>0.83</speed>
<course>213.7</course>
<desc>Speed 3.0 km/h Distance 4.55 km</desc>
<time>2010-10-24T11:16:48.07</time>
<name>2804</name>
</trkpt>
<trkpt lat="48.945893" lon="8.645222">
<ele>311.0</ele>
<speed>0.81</speed>
<course>142.8</course>
<desc>Speed 2.9 km/h Distance 4.55 km</desc>
<time>2010-10-24T11:16:49.07</time>
<name>2805</name>
</trkpt>
<trkpt lat="48.945892" lon="8.645223">
<ele>312.0</ele>
<speed>0.47</speed>
<course>161.2</course>
<desc>Speed 1.7 km/h Distance 4.55 km</desc>
<time>2010-10-24T11:16:50.07</time>
<name>2806</name>
</trkpt>
<trkpt lat="48.945885" lon="8.645227">
<ele>312.5</ele>
<speed>1.05</speed>
<course>198.8</course>
<desc>Speed 3.8 km/h Distance 4.55 km</desc>
<time>2010-10-24T11:16:51.07</time>
<name>2807</name>
</trkpt>
<trkpt lat="48.945878" lon="8.645223">
<ele>312.0</ele>
<speed>1.12</speed>
<course>190.3</course>
<desc>Speed 4.0 km/h Distance 4.55 km</desc>
<time>2010-10-24T11:16:52.07</time>
<name>2808</name>
</trkpt>
<trkpt lat="48.945872" lon="8.645222">
<ele>312.0</ele>
<speed>1.00</speed>
<course>213.7</course>
<desc>Speed 3.6 km/h Distance 4.55 km</desc>
<time>2010-10-24T11:16:53.07</time>
<name>2809</name>
</trkpt>
<trkpt lat="48.945868" lon="8.645218">
<ele>312.5</ele>
<speed>0.95</speed>
<course>188.1</course>
<desc>Speed 3.4 km/h Distance 4.55 km</desc>
<time>2010-10-24T11:16:54.07</time>
<name>2810</name>
</trkpt>
<trkpt lat="48.945858" lon="8.645217">
<ele>312.5</ele>
<speed>1.16</speed>
<course>191.2</course>
<desc>Speed 4.2 km/h Distance 4.55 km</desc>
<time>2010-10-24T11:16:55.07</time>
<name>2811</name>
</trkpt>
<trkpt lat="48.945847" lon="8.645213">
<ele>312.5</ele>
<speed>1.64</speed>
<course>198.2</course>
<desc>Speed 5.9 km/h Distance 4.55 km</desc>
<time>2010-10-24T11:16:56.07</time>
<name>2812</name>
</trkpt>
<trkpt lat="48.945837" lon="8.645208">
<ele>313.0</ele>
<speed>1.24</speed>
<course>206.4</course>
<desc>Speed 4.5 km/h Distance 4.56 km</desc>
<time>2010-10-24T11:16:57.07</time>
<name>2813</name>
</trkpt>
<trkpt lat="48.945830" lon="8.645203">
<ele>313.0</ele>
<speed>1.11</speed>
<course>194.9</course>
<desc>Speed 4.0 km/h Distance 4.56 km</desc>
<time>2010-10-24T11:16:58.07</time>
<name>2814</name>
</trkpt>
<trkpt lat="48.945822" lon="8.645200">
<ele>313.0</ele>
<speed>1.25</speed>
<course>213.7</course>
<desc>Speed 4.5 km/h Distance 4.56 km</desc>
<time>2010-10-24T11:16:59.07</time>
<name>2815</name>
</trkpt>
<trkpt lat="48.945815" lon="8.645193">
<ele>313.5</ele>
<speed>1.12</speed>
<course>201.5</course>
<desc>Speed 4.0 km/h Distance 4.56 km</desc>
<time>2010-10-24T11:17:00.07</time>
<name>2816</name>
</trkpt>
<trkpt lat="48.945807" lon="8.645188">
<ele>314.0</ele>
<speed>1.17</speed>
<course>196.0</course>
<desc>Speed 4.2 km/h Distance 4.56 km</desc>
<time>2010-10-24T11:17:01.07</time>
<name>2817</name>
</trkpt>
<trkpt lat="48.945795" lon="8.645183">
<ele>314.0</ele>
<speed>1.27</speed>
<course>213.2</course>
<desc>Speed 4.6 km/h Distance 4.56 km</desc>
<time>2010-10-24T11:17:02.07</time>
<name>2818</name>
</trkpt>
<trkpt lat="48.945787" lon="8.645175">
<ele>314.0</ele>
<speed>1.15</speed>
<course>192.6</course>
<desc>Speed 4.1 km/h Distance 4.56 km</desc>
<time>2010-10-24T11:17:03.07</time>
<name>2819</name>
</trkpt>
<trkpt lat="48.945777" lon="8.645172">
<ele>314.5</ele>
<speed>1.34</speed>
<course>188.1</course>
<desc>Speed 4.8 km/h Distance 4.56 km</desc>
<time>2010-10-24T11:17:04.07</time>
<name>2820</name>
</trkpt>
<trkpt lat="48.945767" lon="8.645170">
<ele>314.5</ele>
<speed>1.20</speed>
<course>192.6</course>
<desc>Speed 4.3 km/h Distance 4.56 km</desc>
<time>2010-10-24T11:17:05.07</time>
<name>2821</name>
</trkpt>
<trkpt lat="48.945757" lon="8.645167">
<ele>315.0</ele>
<speed>1.27</speed>
<course>187.7</course>
<desc>Speed 4.6 km/h Distance 4.56 km</desc>
<time>2010-10-24T11:17:06.07</time>
<name>2822</name>
</trkpt>
<trkpt lat="48.945748" lon="8.645165">
<ele>315.0</ele>
<speed>0.94</speed>
<course>198.8</course>
<desc>Speed 3.4 km/h Distance 4.57 km</desc>
<time>2010-10-24T11:17:07.07</time>
<name>2823</name>
</trkpt>
<trkpt lat="48.945742" lon="8.645162">
<ele>315.5</ele>
<speed>1.34</speed>
<course>198.4</course>
<desc>Speed 4.8 km/h Distance 4.57 km</desc>
<time>2010-10-24T11:17:08.07</time>
<name>2824</name>
</trkpt>
<trkpt lat="48.945728" lon="8.645155">
<ele>314.5</ele>
<speed>1.38</speed>
<course>202.1</course>
<desc>Speed 5.0 km/h Distance 4.57 km</desc>
<time>2010-10-24T11:17:09.07</time>
<name>2825</name>
</trkpt>
<trkpt lat="48.945715" lon="8.645147">
<ele>313.5</ele>
<speed>1.24</speed>
<course>212.3</course>
<desc>Speed 4.5 km/h Distance 4.57 km</desc>
<time>2010-10-24T11:17:10.07</time>
<name>2826</name>
</trkpt>
<trkpt lat="48.945710" lon="8.645142">
<ele>313.5</ele>
<speed>1.07</speed>
<course>213.2</course>
<desc>Speed 3.9 km/h Distance 4.57 km</desc>
<time>2010-10-24T11:17:11.07</time>
<name>2827</name>
</trkpt>
<trkpt lat="48.945702" lon="8.645133">
<ele>313.5</ele>
<speed>1.19</speed>
<course>213.2</course>
<desc>Speed 4.3 km/h Distance 4.57 km</desc>
<time>2010-10-24T11:17:12.07</time>
<name>2828</name>
</trkpt>
<trkpt lat="48.945693" lon="8.645125">
<ele>314.0</ele>
<speed>1.37</speed>
<course>255.6</course>
<desc>Speed 4.9 km/h Distance 4.57 km</desc>
<time>2010-10-24T11:17:13.07</time>
<name>2829</name>
</trkpt>
<trkpt lat="48.945692" lon="8.645115">
<ele>314.5</ele>
<speed>1.03</speed>
<course>224.3</course>
<desc>Speed 3.7 km/h Distance 4.57 km</desc>
<time>2010-10-24T11:17:14.07</time>
<name>2830</name>
</trkpt>
<trkpt lat="48.945685" lon="8.645105">
<ele>314.5</ele>
<speed>1.26</speed>
<course>222.6</course>
<desc>Speed 4.5 km/h Distance 4.57 km</desc>
<time>2010-10-24T11:17:15.07</time>
<name>2831</name>
</trkpt>
<trkpt lat="48.945677" lon="8.645093">
<ele>314.5</ele>
<speed>1.40</speed>
<course>246.5</course>
<desc>Speed 5.0 km/h Distance 4.58 km</desc>
<time>2010-10-24T11:17:16.07</time>
<name>2832</name>
</trkpt>
<trkpt lat="48.945673" lon="8.645082">
<ele>314.0</ele>
<speed>1.12</speed>
<course>208.6</course>
<desc>Speed 4.0 km/h Distance 4.58 km</desc>
<time>2010-10-24T11:17:17.07</time>
<name>2833</name>
</trkpt>
<trkpt lat="48.945663" lon="8.645073">
<ele>314.5</ele>
<speed>1.41</speed>
<course>219.4</course>
<desc>Speed 5.1 km/h Distance 4.58 km</desc>
<time>2010-10-24T11:17:18.07</time>
<name>2834</name>
</trkpt>
<trkpt lat="48.945657" lon="8.645065">
<ele>315.5</ele>
<speed>1.14</speed>
<course>213.2</course>
<desc>Speed 4.1 km/h Distance 4.58 km</desc>
<time>2010-10-24T11:17:19.07</time>
<name>2835</name>
</trkpt>
<trkpt lat="48.945648" lon="8.645057">
<ele>316.0</ele>
<speed>1.12</speed>
<course>243.1</course>
<desc>Speed 4.0 km/h Distance 4.58 km</desc>
<time>2010-10-24T11:17:20.07</time>
<name>2836</name>
</trkpt>
<trkpt lat="48.945643" lon="8.645042">
<ele>316.5</ele>
<speed>1.16</speed>
<course>213.2</course>
<desc>Speed 4.2 km/h Distance 4.58 km</desc>
<time>2010-10-24T11:17:21.07</time>
<name>2837</name>
</trkpt>
<trkpt lat="48.945633" lon="8.645032">
<ele>316.5</ele>
<speed>1.38</speed>
<course>226.5</course>
<desc>Speed 5.0 km/h Distance 4.58 km</desc>
<time>2010-10-24T11:17:22.07</time>
<name>2838</name>
</trkpt>
<trkpt lat="48.945625" lon="8.645018">
<ele>316.5</ele>
<speed>1.33</speed>
<course>229.1</course>
<desc>Speed 4.8 km/h Distance 4.58 km</desc>
<time>2010-10-24T11:17:23.07</time>
<name>2839</name>
</trkpt>
<trkpt lat="48.945618" lon="8.645007">
<ele>317.0</ele>
<speed>1.32</speed>
<course>224.5</course>
<desc>Speed 4.8 km/h Distance 4.59 km</desc>
<time>2010-10-24T11:17:24.07</time>
<name>2840</name>
</trkpt>
<trkpt lat="48.945612" lon="8.644997">
<ele>317.5</ele>
<speed>1.23</speed>
<course>227.1</course>
<desc>Speed 4.4 km/h Distance 4.59 km</desc>
<time>2010-10-24T11:17:25.07</time>
<name>2841</name>
</trkpt>
<trkpt lat="48.945607" lon="8.644988">
<ele>318.5</ele>
<speed>0.87</speed>
<course>236.7</course>
<desc>Speed 3.1 km/h Distance 4.59 km</desc>
<time>2010-10-24T11:17:26.07</time>
<name>2842</name>
</trkpt>
<trkpt lat="48.945602" lon="8.644977">
<ele>319.5</ele>
<speed>1.13</speed>
<course>253.3</course>
<desc>Speed 4.1 km/h Distance 4.59 km</desc>
<time>2010-10-24T11:17:27.07</time>
<name>2843</name>
</trkpt>
<trkpt lat="48.945600" lon="8.644968">
<ele>320.0</ele>
<speed>0.93</speed>
<course>237.1</course>
<desc>Speed 3.3 km/h Distance 4.59 km</desc>
<time>2010-10-24T11:17:28.07</time>
<name>2844</name>
</trkpt>
<trkpt lat="48.945595" lon="8.644957">
<ele>320.5</ele>
<speed>1.02</speed>
<course>232.8</course>
<desc>Speed 3.7 km/h Distance 4.59 km</desc>
<time>2010-10-24T11:17:29.07</time>
<name>2845</name>
</trkpt>
<trkpt lat="48.945588" lon="8.644943">
<ele>321.5</ele>
<speed>1.23</speed>
<course>218.1</course>
<desc>Speed 4.4 km/h Distance 4.59 km</desc>
<time>2010-10-24T11:17:30.07</time>
<name>2846</name>
</trkpt>
<trkpt lat="48.945580" lon="8.644933">
<ele>322.0</ele>
<speed>1.13</speed>
<course>213.2</course>
<desc>Speed 4.1 km/h Distance 4.59 km</desc>
<time>2010-10-24T11:17:31.07</time>
<name>2847</name>
</trkpt>
<trkpt lat="48.945572" lon="8.644925">
<ele>322.5</ele>
<speed>1.05</speed>
<course>232.7</course>
<desc>Speed 3.8 km/h Distance 4.59 km</desc>
<time>2010-10-24T11:17:32.07</time>
<name>2848</name>
</trkpt>
<trkpt lat="48.945565" lon="8.644912">
<ele>322.5</ele>
<speed>1.20</speed>
<course>205.2</course>
<desc>Speed 4.3 km/h Distance 4.59 km</desc>
<time>2010-10-24T11:17:33.07</time>
<name>2849</name>
</trkpt>
<trkpt lat="48.945553" lon="8.644903">
<ele>323.0</ele>
<speed>1.30</speed>
<course>221.4</course>
<desc>Speed 4.7 km/h Distance 4.60 km</desc>
<time>2010-10-24T11:17:34.07</time>
<name>2850</name>
</trkpt>
<trkpt lat="48.945548" lon="8.644897">
<ele>324.0</ele>
<speed>1.01</speed>
<course>224.5</course>
<desc>Speed 3.6 km/h Distance 4.60 km</desc>
<time>2010-10-24T11:17:35.07</time>
<name>2851</name>
</trkpt>
<trkpt lat="48.945542" lon="8.644887">
<ele>324.0</ele>
<speed>1.03</speed>
<course>209.4</course>
<desc>Speed 3.7 km/h Distance 4.60 km</desc>
<time>2010-10-24T11:17:36.07</time>
<name>2852</name>
</trkpt>
<trkpt lat="48.945530" lon="8.644877">
<ele>324.5</ele>
<speed>1.37</speed>
<course>213.4</course>
<desc>Speed 4.9 km/h Distance 4.60 km</desc>
<time>2010-10-24T11:17:37.07</time>
<name>2853</name>
</trkpt>
<trkpt lat="48.945520" lon="8.644867">
<ele>325.0</ele>
<speed>1.17</speed>
<course>229.1</course>
<desc>Speed 4.2 km/h Distance 4.60 km</desc>
<time>2010-10-24T11:17:38.07</time>
<name>2854</name>
</trkpt>
<trkpt lat="48.945513" lon="8.644855">
<ele>325.0</ele>
<speed>1.09</speed>
<course>219.4</course>
<desc>Speed 3.9 km/h Distance 4.60 km</desc>
<time>2010-10-24T11:17:39.07</time>
<name>2855</name>
</trkpt>
<trkpt lat="48.945507" lon="8.644847">
<ele>325.5</ele>
<speed>0.92</speed>
<course>236.9</course>
<desc>Speed 3.3 km/h Distance 4.60 km</desc>
<time>2010-10-24T11:17:40.07</time>
<name>2856</name>
</trkpt>
<trkpt lat="48.945502" lon="8.644835">
<ele>325.0</ele>
<speed>1.02</speed>
<course>243.1</course>
<desc>Speed 3.7 km/h Distance 4.60 km</desc>
<time>2010-10-24T11:17:41.07</time>
<name>2857</name>
</trkpt>
<trkpt lat="48.945497" lon="8.644820">
<ele>324.5</ele>
<speed>1.03</speed>
<course>213.7</course>
<desc>Speed 3.7 km/h Distance 4.60 km</desc>
<time>2010-10-24T11:17:42.07</time>
<name>2858</name>
</trkpt>
<trkpt lat="48.945487" lon="8.644810">
<ele>324.0</ele>
<speed>1.19</speed>
<course>222.6</course>
<desc>Speed 4.3 km/h Distance 4.61 km</desc>
<time>2010-10-24T11:17:43.07</time>
<name>2859</name>
</trkpt>
<trkpt lat="48.945478" lon="8.644798">
<ele>323.5</ele>
<speed>1.08</speed>
<course>213.2</course>
<desc>Speed 3.9 km/h Distance 4.61 km</desc>
<time>2010-10-24T11:17:44.07</time>
<name>2860</name>
</trkpt>
<trkpt lat="48.945468" lon="8.644788">
<ele>322.5</ele>
<speed>1.08</speed>
<course>213.2</course>
<desc>Speed 3.9 km/h Distance 4.61 km</desc>
<time>2010-10-24T11:17:45.07</time>
<name>2861</name>
</trkpt>
<trkpt lat="48.945458" lon="8.644778">
<ele>322.0</ele>
<speed>1.34</speed>
<course>227.4</course>
<desc>Speed 4.8 km/h Distance 4.61 km</desc>
<time>2010-10-24T11:17:46.07</time>
<name>2862</name>
</trkpt>
<trkpt lat="48.945453" lon="8.644770">
<ele>323.0</ele>
<speed>1.03</speed>
<course>213.2</course>
<desc>Speed 3.7 km/h Distance 4.61 km</desc>
<time>2010-10-24T11:17:47.07</time>
<name>2863</name>
</trkpt>
<trkpt lat="48.945445" lon="8.644762">
<ele>324.0</ele>
<speed>1.14</speed>
<course>226.5</course>
<desc>Speed 4.1 km/h Distance 4.61 km</desc>
<time>2010-10-24T11:17:48.07</time>
<name>2864</name>
</trkpt>
<trkpt lat="48.945437" lon="8.644748">
<ele>324.5</ele>
<speed>1.36</speed>
<course>213.4</course>
<desc>Speed 4.9 km/h Distance 4.61 km</desc>
<time>2010-10-24T11:17:49.07</time>
<name>2865</name>
</trkpt>
<trkpt lat="48.945427" lon="8.644738">
<ele>325.0</ele>
<speed>1.30</speed>
<course>213.7</course>
<desc>Speed 4.7 km/h Distance 4.61 km</desc>
<time>2010-10-24T11:17:50.07</time>
<name>2866</name>
</trkpt>
<trkpt lat="48.945420" lon="8.644732">
<ele>325.0</ele>
<speed>1.08</speed>
<course>210.0</course>
<desc>Speed 3.9 km/h Distance 4.62 km</desc>
<time>2010-10-24T11:17:51.07</time>
<name>2867</name>
</trkpt>
<trkpt lat="48.945407" lon="8.644720">
<ele>324.5</ele>
<speed>1.46</speed>
<course>213.2</course>
<desc>Speed 5.3 km/h Distance 4.62 km</desc>
<time>2010-10-24T11:17:52.07</time>
<name>2868</name>
</trkpt>
<trkpt lat="48.945397" lon="8.644710">
<ele>324.5</ele>
<speed>1.37</speed>
<course>218.4</course>
<desc>Speed 4.9 km/h Distance 4.62 km</desc>
<time>2010-10-24T11:17:53.07</time>
<name>2869</name>
</trkpt>
<trkpt lat="48.945388" lon="8.644700">
<ele>324.5</ele>
<speed>1.10</speed>
<course>205.4</course>
<desc>Speed 4.0 km/h Distance 4.62 km</desc>
<time>2010-10-24T11:17:54.07</time>
<name>2870</name>
</trkpt>
<trkpt lat="48.945377" lon="8.644692">
<ele>324.5</ele>
<speed>1.14</speed>
<course>209.8</course>
<desc>Speed 4.1 km/h Distance 4.62 km</desc>
<time>2010-10-24T11:17:55.07</time>
<name>2871</name>
</trkpt>
<trkpt lat="48.945363" lon="8.644680">
<ele>324.0</ele>
<speed>1.70</speed>
<course>213.3</course>
<desc>Speed 6.1 km/h Distance 4.62 km</desc>
<time>2010-10-24T11:17:56.07</time>
<name>2872</name>
</trkpt>
<trkpt lat="48.945352" lon="8.644668">
<ele>324.5</ele>
<speed>1.37</speed>
<course>217.5</course>
<desc>Speed 4.9 km/h Distance 4.62 km</desc>
<time>2010-10-24T11:17:57.07</time>
<name>2873</name>
</trkpt>
<trkpt lat="48.945342" lon="8.644657">
<ele>324.5</ele>
<speed>1.29</speed>
<course>205.2</course>
<desc>Speed 4.6 km/h Distance 4.63 km</desc>
<time>2010-10-24T11:17:58.07</time>
<name>2874</name>
</trkpt>
<trkpt lat="48.945330" lon="8.644648">
<ele>324.5</ele>
<speed>1.29</speed>
<course>213.2</course>
<desc>Speed 4.6 km/h Distance 4.63 km</desc>
<time>2010-10-24T11:17:59.07</time>
<name>2875</name>
</trkpt>
<trkpt lat="48.945320" lon="8.644638">
<ele>325.0</ele>
<speed>1.15</speed>
<course>198.4</course>
<desc>Speed 4.1 km/h Distance 4.63 km</desc>
<time>2010-10-24T11:18:00.07</time>
<name>2876</name>
</trkpt>
<trkpt lat="48.945307" lon="8.644632">
<ele>325.0</ele>
<speed>1.36</speed>
<course>208.9</course>
<desc>Speed 4.9 km/h Distance 4.63 km</desc>
<time>2010-10-24T11:18:01.07</time>
<name>2877</name>
</trkpt>
<trkpt lat="48.945297" lon="8.644623">
<ele>325.0</ele>
<speed>1.12</speed>
<course>213.2</course>
<desc>Speed 4.0 km/h Distance 4.63 km</desc>
<time>2010-10-24T11:18:02.07</time>
<name>2878</name>
</trkpt>
<trkpt lat="48.945287" lon="8.644613">
<ele>325.0</ele>
<speed>1.27</speed>
<course>206.2</course>
<desc>Speed 4.6 km/h Distance 4.63 km</desc>
<time>2010-10-24T11:18:03.07</time>
<name>2879</name>
</trkpt>
<trkpt lat="48.945273" lon="8.644603">
<ele>324.5</ele>
<speed>1.37</speed>
<course>192.6</course>
<desc>Speed 4.9 km/h Distance 4.63 km</desc>
<time>2010-10-24T11:18:04.07</time>
<name>2880</name>
</trkpt>
<trkpt lat="48.945263" lon="8.644600">
<ele>325.5</ele>
<speed>1.16</speed>
<course>198.1</course>
<desc>Speed 4.2 km/h Distance 4.64 km</desc>
<time>2010-10-24T11:18:05.07</time>
<name>2881</name>
</trkpt>
<trkpt lat="48.945250" lon="8.644593">
<ele>326.0</ele>
<speed>1.41</speed>
<course>206.0</course>
<desc>Speed 5.1 km/h Distance 4.64 km</desc>
<time>2010-10-24T11:18:06.07</time>
<name>2882</name>
</trkpt>
<trkpt lat="48.945237" lon="8.644583">
<ele>325.5</ele>
<speed>1.35</speed>
<course>205.2</course>
<desc>Speed 4.9 km/h Distance 4.64 km</desc>
<time>2010-10-24T11:18:07.07</time>
<name>2883</name>
</trkpt>
<trkpt lat="48.945225" lon="8.644575">
<ele>325.0</ele>
<speed>1.22</speed>
<course>190.2</course>
<desc>Speed 4.4 km/h Distance 4.64 km</desc>
<time>2010-10-24T11:18:08.07</time>
<name>2884</name>
</trkpt>
<trkpt lat="48.945207" lon="8.644570">
<ele>324.5</ele>
<speed>1.51</speed>
<course>202.1</course>
<desc>Speed 5.4 km/h Distance 4.64 km</desc>
<time>2010-10-24T11:18:09.07</time>
<name>2885</name>
</trkpt>
<trkpt lat="48.945193" lon="8.644562">
<ele>324.0</ele>
<speed>1.48</speed>
<course>203.8</course>
<desc>Speed 5.3 km/h Distance 4.64 km</desc>
<time>2010-10-24T11:18:10.07</time>
<name>2886</name>
</trkpt>
<trkpt lat="48.945183" lon="8.644555">
<ele>324.5</ele>
<speed>1.09</speed>
<course>209.4</course>
<desc>Speed 3.9 km/h Distance 4.65 km</desc>
<time>2010-10-24T11:18:11.07</time>
<name>2887</name>
</trkpt>
<trkpt lat="48.945172" lon="8.644545">
<ele>324.0</ele>
<speed>1.36</speed>
<course>224.5</course>
<desc>Speed 4.9 km/h Distance 4.65 km</desc>
<time>2010-10-24T11:18:12.07</time>
<name>2888</name>
</trkpt>
<trkpt lat="48.945165" lon="8.644535">
<ele>324.0</ele>
<speed>1.00</speed>
<course>213.2</course>
<desc>Speed 3.6 km/h Distance 4.65 km</desc>
<time>2010-10-24T11:18:13.07</time>
<name>2889</name>
</trkpt>
<trkpt lat="48.945157" lon="8.644527">
<ele>325.5</ele>
<speed>0.93</speed>
<course>198.1</course>
<desc>Speed 3.3 km/h Distance 4.65 km</desc>
<time>2010-10-24T11:18:14.07</time>
<name>2890</name>
</trkpt>
<trkpt lat="48.945143" lon="8.644520">
<ele>326.0</ele>
<speed>1.34</speed>
<course>187.5</course>
<desc>Speed 4.8 km/h Distance 4.65 km</desc>
<time>2010-10-24T11:18:15.07</time>
<name>2891</name>
</trkpt>
<trkpt lat="48.945128" lon="8.644517">
<ele>326.0</ele>
<speed>1.60</speed>
<course>189.0</course>
<desc>Speed 5.8 km/h Distance 4.65 km</desc>
<time>2010-10-24T11:18:16.07</time>
<name>2892</name>
</trkpt>
<trkpt lat="48.945115" lon="8.644513">
<ele>326.0</ele>
<speed>1.32</speed>
<course>198.2</course>
<desc>Speed 4.8 km/h Distance 4.65 km</desc>
<time>2010-10-24T11:18:17.07</time>
<name>2893</name>
</trkpt>
<trkpt lat="48.945105" lon="8.644508">
<ele>326.0</ele>
<speed>0.94</speed>
<course>196.6</course>
<desc>Speed 3.4 km/h Distance 4.65 km</desc>
<time>2010-10-24T11:18:18.07</time>
<name>2894</name>
</trkpt>
<trkpt lat="48.945090" lon="8.644502">
<ele>325.5</ele>
<speed>1.48</speed>
<course>206.4</course>
<desc>Speed 5.3 km/h Distance 4.66 km</desc>
<time>2010-10-24T11:18:19.07</time>
<name>2895</name>
</trkpt>
<trkpt lat="48.945077" lon="8.644492">
<ele>325.0</ele>
<speed>1.55</speed>
<course>195.5</course>
<desc>Speed 5.6 km/h Distance 4.66 km</desc>
<time>2010-10-24T11:18:20.07</time>
<name>2896</name>
</trkpt>
<trkpt lat="48.945065" lon="8.644487">
<ele>325.0</ele>
<speed>1.12</speed>
<course>190.4</course>
<desc>Speed 4.0 km/h Distance 4.66 km</desc>
<time>2010-10-24T11:18:21.07</time>
<name>2897</name>
</trkpt>
<trkpt lat="48.945053" lon="8.644483">
<ele>325.0</ele>
<speed>1.19</speed>
<course>196.6</course>
<desc>Speed 4.3 km/h Distance 4.66 km</desc>
<time>2010-10-24T11:18:22.07</time>
<name>2898</name>
</trkpt>
<trkpt lat="48.945038" lon="8.644477">
<ele>324.5</ele>
<speed>1.45</speed>
<course>191.2</course>
<desc>Speed 5.2 km/h Distance 4.66 km</desc>
<time>2010-10-24T11:18:23.07</time>
<name>2899</name>
</trkpt>
<trkpt lat="48.945022" lon="8.644472">
<ele>324.0</ele>
<speed>1.47</speed>
<course>185.3</course>
<desc>Speed 5.3 km/h Distance 4.66 km</desc>
<time>2010-10-24T11:18:24.07</time>
<name>2900</name>
</trkpt>
<trkpt lat="48.945008" lon="8.644470">
<ele>323.0</ele>
<speed>1.29</speed>
<course>187.7</course>
<desc>Speed 4.6 km/h Distance 4.67 km</desc>
<time>2010-10-24T11:18:25.07</time>
<name>2901</name>
</trkpt>
<trkpt lat="48.945000" lon="8.644468">
<ele>323.5</ele>
<speed>0.87</speed>
<course>189.5</course>
<desc>Speed 3.1 km/h Distance 4.67 km</desc>
<time>2010-10-24T11:18:26.07</time>
<name>2902</name>
</trkpt>
<trkpt lat="48.944988" lon="8.644465">
<ele>323.5</ele>
<speed>1.25</speed>
<course>198.1</course>
<desc>Speed 4.5 km/h Distance 4.67 km</desc>
<time>2010-10-24T11:18:27.07</time>
<name>2903</name>
</trkpt>
<trkpt lat="48.944975" lon="8.644458">
<ele>322.5</ele>
<speed>1.33</speed>
<course>183.9</course>
<desc>Speed 4.8 km/h Distance 4.67 km</desc>
<time>2010-10-24T11:18:28.07</time>
<name>2904</name>
</trkpt>
<trkpt lat="48.944962" lon="8.644457">
<ele>323.0</ele>
<speed>1.29</speed>
<course>193.5</course>
<desc>Speed 4.6 km/h Distance 4.67 km</desc>
<time>2010-10-24T11:18:29.07</time>
<name>2905</name>
</trkpt>
<trkpt lat="48.944948" lon="8.644452">
<ele>323.0</ele>
<speed>1.37</speed>
<course>189.5</course>
<desc>Speed 4.9 km/h Distance 4.67 km</desc>
<time>2010-10-24T11:18:30.07</time>
<name>2906</name>
</trkpt>
<trkpt lat="48.944937" lon="8.644448">
<ele>323.5</ele>
<speed>1.30</speed>
<course>195.5</course>
<desc>Speed 4.7 km/h Distance 4.67 km</desc>
<time>2010-10-24T11:18:31.07</time>
<name>2907</name>
</trkpt>
<trkpt lat="48.944925" lon="8.644443">
<ele>323.5</ele>
<speed>1.25</speed>
<course>10.4</course>
<desc>Speed 4.5 km/h Distance 4.68 km</desc>
<time>2010-10-24T11:18:32.07</time>
<name>2908</name>
</trkpt>
<trkpt lat="48.944937" lon="8.644447">
<ele>325.0</ele>
<speed>1.49</speed>
<course>195.5</course>
<desc>Speed 5.4 km/h Distance 4.68 km</desc>
<time>2010-10-24T11:18:33.07</time>
<name>2909</name>
</trkpt>
<trkpt lat="48.944925" lon="8.644442">
<ele>324.5</ele>
<speed>1.10</speed>
<course>198.1</course>
<desc>Speed 4.0 km/h Distance 4.68 km</desc>
<time>2010-10-24T11:18:34.07</time>
<name>2910</name>
</trkpt>
<trkpt lat="48.944912" lon="8.644435">
<ele>324.5</ele>
<speed>1.40</speed>
<course>194.9</course>
<desc>Speed 5.0 km/h Distance 4.68 km</desc>
<time>2010-10-24T11:18:35.07</time>
<name>2911</name>
</trkpt>
<trkpt lat="48.944900" lon="8.644430">
<ele>325.0</ele>
<speed>1.01</speed>
<course>193.5</course>
<desc>Speed 3.6 km/h Distance 4.68 km</desc>
<time>2010-10-24T11:18:36.07</time>
<name>2912</name>
</trkpt>
<trkpt lat="48.944887" lon="8.644425">
<ele>324.5</ele>
<speed>1.42</speed>
<course>191.2</course>
<desc>Speed 5.1 km/h Distance 4.68 km</desc>
<time>2010-10-24T11:18:37.07</time>
<name>2913</name>
</trkpt>
<trkpt lat="48.944875" lon="8.644422">
<ele>324.5</ele>
<speed>1.02</speed>
<course>171.9</course>
<desc>Speed 3.7 km/h Distance 4.68 km</desc>
<time>2010-10-24T11:18:38.07</time>
<name>2914</name>
</trkpt>
<trkpt lat="48.944865" lon="8.644423">
<ele>325.5</ele>
<speed>0.98</speed>
<course>193.5</course>
<desc>Speed 3.5 km/h Distance 4.68 km</desc>
<time>2010-10-24T11:18:39.07</time>
<name>2915</name>
</trkpt>
<trkpt lat="48.944852" lon="8.644418">
<ele>325.5</ele>
<speed>1.30</speed>
<course>203.8</course>
<desc>Speed 4.7 km/h Distance 4.69 km</desc>
<time>2010-10-24T11:18:40.07</time>
<name>2916</name>
</trkpt>
<trkpt lat="48.944842" lon="8.644412">
<ele>325.5</ele>
<speed>0.99</speed>
<course>180.0</course>
<desc>Speed 3.6 km/h Distance 4.69 km</desc>
<time>2010-10-24T11:18:41.07</time>
<name>2917</name>
</trkpt>
<trkpt lat="48.944825" lon="8.644412">
<ele>326.0</ele>
<speed>1.50</speed>
<course>183.8</course>
<desc>Speed 5.4 km/h Distance 4.69 km</desc>
<time>2010-10-24T11:18:42.07</time>
<name>2918</name>
</trkpt>
<trkpt lat="48.944810" lon="8.644410">
<ele>326.0</ele>
<speed>1.25</speed>
<course>192.6</course>
<desc>Speed 4.5 km/h Distance 4.69 km</desc>
<time>2010-10-24T11:18:43.07</time>
<name>2919</name>
</trkpt>
<trkpt lat="48.944790" lon="8.644403">
<ele>326.5</ele>
<speed>1.25</speed>
<course>157.7</course>
<desc>Speed 4.5 km/h Distance 4.69 km</desc>
<time>2010-10-24T11:18:44.07</time>
<name>2920</name>
</trkpt>
<trkpt lat="48.944777" lon="8.644412">
<ele>328.0</ele>
<speed>0.73</speed>
<course>196.0</course>
<desc>Speed 2.6 km/h Distance 4.70 km</desc>
<time>2010-10-24T11:18:45.07</time>
<name>2921</name>
</trkpt>
<trkpt lat="48.944765" lon="8.644407">
<ele>328.0</ele>
<speed>1.25</speed>
<course>165.4</course>
<desc>Speed 4.5 km/h Distance 4.70 km</desc>
<time>2010-10-24T11:18:46.07</time>
<name>2922</name>
</trkpt>
<trkpt lat="48.944748" lon="8.644413">
<ele>328.0</ele>
<speed>1.03</speed>
<course>198.1</course>
<desc>Speed 3.7 km/h Distance 4.70 km</desc>
<time>2010-10-24T11:18:47.07</time>
<name>2923</name>
</trkpt>
<trkpt lat="48.944735" lon="8.644407">
<ele>328.0</ele>
<speed>1.41</speed>
<course>196.6</course>
<desc>Speed 5.1 km/h Distance 4.70 km</desc>
<time>2010-10-24T11:18:48.07</time>
<name>2924</name>
</trkpt>
<trkpt lat="48.944720" lon="8.644400">
<ele>327.5</ele>
<speed>1.20</speed>
<course>222.6</course>
<desc>Speed 4.3 km/h Distance 4.70 km</desc>
<time>2010-10-24T11:18:49.07</time>
<name>2925</name>
</trkpt>
<trkpt lat="48.944712" lon="8.644388">
<ele>327.0</ele>
<speed>0.97</speed>
<course>202.1</course>
<desc>Speed 3.5 km/h Distance 4.70 km</desc>
<time>2010-10-24T11:18:50.07</time>
<name>2926</name>
</trkpt>
<trkpt lat="48.944698" lon="8.644380">
<ele>327.0</ele>
<speed>1.24</speed>
<course>190.8</course>
<desc>Speed 4.5 km/h Distance 4.70 km</desc>
<time>2010-10-24T11:18:51.07</time>
<name>2927</name>
</trkpt>
<trkpt lat="48.944682" lon="8.644375">
<ele>327.0</ele>
<speed>1.40</speed>
<course>185.3</course>
<desc>Speed 5.0 km/h Distance 4.71 km</desc>
<time>2010-10-24T11:18:52.07</time>
<name>2928</name>
</trkpt>
<trkpt lat="48.944668" lon="8.644373">
<ele>327.5</ele>
<speed>1.22</speed>
<course>208.9</course>
<desc>Speed 4.4 km/h Distance 4.71 km</desc>
<time>2010-10-24T11:18:53.07</time>
<name>2929</name>
</trkpt>
<trkpt lat="48.944658" lon="8.644365">
<ele>328.0</ele>
<speed>1.21</speed>
<course>190.4</course>
<desc>Speed 4.4 km/h Distance 4.71 km</desc>
<time>2010-10-24T11:18:54.07</time>
<name>2930</name>
</trkpt>
<trkpt lat="48.944647" lon="8.644362">
<ele>328.5</ele>
<speed>1.20</speed>
<course>196.8</course>
<desc>Speed 4.3 km/h Distance 4.71 km</desc>
<time>2010-10-24T11:18:55.07</time>
<name>2931</name>
</trkpt>
<trkpt lat="48.944625" lon="8.644352">
<ele>329.0</ele>
<speed>1.54</speed>
<course>184.4</course>
<desc>Speed 5.5 km/h Distance 4.71 km</desc>
<time>2010-10-24T11:18:56.07</time>
<name>2932</name>
</trkpt>
<trkpt lat="48.944615" lon="8.644350">
<ele>329.5</ele>
<speed>1.03</speed>
<course>198.1</course>
<desc>Speed 3.7 km/h Distance 4.71 km</desc>
<time>2010-10-24T11:18:57.07</time>
<name>2933</name>
</trkpt>
<trkpt lat="48.944602" lon="8.644343">
<ele>330.0</ele>
<speed>1.44</speed>
<course>203.5</course>
<desc>Speed 5.2 km/h Distance 4.72 km</desc>
<time>2010-10-24T11:18:58.07</time>
<name>2934</name>
</trkpt>
<trkpt lat="48.944587" lon="8.644333">
<ele>329.5</ele>
<speed>1.32</speed>
<course>189.0</course>
<desc>Speed 4.8 km/h Distance 4.72 km</desc>
<time>2010-10-24T11:18:59.07</time>
<name>2935</name>
</trkpt>
<trkpt lat="48.944573" lon="8.644330">
<ele>330.0</ele>
<speed>1.50</speed>
<course>207.9</course>
<desc>Speed 5.4 km/h Distance 4.72 km</desc>
<time>2010-10-24T11:19:00.07</time>
<name>2936</name>
</trkpt>
<trkpt lat="48.944565" lon="8.644323">
<ele>330.5</ele>
<speed>0.75</speed>
<course>202.1</course>
<desc>Speed 2.7 km/h Distance 4.72 km</desc>
<time>2010-10-24T11:19:01.07</time>
<name>2937</name>
</trkpt>
<trkpt lat="48.944552" lon="8.644315">
<ele>330.5</ele>
<speed>1.48</speed>
<course>196.3</course>
<desc>Speed 5.3 km/h Distance 4.72 km</desc>
<time>2010-10-24T11:19:02.07</time>
<name>2938</name>
</trkpt>
<trkpt lat="48.944537" lon="8.644308">
<ele>331.0</ele>
<speed>1.38</speed>
<course>205.2</course>
<desc>Speed 5.0 km/h Distance 4.72 km</desc>
<time>2010-10-24T11:19:03.07</time>
<name>2939</name>
</trkpt>
<trkpt lat="48.944525" lon="8.644300">
<ele>331.0</ele>
<speed>1.37</speed>
<course>188.8</course>
<desc>Speed 4.9 km/h Distance 4.72 km</desc>
<time>2010-10-24T11:19:04.07</time>
<name>2940</name>
</trkpt>
<trkpt lat="48.944510" lon="8.644297">
<ele>331.5</ele>
<speed>1.47</speed>
<course>185.3</course>
<desc>Speed 5.3 km/h Distance 4.73 km</desc>
<time>2010-10-24T11:19:05.07</time>
<name>2941</name>
</trkpt>
<trkpt lat="48.944497" lon="8.644295">
<ele>332.5</ele>
<speed>1.37</speed>
<course>173.4</course>
<desc>Speed 4.9 km/h Distance 4.73 km</desc>
<time>2010-10-24T11:19:06.07</time>
<name>2942</name>
</trkpt>
<trkpt lat="48.944487" lon="8.644297">
<ele>334.5</ele>
<speed>0.80</speed>
<course>185.3</course>
<desc>Speed 2.9 km/h Distance 4.73 km</desc>
<time>2010-10-24T11:19:07.07</time>
<name>2943</name>
</trkpt>
<trkpt lat="48.944473" lon="8.644295">
<ele>335.5</ele>
<speed>1.26</speed>
<course>207.9</course>
<desc>Speed 4.5 km/h Distance 4.73 km</desc>
<time>2010-10-24T11:19:08.07</time>
<name>2944</name>
</trkpt>
<trkpt lat="48.944465" lon="8.644288">
<ele>336.5</ele>
<speed>1.12</speed>
<course>206.4</course>
<desc>Speed 4.0 km/h Distance 4.73 km</desc>
<time>2010-10-24T11:19:09.07</time>
<name>2945</name>
</trkpt>
<trkpt lat="48.944452" lon="8.644278">
<ele>336.5</ele>
<speed>1.50</speed>
<course>206.2</course>
<desc>Speed 5.4 km/h Distance 4.73 km</desc>
<time>2010-10-24T11:19:10.07</time>
<name>2946</name>
</trkpt>
<trkpt lat="48.944438" lon="8.644268">
<ele>336.5</ele>
<speed>1.59</speed>
<course>208.6</course>
<desc>Speed 5.7 km/h Distance 4.73 km</desc>
<time>2010-10-24T11:19:11.07</time>
<name>2947</name>
</trkpt>
<trkpt lat="48.944428" lon="8.644260">
<ele>336.5</ele>
<speed>1.28</speed>
<course>224.5</course>
<desc>Speed 4.6 km/h Distance 4.74 km</desc>
<time>2010-10-24T11:19:12.07</time>
<name>2948</name>
</trkpt>
<trkpt lat="48.944422" lon="8.644250">
<ele>337.5</ele>
<speed>0.86</speed>
<course>207.9</course>
<desc>Speed 3.1 km/h Distance 4.74 km</desc>
<time>2010-10-24T11:19:13.07</time>
<name>2949</name>
</trkpt>
<trkpt lat="48.944413" lon="8.644243">
<ele>339.0</ele>
<speed>0.88</speed>
<course>222.6</course>
<desc>Speed 3.2 km/h Distance 4.74 km</desc>
<time>2010-10-24T11:19:14.07</time>
<name>2950</name>
</trkpt>
<trkpt lat="48.944405" lon="8.644232">
<ele>339.0</ele>
<speed>1.19</speed>
<course>180.0</course>
<desc>Speed 4.3 km/h Distance 4.74 km</desc>
<time>2010-10-24T11:19:15.07</time>
<name>2951</name>
</trkpt>
<trkpt lat="48.944390" lon="8.644232">
<ele>340.5</ele>
<speed>1.61</speed>
<course>209.4</course>
<desc>Speed 5.8 km/h Distance 4.74 km</desc>
<time>2010-10-24T11:19:16.07</time>
<name>2952</name>
</trkpt>
<trkpt lat="48.944378" lon="8.644222">
<ele>341.5</ele>
<speed>1.36</speed>
<course>209.4</course>
<desc>Speed 4.9 km/h Distance 4.74 km</desc>
<time>2010-10-24T11:19:17.07</time>
<name>2953</name>
</trkpt>
<trkpt lat="48.944367" lon="8.644212">
<ele>341.5</ele>
<speed>1.51</speed>
<course>209.8</course>
<desc>Speed 5.4 km/h Distance 4.74 km</desc>
<time>2010-10-24T11:19:18.07</time>
<name>2954</name>
</trkpt>
<trkpt lat="48.944353" lon="8.644200">
<ele>342.0</ele>
<speed>1.51</speed>
<course>213.2</course>
<desc>Speed 5.4 km/h Distance 4.75 km</desc>
<time>2010-10-24T11:19:19.07</time>
<name>2955</name>
</trkpt>
<trkpt lat="48.944343" lon="8.644190">
<ele>342.0</ele>
<speed>1.45</speed>
<course>220.5</course>
<desc>Speed 5.2 km/h Distance 4.75 km</desc>
<time>2010-10-24T11:19:20.07</time>
<name>2956</name>
</trkpt>
<trkpt lat="48.944327" lon="8.644168">
<ele>341.5</ele>
<speed>1.37</speed>
<course>225.7</course>
<desc>Speed 4.9 km/h Distance 4.75 km</desc>
<time>2010-10-24T11:19:21.07</time>
<name>2957</name>
</trkpt>
<trkpt lat="48.944312" lon="8.644145">
<ele>341.5</ele>
<speed>1.37</speed>
<course>224.6</course>
<desc>Speed 4.9 km/h Distance 4.75 km</desc>
<time>2010-10-24T11:19:22.07</time>
<name>2958</name>
</trkpt>
<trkpt lat="48.944295" lon="8.644120">
<ele>341.0</ele>
<speed>1.51</speed>
<course>235.3</course>
<desc>Speed 5.4 km/h Distance 4.75 km</desc>
<time>2010-10-24T11:19:23.07</time>
<name>2959</name>
</trkpt>
<trkpt lat="48.944287" lon="8.644102">
<ele>340.5</ele>
<speed>1.30</speed>
<course>228.4</course>
<desc>Speed 4.7 km/h Distance 4.76 km</desc>
<time>2010-10-24T11:19:24.07</time>
<name>2960</name>
</trkpt>
<trkpt lat="48.944275" lon="8.644082">
<ele>340.0</ele>
<speed>1.42</speed>
<course>250.6</course>
<desc>Speed 5.1 km/h Distance 4.76 km</desc>
<time>2010-10-24T11:19:25.07</time>
<name>2961</name>
</trkpt>
<trkpt lat="48.944270" lon="8.644060">
<ele>340.0</ele>
<speed>1.45</speed>
<course>230.6</course>
<desc>Speed 5.2 km/h Distance 4.76 km</desc>
<time>2010-10-24T11:19:26.07</time>
<name>2962</name>
</trkpt>
<trkpt lat="48.944258" lon="8.644038">
<ele>339.5</ele>
<speed>1.33</speed>
<course>213.1</course>
<desc>Speed 4.8 km/h Distance 4.76 km</desc>
<time>2010-10-24T11:19:27.07</time>
<name>2963</name>
</trkpt>
<trkpt lat="48.944247" lon="8.644027">
<ele>339.5</ele>
<speed>1.34</speed>
<course>250.6</course>
<desc>Speed 4.8 km/h Distance 4.76 km</desc>
<time>2010-10-24T11:19:28.07</time>
<name>2964</name>
</trkpt>
<trkpt lat="48.944242" lon="8.644005">
<ele>339.5</ele>
<speed>1.34</speed>
<course>241.1</course>
<desc>Speed 4.8 km/h Distance 4.77 km</desc>
<time>2010-10-24T11:19:29.07</time>
<name>2965</name>
</trkpt>
<trkpt lat="48.944235" lon="8.643987">
<ele>339.5</ele>
<speed>1.51</speed>
<course>243.1</course>
<desc>Speed 5.4 km/h Distance 4.77 km</desc>
<time>2010-10-24T11:19:30.07</time>
<name>2966</name>
</trkpt>
<trkpt lat="48.944227" lon="8.643962">
<ele>339.5</ele>
<speed>1.49</speed>
<course>251.4</course>
<desc>Speed 5.4 km/h Distance 4.77 km</desc>
<time>2010-10-24T11:19:31.07</time>
<name>2967</name>
</trkpt>
<trkpt lat="48.944223" lon="8.643947">
<ele>339.5</ele>
<speed>1.25</speed>
<course>247.5</course>
<desc>Speed 4.5 km/h Distance 4.77 km</desc>
<time>2010-10-24T11:19:32.07</time>
<name>2968</name>
</trkpt>
<trkpt lat="48.944218" lon="8.643928">
<ele>340.0</ele>
<speed>1.30</speed>
<course>229.9</course>
<desc>Speed 4.7 km/h Distance 4.77 km</desc>
<time>2010-10-24T11:19:33.07</time>
<name>2969</name>
</trkpt>
<trkpt lat="48.944210" lon="8.643913">
<ele>340.0</ele>
<speed>1.42</speed>
<course>232.7</course>
<desc>Speed 5.1 km/h Distance 4.77 km</desc>
<time>2010-10-24T11:19:34.07</time>
<name>2970</name>
</trkpt>
<trkpt lat="48.944203" lon="8.643900">
<ele>340.5</ele>
<speed>1.14</speed>
<course>241.0</course>
<desc>Speed 4.1 km/h Distance 4.77 km</desc>
<time>2010-10-24T11:19:35.07</time>
<name>2971</name>
</trkpt>
<trkpt lat="48.944197" lon="8.643882">
<ele>340.5</ele>
<speed>1.40</speed>
<course>232.7</course>
<desc>Speed 5.0 km/h Distance 4.78 km</desc>
<time>2010-10-24T11:19:36.07</time>
<name>2972</name>
</trkpt>
<trkpt lat="48.944190" lon="8.643868">
<ele>341.5</ele>
<speed>1.00</speed>
<course>232.7</course>
<desc>Speed 3.6 km/h Distance 4.78 km</desc>
<time>2010-10-24T11:19:37.07</time>
<name>2973</name>
</trkpt>
<trkpt lat="48.944182" lon="8.643852">
<ele>341.5</ele>
<speed>1.24</speed>
<course>221.2</course>
<desc>Speed 4.5 km/h Distance 4.78 km</desc>
<time>2010-10-24T11:19:38.07</time>
<name>2974</name>
</trkpt>
<trkpt lat="48.944172" lon="8.643838">
<ele>342.5</ele>
<speed>1.12</speed>
<course>216.6</course>
<desc>Speed 4.0 km/h Distance 4.78 km</desc>
<time>2010-10-24T11:19:39.07</time>
<name>2975</name>
</trkpt>
<trkpt lat="48.944158" lon="8.643823">
<ele>342.0</ele>
<speed>1.22</speed>
<course>213.2</course>
<desc>Speed 4.4 km/h Distance 4.78 km</desc>
<time>2010-10-24T11:19:40.07</time>
<name>2976</name>
</trkpt>
<trkpt lat="48.944150" lon="8.643815">
<ele>343.0</ele>
<speed>1.00</speed>
<course>270.0</course>
<desc>Speed 3.6 km/h Distance 4.78 km</desc>
<time>2010-10-24T11:19:41.07</time>
<name>2977</name>
</trkpt>
<trkpt lat="48.944150" lon="8.643795">
<ele>342.5</ele>
<speed>1.12</speed>
<course>238.6</course>
<desc>Speed 4.0 km/h Distance 4.78 km</desc>
<time>2010-10-24T11:19:42.07</time>
<name>2978</name>
</trkpt>
<trkpt lat="48.944143" lon="8.643778">
<ele>343.0</ele>
<speed>1.12</speed>
<course>256.8</course>
<desc>Speed 4.0 km/h Distance 4.79 km</desc>
<time>2010-10-24T11:19:43.07</time>
<name>2979</name>
</trkpt>
<trkpt lat="48.944140" lon="8.643757">
<ele>342.0</ele>
<speed>1.17</speed>
<course>189.0</course>
<desc>Speed 4.2 km/h Distance 4.79 km</desc>
<time>2010-10-24T11:19:44.07</time>
<name>2980</name>
</trkpt>
<trkpt lat="48.944127" lon="8.643753">
<ele>343.5</ele>
<speed>1.37</speed>
<course>209.4</course>
<desc>Speed 4.9 km/h Distance 4.79 km</desc>
<time>2010-10-24T11:19:45.07</time>
<name>2981</name>
</trkpt>
<trkpt lat="48.944115" lon="8.643743">
<ele>343.0</ele>
<speed>1.29</speed>
<course>245.5</course>
<desc>Speed 4.6 km/h Distance 4.79 km</desc>
<time>2010-10-24T11:19:46.07</time>
<name>2982</name>
</trkpt>
<trkpt lat="48.944110" lon="8.643727">
<ele>344.0</ele>
<speed>1.15</speed>
<course>238.6</course>
<desc>Speed 4.1 km/h Distance 4.79 km</desc>
<time>2010-10-24T11:19:47.07</time>
<name>2983</name>
</trkpt>
<trkpt lat="48.944103" lon="8.643710">
<ele>343.5</ele>
<speed>1.23</speed>
<course>245.4</course>
<desc>Speed 4.4 km/h Distance 4.79 km</desc>
<time>2010-10-24T11:19:48.07</time>
<name>2984</name>
</trkpt>
<trkpt lat="48.944098" lon="8.643693">
<ele>343.5</ele>
<speed>1.16</speed>
<course>256.8</course>
<desc>Speed 4.2 km/h Distance 4.79 km</desc>
<time>2010-10-24T11:19:49.07</time>
<name>2985</name>
</trkpt>
<trkpt lat="48.944095" lon="8.643672">
<ele>343.5</ele>
<speed>1.28</speed>
<course>216.6</course>
<desc>Speed 4.6 km/h Distance 4.80 km</desc>
<time>2010-10-24T11:19:50.07</time>
<name>2986</name>
</trkpt>
<trkpt lat="48.944082" lon="8.643657">
<ele>343.0</ele>
<speed>1.47</speed>
<course>241.0</course>
<desc>Speed 5.3 km/h Distance 4.80 km</desc>
<time>2010-10-24T11:19:51.07</time>
<name>2987</name>
</trkpt>
<trkpt lat="48.944075" lon="8.643638">
<ele>342.5</ele>
<speed>1.36</speed>
<course>243.1</course>
<desc>Speed 4.9 km/h Distance 4.80 km</desc>
<time>2010-10-24T11:19:52.07</time>
<name>2988</name>
</trkpt>
<trkpt lat="48.944068" lon="8.643618">
<ele>341.5</ele>
<speed>1.58</speed>
<course>277.2</course>
<desc>Speed 5.7 km/h Distance 4.80 km</desc>
<time>2010-10-24T11:19:53.07</time>
<name>2989</name>
</trkpt>
<trkpt lat="48.944070" lon="8.643598">
<ele>341.0</ele>
<speed>1.49</speed>
<course>249.1</course>
<desc>Speed 5.4 km/h Distance 4.80 km</desc>
<time>2010-10-24T11:19:54.07</time>
<name>2990</name>
</trkpt>
<trkpt lat="48.944065" lon="8.643578">
<ele>340.5</ele>
<speed>1.16</speed>
<course>241.4</course>
<desc>Speed 4.2 km/h Distance 4.80 km</desc>
<time>2010-10-24T11:19:55.07</time>
<name>2991</name>
</trkpt>
<trkpt lat="48.944057" lon="8.643555">
<ele>340.5</ele>
<speed>1.44</speed>
<course>258.5</course>
<desc>Speed 5.2 km/h Distance 4.81 km</desc>
<time>2010-10-24T11:19:56.07</time>
<name>2992</name>
</trkpt>
<trkpt lat="48.944053" lon="8.643530">
<ele>339.5</ele>
<speed>1.40</speed>
<course>253.1</course>
<desc>Speed 5.0 km/h Distance 4.81 km</desc>
<time>2010-10-24T11:19:57.07</time>
<name>2993</name>
</trkpt>
<trkpt lat="48.944048" lon="8.643505">
<ele>339.0</ele>
<speed>1.23</speed>
<course>235.9</course>
<desc>Speed 4.4 km/h Distance 4.81 km</desc>
<time>2010-10-24T11:19:58.07</time>
<name>2994</name>
</trkpt>
<trkpt lat="48.944042" lon="8.643490">
<ele>338.5</ele>
<speed>1.16</speed>
<course>235.3</course>
<desc>Speed 4.2 km/h Distance 4.81 km</desc>
<time>2010-10-24T11:19:59.07</time>
<name>2995</name>
</trkpt>
<trkpt lat="48.944033" lon="8.643472">
<ele>338.5</ele>
<speed>1.41</speed>
<course>270.0</course>
<desc>Speed 5.1 km/h Distance 4.81 km</desc>
<time>2010-10-24T11:20:00.07</time>
<name>2996</name>
</trkpt>
<trkpt lat="48.944033" lon="8.643458">
<ele>338.5</ele>
<speed>0.94</speed>
<course>206.2</course>
<desc>Speed 3.4 km/h Distance 4.81 km</desc>
<time>2010-10-24T11:20:01.07</time>
<name>2997</name>
</trkpt>
<trkpt lat="48.944013" lon="8.643443">
<ele>338.5</ele>
<speed>1.08</speed>
<course>238.6</course>
<desc>Speed 3.9 km/h Distance 4.82 km</desc>
<time>2010-10-24T11:20:02.07</time>
<name>2998</name>
</trkpt>
<trkpt lat="48.944010" lon="8.643435">
<ele>339.5</ele>
<speed>0.62</speed>
<course>232.7</course>
<desc>Speed 2.2 km/h Distance 4.82 km</desc>
<time>2010-10-24T11:20:03.07</time>
<name>2999</name>
</trkpt>
<trkpt lat="48.944000" lon="8.643415">
<ele>339.0</ele>
<speed>1.46</speed>
<course>207.2</course>
<desc>Speed 5.3 km/h Distance 4.82 km</desc>
<time>2010-10-24T11:20:04.07</time>
<name>3000</name>
</trkpt>
<trkpt lat="48.943985" lon="8.643403">
<ele>339.0</ele>
<speed>1.07</speed>
<course>199.7</course>
<desc>Speed 3.9 km/h Distance 4.82 km</desc>
<time>2010-10-24T11:20:05.07</time>
<name>3001</name>
</trkpt>
<trkpt lat="48.943967" lon="8.643393">
<ele>338.0</ele>
<speed>0.98</speed>
<course>240.3</course>
<desc>Speed 3.5 km/h Distance 4.82 km</desc>
<time>2010-10-24T11:20:06.07</time>
<name>3002</name>
</trkpt>
<trkpt lat="48.943962" lon="8.643380">
<ele>337.5</ele>
<speed>0.99</speed>
<course>197.0</course>
<desc>Speed 3.6 km/h Distance 4.82 km</desc>
<time>2010-10-24T11:20:07.07</time>
<name>3003</name>
</trkpt>
<trkpt lat="48.943937" lon="8.643368">
<ele>336.0</ele>
<speed>1.09</speed>
<course>224.5</course>
<desc>Speed 3.9 km/h Distance 4.83 km</desc>
<time>2010-10-24T11:20:08.07</time>
<name>3004</name>
</trkpt>
<trkpt lat="48.943927" lon="8.643353">
<ele>335.5</ele>
<speed>1.12</speed>
<course>224.6</course>
<desc>Speed 4.0 km/h Distance 4.83 km</desc>
<time>2010-10-24T11:20:09.07</time>
<name>3005</name>
</trkpt>
<trkpt lat="48.943917" lon="8.643338">
<ele>335.5</ele>
<speed>1.25</speed>
<course>230.3</course>
<desc>Speed 4.5 km/h Distance 4.83 km</desc>
<time>2010-10-24T11:20:10.07</time>
<name>3006</name>
</trkpt>
<trkpt lat="48.943907" lon="8.643320">
<ele>335.0</ele>
<speed>1.20</speed>
<course>239.6</course>
<desc>Speed 4.3 km/h Distance 4.83 km</desc>
<time>2010-10-24T11:20:11.07</time>
<name>3007</name>
</trkpt>
<trkpt lat="48.943898" lon="8.643298">
<ele>334.5</ele>
<speed>1.17</speed>
<course>213.3</course>
<desc>Speed 4.2 km/h Distance 4.83 km</desc>
<time>2010-10-24T11:20:12.07</time>
<name>3008</name>
</trkpt>
<trkpt lat="48.943885" lon="8.643285">
<ele>334.0</ele>
<speed>1.41</speed>
<course>270.0</course>
<desc>Speed 5.1 km/h Distance 4.84 km</desc>
<time>2010-10-24T11:20:13.07</time>
<name>3009</name>
</trkpt>
<trkpt lat="48.943885" lon="8.643265">
<ele>333.5</ele>
<speed>1.36</speed>
<course>216.9</course>
<desc>Speed 4.9 km/h Distance 4.84 km</desc>
<time>2010-10-24T11:20:14.07</time>
<name>3010</name>
</trkpt>
<trkpt lat="48.943873" lon="8.643252">
<ele>334.0</ele>
<speed>1.33</speed>
<course>263.3</course>
<desc>Speed 4.8 km/h Distance 4.84 km</desc>
<time>2010-10-24T11:20:15.07</time>
<name>3011</name>
</trkpt>
<trkpt lat="48.943872" lon="8.643230">
<ele>334.0</ele>
<speed>1.19</speed>
<course>261.3</course>
<desc>Speed 4.3 km/h Distance 4.84 km</desc>
<time>2010-10-24T11:20:16.07</time>
<name>3012</name>
</trkpt>
<trkpt lat="48.943870" lon="8.643213">
<ele>333.5</ele>
<speed>1.15</speed>
<course>255.8</course>
<desc>Speed 4.1 km/h Distance 4.84 km</desc>
<time>2010-10-24T11:20:17.07</time>
<name>3013</name>
</trkpt>
<trkpt lat="48.943867" lon="8.643193">
<ele>333.5</ele>
<speed>1.37</speed>
<course>238.7</course>
<desc>Speed 4.9 km/h Distance 4.84 km</desc>
<time>2010-10-24T11:20:18.07</time>
<name>3014</name>
</trkpt>
<trkpt lat="48.943860" lon="8.643177">
<ele>334.5</ele>
<speed>1.28</speed>
<course>234.4</course>
<desc>Speed 4.6 km/h Distance 4.84 km</desc>
<time>2010-10-24T11:20:19.07</time>
<name>3015</name>
</trkpt>
<trkpt lat="48.943847" lon="8.643148">
<ele>329.0</ele>
<speed>0.89</speed>
<course>208.8</course>
<desc>Speed 3.2 km/h Distance 4.85 km</desc>
<time>2010-10-24T11:20:20.07</time>
<name>3016</name>
</trkpt>
<trkpt lat="48.943827" lon="8.643132">
<ele>324.5</ele>
<speed>1.75</speed>
<course>277.9</course>
<desc>Speed 6.3 km/h Distance 4.85 km</desc>
<time>2010-10-24T11:20:21.07</time>
<name>3017</name>
</trkpt>
<trkpt lat="48.943828" lon="8.643113">
<ele>324.5</ele>
<speed>1.17</speed>
<course>276.7</course>
<desc>Speed 4.2 km/h Distance 4.85 km</desc>
<time>2010-10-24T11:20:22.07</time>
<name>3018</name>
</trkpt>
<trkpt lat="48.943830" lon="8.643092">
<ele>323.0</ele>
<speed>1.05</speed>
<course>223.5</course>
<desc>Speed 3.8 km/h Distance 4.85 km</desc>
<time>2010-10-24T11:20:23.07</time>
<name>3019</name>
</trkpt>
<trkpt lat="48.943815" lon="8.643070">
<ele>322.0</ele>
<speed>1.71</speed>
<course>246.5</course>
<desc>Speed 6.2 km/h Distance 4.85 km</desc>
<time>2010-10-24T11:20:24.07</time>
<name>3020</name>
</trkpt>
<trkpt lat="48.943812" lon="8.643058">
<ele>323.0</ele>
<speed>0.68</speed>
<course>235.9</course>
<desc>Speed 2.4 km/h Distance 4.86 km</desc>
<time>2010-10-24T11:20:25.07</time>
<name>3021</name>
</trkpt>
<trkpt lat="48.943805" lon="8.643043">
<ele>325.0</ele>
<speed>0.87</speed>
<course>229.8</course>
<desc>Speed 3.1 km/h Distance 4.86 km</desc>
<time>2010-10-24T11:20:26.07</time>
<name>3022</name>
</trkpt>
<trkpt lat="48.943797" lon="8.643028">
<ele>325.5</ele>
<speed>0.95</speed>
<course>209.8</course>
<desc>Speed 3.4 km/h Distance 4.86 km</desc>
<time>2010-10-24T11:20:27.07</time>
<name>3023</name>
</trkpt>
<trkpt lat="48.943783" lon="8.643017">
<ele>325.0</ele>
<speed>1.04</speed>
<course>255.8</course>
<desc>Speed 3.7 km/h Distance 4.86 km</desc>
<time>2010-10-24T11:20:28.07</time>
<name>3024</name>
</trkpt>
<trkpt lat="48.943780" lon="8.642997">
<ele>323.5</ele>
<speed>0.89</speed>
<course>243.1</course>
<desc>Speed 3.2 km/h Distance 4.86 km</desc>
<time>2010-10-24T11:20:29.07</time>
<name>3025</name>
</trkpt>
<trkpt lat="48.943773" lon="8.642977">
<ele>322.5</ele>
<speed>1.13</speed>
<course>237.6</course>
<desc>Speed 4.1 km/h Distance 4.86 km</desc>
<time>2010-10-24T11:20:30.07</time>
<name>3026</name>
</trkpt>
<trkpt lat="48.943765" lon="8.642957">
<ele>322.0</ele>
<speed>1.02</speed>
<course>254.5</course>
<desc>Speed 3.7 km/h Distance 4.86 km</desc>
<time>2010-10-24T11:20:31.07</time>
<name>3027</name>
</trkpt>
<trkpt lat="48.943762" lon="8.642938">
<ele>323.5</ele>
<speed>1.00</speed>
<course>232.7</course>
<desc>Speed 3.6 km/h Distance 4.87 km</desc>
<time>2010-10-24T11:20:32.07</time>
<name>3028</name>
</trkpt>
<trkpt lat="48.943752" lon="8.642918">
<ele>323.5</ele>
<speed>1.00</speed>
<course>251.9</course>
<desc>Speed 3.6 km/h Distance 4.87 km</desc>
<time>2010-10-24T11:20:33.07</time>
<name>3029</name>
</trkpt>
<trkpt lat="48.943747" lon="8.642895">
<ele>324.5</ele>
<speed>1.48</speed>
<course>244.9</course>
<desc>Speed 5.3 km/h Distance 4.87 km</desc>
<time>2010-10-24T11:20:34.07</time>
<name>3030</name>
</trkpt>
<trkpt lat="48.943740" lon="8.642873">
<ele>326.0</ele>
<speed>1.30</speed>
<course>230.4</course>
<desc>Speed 4.7 km/h Distance 4.87 km</desc>
<time>2010-10-24T11:20:35.07</time>
<name>3031</name>
</trkpt>
<trkpt lat="48.943730" lon="8.642855">
<ele>326.5</ele>
<speed>1.40</speed>
<course>236.9</course>
<desc>Speed 5.0 km/h Distance 4.87 km</desc>
<time>2010-10-24T11:20:36.07</time>
<name>3032</name>
</trkpt>
<trkpt lat="48.943720" lon="8.642832">
<ele>326.5</ele>
<speed>1.57</speed>
<course>257.7</course>
<desc>Speed 5.7 km/h Distance 4.88 km</desc>
<time>2010-10-24T11:20:37.07</time>
<name>3033</name>
</trkpt>
<trkpt lat="48.943715" lon="8.642797">
<ele>325.5</ele>
<speed>2.09</speed>
<course>213.3</course>
<desc>Speed 7.5 km/h Distance 4.88 km</desc>
<time>2010-10-24T11:20:38.07</time>
<name>3034</name>
</trkpt>
<trkpt lat="48.943693" lon="8.642775">
<ele>327.0</ele>
<speed>1.63</speed>
<course>257.1</course>
<desc>Speed 5.9 km/h Distance 4.88 km</desc>
<time>2010-10-24T11:20:39.07</time>
<name>3035</name>
</trkpt>
<trkpt lat="48.943688" lon="8.642742">
<ele>327.0</ele>
<speed>1.63</speed>
<course>244.6</course>
<desc>Speed 5.9 km/h Distance 4.88 km</desc>
<time>2010-10-24T11:20:40.07</time>
<name>3036</name>
</trkpt>
<trkpt lat="48.943680" lon="8.642715">
<ele>327.5</ele>
<speed>1.51</speed>
<course>221.2</course>
<desc>Speed 5.4 km/h Distance 4.89 km</desc>
<time>2010-10-24T11:20:41.07</time>
<name>3037</name>
</trkpt>
<trkpt lat="48.943665" lon="8.642695">
<ele>328.5</ele>
<speed>1.50</speed>
<course>236.9</course>
<desc>Speed 5.4 km/h Distance 4.89 km</desc>
<time>2010-10-24T11:20:42.07</time>
<name>3038</name>
</trkpt>
<trkpt lat="48.943655" lon="8.642672">
<ele>328.5</ele>
<speed>1.52</speed>
<course>228.9</course>
<desc>Speed 5.5 km/h Distance 4.89 km</desc>
<time>2010-10-24T11:20:43.07</time>
<name>3039</name>
</trkpt>
<trkpt lat="48.943642" lon="8.642648">
<ele>328.5</ele>
<speed>1.58</speed>
<course>234.9</course>
<desc>Speed 5.7 km/h Distance 4.89 km</desc>
<time>2010-10-24T11:20:44.07</time>
<name>3040</name>
</trkpt>
<trkpt lat="48.943632" lon="8.642627">
<ele>328.5</ele>
<speed>1.51</speed>
<course>249.2</course>
<desc>Speed 5.4 km/h Distance 4.89 km</desc>
<time>2010-10-24T11:20:45.07</time>
<name>3041</name>
</trkpt>
<trkpt lat="48.943625" lon="8.642600">
<ele>328.5</ele>
<speed>1.50</speed>
<course>245.9</course>
<desc>Speed 5.4 km/h Distance 4.90 km</desc>
<time>2010-10-24T11:20:46.07</time>
<name>3042</name>
</trkpt>
<trkpt lat="48.943617" lon="8.642572">
<ele>327.5</ele>
<speed>1.53</speed>
<course>241.7</course>
<desc>Speed 5.5 km/h Distance 4.90 km</desc>
<time>2010-10-24T11:20:47.07</time>
<name>3043</name>
</trkpt>
<trkpt lat="48.943607" lon="8.642543">
<ele>325.5</ele>
<speed>1.51</speed>
<course>213.3</course>
<desc>Speed 5.4 km/h Distance 4.90 km</desc>
<time>2010-10-24T11:20:48.07</time>
<name>3044</name>
</trkpt>
<trkpt lat="48.943592" lon="8.642528">
<ele>326.5</ele>
<speed>1.55</speed>
<course>215.8</course>
<desc>Speed 5.6 km/h Distance 4.90 km</desc>
<time>2010-10-24T11:20:49.07</time>
<name>3045</name>
</trkpt>
<trkpt lat="48.943575" lon="8.642510">
<ele>327.0</ele>
<speed>1.72</speed>
<course>243.1</course>
<desc>Speed 6.2 km/h Distance 4.90 km</desc>
<time>2010-10-24T11:20:50.07</time>
<name>3046</name>
</trkpt>
<trkpt lat="48.943565" lon="8.642480">
<ele>327.0</ele>
<speed>1.75</speed>
<course>209.0</course>
<desc>Speed 6.3 km/h Distance 4.91 km</desc>
<time>2010-10-24T11:20:51.07</time>
<name>3047</name>
</trkpt>
<trkpt lat="48.943543" lon="8.642462">
<ele>328.0</ele>
<speed>1.69</speed>
<course>200.9</course>
<desc>Speed 6.1 km/h Distance 4.91 km</desc>
<time>2010-10-24T11:20:52.07</time>
<name>3048</name>
</trkpt>
<trkpt lat="48.943523" lon="8.642450">
<ele>329.5</ele>
<speed>1.09</speed>
<course>235.1</course>
<desc>Speed 3.9 km/h Distance 4.91 km</desc>
<time>2010-10-24T11:20:53.07</time>
<name>3049</name>
</trkpt>
<trkpt lat="48.943505" lon="8.642410">
<ele>329.0</ele>
<speed>0.37</speed>
<course>284.4</course>
<desc>Speed 1.3 km/h Distance 4.92 km</desc>
<time>2010-10-24T11:21:17.07</time>
<name>3050</name>
</trkpt>
<trkpt lat="48.943507" lon="8.642400">
<ele>327.5</ele>
<speed>0.46</speed>
<course>285.5</course>
<desc>Speed 1.7 km/h Distance 4.92 km</desc>
<time>2010-10-24T11:21:18.07</time>
<name>3051</name>
</trkpt>
<trkpt lat="48.943510" lon="8.642382">
<ele>327.5</ele>
<speed>0.86</speed>
<course>255.8</course>
<desc>Speed 3.1 km/h Distance 4.92 km</desc>
<time>2010-10-24T11:21:19.07</time>
<name>3052</name>
</trkpt>
<trkpt lat="48.943507" lon="8.642362">
<ele>328.0</ele>
<speed>1.22</speed>
<course>261.3</course>
<desc>Speed 4.4 km/h Distance 4.92 km</desc>
<time>2010-10-24T11:21:20.07</time>
<name>3053</name>
</trkpt>
<trkpt lat="48.943505" lon="8.642345">
<ele>328.5</ele>
<speed>1.23</speed>
<course>262.8</course>
<desc>Speed 4.4 km/h Distance 4.92 km</desc>
<time>2010-10-24T11:21:21.07</time>
<name>3054</name>
</trkpt>
<trkpt lat="48.943503" lon="8.642325">
<ele>328.5</ele>
<speed>1.25</speed>
<course>253.0</course>
<desc>Speed 4.5 km/h Distance 4.92 km</desc>
<time>2010-10-24T11:21:22.07</time>
<name>3055</name>
</trkpt>
<trkpt lat="48.943500" lon="8.642308">
<ele>329.0</ele>
<speed>1.17</speed>
<course>241.0</course>
<desc>Speed 4.2 km/h Distance 4.92 km</desc>
<time>2010-10-24T11:21:23.07</time>
<name>3056</name>
</trkpt>
<trkpt lat="48.943493" lon="8.642290">
<ele>329.5</ele>
<speed>1.22</speed>
<course>228.9</course>
<desc>Speed 4.4 km/h Distance 4.93 km</desc>
<time>2010-10-24T11:21:24.07</time>
<name>3057</name>
</trkpt>
<trkpt lat="48.943487" lon="8.642278">
<ele>330.0</ele>
<speed>1.13</speed>
<course>202.1</course>
<desc>Speed 4.1 km/h Distance 4.93 km</desc>
<time>2010-10-24T11:21:25.07</time>
<name>3058</name>
</trkpt>
<trkpt lat="48.943473" lon="8.642270">
<ele>330.5</ele>
<speed>1.07</speed>
<course>189.7</course>
<desc>Speed 3.9 km/h Distance 4.93 km</desc>
<time>2010-10-24T11:21:26.07</time>
<name>3059</name>
</trkpt>
<trkpt lat="48.943460" lon="8.642267">
<ele>331.5</ele>
<speed>0.88</speed>
<course>186.3</course>
<desc>Speed 3.2 km/h Distance 4.93 km</desc>
<time>2010-10-24T11:21:27.07</time>
<name>3060</name>
</trkpt>
<trkpt lat="48.943448" lon="8.642265">
<ele>332.0</ele>
<speed>1.00</speed>
<course>175.0</course>
<desc>Speed 3.6 km/h Distance 4.93 km</desc>
<time>2010-10-24T11:21:28.07</time>
<name>3061</name>
</trkpt>
<trkpt lat="48.943440" lon="8.642267">
<ele>333.0</ele>
<speed>0.85</speed>
<course>198.8</course>
<desc>Speed 3.1 km/h Distance 4.93 km</desc>
<time>2010-10-24T11:21:29.07</time>
<name>3062</name>
</trkpt>
<trkpt lat="48.943433" lon="8.642263">
<ele>333.5</ele>
<speed>0.37</speed>
<course>146.3</course>
<desc>Speed 1.3 km/h Distance 4.93 km</desc>
<time>2010-10-24T11:21:30.07</time>
<name>3063</name>
</trkpt>
<trkpt lat="48.943430" lon="8.642267">
<ele>334.0</ele>
<speed>0.56</speed>
<course>175.6</course>
<desc>Speed 2.0 km/h Distance 4.93 km</desc>
<time>2010-10-24T11:21:33.07</time>
<name>3064</name>
</trkpt>
<trkpt lat="48.943420" lon="8.642268">
<ele>334.0</ele>
<speed>1.13</speed>
<course>180.0</course>
<desc>Speed 4.1 km/h Distance 4.93 km</desc>
<time>2010-10-24T11:21:34.07</time>
<name>3065</name>
</trkpt>
<trkpt lat="48.943405" lon="8.642268">
<ele>334.5</ele>
<speed>1.25</speed>
<course>175.3</course>
<desc>Speed 4.5 km/h Distance 4.94 km</desc>
<time>2010-10-24T11:21:35.07</time>
<name>3066</name>
</trkpt>
<trkpt lat="48.943393" lon="8.642270">
<ele>335.0</ele>
<speed>1.25</speed>
<course>184.4</course>
<desc>Speed 4.5 km/h Distance 4.94 km</desc>
<time>2010-10-24T11:21:36.07</time>
<name>3067</name>
</trkpt>
<trkpt lat="48.943383" lon="8.642268">
<ele>335.5</ele>
<speed>1.22</speed>
<course>180.0</course>
<desc>Speed 4.4 km/h Distance 4.94 km</desc>
<time>2010-10-24T11:21:37.07</time>
<name>3068</name>
</trkpt>
<trkpt lat="48.943372" lon="8.642268">
<ele>336.0</ele>
<speed>1.27</speed>
<course>180.0</course>
<desc>Speed 4.6 km/h Distance 4.94 km</desc>
<time>2010-10-24T11:21:38.07</time>
<name>3069</name>
</trkpt>
<trkpt lat="48.943363" lon="8.642268">
<ele>337.0</ele>
<speed>1.19</speed>
<course>203.8</course>
<desc>Speed 4.3 km/h Distance 4.94 km</desc>
<time>2010-10-24T11:21:39.07</time>
<name>3070</name>
</trkpt>
<trkpt lat="48.943353" lon="8.642262">
<ele>337.5</ele>
<speed>1.33</speed>
<course>192.6</course>
<desc>Speed 4.8 km/h Distance 4.94 km</desc>
<time>2010-10-24T11:21:40.07</time>
<name>3071</name>
</trkpt>
<trkpt lat="48.943343" lon="8.642258">
<ele>337.5</ele>
<speed>1.12</speed>
<course>191.2</course>
<desc>Speed 4.0 km/h Distance 4.94 km</desc>
<time>2010-10-24T11:21:41.07</time>
<name>3072</name>
</trkpt>
<trkpt lat="48.943332" lon="8.642255">
<ele>338.0</ele>
<speed>1.25</speed>
<course>190.4</course>
<desc>Speed 4.5 km/h Distance 4.94 km</desc>
<time>2010-10-24T11:21:42.07</time>
<name>3073</name>
</trkpt>
<trkpt lat="48.943320" lon="8.642252">
<ele>338.5</ele>
<speed>1.21</speed>
<course>184.4</course>
<desc>Speed 4.4 km/h Distance 4.95 km</desc>
<time>2010-10-24T11:21:43.07</time>
<name>3074</name>
</trkpt>
<trkpt lat="48.943310" lon="8.642250">
<ele>338.5</ele>
<speed>1.25</speed>
<course>201.5</course>
<desc>Speed 4.5 km/h Distance 4.95 km</desc>
<time>2010-10-24T11:21:44.07</time>
<name>3075</name>
</trkpt>
<trkpt lat="48.943302" lon="8.642245">
<ele>339.0</ele>
<speed>1.32</speed>
<course>189.5</course>
<desc>Speed 4.8 km/h Distance 4.95 km</desc>
<time>2010-10-24T11:21:45.07</time>
<name>3076</name>
</trkpt>
<trkpt lat="48.943290" lon="8.642242">
<ele>339.0</ele>
<speed>1.33</speed>
<course>191.2</course>
<desc>Speed 4.8 km/h Distance 4.95 km</desc>
<time>2010-10-24T11:21:46.07</time>
<name>3077</name>
</trkpt>
<trkpt lat="48.943278" lon="8.642238">
<ele>339.0</ele>
<speed>1.29</speed>
<course>203.8</course>
<desc>Speed 4.6 km/h Distance 4.95 km</desc>
<time>2010-10-24T11:21:47.07</time>
<name>3078</name>
</trkpt>
<trkpt lat="48.943268" lon="8.642232">
<ele>339.0</ele>
<speed>1.24</speed>
<course>213.2</course>
<desc>Speed 4.5 km/h Distance 4.95 km</desc>
<time>2010-10-24T11:21:48.07</time>
<name>3079</name>
</trkpt>
<trkpt lat="48.943260" lon="8.642223">
<ele>339.0</ele>
<speed>1.12</speed>
<course>200.6</course>
<desc>Speed 4.0 km/h Distance 4.95 km</desc>
<time>2010-10-24T11:21:49.07</time>
<name>3080</name>
</trkpt>
<trkpt lat="48.943248" lon="8.642217">
<ele>339.0</ele>
<speed>1.34</speed>
<course>194.9</course>
<desc>Speed 4.8 km/h Distance 4.95 km</desc>
<time>2010-10-24T11:21:50.07</time>
<name>3081</name>
</trkpt>
<trkpt lat="48.943240" lon="8.642213">
<ele>339.0</ele>
<speed>0.93</speed>
<course>180.0</course>
<desc>Speed 3.3 km/h Distance 4.95 km</desc>
<time>2010-10-24T11:21:51.07</time>
<name>3082</name>
</trkpt>
<trkpt lat="48.943228" lon="8.642213">
<ele>339.0</ele>
<speed>1.26</speed>
<course>189.5</course>
<desc>Speed 4.5 km/h Distance 4.96 km</desc>
<time>2010-10-24T11:21:52.07</time>
<name>3083</name>
</trkpt>
<trkpt lat="48.943217" lon="8.642210">
<ele>339.0</ele>
<speed>1.33</speed>
<course>190.4</course>
<desc>Speed 4.8 km/h Distance 4.96 km</desc>
<time>2010-10-24T11:21:53.07</time>
<name>3084</name>
</trkpt>
<trkpt lat="48.943205" lon="8.642207">
<ele>339.0</ele>
<speed>1.14</speed>
<course>175.6</course>
<desc>Speed 4.1 km/h Distance 4.96 km</desc>
<time>2010-10-24T11:21:54.07</time>
<name>3085</name>
</trkpt>
<trkpt lat="48.943195" lon="8.642208">
<ele>339.5</ele>
<speed>0.86</speed>
<course>194.9</course>
<desc>Speed 3.1 km/h Distance 4.96 km</desc>
<time>2010-10-24T11:21:55.07</time>
<name>3086</name>
</trkpt>
<trkpt lat="48.943187" lon="8.642205">
<ele>340.5</ele>
<speed>0.82</speed>
<course>191.2</course>
<desc>Speed 3.0 km/h Distance 4.96 km</desc>
<time>2010-10-24T11:21:56.07</time>
<name>3087</name>
</trkpt>
<trkpt lat="48.943175" lon="8.642202">
<ele>340.5</ele>
<speed>1.15</speed>
<course>184.7</course>
<desc>Speed 4.1 km/h Distance 4.96 km</desc>
<time>2010-10-24T11:21:57.07</time>
<name>3088</name>
</trkpt>
<trkpt lat="48.943163" lon="8.642200">
<ele>340.5</ele>
<speed>1.14</speed>
<course>194.9</course>
<desc>Speed 4.1 km/h Distance 4.96 km</desc>
<time>2010-10-24T11:21:58.07</time>
<name>3089</name>
</trkpt>
<trkpt lat="48.943155" lon="8.642197">
<ele>340.0</ele>
<speed>0.97</speed>
<course>198.2</course>
<desc>Speed 3.5 km/h Distance 4.96 km</desc>
<time>2010-10-24T11:21:59.07</time>
<name>3090</name>
</trkpt>
<trkpt lat="48.943145" lon="8.642192">
<ele>340.0</ele>
<speed>1.07</speed>
<course>193.5</course>
<desc>Speed 3.9 km/h Distance 4.97 km</desc>
<time>2010-10-24T11:22:00.07</time>
<name>3091</name>
</trkpt>
<trkpt lat="48.943132" lon="8.642187">
<ele>340.0</ele>
<speed>1.42</speed>
<course>202.3</course>
<desc>Speed 5.1 km/h Distance 4.97 km</desc>
<time>2010-10-24T11:22:01.07</time>
<name>3092</name>
</trkpt>
<trkpt lat="48.943118" lon="8.642178">
<ele>340.0</ele>
<speed>1.36</speed>
<course>194.4</course>
<desc>Speed 4.9 km/h Distance 4.97 km</desc>
<time>2010-10-24T11:22:02.07</time>
<name>3093</name>
</trkpt>
<trkpt lat="48.943105" lon="8.642173">
<ele>340.0</ele>
<speed>1.48</speed>
<course>196.3</course>
<desc>Speed 5.3 km/h Distance 4.97 km</desc>
<time>2010-10-24T11:22:03.07</time>
<name>3094</name>
</trkpt>
<trkpt lat="48.943090" lon="8.642167">
<ele>339.5</ele>
<speed>1.47</speed>
<course>206.2</course>
<desc>Speed 5.3 km/h Distance 4.97 km</desc>
<time>2010-10-24T11:22:04.07</time>
<name>3095</name>
</trkpt>
<trkpt lat="48.943077" lon="8.642157">
<ele>339.0</ele>
<speed>1.49</speed>
<course>206.2</course>
<desc>Speed 5.4 km/h Distance 4.97 km</desc>
<time>2010-10-24T11:22:05.07</time>
<name>3096</name>
</trkpt>
<trkpt lat="48.943063" lon="8.642147">
<ele>339.5</ele>
<speed>1.52</speed>
<course>210.1</course>
<desc>Speed 5.5 km/h Distance 4.98 km</desc>
<time>2010-10-24T11:22:06.07</time>
<name>3097</name>
</trkpt>
<trkpt lat="48.943050" lon="8.642135">
<ele>339.5</ele>
<speed>1.57</speed>
<course>198.4</course>
<desc>Speed 5.7 km/h Distance 4.98 km</desc>
<time>2010-10-24T11:22:07.07</time>
<name>3098</name>
</trkpt>
<trkpt lat="48.943037" lon="8.642128">
<ele>339.5</ele>
<speed>1.41</speed>
<course>209.8</course>
<desc>Speed 5.1 km/h Distance 4.98 km</desc>
<time>2010-10-24T11:22:08.07</time>
<name>3099</name>
</trkpt>
<trkpt lat="48.943023" lon="8.642117">
<ele>340.0</ele>
<speed>1.33</speed>
<course>203.5</course>
<desc>Speed 4.8 km/h Distance 4.98 km</desc>
<time>2010-10-24T11:22:09.07</time>
<name>3100</name>
</trkpt>
<trkpt lat="48.943008" lon="8.642107">
<ele>340.0</ele>
<speed>1.54</speed>
<course>206.0</course>
<desc>Speed 5.5 km/h Distance 4.98 km</desc>
<time>2010-10-24T11:22:10.07</time>
<name>3101</name>
</trkpt>
<trkpt lat="48.942995" lon="8.642097">
<ele>340.0</ele>
<speed>1.40</speed>
<course>200.1</course>
<desc>Speed 5.0 km/h Distance 4.98 km</desc>
<time>2010-10-24T11:22:11.07</time>
<name>3102</name>
</trkpt>
<trkpt lat="48.942980" lon="8.642088">
<ele>340.0</ele>
<speed>1.53</speed>
<course>198.4</course>
<desc>Speed 5.5 km/h Distance 4.99 km</desc>
<time>2010-10-24T11:22:12.07</time>
<name>3103</name>
</trkpt>
<trkpt lat="48.942967" lon="8.642082">
<ele>340.0</ele>
<speed>1.54</speed>
<course>205.2</course>
<desc>Speed 5.5 km/h Distance 4.99 km</desc>
<time>2010-10-24T11:22:13.07</time>
<name>3104</name>
</trkpt>
<trkpt lat="48.942955" lon="8.642073">
<ele>340.5</ele>
<speed>1.32</speed>
<course>209.4</course>
<desc>Speed 4.8 km/h Distance 4.99 km</desc>
<time>2010-10-24T11:22:14.07</time>
<name>3105</name>
</trkpt>
<trkpt lat="48.942943" lon="8.642063">
<ele>340.5</ele>
<speed>1.48</speed>
<course>208.6</course>
<desc>Speed 5.3 km/h Distance 4.99 km</desc>
<time>2010-10-24T11:22:15.07</time>
<name>3106</name>
</trkpt>
<trkpt lat="48.942933" lon="8.642055">
<ele>341.0</ele>
<speed>1.41</speed>
<course>206.0</course>
<desc>Speed 5.1 km/h Distance 4.99 km</desc>
<time>2010-10-24T11:22:16.07</time>
<name>3107</name>
</trkpt>
<trkpt lat="48.942920" lon="8.642045">
<ele>341.0</ele>
<speed>1.50</speed>
<course>209.2</course>
<desc>Speed 5.4 km/h Distance 4.99 km</desc>
<time>2010-10-24T11:22:17.07</time>
<name>3108</name>
</trkpt>
<trkpt lat="48.942908" lon="8.642035">
<ele>341.5</ele>
<speed>1.44</speed>
<course>209.8</course>
<desc>Speed 5.2 km/h Distance 4.99 km</desc>
<time>2010-10-24T11:22:18.07</time>
<name>3109</name>
</trkpt>
<trkpt lat="48.942895" lon="8.642023">
<ele>341.5</ele>
<speed>1.60</speed>
<course>206.0</course>
<desc>Speed 5.8 km/h Distance 5.00 km</desc>
<time>2010-10-24T11:22:19.07</time>
<name>3110</name>
</trkpt>
<trkpt lat="48.942882" lon="8.642013">
<ele>341.5</ele>
<speed>1.55</speed>
<course>213.3</course>
<desc>Speed 5.6 km/h Distance 5.00 km</desc>
<time>2010-10-24T11:22:20.07</time>
<name>3111</name>
</trkpt>
<trkpt lat="48.942870" lon="8.642002">
<ele>342.0</ele>
<speed>1.54</speed>
<course>187.7</course>
<desc>Speed 5.5 km/h Distance 5.00 km</desc>
<time>2010-10-24T11:22:21.07</time>
<name>3112</name>
</trkpt>
<trkpt lat="48.942853" lon="8.641998">
<ele>342.5</ele>
<speed>1.75</speed>
<course>205.2</course>
<desc>Speed 6.3 km/h Distance 5.00 km</desc>
<time>2010-10-24T11:22:22.07</time>
<name>3113</name>
</trkpt>
<trkpt lat="48.942842" lon="8.641990">
<ele>343.5</ele>
<speed>1.49</speed>
<course>209.8</course>
<desc>Speed 5.4 km/h Distance 5.00 km</desc>
<time>2010-10-24T11:22:23.07</time>
<name>3114</name>
</trkpt>
<trkpt lat="48.942828" lon="8.641978">
<ele>343.5</ele>
<speed>1.75</speed>
<course>210.7</course>
<desc>Speed 6.3 km/h Distance 5.00 km</desc>
<time>2010-10-24T11:22:24.07</time>
<name>3115</name>
</trkpt>
<trkpt lat="48.942812" lon="8.641963">
<ele>343.5</ele>
<speed>1.55</speed>
<course>210.3</course>
<desc>Speed 5.6 km/h Distance 5.01 km</desc>
<time>2010-10-24T11:22:25.07</time>
<name>3116</name>
</trkpt>
<trkpt lat="48.942797" lon="8.641950">
<ele>343.5</ele>
<speed>1.52</speed>
<course>213.3</course>
<desc>Speed 5.5 km/h Distance 5.01 km</desc>
<time>2010-10-24T11:22:26.07</time>
<name>3117</name>
</trkpt>
<trkpt lat="48.942783" lon="8.641937">
<ele>343.0</ele>
<speed>1.58</speed>
<course>209.8</course>
<desc>Speed 5.7 km/h Distance 5.01 km</desc>
<time>2010-10-24T11:22:27.07</time>
<name>3118</name>
</trkpt>
<trkpt lat="48.942770" lon="8.641925">
<ele>343.0</ele>
<speed>1.57</speed>
<course>209.8</course>
<desc>Speed 5.7 km/h Distance 5.01 km</desc>
<time>2010-10-24T11:22:28.07</time>
<name>3119</name>
</trkpt>
<trkpt lat="48.942757" lon="8.641913">
<ele>343.0</ele>
<speed>1.54</speed>
<course>220.2</course>
<desc>Speed 5.5 km/h Distance 5.01 km</desc>
<time>2010-10-24T11:22:29.06</time>
<name>3120</name>
</trkpt>
<trkpt lat="48.942745" lon="8.641898">
<ele>342.5</ele>
<speed>1.53</speed>
<course>206.0</course>
<desc>Speed 5.5 km/h Distance 5.02 km</desc>
<time>2010-10-24T11:22:30.06</time>
<name>3121</name>
</trkpt>
<trkpt lat="48.942732" lon="8.641888">
<ele>342.5</ele>
<speed>1.54</speed>
<course>213.1</course>
<desc>Speed 5.5 km/h Distance 5.02 km</desc>
<time>2010-10-24T11:22:31.06</time>
<name>3122</name>
</trkpt>
<trkpt lat="48.942720" lon="8.641877">
<ele>342.0</ele>
<speed>1.50</speed>
<course>216.9</course>
<desc>Speed 5.4 km/h Distance 5.02 km</desc>
<time>2010-10-24T11:22:32.06</time>
<name>3123</name>
</trkpt>
<trkpt lat="48.942708" lon="8.641863">
<ele>342.0</ele>
<speed>1.50</speed>
<course>213.1</course>
<desc>Speed 5.4 km/h Distance 5.02 km</desc>
<time>2010-10-24T11:22:33.06</time>
<name>3124</name>
</trkpt>
<trkpt lat="48.942697" lon="8.641852">
<ele>342.0</ele>
<speed>1.54</speed>
<course>224.5</course>
<desc>Speed 5.5 km/h Distance 5.02 km</desc>
<time>2010-10-24T11:22:34.06</time>
<name>3125</name>
</trkpt>
<trkpt lat="48.942687" lon="8.641837">
<ele>341.5</ele>
<speed>1.49</speed>
<course>213.4</course>
<desc>Speed 5.4 km/h Distance 5.02 km</desc>
<time>2010-10-24T11:22:35.06</time>
<name>3126</name>
</trkpt>
<trkpt lat="48.942675" lon="8.641825">
<ele>341.5</ele>
<speed>1.44</speed>
<course>210.0</course>
<desc>Speed 5.2 km/h Distance 5.02 km</desc>
<time>2010-10-24T11:22:36.06</time>
<name>3127</name>
</trkpt>
<trkpt lat="48.942662" lon="8.641813">
<ele>341.5</ele>
<speed>1.54</speed>
<course>216.5</course>
<desc>Speed 5.5 km/h Distance 5.03 km</desc>
<time>2010-10-24T11:22:37.06</time>
<name>3128</name>
</trkpt>
<trkpt lat="48.942648" lon="8.641798">
<ele>341.5</ele>
<speed>1.62</speed>
<course>221.2</course>
<desc>Speed 5.8 km/h Distance 5.03 km</desc>
<time>2010-10-24T11:22:38.06</time>
<name>3129</name>
</trkpt>
<trkpt lat="48.942638" lon="8.641785">
<ele>341.5</ele>
<speed>1.51</speed>
<course>220.3</course>
<desc>Speed 5.4 km/h Distance 5.03 km</desc>
<time>2010-10-24T11:22:39.06</time>
<name>3130</name>
</trkpt>
<trkpt lat="48.942627" lon="8.641770">
<ele>341.0</ele>
<speed>1.52</speed>
<course>216.9</course>
<desc>Speed 5.5 km/h Distance 5.03 km</desc>
<time>2010-10-24T11:22:40.06</time>
<name>3131</name>
</trkpt>
<trkpt lat="48.942615" lon="8.641757">
<ele>341.0</ele>
<speed>1.52</speed>
<course>216.9</course>
<desc>Speed 5.5 km/h Distance 5.03 km</desc>
<time>2010-10-24T11:22:41.06</time>
<name>3132</name>
</trkpt>
<trkpt lat="48.942603" lon="8.641743">
<ele>341.0</ele>
<speed>1.54</speed>
<course>216.9</course>
<desc>Speed 5.5 km/h Distance 5.03 km</desc>
<time>2010-10-24T11:22:42.06</time>
<name>3133</name>
</trkpt>
<trkpt lat="48.942592" lon="8.641730">
<ele>340.5</ele>
<speed>1.60</speed>
<course>217.5</course>
<desc>Speed 5.8 km/h Distance 5.04 km</desc>
<time>2010-10-24T11:22:43.06</time>
<name>3134</name>
</trkpt>
<trkpt lat="48.942582" lon="8.641718">
<ele>340.5</ele>
<speed>1.49</speed>
<course>206.0</course>
<desc>Speed 5.4 km/h Distance 5.04 km</desc>
<time>2010-10-24T11:22:44.06</time>
<name>3135</name>
</trkpt>
<trkpt lat="48.942568" lon="8.641708">
<ele>340.5</ele>
<speed>1.52</speed>
<course>216.9</course>
<desc>Speed 5.5 km/h Distance 5.04 km</desc>
<time>2010-10-24T11:22:45.06</time>
<name>3136</name>
</trkpt>
<trkpt lat="48.942557" lon="8.641695">
<ele>340.5</ele>
<speed>1.61</speed>
<course>213.4</course>
<desc>Speed 5.8 km/h Distance 5.04 km</desc>
<time>2010-10-24T11:22:46.06</time>
<name>3137</name>
</trkpt>
<trkpt lat="48.942545" lon="8.641683">
<ele>340.5</ele>
<speed>1.63</speed>
<course>209.4</course>
<desc>Speed 5.9 km/h Distance 5.04 km</desc>
<time>2010-10-24T11:22:47.06</time>
<name>3138</name>
</trkpt>
<trkpt lat="48.942533" lon="8.641673">
<ele>340.5</ele>
<speed>1.53</speed>
<course>202.3</course>
<desc>Speed 5.5 km/h Distance 5.04 km</desc>
<time>2010-10-24T11:22:48.06</time>
<name>3139</name>
</trkpt>
<trkpt lat="48.942520" lon="8.641665">
<ele>340.0</ele>
<speed>1.53</speed>
<course>213.4</course>
<desc>Speed 5.5 km/h Distance 5.05 km</desc>
<time>2010-10-24T11:22:49.06</time>
<name>3140</name>
</trkpt>
<trkpt lat="48.942508" lon="8.641653">
<ele>340.0</ele>
<speed>1.61</speed>
<course>209.8</course>
<desc>Speed 5.8 km/h Distance 5.05 km</desc>
<time>2010-10-24T11:22:50.06</time>
<name>3141</name>
</trkpt>
<trkpt lat="48.942495" lon="8.641642">
<ele>340.0</ele>
<speed>1.73</speed>
<course>213.4</course>
<desc>Speed 6.2 km/h Distance 5.05 km</desc>
<time>2010-10-24T11:22:51.06</time>
<name>3142</name>
</trkpt>
<trkpt lat="48.942483" lon="8.641630">
<ele>340.0</ele>
<speed>1.48</speed>
<course>213.4</course>
<desc>Speed 5.3 km/h Distance 5.05 km</desc>
<time>2010-10-24T11:22:52.06</time>
<name>3143</name>
</trkpt>
<trkpt lat="48.942472" lon="8.641618">
<ele>339.5</ele>
<speed>1.50</speed>
<course>209.4</course>
<desc>Speed 5.4 km/h Distance 5.05 km</desc>
<time>2010-10-24T11:22:53.06</time>
<name>3144</name>
</trkpt>
<trkpt lat="48.942460" lon="8.641608">
<ele>339.5</ele>
<speed>1.51</speed>
<course>206.0</course>
<desc>Speed 5.4 km/h Distance 5.05 km</desc>
<time>2010-10-24T11:22:54.06</time>
<name>3145</name>
</trkpt>
<trkpt lat="48.942447" lon="8.641598">
<ele>339.0</ele>
<speed>1.62</speed>
<course>198.1</course>
<desc>Speed 5.8 km/h Distance 5.06 km</desc>
<time>2010-10-24T11:22:55.06</time>
<name>3146</name>
</trkpt>
<trkpt lat="48.942433" lon="8.641592">
<ele>339.0</ele>
<speed>1.58</speed>
<course>200.1</course>
<desc>Speed 5.7 km/h Distance 5.06 km</desc>
<time>2010-10-24T11:22:56.06</time>
<name>3147</name>
</trkpt>
<trkpt lat="48.942418" lon="8.641583">
<ele>339.0</ele>
<speed>1.70</speed>
<course>202.3</course>
<desc>Speed 6.1 km/h Distance 5.06 km</desc>
<time>2010-10-24T11:22:57.06</time>
<name>3148</name>
</trkpt>
<trkpt lat="48.942405" lon="8.641575">
<ele>339.0</ele>
<speed>1.69</speed>
<course>196.0</course>
<desc>Speed 6.1 km/h Distance 5.06 km</desc>
<time>2010-10-24T11:22:58.06</time>
<name>3149</name>
</trkpt>
<trkpt lat="48.942390" lon="8.641568">
<ele>338.5</ele>
<speed>1.69</speed>
<course>203.7</course>
<desc>Speed 6.1 km/h Distance 5.06 km</desc>
<time>2010-10-24T11:22:59.06</time>
<name>3150</name>
</trkpt>
<trkpt lat="48.942375" lon="8.641558">
<ele>338.5</ele>
<speed>1.63</speed>
<course>205.2</course>
<desc>Speed 5.9 km/h Distance 5.06 km</desc>
<time>2010-10-24T11:23:00.05</time>
<name>3151</name>
</trkpt>
<trkpt lat="48.942363" lon="8.641550">
<ele>338.0</ele>
<speed>1.50</speed>
<course>200.1</course>
<desc>Speed 5.4 km/h Distance 5.07 km</desc>
<time>2010-10-24T11:23:01.05</time>
<name>3152</name>
</trkpt>
<trkpt lat="48.942348" lon="8.641542">
<ele>338.0</ele>
<speed>1.63</speed>
<course>202.6</course>
<desc>Speed 5.9 km/h Distance 5.07 km</desc>
<time>2010-10-24T11:23:02.05</time>
<name>3153</name>
</trkpt>
<trkpt lat="48.942335" lon="8.641533">
<ele>338.0</ele>
<speed>1.60</speed>
<course>193.5</course>
<desc>Speed 5.8 km/h Distance 5.07 km</desc>
<time>2010-10-24T11:23:03.04</time>
<name>3154</name>
</trkpt>
<trkpt lat="48.942322" lon="8.641528">
<ele>338.0</ele>
<speed>1.55</speed>
<course>194.0</course>
<desc>Speed 5.6 km/h Distance 5.07 km</desc>
<time>2010-10-24T11:23:04.04</time>
<name>3155</name>
</trkpt>
<trkpt lat="48.942308" lon="8.641523">
<ele>338.0</ele>
<speed>1.59</speed>
<course>191.7</course>
<desc>Speed 5.7 km/h Distance 5.07 km</desc>
<time>2010-10-24T11:23:05.04</time>
<name>3156</name>
</trkpt>
<trkpt lat="48.942293" lon="8.641518">
<ele>338.0</ele>
<speed>1.67</speed>
<course>193.5</course>
<desc>Speed 6.0 km/h Distance 5.07 km</desc>
<time>2010-10-24T11:23:06.04</time>
<name>3157</name>
</trkpt>
<trkpt lat="48.942280" lon="8.641513">
<ele>338.0</ele>
<speed>1.59</speed>
<course>183.9</course>
<desc>Speed 5.7 km/h Distance 5.08 km</desc>
<time>2010-10-24T11:23:07.04</time>
<name>3158</name>
</trkpt>
<trkpt lat="48.942267" lon="8.641512">
<ele>338.5</ele>
<speed>1.57</speed>
<course>190.3</course>
<desc>Speed 5.7 km/h Distance 5.08 km</desc>
<time>2010-10-24T11:23:08.04</time>
<name>3159</name>
</trkpt>
<trkpt lat="48.942253" lon="8.641508">
<ele>338.5</ele>
<speed>1.58</speed>
<course>186.3</course>
<desc>Speed 5.7 km/h Distance 5.08 km</desc>
<time>2010-10-24T11:23:09.04</time>
<name>3160</name>
</trkpt>
<trkpt lat="48.942242" lon="8.641507">
<ele>339.0</ele>
<speed>1.49</speed>
<course>175.3</course>
<desc>Speed 5.4 km/h Distance 5.08 km</desc>
<time>2010-10-24T11:23:10.04</time>
<name>3161</name>
</trkpt>
<trkpt lat="48.942230" lon="8.641508">
<ele>339.5</ele>
<speed>1.57</speed>
<course>176.1</course>
<desc>Speed 5.7 km/h Distance 5.08 km</desc>
<time>2010-10-24T11:23:11.04</time>
<name>3162</name>
</trkpt>
<trkpt lat="48.942217" lon="8.641508">
<ele>340.0</ele>
<speed>1.60</speed>
<course>175.6</course>
<desc>Speed 5.8 km/h Distance 5.08 km</desc>
<time>2010-10-24T11:23:12.04</time>
<name>3163</name>
</trkpt>
<trkpt lat="48.942207" lon="8.641508">
<ele>340.0</ele>
<speed>1.40</speed>
<course>175.3</course>
<desc>Speed 5.0 km/h Distance 5.08 km</desc>
<time>2010-10-24T11:23:13.04</time>
<name>3164</name>
</trkpt>
<trkpt lat="48.942195" lon="8.641508">
<ele>340.5</ele>
<speed>1.37</speed>
<course>175.6</course>
<desc>Speed 4.9 km/h Distance 5.08 km</desc>
<time>2010-10-24T11:23:14.04</time>
<name>3165</name>
</trkpt>
<trkpt lat="48.942185" lon="8.641508">
<ele>341.5</ele>
<speed>1.23</speed>
<course>175.3</course>
<desc>Speed 4.4 km/h Distance 5.09 km</desc>
<time>2010-10-24T11:23:15.04</time>
<name>3166</name>
</trkpt>
<trkpt lat="48.942173" lon="8.641510">
<ele>341.5</ele>
<speed>1.28</speed>
<course>175.6</course>
<desc>Speed 4.6 km/h Distance 5.09 km</desc>
<time>2010-10-24T11:23:16.04</time>
<name>3167</name>
</trkpt>
<trkpt lat="48.942163" lon="8.641510">
<ele>341.5</ele>
<speed>1.22</speed>
<course>172.3</course>
<desc>Speed 4.4 km/h Distance 5.09 km</desc>
<time>2010-10-24T11:23:17.04</time>
<name>3168</name>
</trkpt>
<trkpt lat="48.942155" lon="8.641512">
<ele>341.0</ele>
<speed>0.94</speed>
<course>154.8</course>
<desc>Speed 3.4 km/h Distance 5.09 km</desc>
<time>2010-10-24T11:23:18.04</time>
<name>3169</name>
</trkpt>
<trkpt lat="48.942143" lon="8.641520">
<ele>341.5</ele>
<speed>1.16</speed>
<course>166.5</course>
<desc>Speed 4.2 km/h Distance 5.09 km</desc>
<time>2010-10-24T11:23:19.04</time>
<name>3170</name>
</trkpt>
<trkpt lat="48.942130" lon="8.641525">
<ele>341.5</ele>
<speed>1.26</speed>
<course>167.4</course>
<desc>Speed 4.5 km/h Distance 5.09 km</desc>
<time>2010-10-24T11:23:20.04</time>
<name>3171</name>
</trkpt>
<trkpt lat="48.942115" lon="8.641530">
<ele>342.0</ele>
<speed>1.37</speed>
<course>163.4</course>
<desc>Speed 4.9 km/h Distance 5.09 km</desc>
<time>2010-10-24T11:23:21.04</time>
<name>3172</name>
</trkpt>
<trkpt lat="48.942100" lon="8.641537">
<ele>341.5</ele>
<speed>1.37</speed>
<course>163.7</course>
<desc>Speed 4.9 km/h Distance 5.10 km</desc>
<time>2010-10-24T11:23:22.04</time>
<name>3173</name>
</trkpt>
<trkpt lat="48.942085" lon="8.641543">
<ele>342.0</ele>
<speed>1.51</speed>
<course>165.7</course>
<desc>Speed 5.4 km/h Distance 5.10 km</desc>
<time>2010-10-24T11:23:23.04</time>
<name>3174</name>
</trkpt>
<trkpt lat="48.942068" lon="8.641550">
<ele>342.0</ele>
<speed>1.37</speed>
<course>168.3</course>
<desc>Speed 4.9 km/h Distance 5.10 km</desc>
<time>2010-10-24T11:23:24.04</time>
<name>3175</name>
</trkpt>
<trkpt lat="48.942053" lon="8.641555">
<ele>342.0</ele>
<speed>1.58</speed>
<course>166.5</course>
<desc>Speed 5.7 km/h Distance 5.10 km</desc>
<time>2010-10-24T11:23:25.04</time>
<name>3176</name>
</trkpt>
<trkpt lat="48.942040" lon="8.641560">
<ele>342.5</ele>
<speed>1.48</speed>
<course>164.0</course>
<desc>Speed 5.3 km/h Distance 5.10 km</desc>
<time>2010-10-24T11:23:26.04</time>
<name>3177</name>
</trkpt>
<trkpt lat="48.942025" lon="8.641567">
<ele>342.5</ele>
<speed>1.50</speed>
<course>166.5</course>
<desc>Speed 5.4 km/h Distance 5.10 km</desc>
<time>2010-10-24T11:23:27.04</time>
<name>3178</name>
</trkpt>
<trkpt lat="48.942012" lon="8.641572">
<ele>342.5</ele>
<speed>1.47</speed>
<course>164.0</course>
<desc>Speed 5.3 km/h Distance 5.11 km</desc>
<time>2010-10-24T11:23:28.04</time>
<name>3179</name>
</trkpt>
<trkpt lat="48.941997" lon="8.641578">
<ele>342.5</ele>
<speed>1.59</speed>
<course>157.9</course>
<desc>Speed 5.7 km/h Distance 5.11 km</desc>
<time>2010-10-24T11:23:29.04</time>
<name>3180</name>
</trkpt>
<trkpt lat="48.941983" lon="8.641587">
<ele>343.0</ele>
<speed>1.54</speed>
<course>168.8</course>
<desc>Speed 5.5 km/h Distance 5.11 km</desc>
<time>2010-10-24T11:23:30.04</time>
<name>3181</name>
</trkpt>
<trkpt lat="48.941972" lon="8.641590">
<ele>343.0</ele>
<speed>1.24</speed>
<course>167.4</course>
<desc>Speed 4.5 km/h Distance 5.11 km</desc>
<time>2010-10-24T11:23:31.04</time>
<name>3182</name>
</trkpt>
<trkpt lat="48.941962" lon="8.641593">
<ele>343.0</ele>
<speed>1.15</speed>
<course>166.0</course>
<desc>Speed 4.1 km/h Distance 5.11 km</desc>
<time>2010-10-24T11:23:32.04</time>
<name>3183</name>
</trkpt>
<trkpt lat="48.941948" lon="8.641598">
<ele>343.5</ele>
<speed>1.37</speed>
<course>168.8</course>
<desc>Speed 4.9 km/h Distance 5.11 km</desc>
<time>2010-10-24T11:23:33.04</time>
<name>3184</name>
</trkpt>
<trkpt lat="48.941937" lon="8.641602">
<ele>343.5</ele>
<speed>1.15</speed>
<course>166.5</course>
<desc>Speed 4.1 km/h Distance 5.11 km</desc>
<time>2010-10-24T11:23:34.04</time>
<name>3185</name>
</trkpt>
<trkpt lat="48.941923" lon="8.641607">
<ele>343.5</ele>
<speed>1.23</speed>
<course>168.8</course>
<desc>Speed 4.4 km/h Distance 5.12 km</desc>
<time>2010-10-24T11:23:35.04</time>
<name>3186</name>
</trkpt>
<trkpt lat="48.941907" lon="8.641612">
<ele>343.5</ele>
<speed>1.55</speed>
<course>160.1</course>
<desc>Speed 5.6 km/h Distance 5.12 km</desc>
<time>2010-10-24T11:23:36.04</time>
<name>3187</name>
</trkpt>
<trkpt lat="48.941892" lon="8.641620">
<ele>344.0</ele>
<speed>1.62</speed>
<course>170.2</course>
<desc>Speed 5.8 km/h Distance 5.12 km</desc>
<time>2010-10-24T11:23:37.04</time>
<name>3188</name>
</trkpt>
<trkpt lat="48.941873" lon="8.641625">
<ele>344.0</ele>
<speed>1.76</speed>
<course>165.1</course>
<desc>Speed 6.3 km/h Distance 5.12 km</desc>
<time>2010-10-24T11:23:38.04</time>
<name>3189</name>
</trkpt>
<trkpt lat="48.941857" lon="8.641632">
<ele>344.0</ele>
<speed>1.84</speed>
<course>167.4</course>
<desc>Speed 6.6 km/h Distance 5.12 km</desc>
<time>2010-10-24T11:23:39.04</time>
<name>3190</name>
</trkpt>
<trkpt lat="48.941842" lon="8.641637">
<ele>344.0</ele>
<speed>1.71</speed>
<course>165.1</course>
<desc>Speed 6.2 km/h Distance 5.13 km</desc>
<time>2010-10-24T11:23:40.04</time>
<name>3191</name>
</trkpt>
<trkpt lat="48.941825" lon="8.641643">
<ele>344.0</ele>
<speed>1.78</speed>
<course>163.7</course>
<desc>Speed 6.4 km/h Distance 5.13 km</desc>
<time>2010-10-24T11:23:41.04</time>
<name>3192</name>
</trkpt>
<trkpt lat="48.941810" lon="8.641650">
<ele>344.0</ele>
<speed>1.73</speed>
<course>169.2</course>
<desc>Speed 6.2 km/h Distance 5.13 km</desc>
<time>2010-10-24T11:23:42.04</time>
<name>3193</name>
</trkpt>
<trkpt lat="48.941793" lon="8.641655">
<ele>344.0</ele>
<speed>1.72</speed>
<course>159.9</course>
<desc>Speed 6.2 km/h Distance 5.13 km</desc>
<time>2010-10-24T11:23:43.04</time>
<name>3194</name>
</trkpt>
<trkpt lat="48.941778" lon="8.641663">
<ele>344.0</ele>
<speed>1.67</speed>
<course>167.4</course>
<desc>Speed 6.0 km/h Distance 5.13 km</desc>
<time>2010-10-24T11:23:44.04</time>
<name>3195</name>
</trkpt>
<trkpt lat="48.941763" lon="8.641668">
<ele>343.5</ele>
<speed>1.60</speed>
<course>163.4</course>
<desc>Speed 5.8 km/h Distance 5.13 km</desc>
<time>2010-10-24T11:23:45.04</time>
<name>3196</name>
</trkpt>
<trkpt lat="48.941748" lon="8.641675">
<ele>343.5</ele>
<speed>1.67</speed>
<course>165.1</course>
<desc>Speed 6.0 km/h Distance 5.14 km</desc>
<time>2010-10-24T11:23:46.04</time>
<name>3197</name>
</trkpt>
<trkpt lat="48.941732" lon="8.641682">
<ele>343.5</ele>
<speed>1.71</speed>
<course>163.7</course>
<desc>Speed 6.2 km/h Distance 5.14 km</desc>
<time>2010-10-24T11:23:47.04</time>
<name>3198</name>
</trkpt>
<trkpt lat="48.941717" lon="8.641688">
<ele>343.5</ele>
<speed>1.73</speed>
<course>165.1</course>
<desc>Speed 6.2 km/h Distance 5.14 km</desc>
<time>2010-10-24T11:23:48.04</time>
<name>3199</name>
</trkpt>
<trkpt lat="48.941700" lon="8.641695">
<ele>343.0</ele>
<speed>1.77</speed>
<course>176.2</course>
<desc>Speed 6.4 km/h Distance 5.14 km</desc>
<time>2010-10-24T11:23:49.04</time>
<name>3200</name>
</trkpt>
<trkpt lat="48.941685" lon="8.641697">
<ele>343.0</ele>
<speed>1.61</speed>
<course>166.5</course>
<desc>Speed 5.8 km/h Distance 5.14 km</desc>
<time>2010-10-24T11:23:50.04</time>
<name>3201</name>
</trkpt>
<trkpt lat="48.941672" lon="8.641702">
<ele>343.0</ele>
<speed>1.39</speed>
<course>167.8</course>
<desc>Speed 5.0 km/h Distance 5.14 km</desc>
<time>2010-10-24T11:23:51.04</time>
<name>3202</name>
</trkpt>
<trkpt lat="48.941657" lon="8.641707">
<ele>342.5</ele>
<speed>1.64</speed>
<course>168.3</course>
<desc>Speed 5.9 km/h Distance 5.15 km</desc>
<time>2010-10-24T11:23:52.04</time>
<name>3203</name>
</trkpt>
<trkpt lat="48.941642" lon="8.641712">
<ele>342.5</ele>
<speed>1.80</speed>
<course>164.0</course>
<desc>Speed 6.5 km/h Distance 5.15 km</desc>
<time>2010-10-24T11:23:53.04</time>
<name>3204</name>
</trkpt>
<trkpt lat="48.941627" lon="8.641718">
<ele>342.5</ele>
<speed>1.69</speed>
<course>164.0</course>
<desc>Speed 6.1 km/h Distance 5.15 km</desc>
<time>2010-10-24T11:23:54.04</time>
<name>3205</name>
</trkpt>
<trkpt lat="48.941612" lon="8.641725">
<ele>342.0</ele>
<speed>1.82</speed>
<course>166.0</course>
<desc>Speed 6.6 km/h Distance 5.15 km</desc>
<time>2010-10-24T11:23:55.04</time>
<name>3206</name>
</trkpt>
<trkpt lat="48.941598" lon="8.641730">
<ele>342.5</ele>
<speed>1.58</speed>
<course>171.9</course>
<desc>Speed 5.7 km/h Distance 5.15 km</desc>
<time>2010-10-24T11:23:56.04</time>
<name>3207</name>
</trkpt>
<trkpt lat="48.941583" lon="8.641733">
<ele>342.0</ele>
<speed>1.67</speed>
<course>171.2</course>
<desc>Speed 6.0 km/h Distance 5.15 km</desc>
<time>2010-10-24T11:23:57.04</time>
<name>3208</name>
</trkpt>
<trkpt lat="48.941568" lon="8.641737">
<ele>342.0</ele>
<speed>1.72</speed>
<course>172.5</course>
<desc>Speed 6.2 km/h Distance 5.16 km</desc>
<time>2010-10-24T11:23:58.04</time>
<name>3209</name>
</trkpt>
<trkpt lat="48.941553" lon="8.641740">
<ele>342.0</ele>
<speed>1.64</speed>
<course>171.9</course>
<desc>Speed 5.9 km/h Distance 5.16 km</desc>
<time>2010-10-24T11:23:59.04</time>
<name>3210</name>
</trkpt>
<trkpt lat="48.941538" lon="8.641743">
<ele>342.0</ele>
<speed>1.62</speed>
<course>171.2</course>
<desc>Speed 5.8 km/h Distance 5.16 km</desc>
<time>2010-10-24T11:24:00.03</time>
<name>3211</name>
</trkpt>
<trkpt lat="48.941523" lon="8.641747">
<ele>341.5</ele>
<speed>1.65</speed>
<course>175.3</course>
<desc>Speed 5.9 km/h Distance 5.16 km</desc>
<time>2010-10-24T11:24:01.03</time>
<name>3212</name>
</trkpt>
<trkpt lat="48.941512" lon="8.641748">
<ele>341.5</ele>
<speed>1.39</speed>
<course>171.0</course>
<desc>Speed 5.0 km/h Distance 5.16 km</desc>
<time>2010-10-24T11:24:02.03</time>
<name>3213</name>
</trkpt>
<trkpt lat="48.941498" lon="8.641752">
<ele>341.0</ele>
<speed>1.38</speed>
<course>165.4</course>
<desc>Speed 5.0 km/h Distance 5.16 km</desc>
<time>2010-10-24T11:24:03.03</time>
<name>3214</name>
</trkpt>
<trkpt lat="48.941482" lon="8.641758">
<ele>341.0</ele>
<speed>1.72</speed>
<course>161.9</course>
<desc>Speed 6.2 km/h Distance 5.17 km</desc>
<time>2010-10-24T11:24:04.03</time>
<name>3215</name>
</trkpt>
<trkpt lat="48.941468" lon="8.641765">
<ele>341.0</ele>
<speed>1.46</speed>
<course>159.4</course>
<desc>Speed 5.3 km/h Distance 5.17 km</desc>
<time>2010-10-24T11:24:05.03</time>
<name>3216</name>
</trkpt>
<trkpt lat="48.941457" lon="8.641772">
<ele>341.0</ele>
<speed>1.27</speed>
<course>164.5</course>
<desc>Speed 4.6 km/h Distance 5.17 km</desc>
<time>2010-10-24T11:24:06.03</time>
<name>3217</name>
</trkpt>
<trkpt lat="48.941445" lon="8.641777">
<ele>340.5</ele>
<speed>1.36</speed>
<course>166.5</course>
<desc>Speed 4.9 km/h Distance 5.17 km</desc>
<time>2010-10-24T11:24:07.03</time>
<name>3218</name>
</trkpt>
<trkpt lat="48.941432" lon="8.641782">
<ele>340.5</ele>
<speed>1.45</speed>
<course>165.6</course>
<desc>Speed 5.2 km/h Distance 5.17 km</desc>
<time>2010-10-24T11:24:08.03</time>
<name>3219</name>
</trkpt>
<trkpt lat="48.941418" lon="8.641787">
<ele>340.0</ele>
<speed>1.53</speed>
<course>164.0</course>
<desc>Speed 5.5 km/h Distance 5.17 km</desc>
<time>2010-10-24T11:24:09.03</time>
<name>3220</name>
</trkpt>
<trkpt lat="48.941407" lon="8.641792">
<ele>340.0</ele>
<speed>1.46</speed>
<course>161.8</course>
<desc>Speed 5.3 km/h Distance 5.17 km</desc>
<time>2010-10-24T11:24:10.03</time>
<name>3221</name>
</trkpt>
<trkpt lat="48.941397" lon="8.641797">
<ele>340.0</ele>
<speed>1.00</speed>
<course>167.4</course>
<desc>Speed 3.6 km/h Distance 5.18 km</desc>
<time>2010-10-24T11:24:11.03</time>
<name>3222</name>
</trkpt>
<trkpt lat="48.941387" lon="8.641800">
<ele>340.0</ele>
<speed>1.15</speed>
<course>176.2</course>
<desc>Speed 4.1 km/h Distance 5.18 km</desc>
<time>2010-10-24T11:24:12.03</time>
<name>3223</name>
</trkpt>
<trkpt lat="48.941372" lon="8.641800">
<ele>339.5</ele>
<speed>1.50</speed>
<course>159.4</course>
<desc>Speed 5.4 km/h Distance 5.18 km</desc>
<time>2010-10-24T11:24:13.03</time>
<name>3224</name>
</trkpt>
<trkpt lat="48.941360" lon="8.641807">
<ele>339.5</ele>
<speed>1.21</speed>
<course>161.8</course>
<desc>Speed 4.4 km/h Distance 5.18 km</desc>
<time>2010-10-24T11:24:14.03</time>
<name>3225</name>
</trkpt>
<trkpt lat="48.941350" lon="8.641812">
<ele>340.0</ele>
<speed>0.98</speed>
<course>161.8</course>
<desc>Speed 3.5 km/h Distance 5.18 km</desc>
<time>2010-10-24T11:24:15.03</time>
<name>3226</name>
</trkpt>
<trkpt lat="48.941340" lon="8.641817">
<ele>340.0</ele>
<speed>1.15</speed>
<course>156.2</course>
<desc>Speed 4.1 km/h Distance 5.18 km</desc>
<time>2010-10-24T11:24:16.03</time>
<name>3227</name>
</trkpt>
<trkpt lat="48.941330" lon="8.641823">
<ele>340.0</ele>
<speed>1.12</speed>
<course>156.6</course>
<desc>Speed 4.0 km/h Distance 5.18 km</desc>
<time>2010-10-24T11:24:17.03</time>
<name>3228</name>
</trkpt>
<trkpt lat="48.941320" lon="8.641830">
<ele>340.0</ele>
<speed>1.12</speed>
<course>146.8</course>
<desc>Speed 4.0 km/h Distance 5.19 km</desc>
<time>2010-10-24T11:24:18.03</time>
<name>3229</name>
</trkpt>
<trkpt lat="48.941310" lon="8.641840">
<ele>340.0</ele>
<speed>1.19</speed>
<course>146.6</course>
<desc>Speed 4.3 km/h Distance 5.19 km</desc>
<time>2010-10-24T11:24:19.03</time>
<name>3230</name>
</trkpt>
<trkpt lat="48.941298" lon="8.641852">
<ele>339.5</ele>
<speed>1.45</speed>
<course>146.6</course>
<desc>Speed 5.2 km/h Distance 5.19 km</desc>
<time>2010-10-24T11:24:20.03</time>
<name>3231</name>
</trkpt>
<trkpt lat="48.941285" lon="8.641865">
<ele>339.5</ele>
<speed>1.64</speed>
<course>149.7</course>
<desc>Speed 5.9 km/h Distance 5.19 km</desc>
<time>2010-10-24T11:24:21.03</time>
<name>3232</name>
</trkpt>
<trkpt lat="48.941270" lon="8.641878">
<ele>339.0</ele>
<speed>1.74</speed>
<course>155.3</course>
<desc>Speed 6.3 km/h Distance 5.19 km</desc>
<time>2010-10-24T11:24:22.03</time>
<name>3233</name>
</trkpt>
<trkpt lat="48.941253" lon="8.641890">
<ele>338.5</ele>
<speed>1.63</speed>
<course>137.4</course>
<desc>Speed 5.9 km/h Distance 5.19 km</desc>
<time>2010-10-24T11:24:23.03</time>
<name>3234</name>
</trkpt>
<trkpt lat="48.941245" lon="8.641902">
<ele>337.5</ele>
<speed>1.12</speed>
<course>138.8</course>
<desc>Speed 4.0 km/h Distance 5.20 km</desc>
<time>2010-10-24T11:24:24.03</time>
<name>3235</name>
</trkpt>
<trkpt lat="48.941235" lon="8.641915">
<ele>338.0</ele>
<speed>1.24</speed>
<course>137.4</course>
<desc>Speed 4.5 km/h Distance 5.20 km</desc>
<time>2010-10-24T11:24:25.03</time>
<name>3236</name>
</trkpt>
<trkpt lat="48.941227" lon="8.641927">
<ele>338.0</ele>
<speed>1.04</speed>
<course>156.2</course>
<desc>Speed 3.7 km/h Distance 5.20 km</desc>
<time>2010-10-24T11:24:26.03</time>
<name>3237</name>
</trkpt>
<trkpt lat="48.941217" lon="8.641933">
<ele>337.0</ele>
<speed>1.03</speed>
<course>156.2</course>
<desc>Speed 3.7 km/h Distance 5.20 km</desc>
<time>2010-10-24T11:24:27.03</time>
<name>3238</name>
</trkpt>
<trkpt lat="48.941207" lon="8.641940">
<ele>336.5</ele>
<speed>1.15</speed>
<course>146.8</course>
<desc>Speed 4.1 km/h Distance 5.20 km</desc>
<time>2010-10-24T11:24:28.03</time>
<name>3239</name>
</trkpt>
<trkpt lat="48.941198" lon="8.641948">
<ele>336.5</ele>
<speed>0.81</speed>
<course>154.8</course>
<desc>Speed 2.9 km/h Distance 5.20 km</desc>
<time>2010-10-24T11:24:29.03</time>
<name>3240</name>
</trkpt>
<trkpt lat="48.941187" lon="8.641957">
<ele>336.5</ele>
<speed>1.25</speed>
<course>165.1</course>
<desc>Speed 4.5 km/h Distance 5.20 km</desc>
<time>2010-10-24T11:24:30.03</time>
<name>3241</name>
</trkpt>
<trkpt lat="48.941175" lon="8.641962">
<ele>336.5</ele>
<speed>1.36</speed>
<course>165.1</course>
<desc>Speed 4.9 km/h Distance 5.20 km</desc>
<time>2010-10-24T11:24:31.03</time>
<name>3242</name>
</trkpt>
<trkpt lat="48.941163" lon="8.641967">
<ele>336.5</ele>
<speed>1.28</speed>
<course>156.2</course>
<desc>Speed 4.6 km/h Distance 5.21 km</desc>
<time>2010-10-24T11:24:32.03</time>
<name>3243</name>
</trkpt>
<trkpt lat="48.941153" lon="8.641973">
<ele>336.5</ele>
<speed>1.10</speed>
<course>164.5</course>
<desc>Speed 4.0 km/h Distance 5.21 km</desc>
<time>2010-10-24T11:24:33.03</time>
<name>3244</name>
</trkpt>
<trkpt lat="48.941142" lon="8.641978">
<ele>336.0</ele>
<speed>1.34</speed>
<course>166.0</course>
<desc>Speed 4.8 km/h Distance 5.21 km</desc>
<time>2010-10-24T11:24:34.03</time>
<name>3245</name>
</trkpt>
<trkpt lat="48.941128" lon="8.641983">
<ele>335.0</ele>
<speed>1.40</speed>
<course>158.5</course>
<desc>Speed 5.0 km/h Distance 5.21 km</desc>
<time>2010-10-24T11:24:35.03</time>
<name>3246</name>
</trkpt>
<trkpt lat="48.941120" lon="8.641988">
<ele>335.0</ele>
<speed>1.07</speed>
<course>178.8</course>
<desc>Speed 3.9 km/h Distance 5.21 km</desc>
<time>2010-10-24T11:24:36.03</time>
<name>3247</name>
</trkpt>
<trkpt lat="48.941107" lon="8.641988">
<ele>334.0</ele>
<speed>1.48</speed>
<course>161.2</course>
<desc>Speed 5.3 km/h Distance 5.21 km</desc>
<time>2010-10-24T11:24:37.03</time>
<name>3248</name>
</trkpt>
<trkpt lat="48.941100" lon="8.641992">
<ele>334.0</ele>
<speed>0.74</speed>
<course>186.6</course>
<desc>Speed 2.7 km/h Distance 5.21 km</desc>
<time>2010-10-24T11:24:38.03</time>
<name>3249</name>
</trkpt>
<trkpt lat="48.941090" lon="8.641990">
<ele>333.5</ele>
<speed>1.17</speed>
<course>161.8</course>
<desc>Speed 4.2 km/h Distance 5.21 km</desc>
<time>2010-10-24T11:24:39.03</time>
<name>3250</name>
</trkpt>
<trkpt lat="48.941080" lon="8.641995">
<ele>334.0</ele>
<speed>1.03</speed>
<course>157.8</course>
<desc>Speed 3.7 km/h Distance 5.22 km</desc>
<time>2010-10-24T11:24:40.03</time>
<name>3251</name>
</trkpt>
<trkpt lat="48.941075" lon="8.641998">
<ele>334.0</ele>
<speed>0.60</speed>
<course>175.6</course>
<desc>Speed 2.2 km/h Distance 5.22 km</desc>
<time>2010-10-24T11:24:41.03</time>
<name>3252</name>
</trkpt>
<trkpt lat="48.941065" lon="8.642000">
<ele>333.5</ele>
<speed>1.00</speed>
<course>167.4</course>
<desc>Speed 3.6 km/h Distance 5.22 km</desc>
<time>2010-10-24T11:24:42.03</time>
<name>3253</name>
</trkpt>
<trkpt lat="48.941055" lon="8.642003">
<ele>332.5</ele>
<speed>0.93</speed>
<course>167.4</course>
<desc>Speed 3.3 km/h Distance 5.22 km</desc>
<time>2010-10-24T11:24:43.03</time>
<name>3254</name>
</trkpt>
<trkpt lat="48.941045" lon="8.642007">
<ele>332.0</ele>
<speed>0.98</speed>
<course>173.4</course>
<desc>Speed 3.5 km/h Distance 5.22 km</desc>
<time>2010-10-24T11:24:44.03</time>
<name>3255</name>
</trkpt>
<trkpt lat="48.941035" lon="8.642008">
<ele>331.5</ele>
<speed>1.02</speed>
<course>167.4</course>
<desc>Speed 3.7 km/h Distance 5.22 km</desc>
<time>2010-10-24T11:24:45.03</time>
<name>3256</name>
</trkpt>
<trkpt lat="48.941025" lon="8.642012">
<ele>331.0</ele>
<speed>0.94</speed>
<course>282.3</course>
<desc>Speed 3.4 km/h Distance 5.22 km</desc>
<time>2010-10-24T11:24:46.03</time>
<name>3257</name>
</trkpt>
<trkpt lat="48.941027" lon="8.642000">
<ele>330.0</ele>
<speed>1.00</speed>
<course>172.6</course>
<desc>Speed 3.6 km/h Distance 5.22 km</desc>
<time>2010-10-24T11:24:47.03</time>
<name>3258</name>
</trkpt>
<trkpt lat="48.941020" lon="8.642002">
<ele>330.0</ele>
<speed>0.81</speed>
<course>165.1</course>
<desc>Speed 2.9 km/h Distance 5.22 km</desc>
<time>2010-10-24T11:24:48.03</time>
<name>3259</name>
</trkpt>
<trkpt lat="48.941012" lon="8.642005">
<ele>330.0</ele>
<speed>1.21</speed>
<course>158.5</course>
<desc>Speed 4.4 km/h Distance 5.22 km</desc>
<time>2010-10-24T11:24:49.03</time>
<name>3260</name>
</trkpt>
<trkpt lat="48.941003" lon="8.642010">
<ele>330.5</ele>
<speed>1.04</speed>
<course>175.3</course>
<desc>Speed 3.7 km/h Distance 5.22 km</desc>
<time>2010-10-24T11:24:50.03</time>
<name>3261</name>
</trkpt>
<trkpt lat="48.940992" lon="8.642012">
<ele>330.0</ele>
<speed>1.21</speed>
<course>175.6</course>
<desc>Speed 4.4 km/h Distance 5.23 km</desc>
<time>2010-10-24T11:24:51.03</time>
<name>3262</name>
</trkpt>
<trkpt lat="48.940982" lon="8.642012">
<ele>329.5</ele>
<speed>1.21</speed>
<course>175.3</course>
<desc>Speed 4.4 km/h Distance 5.23 km</desc>
<time>2010-10-24T11:24:52.03</time>
<name>3263</name>
</trkpt>
<trkpt lat="48.940970" lon="8.642013">
<ele>329.5</ele>
<speed>1.19</speed>
<course>176.2</course>
<desc>Speed 4.3 km/h Distance 5.23 km</desc>
<time>2010-10-24T11:24:53.03</time>
<name>3264</name>
</trkpt>
<trkpt lat="48.940955" lon="8.642015">
<ele>329.0</ele>
<speed>1.53</speed>
<course>166.6</course>
<desc>Speed 5.5 km/h Distance 5.23 km</desc>
<time>2010-10-24T11:24:54.03</time>
<name>3265</name>
</trkpt>
<trkpt lat="48.940945" lon="8.642018">
<ele>329.0</ele>
<speed>1.00</speed>
<course>169.8</course>
<desc>Speed 3.6 km/h Distance 5.23 km</desc>
<time>2010-10-24T11:24:55.03</time>
<name>3266</name>
</trkpt>
<trkpt lat="48.940927" lon="8.642023">
<ele>328.0</ele>
<speed>1.08</speed>
<course>44.5</course>
<desc>Speed 3.9 km/h Distance 5.23 km</desc>
<time>2010-10-24T11:24:56.03</time>
<name>3267</name>
</trkpt>
<trkpt lat="48.940933" lon="8.642033">
<ele>328.0</ele>
<speed>0.88</speed>
<course>180.0</course>
<desc>Speed 3.2 km/h Distance 5.23 km</desc>
<time>2010-10-24T11:24:57.03</time>
<name>3268</name>
</trkpt>
<trkpt lat="48.940922" lon="8.642033">
<ele>328.5</ele>
<speed>1.26</speed>
<course>184.4</course>
<desc>Speed 4.5 km/h Distance 5.24 km</desc>
<time>2010-10-24T11:24:58.03</time>
<name>3269</name>
</trkpt>
<trkpt lat="48.940912" lon="8.642032">
<ele>328.0</ele>
<speed>1.16</speed>
<course>169.6</course>
<desc>Speed 4.2 km/h Distance 5.24 km</desc>
<time>2010-10-24T11:24:59.03</time>
<name>3270</name>
</trkpt>
<trkpt lat="48.940900" lon="8.642035">
<ele>327.5</ele>
<speed>1.09</speed>
<course>167.4</course>
<desc>Speed 3.9 km/h Distance 5.24 km</desc>
<time>2010-10-24T11:25:00.05</time>
<name>3271</name>
</trkpt>
<trkpt lat="48.940890" lon="8.642038">
<ele>327.0</ele>
<speed>1.09</speed>
<course>166.5</course>
<desc>Speed 3.9 km/h Distance 5.24 km</desc>
<time>2010-10-24T11:25:01.02</time>
<name>3272</name>
</trkpt>
<trkpt lat="48.940877" lon="8.642043">
<ele>326.5</ele>
<speed>1.45</speed>
<course>173.4</course>
<desc>Speed 5.2 km/h Distance 5.24 km</desc>
<time>2010-10-24T11:25:02.02</time>
<name>3273</name>
</trkpt>
<trkpt lat="48.940867" lon="8.642045">
<ele>325.5</ele>
<speed>1.10</speed>
<course>175.6</course>
<desc>Speed 4.0 km/h Distance 5.24 km</desc>
<time>2010-10-24T11:25:03.02</time>
<name>3274</name>
</trkpt>
<trkpt lat="48.940857" lon="8.642047">
<ele>325.0</ele>
<speed>0.87</speed>
<course>166.5</course>
<desc>Speed 3.1 km/h Distance 5.24 km</desc>
<time>2010-10-24T11:25:04.02</time>
<name>3275</name>
</trkpt>
<trkpt lat="48.940843" lon="8.642052">
<ele>324.5</ele>
<speed>1.15</speed>
<course>173.0</course>
<desc>Speed 4.1 km/h Distance 5.24 km</desc>
<time>2010-10-24T11:25:05.02</time>
<name>3276</name>
</trkpt>
<trkpt lat="48.940825" lon="8.642055">
<ele>324.5</ele>
<speed>1.40</speed>
<course>159.1</course>
<desc>Speed 5.0 km/h Distance 5.25 km</desc>
<time>2010-10-24T11:25:06.02</time>
<name>3277</name>
</trkpt>
<trkpt lat="48.940813" lon="8.642062">
<ele>324.0</ele>
<speed>0.91</speed>
<course>171.0</course>
<desc>Speed 3.3 km/h Distance 5.25 km</desc>
<time>2010-10-24T11:25:07.02</time>
<name>3278</name>
</trkpt>
<trkpt lat="48.940800" lon="8.642065">
<ele>323.0</ele>
<speed>1.02</speed>
<course>159.4</course>
<desc>Speed 3.7 km/h Distance 5.25 km</desc>
<time>2010-10-24T11:25:08.02</time>
<name>3279</name>
</trkpt>
<trkpt lat="48.940788" lon="8.642072">
<ele>323.5</ele>
<speed>0.92</speed>
<course>68.2</course>
<desc>Speed 3.3 km/h Distance 5.25 km</desc>
<time>2010-10-24T11:25:09.02</time>
<name>3280</name>
</trkpt>
<trkpt lat="48.940797" lon="8.642103">
<ele>328.0</ele>
<speed>1.00</speed>
<course>171.2</course>
<desc>Speed 3.6 km/h Distance 5.25 km</desc>
<time>2010-10-24T11:25:10.02</time>
<name>3281</name>
</trkpt>
<trkpt lat="48.940782" lon="8.642107">
<ele>328.0</ele>
<speed>1.09</speed>
<course>180.0</course>
<desc>Speed 3.9 km/h Distance 5.26 km</desc>
<time>2010-10-24T11:25:11.02</time>
<name>3282</name>
</trkpt>
<trkpt lat="48.940765" lon="8.642107">
<ele>328.0</ele>
<speed>1.74</speed>
<course>169.6</course>
<desc>Speed 6.3 km/h Distance 5.26 km</desc>
<time>2010-10-24T11:25:12.02</time>
<name>3283</name>
</trkpt>
<trkpt lat="48.940753" lon="8.642110">
<ele>327.5</ele>
<speed>1.15</speed>
<course>175.6</course>
<desc>Speed 4.1 km/h Distance 5.26 km</desc>
<time>2010-10-24T11:25:13.02</time>
<name>3284</name>
</trkpt>
<trkpt lat="48.940743" lon="8.642112">
<ele>328.0</ele>
<speed>0.92</speed>
<course>192.6</course>
<desc>Speed 3.3 km/h Distance 5.26 km</desc>
<time>2010-10-24T11:25:14.02</time>
<name>3285</name>
</trkpt>
<trkpt lat="48.940733" lon="8.642108">
<ele>328.0</ele>
<speed>0.80</speed>
<course>167.4</course>
<desc>Speed 2.9 km/h Distance 5.26 km</desc>
<time>2010-10-24T11:25:15.02</time>
<name>3286</name>
</trkpt>
<trkpt lat="48.940730" lon="8.642110">
<ele>328.0</ele>
<speed>0.37</speed>
<course>191.2</course>
<desc>Speed 1.3 km/h Distance 5.26 km</desc>
<time>2010-10-24T11:25:16.02</time>
<name>3287</name>
</trkpt>
<trkpt lat="48.940718" lon="8.642107">
<ele>327.0</ele>
<speed>1.08</speed>
<course>192.6</course>
<desc>Speed 3.9 km/h Distance 5.26 km</desc>
<time>2010-10-24T11:25:17.02</time>
<name>3288</name>
</trkpt>
<trkpt lat="48.940708" lon="8.642103">
<ele>326.0</ele>
<speed>0.97</speed>
<course>182.8</course>
<desc>Speed 3.5 km/h Distance 5.26 km</desc>
<time>2010-10-24T11:25:18.02</time>
<name>3289</name>
</trkpt>
<trkpt lat="48.940692" lon="8.642102">
<ele>325.0</ele>
<speed>1.40</speed>
<course>163.7</course>
<desc>Speed 5.0 km/h Distance 5.27 km</desc>
<time>2010-10-24T11:25:19.02</time>
<name>3290</name>
</trkpt>
<trkpt lat="48.940677" lon="8.642108">
<ele>326.5</ele>
<speed>0.82</speed>
<course>178.8</course>
<desc>Speed 3.0 km/h Distance 5.27 km</desc>
<time>2010-10-24T11:25:20.02</time>
<name>3291</name>
</trkpt>
<trkpt lat="48.940663" lon="8.642108">
<ele>327.5</ele>
<speed>0.66</speed>
<course>182.5</course>
<desc>Speed 2.4 km/h Distance 5.27 km</desc>
<time>2010-10-24T11:25:21.02</time>
<name>3292</name>
</trkpt>
<trkpt lat="48.940645" lon="8.642107">
<ele>328.0</ele>
<speed>1.04</speed>
<course>183.8</course>
<desc>Speed 3.7 km/h Distance 5.27 km</desc>
<time>2010-10-24T11:25:22.02</time>
<name>3293</name>
</trkpt>
<trkpt lat="48.940630" lon="8.642105">
<ele>328.0</ele>
<speed>1.50</speed>
<course>185.3</course>
<desc>Speed 5.4 km/h Distance 5.27 km</desc>
<time>2010-10-24T11:25:23.02</time>
<name>3294</name>
</trkpt>
<trkpt lat="48.940617" lon="8.642103">
<ele>328.0</ele>
<speed>1.33</speed>
<course>192.6</course>
<desc>Speed 4.8 km/h Distance 5.27 km</desc>
<time>2010-10-24T11:25:24.02</time>
<name>3295</name>
</trkpt>
<trkpt lat="48.940602" lon="8.642098">
<ele>328.0</ele>
<speed>1.35</speed>
<course>192.6</course>
<desc>Speed 4.9 km/h Distance 5.28 km</desc>
<time>2010-10-24T11:25:25.02</time>
<name>3296</name>
</trkpt>
<trkpt lat="48.940587" lon="8.642093">
<ele>328.0</ele>
<speed>1.17</speed>
<course>183.8</course>
<desc>Speed 4.2 km/h Distance 5.28 km</desc>
<time>2010-10-24T11:25:26.02</time>
<name>3297</name>
</trkpt>
<trkpt lat="48.940572" lon="8.642092">
<ele>328.5</ele>
<speed>1.00</speed>
<course>186.5</course>
<desc>Speed 3.6 km/h Distance 5.28 km</desc>
<time>2010-10-24T11:25:27.02</time>
<name>3298</name>
</trkpt>
<trkpt lat="48.940553" lon="8.642088">
<ele>328.5</ele>
<speed>1.64</speed>
<course>194.3</course>
<desc>Speed 5.9 km/h Distance 5.28 km</desc>
<time>2010-10-24T11:25:28.02</time>
<name>3299</name>
</trkpt>
<trkpt lat="48.940537" lon="8.642082">
<ele>328.5</ele>
<speed>1.44</speed>
<course>187.4</course>
<desc>Speed 5.2 km/h Distance 5.28 km</desc>
<time>2010-10-24T11:25:29.02</time>
<name>3300</name>
</trkpt>
<trkpt lat="48.940530" lon="8.642080">
<ele>329.5</ele>
<speed>0.66</speed>
<course>192.6</course>
<desc>Speed 2.4 km/h Distance 5.28 km</desc>
<time>2010-10-24T11:25:30.02</time>
<name>3301</name>
</trkpt>
<trkpt lat="48.940515" lon="8.642075">
<ele>329.5</ele>
<speed>1.28</speed>
<course>191.7</course>
<desc>Speed 4.6 km/h Distance 5.29 km</desc>
<time>2010-10-24T11:25:31.02</time>
<name>3302</name>
</trkpt>
<trkpt lat="48.940500" lon="8.642070">
<ele>329.5</ele>
<speed>1.37</speed>
<course>180.0</course>
<desc>Speed 4.9 km/h Distance 5.29 km</desc>
<time>2010-10-24T11:25:32.02</time>
<name>3303</name>
</trkpt>
<trkpt lat="48.940483" lon="8.642070">
<ele>328.5</ele>
<speed>1.09</speed>
<course>184.7</course>
<desc>Speed 3.9 km/h Distance 5.29 km</desc>
<time>2010-10-24T11:25:33.02</time>
<name>3304</name>
</trkpt>
<trkpt lat="48.940472" lon="8.642068">
<ele>329.5</ele>
<speed>0.50</speed>
<course>188.8</course>
<desc>Speed 1.8 km/h Distance 5.29 km</desc>
<time>2010-10-24T11:25:34.02</time>
<name>3305</name>
</trkpt>
<trkpt lat="48.940457" lon="8.642065">
<ele>328.5</ele>
<speed>1.24</speed>
<course>192.6</course>
<desc>Speed 4.5 km/h Distance 5.29 km</desc>
<time>2010-10-24T11:25:35.02</time>
<name>3306</name>
</trkpt>
<trkpt lat="48.940437" lon="8.642058">
<ele>329.5</ele>
<speed>1.22</speed>
<course>202.3</course>
<desc>Speed 4.4 km/h Distance 5.29 km</desc>
<time>2010-10-24T11:25:36.02</time>
<name>3307</name>
</trkpt>
<trkpt lat="48.940423" lon="8.642050">
<ele>330.0</ele>
<speed>1.08</speed>
<course>192.6</course>
<desc>Speed 3.9 km/h Distance 5.30 km</desc>
<time>2010-10-24T11:25:37.02</time>
<name>3308</name>
</trkpt>
<trkpt lat="48.940408" lon="8.642045">
<ele>330.0</ele>
<speed>1.27</speed>
<course>212.3</course>
<desc>Speed 4.6 km/h Distance 5.30 km</desc>
<time>2010-10-24T11:25:38.02</time>
<name>3309</name>
</trkpt>
<trkpt lat="48.940403" lon="8.642040">
<ele>330.0</ele>
<speed>0.60</speed>
<course>183.8</course>
<desc>Speed 2.2 km/h Distance 5.30 km</desc>
<time>2010-10-24T11:25:39.02</time>
<name>3310</name>
</trkpt>
<trkpt lat="48.940388" lon="8.642038">
<ele>329.5</ele>
<speed>1.37</speed>
<course>182.8</course>
<desc>Speed 4.9 km/h Distance 5.30 km</desc>
<time>2010-10-24T11:25:40.02</time>
<name>3311</name>
</trkpt>
<trkpt lat="48.940372" lon="8.642037">
<ele>329.5</ele>
<speed>1.77</speed>
<course>201.5</course>
<desc>Speed 6.4 km/h Distance 5.30 km</desc>
<time>2010-10-24T11:25:41.02</time>
<name>3312</name>
</trkpt>
<trkpt lat="48.940363" lon="8.642032">
<ele>329.5</ele>
<speed>0.93</speed>
<course>189.0</course>
<desc>Speed 3.3 km/h Distance 5.30 km</desc>
<time>2010-10-24T11:25:42.02</time>
<name>3313</name>
</trkpt>
<trkpt lat="48.940350" lon="8.642028">
<ele>329.5</ele>
<speed>1.23</speed>
<course>169.2</course>
<desc>Speed 4.4 km/h Distance 5.30 km</desc>
<time>2010-10-24T11:25:43.02</time>
<name>3314</name>
</trkpt>
<trkpt lat="48.940327" lon="8.642035">
<ele>329.5</ele>
<speed>1.45</speed>
<course>178.8</course>
<desc>Speed 5.2 km/h Distance 5.31 km</desc>
<time>2010-10-24T11:25:44.02</time>
<name>3315</name>
</trkpt>
<trkpt lat="48.940307" lon="8.642035">
<ele>329.5</ele>
<speed>1.15</speed>
<course>172.3</course>
<desc>Speed 4.1 km/h Distance 5.31 km</desc>
<time>2010-10-24T11:25:45.02</time>
<name>3316</name>
</trkpt>
<trkpt lat="48.940298" lon="8.642037">
<ele>331.0</ele>
<speed>0.63</speed>
<course>187.4</course>
<desc>Speed 2.3 km/h Distance 5.31 km</desc>
<time>2010-10-24T11:25:46.02</time>
<name>3317</name>
</trkpt>
<trkpt lat="48.940292" lon="8.642035">
<ele>332.5</ele>
<speed>0.52</speed>
<course>198.4</course>
<desc>Speed 1.9 km/h Distance 5.31 km</desc>
<time>2010-10-24T11:25:47.02</time>
<name>3318</name>
</trkpt>
<trkpt lat="48.940278" lon="8.642028">
<ele>333.0</ele>
<speed>1.11</speed>
<course>193.5</course>
<desc>Speed 4.0 km/h Distance 5.31 km</desc>
<time>2010-10-24T11:25:48.02</time>
<name>3319</name>
</trkpt>
<trkpt lat="48.940265" lon="8.642023">
<ele>332.0</ele>
<speed>1.45</speed>
<course>182.5</course>
<desc>Speed 5.2 km/h Distance 5.31 km</desc>
<time>2010-10-24T11:25:49.02</time>
<name>3320</name>
</trkpt>
<trkpt lat="48.940247" lon="8.642022">
<ele>333.0</ele>
<speed>1.14</speed>
<course>263.3</course>
<desc>Speed 4.1 km/h Distance 5.32 km</desc>
<time>2010-10-24T11:25:50.02</time>
<name>3321</name>
</trkpt>
<trkpt lat="48.940245" lon="8.642000">
<ele>331.5</ele>
<speed>1.72</speed>
<course>251.3</course>
<desc>Speed 6.2 km/h Distance 5.32 km</desc>
<time>2010-10-24T11:25:51.02</time>
<name>3322</name>
</trkpt>
<trkpt lat="48.940242" lon="8.641985">
<ele>331.0</ele>
<speed>1.13</speed>
<course>205.2</course>
<desc>Speed 4.1 km/h Distance 5.32 km</desc>
<time>2010-10-24T11:25:52.02</time>
<name>3323</name>
</trkpt>
<trkpt lat="48.940230" lon="8.641977">
<ele>331.5</ele>
<speed>1.08</speed>
<course>187.5</course>
<desc>Speed 3.9 km/h Distance 5.32 km</desc>
<time>2010-10-24T11:25:53.02</time>
<name>3324</name>
</trkpt>
<trkpt lat="48.940215" lon="8.641973">
<ele>332.5</ele>
<speed>1.07</speed>
<course>200.1</course>
<desc>Speed 3.9 km/h Distance 5.32 km</desc>
<time>2010-10-24T11:25:54.02</time>
<name>3325</name>
</trkpt>
<trkpt lat="48.940200" lon="8.641965">
<ele>332.5</ele>
<speed>1.12</speed>
<course>213.2</course>
<desc>Speed 4.0 km/h Distance 5.32 km</desc>
<time>2010-10-24T11:25:55.02</time>
<name>3326</name>
</trkpt>
<trkpt lat="48.940190" lon="8.641955">
<ele>331.5</ele>
<speed>1.10</speed>
<course>163.4</course>
<desc>Speed 4.0 km/h Distance 5.32 km</desc>
<time>2010-10-24T11:25:56.02</time>
<name>3327</name>
</trkpt>
<trkpt lat="48.940175" lon="8.641962">
<ele>333.5</ele>
<speed>1.42</speed>
<course>200.1</course>
<desc>Speed 5.1 km/h Distance 5.33 km</desc>
<time>2010-10-24T11:25:57.02</time>
<name>3328</name>
</trkpt>
<trkpt lat="48.940160" lon="8.641953">
<ele>334.0</ele>
<speed>1.44</speed>
<course>176.2</course>
<desc>Speed 5.2 km/h Distance 5.33 km</desc>
<time>2010-10-24T11:25:58.02</time>
<name>3329</name>
</trkpt>
<trkpt lat="48.940145" lon="8.641955">
<ele>335.5</ele>
<speed>1.57</speed>
<course>157.1</course>
<desc>Speed 5.7 km/h Distance 5.33 km</desc>
<time>2010-10-24T11:25:59.02</time>
<name>3330</name>
</trkpt>
<trkpt lat="48.940098" lon="8.641985">
<ele>337.5</ele>
<speed>1.14</speed>
<course>187.7</course>
<desc>Speed 4.1 km/h Distance 5.34 km</desc>
<time>2010-10-24T11:26:01.01</time>
<name>3331</name>
</trkpt>
<trkpt lat="48.940082" lon="8.641982">
<ele>337.5</ele>
<speed>1.71</speed>
<course>188.1</course>
<desc>Speed 6.2 km/h Distance 5.34 km</desc>
<time>2010-10-24T11:26:02.01</time>
<name>3332</name>
</trkpt>
<trkpt lat="48.940067" lon="8.641978">
<ele>337.5</ele>
<speed>1.33</speed>
<course>193.5</course>
<desc>Speed 4.8 km/h Distance 5.34 km</desc>
<time>2010-10-24T11:26:03.01</time>
<name>3333</name>
</trkpt>
<trkpt lat="48.940053" lon="8.641973">
<ele>337.5</ele>
<speed>0.93</speed>
<course>185.9</course>
<desc>Speed 3.3 km/h Distance 5.34 km</desc>
<time>2010-10-24T11:26:04.01</time>
<name>3334</name>
</trkpt>
<trkpt lat="48.940032" lon="8.641970">
<ele>336.5</ele>
<speed>1.75</speed>
<course>187.0</course>
<desc>Speed 6.3 km/h Distance 5.34 km</desc>
<time>2010-10-24T11:26:05.01</time>
<name>3335</name>
</trkpt>
<trkpt lat="48.940013" lon="8.641967">
<ele>336.0</ele>
<speed>1.44</speed>
<course>200.9</course>
<desc>Speed 5.2 km/h Distance 5.35 km</desc>
<time>2010-10-24T11:26:06.01</time>
<name>3336</name>
</trkpt>
<trkpt lat="48.940002" lon="8.641960">
<ele>335.5</ele>
<speed>1.22</speed>
<course>196.0</course>
<desc>Speed 4.4 km/h Distance 5.35 km</desc>
<time>2010-10-24T11:26:07.01</time>
<name>3337</name>
</trkpt>
<trkpt lat="48.939990" lon="8.641955">
<ele>335.0</ele>
<speed>1.16</speed>
<course>198.2</course>
<desc>Speed 4.2 km/h Distance 5.35 km</desc>
<time>2010-10-24T11:26:08.01</time>
<name>3338</name>
</trkpt>
<trkpt lat="48.939980" lon="8.641950">
<ele>335.0</ele>
<speed>0.76</speed>
<course>167.4</course>
<desc>Speed 2.7 km/h Distance 5.35 km</desc>
<time>2010-10-24T11:26:09.01</time>
<name>3339</name>
</trkpt>
<trkpt lat="48.939965" lon="8.641955">
<ele>336.0</ele>
<speed>1.55</speed>
<course>200.9</course>
<desc>Speed 5.6 km/h Distance 5.35 km</desc>
<time>2010-10-24T11:26:10.01</time>
<name>3340</name>
</trkpt>
<trkpt lat="48.939953" lon="8.641948">
<ele>336.5</ele>
<speed>1.12</speed>
<course>209.2</course>
<desc>Speed 4.0 km/h Distance 5.35 km</desc>
<time>2010-10-24T11:26:11.01</time>
<name>3341</name>
</trkpt>
<trkpt lat="48.939943" lon="8.641940">
<ele>336.5</ele>
<speed>1.14</speed>
<course>196.0</course>
<desc>Speed 4.1 km/h Distance 5.35 km</desc>
<time>2010-10-24T11:26:12.01</time>
<name>3342</name>
</trkpt>
<trkpt lat="48.939932" lon="8.641935">
<ele>337.5</ele>
<speed>1.09</speed>
<course>200.2</course>
<desc>Speed 3.9 km/h Distance 5.35 km</desc>
<time>2010-10-24T11:26:13.01</time>
<name>3343</name>
</trkpt>
<trkpt lat="48.939920" lon="8.641928">
<ele>338.0</ele>
<speed>1.16</speed>
<course>187.5</course>
<desc>Speed 4.2 km/h Distance 5.36 km</desc>
<time>2010-10-24T11:26:14.01</time>
<name>3344</name>
</trkpt>
<trkpt lat="48.939905" lon="8.641925">
<ele>337.0</ele>
<speed>1.15</speed>
<course>175.3</course>
<desc>Speed 4.1 km/h Distance 5.36 km</desc>
<time>2010-10-24T11:26:15.01</time>
<name>3345</name>
</trkpt>
<trkpt lat="48.939893" lon="8.641927">
<ele>338.0</ele>
<speed>1.09</speed>
<course>177.2</course>
<desc>Speed 3.9 km/h Distance 5.36 km</desc>
<time>2010-10-24T11:26:16.01</time>
<name>3346</name>
</trkpt>
<trkpt lat="48.939877" lon="8.641927">
<ele>338.5</ele>
<speed>1.12</speed>
<course>175.6</course>
<desc>Speed 4.0 km/h Distance 5.36 km</desc>
<time>2010-10-24T11:26:17.01</time>
<name>3347</name>
</trkpt>
<trkpt lat="48.939867" lon="8.641927">
<ele>338.5</ele>
<speed>1.25</speed>
<course>189.7</course>
<desc>Speed 4.5 km/h Distance 5.36 km</desc>
<time>2010-10-24T11:26:18.01</time>
<name>3348</name>
</trkpt>
<trkpt lat="48.939853" lon="8.641923">
<ele>338.0</ele>
<speed>1.27</speed>
<course>194.9</course>
<desc>Speed 4.6 km/h Distance 5.36 km</desc>
<time>2010-10-24T11:26:19.01</time>
<name>3349</name>
</trkpt>
<trkpt lat="48.939845" lon="8.641920">
<ele>338.0</ele>
<speed>0.94</speed>
<course>170.4</course>
<desc>Speed 3.4 km/h Distance 5.36 km</desc>
<time>2010-10-24T11:26:20.01</time>
<name>3350</name>
</trkpt>
<trkpt lat="48.939787" lon="8.641935">
<ele>339.0</ele>
<speed>1.48</speed>
<course>168.8</course>
<desc>Speed 5.3 km/h Distance 5.37 km</desc>
<time>2010-10-24T11:26:22.01</time>
<name>3351</name>
</trkpt>
<trkpt lat="48.939770" lon="8.641940">
<ele>339.0</ele>
<speed>1.22</speed>
<course>159.4</course>
<desc>Speed 4.4 km/h Distance 5.37 km</desc>
<time>2010-10-24T11:26:23.01</time>
<name>3352</name>
</trkpt>
<trkpt lat="48.939758" lon="8.641947">
<ele>339.0</ele>
<speed>1.19</speed>
<course>160.3</course>
<desc>Speed 4.3 km/h Distance 5.37 km</desc>
<time>2010-10-24T11:26:24.01</time>
<name>3353</name>
</trkpt>
<trkpt lat="48.939740" lon="8.641957">
<ele>340.0</ele>
<speed>1.25</speed>
<course>161.8</course>
<desc>Speed 4.5 km/h Distance 5.38 km</desc>
<time>2010-10-24T11:26:25.01</time>
<name>3354</name>
</trkpt>
<trkpt lat="48.939720" lon="8.641967">
<ele>341.0</ele>
<speed>1.46</speed>
<course>163.0</course>
<desc>Speed 5.3 km/h Distance 5.38 km</desc>
<time>2010-10-24T11:26:26.01</time>
<name>3355</name>
</trkpt>
<trkpt lat="48.939698" lon="8.641977">
<ele>341.5</ele>
<speed>1.25</speed>
<course>162.4</course>
<desc>Speed 4.5 km/h Distance 5.38 km</desc>
<time>2010-10-24T11:26:27.01</time>
<name>3356</name>
</trkpt>
<trkpt lat="48.939688" lon="8.641982">
<ele>341.0</ele>
<speed>1.22</speed>
<course>163.4</course>
<desc>Speed 4.4 km/h Distance 5.38 km</desc>
<time>2010-10-24T11:26:28.01</time>
<name>3357</name>
</trkpt>
<trkpt lat="48.939670" lon="8.641990">
<ele>341.0</ele>
<speed>1.08</speed>
<course>167.4</course>
<desc>Speed 3.9 km/h Distance 5.38 km</desc>
<time>2010-10-24T11:26:29.01</time>
<name>3358</name>
</trkpt>
<trkpt lat="48.939650" lon="8.641997">
<ele>341.5</ele>
<speed>1.39</speed>
<course>161.8</course>
<desc>Speed 5.0 km/h Distance 5.39 km</desc>
<time>2010-10-24T11:26:30.01</time>
<name>3359</name>
</trkpt>
<trkpt lat="48.939630" lon="8.642007">
<ele>342.5</ele>
<speed>1.33</speed>
<course>167.9</course>
<desc>Speed 4.8 km/h Distance 5.39 km</desc>
<time>2010-10-24T11:26:31.01</time>
<name>3360</name>
</trkpt>
<trkpt lat="48.939610" lon="8.642013">
<ele>342.5</ele>
<speed>1.08</speed>
<course>171.3</course>
<desc>Speed 3.9 km/h Distance 5.39 km</desc>
<time>2010-10-24T11:26:32.01</time>
<name>3361</name>
</trkpt>
<trkpt lat="48.939588" lon="8.642018">
<ele>342.5</ele>
<speed>1.44</speed>
<course>173.0</course>
<desc>Speed 5.2 km/h Distance 5.39 km</desc>
<time>2010-10-24T11:26:33.01</time>
<name>3362</name>
</trkpt>
<trkpt lat="48.939570" lon="8.642022">
<ele>342.5</ele>
<speed>1.30</speed>
<course>166.0</course>
<desc>Speed 4.7 km/h Distance 5.40 km</desc>
<time>2010-10-24T11:26:34.01</time>
<name>3363</name>
</trkpt>
<trkpt lat="48.939557" lon="8.642027">
<ele>342.5</ele>
<speed>1.48</speed>
<course>170.3</course>
<desc>Speed 5.3 km/h Distance 5.40 km</desc>
<time>2010-10-24T11:26:35.01</time>
<name>3364</name>
</trkpt>
<trkpt lat="48.939543" lon="8.642030">
<ele>342.5</ele>
<speed>1.39</speed>
<course>158.5</course>
<desc>Speed 5.0 km/h Distance 5.40 km</desc>
<time>2010-10-24T11:26:36.01</time>
<name>3365</name>
</trkpt>
<trkpt lat="48.939527" lon="8.642040">
<ele>343.0</ele>
<speed>1.37</speed>
<course>180.0</course>
<desc>Speed 4.9 km/h Distance 5.40 km</desc>
<time>2010-10-24T11:26:37.01</time>
<name>3366</name>
</trkpt>
<trkpt lat="48.939510" lon="8.642040">
<ele>343.0</ele>
<speed>1.19</speed>
<course>177.2</course>
<desc>Speed 4.3 km/h Distance 5.40 km</desc>
<time>2010-10-24T11:26:38.01</time>
<name>3367</name>
</trkpt>
<trkpt lat="48.939493" lon="8.642042">
<ele>342.5</ele>
<speed>1.28</speed>
<course>161.8</course>
<desc>Speed 4.6 km/h Distance 5.41 km</desc>
<time>2010-10-24T11:26:39.01</time>
<name>3368</name>
</trkpt>
<trkpt lat="48.939483" lon="8.642047">
<ele>343.0</ele>
<speed>1.11</speed>
<course>185.3</course>
<desc>Speed 4.0 km/h Distance 5.41 km</desc>
<time>2010-10-24T11:26:40.01</time>
<name>3369</name>
</trkpt>
<trkpt lat="48.939470" lon="8.642045">
<ele>342.5</ele>
<speed>1.37</speed>
<course>165.1</course>
<desc>Speed 4.9 km/h Distance 5.41 km</desc>
<time>2010-10-24T11:26:41.01</time>
<name>3370</name>
</trkpt>
<trkpt lat="48.939462" lon="8.642048">
<ele>342.5</ele>
<speed>0.87</speed>
<course>161.9</course>
<desc>Speed 3.1 km/h Distance 5.41 km</desc>
<time>2010-10-24T11:26:42.01</time>
<name>3371</name>
</trkpt>
<trkpt lat="48.939448" lon="8.642055">
<ele>342.5</ele>
<speed>1.12</speed>
<course>166.0</course>
<desc>Speed 4.0 km/h Distance 5.41 km</desc>
<time>2010-10-24T11:26:43.01</time>
<name>3372</name>
</trkpt>
<trkpt lat="48.939435" lon="8.642060">
<ele>342.0</ele>
<speed>1.42</speed>
<course>171.9</course>
<desc>Speed 5.1 km/h Distance 5.41 km</desc>
<time>2010-10-24T11:26:44.01</time>
<name>3373</name>
</trkpt>
<trkpt lat="48.939420" lon="8.642063">
<ele>342.0</ele>
<speed>1.44</speed>
<course>156.3</course>
<desc>Speed 5.2 km/h Distance 5.41 km</desc>
<time>2010-10-24T11:26:45.01</time>
<name>3374</name>
</trkpt>
<trkpt lat="48.939405" lon="8.642073">
<ele>343.0</ele>
<speed>1.50</speed>
<course>164.5</course>
<desc>Speed 5.4 km/h Distance 5.42 km</desc>
<time>2010-10-24T11:26:46.01</time>
<name>3375</name>
</trkpt>
<trkpt lat="48.939393" lon="8.642078">
<ele>343.0</ele>
<speed>1.25</speed>
<course>149.6</course>
<desc>Speed 4.5 km/h Distance 5.42 km</desc>
<time>2010-10-24T11:26:47.01</time>
<name>3376</name>
</trkpt>
<trkpt lat="48.939378" lon="8.642092">
<ele>344.0</ele>
<speed>1.50</speed>
<course>155.3</course>
<desc>Speed 5.4 km/h Distance 5.42 km</desc>
<time>2010-10-24T11:26:48.01</time>
<name>3377</name>
</trkpt>
<trkpt lat="48.939362" lon="8.642103">
<ele>344.5</ele>
<speed>1.57</speed>
<course>150.6</course>
<desc>Speed 5.7 km/h Distance 5.42 km</desc>
<time>2010-10-24T11:26:49.01</time>
<name>3378</name>
</trkpt>
<trkpt lat="48.939350" lon="8.642113">
<ele>345.5</ele>
<speed>1.15</speed>
<course>169.2</course>
<desc>Speed 4.1 km/h Distance 5.42 km</desc>
<time>2010-10-24T11:26:50.01</time>
<name>3379</name>
</trkpt>
<trkpt lat="48.939333" lon="8.642118">
<ele>345.5</ele>
<speed>1.35</speed>
<course>149.7</course>
<desc>Speed 4.9 km/h Distance 5.42 km</desc>
<time>2010-10-24T11:26:51.01</time>
<name>3380</name>
</trkpt>
<trkpt lat="48.939318" lon="8.642132">
<ele>346.5</ele>
<speed>1.64</speed>
<course>165.1</course>
<desc>Speed 5.9 km/h Distance 5.43 km</desc>
<time>2010-10-24T11:26:52.01</time>
<name>3381</name>
</trkpt>
<trkpt lat="48.939302" lon="8.642138">
<ele>346.5</ele>
<speed>1.38</speed>
<course>165.1</course>
<desc>Speed 5.0 km/h Distance 5.43 km</desc>
<time>2010-10-24T11:26:53.01</time>
<name>3382</name>
</trkpt>
<trkpt lat="48.939285" lon="8.642145">
<ele>347.5</ele>
<speed>1.51</speed>
<course>168.8</course>
<desc>Speed 5.4 km/h Distance 5.43 km</desc>
<time>2010-10-24T11:26:54.01</time>
<name>3383</name>
</trkpt>
<trkpt lat="48.939268" lon="8.642150">
<ele>348.0</ele>
<speed>1.35</speed>
<course>167.4</course>
<desc>Speed 4.9 km/h Distance 5.43 km</desc>
<time>2010-10-24T11:26:55.01</time>
<name>3384</name>
</trkpt>
<trkpt lat="48.939253" lon="8.642155">
<ele>348.5</ele>
<speed>1.36</speed>
<course>176.3</course>
<desc>Speed 4.9 km/h Distance 5.43 km</desc>
<time>2010-10-24T11:26:56.01</time>
<name>3385</name>
</trkpt>
<trkpt lat="48.939235" lon="8.642157">
<ele>348.5</ele>
<speed>1.50</speed>
<course>168.8</course>
<desc>Speed 5.4 km/h Distance 5.44 km</desc>
<time>2010-10-24T11:26:57.01</time>
<name>3386</name>
</trkpt>
<trkpt lat="48.939218" lon="8.642162">
<ele>349.0</ele>
<speed>1.50</speed>
<course>165.1</course>
<desc>Speed 5.4 km/h Distance 5.44 km</desc>
<time>2010-10-24T11:26:58.01</time>
<name>3387</name>
</trkpt>
<trkpt lat="48.939202" lon="8.642168">
<ele>349.5</ele>
<speed>1.40</speed>
<course>172.3</course>
<desc>Speed 5.0 km/h Distance 5.44 km</desc>
<time>2010-10-24T11:26:59.01</time>
<name>3388</name>
</trkpt>
<trkpt lat="48.939185" lon="8.642172">
<ele>349.5</ele>
<speed>1.47</speed>
<course>180.0</course>
<desc>Speed 5.3 km/h Distance 5.44 km</desc>
<time>2010-10-24T11:27:00.00</time>
<name>3389</name>
</trkpt>
<trkpt lat="48.939170" lon="8.642172">
<ele>349.5</ele>
<speed>1.30</speed>
<course>167.4</course>
<desc>Speed 4.7 km/h Distance 5.44 km</desc>
<time>2010-10-24T11:27:01.00</time>
<name>3390</name>
</trkpt>
<trkpt lat="48.939155" lon="8.642177">
<ele>350.0</ele>
<speed>1.37</speed>
<course>172.5</course>
<desc>Speed 4.9 km/h Distance 5.44 km</desc>
<time>2010-10-24T11:27:02.00</time>
<name>3391</name>
</trkpt>
<trkpt lat="48.939140" lon="8.642180">
<ele>350.0</ele>
<speed>1.38</speed>
<course>166.5</course>
<desc>Speed 5.0 km/h Distance 5.45 km</desc>
<time>2010-10-24T11:27:03.00</time>
<name>3392</name>
</trkpt>
<trkpt lat="48.939127" lon="8.642185">
<ele>350.0</ele>
<speed>1.52</speed>
<course>172.3</course>
<desc>Speed 5.5 km/h Distance 5.45 km</desc>
<time>2010-10-24T11:27:04.00</time>
<name>3393</name>
</trkpt>
<trkpt lat="48.939110" lon="8.642188">
<ele>350.0</ele>
<speed>1.62</speed>
<course>169.2</course>
<desc>Speed 5.8 km/h Distance 5.45 km</desc>
<time>2010-10-24T11:27:05.00</time>
<name>3394</name>
</trkpt>
<trkpt lat="48.939093" lon="8.642193">
<ele>350.0</ele>
<speed>1.58</speed>
<course>168.8</course>
<desc>Speed 5.7 km/h Distance 5.45 km</desc>
<time>2010-10-24T11:27:06.00</time>
<name>3395</name>
</trkpt>
<trkpt lat="48.939077" lon="8.642198">
<ele>350.0</ele>
<speed>1.50</speed>
<course>165.1</course>
<desc>Speed 5.4 km/h Distance 5.45 km</desc>
<time>2010-10-24T11:27:07.00</time>
<name>3396</name>
</trkpt>
<trkpt lat="48.939060" lon="8.642205">
<ele>350.0</ele>
<speed>1.69</speed>
<course>175.0</course>
<desc>Speed 6.1 km/h Distance 5.46 km</desc>
<time>2010-10-24T11:27:08.00</time>
<name>3397</name>
</trkpt>
<trkpt lat="48.939045" lon="8.642207">
<ele>350.0</ele>
<speed>1.45</speed>
<course>171.2</course>
<desc>Speed 5.2 km/h Distance 5.46 km</desc>
<time>2010-10-24T11:27:09.00</time>
<name>3398</name>
</trkpt>
<trkpt lat="48.939030" lon="8.642210">
<ele>350.5</ele>
<speed>1.52</speed>
<course>171.0</course>
<desc>Speed 5.5 km/h Distance 5.46 km</desc>
<time>2010-10-24T11:27:10.00</time>
<name>3399</name>
</trkpt>
<trkpt lat="48.939017" lon="8.642213">
<ele>351.0</ele>
<speed>1.30</speed>
<course>167.8</course>
<desc>Speed 4.7 km/h Distance 5.46 km</desc>
<time>2010-10-24T11:27:11.00</time>
<name>3400</name>
</trkpt>
<trkpt lat="48.939002" lon="8.642218">
<ele>351.0</ele>
<speed>1.40</speed>
<course>176.1</course>
<desc>Speed 5.0 km/h Distance 5.46 km</desc>
<time>2010-10-24T11:27:12.00</time>
<name>3401</name>
</trkpt>
<trkpt lat="48.938988" lon="8.642220">
<ele>351.0</ele>
<speed>1.25</speed>
<course>177.2</course>
<desc>Speed 4.5 km/h Distance 5.46 km</desc>
<time>2010-10-24T11:27:13.00</time>
<name>3402</name>
</trkpt>
<trkpt lat="48.938972" lon="8.642222">
<ele>350.5</ele>
<speed>1.49</speed>
<course>168.3</course>
<desc>Speed 5.4 km/h Distance 5.47 km</desc>
<time>2010-10-24T11:27:14.00</time>
<name>3403</name>
</trkpt>
<trkpt lat="48.938957" lon="8.642227">
<ele>351.0</ele>
<speed>1.46</speed>
<course>174.7</course>
<desc>Speed 5.3 km/h Distance 5.47 km</desc>
<time>2010-10-24T11:27:15.00</time>
<name>3404</name>
</trkpt>
<trkpt lat="48.938943" lon="8.642228">
<ele>351.0</ele>
<speed>1.33</speed>
<course>176.2</course>
<desc>Speed 4.8 km/h Distance 5.47 km</desc>
<time>2010-10-24T11:27:16.00</time>
<name>3405</name>
</trkpt>
<trkpt lat="48.938928" lon="8.642230">
<ele>351.5</ele>
<speed>1.37</speed>
<course>176.2</course>
<desc>Speed 4.9 km/h Distance 5.47 km</desc>
<time>2010-10-24T11:27:17.00</time>
<name>3406</name>
</trkpt>
<trkpt lat="48.938913" lon="8.642232">
<ele>352.0</ele>
<speed>1.54</speed>
<course>180.0</course>
<desc>Speed 5.5 km/h Distance 5.47 km</desc>
<time>2010-10-24T11:27:18.00</time>
<name>3407</name>
</trkpt>
<trkpt lat="48.938898" lon="8.642232">
<ele>352.0</ele>
<speed>1.50</speed>
<course>177.2</course>
<desc>Speed 5.4 km/h Distance 5.47 km</desc>
<time>2010-10-24T11:27:19.00</time>
<name>3408</name>
</trkpt>
<trkpt lat="48.938882" lon="8.642232">
<ele>352.0</ele>
<speed>1.46</speed>
<course>185.0</course>
<desc>Speed 5.3 km/h Distance 5.48 km</desc>
<time>2010-10-24T11:27:20.00</time>
<name>3409</name>
</trkpt>
<trkpt lat="48.938865" lon="8.642230">
<ele>352.5</ele>
<speed>1.75</speed>
<course>177.2</course>
<desc>Speed 6.3 km/h Distance 5.48 km</desc>
<time>2010-10-24T11:27:21.00</time>
<name>3410</name>
</trkpt>
<trkpt lat="48.938848" lon="8.642230">
<ele>352.5</ele>
<speed>1.57</speed>
<course>183.8</course>
<desc>Speed 5.7 km/h Distance 5.48 km</desc>
<time>2010-10-24T11:27:22.00</time>
<name>3411</name>
</trkpt>
<trkpt lat="48.938833" lon="8.642228">
<ele>353.0</ele>
<speed>1.37</speed>
<course>185.3</course>
<desc>Speed 4.9 km/h Distance 5.48 km</desc>
<time>2010-10-24T11:27:23.00</time>
<name>3412</name>
</trkpt>
<trkpt lat="48.938820" lon="8.642227">
<ele>353.0</ele>
<speed>1.34</speed>
<course>183.8</course>
<desc>Speed 4.8 km/h Distance 5.48 km</desc>
<time>2010-10-24T11:27:24.00</time>
<name>3413</name>
</trkpt>
<trkpt lat="48.938805" lon="8.642225">
<ele>353.5</ele>
<speed>1.40</speed>
<course>191.2</course>
<desc>Speed 5.0 km/h Distance 5.48 km</desc>
<time>2010-10-24T11:27:25.00</time>
<name>3414</name>
</trkpt>
<trkpt lat="48.938788" lon="8.642220">
<ele>353.5</ele>
<speed>1.55</speed>
<course>187.7</course>
<desc>Speed 5.6 km/h Distance 5.49 km</desc>
<time>2010-10-24T11:27:26.00</time>
<name>3415</name>
</trkpt>
<trkpt lat="48.938772" lon="8.642217">
<ele>353.5</ele>
<speed>1.50</speed>
<course>189.0</course>
<desc>Speed 5.4 km/h Distance 5.49 km</desc>
<time>2010-10-24T11:27:27.00</time>
<name>3416</name>
</trkpt>
<trkpt lat="48.938758" lon="8.642213">
<ele>353.5</ele>
<speed>1.38</speed>
<course>190.8</course>
<desc>Speed 5.0 km/h Distance 5.49 km</desc>
<time>2010-10-24T11:27:28.00</time>
<name>3417</name>
</trkpt>
<trkpt lat="48.938742" lon="8.642208">
<ele>354.0</ele>
<speed>1.55</speed>
<course>190.8</course>
<desc>Speed 5.6 km/h Distance 5.49 km</desc>
<time>2010-10-24T11:27:29.00</time>
<name>3418</name>
</trkpt>
<trkpt lat="48.938725" lon="8.642203">
<ele>353.5</ele>
<speed>1.48</speed>
<course>192.6</course>
<desc>Speed 5.3 km/h Distance 5.49 km</desc>
<time>2010-10-24T11:27:30.00</time>
<name>3419</name>
</trkpt>
<trkpt lat="48.938710" lon="8.642198">
<ele>354.0</ele>
<speed>1.44</speed>
<course>189.0</course>
<desc>Speed 5.2 km/h Distance 5.49 km</desc>
<time>2010-10-24T11:27:31.00</time>
<name>3420</name>
</trkpt>
<trkpt lat="48.938697" lon="8.642195">
<ele>354.5</ele>
<speed>1.48</speed>
<course>188.1</course>
<desc>Speed 5.3 km/h Distance 5.50 km</desc>
<time>2010-10-24T11:27:32.00</time>
<name>3421</name>
</trkpt>
<trkpt lat="48.938682" lon="8.642192">
<ele>354.5</ele>
<speed>1.44</speed>
<course>196.0</course>
<desc>Speed 5.2 km/h Distance 5.50 km</desc>
<time>2010-10-24T11:27:33.00</time>
<name>3422</name>
</trkpt>
<trkpt lat="48.938670" lon="8.642187">
<ele>355.0</ele>
<speed>1.29</speed>
<course>196.6</course>
<desc>Speed 4.6 km/h Distance 5.50 km</desc>
<time>2010-10-24T11:27:34.00</time>
<name>3423</name>
</trkpt>
<trkpt lat="48.938655" lon="8.642180">
<ele>355.0</ele>
<speed>1.67</speed>
<course>194.9</course>
<desc>Speed 6.0 km/h Distance 5.50 km</desc>
<time>2010-10-24T11:27:35.00</time>
<name>3424</name>
</trkpt>
<trkpt lat="48.938638" lon="8.642173">
<ele>355.0</ele>
<speed>1.64</speed>
<course>192.6</course>
<desc>Speed 5.9 km/h Distance 5.50 km</desc>
<time>2010-10-24T11:27:36.00</time>
<name>3425</name>
</trkpt>
<trkpt lat="48.938623" lon="8.642168">
<ele>354.5</ele>
<speed>1.62</speed>
<course>200.9</course>
<desc>Speed 5.8 km/h Distance 5.50 km</desc>
<time>2010-10-24T11:27:37.00</time>
<name>3426</name>
</trkpt>
<trkpt lat="48.938612" lon="8.642162">
<ele>354.5</ele>
<speed>1.34</speed>
<course>198.1</course>
<desc>Speed 4.8 km/h Distance 5.51 km</desc>
<time>2010-10-24T11:27:38.00</time>
<name>3427</name>
</trkpt>
<trkpt lat="48.938598" lon="8.642155">
<ele>354.5</ele>
<speed>1.44</speed>
<course>191.2</course>
<desc>Speed 5.2 km/h Distance 5.51 km</desc>
<time>2010-10-24T11:27:39.00</time>
<name>3428</name>
</trkpt>
<trkpt lat="48.938582" lon="8.642150">
<ele>354.0</ele>
<speed>1.72</speed>
<course>187.5</course>
<desc>Speed 6.2 km/h Distance 5.51 km</desc>
<time>2010-10-24T11:27:40.00</time>
<name>3429</name>
</trkpt>
<trkpt lat="48.938567" lon="8.642147">
<ele>354.5</ele>
<speed>1.58</speed>
<course>175.0</course>
<desc>Speed 5.7 km/h Distance 5.51 km</desc>
<time>2010-10-24T11:27:41.00</time>
<name>3430</name>
</trkpt>
<trkpt lat="48.938558" lon="8.642148">
<ele>355.0</ele>
<speed>0.83</speed>
<course>192.6</course>
<desc>Speed 3.0 km/h Distance 5.51 km</desc>
<time>2010-10-24T11:27:42.00</time>
<name>3431</name>
</trkpt>
<trkpt lat="48.938548" lon="8.642145">
<ele>355.0</ele>
<speed>0.93</speed>
<course>201.5</course>
<desc>Speed 3.3 km/h Distance 5.51 km</desc>
<time>2010-10-24T11:27:43.00</time>
<name>3432</name>
</trkpt>
<trkpt lat="48.938540" lon="8.642140">
<ele>354.5</ele>
<speed>0.95</speed>
<course>200.9</course>
<desc>Speed 3.4 km/h Distance 5.51 km</desc>
<time>2010-10-24T11:27:44.00</time>
<name>3433</name>
</trkpt>
<trkpt lat="48.938528" lon="8.642133">
<ele>354.5</ele>
<speed>1.26</speed>
<course>200.9</course>
<desc>Speed 4.5 km/h Distance 5.52 km</desc>
<time>2010-10-24T11:27:45.00</time>
<name>3434</name>
</trkpt>
<trkpt lat="48.938517" lon="8.642127">
<ele>355.0</ele>
<speed>1.27</speed>
<course>195.5</course>
<desc>Speed 4.6 km/h Distance 5.52 km</desc>
<time>2010-10-24T11:27:46.00</time>
<name>3435</name>
</trkpt>
<trkpt lat="48.938505" lon="8.642122">
<ele>355.0</ele>
<speed>1.32</speed>
<course>209.8</course>
<desc>Speed 4.8 km/h Distance 5.52 km</desc>
<time>2010-10-24T11:27:47.00</time>
<name>3436</name>
</trkpt>
<trkpt lat="48.938492" lon="8.642110">
<ele>355.0</ele>
<speed>1.37</speed>
<course>209.2</course>
<desc>Speed 4.9 km/h Distance 5.52 km</desc>
<time>2010-10-24T11:27:48.00</time>
<name>3437</name>
</trkpt>
<trkpt lat="48.938480" lon="8.642100">
<ele>355.0</ele>
<speed>1.47</speed>
<course>206.0</course>
<desc>Speed 5.3 km/h Distance 5.52 km</desc>
<time>2010-10-24T11:27:49.00</time>
<name>3438</name>
</trkpt>
<trkpt lat="48.938467" lon="8.642090">
<ele>355.0</ele>
<speed>1.40</speed>
<course>202.1</course>
<desc>Speed 5.0 km/h Distance 5.52 km</desc>
<time>2010-10-24T11:27:50.00</time>
<name>3439</name>
</trkpt>
<trkpt lat="48.938453" lon="8.642082">
<ele>355.5</ele>
<speed>1.29</speed>
<course>196.3</course>
<desc>Speed 4.6 km/h Distance 5.52 km</desc>
<time>2010-10-24T11:27:50.99</time>
<name>3440</name>
</trkpt>
<trkpt lat="48.938438" lon="8.642075">
<ele>355.5</ele>
<speed>1.50</speed>
<course>196.0</course>
<desc>Speed 5.4 km/h Distance 5.53 km</desc>
<time>2010-10-24T11:27:51.99</time>
<name>3441</name>
</trkpt>
<trkpt lat="48.938423" lon="8.642068">
<ele>355.5</ele>
<speed>1.63</speed>
<course>202.1</course>
<desc>Speed 5.9 km/h Distance 5.53 km</desc>
<time>2010-10-24T11:27:52.99</time>
<name>3442</name>
</trkpt>
<trkpt lat="48.938410" lon="8.642060">
<ele>355.0</ele>
<speed>1.55</speed>
<course>199.9</course>
<desc>Speed 5.6 km/h Distance 5.53 km</desc>
<time>2010-10-24T11:27:53.99</time>
<name>3443</name>
</trkpt>
<trkpt lat="48.938395" lon="8.642052">
<ele>355.0</ele>
<speed>1.62</speed>
<course>194.6</course>
<desc>Speed 5.8 km/h Distance 5.53 km</desc>
<time>2010-10-24T11:27:54.99</time>
<name>3444</name>
</trkpt>
<trkpt lat="48.938378" lon="8.642045">
<ele>355.0</ele>
<speed>1.75</speed>
<course>196.0</course>
<desc>Speed 6.3 km/h Distance 5.53 km</desc>
<time>2010-10-24T11:27:55.99</time>
<name>3445</name>
</trkpt>
<trkpt lat="48.938363" lon="8.642038">
<ele>355.5</ele>
<speed>1.62</speed>
<course>199.9</course>
<desc>Speed 5.8 km/h Distance 5.54 km</desc>
<time>2010-10-24T11:27:56.99</time>
<name>3446</name>
</trkpt>
<trkpt lat="48.938348" lon="8.642030">
<ele>355.5</ele>
<speed>1.53</speed>
<course>199.9</course>
<desc>Speed 5.5 km/h Distance 5.54 km</desc>
<time>2010-10-24T11:27:57.99</time>
<name>3447</name>
</trkpt>
<trkpt lat="48.938333" lon="8.642022">
<ele>355.5</ele>
<speed>1.57</speed>
<course>200.1</course>
<desc>Speed 5.7 km/h Distance 5.54 km</desc>
<time>2010-10-24T11:27:58.99</time>
<name>3448</name>
</trkpt>
<trkpt lat="48.938318" lon="8.642013">
<ele>355.5</ele>
<speed>1.58</speed>
<course>196.3</course>
<desc>Speed 5.7 km/h Distance 5.54 km</desc>
<time>2010-10-24T11:27:59.98</time>
<name>3449</name>
</trkpt>
<trkpt lat="48.938303" lon="8.642007">
<ele>356.0</ele>
<speed>1.60</speed>
<course>194.9</course>
<desc>Speed 5.8 km/h Distance 5.54 km</desc>
<time>2010-10-24T11:28:00.98</time>
<name>3450</name>
</trkpt>
<trkpt lat="48.938287" lon="8.642000">
<ele>356.0</ele>
<speed>1.62</speed>
<course>203.8</course>
<desc>Speed 5.8 km/h Distance 5.54 km</desc>
<time>2010-10-24T11:28:01.98</time>
<name>3451</name>
</trkpt>
<trkpt lat="48.938272" lon="8.641990">
<ele>356.0</ele>
<speed>1.57</speed>
<course>203.7</course>
<desc>Speed 5.7 km/h Distance 5.55 km</desc>
<time>2010-10-24T11:28:02.98</time>
<name>3452</name>
</trkpt>
<trkpt lat="48.938257" lon="8.641980">
<ele>356.0</ele>
<speed>1.62</speed>
<course>206.0</course>
<desc>Speed 5.8 km/h Distance 5.55 km</desc>
<time>2010-10-24T11:28:03.98</time>
<name>3453</name>
</trkpt>
<trkpt lat="48.938243" lon="8.641970">
<ele>356.0</ele>
<speed>1.52</speed>
<course>200.1</course>
<desc>Speed 5.5 km/h Distance 5.55 km</desc>
<time>2010-10-24T11:28:04.98</time>
<name>3454</name>
</trkpt>
<trkpt lat="48.938228" lon="8.641962">
<ele>356.0</ele>
<speed>1.59</speed>
<course>196.6</course>
<desc>Speed 5.7 km/h Distance 5.55 km</desc>
<time>2010-10-24T11:28:05.98</time>
<name>3455</name>
</trkpt>
<trkpt lat="48.938213" lon="8.641955">
<ele>356.0</ele>
<speed>1.66</speed>
<course>202.6</course>
<desc>Speed 6.0 km/h Distance 5.55 km</desc>
<time>2010-10-24T11:28:06.98</time>
<name>3456</name>
</trkpt>
<trkpt lat="48.938200" lon="8.641947">
<ele>356.5</ele>
<speed>1.57</speed>
<course>200.1</course>
<desc>Speed 5.7 km/h Distance 5.55 km</desc>
<time>2010-10-24T11:28:07.98</time>
<name>3457</name>
</trkpt>
<trkpt lat="48.938185" lon="8.641938">
<ele>356.5</ele>
<speed>1.66</speed>
<course>203.7</course>
<desc>Speed 6.0 km/h Distance 5.56 km</desc>
<time>2010-10-24T11:28:08.98</time>
<name>3458</name>
</trkpt>
<trkpt lat="48.938170" lon="8.641928">
<ele>356.5</ele>
<speed>1.61</speed>
<course>207.8</course>
<desc>Speed 5.8 km/h Distance 5.56 km</desc>
<time>2010-10-24T11:28:09.98</time>
<name>3459</name>
</trkpt>
<trkpt lat="48.938153" lon="8.641915">
<ele>356.0</ele>
<speed>1.65</speed>
<course>196.6</course>
<desc>Speed 5.9 km/h Distance 5.56 km</desc>
<time>2010-10-24T11:28:10.98</time>
<name>3460</name>
</trkpt>
<trkpt lat="48.938135" lon="8.641907">
<ele>355.5</ele>
<speed>1.51</speed>
<course>204.7</course>
<desc>Speed 5.4 km/h Distance 5.56 km</desc>
<time>2010-10-24T11:28:11.98</time>
<name>3461</name>
</trkpt>
<trkpt lat="48.938118" lon="8.641895">
<ele>355.0</ele>
<speed>1.50</speed>
<course>196.3</course>
<desc>Speed 5.4 km/h Distance 5.56 km</desc>
<time>2010-10-24T11:28:12.98</time>
<name>3462</name>
</trkpt>
<trkpt lat="48.938103" lon="8.641888">
<ele>355.0</ele>
<speed>1.58</speed>
<course>198.1</course>
<desc>Speed 5.7 km/h Distance 5.57 km</desc>
<time>2010-10-24T11:28:13.98</time>
<name>3463</name>
</trkpt>
<trkpt lat="48.938090" lon="8.641882">
<ele>355.5</ele>
<speed>1.50</speed>
<course>191.7</course>
<desc>Speed 5.4 km/h Distance 5.57 km</desc>
<time>2010-10-24T11:28:14.98</time>
<name>3464</name>
</trkpt>
<trkpt lat="48.938075" lon="8.641877">
<ele>355.5</ele>
<speed>1.52</speed>
<course>202.1</course>
<desc>Speed 5.5 km/h Distance 5.57 km</desc>
<time>2010-10-24T11:28:15.98</time>
<name>3465</name>
</trkpt>
<trkpt lat="48.938062" lon="8.641868">
<ele>355.5</ele>
<speed>1.55</speed>
<course>196.6</course>
<desc>Speed 5.6 km/h Distance 5.57 km</desc>
<time>2010-10-24T11:28:16.98</time>
<name>3466</name>
</trkpt>
<trkpt lat="48.938047" lon="8.641862">
<ele>355.5</ele>
<speed>1.61</speed>
<course>193.5</course>
<desc>Speed 5.8 km/h Distance 5.57 km</desc>
<time>2010-10-24T11:28:17.98</time>
<name>3467</name>
</trkpt>
<trkpt lat="48.938033" lon="8.641857">
<ele>355.5</ele>
<speed>1.55</speed>
<course>196.6</course>
<desc>Speed 5.6 km/h Distance 5.57 km</desc>
<time>2010-10-24T11:28:18.98</time>
<name>3468</name>
</trkpt>
<trkpt lat="48.938018" lon="8.641850">
<ele>355.5</ele>
<speed>1.46</speed>
<course>192.2</course>
<desc>Speed 5.3 km/h Distance 5.58 km</desc>
<time>2010-10-24T11:28:19.98</time>
<name>3469</name>
</trkpt>
<trkpt lat="48.938003" lon="8.641845">
<ele>355.5</ele>
<speed>1.66</speed>
<course>188.8</course>
<desc>Speed 6.0 km/h Distance 5.58 km</desc>
<time>2010-10-24T11:28:20.98</time>
<name>3470</name>
</trkpt>
<trkpt lat="48.937988" lon="8.641842">
<ele>355.5</ele>
<speed>1.49</speed>
<course>191.2</course>
<desc>Speed 5.4 km/h Distance 5.58 km</desc>
<time>2010-10-24T11:28:21.98</time>
<name>3471</name>
</trkpt>
<trkpt lat="48.937972" lon="8.641837">
<ele>355.0</ele>
<speed>1.50</speed>
<course>196.3</course>
<desc>Speed 5.4 km/h Distance 5.58 km</desc>
<time>2010-10-24T11:28:22.98</time>
<name>3472</name>
</trkpt>
<trkpt lat="48.937957" lon="8.641830">
<ele>355.0</ele>
<speed>1.58</speed>
<course>198.1</course>
<desc>Speed 5.7 km/h Distance 5.58 km</desc>
<time>2010-10-24T11:28:23.98</time>
<name>3473</name>
</trkpt>
<trkpt lat="48.937943" lon="8.641823">
<ele>355.0</ele>
<speed>1.44</speed>
<course>193.5</course>
<desc>Speed 5.2 km/h Distance 5.58 km</desc>
<time>2010-10-24T11:28:24.98</time>
<name>3474</name>
</trkpt>
<trkpt lat="48.937930" lon="8.641818">
<ele>355.0</ele>
<speed>1.38</speed>
<course>183.9</course>
<desc>Speed 5.0 km/h Distance 5.59 km</desc>
<time>2010-10-24T11:28:25.98</time>
<name>3475</name>
</trkpt>
<trkpt lat="48.937917" lon="8.641817">
<ele>355.0</ele>
<speed>1.50</speed>
<course>183.8</course>
<desc>Speed 5.4 km/h Distance 5.59 km</desc>
<time>2010-10-24T11:28:26.98</time>
<name>3476</name>
</trkpt>
<trkpt lat="48.937902" lon="8.641815">
<ele>355.0</ele>
<speed>1.61</speed>
<course>180.0</course>
<desc>Speed 5.8 km/h Distance 5.59 km</desc>
<time>2010-10-24T11:28:27.98</time>
<name>3477</name>
</trkpt>
<trkpt lat="48.937887" lon="8.641815">
<ele>355.5</ele>
<speed>1.50</speed>
<course>178.8</course>
<desc>Speed 5.4 km/h Distance 5.59 km</desc>
<time>2010-10-24T11:28:28.98</time>
<name>3478</name>
</trkpt>
<trkpt lat="48.937873" lon="8.641815">
<ele>355.5</ele>
<speed>1.50</speed>
<course>189.0</course>
<desc>Speed 5.4 km/h Distance 5.59 km</desc>
<time>2010-10-24T11:28:29.98</time>
<name>3479</name>
</trkpt>
<trkpt lat="48.937860" lon="8.641812">
<ele>355.5</ele>
<speed>1.27</speed>
<course>183.8</course>
<desc>Speed 4.6 km/h Distance 5.59 km</desc>
<time>2010-10-24T11:28:30.98</time>
<name>3480</name>
</trkpt>
<trkpt lat="48.937845" lon="8.641810">
<ele>355.0</ele>
<speed>1.51</speed>
<course>180.0</course>
<desc>Speed 5.4 km/h Distance 5.60 km</desc>
<time>2010-10-24T11:28:31.98</time>
<name>3481</name>
</trkpt>
<trkpt lat="48.937832" lon="8.641810">
<ele>355.0</ele>
<speed>1.44</speed>
<course>175.3</course>
<desc>Speed 5.2 km/h Distance 5.60 km</desc>
<time>2010-10-24T11:28:32.98</time>
<name>3482</name>
</trkpt>
<trkpt lat="48.937820" lon="8.641812">
<ele>355.5</ele>
<speed>1.35</speed>
<course>180.0</course>
<desc>Speed 4.9 km/h Distance 5.60 km</desc>
<time>2010-10-24T11:28:33.98</time>
<name>3483</name>
</trkpt>
<trkpt lat="48.937805" lon="8.641812">
<ele>356.0</ele>
<speed>1.59</speed>
<course>178.8</course>
<desc>Speed 5.7 km/h Distance 5.60 km</desc>
<time>2010-10-24T11:28:34.98</time>
<name>3484</name>
</trkpt>
<trkpt lat="48.937792" lon="8.641813">
<ele>356.0</ele>
<speed>1.44</speed>
<course>169.6</course>
<desc>Speed 5.2 km/h Distance 5.60 km</desc>
<time>2010-10-24T11:28:35.98</time>
<name>3485</name>
</trkpt>
<trkpt lat="48.937780" lon="8.641817">
<ele>356.5</ele>
<speed>1.46</speed>
<course>108.7</course>
<desc>Speed 5.3 km/h Distance 5.60 km</desc>
<time>2010-10-24T11:28:36.98</time>
<name>3486</name>
</trkpt>
<trkpt lat="48.937777" lon="8.641832">
<ele>358.0</ele>
<speed>1.21</speed>
<course>193.5</course>
<desc>Speed 4.4 km/h Distance 5.60 km</desc>
<time>2010-10-24T11:28:37.98</time>
<name>3487</name>
</trkpt>
<trkpt lat="48.937763" lon="8.641827">
<ele>357.0</ele>
<speed>1.51</speed>
<course>168.3</course>
<desc>Speed 5.4 km/h Distance 5.61 km</desc>
<time>2010-10-24T11:28:38.98</time>
<name>3488</name>
</trkpt>
<trkpt lat="48.937748" lon="8.641832">
<ele>357.5</ele>
<speed>1.61</speed>
<course>166.5</course>
<desc>Speed 5.8 km/h Distance 5.61 km</desc>
<time>2010-10-24T11:28:39.98</time>
<name>3489</name>
</trkpt>
<trkpt lat="48.937735" lon="8.641837">
<ele>357.5</ele>
<speed>1.52</speed>
<course>171.2</course>
<desc>Speed 5.5 km/h Distance 5.61 km</desc>
<time>2010-10-24T11:28:40.98</time>
<name>3490</name>
</trkpt>
<trkpt lat="48.937720" lon="8.641840">
<ele>357.5</ele>
<speed>1.47</speed>
<course>166.5</course>
<desc>Speed 5.3 km/h Distance 5.61 km</desc>
<time>2010-10-24T11:28:41.98</time>
<name>3491</name>
</trkpt>
<trkpt lat="48.937707" lon="8.641845">
<ele>357.5</ele>
<speed>1.47</speed>
<course>170.3</course>
<desc>Speed 5.3 km/h Distance 5.61 km</desc>
<time>2010-10-24T11:28:42.98</time>
<name>3492</name>
</trkpt>
<trkpt lat="48.937693" lon="8.641848">
<ele>357.5</ele>
<speed>1.50</speed>
<course>166.5</course>
<desc>Speed 5.4 km/h Distance 5.61 km</desc>
<time>2010-10-24T11:28:43.98</time>
<name>3493</name>
</trkpt>
<trkpt lat="48.937680" lon="8.641853">
<ele>358.0</ele>
<speed>1.55</speed>
<course>167.4</course>
<desc>Speed 5.6 km/h Distance 5.62 km</desc>
<time>2010-10-24T11:28:44.98</time>
<name>3494</name>
</trkpt>
<trkpt lat="48.937665" lon="8.641858">
<ele>358.0</ele>
<speed>1.50</speed>
<course>171.0</course>
<desc>Speed 5.4 km/h Distance 5.62 km</desc>
<time>2010-10-24T11:28:45.98</time>
<name>3495</name>
</trkpt>
<trkpt lat="48.937652" lon="8.641862">
<ele>357.5</ele>
<speed>1.53</speed>
<course>171.2</course>
<desc>Speed 5.5 km/h Distance 5.62 km</desc>
<time>2010-10-24T11:28:46.98</time>
<name>3496</name>
</trkpt>
<trkpt lat="48.937637" lon="8.641865">
<ele>357.5</ele>
<speed>1.48</speed>
<course>172.3</course>
<desc>Speed 5.3 km/h Distance 5.62 km</desc>
<time>2010-10-24T11:28:47.98</time>
<name>3497</name>
</trkpt>
<trkpt lat="48.937620" lon="8.641868">
<ele>357.5</ele>
<speed>1.58</speed>
<course>171.0</course>
<desc>Speed 5.7 km/h Distance 5.62 km</desc>
<time>2010-10-24T11:28:48.98</time>
<name>3498</name>
</trkpt>
<trkpt lat="48.937607" lon="8.641872">
<ele>357.5</ele>
<speed>1.40</speed>
<course>166.5</course>
<desc>Speed 5.0 km/h Distance 5.62 km</desc>
<time>2010-10-24T11:28:49.98</time>
<name>3499</name>
</trkpt>
<trkpt lat="48.937593" lon="8.641877">
<ele>357.5</ele>
<speed>1.41</speed>
<course>171.0</course>
<desc>Speed 5.1 km/h Distance 5.62 km</desc>
<time>2010-10-24T11:28:50.98</time>
<name>3500</name>
</trkpt>
<trkpt lat="48.937580" lon="8.641880">
<ele>357.5</ele>
<speed>1.62</speed>
<course>167.4</course>
<desc>Speed 5.8 km/h Distance 5.63 km</desc>
<time>2010-10-24T11:28:51.98</time>
<name>3501</name>
</trkpt>
<trkpt lat="48.937565" lon="8.641885">
<ele>357.5</ele>
<speed>1.54</speed>
<course>169.6</course>
<desc>Speed 5.5 km/h Distance 5.63 km</desc>
<time>2010-10-24T11:28:52.98</time>
<name>3502</name>
</trkpt>
<trkpt lat="48.937553" lon="8.641888">
<ele>358.0</ele>
<speed>1.48</speed>
<course>176.2</course>
<desc>Speed 5.3 km/h Distance 5.63 km</desc>
<time>2010-10-24T11:28:53.98</time>
<name>3503</name>
</trkpt>
<trkpt lat="48.937538" lon="8.641890">
<ele>358.0</ele>
<speed>1.49</speed>
<course>144.0</course>
<desc>Speed 5.4 km/h Distance 5.63 km</desc>
<time>2010-10-24T11:28:54.98</time>
<name>3504</name>
</trkpt>
<trkpt lat="48.937523" lon="8.641907">
<ele>359.5</ele>
<speed>2.11</speed>
<course>174.7</course>
<desc>Speed 7.6 km/h Distance 5.63 km</desc>
<time>2010-10-24T11:28:55.98</time>
<name>3505</name>
</trkpt>
<trkpt lat="48.937510" lon="8.641908">
<ele>359.5</ele>
<speed>1.51</speed>
<course>199.7</course>
<desc>Speed 5.4 km/h Distance 5.63 km</desc>
<time>2010-10-24T11:28:56.98</time>
<name>3506</name>
</trkpt>
<trkpt lat="48.937492" lon="8.641898">
<ele>358.0</ele>
<speed>2.00</speed>
<course>213.3</course>
<desc>Speed 7.2 km/h Distance 5.64 km</desc>
<time>2010-10-24T11:28:57.98</time>
<name>3507</name>
</trkpt>
<trkpt lat="48.937477" lon="8.641883">
<ele>356.0</ele>
<speed>2.05</speed>
<course>142.5</course>
<desc>Speed 7.4 km/h Distance 5.64 km</desc>
<time>2010-10-24T11:28:58.98</time>
<name>3508</name>
</trkpt>
<trkpt lat="48.937467" lon="8.641895">
<ele>356.0</ele>
<speed>1.38</speed>
<course>171.0</course>
<desc>Speed 5.0 km/h Distance 5.64 km</desc>
<time>2010-10-24T11:28:59.97</time>
<name>3509</name>
</trkpt>
<trkpt lat="48.937453" lon="8.641898">
<ele>356.0</ele>
<speed>1.53</speed>
<course>171.0</course>
<desc>Speed 5.5 km/h Distance 5.64 km</desc>
<time>2010-10-24T11:29:00.97</time>
<name>3510</name>
</trkpt>
<trkpt lat="48.937440" lon="8.641902">
<ele>356.0</ele>
<speed>1.53</speed>
<course>176.2</course>
<desc>Speed 5.5 km/h Distance 5.64 km</desc>
<time>2010-10-24T11:29:01.97</time>
<name>3511</name>
</trkpt>
<trkpt lat="48.937425" lon="8.641903">
<ele>356.0</ele>
<speed>1.52</speed>
<course>176.1</course>
<desc>Speed 5.5 km/h Distance 5.64 km</desc>
<time>2010-10-24T11:29:02.97</time>
<name>3512</name>
</trkpt>
<trkpt lat="48.937412" lon="8.641905">
<ele>356.0</ele>
<speed>1.51</speed>
<course>168.8</course>
<desc>Speed 5.4 km/h Distance 5.65 km</desc>
<time>2010-10-24T11:29:03.97</time>
<name>3513</name>
</trkpt>
<trkpt lat="48.937400" lon="8.641908">
<ele>356.0</ele>
<speed>1.41</speed>
<course>178.1</course>
<desc>Speed 5.1 km/h Distance 5.65 km</desc>
<time>2010-10-24T11:29:04.97</time>
<name>3514</name>
</trkpt>
<trkpt lat="48.937385" lon="8.641908">
<ele>356.0</ele>
<speed>1.37</speed>
<course>174.7</course>
<desc>Speed 4.9 km/h Distance 5.65 km</desc>
<time>2010-10-24T11:29:05.97</time>
<name>3515</name>
</trkpt>
<trkpt lat="48.937372" lon="8.641910">
<ele>356.0</ele>
<speed>1.41</speed>
<course>166.0</course>
<desc>Speed 5.1 km/h Distance 5.65 km</desc>
<time>2010-10-24T11:29:06.97</time>
<name>3516</name>
</trkpt>
<trkpt lat="48.937358" lon="8.641915">
<ele>356.0</ele>
<speed>1.45</speed>
<course>164.0</course>
<desc>Speed 5.2 km/h Distance 5.65 km</desc>
<time>2010-10-24T11:29:07.97</time>
<name>3517</name>
</trkpt>
<trkpt lat="48.937347" lon="8.641920">
<ele>356.5</ele>
<speed>1.40</speed>
<course>168.8</course>
<desc>Speed 5.0 km/h Distance 5.65 km</desc>
<time>2010-10-24T11:29:08.97</time>
<name>3518</name>
</trkpt>
<trkpt lat="48.937335" lon="8.641923">
<ele>356.5</ele>
<speed>1.46</speed>
<course>171.0</course>
<desc>Speed 5.3 km/h Distance 5.66 km</desc>
<time>2010-10-24T11:29:09.97</time>
<name>3519</name>
</trkpt>
<trkpt lat="48.937322" lon="8.641927">
<ele>357.0</ele>
<speed>1.37</speed>
<course>161.9</course>
<desc>Speed 4.9 km/h Distance 5.66 km</desc>
<time>2010-10-24T11:29:10.97</time>
<name>3520</name>
</trkpt>
<trkpt lat="48.937308" lon="8.641933">
<ele>357.0</ele>
<speed>1.48</speed>
<course>159.1</course>
<desc>Speed 5.3 km/h Distance 5.66 km</desc>
<time>2010-10-24T11:29:11.97</time>
<name>3521</name>
</trkpt>
<trkpt lat="48.937297" lon="8.641940">
<ele>357.0</ele>
<speed>1.47</speed>
<course>161.2</course>
<desc>Speed 5.3 km/h Distance 5.66 km</desc>
<time>2010-10-24T11:29:12.97</time>
<name>3522</name>
</trkpt>
<trkpt lat="48.937283" lon="8.641947">
<ele>357.5</ele>
<speed>1.54</speed>
<course>166.5</course>
<desc>Speed 5.5 km/h Distance 5.66 km</desc>
<time>2010-10-24T11:29:13.97</time>
<name>3523</name>
</trkpt>
<trkpt lat="48.937270" lon="8.641952">
<ele>357.5</ele>
<speed>1.52</speed>
<course>161.6</course>
<desc>Speed 5.5 km/h Distance 5.66 km</desc>
<time>2010-10-24T11:29:14.97</time>
<name>3524</name>
</trkpt>
<trkpt lat="48.937257" lon="8.641958">
<ele>357.5</ele>
<speed>1.50</speed>
<course>161.8</course>
<desc>Speed 5.4 km/h Distance 5.66 km</desc>
<time>2010-10-24T11:29:15.97</time>
<name>3525</name>
</trkpt>
<trkpt lat="48.937247" lon="8.641963">
<ele>358.0</ele>
<speed>1.35</speed>
<course>164.0</course>
<desc>Speed 4.9 km/h Distance 5.67 km</desc>
<time>2010-10-24T11:29:16.97</time>
<name>3526</name>
</trkpt>
<trkpt lat="48.937235" lon="8.641968">
<ele>358.0</ele>
<speed>1.42</speed>
<course>164.0</course>
<desc>Speed 5.1 km/h Distance 5.67 km</desc>
<time>2010-10-24T11:29:17.97</time>
<name>3527</name>
</trkpt>
<trkpt lat="48.937223" lon="8.641973">
<ele>358.0</ele>
<speed>1.36</speed>
<course>161.9</course>
<desc>Speed 4.9 km/h Distance 5.67 km</desc>
<time>2010-10-24T11:29:18.97</time>
<name>3528</name>
</trkpt>
<trkpt lat="48.937210" lon="8.641980">
<ele>358.0</ele>
<speed>1.48</speed>
<course>161.8</course>
<desc>Speed 5.3 km/h Distance 5.67 km</desc>
<time>2010-10-24T11:29:19.97</time>
<name>3529</name>
</trkpt>
<trkpt lat="48.937200" lon="8.641985">
<ele>358.5</ele>
<speed>1.38</speed>
<course>166.5</course>
<desc>Speed 5.0 km/h Distance 5.67 km</desc>
<time>2010-10-24T11:29:20.97</time>
<name>3530</name>
</trkpt>
<trkpt lat="48.937187" lon="8.641990">
<ele>358.5</ele>
<speed>1.40</speed>
<course>164.0</course>
<desc>Speed 5.0 km/h Distance 5.67 km</desc>
<time>2010-10-24T11:29:21.97</time>
<name>3531</name>
</trkpt>
<trkpt lat="48.937175" lon="8.641995">
<ele>358.5</ele>
<speed>1.44</speed>
<course>171.0</course>
<desc>Speed 5.2 km/h Distance 5.67 km</desc>
<time>2010-10-24T11:29:22.97</time>
<name>3532</name>
</trkpt>
<trkpt lat="48.937162" lon="8.641998">
<ele>358.5</ele>
<speed>1.38</speed>
<course>164.5</course>
<desc>Speed 5.0 km/h Distance 5.68 km</desc>
<time>2010-10-24T11:29:23.97</time>
<name>3533</name>
</trkpt>
<trkpt lat="48.937150" lon="8.642003">
<ele>358.5</ele>
<speed>1.46</speed>
<course>178.8</course>
<desc>Speed 5.3 km/h Distance 5.68 km</desc>
<time>2010-10-24T11:29:24.97</time>
<name>3534</name>
</trkpt>
<trkpt lat="48.937137" lon="8.642005">
<ele>358.0</ele>
<speed>1.58</speed>
<course>166.9</course>
<desc>Speed 5.7 km/h Distance 5.68 km</desc>
<time>2010-10-24T11:29:25.97</time>
<name>3535</name>
</trkpt>
<trkpt lat="48.937123" lon="8.642010">
<ele>358.5</ele>
<speed>1.37</speed>
<course>165.1</course>
<desc>Speed 4.9 km/h Distance 5.68 km</desc>
<time>2010-10-24T11:29:26.97</time>
<name>3536</name>
</trkpt>
<trkpt lat="48.937112" lon="8.642015">
<ele>358.5</ele>
<speed>1.46</speed>
<course>191.2</course>
<desc>Speed 5.3 km/h Distance 5.68 km</desc>
<time>2010-10-24T11:29:27.97</time>
<name>3537</name>
</trkpt>
<trkpt lat="48.937095" lon="8.642010">
<ele>357.0</ele>
<speed>1.98</speed>
<course>167.4</course>
<desc>Speed 7.1 km/h Distance 5.68 km</desc>
<time>2010-10-24T11:29:28.97</time>
<name>3538</name>
</trkpt>
<trkpt lat="48.937080" lon="8.642015">
<ele>357.0</ele>
<speed>1.62</speed>
<course>165.6</course>
<desc>Speed 5.8 km/h Distance 5.68 km</desc>
<time>2010-10-24T11:29:29.97</time>
<name>3539</name>
</trkpt>
<trkpt lat="48.937067" lon="8.642020">
<ele>357.0</ele>
<speed>1.50</speed>
<course>164.0</course>
<desc>Speed 5.4 km/h Distance 5.69 km</desc>
<time>2010-10-24T11:29:30.97</time>
<name>3540</name>
</trkpt>
<trkpt lat="48.937055" lon="8.642025">
<ele>357.5</ele>
<speed>1.40</speed>
<course>164.0</course>
<desc>Speed 5.0 km/h Distance 5.69 km</desc>
<time>2010-10-24T11:29:31.97</time>
<name>3541</name>
</trkpt>
<trkpt lat="48.937043" lon="8.642030">
<ele>357.5</ele>
<speed>1.50</speed>
<course>163.4</course>
<desc>Speed 5.4 km/h Distance 5.69 km</desc>
<time>2010-10-24T11:29:32.97</time>
<name>3542</name>
</trkpt>
<trkpt lat="48.937028" lon="8.642037">
<ele>357.5</ele>
<speed>1.64</speed>
<course>159.4</course>
<desc>Speed 5.9 km/h Distance 5.69 km</desc>
<time>2010-10-24T11:29:33.97</time>
<name>3543</name>
</trkpt>
<trkpt lat="48.937017" lon="8.642043">
<ele>358.0</ele>
<speed>1.46</speed>
<course>166.5</course>
<desc>Speed 5.3 km/h Distance 5.69 km</desc>
<time>2010-10-24T11:29:34.97</time>
<name>3544</name>
</trkpt>
<trkpt lat="48.937003" lon="8.642048">
<ele>358.0</ele>
<speed>1.50</speed>
<course>170.3</course>
<desc>Speed 5.4 km/h Distance 5.69 km</desc>
<time>2010-10-24T11:29:35.97</time>
<name>3545</name>
</trkpt>
<trkpt lat="48.936990" lon="8.642052">
<ele>358.0</ele>
<speed>1.37</speed>
<course>166.5</course>
<desc>Speed 4.9 km/h Distance 5.69 km</desc>
<time>2010-10-24T11:29:36.97</time>
<name>3546</name>
</trkpt>
<trkpt lat="48.936977" lon="8.642057">
<ele>358.5</ele>
<speed>1.49</speed>
<course>171.2</course>
<desc>Speed 5.4 km/h Distance 5.70 km</desc>
<time>2010-10-24T11:29:37.97</time>
<name>3547</name>
</trkpt>
<trkpt lat="48.936962" lon="8.642060">
<ele>358.0</ele>
<speed>1.53</speed>
<course>167.8</course>
<desc>Speed 5.5 km/h Distance 5.70 km</desc>
<time>2010-10-24T11:29:38.97</time>
<name>3548</name>
</trkpt>
<trkpt lat="48.936947" lon="8.642065">
<ele>358.5</ele>
<speed>1.75</speed>
<course>166.5</course>
<desc>Speed 6.3 km/h Distance 5.70 km</desc>
<time>2010-10-24T11:29:39.97</time>
<name>3549</name>
</trkpt>
<trkpt lat="48.936933" lon="8.642070">
<ele>358.5</ele>
<speed>1.33</speed>
<course>173.5</course>
<desc>Speed 4.8 km/h Distance 5.70 km</desc>
<time>2010-10-24T11:29:40.97</time>
<name>3550</name>
</trkpt>
<trkpt lat="48.936917" lon="8.642073">
<ele>358.0</ele>
<speed>1.70</speed>
<course>169.6</course>
<desc>Speed 6.1 km/h Distance 5.70 km</desc>
<time>2010-10-24T11:29:41.97</time>
<name>3551</name>
</trkpt>
<trkpt lat="48.936905" lon="8.642077">
<ele>357.5</ele>
<speed>1.34</speed>
<course>169.7</course>
<desc>Speed 4.8 km/h Distance 5.70 km</desc>
<time>2010-10-24T11:29:42.97</time>
<name>3552</name>
</trkpt>
<trkpt lat="48.936892" lon="8.642080">
<ele>357.0</ele>
<speed>1.47</speed>
<course>169.6</course>
<desc>Speed 5.3 km/h Distance 5.71 km</desc>
<time>2010-10-24T11:29:43.97</time>
<name>3553</name>
</trkpt>
<trkpt lat="48.936880" lon="8.642083">
<ele>357.0</ele>
<speed>1.39</speed>
<course>174.7</course>
<desc>Speed 5.0 km/h Distance 5.71 km</desc>
<time>2010-10-24T11:29:44.96</time>
<name>3554</name>
</trkpt>
<trkpt lat="48.936867" lon="8.642085">
<ele>356.5</ele>
<speed>1.34</speed>
<course>181.2</course>
<desc>Speed 4.8 km/h Distance 5.71 km</desc>
<time>2010-10-24T11:29:45.96</time>
<name>3555</name>
</trkpt>
<trkpt lat="48.936853" lon="8.642083">
<ele>356.0</ele>
<speed>1.44</speed>
<course>180.0</course>
<desc>Speed 5.2 km/h Distance 5.71 km</desc>
<time>2010-10-24T11:29:46.96</time>
<name>3556</name>
</trkpt>
<trkpt lat="48.936843" lon="8.642083">
<ele>356.0</ele>
<speed>1.21</speed>
<course>185.0</course>
<desc>Speed 4.4 km/h Distance 5.71 km</desc>
<time>2010-10-24T11:29:47.96</time>
<name>3557</name>
</trkpt>
<trkpt lat="48.936835" lon="8.642082">
<ele>355.5</ele>
<speed>0.75</speed>
<course>164.5</course>
<desc>Speed 2.7 km/h Distance 5.71 km</desc>
<time>2010-10-24T11:29:48.96</time>
<name>3558</name>
</trkpt>
<trkpt lat="48.936823" lon="8.642087">
<ele>356.0</ele>
<speed>1.28</speed>
<course>175.6</course>
<desc>Speed 4.6 km/h Distance 5.71 km</desc>
<time>2010-10-24T11:29:49.95</time>
<name>3559</name>
</trkpt>
<trkpt lat="48.936813" lon="8.642087">
<ele>356.0</ele>
<speed>1.08</speed>
<course>189.0</course>
<desc>Speed 3.9 km/h Distance 5.71 km</desc>
<time>2010-10-24T11:29:50.95</time>
<name>3560</name>
</trkpt>
<trkpt lat="48.936800" lon="8.642083">
<ele>355.5</ele>
<speed>1.63</speed>
<course>189.5</course>
<desc>Speed 5.9 km/h Distance 5.72 km</desc>
<time>2010-10-24T11:29:51.95</time>
<name>3561</name>
</trkpt>
<trkpt lat="48.936788" lon="8.642080">
<ele>354.5</ele>
<speed>1.21</speed>
<course>171.9</course>
<desc>Speed 4.4 km/h Distance 5.72 km</desc>
<time>2010-10-24T11:29:52.95</time>
<name>3562</name>
</trkpt>
<trkpt lat="48.936778" lon="8.642082">
<ele>354.0</ele>
<speed>1.21</speed>
<course>186.3</course>
<desc>Speed 4.4 km/h Distance 5.72 km</desc>
<time>2010-10-24T11:29:53.95</time>
<name>3563</name>
</trkpt>
<trkpt lat="48.936767" lon="8.642080">
<ele>354.5</ele>
<speed>1.26</speed>
<course>192.6</course>
<desc>Speed 4.5 km/h Distance 5.72 km</desc>
<time>2010-10-24T11:29:54.95</time>
<name>3564</name>
</trkpt>
<trkpt lat="48.936757" lon="8.642077">
<ele>354.0</ele>
<speed>1.22</speed>
<course>189.7</course>
<desc>Speed 4.4 km/h Distance 5.72 km</desc>
<time>2010-10-24T11:29:55.95</time>
<name>3565</name>
</trkpt>
<trkpt lat="48.936743" lon="8.642073">
<ele>354.0</ele>
<speed>1.30</speed>
<course>217.5</course>
<desc>Speed 4.7 km/h Distance 5.72 km</desc>
<time>2010-10-24T11:29:56.95</time>
<name>3566</name>
</trkpt>
<trkpt lat="48.936733" lon="8.642062">
<ele>353.0</ele>
<speed>1.39</speed>
<course>200.2</course>
<desc>Speed 5.0 km/h Distance 5.72 km</desc>
<time>2010-10-24T11:29:57.95</time>
<name>3567</name>
</trkpt>
<trkpt lat="48.936722" lon="8.642055">
<ele>353.0</ele>
<speed>1.50</speed>
<course>196.3</course>
<desc>Speed 5.4 km/h Distance 5.73 km</desc>
<time>2010-10-24T11:29:58.95</time>
<name>3568</name>
</trkpt>
<trkpt lat="48.936707" lon="8.642048">
<ele>353.5</ele>
<speed>1.64</speed>
<course>206.0</course>
<desc>Speed 5.9 km/h Distance 5.73 km</desc>
<time>2010-10-24T11:29:59.95</time>
<name>3569</name>
</trkpt>
<trkpt lat="48.936693" lon="8.642038">
<ele>353.5</ele>
<speed>1.61</speed>
<course>213.3</course>
<desc>Speed 5.8 km/h Distance 5.73 km</desc>
<time>2010-10-24T11:30:00.95</time>
<name>3570</name>
</trkpt>
<trkpt lat="48.936682" lon="8.642027">
<ele>353.5</ele>
<speed>1.51</speed>
<course>206.0</course>
<desc>Speed 5.4 km/h Distance 5.73 km</desc>
<time>2010-10-24T11:30:01.95</time>
<name>3571</name>
</trkpt>
<trkpt lat="48.936668" lon="8.642017">
<ele>354.0</ele>
<speed>1.58</speed>
<course>206.2</course>
<desc>Speed 5.7 km/h Distance 5.73 km</desc>
<time>2010-10-24T11:30:02.95</time>
<name>3572</name>
</trkpt>
<trkpt lat="48.936655" lon="8.642007">
<ele>354.0</ele>
<speed>1.60</speed>
<course>213.4</course>
<desc>Speed 5.8 km/h Distance 5.73 km</desc>
<time>2010-10-24T11:30:03.95</time>
<name>3573</name>
</trkpt>
<trkpt lat="48.936643" lon="8.641995">
<ele>354.5</ele>
<speed>1.52</speed>
<course>213.2</course>
<desc>Speed 5.5 km/h Distance 5.74 km</desc>
<time>2010-10-24T11:30:04.95</time>
<name>3574</name>
</trkpt>
<trkpt lat="48.936633" lon="8.641985">
<ele>354.5</ele>
<speed>1.47</speed>
<course>226.5</course>
<desc>Speed 5.3 km/h Distance 5.74 km</desc>
<time>2010-10-24T11:30:05.95</time>
<name>3575</name>
</trkpt>
<trkpt lat="48.936625" lon="8.641972">
<ele>355.0</ele>
<speed>1.50</speed>
<course>229.7</course>
<desc>Speed 5.4 km/h Distance 5.74 km</desc>
<time>2010-10-24T11:30:06.95</time>
<name>3576</name>
</trkpt>
<trkpt lat="48.936617" lon="8.641957">
<ele>355.5</ele>
<speed>1.51</speed>
<course>232.7</course>
<desc>Speed 5.4 km/h Distance 5.74 km</desc>
<time>2010-10-24T11:30:07.95</time>
<name>3577</name>
</trkpt>
<trkpt lat="48.936610" lon="8.641943">
<ele>356.0</ele>
<speed>1.50</speed>
<course>229.8</course>
<desc>Speed 5.4 km/h Distance 5.74 km</desc>
<time>2010-10-24T11:30:08.95</time>
<name>3578</name>
</trkpt>
<trkpt lat="48.936602" lon="8.641928">
<ele>357.0</ele>
<speed>1.60</speed>
<course>238.7</course>
<desc>Speed 5.8 km/h Distance 5.74 km</desc>
<time>2010-10-24T11:30:09.95</time>
<name>3579</name>
</trkpt>
<trkpt lat="48.936595" lon="8.641912">
<ele>357.5</ele>
<speed>1.58</speed>
<course>241.0</course>
<desc>Speed 5.7 km/h Distance 5.74 km</desc>
<time>2010-10-24T11:30:10.95</time>
<name>3580</name>
</trkpt>
<trkpt lat="48.936588" lon="8.641893">
<ele>358.0</ele>
<speed>1.58</speed>
<course>247.5</course>
<desc>Speed 5.7 km/h Distance 5.75 km</desc>
<time>2010-10-24T11:30:11.95</time>
<name>3581</name>
</trkpt>
<trkpt lat="48.936583" lon="8.641875">
<ele>358.5</ele>
<speed>1.60</speed>
<course>243.1</course>
<desc>Speed 5.8 km/h Distance 5.75 km</desc>
<time>2010-10-24T11:30:12.95</time>
<name>3582</name>
</trkpt>
<trkpt lat="48.936577" lon="8.641855">
<ele>359.0</ele>
<speed>1.54</speed>
<course>247.5</course>
<desc>Speed 5.5 km/h Distance 5.75 km</desc>
<time>2010-10-24T11:30:13.95</time>
<name>3583</name>
</trkpt>
<trkpt lat="48.936572" lon="8.641837">
<ele>359.0</ele>
<speed>1.49</speed>
<course>255.8</course>
<desc>Speed 5.4 km/h Distance 5.75 km</desc>
<time>2010-10-24T11:30:14.95</time>
<name>3584</name>
</trkpt>
<trkpt lat="48.936568" lon="8.641817">
<ele>359.0</ele>
<speed>1.59</speed>
<course>250.6</course>
<desc>Speed 5.7 km/h Distance 5.75 km</desc>
<time>2010-10-24T11:30:15.95</time>
<name>3585</name>
</trkpt>
<trkpt lat="48.936563" lon="8.641795">
<ele>359.0</ele>
<speed>1.63</speed>
<course>249.2</course>
<desc>Speed 5.9 km/h Distance 5.75 km</desc>
<time>2010-10-24T11:30:16.95</time>
<name>3586</name>
</trkpt>
<trkpt lat="48.936558" lon="8.641775">
<ele>359.5</ele>
<speed>1.55</speed>
<course>250.6</course>
<desc>Speed 5.6 km/h Distance 5.75 km</desc>
<time>2010-10-24T11:30:17.95</time>
<name>3587</name>
</trkpt>
<trkpt lat="48.936553" lon="8.641753">
<ele>359.5</ele>
<speed>1.61</speed>
<course>249.2</course>
<desc>Speed 5.8 km/h Distance 5.76 km</desc>
<time>2010-10-24T11:30:18.95</time>
<name>3588</name>
</trkpt>
<trkpt lat="48.936548" lon="8.641733">
<ele>359.5</ele>
<speed>1.57</speed>
<course>263.3</course>
<desc>Speed 5.7 km/h Distance 5.76 km</desc>
<time>2010-10-24T11:30:19.95</time>
<name>3589</name>
</trkpt>
<trkpt lat="48.936547" lon="8.641712">
<ele>359.5</ele>
<speed>1.52</speed>
<course>263.3</course>
<desc>Speed 5.5 km/h Distance 5.76 km</desc>
<time>2010-10-24T11:30:20.95</time>
<name>3590</name>
</trkpt>
<trkpt lat="48.936545" lon="8.641690">
<ele>359.5</ele>
<speed>1.51</speed>
<course>249.2</course>
<desc>Speed 5.4 km/h Distance 5.76 km</desc>
<time>2010-10-24T11:30:21.94</time>
<name>3591</name>
</trkpt>
<trkpt lat="48.936540" lon="8.641670">
<ele>359.5</ele>
<speed>1.55</speed>
<course>256.8</course>
<desc>Speed 5.6 km/h Distance 5.76 km</desc>
<time>2010-10-24T11:30:22.94</time>
<name>3592</name>
</trkpt>
<trkpt lat="48.936537" lon="8.641648">
<ele>360.0</ele>
<speed>1.58</speed>
<course>262.8</course>
<desc>Speed 5.7 km/h Distance 5.76 km</desc>
<time>2010-10-24T11:30:23.94</time>
<name>3593</name>
</trkpt>
<trkpt lat="48.936535" lon="8.641628">
<ele>359.5</ele>
<speed>1.46</speed>
<course>255.8</course>
<desc>Speed 5.3 km/h Distance 5.77 km</desc>
<time>2010-10-24T11:30:24.94</time>
<name>3594</name>
</trkpt>
<trkpt lat="48.936532" lon="8.641608">
<ele>359.5</ele>
<speed>1.46</speed>
<course>249.2</course>
<desc>Speed 5.3 km/h Distance 5.77 km</desc>
<time>2010-10-24T11:30:25.94</time>
<name>3595</name>
</trkpt>
<trkpt lat="48.936527" lon="8.641588">
<ele>360.0</ele>
<speed>1.53</speed>
<course>256.8</course>
<desc>Speed 5.5 km/h Distance 5.77 km</desc>
<time>2010-10-24T11:30:26.94</time>
<name>3596</name>
</trkpt>
<trkpt lat="48.936523" lon="8.641567">
<ele>360.0</ele>
<speed>1.57</speed>
<course>249.2</course>
<desc>Speed 5.7 km/h Distance 5.77 km</desc>
<time>2010-10-24T11:30:27.94</time>
<name>3597</name>
</trkpt>
<trkpt lat="48.936518" lon="8.641547">
<ele>360.0</ele>
<speed>1.51</speed>
<course>262.8</course>
<desc>Speed 5.4 km/h Distance 5.77 km</desc>
<time>2010-10-24T11:30:28.94</time>
<name>3598</name>
</trkpt>
<trkpt lat="48.936517" lon="8.641527">
<ele>360.0</ele>
<speed>1.46</speed>
<course>255.8</course>
<desc>Speed 5.3 km/h Distance 5.77 km</desc>
<time>2010-10-24T11:30:29.94</time>
<name>3599</name>
</trkpt>
<trkpt lat="48.936513" lon="8.641507">
<ele>360.0</ele>
<speed>1.48</speed>
<course>256.8</course>
<desc>Speed 5.3 km/h Distance 5.77 km</desc>
<time>2010-10-24T11:30:30.94</time>
<name>3600</name>
</trkpt>
<trkpt lat="48.936510" lon="8.641485">
<ele>360.0</ele>
<speed>1.55</speed>
<course>249.2</course>
<desc>Speed 5.6 km/h Distance 5.78 km</desc>
<time>2010-10-24T11:30:31.94</time>
<name>3601</name>
</trkpt>
<trkpt lat="48.936505" lon="8.641465">
<ele>360.0</ele>
<speed>1.48</speed>
<course>250.6</course>
<desc>Speed 5.3 km/h Distance 5.78 km</desc>
<time>2010-10-24T11:30:32.94</time>
<name>3602</name>
</trkpt>
<trkpt lat="48.936500" lon="8.641443">
<ele>360.0</ele>
<speed>1.61</speed>
<course>241.0</course>
<desc>Speed 5.8 km/h Distance 5.78 km</desc>
<time>2010-10-24T11:30:33.94</time>
<name>3603</name>
</trkpt>
<trkpt lat="48.936493" lon="8.641425">
<ele>360.0</ele>
<speed>1.53</speed>
<course>250.6</course>
<desc>Speed 5.5 km/h Distance 5.78 km</desc>
<time>2010-10-24T11:30:34.94</time>
<name>3604</name>
</trkpt>
<trkpt lat="48.936488" lon="8.641403">
<ele>360.0</ele>
<speed>1.55</speed>
<course>249.2</course>
<desc>Speed 5.6 km/h Distance 5.78 km</desc>
<time>2010-10-24T11:30:35.94</time>
<name>3605</name>
</trkpt>
<trkpt lat="48.936483" lon="8.641383">
<ele>360.0</ele>
<speed>1.59</speed>
<course>250.6</course>
<desc>Speed 5.7 km/h Distance 5.78 km</desc>
<time>2010-10-24T11:30:36.94</time>
<name>3606</name>
</trkpt>
<trkpt lat="48.936478" lon="8.641362">
<ele>360.0</ele>
<speed>1.62</speed>
<course>249.2</course>
<desc>Speed 5.8 km/h Distance 5.79 km</desc>
<time>2010-10-24T11:30:37.94</time>
<name>3607</name>
</trkpt>
<trkpt lat="48.936473" lon="8.641342">
<ele>360.0</ele>
<speed>1.62</speed>
<course>257.7</course>
<desc>Speed 5.8 km/h Distance 5.79 km</desc>
<time>2010-10-24T11:30:38.94</time>
<name>3608</name>
</trkpt>
<trkpt lat="48.936470" lon="8.641318">
<ele>360.5</ele>
<speed>1.62</speed>
<course>250.6</course>
<desc>Speed 5.8 km/h Distance 5.79 km</desc>
<time>2010-10-24T11:30:39.94</time>
<name>3609</name>
</trkpt>
<trkpt lat="48.936465" lon="8.641297">
<ele>360.5</ele>
<speed>1.62</speed>
<course>250.6</course>
<desc>Speed 5.8 km/h Distance 5.79 km</desc>
<time>2010-10-24T11:30:40.94</time>
<name>3610</name>
</trkpt>
<trkpt lat="48.936460" lon="8.641275">
<ele>360.5</ele>
<speed>1.64</speed>
<course>250.7</course>
<desc>Speed 5.9 km/h Distance 5.79 km</desc>
<time>2010-10-24T11:30:41.94</time>
<name>3611</name>
</trkpt>
<trkpt lat="48.936455" lon="8.641253">
<ele>360.5</ele>
<speed>1.65</speed>
<course>250.6</course>
<desc>Speed 5.9 km/h Distance 5.79 km</desc>
<time>2010-10-24T11:30:42.94</time>
<name>3612</name>
</trkpt>
<trkpt lat="48.936450" lon="8.641232">
<ele>360.5</ele>
<speed>1.66</speed>
<course>255.8</course>
<desc>Speed 6.0 km/h Distance 5.80 km</desc>
<time>2010-10-24T11:30:43.94</time>
<name>3613</name>
</trkpt>
<trkpt lat="48.936447" lon="8.641212">
<ele>360.5</ele>
<speed>1.55</speed>
<course>249.2</course>
<desc>Speed 5.6 km/h Distance 5.80 km</desc>
<time>2010-10-24T11:30:44.94</time>
<name>3614</name>
</trkpt>
<trkpt lat="48.936442" lon="8.641192">
<ele>361.0</ele>
<speed>1.61</speed>
<course>250.6</course>
<desc>Speed 5.8 km/h Distance 5.80 km</desc>
<time>2010-10-24T11:30:45.94</time>
<name>3615</name>
</trkpt>
<trkpt lat="48.936437" lon="8.641170">
<ele>361.0</ele>
<speed>1.60</speed>
<course>249.2</course>
<desc>Speed 5.8 km/h Distance 5.80 km</desc>
<time>2010-10-24T11:30:46.94</time>
<name>3616</name>
</trkpt>
<trkpt lat="48.936432" lon="8.641150">
<ele>361.0</ele>
<speed>1.62</speed>
<course>256.8</course>
<desc>Speed 5.8 km/h Distance 5.80 km</desc>
<time>2010-10-24T11:30:47.94</time>
<name>3617</name>
</trkpt>
<trkpt lat="48.936428" lon="8.641128">
<ele>361.0</ele>
<speed>1.54</speed>
<course>249.2</course>
<desc>Speed 5.5 km/h Distance 5.80 km</desc>
<time>2010-10-24T11:30:48.93</time>
<name>3618</name>
</trkpt>
<trkpt lat="48.936423" lon="8.641108">
<ele>361.0</ele>
<speed>1.55</speed>
<course>255.8</course>
<desc>Speed 5.6 km/h Distance 5.81 km</desc>
<time>2010-10-24T11:30:49.93</time>
<name>3619</name>
</trkpt>
<trkpt lat="48.936420" lon="8.641088">
<ele>361.0</ele>
<speed>1.53</speed>
<course>244.9</course>
<desc>Speed 5.5 km/h Distance 5.81 km</desc>
<time>2010-10-24T11:30:50.93</time>
<name>3620</name>
</trkpt>
<trkpt lat="48.936413" lon="8.641067">
<ele>361.0</ele>
<speed>1.64</speed>
<course>249.2</course>
<desc>Speed 5.9 km/h Distance 5.81 km</desc>
<time>2010-10-24T11:30:51.93</time>
<name>3621</name>
</trkpt>
<trkpt lat="48.936408" lon="8.641047">
<ele>361.0</ele>
<speed>1.62</speed>
<course>250.6</course>
<desc>Speed 5.8 km/h Distance 5.81 km</desc>
<time>2010-10-24T11:30:52.93</time>
<name>3622</name>
</trkpt>
<trkpt lat="48.936403" lon="8.641025">
<ele>361.5</ele>
<speed>1.64</speed>
<course>243.2</course>
<desc>Speed 5.9 km/h Distance 5.81 km</desc>
<time>2010-10-24T11:30:53.93</time>
<name>3623</name>
</trkpt>
<trkpt lat="48.936397" lon="8.641005">
<ele>361.5</ele>
<speed>1.61</speed>
<course>235.3</course>
<desc>Speed 5.8 km/h Distance 5.81 km</desc>
<time>2010-10-24T11:30:54.93</time>
<name>3624</name>
</trkpt>
<trkpt lat="48.936388" lon="8.640987">
<ele>361.5</ele>
<speed>1.54</speed>
<course>238.7</course>
<desc>Speed 5.5 km/h Distance 5.82 km</desc>
<time>2010-10-24T11:30:55.93</time>
<name>3625</name>
</trkpt>
<trkpt lat="48.936382" lon="8.640970">
<ele>361.5</ele>
<speed>1.55</speed>
<course>227.6</course>
<desc>Speed 5.6 km/h Distance 5.82 km</desc>
<time>2010-10-24T11:30:56.93</time>
<name>3626</name>
</trkpt>
<trkpt lat="48.936372" lon="8.640953">
<ele>362.0</ele>
<speed>1.50</speed>
<course>216.9</course>
<desc>Speed 5.4 km/h Distance 5.82 km</desc>
<time>2010-10-24T11:30:57.93</time>
<name>3627</name>
</trkpt>
<trkpt lat="48.936360" lon="8.640940">
<ele>362.0</ele>
<speed>1.61</speed>
<course>217.0</course>
<desc>Speed 5.8 km/h Distance 5.82 km</desc>
<time>2010-10-24T11:30:58.93</time>
<name>3628</name>
</trkpt>
<trkpt lat="48.936348" lon="8.640927">
<ele>362.5</ele>
<speed>1.66</speed>
<course>216.9</course>
<desc>Speed 6.0 km/h Distance 5.82 km</desc>
<time>2010-10-24T11:30:59.93</time>
<name>3629</name>
</trkpt>
<trkpt lat="48.936337" lon="8.640913">
<ele>362.5</ele>
<speed>1.55</speed>
<course>205.2</course>
<desc>Speed 5.6 km/h Distance 5.82 km</desc>
<time>2010-10-24T11:31:00.93</time>
<name>3630</name>
</trkpt>
<trkpt lat="48.936325" lon="8.640905">
<ele>362.5</ele>
<speed>1.45</speed>
<course>185.3</course>
<desc>Speed 5.2 km/h Distance 5.82 km</desc>
<time>2010-10-24T11:31:01.93</time>
<name>3631</name>
</trkpt>
<trkpt lat="48.936312" lon="8.640903">
<ele>363.0</ele>
<speed>1.47</speed>
<course>174.7</course>
<desc>Speed 5.3 km/h Distance 5.83 km</desc>
<time>2010-10-24T11:31:02.93</time>
<name>3632</name>
</trkpt>
<trkpt lat="48.936298" lon="8.640905">
<ele>363.0</ele>
<speed>1.35</speed>
<course>168.8</course>
<desc>Speed 4.9 km/h Distance 5.83 km</desc>
<time>2010-10-24T11:31:03.93</time>
<name>3633</name>
</trkpt>
<trkpt lat="48.936287" lon="8.640908">
<ele>363.0</ele>
<speed>1.42</speed>
<course>150.6</course>
<desc>Speed 5.1 km/h Distance 5.83 km</desc>
<time>2010-10-24T11:31:04.93</time>
<name>3634</name>
</trkpt>
<trkpt lat="48.936275" lon="8.640918">
<ele>363.0</ele>
<speed>1.51</speed>
<course>146.6</course>
<desc>Speed 5.4 km/h Distance 5.83 km</desc>
<time>2010-10-24T11:31:05.93</time>
<name>3635</name>
</trkpt>
<trkpt lat="48.936263" lon="8.640930">
<ele>363.5</ele>
<speed>1.59</speed>
<course>143.1</course>
<desc>Speed 5.7 km/h Distance 5.83 km</desc>
<time>2010-10-24T11:31:06.93</time>
<name>3636</name>
</trkpt>
<trkpt lat="48.936252" lon="8.640943">
<ele>363.5</ele>
<speed>1.65</speed>
<course>143.0</course>
<desc>Speed 5.9 km/h Distance 5.83 km</desc>
<time>2010-10-24T11:31:07.93</time>
<name>3637</name>
</trkpt>
<trkpt lat="48.936240" lon="8.640957">
<ele>363.5</ele>
<speed>1.70</speed>
<course>138.8</course>
<desc>Speed 6.1 km/h Distance 5.84 km</desc>
<time>2010-10-24T11:31:08.93</time>
<name>3638</name>
</trkpt>
<trkpt lat="48.936230" lon="8.640970">
<ele>364.0</ele>
<speed>1.62</speed>
<course>138.8</course>
<desc>Speed 5.8 km/h Distance 5.84 km</desc>
<time>2010-10-24T11:31:09.93</time>
<name>3639</name>
</trkpt>
<trkpt lat="48.936220" lon="8.640983">
<ele>364.0</ele>
<speed>1.61</speed>
<course>136.7</course>
<desc>Speed 5.8 km/h Distance 5.84 km</desc>
<time>2010-10-24T11:31:10.93</time>
<name>3640</name>
</trkpt>
<trkpt lat="48.936208" lon="8.641000">
<ele>364.0</ele>
<speed>1.63</speed>
<course>138.7</course>
<desc>Speed 5.9 km/h Distance 5.84 km</desc>
<time>2010-10-24T11:31:11.93</time>
<name>3641</name>
</trkpt>
<trkpt lat="48.936198" lon="8.641013">
<ele>364.0</ele>
<speed>1.60</speed>
<course>146.6</course>
<desc>Speed 5.8 km/h Distance 5.84 km</desc>
<time>2010-10-24T11:31:12.93</time>
<name>3642</name>
</trkpt>
<trkpt lat="48.936185" lon="8.641027">
<ele>364.0</ele>
<speed>1.71</speed>
<course>143.1</course>
<desc>Speed 6.2 km/h Distance 5.84 km</desc>
<time>2010-10-24T11:31:13.93</time>
<name>3643</name>
</trkpt>
<trkpt lat="48.936173" lon="8.641040">
<ele>364.5</ele>
<speed>1.73</speed>
<course>146.6</course>
<desc>Speed 6.2 km/h Distance 5.84 km</desc>
<time>2010-10-24T11:31:14.93</time>
<name>3644</name>
</trkpt>
<trkpt lat="48.936162" lon="8.641052">
<ele>364.5</ele>
<speed>1.54</speed>
<course>150.2</course>
<desc>Speed 5.5 km/h Distance 5.85 km</desc>
<time>2010-10-24T11:31:15.93</time>
<name>3645</name>
</trkpt>
<trkpt lat="48.936148" lon="8.641063">
<ele>364.0</ele>
<speed>1.64</speed>
<course>150.2</course>
<desc>Speed 5.9 km/h Distance 5.85 km</desc>
<time>2010-10-24T11:31:16.93</time>
<name>3646</name>
</trkpt>
<trkpt lat="48.936135" lon="8.641075">
<ele>364.5</ele>
<speed>1.65</speed>
<course>146.7</course>
<desc>Speed 5.9 km/h Distance 5.85 km</desc>
<time>2010-10-24T11:31:17.93</time>
<name>3647</name>
</trkpt>
<trkpt lat="48.936123" lon="8.641087">
<ele>364.5</ele>
<speed>1.62</speed>
<course>150.2</course>
<desc>Speed 5.8 km/h Distance 5.85 km</desc>
<time>2010-10-24T11:31:18.93</time>
<name>3648</name>
</trkpt>
<trkpt lat="48.936110" lon="8.641098">
<ele>364.5</ele>
<speed>1.57</speed>
<course>161.9</course>
<desc>Speed 5.7 km/h Distance 5.85 km</desc>
<time>2010-10-24T11:31:19.93</time>
<name>3649</name>
</trkpt>
<trkpt lat="48.936097" lon="8.641105">
<ele>364.0</ele>
<speed>1.57</speed>
<course>154.8</course>
<desc>Speed 5.7 km/h Distance 5.85 km</desc>
<time>2010-10-24T11:31:20.93</time>
<name>3650</name>
</trkpt>
<trkpt lat="48.936085" lon="8.641113">
<ele>364.0</ele>
<speed>1.55</speed>
<course>150.0</course>
<desc>Speed 5.6 km/h Distance 5.86 km</desc>
<time>2010-10-24T11:31:21.93</time>
<name>3651</name>
</trkpt>
<trkpt lat="48.936072" lon="8.641125">
<ele>364.0</ele>
<speed>1.67</speed>
<course>146.6</course>
<desc>Speed 6.0 km/h Distance 5.86 km</desc>
<time>2010-10-24T11:31:22.93</time>
<name>3652</name>
</trkpt>
<trkpt lat="48.936060" lon="8.641137">
<ele>364.0</ele>
<speed>1.46</speed>
<course>146.6</course>
<desc>Speed 5.3 km/h Distance 5.86 km</desc>
<time>2010-10-24T11:31:23.93</time>
<name>3653</name>
</trkpt>
<trkpt lat="48.936048" lon="8.641148">
<ele>363.5</ele>
<speed>1.55</speed>
<course>139.8</course>
<desc>Speed 5.6 km/h Distance 5.86 km</desc>
<time>2010-10-24T11:31:24.93</time>
<name>3654</name>
</trkpt>
<trkpt lat="48.936037" lon="8.641163">
<ele>364.0</ele>
<speed>1.59</speed>
<course>150.2</course>
<desc>Speed 5.7 km/h Distance 5.86 km</desc>
<time>2010-10-24T11:31:25.93</time>
<name>3655</name>
</trkpt>
<trkpt lat="48.936023" lon="8.641175">
<ele>364.0</ele>
<speed>1.70</speed>
<course>136.8</course>
<desc>Speed 6.1 km/h Distance 5.86 km</desc>
<time>2010-10-24T11:31:26.93</time>
<name>3656</name>
</trkpt>
<trkpt lat="48.936012" lon="8.641192">
<ele>364.0</ele>
<speed>1.69</speed>
<course>124.7</course>
<desc>Speed 6.1 km/h Distance 5.87 km</desc>
<time>2010-10-24T11:31:27.93</time>
<name>3657</name>
</trkpt>
<trkpt lat="48.936003" lon="8.641210">
<ele>364.0</ele>
<speed>1.63</speed>
<course>136.7</course>
<desc>Speed 5.9 km/h Distance 5.87 km</desc>
<time>2010-10-24T11:31:28.93</time>
<name>3658</name>
</trkpt>
<trkpt lat="48.935992" lon="8.641227">
<ele>364.5</ele>
<speed>1.62</speed>
<course>135.4</course>
<desc>Speed 5.8 km/h Distance 5.87 km</desc>
<time>2010-10-24T11:31:29.93</time>
<name>3659</name>
</trkpt>
<trkpt lat="48.935982" lon="8.641242">
<ele>365.0</ele>
<speed>1.63</speed>
<course>146.6</course>
<desc>Speed 5.9 km/h Distance 5.87 km</desc>
<time>2010-10-24T11:31:30.93</time>
<name>3660</name>
</trkpt>
<trkpt lat="48.935968" lon="8.641255">
<ele>365.0</ele>
<speed>1.72</speed>
<course>139.8</course>
<desc>Speed 6.2 km/h Distance 5.87 km</desc>
<time>2010-10-24T11:31:31.93</time>
<name>3661</name>
</trkpt>
<trkpt lat="48.935957" lon="8.641270">
<ele>365.0</ele>
<speed>1.75</speed>
<course>146.6</course>
<desc>Speed 6.3 km/h Distance 5.87 km</desc>
<time>2010-10-24T11:31:32.93</time>
<name>3662</name>
</trkpt>
<trkpt lat="48.935943" lon="8.641283">
<ele>365.5</ele>
<speed>1.70</speed>
<course>139.8</course>
<desc>Speed 6.1 km/h Distance 5.88 km</desc>
<time>2010-10-24T11:31:33.93</time>
<name>3663</name>
</trkpt>
<trkpt lat="48.935932" lon="8.641298">
<ele>365.5</ele>
<speed>1.73</speed>
<course>139.7</course>
<desc>Speed 6.2 km/h Distance 5.88 km</desc>
<time>2010-10-24T11:31:34.93</time>
<name>3664</name>
</trkpt>
<trkpt lat="48.935920" lon="8.641313">
<ele>365.5</ele>
<speed>1.63</speed>
<course>143.0</course>
<desc>Speed 5.9 km/h Distance 5.88 km</desc>
<time>2010-10-24T11:31:35.93</time>
<name>3665</name>
</trkpt>
<trkpt lat="48.935908" lon="8.641327">
<ele>365.5</ele>
<speed>1.69</speed>
<course>146.6</course>
<desc>Speed 6.1 km/h Distance 5.88 km</desc>
<time>2010-10-24T11:31:36.93</time>
<name>3666</name>
</trkpt>
<trkpt lat="48.935895" lon="8.641340">
<ele>365.5</ele>
<speed>1.71</speed>
<course>146.6</course>
<desc>Speed 6.2 km/h Distance 5.88 km</desc>
<time>2010-10-24T11:31:37.93</time>
<name>3667</name>
</trkpt>
<trkpt lat="48.935882" lon="8.641353">
<ele>365.5</ele>
<speed>1.76</speed>
<course>146.7</course>
<desc>Speed 6.3 km/h Distance 5.89 km</desc>
<time>2010-10-24T11:31:38.93</time>
<name>3668</name>
</trkpt>
<trkpt lat="48.935870" lon="8.641365">
<ele>365.0</ele>
<speed>1.64</speed>
<course>146.6</course>
<desc>Speed 5.9 km/h Distance 5.89 km</desc>
<time>2010-10-24T11:31:39.93</time>
<name>3669</name>
</trkpt>
<trkpt lat="48.935857" lon="8.641378">
<ele>365.5</ele>
<speed>1.69</speed>
<course>143.1</course>
<desc>Speed 6.1 km/h Distance 5.89 km</desc>
<time>2010-10-24T11:31:40.93</time>
<name>3670</name>
</trkpt>
<trkpt lat="48.935845" lon="8.641392">
<ele>365.5</ele>
<speed>1.70</speed>
<course>143.0</course>
<desc>Speed 6.1 km/h Distance 5.89 km</desc>
<time>2010-10-24T11:31:41.93</time>
<name>3671</name>
</trkpt>
<trkpt lat="48.935833" lon="8.641405">
<ele>365.5</ele>
<speed>1.67</speed>
<course>143.4</course>
<desc>Speed 6.0 km/h Distance 5.89 km</desc>
<time>2010-10-24T11:31:42.93</time>
<name>3672</name>
</trkpt>
<trkpt lat="48.935820" lon="8.641420">
<ele>365.5</ele>
<speed>1.72</speed>
<course>146.6</course>
<desc>Speed 6.2 km/h Distance 5.89 km</desc>
<time>2010-10-24T11:31:43.93</time>
<name>3673</name>
</trkpt>
<trkpt lat="48.935807" lon="8.641433">
<ele>365.0</ele>
<speed>1.78</speed>
<course>146.7</course>
<desc>Speed 6.4 km/h Distance 5.90 km</desc>
<time>2010-10-24T11:31:44.93</time>
<name>3674</name>
</trkpt>
<trkpt lat="48.935793" lon="8.641447">
<ele>365.0</ele>
<speed>1.73</speed>
<course>146.7</course>
<desc>Speed 6.2 km/h Distance 5.90 km</desc>
<time>2010-10-24T11:31:45.93</time>
<name>3675</name>
</trkpt>
<trkpt lat="48.935782" lon="8.641458">
<ele>365.0</ele>
<speed>1.73</speed>
<course>143.5</course>
<desc>Speed 6.2 km/h Distance 5.90 km</desc>
<time>2010-10-24T11:31:46.93</time>
<name>3676</name>
</trkpt>
<trkpt lat="48.935768" lon="8.641473">
<ele>365.5</ele>
<speed>1.78</speed>
<course>146.6</course>
<desc>Speed 6.4 km/h Distance 5.90 km</desc>
<time>2010-10-24T11:31:47.93</time>
<name>3677</name>
</trkpt>
<trkpt lat="48.935755" lon="8.641487">
<ele>365.5</ele>
<speed>1.76</speed>
<course>139.8</course>
<desc>Speed 6.3 km/h Distance 5.90 km</desc>
<time>2010-10-24T11:31:48.93</time>
<name>3678</name>
</trkpt>
<trkpt lat="48.935743" lon="8.641502">
<ele>365.5</ele>
<speed>1.72</speed>
<course>139.8</course>
<desc>Speed 6.2 km/h Distance 5.90 km</desc>
<time>2010-10-24T11:31:49.93</time>
<name>3679</name>
</trkpt>
<trkpt lat="48.935732" lon="8.641517">
<ele>365.5</ele>
<speed>1.72</speed>
<course>139.8</course>
<desc>Speed 6.2 km/h Distance 5.91 km</desc>
<time>2010-10-24T11:31:50.93</time>
<name>3680</name>
</trkpt>
<trkpt lat="48.935720" lon="8.641532">
<ele>365.5</ele>
<speed>1.69</speed>
<course>146.6</course>
<desc>Speed 6.1 km/h Distance 5.91 km</desc>
<time>2010-10-24T11:31:51.93</time>
<name>3681</name>
</trkpt>
<trkpt lat="48.935707" lon="8.641545">
<ele>365.5</ele>
<speed>1.74</speed>
<course>153.0</course>
<desc>Speed 6.3 km/h Distance 5.91 km</desc>
<time>2010-10-24T11:31:52.93</time>
<name>3682</name>
</trkpt>
<trkpt lat="48.935692" lon="8.641557">
<ele>365.5</ele>
<speed>1.83</speed>
<course>150.0</course>
<desc>Speed 6.6 km/h Distance 5.91 km</desc>
<time>2010-10-24T11:31:53.93</time>
<name>3683</name>
</trkpt>
<trkpt lat="48.935678" lon="8.641568">
<ele>365.5</ele>
<speed>1.67</speed>
<course>135.5</course>
<desc>Speed 6.0 km/h Distance 5.91 km</desc>
<time>2010-10-24T11:31:54.93</time>
<name>3684</name>
</trkpt>
<trkpt lat="48.935668" lon="8.641583">
<ele>365.5</ele>
<speed>1.55</speed>
<course>127.3</course>
<desc>Speed 5.6 km/h Distance 5.91 km</desc>
<time>2010-10-24T11:31:55.93</time>
<name>3685</name>
</trkpt>
<trkpt lat="48.935660" lon="8.641600">
<ele>365.5</ele>
<speed>1.60</speed>
<course>132.5</course>
<desc>Speed 5.8 km/h Distance 5.92 km</desc>
<time>2010-10-24T11:31:56.93</time>
<name>3686</name>
</trkpt>
<trkpt lat="48.935650" lon="8.641617">
<ele>365.5</ele>
<speed>1.70</speed>
<course>140.6</course>
<desc>Speed 6.1 km/h Distance 5.92 km</desc>
<time>2010-10-24T11:31:57.93</time>
<name>3687</name>
</trkpt>
<trkpt lat="48.935637" lon="8.641633">
<ele>365.5</ele>
<speed>1.75</speed>
<course>139.8</course>
<desc>Speed 6.3 km/h Distance 5.92 km</desc>
<time>2010-10-24T11:31:58.93</time>
<name>3688</name>
</trkpt>
<trkpt lat="48.935625" lon="8.641648">
<ele>365.5</ele>
<speed>1.76</speed>
<course>139.8</course>
<desc>Speed 6.3 km/h Distance 5.92 km</desc>
<time>2010-10-24T11:31:59.93</time>
<name>3689</name>
</trkpt>
<trkpt lat="48.935613" lon="8.641663">
<ele>365.5</ele>
<speed>1.73</speed>
<course>135.5</course>
<desc>Speed 6.2 km/h Distance 5.92 km</desc>
<time>2010-10-24T11:32:00.93</time>
<name>3690</name>
</trkpt>
<trkpt lat="48.935603" lon="8.641678">
<ele>365.5</ele>
<speed>1.50</speed>
<course>146.3</course>
<desc>Speed 5.4 km/h Distance 5.92 km</desc>
<time>2010-10-24T11:32:01.93</time>
<name>3691</name>
</trkpt>
<trkpt lat="48.935597" lon="8.641685">
<ele>364.5</ele>
<speed>0.88</speed>
<course>51.9</course>
<desc>Speed 3.2 km/h Distance 5.93 km</desc>
<time>2010-10-24T11:32:02.93</time>
<name>3692</name>
</trkpt>
<trkpt lat="48.935598" lon="8.641688">
<ele>364.5</ele>
<speed>0.34</speed>
<course>198.8</course>
<desc>Speed 1.2 km/h Distance 5.93 km</desc>
<time>2010-10-24T11:32:04.93</time>
<name>3693</name>
</trkpt>
<trkpt lat="48.935595" lon="8.641687">
<ele>364.5</ele>
<speed>0.41</speed>
<course>161.2</course>
<desc>Speed 1.5 km/h Distance 5.93 km</desc>
<time>2010-10-24T11:32:07.93</time>
<name>3694</name>
</trkpt>
<trkpt lat="48.935588" lon="8.641690">
<ele>364.5</ele>
<speed>0.87</speed>
<course>136.9</course>
<desc>Speed 3.1 km/h Distance 5.93 km</desc>
<time>2010-10-24T11:32:08.93</time>
<name>3695</name>
</trkpt>
<trkpt lat="48.935577" lon="8.641707">
<ele>364.5</ele>
<speed>1.74</speed>
<course>150.6</course>
<desc>Speed 6.3 km/h Distance 5.93 km</desc>
<time>2010-10-24T11:32:09.93</time>
<name>3696</name>
</trkpt>
<trkpt lat="48.935565" lon="8.641717">
<ele>364.0</ele>
<speed>1.40</speed>
<course>146.8</course>
<desc>Speed 5.0 km/h Distance 5.93 km</desc>
<time>2010-10-24T11:32:10.93</time>
<name>3697</name>
</trkpt>
<trkpt lat="48.935555" lon="8.641727">
<ele>363.5</ele>
<speed>1.36</speed>
<course>150.8</course>
<desc>Speed 4.9 km/h Distance 5.93 km</desc>
<time>2010-10-24T11:32:11.93</time>
<name>3698</name>
</trkpt>
<trkpt lat="48.935543" lon="8.641737">
<ele>363.0</ele>
<speed>1.49</speed>
<course>151.4</course>
<desc>Speed 5.4 km/h Distance 5.93 km</desc>
<time>2010-10-24T11:32:12.93</time>
<name>3699</name>
</trkpt>
<trkpt lat="48.935533" lon="8.641745">
<ele>362.5</ele>
<speed>1.23</speed>
<course>138.7</course>
<desc>Speed 4.4 km/h Distance 5.93 km</desc>
<time>2010-10-24T11:32:13.92</time>
<name>3700</name>
</trkpt>
<trkpt lat="48.935523" lon="8.641758">
<ele>362.0</ele>
<speed>1.40</speed>
<course>138.7</course>
<desc>Speed 5.0 km/h Distance 5.94 km</desc>
<time>2010-10-24T11:32:14.92</time>
<name>3701</name>
</trkpt>
<trkpt lat="48.935513" lon="8.641772">
<ele>361.5</ele>
<speed>1.36</speed>
<course>127.3</course>
<desc>Speed 4.9 km/h Distance 5.94 km</desc>
<time>2010-10-24T11:32:15.92</time>
<name>3702</name>
</trkpt>
<trkpt lat="48.935505" lon="8.641788">
<ele>361.5</ele>
<speed>1.51</speed>
<course>129.7</course>
<desc>Speed 5.4 km/h Distance 5.94 km</desc>
<time>2010-10-24T11:32:16.92</time>
<name>3703</name>
</trkpt>
<trkpt lat="48.935495" lon="8.641807">
<ele>361.0</ele>
<speed>1.58</speed>
<course>108.1</course>
<desc>Speed 5.7 km/h Distance 5.94 km</desc>
<time>2010-10-24T11:32:17.92</time>
<name>3704</name>
</trkpt>
<trkpt lat="48.935490" lon="8.641830">
<ele>361.5</ele>
<speed>1.66</speed>
<course>109.4</course>
<desc>Speed 6.0 km/h Distance 5.94 km</desc>
<time>2010-10-24T11:32:18.92</time>
<name>3705</name>
</trkpt>
<trkpt lat="48.935485" lon="8.641852">
<ele>361.5</ele>
<speed>1.62</speed>
<course>106.9</course>
<desc>Speed 5.8 km/h Distance 5.94 km</desc>
<time>2010-10-24T11:32:19.92</time>
<name>3706</name>
</trkpt>
<trkpt lat="48.935480" lon="8.641877">
<ele>362.0</ele>
<speed>1.64</speed>
<course>103.2</course>
<desc>Speed 5.9 km/h Distance 5.95 km</desc>
<time>2010-10-24T11:32:20.92</time>
<name>3707</name>
</trkpt>
<trkpt lat="48.935477" lon="8.641898">
<ele>362.0</ele>
<speed>1.58</speed>
<course>106.9</course>
<desc>Speed 5.7 km/h Distance 5.95 km</desc>
<time>2010-10-24T11:32:21.92</time>
<name>3708</name>
</trkpt>
<trkpt lat="48.935472" lon="8.641923">
<ele>362.0</ele>
<speed>1.62</speed>
<course>95.8</course>
<desc>Speed 5.8 km/h Distance 5.95 km</desc>
<time>2010-10-24T11:32:22.92</time>
<name>3709</name>
</trkpt>
<trkpt lat="48.935470" lon="8.641948">
<ele>362.5</ele>
<speed>1.71</speed>
<course>103.2</course>
<desc>Speed 6.2 km/h Distance 5.95 km</desc>
<time>2010-10-24T11:32:23.92</time>
<name>3710</name>
</trkpt>
<trkpt lat="48.935467" lon="8.641970">
<ele>362.5</ele>
<speed>1.55</speed>
<course>90.0</course>
<desc>Speed 5.6 km/h Distance 5.95 km</desc>
<time>2010-10-24T11:32:24.92</time>
<name>3711</name>
</trkpt>
<trkpt lat="48.935467" lon="8.641992">
<ele>362.5</ele>
<speed>1.57</speed>
<course>96.7</course>
<desc>Speed 5.7 km/h Distance 5.95 km</desc>
<time>2010-10-24T11:32:25.92</time>
<name>3712</name>
</trkpt>
<trkpt lat="48.935465" lon="8.642013">
<ele>362.5</ele>
<speed>1.53</speed>
<course>84.2</course>
<desc>Speed 5.5 km/h Distance 5.96 km</desc>
<time>2010-10-24T11:32:26.92</time>
<name>3713</name>
</trkpt>
<trkpt lat="48.935467" lon="8.642038">
<ele>363.0</ele>
<speed>1.74</speed>
<course>76.8</course>
<desc>Speed 6.3 km/h Distance 5.96 km</desc>
<time>2010-10-24T11:32:27.95</time>
<name>3714</name>
</trkpt>
<trkpt lat="48.935470" lon="8.642060">
<ele>363.5</ele>
<speed>1.60</speed>
<course>90.0</course>
<desc>Speed 5.8 km/h Distance 5.96 km</desc>
<time>2010-10-24T11:32:28.92</time>
<name>3715</name>
</trkpt>
<trkpt lat="48.935470" lon="8.642080">
<ele>363.5</ele>
<speed>1.37</speed>
<course>90.0</course>
<desc>Speed 4.9 km/h Distance 5.96 km</desc>
<time>2010-10-24T11:32:29.92</time>
<name>3716</name>
</trkpt>
<trkpt lat="48.935470" lon="8.642102">
<ele>363.5</ele>
<speed>1.54</speed>
<course>90.0</course>
<desc>Speed 5.5 km/h Distance 5.96 km</desc>
<time>2010-10-24T11:32:30.92</time>
<name>3717</name>
</trkpt>
<trkpt lat="48.935470" lon="8.642123">
<ele>363.5</ele>
<speed>1.50</speed>
<course>112.6</course>
<desc>Speed 5.4 km/h Distance 5.96 km</desc>
<time>2010-10-24T11:32:31.92</time>
<name>3718</name>
</trkpt>
<trkpt lat="48.935465" lon="8.642142">
<ele>363.0</ele>
<speed>1.45</speed>
<course>96.7</course>
<desc>Speed 5.2 km/h Distance 5.97 km</desc>
<time>2010-10-24T11:32:32.92</time>
<name>3719</name>
</trkpt>
<trkpt lat="48.935463" lon="8.642163">
<ele>363.0</ele>
<speed>1.50</speed>
<course>83.8</course>
<desc>Speed 5.4 km/h Distance 5.97 km</desc>
<time>2010-10-24T11:32:33.92</time>
<name>3720</name>
</trkpt>
<trkpt lat="48.935465" lon="8.642187">
<ele>363.5</ele>
<speed>1.63</speed>
<course>90.0</course>
<desc>Speed 5.9 km/h Distance 5.97 km</desc>
<time>2010-10-24T11:32:34.92</time>
<name>3721</name>
</trkpt>
<trkpt lat="48.935465" lon="8.642200">
<ele>363.5</ele>
<speed>0.97</speed>
<course>90.0</course>
<desc>Speed 3.5 km/h Distance 5.97 km</desc>
<time>2010-10-24T11:32:35.92</time>
<name>3722</name>
</trkpt>
<trkpt lat="48.935465" lon="8.642218">
<ele>363.0</ele>
<speed>1.32</speed>
<course>83.3</course>
<desc>Speed 4.8 km/h Distance 5.97 km</desc>
<time>2010-10-24T11:32:36.92</time>
<name>3723</name>
</trkpt>
<trkpt lat="48.935467" lon="8.642240">
<ele>363.0</ele>
<speed>1.42</speed>
<course>82.8</course>
<desc>Speed 5.1 km/h Distance 5.97 km</desc>
<time>2010-10-24T11:32:37.92</time>
<name>3724</name>
</trkpt>
<trkpt lat="48.935468" lon="8.642260">
<ele>362.5</ele>
<speed>1.47</speed>
<course>90.0</course>
<desc>Speed 5.3 km/h Distance 5.97 km</desc>
<time>2010-10-24T11:32:38.92</time>
<name>3725</name>
</trkpt>
<trkpt lat="48.935468" lon="8.642282">
<ele>362.5</ele>
<speed>1.51</speed>
<course>90.0</course>
<desc>Speed 5.4 km/h Distance 5.98 km</desc>
<time>2010-10-24T11:32:39.92</time>
<name>3726</name>
</trkpt>
<trkpt lat="48.935468" lon="8.642305">
<ele>362.5</ele>
<speed>1.71</speed>
<course>90.0</course>
<desc>Speed 6.2 km/h Distance 5.98 km</desc>
<time>2010-10-24T11:32:40.92</time>
<name>3727</name>
</trkpt>
<trkpt lat="48.935468" lon="8.642330">
<ele>362.5</ele>
<speed>1.66</speed>
<course>83.8</course>
<desc>Speed 6.0 km/h Distance 5.98 km</desc>
<time>2010-10-24T11:32:41.92</time>
<name>3728</name>
</trkpt>
<trkpt lat="48.935470" lon="8.642353">
<ele>362.5</ele>
<speed>1.59</speed>
<course>77.7</course>
<desc>Speed 5.7 km/h Distance 5.98 km</desc>
<time>2010-10-24T11:32:42.92</time>
<name>3729</name>
</trkpt>
<trkpt lat="48.935473" lon="8.642377">
<ele>362.5</ele>
<speed>1.62</speed>
<course>96.2</course>
<desc>Speed 5.8 km/h Distance 5.98 km</desc>
<time>2010-10-24T11:32:43.92</time>
<name>3730</name>
</trkpt>
<trkpt lat="48.935472" lon="8.642400">
<ele>362.5</ele>
<speed>1.67</speed>
<course>96.2</course>
<desc>Speed 6.0 km/h Distance 5.98 km</desc>
<time>2010-10-24T11:32:44.92</time>
<name>3731</name>
</trkpt>
<trkpt lat="48.935470" lon="8.642423">
<ele>362.5</ele>
<speed>1.60</speed>
<course>96.2</course>
<desc>Speed 5.8 km/h Distance 5.99 km</desc>
<time>2010-10-24T11:32:45.92</time>
<name>3732</name>
</trkpt>
<trkpt lat="48.935468" lon="8.642447">
<ele>362.5</ele>
<speed>1.53</speed>
<course>102.3</course>
<desc>Speed 5.5 km/h Distance 5.99 km</desc>
<time>2010-10-24T11:32:46.92</time>
<name>3733</name>
</trkpt>
<trkpt lat="48.935465" lon="8.642470">
<ele>362.5</ele>
<speed>1.64</speed>
<course>96.7</course>
<desc>Speed 5.9 km/h Distance 5.99 km</desc>
<time>2010-10-24T11:32:47.92</time>
<name>3734</name>
</trkpt>
<trkpt lat="48.935463" lon="8.642492">
<ele>362.5</ele>
<speed>1.48</speed>
<course>90.0</course>
<desc>Speed 5.3 km/h Distance 5.99 km</desc>
<time>2010-10-24T11:32:48.92</time>
<name>3735</name>
</trkpt>
<trkpt lat="48.935463" lon="8.642512">
<ele>362.5</ele>
<speed>1.50</speed>
<course>90.0</course>
<desc>Speed 5.4 km/h Distance 5.99 km</desc>
<time>2010-10-24T11:32:49.92</time>
<name>3736</name>
</trkpt>
<trkpt lat="48.935463" lon="8.642533">
<ele>362.5</ele>
<speed>1.53</speed>
<course>90.0</course>
<desc>Speed 5.5 km/h Distance 5.99 km</desc>
<time>2010-10-24T11:32:50.92</time>
<name>3737</name>
</trkpt>
<trkpt lat="48.935463" lon="8.642553">
<ele>362.0</ele>
<speed>1.39</speed>
<course>96.2</course>
<desc>Speed 5.0 km/h Distance 6.00 km</desc>
<time>2010-10-24T11:32:51.92</time>
<name>3738</name>
</trkpt>
<trkpt lat="48.935462" lon="8.642577">
<ele>361.5</ele>
<speed>1.63</speed>
<course>97.2</course>
<desc>Speed 5.9 km/h Distance 6.00 km</desc>
<time>2010-10-24T11:32:52.92</time>
<name>3739</name>
</trkpt>
<trkpt lat="48.935460" lon="8.642597">
<ele>361.5</ele>
<speed>1.55</speed>
<course>95.8</course>
<desc>Speed 5.6 km/h Distance 6.00 km</desc>
<time>2010-10-24T11:32:53.92</time>
<name>3740</name>
</trkpt>
<trkpt lat="48.935458" lon="8.642622">
<ele>361.5</ele>
<speed>1.76</speed>
<course>104.2</course>
<desc>Speed 6.3 km/h Distance 6.00 km</desc>
<time>2010-10-24T11:32:54.92</time>
<name>3741</name>
</trkpt>
<trkpt lat="48.935455" lon="8.642642">
<ele>361.0</ele>
<speed>1.62</speed>
<course>103.2</course>
<desc>Speed 5.8 km/h Distance 6.00 km</desc>
<time>2010-10-24T11:32:55.92</time>
<name>3742</name>
</trkpt>
<trkpt lat="48.935452" lon="8.642663">
<ele>360.5</ele>
<speed>1.58</speed>
<course>96.7</course>
<desc>Speed 5.7 km/h Distance 6.00 km</desc>
<time>2010-10-24T11:32:56.92</time>
<name>3743</name>
</trkpt>
<trkpt lat="48.935450" lon="8.642685">
<ele>360.5</ele>
<speed>1.63</speed>
<course>103.2</course>
<desc>Speed 5.9 km/h Distance 6.01 km</desc>
<time>2010-10-24T11:32:57.92</time>
<name>3744</name>
</trkpt>
<trkpt lat="48.935447" lon="8.642707">
<ele>360.0</ele>
<speed>1.63</speed>
<course>109.4</course>
<desc>Speed 5.9 km/h Distance 6.01 km</desc>
<time>2010-10-24T11:32:58.92</time>
<name>3745</name>
</trkpt>
<trkpt lat="48.935442" lon="8.642728">
<ele>360.0</ele>
<speed>1.61</speed>
<course>90.0</course>
<desc>Speed 5.8 km/h Distance 6.01 km</desc>
<time>2010-10-24T11:32:59.92</time>
<name>3746</name>
</trkpt>
<trkpt lat="48.935442" lon="8.642752">
<ele>360.0</ele>
<speed>1.63</speed>
<course>103.2</course>
<desc>Speed 5.9 km/h Distance 6.01 km</desc>
<time>2010-10-24T11:33:00.92</time>
<name>3747</name>
</trkpt>
<trkpt lat="48.935438" lon="8.642773">
<ele>359.5</ele>
<speed>1.62</speed>
<course>96.2</course>
<desc>Speed 5.8 km/h Distance 6.01 km</desc>
<time>2010-10-24T11:33:01.92</time>
<name>3748</name>
</trkpt>
<trkpt lat="48.935437" lon="8.642797">
<ele>359.5</ele>
<speed>1.66</speed>
<course>102.3</course>
<desc>Speed 6.0 km/h Distance 6.01 km</desc>
<time>2010-10-24T11:33:02.92</time>
<name>3749</name>
</trkpt>
<trkpt lat="48.935433" lon="8.642820">
<ele>359.5</ele>
<speed>1.66</speed>
<course>96.2</course>
<desc>Speed 6.0 km/h Distance 6.02 km</desc>
<time>2010-10-24T11:33:03.92</time>
<name>3750</name>
</trkpt>
<trkpt lat="48.935432" lon="8.642843">
<ele>359.5</ele>
<speed>1.62</speed>
<course>103.2</course>
<desc>Speed 5.8 km/h Distance 6.02 km</desc>
<time>2010-10-24T11:33:04.92</time>
<name>3751</name>
</trkpt>
<trkpt lat="48.935428" lon="8.642865">
<ele>359.0</ele>
<speed>1.55</speed>
<course>102.3</course>
<desc>Speed 5.6 km/h Distance 6.02 km</desc>
<time>2010-10-24T11:33:05.92</time>
<name>3752</name>
</trkpt>
<trkpt lat="48.935425" lon="8.642888">
<ele>358.5</ele>
<speed>1.55</speed>
<course>103.2</course>
<desc>Speed 5.6 km/h Distance 6.02 km</desc>
<time>2010-10-24T11:33:06.92</time>
<name>3753</name>
</trkpt>
<trkpt lat="48.935422" lon="8.642910">
<ele>358.5</ele>
<speed>1.53</speed>
<course>95.8</course>
<desc>Speed 5.5 km/h Distance 6.02 km</desc>
<time>2010-10-24T11:33:07.92</time>
<name>3754</name>
</trkpt>
<trkpt lat="48.935420" lon="8.642935">
<ele>358.5</ele>
<speed>1.63</speed>
<course>97.2</course>
<desc>Speed 5.9 km/h Distance 6.02 km</desc>
<time>2010-10-24T11:33:08.92</time>
<name>3755</name>
</trkpt>
<trkpt lat="48.935418" lon="8.642955">
<ele>358.5</ele>
<speed>1.49</speed>
<course>96.7</course>
<desc>Speed 5.4 km/h Distance 6.03 km</desc>
<time>2010-10-24T11:33:09.92</time>
<name>3756</name>
</trkpt>
<trkpt lat="48.935417" lon="8.642977">
<ele>358.5</ele>
<speed>1.59</speed>
<course>103.2</course>
<desc>Speed 5.7 km/h Distance 6.03 km</desc>
<time>2010-10-24T11:33:10.92</time>
<name>3757</name>
</trkpt>
<trkpt lat="48.935413" lon="8.642998">
<ele>358.5</ele>
<speed>1.58</speed>
<course>96.2</course>
<desc>Speed 5.7 km/h Distance 6.03 km</desc>
<time>2010-10-24T11:33:11.92</time>
<name>3758</name>
</trkpt>
<trkpt lat="48.935412" lon="8.643022">
<ele>358.5</ele>
<speed>1.60</speed>
<course>97.2</course>
<desc>Speed 5.8 km/h Distance 6.03 km</desc>
<time>2010-10-24T11:33:12.92</time>
<name>3759</name>
</trkpt>
<trkpt lat="48.935410" lon="8.643042">
<ele>358.0</ele>
<speed>1.51</speed>
<course>96.7</course>
<desc>Speed 5.4 km/h Distance 6.03 km</desc>
<time>2010-10-24T11:33:13.92</time>
<name>3760</name>
</trkpt>
<trkpt lat="48.935408" lon="8.643063">
<ele>358.0</ele>
<speed>1.58</speed>
<course>90.0</course>
<desc>Speed 5.7 km/h Distance 6.03 km</desc>
<time>2010-10-24T11:33:14.92</time>
<name>3761</name>
</trkpt>
<trkpt lat="48.935408" lon="8.643087">
<ele>358.0</ele>
<speed>1.63</speed>
<course>96.2</course>
<desc>Speed 5.9 km/h Distance 6.04 km</desc>
<time>2010-10-24T11:33:15.92</time>
<name>3762</name>
</trkpt>
<trkpt lat="48.935407" lon="8.643110">
<ele>358.0</ele>
<speed>1.66</speed>
<course>96.7</course>
<desc>Speed 6.0 km/h Distance 6.04 km</desc>
<time>2010-10-24T11:33:16.92</time>
<name>3763</name>
</trkpt>
<trkpt lat="48.935405" lon="8.643132">
<ele>358.0</ele>
<speed>1.59</speed>
<course>90.0</course>
<desc>Speed 5.7 km/h Distance 6.04 km</desc>
<time>2010-10-24T11:33:17.92</time>
<name>3764</name>
</trkpt>
<trkpt lat="48.935405" lon="8.643155">
<ele>358.0</ele>
<speed>1.64</speed>
<course>95.8</course>
<desc>Speed 5.9 km/h Distance 6.04 km</desc>
<time>2010-10-24T11:33:18.92</time>
<name>3765</name>
</trkpt>
<trkpt lat="48.935403" lon="8.643180">
<ele>358.0</ele>
<speed>1.71</speed>
<course>103.2</course>
<desc>Speed 6.2 km/h Distance 6.04 km</desc>
<time>2010-10-24T11:33:19.92</time>
<name>3766</name>
</trkpt>
<trkpt lat="48.935400" lon="8.643202">
<ele>358.0</ele>
<speed>1.58</speed>
<course>102.3</course>
<desc>Speed 5.7 km/h Distance 6.04 km</desc>
<time>2010-10-24T11:33:20.92</time>
<name>3767</name>
</trkpt>
<trkpt lat="48.935397" lon="8.643225">
<ele>358.0</ele>
<speed>1.62</speed>
<course>96.7</course>
<desc>Speed 5.8 km/h Distance 6.05 km</desc>
<time>2010-10-24T11:33:21.92</time>
<name>3768</name>
</trkpt>
<trkpt lat="48.935395" lon="8.643247">
<ele>358.0</ele>
<speed>1.60</speed>
<course>96.2</course>
<desc>Speed 5.8 km/h Distance 6.05 km</desc>
<time>2010-10-24T11:33:22.92</time>
<name>3769</name>
</trkpt>
<trkpt lat="48.935393" lon="8.643270">
<ele>358.0</ele>
<speed>1.64</speed>
<course>95.8</course>
<desc>Speed 5.9 km/h Distance 6.05 km</desc>
<time>2010-10-24T11:33:23.92</time>
<name>3770</name>
</trkpt>
<trkpt lat="48.935392" lon="8.643295">
<ele>358.0</ele>
<speed>1.73</speed>
<course>103.2</course>
<desc>Speed 6.2 km/h Distance 6.05 km</desc>
<time>2010-10-24T11:33:24.92</time>
<name>3771</name>
</trkpt>
<trkpt lat="48.935388" lon="8.643317">
<ele>357.5</ele>
<speed>1.62</speed>
<course>96.2</course>
<desc>Speed 5.8 km/h Distance 6.05 km</desc>
<time>2010-10-24T11:33:25.92</time>
<name>3772</name>
</trkpt>
<trkpt lat="48.935387" lon="8.643340">
<ele>357.5</ele>
<speed>1.61</speed>
<course>96.2</course>
<desc>Speed 5.8 km/h Distance 6.05 km</desc>
<time>2010-10-24T11:33:26.92</time>
<name>3773</name>
</trkpt>
<trkpt lat="48.935385" lon="8.643363">
<ele>357.5</ele>
<speed>1.63</speed>
<course>96.2</course>
<desc>Speed 5.9 km/h Distance 6.06 km</desc>
<time>2010-10-24T11:33:27.92</time>
<name>3774</name>
</trkpt>
<trkpt lat="48.935383" lon="8.643387">
<ele>357.0</ele>
<speed>1.62</speed>
<course>96.2</course>
<desc>Speed 5.8 km/h Distance 6.06 km</desc>
<time>2010-10-24T11:33:28.92</time>
<name>3775</name>
</trkpt>
<trkpt lat="48.935382" lon="8.643410">
<ele>357.0</ele>
<speed>1.70</speed>
<course>90.0</course>
<desc>Speed 6.1 km/h Distance 6.06 km</desc>
<time>2010-10-24T11:33:29.92</time>
<name>3776</name>
</trkpt>
<trkpt lat="48.935382" lon="8.643435">
<ele>357.0</ele>
<speed>1.73</speed>
<course>90.0</course>
<desc>Speed 6.2 km/h Distance 6.06 km</desc>
<time>2010-10-24T11:33:30.92</time>
<name>3777</name>
</trkpt>
<trkpt lat="48.935382" lon="8.643460">
<ele>357.0</ele>
<speed>1.74</speed>
<course>90.0</course>
<desc>Speed 6.3 km/h Distance 6.06 km</desc>
<time>2010-10-24T11:33:31.92</time>
<name>3778</name>
</trkpt>
<trkpt lat="48.935382" lon="8.643483">
<ele>357.0</ele>
<speed>1.62</speed>
<course>90.0</course>
<desc>Speed 5.8 km/h Distance 6.06 km</desc>
<time>2010-10-24T11:33:32.92</time>
<name>3779</name>
</trkpt>
<trkpt lat="48.935382" lon="8.643507">
<ele>356.5</ele>
<speed>1.64</speed>
<course>95.8</course>
<desc>Speed 5.9 km/h Distance 6.07 km</desc>
<time>2010-10-24T11:33:33.92</time>
<name>3780</name>
</trkpt>
<trkpt lat="48.935380" lon="8.643532">
<ele>356.5</ele>
<speed>1.72</speed>
<course>90.0</course>
<desc>Speed 6.2 km/h Distance 6.07 km</desc>
<time>2010-10-24T11:33:34.92</time>
<name>3781</name>
</trkpt>
<trkpt lat="48.935380" lon="8.643557">
<ele>356.5</ele>
<speed>1.70</speed>
<course>90.0</course>
<desc>Speed 6.1 km/h Distance 6.07 km</desc>
<time>2010-10-24T11:33:35.92</time>
<name>3782</name>
</trkpt>
<trkpt lat="48.935380" lon="8.643580">
<ele>356.5</ele>
<speed>1.65</speed>
<course>90.0</course>
<desc>Speed 5.9 km/h Distance 6.07 km</desc>
<time>2010-10-24T11:33:36.92</time>
<name>3783</name>
</trkpt>
<trkpt lat="48.935380" lon="8.643603">
<ele>356.5</ele>
<speed>1.62</speed>
<course>90.0</course>
<desc>Speed 5.8 km/h Distance 6.07 km</desc>
<time>2010-10-24T11:33:37.92</time>
<name>3784</name>
</trkpt>
<trkpt lat="48.935380" lon="8.643627">
<ele>356.0</ele>
<speed>1.69</speed>
<course>90.0</course>
<desc>Speed 6.1 km/h Distance 6.07 km</desc>
<time>2010-10-24T11:33:38.92</time>
<name>3785</name>
</trkpt>
<trkpt lat="48.935380" lon="8.643650">
<ele>356.0</ele>
<speed>1.67</speed>
<course>90.0</course>
<desc>Speed 6.0 km/h Distance 6.08 km</desc>
<time>2010-10-24T11:33:39.92</time>
<name>3786</name>
</trkpt>
<trkpt lat="48.935380" lon="8.643673">
<ele>356.0</ele>
<speed>1.63</speed>
<course>83.8</course>
<desc>Speed 5.9 km/h Distance 6.08 km</desc>
<time>2010-10-24T11:33:40.92</time>
<name>3787</name>
</trkpt>
<trkpt lat="48.935382" lon="8.643697">
<ele>356.0</ele>
<speed>1.67</speed>
<course>76.8</course>
<desc>Speed 6.0 km/h Distance 6.08 km</desc>
<time>2010-10-24T11:33:41.92</time>
<name>3788</name>
</trkpt>
<trkpt lat="48.935385" lon="8.643718">
<ele>355.5</ele>
<speed>1.67</speed>
<course>77.7</course>
<desc>Speed 6.0 km/h Distance 6.08 km</desc>
<time>2010-10-24T11:33:42.92</time>
<name>3789</name>
</trkpt>
<trkpt lat="48.935388" lon="8.643742">
<ele>355.5</ele>
<speed>1.71</speed>
<course>77.7</course>
<desc>Speed 6.2 km/h Distance 6.08 km</desc>
<time>2010-10-24T11:33:43.92</time>
<name>3790</name>
</trkpt>
<trkpt lat="48.935392" lon="8.643765">
<ele>355.5</ele>
<speed>1.66</speed>
<course>76.8</course>
<desc>Speed 6.0 km/h Distance 6.09 km</desc>
<time>2010-10-24T11:33:44.92</time>
<name>3791</name>
</trkpt>
<trkpt lat="48.935395" lon="8.643787">
<ele>355.5</ele>
<speed>1.70</speed>
<course>83.8</course>
<desc>Speed 6.1 km/h Distance 6.09 km</desc>
<time>2010-10-24T11:33:45.92</time>
<name>3792</name>
</trkpt>
<trkpt lat="48.935397" lon="8.643810">
<ele>355.5</ele>
<speed>1.70</speed>
<course>77.7</course>
<desc>Speed 6.1 km/h Distance 6.09 km</desc>
<time>2010-10-24T11:33:46.92</time>
<name>3793</name>
</trkpt>
<trkpt lat="48.935400" lon="8.643833">
<ele>355.5</ele>
<speed>1.66</speed>
<course>76.8</course>
<desc>Speed 6.0 km/h Distance 6.09 km</desc>
<time>2010-10-24T11:33:47.92</time>
<name>3794</name>
</trkpt>
<trkpt lat="48.935403" lon="8.643855">
<ele>355.5</ele>
<speed>1.62</speed>
<course>77.7</course>
<desc>Speed 5.8 km/h Distance 6.09 km</desc>
<time>2010-10-24T11:33:48.92</time>
<name>3795</name>
</trkpt>
<trkpt lat="48.935407" lon="8.643878">
<ele>355.5</ele>
<speed>1.72</speed>
<course>77.7</course>
<desc>Speed 6.2 km/h Distance 6.09 km</desc>
<time>2010-10-24T11:33:49.92</time>
<name>3796</name>
</trkpt>
<trkpt lat="48.935410" lon="8.643902">
<ele>355.5</ele>
<speed>1.69</speed>
<course>90.0</course>
<desc>Speed 6.1 km/h Distance 6.10 km</desc>
<time>2010-10-24T11:33:50.92</time>
<name>3797</name>
</trkpt>
<trkpt lat="48.935410" lon="8.643925">
<ele>355.0</ele>
<speed>1.66</speed>
<course>77.7</course>
<desc>Speed 6.0 km/h Distance 6.10 km</desc>
<time>2010-10-24T11:33:51.92</time>
<name>3798</name>
</trkpt>
<trkpt lat="48.935413" lon="8.643948">
<ele>355.0</ele>
<speed>1.66</speed>
<course>83.8</course>
<desc>Speed 6.0 km/h Distance 6.10 km</desc>
<time>2010-10-24T11:33:52.92</time>
<name>3799</name>
</trkpt>
<trkpt lat="48.935415" lon="8.643972">
<ele>355.0</ele>
<speed>1.62</speed>
<course>76.8</course>
<desc>Speed 5.8 km/h Distance 6.10 km</desc>
<time>2010-10-24T11:33:53.92</time>
<name>3800</name>
</trkpt>
<trkpt lat="48.935418" lon="8.643993">
<ele>355.0</ele>
<speed>1.64</speed>
<course>83.8</course>
<desc>Speed 5.9 km/h Distance 6.10 km</desc>
<time>2010-10-24T11:33:54.92</time>
<name>3801</name>
</trkpt>
<trkpt lat="48.935420" lon="8.644017">
<ele>355.0</ele>
<speed>1.61</speed>
<course>76.8</course>
<desc>Speed 5.8 km/h Distance 6.10 km</desc>
<time>2010-10-24T11:33:55.92</time>
<name>3802</name>
</trkpt>
<trkpt lat="48.935423" lon="8.644038">
<ele>354.5</ele>
<speed>1.61</speed>
<course>90.0</course>
<desc>Speed 5.8 km/h Distance 6.11 km</desc>
<time>2010-10-24T11:33:56.92</time>
<name>3803</name>
</trkpt>
<trkpt lat="48.935423" lon="8.644060">
<ele>354.5</ele>
<speed>1.57</speed>
<course>83.8</course>
<desc>Speed 5.7 km/h Distance 6.11 km</desc>
<time>2010-10-24T11:33:57.92</time>
<name>3804</name>
</trkpt>
<trkpt lat="48.935425" lon="8.644083">
<ele>355.0</ele>
<speed>1.65</speed>
<course>94.8</course>
<desc>Speed 5.9 km/h Distance 6.11 km</desc>
<time>2010-10-24T11:33:58.92</time>
<name>3805</name>
</trkpt>
<trkpt lat="48.935423" lon="8.644113">
<ele>354.0</ele>
<speed>2.17</speed>
<course>33.7</course>
<desc>Speed 7.8 km/h Distance 6.11 km</desc>
<time>2010-10-24T11:33:59.92</time>
<name>3806</name>
</trkpt>
<trkpt lat="48.935430" lon="8.644120">
<ele>353.5</ele>
<speed>0.80</speed>
<course>94.8</course>
<desc>Speed 2.9 km/h Distance 6.11 km</desc>
<time>2010-10-24T11:34:00.92</time>
<name>3807</name>
</trkpt>
<trkpt lat="48.935428" lon="8.644150">
<ele>352.5</ele>
<speed>0.94</speed>
<course>94.8</course>
<desc>Speed 3.4 km/h Distance 6.11 km</desc>
<time>2010-10-24T11:34:02.48</time>
<name>3808</name>
</trkpt>
<trkpt lat="48.935428" lon="8.644150">
<ele>352.5</ele>
<speed>0.94</speed>
<course>109.7</course>
<desc>Speed 3.4 km/h Distance 6.11 km</desc>
<time>2010-10-24T11:34:02.94</time>
<name>3809</name>
</trkpt>
<trkpt lat="48.935422" lon="8.644178">
<ele>351.5</ele>
<speed>1.33</speed>
<course>110.9</course>
<desc>Speed 4.8 km/h Distance 6.12 km</desc>
<time>2010-10-24T11:34:04.41</time>
<name>3810</name>
</trkpt>
<trkpt lat="48.935417" lon="8.644198">
<ele>351.0</ele>
<speed>1.37</speed>
<course>116.9</course>
<desc>Speed 4.9 km/h Distance 6.12 km</desc>
<time>2010-10-24T11:34:05.56</time>
<name>3811</name>
</trkpt>
<trkpt lat="48.935412" lon="8.644213">
<ele>350.5</ele>
<speed>1.03</speed>
<course>127.3</course>
<desc>Speed 3.7 km/h Distance 6.12 km</desc>
<time>2010-10-24T11:34:06.39</time>
<name>3812</name>
</trkpt>
<trkpt lat="48.935403" lon="8.644230">
<ele>350.0</ele>
<speed>1.28</speed>
<course>119.0</course>
<desc>Speed 4.6 km/h Distance 6.12 km</desc>
<time>2010-10-24T11:34:07.40</time>
<name>3813</name>
</trkpt>
<trkpt lat="48.935397" lon="8.644248">
<ele>350.0</ele>
<speed>1.50</speed>
<course>127.3</course>
<desc>Speed 5.4 km/h Distance 6.12 km</desc>
<time>2010-10-24T11:34:08.38</time>
<name>3814</name>
</trkpt>
<trkpt lat="48.935388" lon="8.644265">
<ele>350.0</ele>
<speed>1.41</speed>
<course>129.7</course>
<desc>Speed 5.1 km/h Distance 6.12 km</desc>
<time>2010-10-24T11:34:09.37</time>
<name>3815</name>
</trkpt>
<trkpt lat="48.935378" lon="8.644283">
<ele>350.0</ele>
<speed>1.60</speed>
<course>136.7</course>
<desc>Speed 5.8 km/h Distance 6.13 km</desc>
<time>2010-10-24T11:34:10.36</time>
<name>3816</name>
</trkpt>
<trkpt lat="48.935367" lon="8.644300">
<ele>350.0</ele>
<speed>1.77</speed>
<course>127.3</course>
<desc>Speed 6.4 km/h Distance 6.13 km</desc>
<time>2010-10-24T11:34:11.35</time>
<name>3817</name>
</trkpt>
<trkpt lat="48.935358" lon="8.644317">
<ele>350.0</ele>
<speed>1.37</speed>
<course>133.5</course>
<desc>Speed 4.9 km/h Distance 6.13 km</desc>
<time>2010-10-24T11:34:12.34</time>
<name>3818</name>
</trkpt>
<trkpt lat="48.935350" lon="8.644330">
<ele>350.5</ele>
<speed>1.13</speed>
<course>135.5</course>
<desc>Speed 4.1 km/h Distance 6.13 km</desc>
<time>2010-10-24T11:34:13.33</time>
<name>3819</name>
</trkpt>
<trkpt lat="48.935343" lon="8.644340">
<ele>350.5</ele>
<speed>1.00</speed>
<course>123.3</course>
<desc>Speed 3.6 km/h Distance 6.13 km</desc>
<time>2010-10-24T11:34:14.33</time>
<name>3820</name>
</trkpt>
<trkpt lat="48.935338" lon="8.644352">
<ele>350.5</ele>
<speed>0.89</speed>
<course>158.5</course>
<desc>Speed 3.2 km/h Distance 6.13 km</desc>
<time>2010-10-24T11:34:15.32</time>
<name>3821</name>
</trkpt>
<trkpt lat="48.935330" lon="8.644357">
<ele>350.0</ele>
<speed>0.85</speed>
<course>167.7</course>
<desc>Speed 3.1 km/h Distance 6.13 km</desc>
<time>2010-10-24T11:34:16.32</time>
<name>3822</name>
</trkpt>
<trkpt lat="48.935310" lon="8.644363">
<ele>350.0</ele>
<speed>2.23</speed>
<course>153.1</course>
<desc>Speed 8.0 km/h Distance 6.14 km</desc>
<time>2010-10-24T11:34:17.31</time>
<name>3823</name>
</trkpt>
<trkpt lat="48.935295" lon="8.644375">
<ele>350.0</ele>
<speed>1.54</speed>
<course>149.6</course>
<desc>Speed 5.5 km/h Distance 6.14 km</desc>
<time>2010-10-24T11:34:18.30</time>
<name>3824</name>
</trkpt>
<trkpt lat="48.935280" lon="8.644388">
<ele>350.5</ele>
<speed>1.50</speed>
<course>155.1</course>
<desc>Speed 5.4 km/h Distance 6.14 km</desc>
<time>2010-10-24T11:34:19.30</time>
<name>3825</name>
</trkpt>
<trkpt lat="48.935263" lon="8.644400">
<ele>351.0</ele>
<speed>1.64</speed>
<course>146.7</course>
<desc>Speed 5.9 km/h Distance 6.14 km</desc>
<time>2010-10-24T11:34:20.30</time>
<name>3826</name>
</trkpt>
<trkpt lat="48.935248" lon="8.644415">
<ele>351.5</ele>
<speed>1.50</speed>
<course>163.4</course>
<desc>Speed 5.4 km/h Distance 6.14 km</desc>
<time>2010-10-24T11:34:21.29</time>
<name>3827</name>
</trkpt>
<trkpt lat="48.935230" lon="8.644423">
<ele>351.5</ele>
<speed>1.96</speed>
<course>167.4</course>
<desc>Speed 7.1 km/h Distance 6.15 km</desc>
<time>2010-10-24T11:34:22.28</time>
<name>3828</name>
</trkpt>
<trkpt lat="48.935215" lon="8.644428">
<ele>351.0</ele>
<speed>1.61</speed>
<course>114.5</course>
<desc>Speed 5.8 km/h Distance 6.15 km</desc>
<time>2010-10-24T11:34:23.28</time>
<name>3829</name>
</trkpt>
<trkpt lat="48.935210" lon="8.644445">
<ele>353.5</ele>
<speed>1.65</speed>
<course>156.3</course>
<desc>Speed 5.9 km/h Distance 6.15 km</desc>
<time>2010-10-24T11:34:24.27</time>
<name>3830</name>
</trkpt>
<trkpt lat="48.935195" lon="8.644455">
<ele>353.5</ele>
<speed>1.74</speed>
<course>168.3</course>
<desc>Speed 6.3 km/h Distance 6.15 km</desc>
<time>2010-10-24T11:34:25.26</time>
<name>3831</name>
</trkpt>
<trkpt lat="48.935180" lon="8.644460">
<ele>353.5</ele>
<speed>1.73</speed>
<course>163.7</course>
<desc>Speed 6.2 km/h Distance 6.15 km</desc>
<time>2010-10-24T11:34:26.25</time>
<name>3832</name>
</trkpt>
<trkpt lat="48.935165" lon="8.644467">
<ele>353.5</ele>
<speed>1.77</speed>
<course>167.8</course>
<desc>Speed 6.4 km/h Distance 6.15 km</desc>
<time>2010-10-24T11:34:27.25</time>
<name>3833</name>
</trkpt>
<trkpt lat="48.935150" lon="8.644472">
<ele>353.5</ele>
<speed>1.80</speed>
<course>171.9</course>
<desc>Speed 6.5 km/h Distance 6.16 km</desc>
<time>2010-10-24T11:34:28.24</time>
<name>3834</name>
</trkpt>
<trkpt lat="48.935135" lon="8.644475">
<ele>353.0</ele>
<speed>1.75</speed>
<course>135.5</course>
<desc>Speed 6.3 km/h Distance 6.16 km</desc>
<time>2010-10-24T11:34:29.23</time>
<name>3835</name>
</trkpt>
<trkpt lat="48.935128" lon="8.644485">
<ele>354.5</ele>
<speed>1.60</speed>
<course>178.8</course>
<desc>Speed 5.8 km/h Distance 6.16 km</desc>
<time>2010-10-24T11:34:30.23</time>
<name>3836</name>
</trkpt>
<trkpt lat="48.935115" lon="8.644485">
<ele>354.0</ele>
<speed>1.47</speed>
<course>116.6</course>
<desc>Speed 5.3 km/h Distance 6.16 km</desc>
<time>2010-10-24T11:34:31.22</time>
<name>3837</name>
</trkpt>
<trkpt lat="48.935113" lon="8.644490">
<ele>355.0</ele>
<speed>0.46</speed>
<course>161.2</course>
<desc>Speed 1.7 km/h Distance 6.16 km</desc>
<time>2010-10-24T11:34:32.22</time>
<name>3838</name>
</trkpt>
<trkpt lat="48.935110" lon="8.644492">
<ele>355.5</ele>
<speed>0.34</speed>
<course>146.3</course>
<desc>Speed 1.2 km/h Distance 6.16 km</desc>
<time>2010-10-24T11:34:33.22</time>
<name>3839</name>
</trkpt>
<trkpt lat="48.935107" lon="8.644495">
<ele>355.5</ele>
<speed>0.38</speed>
<course>76.8</course>
<desc>Speed 1.4 km/h Distance 6.16 km</desc>
<time>2010-10-24T11:34:34.21</time>
<name>3840</name>
</trkpt>
<trkpt lat="48.935110" lon="8.644517">
<ele>357.0</ele>
<speed>0.57</speed>
<course>25.4</course>
<desc>Speed 2.1 km/h Distance 6.16 km</desc>
<time>2010-10-24T11:34:56.20</time>
<name>3841</name>
</trkpt>
<trkpt lat="48.935115" lon="8.644520">
<ele>357.0</ele>
<speed>0.64</speed>
<course>142.8</course>
<desc>Speed 2.3 km/h Distance 6.16 km</desc>
<time>2010-10-24T11:34:57.20</time>
<name>3842</name>
</trkpt>
<trkpt lat="48.935113" lon="8.644522">
<ele>356.5</ele>
<speed>0.31</speed>
<course>237.1</course>
<desc>Speed 1.1 km/h Distance 6.16 km</desc>
<time>2010-10-24T11:35:00.20</time>
<name>3843</name>
</trkpt>
<trkpt lat="48.935108" lon="8.644510">
<ele>357.0</ele>
<speed>0.67</speed>
<course>213.7</course>
<desc>Speed 2.4 km/h Distance 6.16 km</desc>
<time>2010-10-24T11:35:05.19</time>
<name>3844</name>
</trkpt>
<trkpt lat="48.935102" lon="8.644503">
<ele>357.0</ele>
<speed>0.70</speed>
<course>270.0</course>
<desc>Speed 2.5 km/h Distance 6.17 km</desc>
<time>2010-10-24T11:35:06.18</time>
<name>3845</name>
</trkpt>
<trkpt lat="48.935102" lon="8.644498">
<ele>357.0</ele>
<speed>0.36</speed>
<course>121.4</course>
<desc>Speed 1.3 km/h Distance 6.17 km</desc>
<time>2010-10-24T11:35:07.18</time>
<name>3846</name>
</trkpt>
<trkpt lat="48.935098" lon="8.644507">
<ele>358.5</ele>
<speed>0.62</speed>
<course>161.8</course>
<desc>Speed 2.2 km/h Distance 6.17 km</desc>
<time>2010-10-24T11:35:13.17</time>
<name>3847</name>
</trkpt>
<trkpt lat="48.935075" lon="8.644518">
<ele>359.0</ele>
<speed>1.50</speed>
<course>168.3</course>
<desc>Speed 5.4 km/h Distance 6.17 km</desc>
<time>2010-10-24T11:35:15.17</time>
<name>3848</name>
</trkpt>
<trkpt lat="48.935060" lon="8.644523">
<ele>359.0</ele>
<speed>1.69</speed>
<course>165.4</course>
<desc>Speed 6.1 km/h Distance 6.17 km</desc>
<time>2010-10-24T11:35:16.17</time>
<name>3849</name>
</trkpt>
<trkpt lat="48.935043" lon="8.644530">
<ele>359.0</ele>
<speed>1.75</speed>
<course>171.9</course>
<desc>Speed 6.3 km/h Distance 6.17 km</desc>
<time>2010-10-24T11:35:17.17</time>
<name>3850</name>
</trkpt>
<trkpt lat="48.935028" lon="8.644533">
<ele>359.0</ele>
<speed>1.62</speed>
<course>176.2</course>
<desc>Speed 5.8 km/h Distance 6.17 km</desc>
<time>2010-10-24T11:35:18.17</time>
<name>3851</name>
</trkpt>
<trkpt lat="48.935013" lon="8.644535">
<ele>359.0</ele>
<speed>1.62</speed>
<course>168.3</course>
<desc>Speed 5.8 km/h Distance 6.18 km</desc>
<time>2010-10-24T11:35:19.16</time>
<name>3852</name>
</trkpt>
<trkpt lat="48.934998" lon="8.644540">
<ele>359.0</ele>
<speed>1.59</speed>
<course>176.2</course>
<desc>Speed 5.7 km/h Distance 6.18 km</desc>
<time>2010-10-24T11:35:20.15</time>
<name>3853</name>
</trkpt>
<trkpt lat="48.934983" lon="8.644542">
<ele>358.5</ele>
<speed>1.65</speed>
<course>177.2</course>
<desc>Speed 5.9 km/h Distance 6.18 km</desc>
<time>2010-10-24T11:35:21.39</time>
<name>3854</name>
</trkpt>
<trkpt lat="48.934967" lon="8.644543">
<ele>358.5</ele>
<speed>1.69</speed>
<course>165.1</course>
<desc>Speed 6.1 km/h Distance 6.18 km</desc>
<time>2010-10-24T11:35:22.14</time>
<name>3855</name>
</trkpt>
<trkpt lat="48.934950" lon="8.644550">
<ele>358.5</ele>
<speed>1.78</speed>
<course>169.8</course>
<desc>Speed 6.4 km/h Distance 6.18 km</desc>
<time>2010-10-24T11:35:23.14</time>
<name>3856</name>
</trkpt>
<trkpt lat="48.934932" lon="8.644555">
<ele>358.0</ele>
<speed>1.87</speed>
<course>167.4</course>
<desc>Speed 6.7 km/h Distance 6.19 km</desc>
<time>2010-10-24T11:35:24.13</time>
<name>3857</name>
</trkpt>
<trkpt lat="48.934917" lon="8.644560">
<ele>358.0</ele>
<speed>1.80</speed>
<course>167.4</course>
<desc>Speed 6.5 km/h Distance 6.19 km</desc>
<time>2010-10-24T11:35:25.12</time>
<name>3858</name>
</trkpt>
<trkpt lat="48.934902" lon="8.644565">
<ele>358.0</ele>
<speed>1.67</speed>
<course>177.2</course>
<desc>Speed 6.0 km/h Distance 6.19 km</desc>
<time>2010-10-24T11:35:26.12</time>
<name>3859</name>
</trkpt>
<trkpt lat="48.934885" lon="8.644567">
<ele>358.0</ele>
<speed>1.72</speed>
<course>174.7</course>
<desc>Speed 6.2 km/h Distance 6.19 km</desc>
<time>2010-10-24T11:35:27.12</time>
<name>3860</name>
</trkpt>
<trkpt lat="48.934872" lon="8.644568">
<ele>358.0</ele>
<speed>1.57</speed>
<course>171.9</course>
<desc>Speed 5.7 km/h Distance 6.19 km</desc>
<time>2010-10-24T11:35:28.12</time>
<name>3861</name>
</trkpt>
<trkpt lat="48.934857" lon="8.644572">
<ele>358.0</ele>
<speed>1.60</speed>
<course>172.3</course>
<desc>Speed 5.8 km/h Distance 6.19 km</desc>
<time>2010-10-24T11:35:29.12</time>
<name>3862</name>
</trkpt>
<trkpt lat="48.934840" lon="8.644575">
<ele>357.5</ele>
<speed>1.72</speed>
<course>172.3</course>
<desc>Speed 6.2 km/h Distance 6.20 km</desc>
<time>2010-10-24T11:35:30.11</time>
<name>3863</name>
</trkpt>
<trkpt lat="48.934823" lon="8.644578">
<ele>357.5</ele>
<speed>1.80</speed>
<course>171.2</course>
<desc>Speed 6.5 km/h Distance 6.20 km</desc>
<time>2010-10-24T11:35:31.11</time>
<name>3864</name>
</trkpt>
<trkpt lat="48.934808" lon="8.644582">
<ele>357.0</ele>
<speed>1.75</speed>
<course>167.4</course>
<desc>Speed 6.3 km/h Distance 6.20 km</desc>
<time>2010-10-24T11:35:32.10</time>
<name>3865</name>
</trkpt>
<trkpt lat="48.934793" lon="8.644587">
<ele>357.0</ele>
<speed>1.80</speed>
<course>165.1</course>
<desc>Speed 6.5 km/h Distance 6.20 km</desc>
<time>2010-10-24T11:35:33.10</time>
<name>3866</name>
</trkpt>
<trkpt lat="48.934777" lon="8.644593">
<ele>357.0</ele>
<speed>1.83</speed>
<course>163.7</course>
<desc>Speed 6.6 km/h Distance 6.20 km</desc>
<time>2010-10-24T11:35:34.09</time>
<name>3867</name>
</trkpt>
<trkpt lat="48.934762" lon="8.644600">
<ele>357.0</ele>
<speed>1.76</speed>
<course>166.5</course>
<desc>Speed 6.3 km/h Distance 6.20 km</desc>
<time>2010-10-24T11:35:35.09</time>
<name>3868</name>
</trkpt>
<trkpt lat="48.934748" lon="8.644605">
<ele>357.0</ele>
<speed>1.65</speed>
<course>159.1</course>
<desc>Speed 5.9 km/h Distance 6.21 km</desc>
<time>2010-10-24T11:35:36.08</time>
<name>3869</name>
</trkpt>
<trkpt lat="48.934737" lon="8.644612">
<ele>357.0</ele>
<speed>1.62</speed>
<course>161.4</course>
<desc>Speed 5.8 km/h Distance 6.21 km</desc>
<time>2010-10-24T11:35:37.08</time>
<name>3870</name>
</trkpt>
<trkpt lat="48.934720" lon="8.644620">
<ele>356.5</ele>
<speed>1.91</speed>
<course>172.3</course>
<desc>Speed 6.9 km/h Distance 6.21 km</desc>
<time>2010-10-24T11:35:38.08</time>
<name>3871</name>
</trkpt>
<trkpt lat="48.934703" lon="8.644623">
<ele>356.5</ele>
<speed>1.83</speed>
<course>161.9</course>
<desc>Speed 6.6 km/h Distance 6.21 km</desc>
<time>2010-10-24T11:35:39.07</time>
<name>3872</name>
</trkpt>
<trkpt lat="48.934690" lon="8.644630">
<ele>356.5</ele>
<speed>1.64</speed>
<course>171.0</course>
<desc>Speed 5.9 km/h Distance 6.21 km</desc>
<time>2010-10-24T11:35:40.06</time>
<name>3873</name>
</trkpt>
<trkpt lat="48.934677" lon="8.644633">
<ele>356.0</ele>
<speed>1.57</speed>
<course>171.2</course>
<desc>Speed 5.7 km/h Distance 6.21 km</desc>
<time>2010-10-24T11:35:41.06</time>
<name>3874</name>
</trkpt>
<trkpt lat="48.934662" lon="8.644637">
<ele>356.0</ele>
<speed>1.70</speed>
<course>167.4</course>
<desc>Speed 6.1 km/h Distance 6.22 km</desc>
<time>2010-10-24T11:35:42.06</time>
<name>3875</name>
</trkpt>
<trkpt lat="48.934647" lon="8.644642">
<ele>355.5</ele>
<speed>1.67</speed>
<course>171.2</course>
<desc>Speed 6.0 km/h Distance 6.22 km</desc>
<time>2010-10-24T11:35:43.06</time>
<name>3876</name>
</trkpt>
<trkpt lat="48.934632" lon="8.644645">
<ele>355.5</ele>
<speed>1.84</speed>
<course>167.4</course>
<desc>Speed 6.6 km/h Distance 6.22 km</desc>
<time>2010-10-24T11:35:44.06</time>
<name>3877</name>
</trkpt>
<trkpt lat="48.934617" lon="8.644650">
<ele>355.5</ele>
<speed>1.72</speed>
<course>172.3</course>
<desc>Speed 6.2 km/h Distance 6.22 km</desc>
<time>2010-10-24T11:35:45.05</time>
<name>3878</name>
</trkpt>
<trkpt lat="48.934600" lon="8.644653">
<ele>355.5</ele>
<speed>1.77</speed>
<course>156.7</course>
<desc>Speed 6.4 km/h Distance 6.22 km</desc>
<time>2010-10-24T11:35:46.05</time>
<name>3879</name>
</trkpt>
<trkpt lat="48.934585" lon="8.644663">
<ele>355.5</ele>
<speed>1.86</speed>
<course>157.9</course>
<desc>Speed 6.7 km/h Distance 6.22 km</desc>
<time>2010-10-24T11:35:47.05</time>
<name>3880</name>
</trkpt>
<trkpt lat="48.934572" lon="8.644672">
<ele>355.5</ele>
<speed>1.63</speed>
<course>159.1</course>
<desc>Speed 5.9 km/h Distance 6.23 km</desc>
<time>2010-10-24T11:35:48.05</time>
<name>3881</name>
</trkpt>
<trkpt lat="48.934560" lon="8.644678">
<ele>356.0</ele>
<speed>1.62</speed>
<course>163.4</course>
<desc>Speed 5.8 km/h Distance 6.23 km</desc>
<time>2010-10-24T11:35:49.04</time>
<name>3882</name>
</trkpt>
<trkpt lat="48.934545" lon="8.644685">
<ele>356.5</ele>
<speed>1.83</speed>
<course>167.8</course>
<desc>Speed 6.6 km/h Distance 6.23 km</desc>
<time>2010-10-24T11:35:50.03</time>
<name>3883</name>
</trkpt>
<trkpt lat="48.934530" lon="8.644690">
<ele>357.0</ele>
<speed>1.65</speed>
<course>167.4</course>
<desc>Speed 5.9 km/h Distance 6.23 km</desc>
<time>2010-10-24T11:35:51.03</time>
<name>3884</name>
</trkpt>
<trkpt lat="48.934515" lon="8.644695">
<ele>357.0</ele>
<speed>1.67</speed>
<course>177.2</course>
<desc>Speed 6.0 km/h Distance 6.23 km</desc>
<time>2010-10-24T11:35:52.03</time>
<name>3885</name>
</trkpt>
<trkpt lat="48.934498" lon="8.644697">
<ele>356.5</ele>
<speed>1.74</speed>
<course>183.8</course>
<desc>Speed 6.3 km/h Distance 6.23 km</desc>
<time>2010-10-24T11:35:53.03</time>
<name>3886</name>
</trkpt>
<trkpt lat="48.934483" lon="8.644695">
<ele>356.0</ele>
<speed>1.71</speed>
<course>172.3</course>
<desc>Speed 6.2 km/h Distance 6.24 km</desc>
<time>2010-10-24T11:35:54.02</time>
<name>3887</name>
</trkpt>
<trkpt lat="48.934467" lon="8.644698">
<ele>356.0</ele>
<speed>1.65</speed>
<course>176.2</course>
<desc>Speed 5.9 km/h Distance 6.24 km</desc>
<time>2010-10-24T11:35:55.01</time>
<name>3888</name>
</trkpt>
<trkpt lat="48.934452" lon="8.644700">
<ele>355.5</ele>
<speed>1.75</speed>
<course>177.2</course>
<desc>Speed 6.3 km/h Distance 6.24 km</desc>
<time>2010-10-24T11:35:56.00</time>
<name>3889</name>
</trkpt>
<trkpt lat="48.934435" lon="8.644700">
<ele>355.0</ele>
<speed>1.73</speed>
<course>187.5</course>
<desc>Speed 6.2 km/h Distance 6.24 km</desc>
<time>2010-10-24T11:35:57.01</time>
<name>3890</name>
</trkpt>
<trkpt lat="48.934420" lon="8.644697">
<ele>355.0</ele>
<speed>1.75</speed>
<course>180.0</course>
<desc>Speed 6.3 km/h Distance 6.24 km</desc>
<time>2010-10-24T11:35:58.00</time>
<name>3891</name>
</trkpt>
<trkpt lat="48.934402" lon="8.644697">
<ele>354.0</ele>
<speed>1.94</speed>
<course>176.2</course>
<desc>Speed 7.0 km/h Distance 6.25 km</desc>
<time>2010-10-24T11:35:59.00</time>
<name>3892</name>
</trkpt>
<trkpt lat="48.934387" lon="8.644698">
<ele>354.0</ele>
<speed>1.60</speed>
<course>175.3</course>
<desc>Speed 5.8 km/h Distance 6.25 km</desc>
<time>2010-10-24T11:35:59.99</time>
<name>3893</name>
</trkpt>
<trkpt lat="48.934375" lon="8.644698">
<ele>354.5</ele>
<speed>1.36</speed>
<course>186.6</course>
<desc>Speed 4.9 km/h Distance 6.25 km</desc>
<time>2010-10-24T11:36:00.99</time>
<name>3894</name>
</trkpt>
<trkpt lat="48.934365" lon="8.644697">
<ele>355.0</ele>
<speed>1.23</speed>
<course>183.8</course>
<desc>Speed 4.4 km/h Distance 6.25 km</desc>
<time>2010-10-24T11:36:01.98</time>
<name>3895</name>
</trkpt>
<trkpt lat="48.934350" lon="8.644695">
<ele>354.5</ele>
<speed>1.71</speed>
<course>184.7</course>
<desc>Speed 6.2 km/h Distance 6.25 km</desc>
<time>2010-10-24T11:36:02.98</time>
<name>3896</name>
</trkpt>
<trkpt lat="48.934338" lon="8.644693">
<ele>354.0</ele>
<speed>1.45</speed>
<course>176.1</course>
<desc>Speed 5.2 km/h Distance 6.25 km</desc>
<time>2010-10-24T11:36:03.98</time>
<name>3897</name>
</trkpt>
<trkpt lat="48.934325" lon="8.644695">
<ele>354.0</ele>
<speed>1.51</speed>
<course>157.7</course>
<desc>Speed 5.4 km/h Distance 6.25 km</desc>
<time>2010-10-24T11:36:04.98</time>
<name>3898</name>
</trkpt>
<trkpt lat="48.934312" lon="8.644703">
<ele>354.5</ele>
<speed>1.64</speed>
<course>164.0</course>
<desc>Speed 5.9 km/h Distance 6.26 km</desc>
<time>2010-10-24T11:36:05.97</time>
<name>3899</name>
</trkpt>
<trkpt lat="48.934300" lon="8.644708">
<ele>354.5</ele>
<speed>1.36</speed>
<course>167.8</course>
<desc>Speed 4.9 km/h Distance 6.26 km</desc>
<time>2010-10-24T11:36:06.96</time>
<name>3900</name>
</trkpt>
<trkpt lat="48.934285" lon="8.644713">
<ele>354.0</ele>
<speed>1.71</speed>
<course>198.1</course>
<desc>Speed 6.2 km/h Distance 6.26 km</desc>
<time>2010-10-24T11:36:07.96</time>
<name>3901</name>
</trkpt>
<trkpt lat="48.934272" lon="8.644707">
<ele>354.0</ele>
<speed>1.77</speed>
<course>186.6</course>
<desc>Speed 6.4 km/h Distance 6.26 km</desc>
<time>2010-10-24T11:36:08.96</time>
<name>3902</name>
</trkpt>
<trkpt lat="48.934262" lon="8.644705">
<ele>354.5</ele>
<speed>1.42</speed>
<course>213.2</course>
<desc>Speed 5.1 km/h Distance 6.26 km</desc>
<time>2010-10-24T11:36:09.95</time>
<name>3903</name>
</trkpt>
<trkpt lat="48.934253" lon="8.644697">
<ele>354.5</ele>
<speed>1.17</speed>
<course>220.9</course>
<desc>Speed 4.2 km/h Distance 6.26 km</desc>
<time>2010-10-24T11:36:10.95</time>
<name>3904</name>
</trkpt>
<trkpt lat="48.934248" lon="8.644690">
<ele>354.5</ele>
<speed>0.64</speed>
<course>18.1</course>
<desc>Speed 2.3 km/h Distance 6.26 km</desc>
<time>2010-10-24T11:36:11.94</time>
<name>3905</name>
</trkpt>
<trkpt lat="48.934262" lon="8.644697">
<ele>355.5</ele>
<speed>1.51</speed>
<course>49.7</course>
<desc>Speed 5.4 km/h Distance 6.27 km</desc>
<time>2010-10-24T11:36:12.94</time>
<name>3906</name>
</trkpt>
<trkpt lat="48.934270" lon="8.644712">
<ele>355.5</ele>
<speed>1.38</speed>
<course>63.1</course>
<desc>Speed 5.0 km/h Distance 6.27 km</desc>
<time>2010-10-24T11:36:13.94</time>
<name>3907</name>
</trkpt>
<trkpt lat="48.934277" lon="8.644732">
<ele>355.5</ele>
<speed>1.51</speed>
<course>69.1</course>
<desc>Speed 5.4 km/h Distance 6.27 km</desc>
<time>2010-10-24T11:36:14.93</time>
<name>3908</name>
</trkpt>
<trkpt lat="48.934282" lon="8.644752">
<ele>356.0</ele>
<speed>1.52</speed>
<course>76.8</course>
<desc>Speed 5.5 km/h Distance 6.27 km</desc>
<time>2010-10-24T11:36:15.93</time>
<name>3909</name>
</trkpt>
<trkpt lat="48.934285" lon="8.644773">
<ele>356.0</ele>
<speed>1.52</speed>
<course>64.9</course>
<desc>Speed 5.5 km/h Distance 6.27 km</desc>
<time>2010-10-24T11:36:16.92</time>
<name>3910</name>
</trkpt>
<trkpt lat="48.934292" lon="8.644795">
<ele>356.0</ele>
<speed>1.66</speed>
<course>63.1</course>
<desc>Speed 6.0 km/h Distance 6.27 km</desc>
<time>2010-10-24T11:36:17.92</time>
<name>3911</name>
</trkpt>
<trkpt lat="48.934298" lon="8.644815">
<ele>356.5</ele>
<speed>1.47</speed>
<course>74.5</course>
<desc>Speed 5.3 km/h Distance 6.27 km</desc>
<time>2010-10-24T11:36:18.92</time>
<name>3912</name>
</trkpt>
<trkpt lat="48.934302" lon="8.644833">
<ele>356.0</ele>
<speed>1.37</speed>
<course>82.1</course>
<desc>Speed 4.9 km/h Distance 6.28 km</desc>
<time>2010-10-24T11:36:19.92</time>
<name>3913</name>
</trkpt>
<trkpt lat="48.934303" lon="8.644852">
<ele>356.0</ele>
<speed>1.44</speed>
<course>75.8</course>
<desc>Speed 5.2 km/h Distance 6.28 km</desc>
<time>2010-10-24T11:36:20.92</time>
<name>3914</name>
</trkpt>
<trkpt lat="48.934307" lon="8.644872">
<ele>356.0</ele>
<speed>1.49</speed>
<course>82.8</course>
<desc>Speed 5.4 km/h Distance 6.28 km</desc>
<time>2010-10-24T11:36:21.91</time>
<name>3915</name>
</trkpt>
<trkpt lat="48.934308" lon="8.644892">
<ele>356.0</ele>
<speed>1.47</speed>
<course>90.0</course>
<desc>Speed 5.3 km/h Distance 6.28 km</desc>
<time>2010-10-24T11:36:22.91</time>
<name>3916</name>
</trkpt>
<trkpt lat="48.934308" lon="8.644912">
<ele>355.5</ele>
<speed>1.46</speed>
<course>90.0</course>
<desc>Speed 5.3 km/h Distance 6.28 km</desc>
<time>2010-10-24T11:36:23.90</time>
<name>3917</name>
</trkpt>
<trkpt lat="48.934308" lon="8.644930">
<ele>356.0</ele>
<speed>1.39</speed>
<course>82.8</course>
<desc>Speed 5.0 km/h Distance 6.28 km</desc>
<time>2010-10-24T11:36:24.90</time>
<name>3918</name>
</trkpt>
<trkpt lat="48.934310" lon="8.644950">
<ele>356.0</ele>
<speed>1.49</speed>
<course>90.0</course>
<desc>Speed 5.4 km/h Distance 6.28 km</desc>
<time>2010-10-24T11:36:25.89</time>
<name>3919</name>
</trkpt>
<trkpt lat="48.934310" lon="8.644972">
<ele>355.5</ele>
<speed>1.51</speed>
<course>75.8</course>
<desc>Speed 5.4 km/h Distance 6.29 km</desc>
<time>2010-10-24T11:36:26.89</time>
<name>3920</name>
</trkpt>
<trkpt lat="48.934313" lon="8.644992">
<ele>356.0</ele>
<speed>1.53</speed>
<course>75.8</course>
<desc>Speed 5.5 km/h Distance 6.29 km</desc>
<time>2010-10-24T11:36:27.88</time>
<name>3921</name>
</trkpt>
<trkpt lat="48.934317" lon="8.645012">
<ele>356.5</ele>
<speed>1.39</speed>
<course>104.2</course>
<desc>Speed 5.0 km/h Distance 6.29 km</desc>
<time>2010-10-24T11:36:28.88</time>
<name>3922</name>
</trkpt>
<trkpt lat="48.934313" lon="8.645032">
<ele>356.0</ele>
<speed>1.55</speed>
<course>104.2</course>
<desc>Speed 5.6 km/h Distance 6.29 km</desc>
<time>2010-10-24T11:36:29.87</time>
<name>3923</name>
</trkpt>
<trkpt lat="48.934310" lon="8.645052">
<ele>356.0</ele>
<speed>1.50</speed>
<course>97.2</course>
<desc>Speed 5.4 km/h Distance 6.29 km</desc>
<time>2010-10-24T11:36:30.86</time>
<name>3924</name>
</trkpt>
<trkpt lat="48.934308" lon="8.645072">
<ele>356.0</ele>
<speed>1.54</speed>
<course>112.6</course>
<desc>Speed 5.5 km/h Distance 6.29 km</desc>
<time>2010-10-24T11:36:31.86</time>
<name>3925</name>
</trkpt>
<trkpt lat="48.934303" lon="8.645090">
<ele>356.0</ele>
<speed>1.48</speed>
<course>104.2</course>
<desc>Speed 5.3 km/h Distance 6.30 km</desc>
<time>2010-10-24T11:36:32.87</time>
<name>3926</name>
</trkpt>
<trkpt lat="48.934300" lon="8.645110">
<ele>356.0</ele>
<speed>1.46</speed>
<course>97.2</course>
<desc>Speed 5.3 km/h Distance 6.30 km</desc>
<time>2010-10-24T11:36:33.85</time>
<name>3927</name>
</trkpt>
<trkpt lat="48.934298" lon="8.645130">
<ele>356.0</ele>
<speed>1.50</speed>
<course>97.2</course>
<desc>Speed 5.4 km/h Distance 6.30 km</desc>
<time>2010-10-24T11:36:34.84</time>
<name>3928</name>
</trkpt>
<trkpt lat="48.934297" lon="8.645150">
<ele>356.0</ele>
<speed>1.48</speed>
<course>97.2</course>
<desc>Speed 5.3 km/h Distance 6.30 km</desc>
<time>2010-10-24T11:36:35.84</time>
<name>3929</name>
</trkpt>
<trkpt lat="48.934295" lon="8.645170">
<ele>356.0</ele>
<speed>1.50</speed>
<course>114.6</course>
<desc>Speed 5.4 km/h Distance 6.30 km</desc>
<time>2010-10-24T11:36:36.84</time>
<name>3930</name>
</trkpt>
<trkpt lat="48.934290" lon="8.645187">
<ele>356.0</ele>
<speed>1.39</speed>
<course>106.9</course>
<desc>Speed 5.0 km/h Distance 6.30 km</desc>
<time>2010-10-24T11:36:37.83</time>
<name>3931</name>
</trkpt>
<trkpt lat="48.934287" lon="8.645203">
<ele>355.5</ele>
<speed>1.38</speed>
<course>97.9</course>
<desc>Speed 5.0 km/h Distance 6.30 km</desc>
<time>2010-10-24T11:36:38.83</time>
<name>3932</name>
</trkpt>
<trkpt lat="48.934285" lon="8.645222">
<ele>355.5</ele>
<speed>1.32</speed>
<course>97.9</course>
<desc>Speed 4.8 km/h Distance 6.31 km</desc>
<time>2010-10-24T11:36:39.83</time>
<name>3933</name>
</trkpt>
<trkpt lat="48.934283" lon="8.645240">
<ele>356.0</ele>
<speed>1.37</speed>
<course>127.3</course>
<desc>Speed 4.9 km/h Distance 6.31 km</desc>
<time>2010-10-24T11:36:40.82</time>
<name>3934</name>
</trkpt>
<trkpt lat="48.934275" lon="8.645257">
<ele>356.0</ele>
<speed>1.54</speed>
<course>97.9</course>
<desc>Speed 5.5 km/h Distance 6.31 km</desc>
<time>2010-10-24T11:36:41.82</time>
<name>3935</name>
</trkpt>
<trkpt lat="48.934273" lon="8.645275">
<ele>356.5</ele>
<speed>1.36</speed>
<course>97.9</course>
<desc>Speed 4.9 km/h Distance 6.31 km</desc>
<time>2010-10-24T11:36:42.81</time>
<name>3936</name>
</trkpt>
<trkpt lat="48.934272" lon="8.645293">
<ele>357.0</ele>
<speed>1.42</speed>
<course>104.2</course>
<desc>Speed 5.1 km/h Distance 6.31 km</desc>
<time>2010-10-24T11:36:43.81</time>
<name>3937</name>
</trkpt>
<trkpt lat="48.934268" lon="8.645313">
<ele>357.0</ele>
<speed>1.55</speed>
<course>112.5</course>
<desc>Speed 5.6 km/h Distance 6.31 km</desc>
<time>2010-10-24T11:36:44.80</time>
<name>3938</name>
</trkpt>
<trkpt lat="48.934263" lon="8.645332">
<ele>357.0</ele>
<speed>1.46</speed>
<course>114.6</course>
<desc>Speed 5.3 km/h Distance 6.31 km</desc>
<time>2010-10-24T11:36:45.79</time>
<name>3939</name>
</trkpt>
<trkpt lat="48.934258" lon="8.645348">
<ele>357.0</ele>
<speed>1.39</speed>
<course>105.5</course>
<desc>Speed 5.0 km/h Distance 6.32 km</desc>
<time>2010-10-24T11:36:46.79</time>
<name>3940</name>
</trkpt>
<trkpt lat="48.934255" lon="8.645367">
<ele>357.0</ele>
<speed>1.45</speed>
<course>105.5</course>
<desc>Speed 5.2 km/h Distance 6.32 km</desc>
<time>2010-10-24T11:36:47.78</time>
<name>3941</name>
</trkpt>
<trkpt lat="48.934252" lon="8.645385">
<ele>357.0</ele>
<speed>1.48</speed>
<course>119.0</course>
<desc>Speed 5.3 km/h Distance 6.32 km</desc>
<time>2010-10-24T11:36:48.78</time>
<name>3942</name>
</trkpt>
<trkpt lat="48.934245" lon="8.645403">
<ele>357.0</ele>
<speed>1.53</speed>
<course>112.6</course>
<desc>Speed 5.5 km/h Distance 6.32 km</desc>
<time>2010-10-24T11:36:49.78</time>
<name>3943</name>
</trkpt>
<trkpt lat="48.934240" lon="8.645422">
<ele>357.0</ele>
<speed>1.46</speed>
<course>114.5</course>
<desc>Speed 5.3 km/h Distance 6.32 km</desc>
<time>2010-10-24T11:36:50.77</time>
<name>3944</name>
</trkpt>
<trkpt lat="48.934235" lon="8.645438">
<ele>357.0</ele>
<speed>1.37</speed>
<course>112.6</course>
<desc>Speed 4.9 km/h Distance 6.32 km</desc>
<time>2010-10-24T11:36:51.77</time>
<name>3945</name>
</trkpt>
<trkpt lat="48.934230" lon="8.645457">
<ele>357.0</ele>
<speed>1.39</speed>
<course>114.5</course>
<desc>Speed 5.0 km/h Distance 6.32 km</desc>
<time>2010-10-24T11:36:52.76</time>
<name>3946</name>
</trkpt>
<trkpt lat="48.934225" lon="8.645473">
<ele>357.0</ele>
<speed>1.40</speed>
<course>112.6</course>
<desc>Speed 5.0 km/h Distance 6.32 km</desc>
<time>2010-10-24T11:36:53.76</time>
<name>3947</name>
</trkpt>
<trkpt lat="48.934220" lon="8.645492">
<ele>357.0</ele>
<speed>1.47</speed>
<course>112.5</course>
<desc>Speed 5.3 km/h Distance 6.33 km</desc>
<time>2010-10-24T11:36:54.75</time>
<name>3948</name>
</trkpt>
<trkpt lat="48.934215" lon="8.645510">
<ele>357.0</ele>
<speed>1.45</speed>
<course>110.8</course>
<desc>Speed 5.2 km/h Distance 6.33 km</desc>
<time>2010-10-24T11:36:55.75</time>
<name>3949</name>
</trkpt>
<trkpt lat="48.934210" lon="8.645530">
<ele>357.0</ele>
<speed>1.49</speed>
<course>121.3</course>
<desc>Speed 5.4 km/h Distance 6.33 km</desc>
<time>2010-10-24T11:36:56.75</time>
<name>3950</name>
</trkpt>
<trkpt lat="48.934203" lon="8.645547">
<ele>357.0</ele>
<speed>1.45</speed>
<course>105.5</course>
<desc>Speed 5.2 km/h Distance 6.33 km</desc>
<time>2010-10-24T11:36:57.75</time>
<name>3951</name>
</trkpt>
<trkpt lat="48.934200" lon="8.645565">
<ele>357.0</ele>
<speed>1.46</speed>
<course>110.8</course>
<desc>Speed 5.3 km/h Distance 6.33 km</desc>
<time>2010-10-24T11:36:58.74</time>
<name>3952</name>
</trkpt>
<trkpt lat="48.934195" lon="8.645585">
<ele>357.0</ele>
<speed>1.44</speed>
<course>105.5</course>
<desc>Speed 5.2 km/h Distance 6.33 km</desc>
<time>2010-10-24T11:36:59.73</time>
<name>3953</name>
</trkpt>
<trkpt lat="48.934192" lon="8.645603">
<ele>357.5</ele>
<speed>1.47</speed>
<course>119.0</course>
<desc>Speed 5.3 km/h Distance 6.34 km</desc>
<time>2010-10-24T11:37:00.73</time>
<name>3954</name>
</trkpt>
<trkpt lat="48.934185" lon="8.645622">
<ele>357.5</ele>
<speed>1.49</speed>
<course>110.8</course>
<desc>Speed 5.4 km/h Distance 6.34 km</desc>
<time>2010-10-24T11:37:01.72</time>
<name>3955</name>
</trkpt>
<trkpt lat="48.934180" lon="8.645642">
<ele>357.5</ele>
<speed>1.52</speed>
<course>112.5</course>
<desc>Speed 5.5 km/h Distance 6.34 km</desc>
<time>2010-10-24T11:37:02.72</time>
<name>3956</name>
</trkpt>
<trkpt lat="48.934175" lon="8.645660">
<ele>357.5</ele>
<speed>1.48</speed>
<course>119.0</course>
<desc>Speed 5.3 km/h Distance 6.34 km</desc>
<time>2010-10-24T11:37:03.72</time>
<name>3957</name>
</trkpt>
<trkpt lat="48.934168" lon="8.645678">
<ele>357.5</ele>
<speed>1.46</speed>
<course>112.6</course>
<desc>Speed 5.3 km/h Distance 6.34 km</desc>
<time>2010-10-24T11:37:04.71</time>
<name>3958</name>
</trkpt>
<trkpt lat="48.934163" lon="8.645697">
<ele>357.5</ele>
<speed>1.37</speed>
<course>119.0</course>
<desc>Speed 4.9 km/h Distance 6.34 km</desc>
<time>2010-10-24T11:37:05.71</time>
<name>3959</name>
</trkpt>
<trkpt lat="48.934157" lon="8.645715">
<ele>357.5</ele>
<speed>1.47</speed>
<course>119.0</course>
<desc>Speed 5.3 km/h Distance 6.34 km</desc>
<time>2010-10-24T11:37:06.70</time>
<name>3960</name>
</trkpt>
<trkpt lat="48.934150" lon="8.645733">
<ele>357.5</ele>
<speed>1.50</speed>
<course>116.9</course>
<desc>Speed 5.4 km/h Distance 6.35 km</desc>
<time>2010-10-24T11:37:07.70</time>
<name>3961</name>
</trkpt>
<trkpt lat="48.934143" lon="8.645753">
<ele>357.5</ele>
<speed>1.55</speed>
<course>110.8</course>
<desc>Speed 5.6 km/h Distance 6.35 km</desc>
<time>2010-10-24T11:37:08.69</time>
<name>3962</name>
</trkpt>
<trkpt lat="48.934138" lon="8.645773">
<ele>357.5</ele>
<speed>1.50</speed>
<course>116.9</course>
<desc>Speed 5.4 km/h Distance 6.35 km</desc>
<time>2010-10-24T11:37:09.68</time>
<name>3963</name>
</trkpt>
<trkpt lat="48.934132" lon="8.645793">
<ele>357.5</ele>
<speed>1.52</speed>
<course>110.8</course>
<desc>Speed 5.5 km/h Distance 6.35 km</desc>
<time>2010-10-24T11:37:10.67</time>
<name>3964</name>
</trkpt>
<trkpt lat="48.934127" lon="8.645813">
<ele>357.5</ele>
<speed>1.50</speed>
<course>112.5</course>
<desc>Speed 5.4 km/h Distance 6.35 km</desc>
<time>2010-10-24T11:37:11.67</time>
<name>3965</name>
</trkpt>
<trkpt lat="48.934122" lon="8.645832">
<ele>358.0</ele>
<speed>1.41</speed>
<course>124.1</course>
<desc>Speed 5.1 km/h Distance 6.35 km</desc>
<time>2010-10-24T11:37:12.66</time>
<name>3966</name>
</trkpt>
<trkpt lat="48.934115" lon="8.645847">
<ele>358.0</ele>
<speed>1.23</speed>
<course>116.9</course>
<desc>Speed 4.4 km/h Distance 6.35 km</desc>
<time>2010-10-24T11:37:13.66</time>
<name>3967</name>
</trkpt>
<trkpt lat="48.934110" lon="8.645862">
<ele>358.0</ele>
<speed>1.22</speed>
<course>117.4</course>
<desc>Speed 4.4 km/h Distance 6.36 km</desc>
<time>2010-10-24T11:37:14.66</time>
<name>3968</name>
</trkpt>
<trkpt lat="48.934108" lon="8.645867">
<ele>358.0</ele>
<speed>0.40</speed>
<course>51.9</course>
<desc>Speed 1.4 km/h Distance 6.36 km</desc>
<time>2010-10-24T11:37:15.66</time>
<name>3969</name>
</trkpt>
<trkpt lat="48.934110" lon="8.645870">
<ele>357.5</ele>
<speed>0.50</speed>
<course>90.0</course>
<desc>Speed 1.8 km/h Distance 6.36 km</desc>
<time>2010-10-24T11:37:17.65</time>
<name>3970</name>
</trkpt>
<trkpt lat="48.934110" lon="8.645883">
<ele>357.5</ele>
<speed>1.01</speed>
<course>114.5</course>
<desc>Speed 3.6 km/h Distance 6.36 km</desc>
<time>2010-10-24T11:37:18.64</time>
<name>3971</name>
</trkpt>
<trkpt lat="48.934105" lon="8.645900">
<ele>357.5</ele>
<speed>1.32</speed>
<course>112.6</course>
<desc>Speed 4.8 km/h Distance 6.36 km</desc>
<time>2010-10-24T11:37:19.64</time>
<name>3972</name>
</trkpt>
<trkpt lat="48.934100" lon="8.645918">
<ele>357.5</ele>
<speed>1.42</speed>
<course>104.2</course>
<desc>Speed 5.1 km/h Distance 6.36 km</desc>
<time>2010-10-24T11:37:20.63</time>
<name>3973</name>
</trkpt>
<trkpt lat="48.934097" lon="8.645938">
<ele>358.0</ele>
<speed>1.48</speed>
<course>96.7</course>
<desc>Speed 5.3 km/h Distance 6.36 km</desc>
<time>2010-10-24T11:37:21.63</time>
<name>3974</name>
</trkpt>
<trkpt lat="48.934095" lon="8.645960">
<ele>358.5</ele>
<speed>1.50</speed>
<course>90.0</course>
<desc>Speed 5.4 km/h Distance 6.36 km</desc>
<time>2010-10-24T11:37:22.63</time>
<name>3975</name>
</trkpt>
<trkpt lat="48.934095" lon="8.645982">
<ele>359.0</ele>
<speed>1.48</speed>
<course>105.4</course>
<desc>Speed 5.3 km/h Distance 6.37 km</desc>
<time>2010-10-24T11:37:23.62</time>
<name>3976</name>
</trkpt>
<trkpt lat="48.934092" lon="8.646000">
<ele>359.5</ele>
<speed>1.39</speed>
<course>104.2</course>
<desc>Speed 5.0 km/h Distance 6.37 km</desc>
<time>2010-10-24T11:37:24.61</time>
<name>3977</name>
</trkpt>
<trkpt lat="48.934088" lon="8.646020">
<ele>359.5</ele>
<speed>1.42</speed>
<course>104.2</course>
<desc>Speed 5.1 km/h Distance 6.37 km</desc>
<time>2010-10-24T11:37:25.60</time>
<name>3978</name>
</trkpt>
<trkpt lat="48.934085" lon="8.646040">
<ele>360.0</ele>
<speed>1.41</speed>
<course>119.0</course>
<desc>Speed 5.1 km/h Distance 6.37 km</desc>
<time>2010-10-24T11:37:26.60</time>
<name>3979</name>
</trkpt>
<trkpt lat="48.934078" lon="8.646058">
<ele>360.0</ele>
<speed>1.39</speed>
<course>112.6</course>
<desc>Speed 5.0 km/h Distance 6.37 km</desc>
<time>2010-10-24T11:37:27.60</time>
<name>3980</name>
</trkpt>
<trkpt lat="48.934073" lon="8.646077">
<ele>360.0</ele>
<speed>1.45</speed>
<course>106.9</course>
<desc>Speed 5.2 km/h Distance 6.37 km</desc>
<time>2010-10-24T11:37:28.58</time>
<name>3981</name>
</trkpt>
<trkpt lat="48.934070" lon="8.646093">
<ele>360.0</ele>
<speed>1.26</speed>
<course>119.0</course>
<desc>Speed 4.5 km/h Distance 6.37 km</desc>
<time>2010-10-24T11:37:29.57</time>
<name>3982</name>
</trkpt>
<trkpt lat="48.934063" lon="8.646112">
<ele>360.0</ele>
<speed>1.38</speed>
<course>112.5</course>
<desc>Speed 5.0 km/h Distance 6.38 km</desc>
<time>2010-10-24T11:37:30.57</time>
<name>3983</name>
</trkpt>
<trkpt lat="48.934058" lon="8.646130">
<ele>360.5</ele>
<speed>1.46</speed>
<course>127.3</course>
<desc>Speed 5.3 km/h Distance 6.38 km</desc>
<time>2010-10-24T11:37:31.56</time>
<name>3984</name>
</trkpt>
<trkpt lat="48.934050" lon="8.646147">
<ele>360.5</ele>
<speed>1.59</speed>
<course>127.3</course>
<desc>Speed 5.7 km/h Distance 6.38 km</desc>
<time>2010-10-24T11:37:32.56</time>
<name>3985</name>
</trkpt>
<trkpt lat="48.934042" lon="8.646163">
<ele>360.5</ele>
<speed>1.54</speed>
<course>141.9</course>
<desc>Speed 5.5 km/h Distance 6.38 km</desc>
<time>2010-10-24T11:37:33.55</time>
<name>3986</name>
</trkpt>
<trkpt lat="48.934033" lon="8.646173">
<ele>361.0</ele>
<speed>1.12</speed>
<course>110.9</course>
<desc>Speed 4.0 km/h Distance 6.38 km</desc>
<time>2010-10-24T11:37:34.56</time>
<name>3987</name>
</trkpt>
<trkpt lat="48.934030" lon="8.646187">
<ele>361.0</ele>
<speed>0.99</speed>
<course>114.6</course>
<desc>Speed 3.6 km/h Distance 6.38 km</desc>
<time>2010-10-24T11:37:35.54</time>
<name>3988</name>
</trkpt>
<trkpt lat="48.934025" lon="8.646203">
<ele>361.0</ele>
<speed>1.30</speed>
<course>110.8</course>
<desc>Speed 4.7 km/h Distance 6.38 km</desc>
<time>2010-10-24T11:37:36.54</time>
<name>3989</name>
</trkpt>
<trkpt lat="48.934020" lon="8.646223">
<ele>361.5</ele>
<speed>1.48</speed>
<course>104.2</course>
<desc>Speed 5.3 km/h Distance 6.39 km</desc>
<time>2010-10-24T11:37:37.54</time>
<name>3990</name>
</trkpt>
<trkpt lat="48.934017" lon="8.646243">
<ele>361.5</ele>
<speed>1.50</speed>
<course>102.3</course>
<desc>Speed 5.4 km/h Distance 6.39 km</desc>
<time>2010-10-24T11:37:38.54</time>
<name>3991</name>
</trkpt>
<trkpt lat="48.934013" lon="8.646267">
<ele>362.0</ele>
<speed>1.57</speed>
<course>120.3</course>
<desc>Speed 5.7 km/h Distance 6.39 km</desc>
<time>2010-10-24T11:37:39.54</time>
<name>3992</name>
</trkpt>
<trkpt lat="48.934005" lon="8.646288">
<ele>362.5</ele>
<speed>1.75</speed>
<course>127.3</course>
<desc>Speed 6.3 km/h Distance 6.39 km</desc>
<time>2010-10-24T11:37:40.54</time>
<name>3993</name>
</trkpt>
<trkpt lat="48.933997" lon="8.646305">
<ele>363.0</ele>
<speed>1.53</speed>
<course>127.2</course>
<desc>Speed 5.5 km/h Distance 6.39 km</desc>
<time>2010-10-24T11:37:41.53</time>
<name>3994</name>
</trkpt>
<trkpt lat="48.933988" lon="8.646322">
<ele>363.0</ele>
<speed>1.51</speed>
<course>127.2</course>
<desc>Speed 5.4 km/h Distance 6.39 km</desc>
<time>2010-10-24T11:37:42.53</time>
<name>3995</name>
</trkpt>
<trkpt lat="48.933980" lon="8.646338">
<ele>363.5</ele>
<speed>1.46</speed>
<course>124.7</course>
<desc>Speed 5.3 km/h Distance 6.39 km</desc>
<time>2010-10-24T11:37:43.52</time>
<name>3996</name>
</trkpt>
<trkpt lat="48.933972" lon="8.646357">
<ele>364.0</ele>
<speed>1.61</speed>
<course>132.6</course>
<desc>Speed 5.8 km/h Distance 6.40 km</desc>
<time>2010-10-24T11:37:44.52</time>
<name>3997</name>
</trkpt>
<trkpt lat="48.933962" lon="8.646373">
<ele>364.0</ele>
<speed>1.50</speed>
<course>127.3</course>
<desc>Speed 5.4 km/h Distance 6.40 km</desc>
<time>2010-10-24T11:37:45.51</time>
<name>3998</name>
</trkpt>
<trkpt lat="48.933955" lon="8.646387">
<ele>364.5</ele>
<speed>1.26</speed>
<course>119.0</course>
<desc>Speed 4.5 km/h Distance 6.40 km</desc>
<time>2010-10-24T11:37:46.51</time>
<name>3999</name>
</trkpt>
<trkpt lat="48.933948" lon="8.646405">
<ele>364.5</ele>
<speed>1.48</speed>
<course>105.4</course>
<desc>Speed 5.3 km/h Distance 6.40 km</desc>
<time>2010-10-24T11:37:47.50</time>
<name>4000</name>
</trkpt>
<trkpt lat="48.933945" lon="8.646423">
<ele>365.0</ele>
<speed>1.34</speed>
<course>106.9</course>
<desc>Speed 4.8 km/h Distance 6.40 km</desc>
<time>2010-10-24T11:37:48.50</time>
<name>4001</name>
</trkpt>
<trkpt lat="48.933942" lon="8.646440">
<ele>365.0</ele>
<speed>1.23</speed>
<course>105.5</course>
<desc>Speed 4.4 km/h Distance 6.40 km</desc>
<time>2010-10-24T11:37:49.49</time>
<name>4002</name>
</trkpt>
<trkpt lat="48.933938" lon="8.646458">
<ele>365.5</ele>
<speed>1.39</speed>
<course>97.9</course>
<desc>Speed 5.0 km/h Distance 6.40 km</desc>
<time>2010-10-24T11:37:50.49</time>
<name>4003</name>
</trkpt>
<trkpt lat="48.933937" lon="8.646477">
<ele>365.5</ele>
<speed>1.37</speed>
<course>96.7</course>
<desc>Speed 4.9 km/h Distance 6.41 km</desc>
<time>2010-10-24T11:37:51.49</time>
<name>4004</name>
</trkpt>
<trkpt lat="48.933935" lon="8.646498">
<ele>366.0</ele>
<speed>1.50</speed>
<course>114.5</course>
<desc>Speed 5.4 km/h Distance 6.41 km</desc>
<time>2010-10-24T11:37:52.49</time>
<name>4005</name>
</trkpt>
<trkpt lat="48.933930" lon="8.646515">
<ele>366.0</ele>
<speed>1.38</speed>
<course>121.3</course>
<desc>Speed 5.0 km/h Distance 6.41 km</desc>
<time>2010-10-24T11:37:53.49</time>
<name>4006</name>
</trkpt>
<trkpt lat="48.933923" lon="8.646532">
<ele>366.5</ele>
<speed>1.38</speed>
<course>121.3</course>
<desc>Speed 5.0 km/h Distance 6.41 km</desc>
<time>2010-10-24T11:37:54.49</time>
<name>4007</name>
</trkpt>
<trkpt lat="48.933917" lon="8.646548">
<ele>366.5</ele>
<speed>1.39</speed>
<course>133.5</course>
<desc>Speed 5.0 km/h Distance 6.41 km</desc>
<time>2010-10-24T11:37:55.49</time>
<name>4008</name>
</trkpt>
<trkpt lat="48.933908" lon="8.646562">
<ele>366.5</ele>
<speed>1.34</speed>
<course>124.1</course>
<desc>Speed 4.8 km/h Distance 6.41 km</desc>
<time>2010-10-24T11:37:56.49</time>
<name>4009</name>
</trkpt>
<trkpt lat="48.933902" lon="8.646577">
<ele>367.0</ele>
<speed>1.34</speed>
<course>127.3</course>
<desc>Speed 4.8 km/h Distance 6.41 km</desc>
<time>2010-10-24T11:37:57.48</time>
<name>4010</name>
</trkpt>
<trkpt lat="48.933893" lon="8.646593">
<ele>367.0</ele>
<speed>1.38</speed>
<course>124.7</course>
<desc>Speed 5.0 km/h Distance 6.42 km</desc>
<time>2010-10-24T11:37:58.48</time>
<name>4011</name>
</trkpt>
<trkpt lat="48.933885" lon="8.646612">
<ele>367.5</ele>
<speed>1.53</speed>
<course>119.0</course>
<desc>Speed 5.5 km/h Distance 6.42 km</desc>
<time>2010-10-24T11:37:59.49</time>
<name>4012</name>
</trkpt>
<trkpt lat="48.933878" lon="8.646630">
<ele>367.5</ele>
<speed>1.47</speed>
<course>121.4</course>
<desc>Speed 5.3 km/h Distance 6.42 km</desc>
<time>2010-10-24T11:38:00.47</time>
<name>4013</name>
</trkpt>
<trkpt lat="48.933872" lon="8.646647">
<ele>368.0</ele>
<speed>1.45</speed>
<course>119.0</course>
<desc>Speed 5.2 km/h Distance 6.42 km</desc>
<time>2010-10-24T11:38:01.47</time>
<name>4014</name>
</trkpt>
<trkpt lat="48.933865" lon="8.646665">
<ele>368.5</ele>
<speed>1.50</speed>
<course>121.3</course>
<desc>Speed 5.4 km/h Distance 6.42 km</desc>
<time>2010-10-24T11:38:02.47</time>
<name>4015</name>
</trkpt>
<trkpt lat="48.933858" lon="8.646682">
<ele>368.5</ele>
<speed>1.48</speed>
<course>112.5</course>
<desc>Speed 5.3 km/h Distance 6.42 km</desc>
<time>2010-10-24T11:38:03.46</time>
<name>4016</name>
</trkpt>
<trkpt lat="48.933853" lon="8.646700">
<ele>368.5</ele>
<speed>1.39</speed>
<course>119.0</course>
<desc>Speed 5.0 km/h Distance 6.43 km</desc>
<time>2010-10-24T11:38:04.46</time>
<name>4017</name>
</trkpt>
<trkpt lat="48.933847" lon="8.646718">
<ele>369.0</ele>
<speed>1.53</speed>
<course>119.0</course>
<desc>Speed 5.5 km/h Distance 6.43 km</desc>
<time>2010-10-24T11:38:05.45</time>
<name>4018</name>
</trkpt>
<trkpt lat="48.933840" lon="8.646737">
<ele>369.0</ele>
<speed>1.54</speed>
<course>110.8</course>
<desc>Speed 5.5 km/h Distance 6.43 km</desc>
<time>2010-10-24T11:38:06.44</time>
<name>4019</name>
</trkpt>
<trkpt lat="48.933835" lon="8.646757">
<ele>369.0</ele>
<speed>1.53</speed>
<course>110.8</course>
<desc>Speed 5.5 km/h Distance 6.43 km</desc>
<time>2010-10-24T11:38:07.43</time>
<name>4020</name>
</trkpt>
<trkpt lat="48.933830" lon="8.646777">
<ele>369.5</ele>
<speed>1.53</speed>
<course>119.0</course>
<desc>Speed 5.5 km/h Distance 6.43 km</desc>
<time>2010-10-24T11:38:08.43</time>
<name>4021</name>
</trkpt>
<trkpt lat="48.933823" lon="8.646795">
<ele>370.0</ele>
<speed>1.53</speed>
<course>119.0</course>
<desc>Speed 5.5 km/h Distance 6.43 km</desc>
<time>2010-10-24T11:38:09.43</time>
<name>4022</name>
</trkpt>
<trkpt lat="48.933817" lon="8.646813">
<ele>370.0</ele>
<speed>1.50</speed>
<course>119.0</course>
<desc>Speed 5.4 km/h Distance 6.43 km</desc>
<time>2010-10-24T11:38:10.42</time>
<name>4023</name>
</trkpt>
<trkpt lat="48.933810" lon="8.646832">
<ele>370.0</ele>
<speed>1.50</speed>
<course>119.0</course>
<desc>Speed 5.4 km/h Distance 6.44 km</desc>
<time>2010-10-24T11:38:11.42</time>
<name>4024</name>
</trkpt>
<trkpt lat="48.933803" lon="8.646850">
<ele>370.0</ele>
<speed>1.58</speed>
<course>112.5</course>
<desc>Speed 5.7 km/h Distance 6.44 km</desc>
<time>2010-10-24T11:38:12.42</time>
<name>4025</name>
</trkpt>
<trkpt lat="48.933798" lon="8.646868">
<ele>370.5</ele>
<speed>1.58</speed>
<course>129.7</course>
<desc>Speed 5.7 km/h Distance 6.44 km</desc>
<time>2010-10-24T11:38:13.41</time>
<name>4026</name>
</trkpt>
<trkpt lat="48.933788" lon="8.646887">
<ele>370.0</ele>
<speed>1.62</speed>
<course>116.9</course>
<desc>Speed 5.8 km/h Distance 6.44 km</desc>
<time>2010-10-24T11:38:14.39</time>
<name>4027</name>
</trkpt>
<trkpt lat="48.933783" lon="8.646902">
<ele>370.0</ele>
<speed>1.45</speed>
<course>124.7</course>
<desc>Speed 5.2 km/h Distance 6.44 km</desc>
<time>2010-10-24T11:38:15.39</time>
<name>4028</name>
</trkpt>
<trkpt lat="48.933775" lon="8.646920">
<ele>370.0</ele>
<speed>1.57</speed>
<course>124.0</course>
<desc>Speed 5.7 km/h Distance 6.44 km</desc>
<time>2010-10-24T11:38:16.39</time>
<name>4029</name>
</trkpt>
<trkpt lat="48.933768" lon="8.646935">
<ele>370.0</ele>
<speed>1.46</speed>
<course>124.7</course>
<desc>Speed 5.3 km/h Distance 6.45 km</desc>
<time>2010-10-24T11:38:17.38</time>
<name>4030</name>
</trkpt>
<trkpt lat="48.933760" lon="8.646953">
<ele>369.5</ele>
<speed>1.63</speed>
<course>119.0</course>
<desc>Speed 5.9 km/h Distance 6.45 km</desc>
<time>2010-10-24T11:38:18.38</time>
<name>4031</name>
</trkpt>
<trkpt lat="48.933753" lon="8.646972">
<ele>369.5</ele>
<speed>1.52</speed>
<course>112.5</course>
<desc>Speed 5.5 km/h Distance 6.45 km</desc>
<time>2010-10-24T11:38:19.37</time>
<name>4032</name>
</trkpt>
<trkpt lat="48.933748" lon="8.646990">
<ele>369.5</ele>
<speed>1.50</speed>
<course>127.3</course>
<desc>Speed 5.4 km/h Distance 6.45 km</desc>
<time>2010-10-24T11:38:20.37</time>
<name>4033</name>
</trkpt>
<trkpt lat="48.933740" lon="8.647007">
<ele>369.5</ele>
<speed>1.54</speed>
<course>119.0</course>
<desc>Speed 5.5 km/h Distance 6.45 km</desc>
<time>2010-10-24T11:38:21.37</time>
<name>4034</name>
</trkpt>
<trkpt lat="48.933733" lon="8.647025">
<ele>370.0</ele>
<speed>1.45</speed>
<course>119.0</course>
<desc>Speed 5.2 km/h Distance 6.45 km</desc>
<time>2010-10-24T11:38:22.37</time>
<name>4035</name>
</trkpt>
<trkpt lat="48.933727" lon="8.647043">
<ele>370.0</ele>
<speed>1.51</speed>
<course>112.6</course>
<desc>Speed 5.4 km/h Distance 6.45 km</desc>
<time>2010-10-24T11:38:23.36</time>
<name>4036</name>
</trkpt>
<trkpt lat="48.933722" lon="8.647062">
<ele>370.0</ele>
<speed>1.46</speed>
<course>119.0</course>
<desc>Speed 5.3 km/h Distance 6.46 km</desc>
<time>2010-10-24T11:38:24.36</time>
<name>4037</name>
</trkpt>
<trkpt lat="48.933715" lon="8.647080">
<ele>369.5</ele>
<speed>1.50</speed>
<course>119.0</course>
<desc>Speed 5.4 km/h Distance 6.46 km</desc>
<time>2010-10-24T11:38:25.35</time>
<name>4038</name>
</trkpt>
<trkpt lat="48.933708" lon="8.647098">
<ele>370.0</ele>
<speed>1.55</speed>
<course>124.7</course>
<desc>Speed 5.6 km/h Distance 6.46 km</desc>
<time>2010-10-24T11:38:26.35</time>
<name>4039</name>
</trkpt>
<trkpt lat="48.933700" lon="8.647117">
<ele>369.5</ele>
<speed>1.60</speed>
<course>112.6</course>
<desc>Speed 5.8 km/h Distance 6.46 km</desc>
<time>2010-10-24T11:38:27.35</time>
<name>4040</name>
</trkpt>
<trkpt lat="48.933695" lon="8.647135">
<ele>369.5</ele>
<speed>1.48</speed>
<course>116.9</course>
<desc>Speed 5.3 km/h Distance 6.46 km</desc>
<time>2010-10-24T11:38:28.35</time>
<name>4041</name>
</trkpt>
<trkpt lat="48.933688" lon="8.647155">
<ele>370.0</ele>
<speed>1.57</speed>
<course>119.0</course>
<desc>Speed 5.7 km/h Distance 6.46 km</desc>
<time>2010-10-24T11:38:29.34</time>
<name>4042</name>
</trkpt>
<trkpt lat="48.933682" lon="8.647173">
<ele>370.0</ele>
<speed>1.64</speed>
<course>110.8</course>
<desc>Speed 5.9 km/h Distance 6.47 km</desc>
<time>2010-10-24T11:38:30.33</time>
<name>4043</name>
</trkpt>
<trkpt lat="48.933677" lon="8.647193">
<ele>370.0</ele>
<speed>1.57</speed>
<course>121.3</course>
<desc>Speed 5.7 km/h Distance 6.47 km</desc>
<time>2010-10-24T11:38:31.33</time>
<name>4044</name>
</trkpt>
<trkpt lat="48.933670" lon="8.647210">
<ele>370.0</ele>
<speed>1.51</speed>
<course>116.9</course>
<desc>Speed 5.4 km/h Distance 6.47 km</desc>
<time>2010-10-24T11:38:32.33</time>
<name>4045</name>
</trkpt>
<trkpt lat="48.933663" lon="8.647230">
<ele>370.5</ele>
<speed>1.62</speed>
<course>119.0</course>
<desc>Speed 5.8 km/h Distance 6.47 km</desc>
<time>2010-10-24T11:38:33.31</time>
<name>4046</name>
</trkpt>
<trkpt lat="48.933657" lon="8.647248">
<ele>370.5</ele>
<speed>1.47</speed>
<course>124.1</course>
<desc>Speed 5.3 km/h Distance 6.47 km</desc>
<time>2010-10-24T11:38:34.30</time>
<name>4047</name>
</trkpt>
<trkpt lat="48.933650" lon="8.647263">
<ele>370.5</ele>
<speed>1.38</speed>
<course>127.3</course>
<desc>Speed 5.0 km/h Distance 6.47 km</desc>
<time>2010-10-24T11:38:35.30</time>
<name>4048</name>
</trkpt>
<trkpt lat="48.933642" lon="8.647280">
<ele>370.5</ele>
<speed>1.51</speed>
<course>119.0</course>
<desc>Speed 5.4 km/h Distance 6.47 km</desc>
<time>2010-10-24T11:38:36.29</time>
<name>4049</name>
</trkpt>
<trkpt lat="48.933635" lon="8.647298">
<ele>370.5</ele>
<speed>1.46</speed>
<course>119.0</course>
<desc>Speed 5.3 km/h Distance 6.48 km</desc>
<time>2010-10-24T11:38:37.29</time>
<name>4050</name>
</trkpt>
<trkpt lat="48.933628" lon="8.647317">
<ele>370.5</ele>
<speed>1.47</speed>
<course>121.3</course>
<desc>Speed 5.3 km/h Distance 6.48 km</desc>
<time>2010-10-24T11:38:38.29</time>
<name>4051</name>
</trkpt>
<trkpt lat="48.933622" lon="8.647333">
<ele>371.0</ele>
<speed>1.36</speed>
<course>116.9</course>
<desc>Speed 4.9 km/h Distance 6.48 km</desc>
<time>2010-10-24T11:38:39.28</time>
<name>4052</name>
</trkpt>
<trkpt lat="48.933615" lon="8.647353">
<ele>371.0</ele>
<speed>1.53</speed>
<course>119.0</course>
<desc>Speed 5.5 km/h Distance 6.48 km</desc>
<time>2010-10-24T11:38:40.27</time>
<name>4053</name>
</trkpt>
<trkpt lat="48.933608" lon="8.647372">
<ele>371.5</ele>
<speed>1.45</speed>
<course>120.4</course>
<desc>Speed 5.2 km/h Distance 6.48 km</desc>
<time>2010-10-24T11:38:41.27</time>
<name>4054</name>
</trkpt>
<trkpt lat="48.933600" lon="8.647393">
<ele>371.5</ele>
<speed>1.50</speed>
<course>121.4</course>
<desc>Speed 5.4 km/h Distance 6.48 km</desc>
<time>2010-10-24T11:38:42.26</time>
<name>4055</name>
</trkpt>
<trkpt lat="48.933593" lon="8.647410">
<ele>371.5</ele>
<speed>1.49</speed>
<course>116.9</course>
<desc>Speed 5.4 km/h Distance 6.48 km</desc>
<time>2010-10-24T11:38:43.27</time>
<name>4056</name>
</trkpt>
<trkpt lat="48.933587" lon="8.647430">
<ele>371.5</ele>
<speed>1.48</speed>
<course>115.1</course>
<desc>Speed 5.3 km/h Distance 6.49 km</desc>
<time>2010-10-24T11:38:44.26</time>
<name>4057</name>
</trkpt>
<trkpt lat="48.933580" lon="8.647452">
<ele>372.0</ele>
<speed>1.60</speed>
<course>109.4</course>
<desc>Speed 5.8 km/h Distance 6.49 km</desc>
<time>2010-10-24T11:38:45.25</time>
<name>4058</name>
</trkpt>
<trkpt lat="48.933575" lon="8.647473">
<ele>372.0</ele>
<speed>1.51</speed>
<course>96.7</course>
<desc>Speed 5.4 km/h Distance 6.49 km</desc>
<time>2010-10-24T11:38:46.24</time>
<name>4059</name>
</trkpt>
<trkpt lat="48.933573" lon="8.647495">
<ele>372.5</ele>
<speed>1.47</speed>
<course>116.9</course>
<desc>Speed 5.3 km/h Distance 6.49 km</desc>
<time>2010-10-24T11:38:47.24</time>
<name>4060</name>
</trkpt>
<trkpt lat="48.933567" lon="8.647515">
<ele>372.5</ele>
<speed>1.54</speed>
<course>119.0</course>
<desc>Speed 5.5 km/h Distance 6.49 km</desc>
<time>2010-10-24T11:38:48.24</time>
<name>4061</name>
</trkpt>
<trkpt lat="48.933560" lon="8.647533">
<ele>372.5</ele>
<speed>1.49</speed>
<course>119.0</course>
<desc>Speed 5.4 km/h Distance 6.49 km</desc>
<time>2010-10-24T11:38:49.24</time>
<name>4062</name>
</trkpt>
<trkpt lat="48.933553" lon="8.647552">
<ele>372.5</ele>
<speed>1.52</speed>
<course>109.3</course>
<desc>Speed 5.5 km/h Distance 6.50 km</desc>
<time>2010-10-24T11:38:50.24</time>
<name>4063</name>
</trkpt>
<trkpt lat="48.933548" lon="8.647573">
<ele>372.5</ele>
<speed>1.57</speed>
<course>104.2</course>
<desc>Speed 5.7 km/h Distance 6.50 km</desc>
<time>2010-10-24T11:38:51.24</time>
<name>4064</name>
</trkpt>
<trkpt lat="48.933545" lon="8.647593">
<ele>372.5</ele>
<speed>1.58</speed>
<course>103.2</course>
<desc>Speed 5.7 km/h Distance 6.50 km</desc>
<time>2010-10-24T11:38:52.23</time>
<name>4065</name>
</trkpt>
<trkpt lat="48.933542" lon="8.647615">
<ele>372.5</ele>
<speed>1.55</speed>
<course>104.2</course>
<desc>Speed 5.6 km/h Distance 6.50 km</desc>
<time>2010-10-24T11:38:53.23</time>
<name>4066</name>
</trkpt>
<trkpt lat="48.933538" lon="8.647635">
<ele>372.5</ele>
<speed>1.54</speed>
<course>90.0</course>
<desc>Speed 5.5 km/h Distance 6.50 km</desc>
<time>2010-10-24T11:38:54.23</time>
<name>4067</name>
</trkpt>
<trkpt lat="48.933538" lon="8.647657">
<ele>372.5</ele>
<speed>1.50</speed>
<course>75.8</course>
<desc>Speed 5.4 km/h Distance 6.50 km</desc>
<time>2010-10-24T11:38:55.22</time>
<name>4068</name>
</trkpt>
<trkpt lat="48.933542" lon="8.647677">
<ele>373.0</ele>
<speed>1.50</speed>
<course>63.1</course>
<desc>Speed 5.4 km/h Distance 6.51 km</desc>
<time>2010-10-24T11:38:56.22</time>
<name>4069</name>
</trkpt>
<trkpt lat="48.933548" lon="8.647697">
<ele>373.0</ele>
<speed>1.64</speed>
<course>59.7</course>
<desc>Speed 5.9 km/h Distance 6.51 km</desc>
<time>2010-10-24T11:38:57.22</time>
<name>4070</name>
</trkpt>
<trkpt lat="48.933557" lon="8.647718">
<ele>373.0</ele>
<speed>1.73</speed>
<course>54.9</course>
<desc>Speed 6.2 km/h Distance 6.51 km</desc>
<time>2010-10-24T11:38:58.22</time>
<name>4071</name>
</trkpt>
<trkpt lat="48.933567" lon="8.647740">
<ele>373.5</ele>
<speed>1.61</speed>
<course>63.1</course>
<desc>Speed 5.8 km/h Distance 6.51 km</desc>
<time>2010-10-24T11:38:59.21</time>
<name>4072</name>
</trkpt>
<trkpt lat="48.933573" lon="8.647760">
<ele>374.0</ele>
<speed>1.66</speed>
<course>63.1</course>
<desc>Speed 6.0 km/h Distance 6.51 km</desc>
<time>2010-10-24T11:39:00.21</time>
<name>4073</name>
</trkpt>
<trkpt lat="48.933580" lon="8.647780">
<ele>374.0</ele>
<speed>1.61</speed>
<course>57.6</course>
<desc>Speed 5.8 km/h Distance 6.51 km</desc>
<time>2010-10-24T11:39:01.20</time>
<name>4074</name>
</trkpt>
<trkpt lat="48.933588" lon="8.647800">
<ele>374.0</ele>
<speed>1.67</speed>
<course>52.7</course>
<desc>Speed 6.0 km/h Distance 6.52 km</desc>
<time>2010-10-24T11:39:02.20</time>
<name>4075</name>
</trkpt>
<trkpt lat="48.933598" lon="8.647820">
<ele>374.0</ele>
<speed>1.75</speed>
<course>55.3</course>
<desc>Speed 6.3 km/h Distance 6.52 km</desc>
<time>2010-10-24T11:39:03.19</time>
<name>4076</name>
</trkpt>
<trkpt lat="48.933607" lon="8.647838">
<ele>374.0</ele>
<speed>1.66</speed>
<course>55.3</course>
<desc>Speed 6.0 km/h Distance 6.52 km</desc>
<time>2010-10-24T11:39:04.19</time>
<name>4077</name>
</trkpt>
<trkpt lat="48.933615" lon="8.647857">
<ele>374.0</ele>
<speed>1.59</speed>
<course>47.5</course>
<desc>Speed 5.7 km/h Distance 6.52 km</desc>
<time>2010-10-24T11:39:05.18</time>
<name>4078</name>
</trkpt>
<trkpt lat="48.933625" lon="8.647873">
<ele>373.5</ele>
<speed>1.58</speed>
<course>48.4</course>
<desc>Speed 5.7 km/h Distance 6.52 km</desc>
<time>2010-10-24T11:39:06.17</time>
<name>4079</name>
</trkpt>
<trkpt lat="48.933637" lon="8.647893">
<ele>374.0</ele>
<speed>1.59</speed>
<course>55.0</course>
<desc>Speed 5.7 km/h Distance 6.52 km</desc>
<time>2010-10-24T11:39:07.17</time>
<name>4080</name>
</trkpt>
<trkpt lat="48.933647" lon="8.647915">
<ele>374.5</ele>
<speed>1.67</speed>
<course>55.0</course>
<desc>Speed 6.0 km/h Distance 6.53 km</desc>
<time>2010-10-24T11:39:08.17</time>
<name>4081</name>
</trkpt>
<trkpt lat="48.933657" lon="8.647937">
<ele>375.0</ele>
<speed>1.62</speed>
<course>55.3</course>
<desc>Speed 5.8 km/h Distance 6.53 km</desc>
<time>2010-10-24T11:39:09.17</time>
<name>4082</name>
</trkpt>
<trkpt lat="48.933665" lon="8.647955">
<ele>374.5</ele>
<speed>1.51</speed>
<course>49.8</course>
<desc>Speed 5.4 km/h Distance 6.53 km</desc>
<time>2010-10-24T11:39:10.16</time>
<name>4083</name>
</trkpt>
<trkpt lat="48.933673" lon="8.647970">
<ele>374.5</ele>
<speed>1.30</speed>
<course>47.6</course>
<desc>Speed 4.7 km/h Distance 6.53 km</desc>
<time>2010-10-24T11:39:11.16</time>
<name>4084</name>
</trkpt>
<trkpt lat="48.933683" lon="8.647987">
<ele>375.0</ele>
<speed>1.54</speed>
<course>50.3</course>
<desc>Speed 5.5 km/h Distance 6.53 km</desc>
<time>2010-10-24T11:39:12.15</time>
<name>4085</name>
</trkpt>
<trkpt lat="48.933693" lon="8.648005">
<ele>375.0</ele>
<speed>1.62</speed>
<course>50.4</course>
<desc>Speed 5.8 km/h Distance 6.54 km</desc>
<time>2010-10-24T11:39:13.15</time>
<name>4086</name>
</trkpt>
<trkpt lat="48.933703" lon="8.648023">
<ele>375.5</ele>
<speed>1.62</speed>
<course>48.4</course>
<desc>Speed 5.8 km/h Distance 6.54 km</desc>
<time>2010-10-24T11:39:14.14</time>
<name>4087</name>
</trkpt>
<trkpt lat="48.933715" lon="8.648043">
<ele>376.0</ele>
<speed>1.62</speed>
<course>55.3</course>
<desc>Speed 5.8 km/h Distance 6.54 km</desc>
<time>2010-10-24T11:39:15.14</time>
<name>4088</name>
</trkpt>
<trkpt lat="48.933723" lon="8.648062">
<ele>376.0</ele>
<speed>1.52</speed>
<course>55.3</course>
<desc>Speed 5.5 km/h Distance 6.54 km</desc>
<time>2010-10-24T11:39:16.14</time>
<name>4089</name>
</trkpt>
<trkpt lat="48.933732" lon="8.648080">
<ele>375.5</ele>
<speed>1.69</speed>
<course>47.6</course>
<desc>Speed 6.1 km/h Distance 6.54 km</desc>
<time>2010-10-24T11:39:17.14</time>
<name>4090</name>
</trkpt>
<trkpt lat="48.933742" lon="8.648097">
<ele>375.5</ele>
<speed>1.62</speed>
<course>55.4</course>
<desc>Speed 5.8 km/h Distance 6.54 km</desc>
<time>2010-10-24T11:39:18.13</time>
<name>4091</name>
</trkpt>
<trkpt lat="48.933750" lon="8.648115">
<ele>375.5</ele>
<speed>1.61</speed>
<course>67.5</course>
<desc>Speed 5.8 km/h Distance 6.55 km</desc>
<time>2010-10-24T11:39:19.13</time>
<name>4092</name>
</trkpt>
<trkpt lat="48.933755" lon="8.648133">
<ele>375.5</ele>
<speed>1.50</speed>
<course>63.2</course>
<desc>Speed 5.4 km/h Distance 6.55 km</desc>
<time>2010-10-24T11:39:20.13</time>
<name>4093</name>
</trkpt>
<trkpt lat="48.933762" lon="8.648153">
<ele>375.5</ele>
<speed>1.61</speed>
<course>61.0</course>
<desc>Speed 5.8 km/h Distance 6.55 km</desc>
<time>2010-10-24T11:39:21.12</time>
<name>4094</name>
</trkpt>
<trkpt lat="48.933768" lon="8.648172">
<ele>375.5</ele>
<speed>1.60</speed>
<course>69.2</course>
<desc>Speed 5.8 km/h Distance 6.55 km</desc>
<time>2010-10-24T11:39:22.12</time>
<name>4095</name>
</trkpt>
<trkpt lat="48.933773" lon="8.648192">
<ele>375.0</ele>
<speed>1.53</speed>
<course>69.2</course>
<desc>Speed 5.5 km/h Distance 6.55 km</desc>
<time>2010-10-24T11:39:23.11</time>
<name>4096</name>
</trkpt>
<trkpt lat="48.933778" lon="8.648212">
<ele>375.0</ele>
<speed>1.55</speed>
<course>69.2</course>
<desc>Speed 5.6 km/h Distance 6.55 km</desc>
<time>2010-10-24T11:39:24.11</time>
<name>4097</name>
</trkpt>
<trkpt lat="48.933783" lon="8.648232">
<ele>375.0</ele>
<speed>1.55</speed>
<course>75.8</course>
<desc>Speed 5.6 km/h Distance 6.55 km</desc>
<time>2010-10-24T11:39:25.11</time>
<name>4098</name>
</trkpt>
<trkpt lat="48.933787" lon="8.648252">
<ele>375.5</ele>
<speed>1.53</speed>
<course>83.8</course>
<desc>Speed 5.5 km/h Distance 6.56 km</desc>
<time>2010-10-24T11:39:26.11</time>
<name>4099</name>
</trkpt>
<trkpt lat="48.933788" lon="8.648275">
<ele>375.5</ele>
<speed>1.61</speed>
<course>90.0</course>
<desc>Speed 5.8 km/h Distance 6.56 km</desc>
<time>2010-10-24T11:39:27.11</time>
<name>4100</name>
</trkpt>
<trkpt lat="48.933788" lon="8.648297">
<ele>375.5</ele>
<speed>1.62</speed>
<course>90.0</course>
<desc>Speed 5.8 km/h Distance 6.56 km</desc>
<time>2010-10-24T11:39:28.11</time>
<name>4101</name>
</trkpt>
<trkpt lat="48.933788" lon="8.648320">
<ele>375.5</ele>
<speed>1.71</speed>
<course>96.7</course>
<desc>Speed 6.2 km/h Distance 6.56 km</desc>
<time>2010-10-24T11:39:29.10</time>
<name>4102</name>
</trkpt>
<trkpt lat="48.933787" lon="8.648342">
<ele>375.5</ele>
<speed>1.63</speed>
<course>96.2</course>
<desc>Speed 5.9 km/h Distance 6.56 km</desc>
<time>2010-10-24T11:39:30.10</time>
<name>4103</name>
</trkpt>
<trkpt lat="48.933785" lon="8.648365">
<ele>375.5</ele>
<speed>1.65</speed>
<course>103.2</course>
<desc>Speed 5.9 km/h Distance 6.56 km</desc>
<time>2010-10-24T11:39:31.09</time>
<name>4104</name>
</trkpt>
<trkpt lat="48.933782" lon="8.648387">
<ele>375.5</ele>
<speed>1.62</speed>
<course>103.2</course>
<desc>Speed 5.8 km/h Distance 6.57 km</desc>
<time>2010-10-24T11:39:32.09</time>
<name>4105</name>
</trkpt>
<trkpt lat="48.933778" lon="8.648408">
<ele>376.0</ele>
<speed>1.67</speed>
<course>103.2</course>
<desc>Speed 6.0 km/h Distance 6.57 km</desc>
<time>2010-10-24T11:39:33.08</time>
<name>4106</name>
</trkpt>
<trkpt lat="48.933775" lon="8.648430">
<ele>376.0</ele>
<speed>1.63</speed>
<course>109.4</course>
<desc>Speed 5.9 km/h Distance 6.57 km</desc>
<time>2010-10-24T11:39:34.08</time>
<name>4107</name>
</trkpt>
<trkpt lat="48.933770" lon="8.648452">
<ele>376.0</ele>
<speed>1.59</speed>
<course>112.5</course>
<desc>Speed 5.7 km/h Distance 6.57 km</desc>
<time>2010-10-24T11:39:35.08</time>
<name>4108</name>
</trkpt>
<trkpt lat="48.933765" lon="8.648470">
<ele>376.0</ele>
<speed>1.60</speed>
<course>108.0</course>
<desc>Speed 5.8 km/h Distance 6.57 km</desc>
<time>2010-10-24T11:39:36.08</time>
<name>4109</name>
</trkpt>
<trkpt lat="48.933760" lon="8.648493">
<ele>376.0</ele>
<speed>1.72</speed>
<course>127.3</course>
<desc>Speed 6.2 km/h Distance 6.57 km</desc>
<time>2010-10-24T11:39:37.08</time>
<name>4110</name>
</trkpt>
<trkpt lat="48.933752" lon="8.648510">
<ele>376.0</ele>
<speed>1.53</speed>
<course>127.3</course>
<desc>Speed 5.5 km/h Distance 6.58 km</desc>
<time>2010-10-24T11:39:38.07</time>
<name>4111</name>
</trkpt>
<trkpt lat="48.933743" lon="8.648527">
<ele>376.0</ele>
<speed>1.62</speed>
<course>122.4</course>
<desc>Speed 5.8 km/h Distance 6.58 km</desc>
<time>2010-10-24T11:39:39.07</time>
<name>4112</name>
</trkpt>
<trkpt lat="48.933735" lon="8.648547">
<ele>376.0</ele>
<speed>1.64</speed>
<course>110.8</course>
<desc>Speed 5.9 km/h Distance 6.58 km</desc>
<time>2010-10-24T11:39:40.06</time>
<name>4113</name>
</trkpt>
<trkpt lat="48.933730" lon="8.648567">
<ele>376.5</ele>
<speed>1.54</speed>
<course>119.0</course>
<desc>Speed 5.5 km/h Distance 6.58 km</desc>
<time>2010-10-24T11:39:41.06</time>
<name>4114</name>
</trkpt>
<trkpt lat="48.933723" lon="8.648585">
<ele>376.5</ele>
<speed>1.55</speed>
<course>119.0</course>
<desc>Speed 5.6 km/h Distance 6.58 km</desc>
<time>2010-10-24T11:39:42.05</time>
<name>4115</name>
</trkpt>
<trkpt lat="48.933717" lon="8.648603">
<ele>377.0</ele>
<speed>1.62</speed>
<course>124.7</course>
<desc>Speed 5.8 km/h Distance 6.58 km</desc>
<time>2010-10-24T11:39:43.04</time>
<name>4116</name>
</trkpt>
<trkpt lat="48.933708" lon="8.648622">
<ele>377.0</ele>
<speed>1.61</speed>
<course>124.7</course>
<desc>Speed 5.8 km/h Distance 6.59 km</desc>
<time>2010-10-24T11:39:44.04</time>
<name>4117</name>
</trkpt>
<trkpt lat="48.933700" lon="8.648640">
<ele>377.0</ele>
<speed>1.64</speed>
<course>119.0</course>
<desc>Speed 5.9 km/h Distance 6.59 km</desc>
<time>2010-10-24T11:39:45.05</time>
<name>4118</name>
</trkpt>
<trkpt lat="48.933693" lon="8.648658">
<ele>377.5</ele>
<speed>1.65</speed>
<course>116.9</course>
<desc>Speed 5.9 km/h Distance 6.59 km</desc>
<time>2010-10-24T11:39:46.04</time>
<name>4119</name>
</trkpt>
<trkpt lat="48.933687" lon="8.648678">
<ele>377.5</ele>
<speed>1.64</speed>
<course>119.0</course>
<desc>Speed 5.9 km/h Distance 6.59 km</desc>
<time>2010-10-24T11:39:47.03</time>
<name>4120</name>
</trkpt>
<trkpt lat="48.933680" lon="8.648697">
<ele>378.0</ele>
<speed>1.46</speed>
<course>119.0</course>
<desc>Speed 5.3 km/h Distance 6.59 km</desc>
<time>2010-10-24T11:39:48.03</time>
<name>4121</name>
</trkpt>
<trkpt lat="48.933673" lon="8.648715">
<ele>378.0</ele>
<speed>1.67</speed>
<course>116.9</course>
<desc>Speed 6.0 km/h Distance 6.59 km</desc>
<time>2010-10-24T11:39:49.03</time>
<name>4122</name>
</trkpt>
<trkpt lat="48.933667" lon="8.648735">
<ele>378.5</ele>
<speed>1.55</speed>
<course>116.9</course>
<desc>Speed 5.6 km/h Distance 6.59 km</desc>
<time>2010-10-24T11:39:50.03</time>
<name>4123</name>
</trkpt>
<trkpt lat="48.933660" lon="8.648755">
<ele>379.0</ele>
<speed>1.62</speed>
<course>116.9</course>
<desc>Speed 5.8 km/h Distance 6.60 km</desc>
<time>2010-10-24T11:39:51.03</time>
<name>4124</name>
</trkpt>
<trkpt lat="48.933653" lon="8.648775">
<ele>379.0</ele>
<speed>1.62</speed>
<course>119.0</course>
<desc>Speed 5.8 km/h Distance 6.60 km</desc>
<time>2010-10-24T11:39:52.03</time>
<name>4125</name>
</trkpt>
<trkpt lat="48.933647" lon="8.648793">
<ele>379.0</ele>
<speed>1.66</speed>
<course>116.9</course>
<desc>Speed 6.0 km/h Distance 6.60 km</desc>
<time>2010-10-24T11:39:53.03</time>
<name>4126</name>
</trkpt>
<trkpt lat="48.933640" lon="8.648813">
<ele>379.0</ele>
<speed>1.54</speed>
<course>119.0</course>
<desc>Speed 5.5 km/h Distance 6.60 km</desc>
<time>2010-10-24T11:39:54.02</time>
<name>4127</name>
</trkpt>
<trkpt lat="48.933633" lon="8.648832">
<ele>379.5</ele>
<speed>1.52</speed>
<course>119.0</course>
<desc>Speed 5.5 km/h Distance 6.60 km</desc>
<time>2010-10-24T11:39:55.02</time>
<name>4128</name>
</trkpt>
<trkpt lat="48.933627" lon="8.648850">
<ele>379.5</ele>
<speed>1.58</speed>
<course>127.2</course>
<desc>Speed 5.7 km/h Distance 6.60 km</desc>
<time>2010-10-24T11:39:56.02</time>
<name>4129</name>
</trkpt>
<trkpt lat="48.933617" lon="8.648870">
<ele>380.0</ele>
<speed>1.74</speed>
<course>115.1</course>
<desc>Speed 6.3 km/h Distance 6.61 km</desc>
<time>2010-10-24T11:39:57.02</time>
<name>4130</name>
</trkpt>
<trkpt lat="48.933610" lon="8.648892">
<ele>380.0</ele>
<speed>1.75</speed>
<course>116.9</course>
<desc>Speed 6.3 km/h Distance 6.61 km</desc>
<time>2010-10-24T11:39:58.01</time>
<name>4131</name>
</trkpt>
<trkpt lat="48.933603" lon="8.648912">
<ele>380.5</ele>
<speed>1.63</speed>
<course>124.7</course>
<desc>Speed 5.9 km/h Distance 6.61 km</desc>
<time>2010-10-24T11:39:59.01</time>
<name>4132</name>
</trkpt>
<trkpt lat="48.933595" lon="8.648930">
<ele>380.5</ele>
<speed>1.64</speed>
<course>124.6</course>
<desc>Speed 5.9 km/h Distance 6.61 km</desc>
<time>2010-10-24T11:40:00.01</time>
<name>4133</name>
</trkpt>
<trkpt lat="48.933587" lon="8.648948">
<ele>380.5</ele>
<speed>1.58</speed>
<course>116.9</course>
<desc>Speed 5.7 km/h Distance 6.61 km</desc>
<time>2010-10-24T11:40:01.01</time>
<name>4134</name>
</trkpt>
<trkpt lat="48.933580" lon="8.648968">
<ele>380.5</ele>
<speed>1.69</speed>
<course>115.1</course>
<desc>Speed 6.1 km/h Distance 6.61 km</desc>
<time>2010-10-24T11:40:02.01</time>
<name>4135</name>
</trkpt>
<trkpt lat="48.933573" lon="8.648990">
<ele>381.0</ele>
<speed>1.63</speed>
<course>116.9</course>
<desc>Speed 5.9 km/h Distance 6.62 km</desc>
<time>2010-10-24T11:40:03.00</time>
<name>4136</name>
</trkpt>
<trkpt lat="48.933567" lon="8.649010">
<ele>381.0</ele>
<speed>1.69</speed>
<course>124.6</course>
<desc>Speed 6.1 km/h Distance 6.62 km</desc>
<time>2010-10-24T11:40:04.00</time>
<name>4137</name>
</trkpt>
<trkpt lat="48.933558" lon="8.649028">
<ele>381.0</ele>
<speed>1.55</speed>
<course>127.3</course>
<desc>Speed 5.6 km/h Distance 6.62 km</desc>
<time>2010-10-24T11:40:05.00</time>
<name>4138</name>
</trkpt>
<trkpt lat="48.933548" lon="8.649048">
<ele>381.0</ele>
<speed>1.77</speed>
<course>127.3</course>
<desc>Speed 6.4 km/h Distance 6.62 km</desc>
<time>2010-10-24T11:40:06.00</time>
<name>4139</name>
</trkpt>
<trkpt lat="48.933540" lon="8.649065">
<ele>381.0</ele>
<speed>1.62</speed>
<course>129.6</course>
<desc>Speed 5.8 km/h Distance 6.62 km</desc>
<time>2010-10-24T11:40:06.99</time>
<name>4140</name>
</trkpt>
<trkpt lat="48.933530" lon="8.649083">
<ele>381.0</ele>
<speed>1.67</speed>
<course>124.7</course>
<desc>Speed 6.0 km/h Distance 6.62 km</desc>
<time>2010-10-24T11:40:07.99</time>
<name>4141</name>
</trkpt>
<trkpt lat="48.933522" lon="8.649102">
<ele>381.0</ele>
<speed>1.65</speed>
<course>129.7</course>
<desc>Speed 5.9 km/h Distance 6.63 km</desc>
<time>2010-10-24T11:40:08.99</time>
<name>4142</name>
</trkpt>
<trkpt lat="48.933512" lon="8.649120">
<ele>381.0</ele>
<speed>1.75</speed>
<course>132.4</course>
<desc>Speed 6.3 km/h Distance 6.63 km</desc>
<time>2010-10-24T11:40:09.98</time>
<name>4143</name>
</trkpt>
<trkpt lat="48.933502" lon="8.649137">
<ele>381.0</ele>
<speed>1.58</speed>
<course>124.6</course>
<desc>Speed 5.7 km/h Distance 6.63 km</desc>
<time>2010-10-24T11:40:10.98</time>
<name>4144</name>
</trkpt>
<trkpt lat="48.933493" lon="8.649155">
<ele>380.5</ele>
<speed>1.65</speed>
<course>122.3</course>
<desc>Speed 5.9 km/h Distance 6.63 km</desc>
<time>2010-10-24T11:40:11.97</time>
<name>4145</name>
</trkpt>
<trkpt lat="48.933485" lon="8.649175">
<ele>380.5</ele>
<speed>1.61</speed>
<course>119.0</course>
<desc>Speed 5.8 km/h Distance 6.63 km</desc>
<time>2010-10-24T11:40:12.98</time>
<name>4146</name>
</trkpt>
<trkpt lat="48.933478" lon="8.649193">
<ele>380.5</ele>
<speed>1.65</speed>
<course>122.4</course>
<desc>Speed 5.9 km/h Distance 6.63 km</desc>
<time>2010-10-24T11:40:13.96</time>
<name>4147</name>
</trkpt>
<trkpt lat="48.933470" lon="8.649213">
<ele>380.5</ele>
<speed>1.63</speed>
<course>119.0</course>
<desc>Speed 5.9 km/h Distance 6.64 km</desc>
<time>2010-10-24T11:40:14.96</time>
<name>4148</name>
</trkpt>
<trkpt lat="48.933463" lon="8.649232">
<ele>380.5</ele>
<speed>1.61</speed>
<course>115.1</course>
<desc>Speed 5.8 km/h Distance 6.64 km</desc>
<time>2010-10-24T11:40:15.96</time>
<name>4149</name>
</trkpt>
<trkpt lat="48.933457" lon="8.649253">
<ele>381.0</ele>
<speed>1.69</speed>
<course>124.7</course>
<desc>Speed 6.1 km/h Distance 6.64 km</desc>
<time>2010-10-24T11:40:16.97</time>
<name>4150</name>
</trkpt>
<trkpt lat="48.933448" lon="8.649272">
<ele>380.5</ele>
<speed>1.59</speed>
<course>116.9</course>
<desc>Speed 5.7 km/h Distance 6.64 km</desc>
<time>2010-10-24T11:40:17.95</time>
<name>4151</name>
</trkpt>
<trkpt lat="48.933442" lon="8.649292">
<ele>380.5</ele>
<speed>1.59</speed>
<course>124.7</course>
<desc>Speed 5.7 km/h Distance 6.64 km</desc>
<time>2010-10-24T11:40:18.95</time>
<name>4152</name>
</trkpt>
<trkpt lat="48.933433" lon="8.649310">
<ele>380.5</ele>
<speed>1.62</speed>
<course>103.2</course>
<desc>Speed 5.8 km/h Distance 6.64 km</desc>
<time>2010-10-24T11:40:19.95</time>
<name>4153</name>
</trkpt>
<trkpt lat="48.933430" lon="8.649332">
<ele>380.5</ele>
<speed>1.52</speed>
<course>124.7</course>
<desc>Speed 5.5 km/h Distance 6.65 km</desc>
<time>2010-10-24T11:40:20.95</time>
<name>4154</name>
</trkpt>
<trkpt lat="48.933422" lon="8.649350">
<ele>380.5</ele>
<speed>1.59</speed>
<course>119.0</course>
<desc>Speed 5.7 km/h Distance 6.65 km</desc>
<time>2010-10-24T11:40:21.95</time>
<name>4155</name>
</trkpt>
<trkpt lat="48.933415" lon="8.649368">
<ele>380.5</ele>
<speed>1.54</speed>
<course>115.1</course>
<desc>Speed 5.5 km/h Distance 6.65 km</desc>
<time>2010-10-24T11:40:22.94</time>
<name>4156</name>
</trkpt>
<trkpt lat="48.933408" lon="8.649390">
<ele>380.5</ele>
<speed>1.67</speed>
<course>104.2</course>
<desc>Speed 6.0 km/h Distance 6.65 km</desc>
<time>2010-10-24T11:40:23.94</time>
<name>4157</name>
</trkpt>
<trkpt lat="48.933405" lon="8.649410">
<ele>381.0</ele>
<speed>1.48</speed>
<course>112.5</course>
<desc>Speed 5.3 km/h Distance 6.65 km</desc>
<time>2010-10-24T11:40:24.94</time>
<name>4158</name>
</trkpt>
<trkpt lat="48.933400" lon="8.649428">
<ele>381.0</ele>
<speed>1.37</speed>
<course>114.5</course>
<desc>Speed 4.9 km/h Distance 6.65 km</desc>
<time>2010-10-24T11:40:25.94</time>
<name>4159</name>
</trkpt>
<trkpt lat="48.933395" lon="8.649445">
<ele>381.0</ele>
<speed>1.39</speed>
<course>110.8</course>
<desc>Speed 5.0 km/h Distance 6.66 km</desc>
<time>2010-10-24T11:40:26.94</time>
<name>4160</name>
</trkpt>
<trkpt lat="48.933390" lon="8.649465">
<ele>381.0</ele>
<speed>1.55</speed>
<course>104.2</course>
<desc>Speed 5.6 km/h Distance 6.66 km</desc>
<time>2010-10-24T11:40:27.93</time>
<name>4161</name>
</trkpt>
<trkpt lat="48.933387" lon="8.649485">
<ele>381.5</ele>
<speed>1.38</speed>
<course>110.8</course>
<desc>Speed 5.0 km/h Distance 6.66 km</desc>
<time>2010-10-24T11:40:28.93</time>
<name>4162</name>
</trkpt>
<trkpt lat="48.933382" lon="8.649505">
<ele>381.5</ele>
<speed>1.53</speed>
<course>103.2</course>
<desc>Speed 5.5 km/h Distance 6.66 km</desc>
<time>2010-10-24T11:40:29.92</time>
<name>4163</name>
</trkpt>
<trkpt lat="48.933378" lon="8.649527">
<ele>381.5</ele>
<speed>1.62</speed>
<course>115.1</course>
<desc>Speed 5.8 km/h Distance 6.66 km</desc>
<time>2010-10-24T11:40:30.92</time>
<name>4164</name>
</trkpt>
<trkpt lat="48.933372" lon="8.649548">
<ele>381.5</ele>
<speed>1.64</speed>
<course>116.9</course>
<desc>Speed 5.9 km/h Distance 6.66 km</desc>
<time>2010-10-24T11:40:31.92</time>
<name>4165</name>
</trkpt>
<trkpt lat="48.933365" lon="8.649568">
<ele>381.5</ele>
<speed>1.63</speed>
<course>108.1</course>
<desc>Speed 5.9 km/h Distance 6.67 km</desc>
<time>2010-10-24T11:40:32.91</time>
<name>4166</name>
</trkpt>
<trkpt lat="48.933360" lon="8.649592">
<ele>381.5</ele>
<speed>1.63</speed>
<course>103.2</course>
<desc>Speed 5.9 km/h Distance 6.67 km</desc>
<time>2010-10-24T11:40:33.90</time>
<name>4167</name>
</trkpt>
<trkpt lat="48.933357" lon="8.649613">
<ele>381.5</ele>
<speed>1.58</speed>
<course>109.3</course>
<desc>Speed 5.7 km/h Distance 6.67 km</desc>
<time>2010-10-24T11:40:34.90</time>
<name>4168</name>
</trkpt>
<trkpt lat="48.933352" lon="8.649635">
<ele>381.5</ele>
<speed>1.58</speed>
<course>104.2</course>
<desc>Speed 5.7 km/h Distance 6.67 km</desc>
<time>2010-10-24T11:40:35.90</time>
<name>4169</name>
</trkpt>
<trkpt lat="48.933348" lon="8.649655">
<ele>381.5</ele>
<speed>1.51</speed>
<course>102.3</course>
<desc>Speed 5.4 km/h Distance 6.67 km</desc>
<time>2010-10-24T11:40:36.90</time>
<name>4170</name>
</trkpt>
<trkpt lat="48.933345" lon="8.649678">
<ele>381.5</ele>
<speed>1.71</speed>
<course>103.2</course>
<desc>Speed 6.2 km/h Distance 6.67 km</desc>
<time>2010-10-24T11:40:37.89</time>
<name>4171</name>
</trkpt>
<trkpt lat="48.933342" lon="8.649700">
<ele>381.5</ele>
<speed>1.62</speed>
<course>96.7</course>
<desc>Speed 5.8 km/h Distance 6.68 km</desc>
<time>2010-10-24T11:40:38.89</time>
<name>4172</name>
</trkpt>
<trkpt lat="48.933340" lon="8.649722">
<ele>382.0</ele>
<speed>1.61</speed>
<course>96.7</course>
<desc>Speed 5.8 km/h Distance 6.68 km</desc>
<time>2010-10-24T11:40:39.89</time>
<name>4173</name>
</trkpt>
<trkpt lat="48.933338" lon="8.649743">
<ele>381.5</ele>
<speed>1.54</speed>
<course>90.0</course>
<desc>Speed 5.5 km/h Distance 6.68 km</desc>
<time>2010-10-24T11:40:40.89</time>
<name>4174</name>
</trkpt>
<trkpt lat="48.933338" lon="8.649767">
<ele>381.5</ele>
<speed>1.70</speed>
<course>90.0</course>
<desc>Speed 6.1 km/h Distance 6.68 km</desc>
<time>2010-10-24T11:40:41.89</time>
<name>4175</name>
</trkpt>
<trkpt lat="48.933338" lon="8.649788">
<ele>381.5</ele>
<speed>1.61</speed>
<course>83.3</course>
<desc>Speed 5.8 km/h Distance 6.68 km</desc>
<time>2010-10-24T11:40:42.89</time>
<name>4176</name>
</trkpt>
<trkpt lat="48.933340" lon="8.649810">
<ele>381.5</ele>
<speed>1.54</speed>
<course>90.0</course>
<desc>Speed 5.5 km/h Distance 6.68 km</desc>
<time>2010-10-24T11:40:43.88</time>
<name>4177</name>
</trkpt>
<trkpt lat="48.933340" lon="8.649832">
<ele>381.5</ele>
<speed>1.53</speed>
<course>82.8</course>
<desc>Speed 5.5 km/h Distance 6.68 km</desc>
<time>2010-10-24T11:40:44.88</time>
<name>4178</name>
</trkpt>
<trkpt lat="48.933342" lon="8.649852">
<ele>381.5</ele>
<speed>1.51</speed>
<course>76.8</course>
<desc>Speed 5.4 km/h Distance 6.69 km</desc>
<time>2010-10-24T11:40:45.87</time>
<name>4179</name>
</trkpt>
<trkpt lat="48.933345" lon="8.649873">
<ele>381.5</ele>
<speed>1.62</speed>
<course>83.3</course>
<desc>Speed 5.8 km/h Distance 6.69 km</desc>
<time>2010-10-24T11:40:46.87</time>
<name>4180</name>
</trkpt>
<trkpt lat="48.933347" lon="8.649895">
<ele>381.5</ele>
<speed>1.55</speed>
<course>90.0</course>
<desc>Speed 5.6 km/h Distance 6.69 km</desc>
<time>2010-10-24T11:40:47.87</time>
<name>4181</name>
</trkpt>
<trkpt lat="48.933347" lon="8.649918">
<ele>381.0</ele>
<speed>1.65</speed>
<course>90.0</course>
<desc>Speed 5.9 km/h Distance 6.69 km</desc>
<time>2010-10-24T11:40:48.87</time>
<name>4182</name>
</trkpt>
<trkpt lat="48.933347" lon="8.649942">
<ele>381.0</ele>
<speed>1.64</speed>
<course>96.2</course>
<desc>Speed 5.9 km/h Distance 6.69 km</desc>
<time>2010-10-24T11:40:49.87</time>
<name>4183</name>
</trkpt>
<trkpt lat="48.933345" lon="8.649965">
<ele>381.5</ele>
<speed>1.67</speed>
<course>103.2</course>
<desc>Speed 6.0 km/h Distance 6.69 km</desc>
<time>2010-10-24T11:40:50.86</time>
<name>4184</name>
</trkpt>
<trkpt lat="48.933342" lon="8.649987">
<ele>381.0</ele>
<speed>1.59</speed>
<course>132.4</course>
<desc>Speed 5.7 km/h Distance 6.70 km</desc>
<time>2010-10-24T11:40:51.86</time>
<name>4185</name>
</trkpt>
<trkpt lat="48.933332" lon="8.650003">
<ele>380.5</ele>
<speed>1.50</speed>
<course>127.3</course>
<desc>Speed 5.4 km/h Distance 6.70 km</desc>
<time>2010-10-24T11:40:52.86</time>
<name>4186</name>
</trkpt>
<trkpt lat="48.933323" lon="8.650020">
<ele>380.0</ele>
<speed>1.46</speed>
<course>119.0</course>
<desc>Speed 5.3 km/h Distance 6.70 km</desc>
<time>2010-10-24T11:40:53.85</time>
<name>4187</name>
</trkpt>
<trkpt lat="48.933317" lon="8.650038">
<ele>379.5</ele>
<speed>1.48</speed>
<course>110.8</course>
<desc>Speed 5.3 km/h Distance 6.70 km</desc>
<time>2010-10-24T11:40:54.85</time>
<name>4188</name>
</trkpt>
<trkpt lat="48.933312" lon="8.650058">
<ele>379.5</ele>
<speed>1.48</speed>
<course>112.5</course>
<desc>Speed 5.3 km/h Distance 6.70 km</desc>
<time>2010-10-24T11:40:55.85</time>
<name>4189</name>
</trkpt>
<trkpt lat="48.933307" lon="8.650077">
<ele>380.0</ele>
<speed>1.50</speed>
<course>112.5</course>
<desc>Speed 5.4 km/h Distance 6.70 km</desc>
<time>2010-10-24T11:40:56.85</time>
<name>4190</name>
</trkpt>
<trkpt lat="48.933302" lon="8.650095">
<ele>379.5</ele>
<speed>1.46</speed>
<course>116.9</course>
<desc>Speed 5.3 km/h Distance 6.71 km</desc>
<time>2010-10-24T11:40:57.84</time>
<name>4191</name>
</trkpt>
<trkpt lat="48.933295" lon="8.650115">
<ele>379.5</ele>
<speed>1.55</speed>
<course>121.3</course>
<desc>Speed 5.6 km/h Distance 6.71 km</desc>
<time>2010-10-24T11:40:58.84</time>
<name>4192</name>
</trkpt>
<trkpt lat="48.933288" lon="8.650132">
<ele>379.5</ele>
<speed>1.37</speed>
<course>132.4</course>
<desc>Speed 4.9 km/h Distance 6.71 km</desc>
<time>2010-10-24T11:40:59.84</time>
<name>4193</name>
</trkpt>
<trkpt lat="48.933278" lon="8.650148">
<ele>379.0</ele>
<speed>1.64</speed>
<course>133.5</course>
<desc>Speed 5.9 km/h Distance 6.71 km</desc>
<time>2010-10-24T11:41:00.84</time>
<name>4194</name>
</trkpt>
<trkpt lat="48.933270" lon="8.650162">
<ele>378.5</ele>
<speed>1.30</speed>
<course>127.3</course>
<desc>Speed 4.7 km/h Distance 6.71 km</desc>
<time>2010-10-24T11:41:01.83</time>
<name>4195</name>
</trkpt>
<trkpt lat="48.933262" lon="8.650178">
<ele>378.0</ele>
<speed>1.47</speed>
<course>124.6</course>
<desc>Speed 5.3 km/h Distance 6.71 km</desc>
<time>2010-10-24T11:41:02.83</time>
<name>4196</name>
</trkpt>
<trkpt lat="48.933253" lon="8.650197">
<ele>378.0</ele>
<speed>1.64</speed>
<course>127.3</course>
<desc>Speed 5.9 km/h Distance 6.71 km</desc>
<time>2010-10-24T11:41:03.82</time>
<name>4197</name>
</trkpt>
<trkpt lat="48.933243" lon="8.650217">
<ele>378.0</ele>
<speed>1.69</speed>
<course>131.6</course>
<desc>Speed 6.1 km/h Distance 6.72 km</desc>
<time>2010-10-24T11:41:04.83</time>
<name>4198</name>
</trkpt>
<trkpt lat="48.933232" lon="8.650237">
<ele>377.5</ele>
<speed>1.78</speed>
<course>129.8</course>
<desc>Speed 6.4 km/h Distance 6.72 km</desc>
<time>2010-10-24T11:41:05.82</time>
<name>4199</name>
</trkpt>
<trkpt lat="48.933222" lon="8.650255">
<ele>377.5</ele>
<speed>1.72</speed>
<course>136.9</course>
<desc>Speed 6.2 km/h Distance 6.72 km</desc>
<time>2010-10-24T11:41:06.82</time>
<name>4200</name>
</trkpt>
<trkpt lat="48.933210" lon="8.650272">
<ele>377.5</ele>
<speed>1.76</speed>
<course>134.2</course>
<desc>Speed 6.3 km/h Distance 6.72 km</desc>
<time>2010-10-24T11:41:07.81</time>
<name>4201</name>
</trkpt>
<trkpt lat="48.933198" lon="8.650290">
<ele>377.5</ele>
<speed>1.80</speed>
<course>136.8</course>
<desc>Speed 6.5 km/h Distance 6.72 km</desc>
<time>2010-10-24T11:41:08.82</time>
<name>4202</name>
</trkpt>
<trkpt lat="48.933187" lon="8.650307">
<ele>377.5</ele>
<speed>1.67</speed>
<course>136.7</course>
<desc>Speed 6.0 km/h Distance 6.73 km</desc>
<time>2010-10-24T11:41:09.80</time>
<name>4203</name>
</trkpt>
<trkpt lat="48.933175" lon="8.650323">
<ele>377.5</ele>
<speed>1.66</speed>
<course>135.5</course>
<desc>Speed 6.0 km/h Distance 6.73 km</desc>
<time>2010-10-24T11:41:10.80</time>
<name>4204</name>
</trkpt>
<trkpt lat="48.933165" lon="8.650338">
<ele>377.0</ele>
<speed>1.50</speed>
<course>127.2</course>
<desc>Speed 5.4 km/h Distance 6.73 km</desc>
<time>2010-10-24T11:41:11.79</time>
<name>4205</name>
</trkpt>
<trkpt lat="48.933160" lon="8.650348">
<ele>377.0</ele>
<speed>0.97</speed>
<course>154.4</course>
<desc>Speed 3.5 km/h Distance 6.73 km</desc>
<time>2010-10-24T11:41:12.79</time>
<name>4206</name>
</trkpt>
<trkpt lat="48.933153" lon="8.650353">
<ele>377.5</ele>
<speed>0.63</speed>
<course>106.7</course>
<desc>Speed 2.3 km/h Distance 6.73 km</desc>
<time>2010-10-24T11:41:13.79</time>
<name>4207</name>
</trkpt>
<trkpt lat="48.933152" lon="8.650362">
<ele>377.5</ele>
<speed>0.41</speed>
<course>135.5</course>
<desc>Speed 1.5 km/h Distance 6.73 km</desc>
<time>2010-10-24T11:41:17.78</time>
<name>4208</name>
</trkpt>
<trkpt lat="48.933145" lon="8.650372">
<ele>377.5</ele>
<speed>1.04</speed>
<course>116.9</course>
<desc>Speed 3.7 km/h Distance 6.73 km</desc>
<time>2010-10-24T11:41:18.78</time>
<name>4209</name>
</trkpt>
<trkpt lat="48.933140" lon="8.650387">
<ele>377.5</ele>
<speed>1.28</speed>
<course>124.1</course>
<desc>Speed 4.6 km/h Distance 6.73 km</desc>
<time>2010-10-24T11:41:19.78</time>
<name>4210</name>
</trkpt>
<trkpt lat="48.933133" lon="8.650402">
<ele>377.5</ele>
<speed>1.10</speed>
<course>119.0</course>
<desc>Speed 4.0 km/h Distance 6.73 km</desc>
<time>2010-10-24T11:41:20.78</time>
<name>4211</name>
</trkpt>
<trkpt lat="48.933127" lon="8.650420">
<ele>377.5</ele>
<speed>1.45</speed>
<course>114.6</course>
<desc>Speed 5.2 km/h Distance 6.74 km</desc>
<time>2010-10-24T11:41:21.77</time>
<name>4212</name>
</trkpt>
<trkpt lat="48.933122" lon="8.650437">
<ele>377.5</ele>
<speed>1.37</speed>
<course>90.0</course>
<desc>Speed 4.9 km/h Distance 6.74 km</desc>
<time>2010-10-24T11:41:22.76</time>
<name>4213</name>
</trkpt>
<trkpt lat="48.933122" lon="8.650455">
<ele>379.0</ele>
<speed>1.08</speed>
<course>98.7</course>
<desc>Speed 3.9 km/h Distance 6.74 km</desc>
<time>2010-10-24T11:41:23.76</time>
<name>4214</name>
</trkpt>
<trkpt lat="48.933120" lon="8.650472">
<ele>379.5</ele>
<speed>1.17</speed>
<course>119.8</course>
<desc>Speed 4.2 km/h Distance 6.74 km</desc>
<time>2010-10-24T11:41:24.76</time>
<name>4215</name>
</trkpt>
<trkpt lat="48.933115" lon="8.650485">
<ele>380.5</ele>
<speed>1.19</speed>
<course>119.0</course>
<desc>Speed 4.3 km/h Distance 6.74 km</desc>
<time>2010-10-24T11:41:25.76</time>
<name>4216</name>
</trkpt>
<trkpt lat="48.933108" lon="8.650503">
<ele>381.0</ele>
<speed>1.25</speed>
<course>121.3</course>
<desc>Speed 4.5 km/h Distance 6.74 km</desc>
<time>2010-10-24T11:41:26.76</time>
<name>4217</name>
</trkpt>
<trkpt lat="48.933102" lon="8.650520">
<ele>381.0</ele>
<speed>1.47</speed>
<course>124.7</course>
<desc>Speed 5.3 km/h Distance 6.74 km</desc>
<time>2010-10-24T11:41:27.75</time>
<name>4218</name>
</trkpt>
<trkpt lat="48.933093" lon="8.650538">
<ele>380.5</ele>
<speed>1.45</speed>
<course>90.0</course>
<desc>Speed 5.2 km/h Distance 6.75 km</desc>
<time>2010-10-24T11:41:28.75</time>
<name>4219</name>
</trkpt>
<trkpt lat="48.933093" lon="8.650547">
<ele>380.5</ele>
<speed>0.40</speed>
<course>84.2</course>
<desc>Speed 1.4 km/h Distance 6.75 km</desc>
<time>2010-10-24T11:41:29.75</time>
<name>4220</name>
</trkpt>
<trkpt lat="48.933095" lon="8.650572">
<ele>381.5</ele>
<speed>0.87</speed>
<course>98.6</course>
<desc>Speed 3.1 km/h Distance 6.75 km</desc>
<time>2010-10-24T11:41:33.74</time>
<name>4221</name>
</trkpt>
<trkpt lat="48.933093" lon="8.650588">
<ele>382.0</ele>
<speed>1.01</speed>
<course>139.8</course>
<desc>Speed 3.6 km/h Distance 6.75 km</desc>
<time>2010-10-24T11:41:34.74</time>
<name>4222</name>
</trkpt>
<trkpt lat="48.933082" lon="8.650603">
<ele>382.0</ele>
<speed>1.54</speed>
<course>127.3</course>
<desc>Speed 5.5 km/h Distance 6.75 km</desc>
<time>2010-10-24T11:41:35.73</time>
<name>4223</name>
</trkpt>
<trkpt lat="48.933072" lon="8.650623">
<ele>381.5</ele>
<speed>1.45</speed>
<course>119.0</course>
<desc>Speed 5.2 km/h Distance 6.75 km</desc>
<time>2010-10-24T11:41:36.73</time>
<name>4224</name>
</trkpt>
<trkpt lat="48.933065" lon="8.650642">
<ele>381.0</ele>
<speed>1.45</speed>
<course>108.1</course>
<desc>Speed 5.2 km/h Distance 6.75 km</desc>
<time>2010-10-24T11:41:37.72</time>
<name>4225</name>
</trkpt>
<trkpt lat="48.933060" lon="8.650665">
<ele>381.0</ele>
<speed>1.51</speed>
<course>118.5</course>
<desc>Speed 5.4 km/h Distance 6.76 km</desc>
<time>2010-10-24T11:41:38.71</time>
<name>4226</name>
</trkpt>
<trkpt lat="48.933052" lon="8.650688">
<ele>380.5</ele>
<speed>1.73</speed>
<course>115.1</course>
<desc>Speed 6.2 km/h Distance 6.76 km</desc>
<time>2010-10-24T11:41:39.71</time>
<name>4227</name>
</trkpt>
<trkpt lat="48.933045" lon="8.650710">
<ele>380.5</ele>
<speed>1.57</speed>
<course>108.1</course>
<desc>Speed 5.7 km/h Distance 6.76 km</desc>
<time>2010-10-24T11:41:40.70</time>
<name>4228</name>
</trkpt>
<trkpt lat="48.933040" lon="8.650733">
<ele>380.5</ele>
<speed>1.62</speed>
<course>102.3</course>
<desc>Speed 5.8 km/h Distance 6.76 km</desc>
<time>2010-10-24T11:41:41.70</time>
<name>4229</name>
</trkpt>
<trkpt lat="48.933037" lon="8.650757">
<ele>380.5</ele>
<speed>1.53</speed>
<course>95.8</course>
<desc>Speed 5.5 km/h Distance 6.76 km</desc>
<time>2010-10-24T11:41:42.69</time>
<name>4230</name>
</trkpt>
<trkpt lat="48.933035" lon="8.650782">
<ele>381.0</ele>
<speed>1.66</speed>
<course>115.1</course>
<desc>Speed 6.0 km/h Distance 6.77 km</desc>
<time>2010-10-24T11:41:43.69</time>
<name>4231</name>
</trkpt>
<trkpt lat="48.933028" lon="8.650803">
<ele>380.5</ele>
<speed>1.66</speed>
<course>127.3</course>
<desc>Speed 6.0 km/h Distance 6.77 km</desc>
<time>2010-10-24T11:41:44.68</time>
<name>4232</name>
</trkpt>
<trkpt lat="48.933018" lon="8.650823">
<ele>380.5</ele>
<speed>1.73</speed>
<course>129.7</course>
<desc>Speed 6.2 km/h Distance 6.77 km</desc>
<time>2010-10-24T11:41:45.87</time>
<name>4233</name>
</trkpt>
<trkpt lat="48.933008" lon="8.650842">
<ele>380.0</ele>
<speed>1.66</speed>
<course>129.7</course>
<desc>Speed 6.0 km/h Distance 6.77 km</desc>
<time>2010-10-24T11:41:46.67</time>
<name>4234</name>
</trkpt>
<trkpt lat="48.932998" lon="8.650860">
<ele>380.0</ele>
<speed>1.63</speed>
<course>122.4</course>
<desc>Speed 5.9 km/h Distance 6.77 km</desc>
<time>2010-10-24T11:41:47.66</time>
<name>4235</name>
</trkpt>
<trkpt lat="48.932990" lon="8.650880">
<ele>380.0</ele>
<speed>1.65</speed>
<course>124.7</course>
<desc>Speed 5.9 km/h Distance 6.77 km</desc>
<time>2010-10-24T11:41:48.66</time>
<name>4236</name>
</trkpt>
<trkpt lat="48.932982" lon="8.650898">
<ele>380.5</ele>
<speed>1.50</speed>
<course>119.0</course>
<desc>Speed 5.4 km/h Distance 6.78 km</desc>
<time>2010-10-24T11:41:49.66</time>
<name>4237</name>
</trkpt>
<trkpt lat="48.932975" lon="8.650917">
<ele>380.5</ele>
<speed>1.53</speed>
<course>121.3</course>
<desc>Speed 5.5 km/h Distance 6.78 km</desc>
<time>2010-10-24T11:41:50.66</time>
<name>4238</name>
</trkpt>
<trkpt lat="48.932968" lon="8.650933">
<ele>380.5</ele>
<speed>1.50</speed>
<course>118.9</course>
<desc>Speed 5.4 km/h Distance 6.78 km</desc>
<time>2010-10-24T11:41:51.65</time>
<name>4239</name>
</trkpt>
<trkpt lat="48.932962" lon="8.650952">
<ele>380.5</ele>
<speed>1.53</speed>
<course>122.3</course>
<desc>Speed 5.5 km/h Distance 6.78 km</desc>
<time>2010-10-24T11:41:52.65</time>
<name>4240</name>
</trkpt>
<trkpt lat="48.932953" lon="8.650972">
<ele>380.5</ele>
<speed>1.61</speed>
<course>129.6</course>
<desc>Speed 5.8 km/h Distance 6.78 km</desc>
<time>2010-10-24T11:41:53.64</time>
<name>4241</name>
</trkpt>
<trkpt lat="48.932943" lon="8.650990">
<ele>380.5</ele>
<speed>1.54</speed>
<course>124.7</course>
<desc>Speed 5.5 km/h Distance 6.78 km</desc>
<time>2010-10-24T11:41:54.64</time>
<name>4242</name>
</trkpt>
<trkpt lat="48.932935" lon="8.651008">
<ele>380.5</ele>
<speed>1.53</speed>
<course>124.7</course>
<desc>Speed 5.5 km/h Distance 6.79 km</desc>
<time>2010-10-24T11:41:55.63</time>
<name>4243</name>
</trkpt>
<trkpt lat="48.932927" lon="8.651027">
<ele>380.5</ele>
<speed>1.50</speed>
<course>124.7</course>
<desc>Speed 5.4 km/h Distance 6.79 km</desc>
<time>2010-10-24T11:41:56.63</time>
<name>4244</name>
</trkpt>
<trkpt lat="48.932918" lon="8.651045">
<ele>380.0</ele>
<speed>1.55</speed>
<course>129.7</course>
<desc>Speed 5.6 km/h Distance 6.79 km</desc>
<time>2010-10-24T11:41:57.62</time>
<name>4245</name>
</trkpt>
<trkpt lat="48.932908" lon="8.651063">
<ele>380.0</ele>
<speed>1.63</speed>
<course>134.1</course>
<desc>Speed 5.9 km/h Distance 6.79 km</desc>
<time>2010-10-24T11:41:58.62</time>
<name>4246</name>
</trkpt>
<trkpt lat="48.932897" lon="8.651082">
<ele>380.0</ele>
<speed>1.67</speed>
<course>127.3</course>
<desc>Speed 6.0 km/h Distance 6.79 km</desc>
<time>2010-10-24T11:41:59.62</time>
<name>4247</name>
</trkpt>
<trkpt lat="48.932887" lon="8.651102">
<ele>380.0</ele>
<speed>1.73</speed>
<course>122.3</course>
<desc>Speed 6.2 km/h Distance 6.79 km</desc>
<time>2010-10-24T11:42:00.61</time>
<name>4248</name>
</trkpt>
<trkpt lat="48.932878" lon="8.651122">
<ele>380.0</ele>
<speed>1.70</speed>
<course>122.3</course>
<desc>Speed 6.1 km/h Distance 6.80 km</desc>
<time>2010-10-24T11:42:01.61</time>
<name>4249</name>
</trkpt>
<trkpt lat="48.932870" lon="8.651142">
<ele>380.0</ele>
<speed>1.64</speed>
<course>127.2</course>
<desc>Speed 5.9 km/h Distance 6.80 km</desc>
<time>2010-10-24T11:42:02.61</time>
<name>4250</name>
</trkpt>
<trkpt lat="48.932860" lon="8.651162">
<ele>379.5</ele>
<speed>1.64</speed>
<course>129.7</course>
<desc>Speed 5.9 km/h Distance 6.80 km</desc>
<time>2010-10-24T11:42:03.60</time>
<name>4251</name>
</trkpt>
<trkpt lat="48.932850" lon="8.651180">
<ele>379.5</ele>
<speed>1.63</speed>
<course>115.1</course>
<desc>Speed 5.9 km/h Distance 6.80 km</desc>
<time>2010-10-24T11:42:04.59</time>
<name>4252</name>
</trkpt>
<trkpt lat="48.932843" lon="8.651202">
<ele>379.5</ele>
<speed>1.62</speed>
<course>127.3</course>
<desc>Speed 5.8 km/h Distance 6.80 km</desc>
<time>2010-10-24T11:42:05.59</time>
<name>4253</name>
</trkpt>
<trkpt lat="48.932833" lon="8.651222">
<ele>379.5</ele>
<speed>1.64</speed>
<course>122.4</course>
<desc>Speed 5.9 km/h Distance 6.81 km</desc>
<time>2010-10-24T11:42:06.59</time>
<name>4254</name>
</trkpt>
<trkpt lat="48.932825" lon="8.651242">
<ele>379.0</ele>
<speed>1.65</speed>
<course>122.4</course>
<desc>Speed 5.9 km/h Distance 6.81 km</desc>
<time>2010-10-24T11:42:07.58</time>
<name>4255</name>
</trkpt>
<trkpt lat="48.932817" lon="8.651262">
<ele>379.0</ele>
<speed>1.64</speed>
<course>115.1</course>
<desc>Speed 5.9 km/h Distance 6.81 km</desc>
<time>2010-10-24T11:42:08.58</time>
<name>4256</name>
</trkpt>
<trkpt lat="48.932810" lon="8.651283">
<ele>379.5</ele>
<speed>1.71</speed>
<course>120.3</course>
<desc>Speed 6.2 km/h Distance 6.81 km</desc>
<time>2010-10-24T11:42:09.57</time>
<name>4257</name>
</trkpt>
<trkpt lat="48.932802" lon="8.651305">
<ele>379.0</ele>
<speed>1.70</speed>
<course>122.3</course>
<desc>Speed 6.1 km/h Distance 6.81 km</desc>
<time>2010-10-24T11:42:10.56</time>
<name>4258</name>
</trkpt>
<trkpt lat="48.932793" lon="8.651325">
<ele>379.0</ele>
<speed>1.70</speed>
<course>124.7</course>
<desc>Speed 6.1 km/h Distance 6.81 km</desc>
<time>2010-10-24T11:42:11.56</time>
<name>4259</name>
</trkpt>
<trkpt lat="48.932785" lon="8.651343">
<ele>379.0</ele>
<speed>1.65</speed>
<course>115.1</course>
<desc>Speed 5.9 km/h Distance 6.82 km</desc>
<time>2010-10-24T11:42:12.55</time>
<name>4260</name>
</trkpt>
<trkpt lat="48.932778" lon="8.651365">
<ele>379.0</ele>
<speed>1.67</speed>
<course>122.4</course>
<desc>Speed 6.0 km/h Distance 6.82 km</desc>
<time>2010-10-24T11:42:13.55</time>
<name>4261</name>
</trkpt>
<trkpt lat="48.932770" lon="8.651385">
<ele>378.5</ele>
<speed>1.71</speed>
<course>124.7</course>
<desc>Speed 6.2 km/h Distance 6.82 km</desc>
<time>2010-10-24T11:42:14.54</time>
<name>4262</name>
</trkpt>
<trkpt lat="48.932762" lon="8.651403">
<ele>378.5</ele>
<speed>1.74</speed>
<course>122.4</course>
<desc>Speed 6.3 km/h Distance 6.82 km</desc>
<time>2010-10-24T11:42:15.54</time>
<name>4263</name>
</trkpt>
<trkpt lat="48.932753" lon="8.651423">
<ele>378.5</ele>
<speed>1.70</speed>
<course>115.1</course>
<desc>Speed 6.1 km/h Distance 6.82 km</desc>
<time>2010-10-24T11:42:16.53</time>
<name>4264</name>
</trkpt>
<trkpt lat="48.932747" lon="8.651445">
<ele>379.0</ele>
<speed>1.70</speed>
<course>118.9</course>
<desc>Speed 6.1 km/h Distance 6.82 km</desc>
<time>2010-10-24T11:42:17.52</time>
<name>4265</name>
</trkpt>
<trkpt lat="48.932740" lon="8.651463">
<ele>378.5</ele>
<speed>1.60</speed>
<course>121.3</course>
<desc>Speed 5.8 km/h Distance 6.83 km</desc>
<time>2010-10-24T11:42:18.52</time>
<name>4266</name>
</trkpt>
<trkpt lat="48.932733" lon="8.651480">
<ele>378.5</ele>
<speed>1.45</speed>
<course>121.4</course>
<desc>Speed 5.2 km/h Distance 6.83 km</desc>
<time>2010-10-24T11:42:19.51</time>
<name>4267</name>
</trkpt>
<trkpt lat="48.932727" lon="8.651497">
<ele>378.0</ele>
<speed>1.46</speed>
<course>122.4</course>
<desc>Speed 5.3 km/h Distance 6.83 km</desc>
<time>2010-10-24T11:42:20.51</time>
<name>4268</name>
</trkpt>
<trkpt lat="48.932718" lon="8.651517">
<ele>378.5</ele>
<speed>1.64</speed>
<course>124.6</course>
<desc>Speed 5.9 km/h Distance 6.83 km</desc>
<time>2010-10-24T11:42:21.51</time>
<name>4269</name>
</trkpt>
<trkpt lat="48.932710" lon="8.651535">
<ele>378.0</ele>
<speed>1.60</speed>
<course>127.3</course>
<desc>Speed 5.8 km/h Distance 6.83 km</desc>
<time>2010-10-24T11:42:22.51</time>
<name>4270</name>
</trkpt>
<trkpt lat="48.932702" lon="8.651552">
<ele>377.5</ele>
<speed>1.57</speed>
<course>129.7</course>
<desc>Speed 5.7 km/h Distance 6.83 km</desc>
<time>2010-10-24T11:42:23.50</time>
<name>4271</name>
</trkpt>
<trkpt lat="48.932692" lon="8.651570">
<ele>377.5</ele>
<speed>1.65</speed>
<course>110.8</course>
<desc>Speed 5.9 km/h Distance 6.84 km</desc>
<time>2010-10-24T11:42:24.50</time>
<name>4272</name>
</trkpt>
<trkpt lat="48.932687" lon="8.651590">
<ele>378.0</ele>
<speed>1.49</speed>
<course>119.0</course>
<desc>Speed 5.4 km/h Distance 6.84 km</desc>
<time>2010-10-24T11:42:25.49</time>
<name>4273</name>
</trkpt>
<trkpt lat="48.932680" lon="8.651608">
<ele>378.0</ele>
<speed>1.53</speed>
<course>116.9</course>
<desc>Speed 5.5 km/h Distance 6.84 km</desc>
<time>2010-10-24T11:42:26.49</time>
<name>4274</name>
</trkpt>
<trkpt lat="48.932673" lon="8.651628">
<ele>378.5</ele>
<speed>1.61</speed>
<course>109.4</course>
<desc>Speed 5.8 km/h Distance 6.84 km</desc>
<time>2010-10-24T11:42:27.48</time>
<name>4275</name>
</trkpt>
<trkpt lat="48.932668" lon="8.651650">
<ele>379.0</ele>
<speed>1.66</speed>
<course>109.4</course>
<desc>Speed 6.0 km/h Distance 6.84 km</desc>
<time>2010-10-24T11:42:28.47</time>
<name>4276</name>
</trkpt>
<trkpt lat="48.932663" lon="8.651672">
<ele>379.5</ele>
<speed>1.65</speed>
<course>120.3</course>
<desc>Speed 5.9 km/h Distance 6.84 km</desc>
<time>2010-10-24T11:42:29.47</time>
<name>4277</name>
</trkpt>
<trkpt lat="48.932655" lon="8.651693">
<ele>379.5</ele>
<speed>1.67</speed>
<course>127.3</course>
<desc>Speed 6.0 km/h Distance 6.84 km</desc>
<time>2010-10-24T11:42:30.47</time>
<name>4278</name>
</trkpt>
<trkpt lat="48.932645" lon="8.651713">
<ele>379.5</ele>
<speed>1.71</speed>
<course>122.4</course>
<desc>Speed 6.2 km/h Distance 6.85 km</desc>
<time>2010-10-24T11:42:31.47</time>
<name>4279</name>
</trkpt>
<trkpt lat="48.932637" lon="8.651733">
<ele>379.5</ele>
<speed>1.75</speed>
<course>127.3</course>
<desc>Speed 6.3 km/h Distance 6.85 km</desc>
<time>2010-10-24T11:42:32.46</time>
<name>4280</name>
</trkpt>
<trkpt lat="48.932627" lon="8.651753">
<ele>379.0</ele>
<speed>1.65</speed>
<course>129.7</course>
<desc>Speed 5.9 km/h Distance 6.85 km</desc>
<time>2010-10-24T11:42:33.45</time>
<name>4281</name>
</trkpt>
<trkpt lat="48.932617" lon="8.651772">
<ele>379.0</ele>
<speed>1.64</speed>
<course>122.3</course>
<desc>Speed 5.9 km/h Distance 6.85 km</desc>
<time>2010-10-24T11:42:34.44</time>
<name>4282</name>
</trkpt>
<trkpt lat="48.932608" lon="8.651792">
<ele>379.0</ele>
<speed>1.64</speed>
<course>127.3</course>
<desc>Speed 5.9 km/h Distance 6.85 km</desc>
<time>2010-10-24T11:42:35.45</time>
<name>4283</name>
</trkpt>
<trkpt lat="48.932598" lon="8.651812">
<ele>379.0</ele>
<speed>1.70</speed>
<course>127.3</course>
<desc>Speed 6.1 km/h Distance 6.86 km</desc>
<time>2010-10-24T11:42:36.44</time>
<name>4284</name>
</trkpt>
<trkpt lat="48.932588" lon="8.651832">
<ele>379.0</ele>
<speed>1.73</speed>
<course>119.0</course>
<desc>Speed 6.2 km/h Distance 6.86 km</desc>
<time>2010-10-24T11:42:37.43</time>
<name>4285</name>
</trkpt>
<trkpt lat="48.932582" lon="8.651850">
<ele>379.0</ele>
<speed>1.63</speed>
<course>124.6</course>
<desc>Speed 5.9 km/h Distance 6.86 km</desc>
<time>2010-10-24T11:42:38.43</time>
<name>4286</name>
</trkpt>
<trkpt lat="48.932573" lon="8.651868">
<ele>379.5</ele>
<speed>1.54</speed>
<course>124.7</course>
<desc>Speed 5.5 km/h Distance 6.86 km</desc>
<time>2010-10-24T11:42:39.42</time>
<name>4287</name>
</trkpt>
<trkpt lat="48.932565" lon="8.651887">
<ele>379.5</ele>
<speed>1.57</speed>
<course>129.7</course>
<desc>Speed 5.7 km/h Distance 6.86 km</desc>
<time>2010-10-24T11:42:40.42</time>
<name>4288</name>
</trkpt>
<trkpt lat="48.932555" lon="8.651905">
<ele>379.5</ele>
<speed>1.63</speed>
<course>129.7</course>
<desc>Speed 5.9 km/h Distance 6.86 km</desc>
<time>2010-10-24T11:42:41.41</time>
<name>4289</name>
</trkpt>
<trkpt lat="48.932545" lon="8.651923">
<ele>379.5</ele>
<speed>1.65</speed>
<course>132.4</course>
<desc>Speed 5.9 km/h Distance 6.87 km</desc>
<time>2010-10-24T11:42:42.41</time>
<name>4290</name>
</trkpt>
<trkpt lat="48.932535" lon="8.651940">
<ele>379.5</ele>
<speed>1.65</speed>
<course>129.7</course>
<desc>Speed 5.9 km/h Distance 6.87 km</desc>
<time>2010-10-24T11:42:43.41</time>
<name>4291</name>
</trkpt>
<trkpt lat="48.932525" lon="8.651958">
<ele>379.5</ele>
<speed>1.71</speed>
<course>136.7</course>
<desc>Speed 6.2 km/h Distance 6.87 km</desc>
<time>2010-10-24T11:42:44.40</time>
<name>4292</name>
</trkpt>
<trkpt lat="48.932513" lon="8.651975">
<ele>379.0</ele>
<speed>1.75</speed>
<course>136.7</course>
<desc>Speed 6.3 km/h Distance 6.87 km</desc>
<time>2010-10-24T11:42:45.40</time>
<name>4293</name>
</trkpt>
<trkpt lat="48.932502" lon="8.651992">
<ele>379.0</ele>
<speed>1.74</speed>
<course>134.1</course>
<desc>Speed 6.3 km/h Distance 6.87 km</desc>
<time>2010-10-24T11:42:46.40</time>
<name>4294</name>
</trkpt>
<trkpt lat="48.932490" lon="8.652010">
<ele>379.0</ele>
<speed>1.65</speed>
<course>129.7</course>
<desc>Speed 5.9 km/h Distance 6.87 km</desc>
<time>2010-10-24T11:42:47.39</time>
<name>4295</name>
</trkpt>
<trkpt lat="48.932480" lon="8.652028">
<ele>379.0</ele>
<speed>1.63</speed>
<course>127.3</course>
<desc>Speed 5.9 km/h Distance 6.88 km</desc>
<time>2010-10-24T11:42:48.39</time>
<name>4296</name>
</trkpt>
<trkpt lat="48.932472" lon="8.652045">
<ele>378.5</ele>
<speed>1.60</speed>
<course>135.5</course>
<desc>Speed 5.8 km/h Distance 6.88 km</desc>
<time>2010-10-24T11:42:49.39</time>
<name>4297</name>
</trkpt>
<trkpt lat="48.932462" lon="8.652060">
<ele>378.5</ele>
<speed>1.50</speed>
<course>132.4</course>
<desc>Speed 5.4 km/h Distance 6.88 km</desc>
<time>2010-10-24T11:42:50.38</time>
<name>4298</name>
</trkpt>
<trkpt lat="48.932452" lon="8.652077">
<ele>378.5</ele>
<speed>1.67</speed>
<course>139.8</course>
<desc>Speed 6.0 km/h Distance 6.88 km</desc>
<time>2010-10-24T11:42:51.38</time>
<name>4299</name>
</trkpt>
<trkpt lat="48.932440" lon="8.652092">
<ele>378.0</ele>
<speed>1.66</speed>
<course>132.4</course>
<desc>Speed 6.0 km/h Distance 6.88 km</desc>
<time>2010-10-24T11:42:52.37</time>
<name>4300</name>
</trkpt>
<trkpt lat="48.932430" lon="8.652108">
<ele>378.0</ele>
<speed>1.69</speed>
<course>146.7</course>
<desc>Speed 6.1 km/h Distance 6.88 km</desc>
<time>2010-10-24T11:42:53.36</time>
<name>4301</name>
</trkpt>
<trkpt lat="48.932417" lon="8.652122">
<ele>377.5</ele>
<speed>1.63</speed>
<course>124.1</course>
<desc>Speed 5.9 km/h Distance 6.89 km</desc>
<time>2010-10-24T11:42:54.35</time>
<name>4302</name>
</trkpt>
<trkpt lat="48.932410" lon="8.652137">
<ele>377.5</ele>
<speed>1.36</speed>
<course>143.1</course>
<desc>Speed 4.9 km/h Distance 6.89 km</desc>
<time>2010-10-24T11:42:55.35</time>
<name>4303</name>
</trkpt>
<trkpt lat="48.932398" lon="8.652150">
<ele>377.0</ele>
<speed>1.48</speed>
<course>146.6</course>
<desc>Speed 5.3 km/h Distance 6.89 km</desc>
<time>2010-10-24T11:42:56.35</time>
<name>4304</name>
</trkpt>
<trkpt lat="48.932387" lon="8.652162">
<ele>376.5</ele>
<speed>1.54</speed>
<course>139.7</course>
<desc>Speed 5.5 km/h Distance 6.89 km</desc>
<time>2010-10-24T11:42:57.33</time>
<name>4305</name>
</trkpt>
<trkpt lat="48.932375" lon="8.652177">
<ele>376.5</ele>
<speed>1.75</speed>
<course>132.4</course>
<desc>Speed 6.3 km/h Distance 6.89 km</desc>
<time>2010-10-24T11:42:58.33</time>
<name>4306</name>
</trkpt>
<trkpt lat="48.932365" lon="8.652193">
<ele>376.5</ele>
<speed>1.64</speed>
<course>143.0</course>
<desc>Speed 5.9 km/h Distance 6.89 km</desc>
<time>2010-10-24T11:42:59.33</time>
<name>4307</name>
</trkpt>
<trkpt lat="48.932353" lon="8.652207">
<ele>376.5</ele>
<speed>1.58</speed>
<course>146.6</course>
<desc>Speed 5.7 km/h Distance 6.90 km</desc>
<time>2010-10-24T11:43:00.32</time>
<name>4308</name>
</trkpt>
<trkpt lat="48.932340" lon="8.652220">
<ele>376.5</ele>
<speed>1.57</speed>
<course>142.5</course>
<desc>Speed 5.7 km/h Distance 6.90 km</desc>
<time>2010-10-24T11:43:01.32</time>
<name>4309</name>
</trkpt>
<trkpt lat="48.932330" lon="8.652232">
<ele>377.0</ele>
<speed>1.49</speed>
<course>138.7</course>
<desc>Speed 5.4 km/h Distance 6.90 km</desc>
<time>2010-10-24T11:43:02.31</time>
<name>4310</name>
</trkpt>
<trkpt lat="48.932320" lon="8.652245">
<ele>377.0</ele>
<speed>1.69</speed>
<course>135.5</course>
<desc>Speed 6.1 km/h Distance 6.90 km</desc>
<time>2010-10-24T11:43:03.31</time>
<name>4311</name>
</trkpt>
<trkpt lat="48.932310" lon="8.652260">
<ele>377.5</ele>
<speed>1.63</speed>
<course>132.4</course>
<desc>Speed 5.9 km/h Distance 6.90 km</desc>
<time>2010-10-24T11:43:04.30</time>
<name>4312</name>
</trkpt>
<trkpt lat="48.932300" lon="8.652277">
<ele>378.5</ele>
<speed>1.61</speed>
<course>135.4</course>
<desc>Speed 5.8 km/h Distance 6.90 km</desc>
<time>2010-10-24T11:43:05.29</time>
<name>4313</name>
</trkpt>
<trkpt lat="48.932290" lon="8.652292">
<ele>378.5</ele>
<speed>1.44</speed>
<course>132.4</course>
<desc>Speed 5.2 km/h Distance 6.91 km</desc>
<time>2010-10-24T11:43:06.29</time>
<name>4314</name>
</trkpt>
<trkpt lat="48.932280" lon="8.652308">
<ele>378.5</ele>
<speed>1.54</speed>
<course>124.7</course>
<desc>Speed 5.5 km/h Distance 6.91 km</desc>
<time>2010-10-24T11:43:07.29</time>
<name>4315</name>
</trkpt>
<trkpt lat="48.932272" lon="8.652327">
<ele>378.5</ele>
<speed>1.49</speed>
<course>132.4</course>
<desc>Speed 5.4 km/h Distance 6.91 km</desc>
<time>2010-10-24T11:43:08.30</time>
<name>4316</name>
</trkpt>
<trkpt lat="48.932262" lon="8.652343">
<ele>379.0</ele>
<speed>1.61</speed>
<course>124.6</course>
<desc>Speed 5.8 km/h Distance 6.91 km</desc>
<time>2010-10-24T11:43:09.28</time>
<name>4317</name>
</trkpt>
<trkpt lat="48.932253" lon="8.652362">
<ele>379.0</ele>
<speed>1.62</speed>
<course>115.1</course>
<desc>Speed 5.8 km/h Distance 6.91 km</desc>
<time>2010-10-24T11:43:10.27</time>
<name>4318</name>
</trkpt>
<trkpt lat="48.932247" lon="8.652383">
<ele>379.0</ele>
<speed>1.59</speed>
<course>115.1</course>
<desc>Speed 5.7 km/h Distance 6.91 km</desc>
<time>2010-10-24T11:43:11.27</time>
<name>4319</name>
</trkpt>
<trkpt lat="48.932240" lon="8.652405">
<ele>379.5</ele>
<speed>1.65</speed>
<course>120.4</course>
<desc>Speed 5.9 km/h Distance 6.92 km</desc>
<time>2010-10-24T11:43:12.27</time>
<name>4320</name>
</trkpt>
<trkpt lat="48.932232" lon="8.652427">
<ele>379.5</ele>
<speed>1.65</speed>
<course>116.9</course>
<desc>Speed 5.9 km/h Distance 6.92 km</desc>
<time>2010-10-24T11:43:13.26</time>
<name>4321</name>
</trkpt>
<trkpt lat="48.932225" lon="8.652447">
<ele>380.0</ele>
<speed>1.54</speed>
<course>118.5</course>
<desc>Speed 5.5 km/h Distance 6.92 km</desc>
<time>2010-10-24T11:43:14.25</time>
<name>4322</name>
</trkpt>
<trkpt lat="48.932217" lon="8.652470">
<ele>380.0</ele>
<speed>1.71</speed>
<course>109.4</course>
<desc>Speed 6.2 km/h Distance 6.92 km</desc>
<time>2010-10-24T11:43:15.25</time>
<name>4323</name>
</trkpt>
<trkpt lat="48.932212" lon="8.652492">
<ele>380.0</ele>
<speed>1.58</speed>
<course>113.5</course>
<desc>Speed 5.7 km/h Distance 6.92 km</desc>
<time>2010-10-24T11:43:16.24</time>
<name>4324</name>
</trkpt>
<trkpt lat="48.932205" lon="8.652515">
<ele>380.5</ele>
<speed>1.65</speed>
<course>108.1</course>
<desc>Speed 5.9 km/h Distance 6.92 km</desc>
<time>2010-10-24T11:43:17.24</time>
<name>4325</name>
</trkpt>
<trkpt lat="48.932200" lon="8.652538">
<ele>380.5</ele>
<speed>1.59</speed>
<course>108.1</course>
<desc>Speed 5.7 km/h Distance 6.93 km</desc>
<time>2010-10-24T11:43:18.24</time>
<name>4326</name>
</trkpt>
<trkpt lat="48.932195" lon="8.652562">
<ele>380.5</ele>
<speed>1.67</speed>
<course>115.1</course>
<desc>Speed 6.0 km/h Distance 6.93 km</desc>
<time>2010-10-24T11:43:19.23</time>
<name>4327</name>
</trkpt>
<trkpt lat="48.932188" lon="8.652583">
<ele>380.5</ele>
<speed>1.65</speed>
<course>116.9</course>
<desc>Speed 5.9 km/h Distance 6.93 km</desc>
<time>2010-10-24T11:43:20.23</time>
<name>4328</name>
</trkpt>
<trkpt lat="48.932182" lon="8.652603">
<ele>380.5</ele>
<speed>1.62</speed>
<course>118.5</course>
<desc>Speed 5.8 km/h Distance 6.93 km</desc>
<time>2010-10-24T11:43:21.23</time>
<name>4329</name>
</trkpt>
<trkpt lat="48.932173" lon="8.652627">
<ele>380.5</ele>
<speed>1.70</speed>
<course>110.8</course>
<desc>Speed 6.1 km/h Distance 6.93 km</desc>
<time>2010-10-24T11:43:22.22</time>
<name>4330</name>
</trkpt>
<trkpt lat="48.932168" lon="8.652647">
<ele>380.5</ele>
<speed>1.62</speed>
<course>115.1</course>
<desc>Speed 5.8 km/h Distance 6.93 km</desc>
<time>2010-10-24T11:43:23.22</time>
<name>4331</name>
</trkpt>
<trkpt lat="48.932162" lon="8.652668">
<ele>380.5</ele>
<speed>1.66</speed>
<course>109.4</course>
<desc>Speed 6.0 km/h Distance 6.94 km</desc>
<time>2010-10-24T11:43:24.22</time>
<name>4332</name>
</trkpt>
<trkpt lat="48.932157" lon="8.652690">
<ele>381.0</ele>
<speed>1.60</speed>
<course>116.9</course>
<desc>Speed 5.8 km/h Distance 6.94 km</desc>
<time>2010-10-24T11:43:25.22</time>
<name>4333</name>
</trkpt>
<trkpt lat="48.932150" lon="8.652710">
<ele>381.0</ele>
<speed>1.62</speed>
<course>122.4</course>
<desc>Speed 5.8 km/h Distance 6.94 km</desc>
<time>2010-10-24T11:43:26.21</time>
<name>4334</name>
</trkpt>
<trkpt lat="48.932142" lon="8.652730">
<ele>380.5</ele>
<speed>1.65</speed>
<course>116.9</course>
<desc>Speed 5.9 km/h Distance 6.94 km</desc>
<time>2010-10-24T11:43:27.20</time>
<name>4335</name>
</trkpt>
<trkpt lat="48.932135" lon="8.652750">
<ele>380.5</ele>
<speed>1.69</speed>
<course>116.9</course>
<desc>Speed 6.1 km/h Distance 6.94 km</desc>
<time>2010-10-24T11:43:28.20</time>
<name>4336</name>
</trkpt>
<trkpt lat="48.932128" lon="8.652770">
<ele>380.5</ele>
<speed>1.74</speed>
<course>109.4</course>
<desc>Speed 6.3 km/h Distance 6.94 km</desc>
<time>2010-10-24T11:43:29.19</time>
<name>4337</name>
</trkpt>
<trkpt lat="48.932123" lon="8.652792">
<ele>380.5</ele>
<speed>1.62</speed>
<course>110.9</course>
<desc>Speed 5.8 km/h Distance 6.95 km</desc>
<time>2010-10-24T11:43:30.19</time>
<name>4338</name>
</trkpt>
<trkpt lat="48.932118" lon="8.652812">
<ele>380.5</ele>
<speed>1.65</speed>
<course>119.0</course>
<desc>Speed 5.9 km/h Distance 6.95 km</desc>
<time>2010-10-24T11:43:31.19</time>
<name>4339</name>
</trkpt>
<trkpt lat="48.932112" lon="8.652830">
<ele>380.5</ele>
<speed>1.62</speed>
<course>122.4</course>
<desc>Speed 5.8 km/h Distance 6.95 km</desc>
<time>2010-10-24T11:43:32.18</time>
<name>4340</name>
</trkpt>
<trkpt lat="48.932103" lon="8.652850">
<ele>380.5</ele>
<speed>1.69</speed>
<course>116.9</course>
<desc>Speed 6.1 km/h Distance 6.95 km</desc>
<time>2010-10-24T11:43:33.17</time>
<name>4341</name>
</trkpt>
<trkpt lat="48.932097" lon="8.652870">
<ele>380.5</ele>
<speed>1.66</speed>
<course>122.4</course>
<desc>Speed 6.0 km/h Distance 6.95 km</desc>
<time>2010-10-24T11:43:34.17</time>
<name>4342</name>
</trkpt>
<trkpt lat="48.932088" lon="8.652890">
<ele>380.5</ele>
<speed>1.64</speed>
<course>116.9</course>
<desc>Speed 5.9 km/h Distance 6.95 km</desc>
<time>2010-10-24T11:43:35.17</time>
<name>4343</name>
</trkpt>
<trkpt lat="48.932082" lon="8.652910">
<ele>380.5</ele>
<speed>1.63</speed>
<course>124.7</course>
<desc>Speed 5.9 km/h Distance 6.96 km</desc>
<time>2010-10-24T11:43:36.17</time>
<name>4344</name>
</trkpt>
<trkpt lat="48.932073" lon="8.652928">
<ele>380.0</ele>
<speed>1.57</speed>
<course>109.4</course>
<desc>Speed 5.7 km/h Distance 6.96 km</desc>
<time>2010-10-24T11:43:37.17</time>
<name>4345</name>
</trkpt>
<trkpt lat="48.932068" lon="8.652950">
<ele>380.0</ele>
<speed>1.59</speed>
<course>110.8</course>
<desc>Speed 5.7 km/h Distance 6.96 km</desc>
<time>2010-10-24T11:43:38.17</time>
<name>4346</name>
</trkpt>
<trkpt lat="48.932063" lon="8.652970">
<ele>380.0</ele>
<speed>1.60</speed>
<course>109.3</course>
<desc>Speed 5.8 km/h Distance 6.96 km</desc>
<time>2010-10-24T11:43:39.16</time>
<name>4347</name>
</trkpt>
<trkpt lat="48.932058" lon="8.652992">
<ele>379.5</ele>
<speed>1.58</speed>
<course>116.8</course>
<desc>Speed 5.7 km/h Distance 6.96 km</desc>
<time>2010-10-24T11:43:40.15</time>
<name>4348</name>
</trkpt>
<trkpt lat="48.932052" lon="8.653012">
<ele>379.5</ele>
<speed>1.54</speed>
<course>116.8</course>
<desc>Speed 5.5 km/h Distance 6.96 km</desc>
<time>2010-10-24T11:43:41.14</time>
<name>4349</name>
</trkpt>
<trkpt lat="48.932045" lon="8.653032">
<ele>379.0</ele>
<speed>1.59</speed>
<course>116.9</course>
<desc>Speed 5.7 km/h Distance 6.97 km</desc>
<time>2010-10-24T11:43:42.13</time>
<name>4350</name>
</trkpt>
<trkpt lat="48.932038" lon="8.653052">
<ele>379.0</ele>
<speed>1.57</speed>
<course>124.7</course>
<desc>Speed 5.7 km/h Distance 6.97 km</desc>
<time>2010-10-24T11:43:43.12</time>
<name>4351</name>
</trkpt>
<trkpt lat="48.932030" lon="8.653070">
<ele>379.0</ele>
<speed>1.50</speed>
<course>127.3</course>
<desc>Speed 5.4 km/h Distance 6.97 km</desc>
<time>2010-10-24T11:43:44.12</time>
<name>4352</name>
</trkpt>
<trkpt lat="48.932022" lon="8.653087">
<ele>378.5</ele>
<speed>1.49</speed>
<course>116.9</course>
<desc>Speed 5.4 km/h Distance 6.97 km</desc>
<time>2010-10-24T11:43:45.11</time>
<name>4353</name>
</trkpt>
<trkpt lat="48.932015" lon="8.653107">
<ele>378.5</ele>
<speed>1.53</speed>
<course>119.0</course>
<desc>Speed 5.5 km/h Distance 6.97 km</desc>
<time>2010-10-24T11:43:46.11</time>
<name>4354</name>
</trkpt>
<trkpt lat="48.932008" lon="8.653125">
<ele>378.5</ele>
<speed>1.59</speed>
<course>122.4</course>
<desc>Speed 5.7 km/h Distance 6.97 km</desc>
<time>2010-10-24T11:43:47.11</time>
<name>4355</name>
</trkpt>
<trkpt lat="48.932000" lon="8.653145">
<ele>378.5</ele>
<speed>1.57</speed>
<course>116.9</course>
<desc>Speed 5.7 km/h Distance 6.98 km</desc>
<time>2010-10-24T11:43:48.10</time>
<name>4356</name>
</trkpt>
<trkpt lat="48.931993" lon="8.653165">
<ele>378.5</ele>
<speed>1.54</speed>
<course>124.7</course>
<desc>Speed 5.5 km/h Distance 6.98 km</desc>
<time>2010-10-24T11:43:49.09</time>
<name>4357</name>
</trkpt>
<trkpt lat="48.931985" lon="8.653183">
<ele>378.5</ele>
<speed>1.55</speed>
<course>130.2</course>
<desc>Speed 5.6 km/h Distance 6.98 km</desc>
<time>2010-10-24T11:43:50.08</time>
<name>4358</name>
</trkpt>
<trkpt lat="48.931977" lon="8.653198">
<ele>378.5</ele>
<speed>1.42</speed>
<course>138.8</course>
<desc>Speed 5.1 km/h Distance 6.98 km</desc>
<time>2010-10-24T11:43:51.08</time>
<name>4359</name>
</trkpt>
<trkpt lat="48.931967" lon="8.653212">
<ele>378.0</ele>
<speed>1.32</speed>
<course>123.1</course>
<desc>Speed 4.8 km/h Distance 6.98 km</desc>
<time>2010-10-24T11:43:52.08</time>
<name>4360</name>
</trkpt>
<trkpt lat="48.931962" lon="8.653223">
<ele>378.0</ele>
<speed>1.00</speed>
<course>127.3</course>
<desc>Speed 3.6 km/h Distance 6.98 km</desc>
<time>2010-10-24T11:43:53.07</time>
<name>4361</name>
</trkpt>
<trkpt lat="48.931953" lon="8.653240">
<ele>378.0</ele>
<speed>1.50</speed>
<course>127.2</course>
<desc>Speed 5.4 km/h Distance 6.98 km</desc>
<time>2010-10-24T11:43:54.07</time>
<name>4362</name>
</trkpt>
<trkpt lat="48.931948" lon="8.653250">
<ele>377.5</ele>
<speed>0.98</speed>
<course>124.1</course>
<desc>Speed 3.5 km/h Distance 6.99 km</desc>
<time>2010-10-24T11:43:55.07</time>
<name>4363</name>
</trkpt>
<trkpt lat="48.931942" lon="8.653265">
<ele>377.0</ele>
<speed>1.16</speed>
<course>114.5</course>
<desc>Speed 4.2 km/h Distance 6.99 km</desc>
<time>2010-10-24T11:43:56.06</time>
<name>4364</name>
</trkpt>
<trkpt lat="48.931937" lon="8.653282">
<ele>377.0</ele>
<speed>1.37</speed>
<course>119.7</course>
<desc>Speed 4.9 km/h Distance 6.99 km</desc>
<time>2010-10-24T11:43:57.06</time>
<name>4365</name>
</trkpt>
<trkpt lat="48.931932" lon="8.653295">
<ele>377.0</ele>
<speed>1.19</speed>
<course>130.9</course>
<desc>Speed 4.3 km/h Distance 6.99 km</desc>
<time>2010-10-24T11:43:58.06</time>
<name>4366</name>
</trkpt>
<trkpt lat="48.931925" lon="8.653307">
<ele>377.0</ele>
<speed>1.14</speed>
<course>131.3</course>
<desc>Speed 4.1 km/h Distance 6.99 km</desc>
<time>2010-10-24T11:43:59.05</time>
<name>4367</name>
</trkpt>
<trkpt lat="48.931918" lon="8.653318">
<ele>376.5</ele>
<speed>1.13</speed>
<course>151.4</course>
<desc>Speed 4.1 km/h Distance 6.99 km</desc>
<time>2010-10-24T11:44:00.04</time>
<name>4368</name>
</trkpt>
<trkpt lat="48.931908" lon="8.653327">
<ele>376.0</ele>
<speed>1.03</speed>
<course>140.6</course>
<desc>Speed 3.7 km/h Distance 6.99 km</desc>
<time>2010-10-24T11:44:01.03</time>
<name>4369</name>
</trkpt>
<trkpt lat="48.931902" lon="8.653335">
<ele>375.5</ele>
<speed>0.87</speed>
<course>132.2</course>
<desc>Speed 3.1 km/h Distance 6.99 km</desc>
<time>2010-10-24T11:44:02.03</time>
<name>4370</name>
</trkpt>
<trkpt lat="48.931897" lon="8.653343">
<ele>375.0</ele>
<speed>0.75</speed>
<course>132.2</course>
<desc>Speed 2.7 km/h Distance 6.99 km</desc>
<time>2010-10-24T11:44:03.05</time>
<name>4371</name>
</trkpt>
<trkpt lat="48.931892" lon="8.653352">
<ele>375.0</ele>
<speed>0.62</speed>
<course>90.0</course>
<desc>Speed 2.2 km/h Distance 7.00 km</desc>
<time>2010-10-24T11:44:04.02</time>
<name>4372</name>
</trkpt>
<trkpt lat="48.931892" lon="8.653360">
<ele>375.0</ele>
<speed>0.40</speed>
<course>177.3</course>
<desc>Speed 1.4 km/h Distance 7.00 km</desc>
<time>2010-10-24T11:44:05.01</time>
<name>4373</name>
</trkpt>
<trkpt lat="48.931872" lon="8.653360">
<ele>375.0</ele>
<speed>0.97</speed>
<course>158.5</course>
<desc>Speed 3.5 km/h Distance 7.00 km</desc>
<time>2010-10-24T11:44:11.01</time>
<name>4374</name>
</trkpt>
<trkpt lat="48.931863" lon="8.653365">
<ele>374.0</ele>
<speed>0.86</speed>
<course>146.8</course>
<desc>Speed 3.1 km/h Distance 7.00 km</desc>
<time>2010-10-24T11:44:12.01</time>
<name>4375</name>
</trkpt>
<trkpt lat="48.931853" lon="8.653375">
<ele>374.0</ele>
<speed>1.26</speed>
<course>159.4</course>
<desc>Speed 4.5 km/h Distance 7.00 km</desc>
<time>2010-10-24T11:44:13.01</time>
<name>4376</name>
</trkpt>
<trkpt lat="48.931842" lon="8.653382">
<ele>373.5</ele>
<speed>1.37</speed>
<course>146.9</course>
<desc>Speed 4.9 km/h Distance 7.00 km</desc>
<time>2010-10-24T11:44:14.00</time>
<name>4377</name>
</trkpt>
<trkpt lat="48.931830" lon="8.653393">
<ele>373.0</ele>
<speed>1.39</speed>
<course>150.2</course>
<desc>Speed 5.0 km/h Distance 7.00 km</desc>
<time>2010-10-24T11:44:15.00</time>
<name>4378</name>
</trkpt>
<trkpt lat="48.931817" lon="8.653405">
<ele>372.5</ele>
<speed>1.48</speed>
<course>143.1</course>
<desc>Speed 5.3 km/h Distance 7.01 km</desc>
<time>2010-10-24T11:44:15.99</time>
<name>4379</name>
</trkpt>
<trkpt lat="48.931805" lon="8.653418">
<ele>372.0</ele>
<speed>1.40</speed>
<course>157.7</course>
<desc>Speed 5.0 km/h Distance 7.01 km</desc>
<time>2010-10-24T11:44:16.98</time>
<name>4380</name>
</trkpt>
<trkpt lat="48.931792" lon="8.653427">
<ele>371.5</ele>
<speed>1.37</speed>
<course>138.7</course>
<desc>Speed 4.9 km/h Distance 7.01 km</desc>
<time>2010-10-24T11:44:17.98</time>
<name>4381</name>
</trkpt>
<trkpt lat="48.931782" lon="8.653440">
<ele>371.0</ele>
<speed>1.27</speed>
<course>159.1</course>
<desc>Speed 4.6 km/h Distance 7.01 km</desc>
<time>2010-10-24T11:44:18.97</time>
<name>4382</name>
</trkpt>
<trkpt lat="48.931770" lon="8.653447">
<ele>370.5</ele>
<speed>1.19</speed>
<course>150.8</course>
<desc>Speed 4.3 km/h Distance 7.01 km</desc>
<time>2010-10-24T11:44:19.97</time>
<name>4383</name>
</trkpt>
<trkpt lat="48.931758" lon="8.653457">
<ele>370.0</ele>
<speed>1.27</speed>
<course>169.6</course>
<desc>Speed 4.6 km/h Distance 7.01 km</desc>
<time>2010-10-24T11:44:20.96</time>
<name>4384</name>
</trkpt>
<trkpt lat="48.931747" lon="8.653460">
<ele>369.0</ele>
<speed>1.15</speed>
<course>163.4</course>
<desc>Speed 4.1 km/h Distance 7.01 km</desc>
<time>2010-10-24T11:44:21.95</time>
<name>4385</name>
</trkpt>
<trkpt lat="48.931732" lon="8.653467">
<ele>367.5</ele>
<speed>1.57</speed>
<course>159.9</course>
<desc>Speed 5.7 km/h Distance 7.02 km</desc>
<time>2010-10-24T11:44:22.94</time>
<name>4386</name>
</trkpt>
<trkpt lat="48.931717" lon="8.653475">
<ele>366.5</ele>
<speed>1.37</speed>
<course>172.5</course>
<desc>Speed 4.9 km/h Distance 7.02 km</desc>
<time>2010-10-24T11:44:23.93</time>
<name>4387</name>
</trkpt>
<trkpt lat="48.931702" lon="8.653478">
<ele>365.0</ele>
<speed>1.34</speed>
<course>163.4</course>
<desc>Speed 4.8 km/h Distance 7.02 km</desc>
<time>2010-10-24T11:44:24.93</time>
<name>4388</name>
</trkpt>
<trkpt lat="48.931687" lon="8.653485">
<ele>365.0</ele>
<speed>1.50</speed>
<course>150.6</course>
<desc>Speed 5.4 km/h Distance 7.02 km</desc>
<time>2010-10-24T11:44:25.92</time>
<name>4389</name>
</trkpt>
<trkpt lat="48.931675" lon="8.653495">
<ele>364.5</ele>
<speed>1.21</speed>
<course>138.6</course>
<desc>Speed 4.4 km/h Distance 7.02 km</desc>
<time>2010-10-24T11:44:26.92</time>
<name>4390</name>
</trkpt>
<trkpt lat="48.931665" lon="8.653508">
<ele>364.5</ele>
<speed>1.20</speed>
<course>146.8</course>
<desc>Speed 4.3 km/h Distance 7.02 km</desc>
<time>2010-10-24T11:44:27.91</time>
<name>4391</name>
</trkpt>
<trkpt lat="48.931655" lon="8.653518">
<ele>363.5</ele>
<speed>1.16</speed>
<course>143.1</course>
<desc>Speed 4.2 km/h Distance 7.03 km</desc>
<time>2010-10-24T11:44:28.91</time>
<name>4392</name>
</trkpt>
<trkpt lat="48.931643" lon="8.653532">
<ele>363.0</ele>
<speed>1.35</speed>
<course>130.3</course>
<desc>Speed 4.9 km/h Distance 7.03 km</desc>
<time>2010-10-24T11:44:29.90</time>
<name>4393</name>
</trkpt>
<trkpt lat="48.931635" lon="8.653547">
<ele>362.5</ele>
<speed>1.00</speed>
<course>133.6</course>
<desc>Speed 3.6 km/h Distance 7.03 km</desc>
<time>2010-10-24T11:44:30.91</time>
<name>4394</name>
</trkpt>
<trkpt lat="48.931627" lon="8.653560">
<ele>362.5</ele>
<speed>1.30</speed>
<course>153.6</course>
<desc>Speed 4.7 km/h Distance 7.03 km</desc>
<time>2010-10-24T11:44:31.89</time>
<name>4395</name>
</trkpt>
<trkpt lat="48.931613" lon="8.653570">
<ele>361.5</ele>
<speed>1.39</speed>
<course>141.9</course>
<desc>Speed 5.0 km/h Distance 7.03 km</desc>
<time>2010-10-24T11:44:32.89</time>
<name>4396</name>
</trkpt>
<trkpt lat="48.931605" lon="8.653580">
<ele>361.0</ele>
<speed>1.08</speed>
<course>142.5</course>
<desc>Speed 3.9 km/h Distance 7.03 km</desc>
<time>2010-10-24T11:44:33.89</time>
<name>4397</name>
</trkpt>
<trkpt lat="48.931595" lon="8.653592">
<ele>360.5</ele>
<speed>1.25</speed>
<course>146.6</course>
<desc>Speed 4.5 km/h Distance 7.03 km</desc>
<time>2010-10-24T11:44:34.88</time>
<name>4398</name>
</trkpt>
<trkpt lat="48.931583" lon="8.653603">
<ele>360.0</ele>
<speed>1.28</speed>
<course>133.5</course>
<desc>Speed 4.6 km/h Distance 7.04 km</desc>
<time>2010-10-24T11:44:35.87</time>
<name>4399</name>
</trkpt>
<trkpt lat="48.931575" lon="8.653617">
<ele>360.0</ele>
<speed>1.19</speed>
<course>138.7</course>
<desc>Speed 4.3 km/h Distance 7.04 km</desc>
<time>2010-10-24T11:44:36.87</time>
<name>4400</name>
</trkpt>
<trkpt lat="48.931565" lon="8.653630">
<ele>359.5</ele>
<speed>1.33</speed>
<course>150.2</course>
<desc>Speed 4.8 km/h Distance 7.04 km</desc>
<time>2010-10-24T11:44:37.87</time>
<name>4401</name>
</trkpt>
<trkpt lat="48.931552" lon="8.653642">
<ele>359.0</ele>
<speed>1.37</speed>
<course>129.7</course>
<desc>Speed 4.9 km/h Distance 7.04 km</desc>
<time>2010-10-24T11:44:38.86</time>
<name>4402</name>
</trkpt>
<trkpt lat="48.931542" lon="8.653660">
<ele>359.0</ele>
<speed>1.34</speed>
<course>146.6</course>
<desc>Speed 4.8 km/h Distance 7.04 km</desc>
<time>2010-10-24T11:44:39.85</time>
<name>4403</name>
</trkpt>
<trkpt lat="48.931532" lon="8.653670">
<ele>358.5</ele>
<speed>1.13</speed>
<course>146.6</course>
<desc>Speed 4.1 km/h Distance 7.04 km</desc>
<time>2010-10-24T11:44:40.84</time>
<name>4404</name>
</trkpt>
<trkpt lat="48.931520" lon="8.653682">
<ele>358.0</ele>
<speed>1.46</speed>
<course>152.8</course>
<desc>Speed 5.3 km/h Distance 7.04 km</desc>
<time>2010-10-24T11:44:41.83</time>
<name>4405</name>
</trkpt>
<trkpt lat="48.931505" lon="8.653693">
<ele>357.5</ele>
<speed>1.45</speed>
<course>133.1</course>
<desc>Speed 5.2 km/h Distance 7.05 km</desc>
<time>2010-10-24T11:44:42.83</time>
<name>4406</name>
</trkpt>
<trkpt lat="48.931492" lon="8.653715">
<ele>358.0</ele>
<speed>1.47</speed>
<course>146.6</course>
<desc>Speed 5.3 km/h Distance 7.05 km</desc>
<time>2010-10-24T11:44:43.82</time>
<name>4407</name>
</trkpt>
<trkpt lat="48.931478" lon="8.653728">
<ele>357.5</ele>
<speed>1.49</speed>
<course>124.7</course>
<desc>Speed 5.4 km/h Distance 7.05 km</desc>
<time>2010-10-24T11:44:44.81</time>
<name>4408</name>
</trkpt>
<trkpt lat="48.931470" lon="8.653747">
<ele>357.5</ele>
<speed>1.22</speed>
<course>141.9</course>
<desc>Speed 4.4 km/h Distance 7.05 km</desc>
<time>2010-10-24T11:44:45.81</time>
<name>4409</name>
</trkpt>
<trkpt lat="48.931462" lon="8.653757">
<ele>357.5</ele>
<speed>1.02</speed>
<course>113.5</course>
<desc>Speed 3.7 km/h Distance 7.05 km</desc>
<time>2010-10-24T11:44:46.81</time>
<name>4410</name>
</trkpt>
<trkpt lat="48.931458" lon="8.653768">
<ele>358.0</ele>
<speed>0.67</speed>
<course>115.1</course>
<desc>Speed 2.4 km/h Distance 7.05 km</desc>
<time>2010-10-24T11:44:47.80</time>
<name>4411</name>
</trkpt>
<trkpt lat="48.931452" lon="8.653790">
<ele>359.0</ele>
<speed>1.00</speed>
<course>121.3</course>
<desc>Speed 3.6 km/h Distance 7.06 km</desc>
<time>2010-10-24T11:44:48.79</time>
<name>4412</name>
</trkpt>
<trkpt lat="48.931445" lon="8.653807">
<ele>360.0</ele>
<speed>1.09</speed>
<course>145.4</course>
<desc>Speed 3.9 km/h Distance 7.06 km</desc>
<time>2010-10-24T11:44:49.78</time>
<name>4413</name>
</trkpt>
<trkpt lat="48.931412" lon="8.653842">
<ele>362.5</ele>
<speed>1.21</speed>
<course>121.3</course>
<desc>Speed 4.4 km/h Distance 7.06 km</desc>
<time>2010-10-24T11:44:52.78</time>
<name>4414</name>
</trkpt>
<trkpt lat="48.931405" lon="8.653858">
<ele>363.0</ele>
<speed>1.04</speed>
<course>119.7</course>
<desc>Speed 3.7 km/h Distance 7.06 km</desc>
<time>2010-10-24T11:44:53.77</time>
<name>4415</name>
</trkpt>
<trkpt lat="48.931400" lon="8.653872">
<ele>363.0</ele>
<speed>0.98</speed>
<course>121.3</course>
<desc>Speed 3.5 km/h Distance 7.06 km</desc>
<time>2010-10-24T11:44:54.77</time>
<name>4416</name>
</trkpt>
<trkpt lat="48.931393" lon="8.653888">
<ele>363.0</ele>
<speed>1.09</speed>
<course>82.8</course>
<desc>Speed 3.9 km/h Distance 7.07 km</desc>
<time>2010-10-24T11:44:55.77</time>
<name>4417</name>
</trkpt>
<trkpt lat="48.931395" lon="8.653908">
<ele>363.5</ele>
<speed>0.68</speed>
<course>159.1</course>
<desc>Speed 2.4 km/h Distance 7.07 km</desc>
<time>2010-10-24T11:44:56.76</time>
<name>4418</name>
</trkpt>
<trkpt lat="48.931383" lon="8.653915">
<ele>362.5</ele>
<speed>1.19</speed>
<course>164.0</course>
<desc>Speed 4.3 km/h Distance 7.07 km</desc>
<time>2010-10-24T11:44:57.76</time>
<name>4419</name>
</trkpt>
<trkpt lat="48.931372" lon="8.653920">
<ele>361.5</ele>
<speed>1.12</speed>
<course>146.8</course>
<desc>Speed 4.0 km/h Distance 7.07 km</desc>
<time>2010-10-24T11:44:58.75</time>
<name>4420</name>
</trkpt>
<trkpt lat="48.931358" lon="8.653933">
<ele>361.0</ele>
<speed>1.51</speed>
<course>150.2</course>
<desc>Speed 5.4 km/h Distance 7.07 km</desc>
<time>2010-10-24T11:44:59.74</time>
<name>4421</name>
</trkpt>
<trkpt lat="48.931345" lon="8.653945">
<ele>360.5</ele>
<speed>1.48</speed>
<course>157.0</course>
<desc>Speed 5.3 km/h Distance 7.07 km</desc>
<time>2010-10-24T11:45:00.74</time>
<name>4422</name>
</trkpt>
<trkpt lat="48.931335" lon="8.653952">
<ele>359.5</ele>
<speed>0.95</speed>
<course>141.9</course>
<desc>Speed 3.4 km/h Distance 7.07 km</desc>
<time>2010-10-24T11:45:01.73</time>
<name>4423</name>
</trkpt>
<trkpt lat="48.931327" lon="8.653962">
<ele>359.0</ele>
<speed>1.00</speed>
<course>138.6</course>
<desc>Speed 3.6 km/h Distance 7.08 km</desc>
<time>2010-10-24T11:45:02.73</time>
<name>4424</name>
</trkpt>
<trkpt lat="48.931317" lon="8.653975">
<ele>359.0</ele>
<speed>1.25</speed>
<course>129.6</course>
<desc>Speed 4.5 km/h Distance 7.08 km</desc>
<time>2010-10-24T11:45:03.72</time>
<name>4425</name>
</trkpt>
<trkpt lat="48.931307" lon="8.653993">
<ele>359.0</ele>
<speed>1.48</speed>
<course>134.1</course>
<desc>Speed 5.3 km/h Distance 7.08 km</desc>
<time>2010-10-24T11:45:04.72</time>
<name>4426</name>
</trkpt>
<trkpt lat="48.931295" lon="8.654012">
<ele>358.5</ele>
<speed>1.28</speed>
<course>150.6</course>
<desc>Speed 4.6 km/h Distance 7.08 km</desc>
<time>2010-10-24T11:45:05.71</time>
<name>4427</name>
</trkpt>
<trkpt lat="48.931283" lon="8.654022">
<ele>358.0</ele>
<speed>1.04</speed>
<course>108.1</course>
<desc>Speed 3.7 km/h Distance 7.08 km</desc>
<time>2010-10-24T11:45:06.70</time>
<name>4428</name>
</trkpt>
<trkpt lat="48.931278" lon="8.654045">
<ele>358.5</ele>
<speed>0.70</speed>
<course>127.3</course>
<desc>Speed 2.5 km/h Distance 7.08 km</desc>
<time>2010-10-24T11:45:07.70</time>
<name>4429</name>
</trkpt>
<trkpt lat="48.931270" lon="8.654062">
<ele>358.5</ele>
<speed>1.13</speed>
<course>127.3</course>
<desc>Speed 4.1 km/h Distance 7.09 km</desc>
<time>2010-10-24T11:45:08.69</time>
<name>4430</name>
</trkpt>
<trkpt lat="48.931262" lon="8.654078">
<ele>358.5</ele>
<speed>0.98</speed>
<course>97.2</course>
<desc>Speed 3.5 km/h Distance 7.09 km</desc>
<time>2010-10-24T11:45:09.68</time>
<name>4431</name>
</trkpt>
<trkpt lat="48.931258" lon="8.654118">
<ele>361.5</ele>
<speed>0.61</speed>
<course>106.9</course>
<desc>Speed 2.2 km/h Distance 7.09 km</desc>
<time>2010-10-24T11:45:10.68</time>
<name>4432</name>
</trkpt>
<trkpt lat="48.931252" lon="8.654152">
<ele>364.0</ele>
<speed>0.87</speed>
<course>124.7</course>
<desc>Speed 3.1 km/h Distance 7.09 km</desc>
<time>2010-10-24T11:45:11.68</time>
<name>4433</name>
</trkpt>
<trkpt lat="48.931243" lon="8.654170">
<ele>364.0</ele>
<speed>1.36</speed>
<course>146.8</course>
<desc>Speed 4.9 km/h Distance 7.09 km</desc>
<time>2010-10-24T11:45:12.67</time>
<name>4434</name>
</trkpt>
<trkpt lat="48.931233" lon="8.654180">
<ele>364.0</ele>
<speed>1.02</speed>
<course>131.1</course>
<desc>Speed 3.7 km/h Distance 7.10 km</desc>
<time>2010-10-24T11:45:13.67</time>
<name>4435</name>
</trkpt>
<trkpt lat="48.931227" lon="8.654192">
<ele>364.5</ele>
<speed>0.94</speed>
<course>121.3</course>
<desc>Speed 3.4 km/h Distance 7.10 km</desc>
<time>2010-10-24T11:45:14.68</time>
<name>4436</name>
</trkpt>
<trkpt lat="48.931220" lon="8.654208">
<ele>365.5</ele>
<speed>1.10</speed>
<course>156.2</course>
<desc>Speed 4.0 km/h Distance 7.10 km</desc>
<time>2010-10-24T11:45:15.66</time>
<name>4437</name>
</trkpt>
<trkpt lat="48.931210" lon="8.654215">
<ele>365.0</ele>
<speed>0.73</speed>
<course>146.8</course>
<desc>Speed 2.6 km/h Distance 7.10 km</desc>
<time>2010-10-24T11:45:16.66</time>
<name>4438</name>
</trkpt>
<trkpt lat="48.931202" lon="8.654223">
<ele>365.0</ele>
<speed>0.93</speed>
<course>132.2</course>
<desc>Speed 3.3 km/h Distance 7.10 km</desc>
<time>2010-10-24T11:45:17.65</time>
<name>4439</name>
</trkpt>
<trkpt lat="48.931197" lon="8.654232">
<ele>365.0</ele>
<speed>0.60</speed>
<course>112.9</course>
<desc>Speed 2.2 km/h Distance 7.10 km</desc>
<time>2010-10-24T11:45:18.65</time>
<name>4440</name>
</trkpt>
<trkpt lat="48.931188" lon="8.654262">
<ele>366.0</ele>
<speed>1.16</speed>
<course>116.9</course>
<desc>Speed 4.2 km/h Distance 7.10 km</desc>
<time>2010-10-24T11:45:19.65</time>
<name>4441</name>
</trkpt>
<trkpt lat="48.931183" lon="8.654277">
<ele>366.5</ele>
<speed>0.94</speed>
<course>142.5</course>
<desc>Speed 3.4 km/h Distance 7.11 km</desc>
<time>2010-10-24T11:45:20.65</time>
<name>4442</name>
</trkpt>
<trkpt lat="48.931173" lon="8.654288">
<ele>366.5</ele>
<speed>0.93</speed>
<course>133.6</course>
<desc>Speed 3.3 km/h Distance 7.11 km</desc>
<time>2010-10-24T11:45:21.67</time>
<name>4443</name>
</trkpt>
<trkpt lat="48.931165" lon="8.654302">
<ele>366.5</ele>
<speed>1.00</speed>
<course>90.0</course>
<desc>Speed 3.6 km/h Distance 7.11 km</desc>
<time>2010-10-24T11:45:22.63</time>
<name>4444</name>
</trkpt>
<trkpt lat="48.931165" lon="8.654325">
<ele>368.5</ele>
<speed>0.66</speed>
<course>136.7</course>
<desc>Speed 2.4 km/h Distance 7.11 km</desc>
<time>2010-10-24T11:45:23.62</time>
<name>4445</name>
</trkpt>
<trkpt lat="48.931153" lon="8.654342">
<ele>368.5</ele>
<speed>1.63</speed>
<course>141.6</course>
<desc>Speed 5.9 km/h Distance 7.11 km</desc>
<time>2010-10-24T11:45:24.62</time>
<name>4446</name>
</trkpt>
<trkpt lat="48.931145" lon="8.654352">
<ele>369.5</ele>
<speed>0.95</speed>
<course>117.0</course>
<desc>Speed 3.4 km/h Distance 7.11 km</desc>
<time>2010-10-24T11:45:25.61</time>
<name>4447</name>
</trkpt>
<trkpt lat="48.931142" lon="8.654362">
<ele>370.0</ele>
<speed>0.50</speed>
<course>165.1</course>
<desc>Speed 1.8 km/h Distance 7.11 km</desc>
<time>2010-10-24T11:45:26.61</time>
<name>4448</name>
</trkpt>
<trkpt lat="48.931130" lon="8.654367">
<ele>370.0</ele>
<speed>1.12</speed>
<course>138.8</course>
<desc>Speed 4.0 km/h Distance 7.11 km</desc>
<time>2010-10-24T11:45:27.61</time>
<name>4449</name>
</trkpt>
<trkpt lat="48.931115" lon="8.654387">
<ele>370.5</ele>
<speed>1.62</speed>
<course>121.3</course>
<desc>Speed 5.8 km/h Distance 7.12 km</desc>
<time>2010-10-24T11:45:28.60</time>
<name>4450</name>
</trkpt>
<trkpt lat="48.931108" lon="8.654403">
<ele>371.0</ele>
<speed>0.83</speed>
<course>114.6</course>
<desc>Speed 3.0 km/h Distance 7.12 km</desc>
<time>2010-10-24T11:45:29.59</time>
<name>4451</name>
</trkpt>
<trkpt lat="48.931103" lon="8.654420">
<ele>371.5</ele>
<speed>0.99</speed>
<course>112.6</course>
<desc>Speed 3.6 km/h Distance 7.12 km</desc>
<time>2010-10-24T11:45:30.59</time>
<name>4452</name>
</trkpt>
<trkpt lat="48.931098" lon="8.654438">
<ele>372.5</ele>
<speed>0.87</speed>
<course>124.5</course>
<desc>Speed 3.1 km/h Distance 7.12 km</desc>
<time>2010-10-24T11:45:31.57</time>
<name>4453</name>
</trkpt>
<trkpt lat="48.931075" lon="8.654490">
<ele>374.0</ele>
<speed>1.00</speed>
<course>140.6</course>
<desc>Speed 3.6 km/h Distance 7.13 km</desc>
<time>2010-10-24T11:45:33.57</time>
<name>4454</name>
</trkpt>
<trkpt lat="48.931068" lon="8.654498">
<ele>374.0</ele>
<speed>0.70</speed>
<course>125.0</course>
<desc>Speed 2.5 km/h Distance 7.13 km</desc>
<time>2010-10-24T11:45:34.56</time>
<name>4455</name>
</trkpt>
<trkpt lat="48.931058" lon="8.654520">
<ele>375.5</ele>
<speed>1.00</speed>
<course>157.9</course>
<desc>Speed 3.6 km/h Distance 7.13 km</desc>
<time>2010-10-24T11:45:35.56</time>
<name>4456</name>
</trkpt>
<trkpt lat="48.931050" lon="8.654525">
<ele>375.0</ele>
<speed>0.77</speed>
<course>292.5</course>
<desc>Speed 2.8 km/h Distance 7.13 km</desc>
<time>2010-10-24T11:45:36.56</time>
<name>4457</name>
</trkpt>
<trkpt lat="48.931055" lon="8.654507">
<ele>375.0</ele>
<speed>1.58</speed>
<course>136.5</course>
<desc>Speed 5.7 km/h Distance 7.13 km</desc>
<time>2010-10-24T11:45:37.56</time>
<name>4458</name>
</trkpt>
<trkpt lat="48.931040" lon="8.654528">
<ele>374.5</ele>
<speed>0.38</speed>
<course>168.7</course>
<desc>Speed 1.4 km/h Distance 7.13 km</desc>
<time>2010-10-24T11:45:47.55</time>
<name>4459</name>
</trkpt>
<trkpt lat="48.931002" lon="8.654540">
<ele>373.0</ele>
<speed>1.45</speed>
<course>118.9</course>
<desc>Speed 5.2 km/h Distance 7.14 km</desc>
<time>2010-10-24T11:45:49.55</time>
<name>4460</name>
</trkpt>
<trkpt lat="48.930995" lon="8.654558">
<ele>372.5</ele>
<speed>0.81</speed>
<course>146.7</course>
<desc>Speed 2.9 km/h Distance 7.14 km</desc>
<time>2010-10-24T11:45:50.54</time>
<name>4461</name>
</trkpt>
<trkpt lat="48.930980" lon="8.654573">
<ele>371.5</ele>
<speed>1.22</speed>
<course>102.3</course>
<desc>Speed 4.4 km/h Distance 7.14 km</desc>
<time>2010-10-24T11:45:51.53</time>
<name>4462</name>
</trkpt>
<trkpt lat="48.930978" lon="8.654585">
<ele>371.0</ele>
<speed>0.73</speed>
<course>155.3</course>
<desc>Speed 2.6 km/h Distance 7.14 km</desc>
<time>2010-10-24T11:45:52.53</time>
<name>4463</name>
</trkpt>
<trkpt lat="48.930962" lon="8.654597">
<ele>369.0</ele>
<speed>0.75</speed>
<course>135.5</course>
<desc>Speed 2.7 km/h Distance 7.14 km</desc>
<time>2010-10-24T11:45:53.52</time>
<name>4464</name>
</trkpt>
<trkpt lat="48.930955" lon="8.654607">
<ele>368.5</ele>
<speed>1.13</speed>
<course>146.7</course>
<desc>Speed 4.1 km/h Distance 7.15 km</desc>
<time>2010-10-24T11:45:54.52</time>
<name>4465</name>
</trkpt>
<trkpt lat="48.930937" lon="8.654625">
<ele>368.0</ele>
<speed>1.38</speed>
<course>146.7</course>
<desc>Speed 5.0 km/h Distance 7.15 km</desc>
<time>2010-10-24T11:45:55.52</time>
<name>4466</name>
</trkpt>
<trkpt lat="48.930923" lon="8.654638">
<ele>366.5</ele>
<speed>0.83</speed>
<course>156.4</course>
<desc>Speed 3.0 km/h Distance 7.15 km</desc>
<time>2010-10-24T11:45:56.51</time>
<name>4467</name>
</trkpt>
<trkpt lat="48.930903" lon="8.654652">
<ele>365.5</ele>
<speed>0.97</speed>
<course>102.3</course>
<desc>Speed 3.5 km/h Distance 7.15 km</desc>
<time>2010-10-24T11:45:57.51</time>
<name>4468</name>
</trkpt>
<trkpt lat="48.930895" lon="8.654710">
<ele>367.5</ele>
<speed>1.12</speed>
<course>121.4</course>
<desc>Speed 4.0 km/h Distance 7.16 km</desc>
<time>2010-10-24T11:45:59.52</time>
<name>4469</name>
</trkpt>
<trkpt lat="48.930888" lon="8.654727">
<ele>368.0</ele>
<speed>1.29</speed>
<course>135.4</course>
<desc>Speed 4.6 km/h Distance 7.16 km</desc>
<time>2010-10-24T11:46:00.51</time>
<name>4470</name>
</trkpt>
<trkpt lat="48.930878" lon="8.654742">
<ele>368.0</ele>
<speed>1.27</speed>
<course>146.6</course>
<desc>Speed 4.6 km/h Distance 7.16 km</desc>
<time>2010-10-24T11:46:01.50</time>
<name>4471</name>
</trkpt>
<trkpt lat="48.930867" lon="8.654753">
<ele>367.0</ele>
<speed>0.97</speed>
<course>157.4</course>
<desc>Speed 3.5 km/h Distance 7.16 km</desc>
<time>2010-10-24T11:46:02.50</time>
<name>4472</name>
</trkpt>
<trkpt lat="48.930853" lon="8.654762">
<ele>366.0</ele>
<speed>1.12</speed>
<course>167.8</course>
<desc>Speed 4.0 km/h Distance 7.16 km</desc>
<time>2010-10-24T11:46:03.50</time>
<name>4473</name>
</trkpt>
<trkpt lat="48.930838" lon="8.654767">
<ele>364.5</ele>
<speed>0.91</speed>
<course>162.0</course>
<desc>Speed 3.3 km/h Distance 7.16 km</desc>
<time>2010-10-24T11:46:04.49</time>
<name>4474</name>
</trkpt>
<trkpt lat="48.930818" lon="8.654777">
<ele>363.5</ele>
<speed>1.12</speed>
<course>160.3</course>
<desc>Speed 4.0 km/h Distance 7.17 km</desc>
<time>2010-10-24T11:46:05.48</time>
<name>4475</name>
</trkpt>
<trkpt lat="48.930800" lon="8.654787">
<ele>362.0</ele>
<speed>0.79</speed>
<course>107.0</course>
<desc>Speed 2.8 km/h Distance 7.17 km</desc>
<time>2010-10-24T11:46:06.48</time>
<name>4476</name>
</trkpt>
<trkpt lat="48.930797" lon="8.654803">
<ele>360.0</ele>
<speed>1.02</speed>
<course>121.4</course>
<desc>Speed 3.7 km/h Distance 7.17 km</desc>
<time>2010-10-24T11:46:07.50</time>
<name>4477</name>
</trkpt>
<trkpt lat="48.930790" lon="8.654820">
<ele>359.5</ele>
<speed>0.75</speed>
<course>152.3</course>
<desc>Speed 2.7 km/h Distance 7.17 km</desc>
<time>2010-10-24T11:46:08.47</time>
<name>4478</name>
</trkpt>
<trkpt lat="48.930773" lon="8.654833">
<ele>358.0</ele>
<speed>0.93</speed>
<course>123.1</course>
<desc>Speed 3.3 km/h Distance 7.17 km</desc>
<time>2010-10-24T11:46:09.47</time>
<name>4479</name>
</trkpt>
<trkpt lat="48.930763" lon="8.654857">
<ele>358.5</ele>
<speed>1.04</speed>
<course>109.4</course>
<desc>Speed 3.7 km/h Distance 7.18 km</desc>
<time>2010-10-24T11:46:10.47</time>
<name>4480</name>
</trkpt>
<trkpt lat="48.930758" lon="8.654878">
<ele>359.5</ele>
<speed>1.20</speed>
<course>98.7</course>
<desc>Speed 4.3 km/h Distance 7.18 km</desc>
<time>2010-10-24T11:46:11.47</time>
<name>4481</name>
</trkpt>
<trkpt lat="48.930757" lon="8.654895">
<ele>360.0</ele>
<speed>0.69</speed>
<course>99.3</course>
<desc>Speed 2.5 km/h Distance 7.18 km</desc>
<time>2010-10-24T11:46:12.47</time>
<name>4482</name>
</trkpt>
<trkpt lat="48.930750" lon="8.654957">
<ele>363.0</ele>
<speed>0.67</speed>
<course>101.5</course>
<desc>Speed 2.4 km/h Distance 7.18 km</desc>
<time>2010-10-24T11:46:14.46</time>
<name>4483</name>
</trkpt>
<trkpt lat="48.930747" lon="8.654982">
<ele>364.5</ele>
<speed>0.93</speed>
<course>108.7</course>
<desc>Speed 3.3 km/h Distance 7.18 km</desc>
<time>2010-10-24T11:46:15.45</time>
<name>4484</name>
</trkpt>
<trkpt lat="48.930740" lon="8.655012">
<ele>366.0</ele>
<speed>1.02</speed>
<course>104.2</course>
<desc>Speed 3.7 km/h Distance 7.19 km</desc>
<time>2010-10-24T11:46:16.44</time>
<name>4485</name>
</trkpt>
<trkpt lat="48.930735" lon="8.655042">
<ele>367.5</ele>
<speed>0.77</speed>
<course>152.8</course>
<desc>Speed 2.8 km/h Distance 7.19 km</desc>
<time>2010-10-24T11:46:17.44</time>
<name>4486</name>
</trkpt>
<trkpt lat="48.930720" lon="8.655053">
<ele>367.5</ele>
<speed>1.37</speed>
<course>112.5</course>
<desc>Speed 4.9 km/h Distance 7.19 km</desc>
<time>2010-10-24T11:46:18.44</time>
<name>4487</name>
</trkpt>
<trkpt lat="48.930710" lon="8.655090">
<ele>369.5</ele>
<speed>1.07</speed>
<course>136.9</course>
<desc>Speed 3.9 km/h Distance 7.19 km</desc>
<time>2010-10-24T11:46:19.44</time>
<name>4488</name>
</trkpt>
<trkpt lat="48.930698" lon="8.655107">
<ele>370.5</ele>
<speed>1.19</speed>
<course>125.0</course>
<desc>Speed 4.3 km/h Distance 7.20 km</desc>
<time>2010-10-24T11:46:20.43</time>
<name>4489</name>
</trkpt>
<trkpt lat="48.930688" lon="8.655128">
<ele>371.5</ele>
<speed>1.25</speed>
<course>141.9</course>
<desc>Speed 4.5 km/h Distance 7.20 km</desc>
<time>2010-10-24T11:46:21.43</time>
<name>4490</name>
</trkpt>
<trkpt lat="48.930680" lon="8.655138">
<ele>371.5</ele>
<speed>1.10</speed>
<course>161.8</course>
<desc>Speed 4.0 km/h Distance 7.20 km</desc>
<time>2010-10-24T11:46:22.43</time>
<name>4491</name>
</trkpt>
<trkpt lat="48.930670" lon="8.655143">
<ele>370.0</ele>
<speed>0.74</speed>
<course>132.4</course>
<desc>Speed 2.7 km/h Distance 7.20 km</desc>
<time>2010-10-24T11:46:23.43</time>
<name>4492</name>
</trkpt>
<trkpt lat="48.930660" lon="8.655160">
<ele>370.0</ele>
<speed>0.86</speed>
<course>153.0</course>
<desc>Speed 3.1 km/h Distance 7.20 km</desc>
<time>2010-10-24T11:46:24.43</time>
<name>4493</name>
</trkpt>
<trkpt lat="48.930645" lon="8.655172">
<ele>369.0</ele>
<speed>1.14</speed>
<course>165.1</course>
<desc>Speed 4.1 km/h Distance 7.20 km</desc>
<time>2010-10-24T11:46:25.42</time>
<name>4494</name>
</trkpt>
<trkpt lat="48.930628" lon="8.655178">
<ele>368.0</ele>
<speed>1.01</speed>
<course>151.4</course>
<desc>Speed 3.6 km/h Distance 7.21 km</desc>
<time>2010-10-24T11:46:26.42</time>
<name>4495</name>
</trkpt>
<trkpt lat="48.930618" lon="8.655187">
<ele>367.0</ele>
<speed>0.83</speed>
<course>146.5</course>
<desc>Speed 3.0 km/h Distance 7.21 km</desc>
<time>2010-10-24T11:46:27.42</time>
<name>4496</name>
</trkpt>
<trkpt lat="48.930610" lon="8.655195">
<ele>367.0</ele>
<speed>0.80</speed>
<course>127.3</course>
<desc>Speed 2.9 km/h Distance 7.21 km</desc>
<time>2010-10-24T11:46:28.41</time>
<name>4497</name>
</trkpt>
<trkpt lat="48.930602" lon="8.655212">
<ele>368.0</ele>
<speed>1.16</speed>
<course>154.4</course>
<desc>Speed 4.2 km/h Distance 7.21 km</desc>
<time>2010-10-24T11:46:29.40</time>
<name>4498</name>
</trkpt>
<trkpt lat="48.930595" lon="8.655217">
<ele>367.0</ele>
<speed>0.99</speed>
<course>114.6</course>
<desc>Speed 3.6 km/h Distance 7.21 km</desc>
<time>2010-10-24T11:46:30.40</time>
<name>4499</name>
</trkpt>
<trkpt lat="48.930590" lon="8.655233">
<ele>367.5</ele>
<speed>0.87</speed>
<course>116.9</course>
<desc>Speed 3.1 km/h Distance 7.21 km</desc>
<time>2010-10-24T11:46:31.39</time>
<name>4500</name>
</trkpt>
<trkpt lat="48.930583" lon="8.655253">
<ele>368.0</ele>
<speed>0.57</speed>
<course>109.7</course>
<desc>Speed 2.1 km/h Distance 7.21 km</desc>
<time>2010-10-24T11:46:32.39</time>
<name>4501</name>
</trkpt>
<trkpt lat="48.930577" lon="8.655282">
<ele>369.5</ele>
<speed>0.76</speed>
<course>151.0</course>
<desc>Speed 2.7 km/h Distance 7.22 km</desc>
<time>2010-10-24T11:46:33.38</time>
<name>4502</name>
</trkpt>
<trkpt lat="48.930565" lon="8.655292">
<ele>370.0</ele>
<speed>1.03</speed>
<course>158.5</course>
<desc>Speed 3.7 km/h Distance 7.22 km</desc>
<time>2010-10-24T11:46:34.37</time>
<name>4503</name>
</trkpt>
<trkpt lat="48.930548" lon="8.655302">
<ele>369.5</ele>
<speed>1.22</speed>
<course>161.9</course>
<desc>Speed 4.4 km/h Distance 7.22 km</desc>
<time>2010-10-24T11:46:35.36</time>
<name>4504</name>
</trkpt>
<trkpt lat="48.930532" lon="8.655310">
<ele>369.0</ele>
<speed>1.13</speed>
<course>149.7</course>
<desc>Speed 4.1 km/h Distance 7.22 km</desc>
<time>2010-10-24T11:46:36.36</time>
<name>4505</name>
</trkpt>
<trkpt lat="48.930517" lon="8.655323">
<ele>369.0</ele>
<speed>1.19</speed>
<course>149.7</course>
<desc>Speed 4.3 km/h Distance 7.22 km</desc>
<time>2010-10-24T11:46:37.35</time>
<name>4506</name>
</trkpt>
<trkpt lat="48.930502" lon="8.655337">
<ele>368.5</ele>
<speed>1.46</speed>
<course>146.6</course>
<desc>Speed 5.3 km/h Distance 7.23 km</desc>
<time>2010-10-24T11:46:38.35</time>
<name>4507</name>
</trkpt>
<trkpt lat="48.930490" lon="8.655348">
<ele>368.0</ele>
<speed>1.01</speed>
<course>158.5</course>
<desc>Speed 3.6 km/h Distance 7.23 km</desc>
<time>2010-10-24T11:46:39.35</time>
<name>4508</name>
</trkpt>
<trkpt lat="48.930473" lon="8.655358">
<ele>367.0</ele>
<speed>1.13</speed>
<course>158.4</course>
<desc>Speed 4.1 km/h Distance 7.23 km</desc>
<time>2010-10-24T11:46:40.34</time>
<name>4509</name>
</trkpt>
<trkpt lat="48.930457" lon="8.655368">
<ele>366.5</ele>
<speed>1.45</speed>
<course>163.4</course>
<desc>Speed 5.2 km/h Distance 7.23 km</desc>
<time>2010-10-24T11:46:41.34</time>
<name>4510</name>
</trkpt>
<trkpt lat="48.930442" lon="8.655375">
<ele>365.5</ele>
<speed>1.10</speed>
<course>151.4</course>
<desc>Speed 4.0 km/h Distance 7.23 km</desc>
<time>2010-10-24T11:46:42.34</time>
<name>4511</name>
</trkpt>
<trkpt lat="48.930432" lon="8.655383">
<ele>365.5</ele>
<speed>1.11</speed>
<course>123.1</course>
<desc>Speed 4.0 km/h Distance 7.23 km</desc>
<time>2010-10-24T11:46:43.33</time>
<name>4512</name>
</trkpt>
<trkpt lat="48.930427" lon="8.655395">
<ele>365.5</ele>
<speed>0.99</speed>
<course>150.6</course>
<desc>Speed 3.6 km/h Distance 7.23 km</desc>
<time>2010-10-24T11:46:44.33</time>
<name>4513</name>
</trkpt>
<trkpt lat="48.930415" lon="8.655405">
<ele>365.5</ele>
<speed>1.20</speed>
<course>142.5</course>
<desc>Speed 4.3 km/h Distance 7.24 km</desc>
<time>2010-10-24T11:46:45.33</time>
<name>4514</name>
</trkpt>
<trkpt lat="48.930405" lon="8.655417">
<ele>365.0</ele>
<speed>0.99</speed>
<course>135.4</course>
<desc>Speed 3.6 km/h Distance 7.24 km</desc>
<time>2010-10-24T11:46:46.33</time>
<name>4515</name>
</trkpt>
<trkpt lat="48.930395" lon="8.655432">
<ele>365.0</ele>
<speed>1.10</speed>
<course>95.8</course>
<desc>Speed 4.0 km/h Distance 7.24 km</desc>
<time>2010-10-24T11:46:47.32</time>
<name>4516</name>
</trkpt>
<trkpt lat="48.930393" lon="8.655457">
<ele>366.5</ele>
<speed>0.92</speed>
<course>143.4</course>
<desc>Speed 3.3 km/h Distance 7.24 km</desc>
<time>2010-10-24T11:46:48.32</time>
<name>4517</name>
</trkpt>
<trkpt lat="48.930380" lon="8.655472">
<ele>366.5</ele>
<speed>1.34</speed>
<course>136.7</course>
<desc>Speed 4.8 km/h Distance 7.24 km</desc>
<time>2010-10-24T11:46:49.32</time>
<name>4518</name>
</trkpt>
<trkpt lat="48.930368" lon="8.655488">
<ele>366.5</ele>
<speed>1.20</speed>
<course>143.4</course>
<desc>Speed 4.3 km/h Distance 7.24 km</desc>
<time>2010-10-24T11:46:50.32</time>
<name>4519</name>
</trkpt>
<trkpt lat="48.930355" lon="8.655503">
<ele>367.0</ele>
<speed>1.02</speed>
<course>146.8</course>
<desc>Speed 3.7 km/h Distance 7.25 km</desc>
<time>2010-10-24T11:46:51.34</time>
<name>4520</name>
</trkpt>
<trkpt lat="48.930345" lon="8.655513">
<ele>367.0</ele>
<speed>0.98</speed>
<course>151.1</course>
<desc>Speed 3.5 km/h Distance 7.25 km</desc>
<time>2010-10-24T11:46:52.31</time>
<name>4521</name>
</trkpt>
<trkpt lat="48.930335" lon="8.655522">
<ele>366.5</ele>
<speed>0.89</speed>
<course>159.9</course>
<desc>Speed 3.2 km/h Distance 7.25 km</desc>
<time>2010-10-24T11:46:53.31</time>
<name>4522</name>
</trkpt>
<trkpt lat="48.930320" lon="8.655530">
<ele>366.0</ele>
<speed>1.38</speed>
<course>153.6</course>
<desc>Speed 5.0 km/h Distance 7.25 km</desc>
<time>2010-10-24T11:46:54.33</time>
<name>4523</name>
</trkpt>
<trkpt lat="48.930307" lon="8.655540">
<ele>365.0</ele>
<speed>1.25</speed>
<course>146.6</course>
<desc>Speed 4.5 km/h Distance 7.25 km</desc>
<time>2010-10-24T11:46:55.30</time>
<name>4524</name>
</trkpt>
<trkpt lat="48.930293" lon="8.655553">
<ele>364.0</ele>
<speed>1.17</speed>
<course>142.7</course>
<desc>Speed 4.2 km/h Distance 7.25 km</desc>
<time>2010-10-24T11:46:56.30</time>
<name>4525</name>
</trkpt>
<trkpt lat="48.930283" lon="8.655565">
<ele>364.5</ele>
<speed>1.14</speed>
<course>130.9</course>
<desc>Speed 4.1 km/h Distance 7.26 km</desc>
<time>2010-10-24T11:46:57.30</time>
<name>4526</name>
</trkpt>
<trkpt lat="48.930277" lon="8.655577">
<ele>364.0</ele>
<speed>0.87</speed>
<course>142.5</course>
<desc>Speed 3.1 km/h Distance 7.26 km</desc>
<time>2010-10-24T11:46:58.29</time>
<name>4527</name>
</trkpt>
<trkpt lat="48.930267" lon="8.655588">
<ele>363.5</ele>
<speed>0.94</speed>
<course>127.3</course>
<desc>Speed 3.4 km/h Distance 7.26 km</desc>
<time>2010-10-24T11:46:59.29</time>
<name>4528</name>
</trkpt>
<trkpt lat="48.930258" lon="8.655605">
<ele>363.0</ele>
<speed>1.05</speed>
<course>143.8</course>
<desc>Speed 3.8 km/h Distance 7.26 km</desc>
<time>2010-10-24T11:47:00.28</time>
<name>4529</name>
</trkpt>
<trkpt lat="48.930243" lon="8.655622">
<ele>362.5</ele>
<speed>1.40</speed>
<course>99.6</course>
<desc>Speed 5.0 km/h Distance 7.26 km</desc>
<time>2010-10-24T11:47:01.28</time>
<name>4530</name>
</trkpt>
<trkpt lat="48.930240" lon="8.655652">
<ele>365.0</ele>
<speed>1.15</speed>
<course>140.6</course>
<desc>Speed 4.1 km/h Distance 7.26 km</desc>
<time>2010-10-24T11:47:02.27</time>
<name>4531</name>
</trkpt>
<trkpt lat="48.930227" lon="8.655668">
<ele>364.5</ele>
<speed>0.81</speed>
<course>119.0</course>
<desc>Speed 2.9 km/h Distance 7.27 km</desc>
<time>2010-10-24T11:47:03.27</time>
<name>4532</name>
</trkpt>
<trkpt lat="48.930220" lon="8.655687">
<ele>365.0</ele>
<speed>1.00</speed>
<course>138.8</course>
<desc>Speed 3.6 km/h Distance 7.27 km</desc>
<time>2010-10-24T11:47:04.27</time>
<name>4533</name>
</trkpt>
<trkpt lat="48.930205" lon="8.655707">
<ele>365.5</ele>
<speed>1.20</speed>
<course>166.4</course>
<desc>Speed 4.3 km/h Distance 7.27 km</desc>
<time>2010-10-24T11:47:05.26</time>
<name>4534</name>
</trkpt>
<trkpt lat="48.930187" lon="8.655713">
<ele>364.5</ele>
<speed>1.36</speed>
<course>133.6</course>
<desc>Speed 4.9 km/h Distance 7.27 km</desc>
<time>2010-10-24T11:47:06.26</time>
<name>4535</name>
</trkpt>
<trkpt lat="48.930170" lon="8.655740">
<ele>365.5</ele>
<speed>1.24</speed>
<course>135.7</course>
<desc>Speed 4.5 km/h Distance 7.27 km</desc>
<time>2010-10-24T11:47:07.26</time>
<name>4536</name>
</trkpt>
<trkpt lat="48.930163" lon="8.655750">
<ele>365.5</ele>
<speed>0.80</speed>
<course>155.1</course>
<desc>Speed 2.9 km/h Distance 7.28 km</desc>
<time>2010-10-24T11:47:08.28</time>
<name>4537</name>
</trkpt>
<trkpt lat="48.930152" lon="8.655758">
<ele>365.0</ele>
<speed>1.02</speed>
<course>154.8</course>
<desc>Speed 3.7 km/h Distance 7.28 km</desc>
<time>2010-10-24T11:47:09.25</time>
<name>4538</name>
</trkpt>
<trkpt lat="48.930140" lon="8.655767">
<ele>365.0</ele>
<speed>1.21</speed>
<course>146.8</course>
<desc>Speed 4.4 km/h Distance 7.28 km</desc>
<time>2010-10-24T11:47:10.24</time>
<name>4539</name>
</trkpt>
<trkpt lat="48.930130" lon="8.655777">
<ele>364.5</ele>
<speed>0.85</speed>
<course>135.4</course>
<desc>Speed 3.1 km/h Distance 7.28 km</desc>
<time>2010-10-24T11:47:11.23</time>
<name>4540</name>
</trkpt>
<trkpt lat="48.930120" lon="8.655792">
<ele>364.5</ele>
<speed>1.03</speed>
<course>149.4</course>
<desc>Speed 3.7 km/h Distance 7.28 km</desc>
<time>2010-10-24T11:47:12.23</time>
<name>4541</name>
</trkpt>
<trkpt lat="48.930103" lon="8.655807">
<ele>364.0</ele>
<speed>1.37</speed>
<course>139.8</course>
<desc>Speed 4.9 km/h Distance 7.28 km</desc>
<time>2010-10-24T11:47:13.23</time>
<name>4542</name>
</trkpt>
<trkpt lat="48.930092" lon="8.655822">
<ele>364.0</ele>
<speed>0.91</speed>
<course>159.9</course>
<desc>Speed 3.3 km/h Distance 7.29 km</desc>
<time>2010-10-24T11:47:14.23</time>
<name>4543</name>
</trkpt>
<trkpt lat="48.930077" lon="8.655830">
<ele>364.0</ele>
<speed>0.72</speed>
<course>138.8</course>
<desc>Speed 2.6 km/h Distance 7.29 km</desc>
<time>2010-10-24T11:47:15.23</time>
<name>4544</name>
</trkpt>
<trkpt lat="48.930067" lon="8.655843">
<ele>364.0</ele>
<speed>0.76</speed>
<course>139.8</course>
<desc>Speed 2.7 km/h Distance 7.29 km</desc>
<time>2010-10-24T11:47:16.22</time>
<name>4545</name>
</trkpt>
<trkpt lat="48.930055" lon="8.655858">
<ele>365.0</ele>
<speed>1.28</speed>
<course>141.3</course>
<desc>Speed 4.6 km/h Distance 7.29 km</desc>
<time>2010-10-24T11:47:17.25</time>
<name>4546</name>
</trkpt>
<trkpt lat="48.930040" lon="8.655877">
<ele>365.5</ele>
<speed>1.49</speed>
<course>132.4</course>
<desc>Speed 5.4 km/h Distance 7.29 km</desc>
<time>2010-10-24T11:47:18.22</time>
<name>4547</name>
</trkpt>
<trkpt lat="48.930030" lon="8.655893">
<ele>365.5</ele>
<speed>0.89</speed>
<course>138.8</course>
<desc>Speed 3.2 km/h Distance 7.29 km</desc>
<time>2010-10-24T11:47:19.21</time>
<name>4548</name>
</trkpt>
<trkpt lat="48.930020" lon="8.655907">
<ele>366.0</ele>
<speed>1.25</speed>
<course>127.3</course>
<desc>Speed 4.5 km/h Distance 7.30 km</desc>
<time>2010-10-24T11:47:20.21</time>
<name>4549</name>
</trkpt>
<trkpt lat="48.930012" lon="8.655923">
<ele>366.5</ele>
<speed>1.05</speed>
<course>141.9</course>
<desc>Speed 3.8 km/h Distance 7.30 km</desc>
<time>2010-10-24T11:47:21.21</time>
<name>4550</name>
</trkpt>
<trkpt lat="48.930003" lon="8.655933">
<ele>366.5</ele>
<speed>1.03</speed>
<course>131.6</course>
<desc>Speed 3.7 km/h Distance 7.30 km</desc>
<time>2010-10-24T11:47:22.20</time>
<name>4551</name>
</trkpt>
<trkpt lat="48.929992" lon="8.655953">
<ele>367.0</ele>
<speed>1.25</speed>
<course>149.6</course>
<desc>Speed 4.5 km/h Distance 7.30 km</desc>
<time>2010-10-24T11:47:23.19</time>
<name>4552</name>
</trkpt>
<trkpt lat="48.929977" lon="8.655967">
<ele>366.5</ele>
<speed>1.28</speed>
<course>127.4</course>
<desc>Speed 4.6 km/h Distance 7.30 km</desc>
<time>2010-10-24T11:47:24.19</time>
<name>4553</name>
</trkpt>
<trkpt lat="48.929972" lon="8.655977">
<ele>367.0</ele>
<speed>0.80</speed>
<course>137.4</course>
<desc>Speed 2.9 km/h Distance 7.30 km</desc>
<time>2010-10-24T11:47:25.19</time>
<name>4554</name>
</trkpt>
<trkpt lat="48.929963" lon="8.655988">
<ele>367.5</ele>
<speed>0.93</speed>
<course>116.9</course>
<desc>Speed 3.3 km/h Distance 7.30 km</desc>
<time>2010-10-24T11:47:26.18</time>
<name>4555</name>
</trkpt>
<trkpt lat="48.929958" lon="8.656003">
<ele>368.5</ele>
<speed>1.12</speed>
<course>108.1</course>
<desc>Speed 4.0 km/h Distance 7.31 km</desc>
<time>2010-10-24T11:47:27.18</time>
<name>4556</name>
</trkpt>
<trkpt lat="48.929953" lon="8.656027">
<ele>370.0</ele>
<speed>1.12</speed>
<course>138.8</course>
<desc>Speed 4.0 km/h Distance 7.31 km</desc>
<time>2010-10-24T11:47:28.18</time>
<name>4557</name>
</trkpt>
<trkpt lat="48.929943" lon="8.656040">
<ele>370.5</ele>
<speed>1.16</speed>
<course>142.5</course>
<desc>Speed 4.2 km/h Distance 7.31 km</desc>
<time>2010-10-24T11:47:29.18</time>
<name>4558</name>
</trkpt>
<trkpt lat="48.929933" lon="8.656052">
<ele>370.0</ele>
<speed>1.38</speed>
<course>130.1</course>
<desc>Speed 5.0 km/h Distance 7.31 km</desc>
<time>2010-10-24T11:47:30.19</time>
<name>4559</name>
</trkpt>
<trkpt lat="48.929925" lon="8.656067">
<ele>370.0</ele>
<speed>1.09</speed>
<course>137.4</course>
<desc>Speed 3.9 km/h Distance 7.31 km</desc>
<time>2010-10-24T11:47:31.17</time>
<name>4560</name>
</trkpt>
<trkpt lat="48.929917" lon="8.656078">
<ele>370.0</ele>
<speed>1.23</speed>
<course>119.7</course>
<desc>Speed 4.4 km/h Distance 7.31 km</desc>
<time>2010-10-24T11:47:32.16</time>
<name>4561</name>
</trkpt>
<trkpt lat="48.929907" lon="8.656105">
<ele>371.5</ele>
<speed>1.41</speed>
<course>167.4</course>
<desc>Speed 5.1 km/h Distance 7.31 km</desc>
<time>2010-10-24T11:47:33.16</time>
<name>4562</name>
</trkpt>
<trkpt lat="48.929897" lon="8.656108">
<ele>371.0</ele>
<speed>1.07</speed>
<course>109.9</course>
<desc>Speed 3.9 km/h Distance 7.32 km</desc>
<time>2010-10-24T11:47:34.16</time>
<name>4563</name>
</trkpt>
<trkpt lat="48.929888" lon="8.656143">
<ele>373.5</ele>
<speed>1.10</speed>
<course>143.1</course>
<desc>Speed 4.0 km/h Distance 7.32 km</desc>
<time>2010-10-24T11:47:35.16</time>
<name>4564</name>
</trkpt>
<trkpt lat="48.929877" lon="8.656157">
<ele>373.0</ele>
<speed>1.23</speed>
<course>124.7</course>
<desc>Speed 4.4 km/h Distance 7.32 km</desc>
<time>2010-10-24T11:47:36.16</time>
<name>4565</name>
</trkpt>
<trkpt lat="48.929868" lon="8.656175">
<ele>373.5</ele>
<speed>0.70</speed>
<course>177.8</course>
<desc>Speed 2.5 km/h Distance 7.32 km</desc>
<time>2010-10-24T11:47:37.15</time>
<name>4566</name>
</trkpt>
<trkpt lat="48.929857" lon="8.656175">
<ele>372.5</ele>
<speed>0.56</speed>
<course>136.5</course>
<desc>Speed 2.0 km/h Distance 7.32 km</desc>
<time>2010-10-24T11:47:38.14</time>
<name>4567</name>
</trkpt>
<trkpt lat="48.929853" lon="8.656180">
<ele>372.5</ele>
<speed>0.34</speed>
<course>161.7</course>
<desc>Speed 1.2 km/h Distance 7.32 km</desc>
<time>2010-10-24T11:47:40.14</time>
<name>4568</name>
</trkpt>
<trkpt lat="48.929837" lon="8.656188">
<ele>370.0</ele>
<speed>0.56</speed>
<course>150.6</course>
<desc>Speed 2.0 km/h Distance 7.33 km</desc>
<time>2010-10-24T11:47:41.13</time>
<name>4569</name>
</trkpt>
<trkpt lat="48.929825" lon="8.656198">
<ele>369.5</ele>
<speed>1.09</speed>
<course>165.1</course>
<desc>Speed 3.9 km/h Distance 7.33 km</desc>
<time>2010-10-24T11:47:42.12</time>
<name>4570</name>
</trkpt>
<trkpt lat="48.929808" lon="8.656205">
<ele>368.5</ele>
<speed>1.10</speed>
<course>94.6</course>
<desc>Speed 4.0 km/h Distance 7.33 km</desc>
<time>2010-10-24T11:47:43.12</time>
<name>4571</name>
</trkpt>
<trkpt lat="48.929807" lon="8.656237">
<ele>371.0</ele>
<speed>1.07</speed>
<course>94.1</course>
<desc>Speed 3.9 km/h Distance 7.33 km</desc>
<time>2010-10-24T11:47:44.12</time>
<name>4572</name>
</trkpt>
<trkpt lat="48.929805" lon="8.656272">
<ele>373.5</ele>
<speed>1.02</speed>
<course>151.0</course>
<desc>Speed 3.7 km/h Distance 7.33 km</desc>
<time>2010-10-24T11:47:45.11</time>
<name>4573</name>
</trkpt>
<trkpt lat="48.929793" lon="8.656282">
<ele>373.0</ele>
<speed>1.27</speed>
<course>127.3</course>
<desc>Speed 4.6 km/h Distance 7.34 km</desc>
<time>2010-10-24T11:47:46.11</time>
<name>4574</name>
</trkpt>
<trkpt lat="48.929787" lon="8.656295">
<ele>373.5</ele>
<speed>0.93</speed>
<course>153.6</course>
<desc>Speed 3.3 km/h Distance 7.34 km</desc>
<time>2010-10-24T11:47:47.11</time>
<name>4575</name>
</trkpt>
<trkpt lat="48.929773" lon="8.656305">
<ele>372.0</ele>
<speed>1.11</speed>
<course>161.9</course>
<desc>Speed 4.0 km/h Distance 7.34 km</desc>
<time>2010-10-24T11:47:48.10</time>
<name>4576</name>
</trkpt>
<trkpt lat="48.929757" lon="8.656313">
<ele>371.0</ele>
<speed>1.10</speed>
<course>108.7</course>
<desc>Speed 4.0 km/h Distance 7.34 km</desc>
<time>2010-10-24T11:47:49.10</time>
<name>4577</name>
</trkpt>
<trkpt lat="48.929750" lon="8.656343">
<ele>372.5</ele>
<speed>1.09</speed>
<course>120.6</course>
<desc>Speed 3.9 km/h Distance 7.34 km</desc>
<time>2010-10-24T11:47:50.10</time>
<name>4578</name>
</trkpt>
<trkpt lat="48.929738" lon="8.656373">
<ele>374.0</ele>
<speed>1.13</speed>
<course>153.6</course>
<desc>Speed 4.1 km/h Distance 7.35 km</desc>
<time>2010-10-24T11:47:51.09</time>
<name>4579</name>
</trkpt>
<trkpt lat="48.929725" lon="8.656383">
<ele>372.5</ele>
<speed>1.15</speed>
<course>177.3</course>
<desc>Speed 4.1 km/h Distance 7.35 km</desc>
<time>2010-10-24T11:47:52.08</time>
<name>4580</name>
</trkpt>
<trkpt lat="48.929705" lon="8.656383">
<ele>371.0</ele>
<speed>1.35</speed>
<course>158.5</course>
<desc>Speed 4.9 km/h Distance 7.35 km</desc>
<time>2010-10-24T11:47:53.07</time>
<name>4581</name>
</trkpt>
<trkpt lat="48.929688" lon="8.656393">
<ele>369.5</ele>
<speed>1.05</speed>
<course>171.9</course>
<desc>Speed 3.8 km/h Distance 7.35 km</desc>
<time>2010-10-24T11:47:54.06</time>
<name>4582</name>
</trkpt>
<trkpt lat="48.929673" lon="8.656397">
<ele>368.5</ele>
<speed>0.75</speed>
<course>164.7</course>
<desc>Speed 2.7 km/h Distance 7.35 km</desc>
<time>2010-10-24T11:47:55.06</time>
<name>4583</name>
</trkpt>
<trkpt lat="48.929653" lon="8.656405">
<ele>367.5</ele>
<speed>1.24</speed>
<course>163.4</course>
<desc>Speed 4.5 km/h Distance 7.36 km</desc>
<time>2010-10-24T11:47:56.05</time>
<name>4584</name>
</trkpt>
<trkpt lat="48.929635" lon="8.656413">
<ele>366.0</ele>
<speed>1.10</speed>
<course>137.4</course>
<desc>Speed 4.0 km/h Distance 7.36 km</desc>
<time>2010-10-24T11:47:57.05</time>
<name>4585</name>
</trkpt>
<trkpt lat="48.929627" lon="8.656425">
<ele>365.5</ele>
<speed>1.02</speed>
<course>132.5</course>
<desc>Speed 3.7 km/h Distance 7.36 km</desc>
<time>2010-10-24T11:47:58.04</time>
<name>4586</name>
</trkpt>
<trkpt lat="48.929617" lon="8.656442">
<ele>366.0</ele>
<speed>1.19</speed>
<course>136.8</course>
<desc>Speed 4.3 km/h Distance 7.36 km</desc>
<time>2010-10-24T11:47:59.03</time>
<name>4587</name>
</trkpt>
<trkpt lat="48.929605" lon="8.656458">
<ele>366.0</ele>
<speed>1.28</speed>
<course>161.9</course>
<desc>Speed 4.6 km/h Distance 7.36 km</desc>
<time>2010-10-24T11:48:00.03</time>
<name>4588</name>
</trkpt>
<trkpt lat="48.929592" lon="8.656465">
<ele>365.0</ele>
<speed>1.08</speed>
<course>157.9</course>
<desc>Speed 3.9 km/h Distance 7.36 km</desc>
<time>2010-10-24T11:48:01.03</time>
<name>4589</name>
</trkpt>
<trkpt lat="48.929578" lon="8.656473">
<ele>364.5</ele>
<speed>1.12</speed>
<course>146.8</course>
<desc>Speed 4.0 km/h Distance 7.37 km</desc>
<time>2010-10-24T11:48:02.02</time>
<name>4590</name>
</trkpt>
<trkpt lat="48.929570" lon="8.656482">
<ele>364.0</ele>
<speed>0.99</speed>
<course>121.8</course>
<desc>Speed 3.6 km/h Distance 7.37 km</desc>
<time>2010-10-24T11:48:03.04</time>
<name>4591</name>
</trkpt>
<trkpt lat="48.929552" lon="8.656527">
<ele>365.0</ele>
<speed>1.19</speed>
<course>91.5</course>
<desc>Speed 4.3 km/h Distance 7.37 km</desc>
<time>2010-10-24T11:48:05.01</time>
<name>4592</name>
</trkpt>
<trkpt lat="48.929550" lon="8.656625">
<ele>372.5</ele>
<speed>1.20</speed>
<course>143.4</course>
<desc>Speed 4.3 km/h Distance 7.38 km</desc>
<time>2010-10-24T11:48:07.01</time>
<name>4593</name>
</trkpt>
<trkpt lat="48.929537" lon="8.656640">
<ele>372.5</ele>
<speed>1.50</speed>
<course>109.3</course>
<desc>Speed 5.4 km/h Distance 7.38 km</desc>
<time>2010-10-24T11:48:08.00</time>
<name>4594</name>
</trkpt>
<trkpt lat="48.929527" lon="8.656683">
<ele>374.0</ele>
<speed>1.37</speed>
<course>124.7</course>
<desc>Speed 4.9 km/h Distance 7.38 km</desc>
<time>2010-10-24T11:48:09.00</time>
<name>4595</name>
</trkpt>
<trkpt lat="48.929502" lon="8.656738">
<ele>373.5</ele>
<speed>1.09</speed>
<course>156.3</course>
<desc>Speed 3.9 km/h Distance 7.39 km</desc>
<time>2010-10-24T11:48:10.99</time>
<name>4596</name>
</trkpt>
<trkpt lat="48.929487" lon="8.656748">
<ele>372.5</ele>
<speed>1.14</speed>
<course>156.3</course>
<desc>Speed 4.1 km/h Distance 7.39 km</desc>
<time>2010-10-24T11:48:11.99</time>
<name>4597</name>
</trkpt>
<trkpt lat="48.929472" lon="8.656758">
<ele>371.5</ele>
<speed>1.01</speed>
<course>153.1</course>
<desc>Speed 3.6 km/h Distance 7.39 km</desc>
<time>2010-10-24T11:48:12.98</time>
<name>4598</name>
</trkpt>
<trkpt lat="48.929457" lon="8.656770">
<ele>371.0</ele>
<speed>1.44</speed>
<course>163.7</course>
<desc>Speed 5.2 km/h Distance 7.39 km</desc>
<time>2010-10-24T11:48:13.97</time>
<name>4599</name>
</trkpt>
<trkpt lat="48.929442" lon="8.656777">
<ele>370.0</ele>
<speed>1.17</speed>
<course>120.3</course>
<desc>Speed 4.2 km/h Distance 7.39 km</desc>
<time>2010-10-24T11:48:14.97</time>
<name>4600</name>
</trkpt>
<trkpt lat="48.929433" lon="8.656798">
<ele>370.5</ele>
<speed>1.02</speed>
<course>143.1</course>
<desc>Speed 3.7 km/h Distance 7.40 km</desc>
<time>2010-10-24T11:48:15.97</time>
<name>4601</name>
</trkpt>
<trkpt lat="48.929422" lon="8.656812">
<ele>370.0</ele>
<speed>1.21</speed>
<course>127.3</course>
<desc>Speed 4.4 km/h Distance 7.40 km</desc>
<time>2010-10-24T11:48:16.97</time>
<name>4602</name>
</trkpt>
<trkpt lat="48.929410" lon="8.656835">
<ele>370.5</ele>
<speed>1.40</speed>
<course>157.4</course>
<desc>Speed 5.0 km/h Distance 7.40 km</desc>
<time>2010-10-24T11:48:17.96</time>
<name>4603</name>
</trkpt>
<trkpt lat="48.929392" lon="8.656847">
<ele>369.0</ele>
<speed>1.60</speed>
<course>114.5</course>
<desc>Speed 5.8 km/h Distance 7.40 km</desc>
<time>2010-10-24T11:48:18.98</time>
<name>4604</name>
</trkpt>
<trkpt lat="48.929387" lon="8.656863">
<ele>369.0</ele>
<speed>1.24</speed>
<course>111.8</course>
<desc>Speed 4.5 km/h Distance 7.40 km</desc>
<time>2010-10-24T11:48:19.95</time>
<name>4605</name>
</trkpt>
<trkpt lat="48.929378" lon="8.656895">
<ele>370.5</ele>
<speed>1.50</speed>
<course>138.8</course>
<desc>Speed 5.4 km/h Distance 7.41 km</desc>
<time>2010-10-24T11:48:20.95</time>
<name>4606</name>
</trkpt>
<trkpt lat="48.929368" lon="8.656908">
<ele>370.5</ele>
<speed>1.29</speed>
<course>143.1</course>
<desc>Speed 4.6 km/h Distance 7.41 km</desc>
<time>2010-10-24T11:48:21.95</time>
<name>4607</name>
</trkpt>
<trkpt lat="48.929357" lon="8.656922">
<ele>370.5</ele>
<speed>1.36</speed>
<course>133.5</course>
<desc>Speed 4.9 km/h Distance 7.41 km</desc>
<time>2010-10-24T11:48:22.94</time>
<name>4608</name>
</trkpt>
<trkpt lat="48.929348" lon="8.656935">
<ele>370.0</ele>
<speed>1.12</speed>
<course>137.4</course>
<desc>Speed 4.0 km/h Distance 7.41 km</desc>
<time>2010-10-24T11:48:23.94</time>
<name>4609</name>
</trkpt>
<trkpt lat="48.929340" lon="8.656947">
<ele>370.0</ele>
<speed>1.21</speed>
<course>150.2</course>
<desc>Speed 4.4 km/h Distance 7.41 km</desc>
<time>2010-10-24T11:48:24.94</time>
<name>4610</name>
</trkpt>
<trkpt lat="48.929327" lon="8.656958">
<ele>369.5</ele>
<speed>1.48</speed>
<course>123.1</course>
<desc>Speed 5.3 km/h Distance 7.41 km</desc>
<time>2010-10-24T11:48:25.93</time>
<name>4611</name>
</trkpt>
<trkpt lat="48.929317" lon="8.656982">
<ele>369.5</ele>
<speed>1.36</speed>
<course>146.9</course>
<desc>Speed 4.9 km/h Distance 7.42 km</desc>
<time>2010-10-24T11:48:26.93</time>
<name>4612</name>
</trkpt>
<trkpt lat="48.929305" lon="8.656993">
<ele>368.5</ele>
<speed>1.25</speed>
<course>115.7</course>
<desc>Speed 4.5 km/h Distance 7.42 km</desc>
<time>2010-10-24T11:48:27.92</time>
<name>4613</name>
</trkpt>
<trkpt lat="48.929295" lon="8.657025">
<ele>370.0</ele>
<speed>1.32</speed>
<course>146.7</course>
<desc>Speed 4.8 km/h Distance 7.42 km</desc>
<time>2010-10-24T11:48:28.92</time>
<name>4614</name>
</trkpt>
<trkpt lat="48.929282" lon="8.657038">
<ele>369.5</ele>
<speed>1.28</speed>
<course>158.5</course>
<desc>Speed 4.6 km/h Distance 7.42 km</desc>
<time>2010-10-24T11:48:29.92</time>
<name>4615</name>
</trkpt>
<trkpt lat="48.929265" lon="8.657048">
<ele>368.0</ele>
<speed>1.60</speed>
<course>136.9</course>
<desc>Speed 5.8 km/h Distance 7.42 km</desc>
<time>2010-10-24T11:48:30.91</time>
<name>4616</name>
</trkpt>
<trkpt lat="48.929253" lon="8.657065">
<ele>368.0</ele>
<speed>1.35</speed>
<course>153.6</course>
<desc>Speed 4.9 km/h Distance 7.43 km</desc>
<time>2010-10-24T11:48:31.90</time>
<name>4617</name>
</trkpt>
<trkpt lat="48.929240" lon="8.657075">
<ele>367.5</ele>
<speed>1.35</speed>
<course>146.2</course>
<desc>Speed 4.9 km/h Distance 7.43 km</desc>
<time>2010-10-24T11:48:32.89</time>
<name>4618</name>
</trkpt>
<trkpt lat="48.929232" lon="8.657083">
<ele>367.0</ele>
<speed>0.99</speed>
<course>110.8</course>
<desc>Speed 3.6 km/h Distance 7.43 km</desc>
<time>2010-10-24T11:48:33.89</time>
<name>4619</name>
</trkpt>
<trkpt lat="48.929228" lon="8.657097">
<ele>367.0</ele>
<speed>0.95</speed>
<course>146.8</course>
<desc>Speed 3.4 km/h Distance 7.43 km</desc>
<time>2010-10-24T11:48:34.89</time>
<name>4620</name>
</trkpt>
<trkpt lat="48.929220" lon="8.657105">
<ele>366.5</ele>
<speed>1.04</speed>
<course>352.6</course>
<desc>Speed 3.7 km/h Distance 7.43 km</desc>
<time>2010-10-24T11:48:35.89</time>
<name>4621</name>
</trkpt>
<trkpt lat="48.929227" lon="8.657103">
<ele>366.5</ele>
<speed>0.86</speed>
<course>135.5</course>
<desc>Speed 3.1 km/h Distance 7.43 km</desc>
<time>2010-10-24T11:48:36.88</time>
<name>4622</name>
</trkpt>
<trkpt lat="48.929223" lon="8.657108">
<ele>366.0</ele>
<speed>0.46</speed>
<course>147.4</course>
<desc>Speed 1.7 km/h Distance 7.43 km</desc>
<time>2010-10-24T11:48:37.87</time>
<name>4623</name>
</trkpt>
<trkpt lat="48.929217" lon="8.657115">
<ele>364.5</ele>
<speed>0.82</speed>
<course>119.7</course>
<desc>Speed 3.0 km/h Distance 7.43 km</desc>
<time>2010-10-24T11:48:38.86</time>
<name>4624</name>
</trkpt>
<trkpt lat="48.929212" lon="8.657128">
<ele>364.0</ele>
<speed>0.94</speed>
<course>103.2</course>
<desc>Speed 3.4 km/h Distance 7.43 km</desc>
<time>2010-10-24T11:48:39.89</time>
<name>4625</name>
</trkpt>
<trkpt lat="48.929208" lon="8.657150">
<ele>364.5</ele>
<speed>0.89</speed>
<course>104.2</course>
<desc>Speed 3.2 km/h Distance 7.44 km</desc>
<time>2010-10-24T11:48:40.85</time>
<name>4626</name>
</trkpt>
<trkpt lat="48.929205" lon="8.657170">
<ele>364.5</ele>
<speed>0.82</speed>
<course>164.5</course>
<desc>Speed 3.0 km/h Distance 7.44 km</desc>
<time>2010-10-24T11:48:41.85</time>
<name>4627</name>
</trkpt>
<trkpt lat="48.929193" lon="8.657175">
<ele>363.5</ele>
<speed>0.74</speed>
<course>121.3</course>
<desc>Speed 2.7 km/h Distance 7.44 km</desc>
<time>2010-10-24T11:48:42.84</time>
<name>4628</name>
</trkpt>
<trkpt lat="48.929187" lon="8.657192">
<ele>363.5</ele>
<speed>1.33</speed>
<course>124.1</course>
<desc>Speed 4.8 km/h Distance 7.44 km</desc>
<time>2010-10-24T11:48:43.83</time>
<name>4629</name>
</trkpt>
<trkpt lat="48.929180" lon="8.657207">
<ele>362.5</ele>
<speed>0.97</speed>
<course>133.6</course>
<desc>Speed 3.5 km/h Distance 7.44 km</desc>
<time>2010-10-24T11:48:44.82</time>
<name>4630</name>
</trkpt>
<trkpt lat="48.929172" lon="8.657220">
<ele>362.0</ele>
<speed>1.11</speed>
<course>123.1</course>
<desc>Speed 4.0 km/h Distance 7.44 km</desc>
<time>2010-10-24T11:48:45.82</time>
<name>4631</name>
</trkpt>
<trkpt lat="48.929167" lon="8.657232">
<ele>361.5</ele>
<speed>0.85</speed>
<course>146.6</course>
<desc>Speed 3.1 km/h Distance 7.44 km</desc>
<time>2010-10-24T11:48:46.82</time>
<name>4632</name>
</trkpt>
<trkpt lat="48.929155" lon="8.657243">
<ele>360.5</ele>
<speed>1.25</speed>
<course>153.6</course>
<desc>Speed 4.5 km/h Distance 7.44 km</desc>
<time>2010-10-24T11:48:47.82</time>
<name>4633</name>
</trkpt>
<trkpt lat="48.929142" lon="8.657253">
<ele>360.0</ele>
<speed>1.03</speed>
<course>127.3</course>
<desc>Speed 3.7 km/h Distance 7.45 km</desc>
<time>2010-10-24T11:48:48.82</time>
<name>4634</name>
</trkpt>
<trkpt lat="48.929135" lon="8.657267">
<ele>359.5</ele>
<speed>1.07</speed>
<course>116.9</course>
<desc>Speed 3.9 km/h Distance 7.45 km</desc>
<time>2010-10-24T11:48:49.82</time>
<name>4635</name>
</trkpt>
<trkpt lat="48.929130" lon="8.657282">
<ele>360.0</ele>
<speed>1.02</speed>
<course>130.3</course>
<desc>Speed 3.7 km/h Distance 7.45 km</desc>
<time>2010-10-24T11:48:50.81</time>
<name>4636</name>
</trkpt>
<trkpt lat="48.929122" lon="8.657297">
<ele>359.5</ele>
<speed>1.17</speed>
<course>110.8</course>
<desc>Speed 4.2 km/h Distance 7.45 km</desc>
<time>2010-10-24T11:48:51.80</time>
<name>4637</name>
</trkpt>
<trkpt lat="48.929117" lon="8.657317">
<ele>359.5</ele>
<speed>0.92</speed>
<course>150.8</course>
<desc>Speed 3.3 km/h Distance 7.45 km</desc>
<time>2010-10-24T11:48:52.80</time>
<name>4638</name>
</trkpt>
<trkpt lat="48.929105" lon="8.657327">
<ele>359.0</ele>
<speed>0.74</speed>
<course>118.3</course>
<desc>Speed 2.7 km/h Distance 7.45 km</desc>
<time>2010-10-24T11:48:53.80</time>
<name>4639</name>
</trkpt>
<trkpt lat="48.929095" lon="8.657355">
<ele>359.5</ele>
<speed>1.02</speed>
<course>143.1</course>
<desc>Speed 3.7 km/h Distance 7.46 km</desc>
<time>2010-10-24T11:48:54.79</time>
<name>4640</name>
</trkpt>
<trkpt lat="48.929083" lon="8.657368">
<ele>359.5</ele>
<speed>1.01</speed>
<course>149.9</course>
<desc>Speed 3.6 km/h Distance 7.46 km</desc>
<time>2010-10-24T11:48:55.79</time>
<name>4641</name>
</trkpt>
<trkpt lat="48.929070" lon="8.657380">
<ele>359.0</ele>
<speed>1.04</speed>
<course>146.8</course>
<desc>Speed 3.7 km/h Distance 7.46 km</desc>
<time>2010-10-24T11:48:56.78</time>
<name>4642</name>
</trkpt>
<trkpt lat="48.929060" lon="8.657390">
<ele>358.0</ele>
<speed>0.85</speed>
<course>161.9</course>
<desc>Speed 3.1 km/h Distance 7.46 km</desc>
<time>2010-10-24T11:48:57.78</time>
<name>4643</name>
</trkpt>
<trkpt lat="48.929043" lon="8.657398">
<ele>356.5</ele>
<speed>1.16</speed>
<course>142.5</course>
<desc>Speed 4.2 km/h Distance 7.46 km</desc>
<time>2010-10-24T11:48:58.78</time>
<name>4644</name>
</trkpt>
<trkpt lat="48.929033" lon="8.657410">
<ele>355.5</ele>
<speed>0.93</speed>
<course>135.4</course>
<desc>Speed 3.3 km/h Distance 7.46 km</desc>
<time>2010-10-24T11:48:59.77</time>
<name>4645</name>
</trkpt>
<trkpt lat="48.929023" lon="8.657425">
<ele>355.0</ele>
<speed>1.03</speed>
<course>146.6</course>
<desc>Speed 3.7 km/h Distance 7.47 km</desc>
<time>2010-10-24T11:49:00.76</time>
<name>4646</name>
</trkpt>
<trkpt lat="48.929012" lon="8.657437">
<ele>354.5</ele>
<speed>1.35</speed>
<course>161.7</course>
<desc>Speed 4.9 km/h Distance 7.47 km</desc>
<time>2010-10-24T11:49:01.76</time>
<name>4647</name>
</trkpt>
<trkpt lat="48.928995" lon="8.657445">
<ele>353.0</ele>
<speed>0.76</speed>
<course>156.6</course>
<desc>Speed 2.7 km/h Distance 7.47 km</desc>
<time>2010-10-24T11:49:03.76</time>
<name>4648</name>
</trkpt>
<trkpt lat="48.928985" lon="8.657452">
<ele>351.0</ele>
<speed>0.56</speed>
<course>137.7</course>
<desc>Speed 2.0 km/h Distance 7.47 km</desc>
<time>2010-10-24T11:49:04.78</time>
<name>4649</name>
</trkpt>
<trkpt lat="48.928977" lon="8.657463">
<ele>350.5</ele>
<speed>0.92</speed>
<course>135.5</course>
<desc>Speed 3.3 km/h Distance 7.47 km</desc>
<time>2010-10-24T11:49:05.75</time>
<name>4650</name>
</trkpt>
<trkpt lat="48.928970" lon="8.657473">
<ele>350.5</ele>
<speed>0.66</speed>
<course>138.7</course>
<desc>Speed 2.4 km/h Distance 7.47 km</desc>
<time>2010-10-24T11:49:06.74</time>
<name>4651</name>
</trkpt>
<trkpt lat="48.928960" lon="8.657487">
<ele>350.0</ele>
<speed>0.88</speed>
<course>152.2</course>
<desc>Speed 3.2 km/h Distance 7.47 km</desc>
<time>2010-10-24T11:49:07.74</time>
<name>4652</name>
</trkpt>
<trkpt lat="48.928943" lon="8.657500">
<ele>349.5</ele>
<speed>1.05</speed>
<course>149.7</course>
<desc>Speed 3.8 km/h Distance 7.48 km</desc>
<time>2010-10-24T11:49:08.74</time>
<name>4653</name>
</trkpt>
<trkpt lat="48.928928" lon="8.657513">
<ele>349.0</ele>
<speed>1.00</speed>
<course>164.7</course>
<desc>Speed 3.6 km/h Distance 7.48 km</desc>
<time>2010-10-24T11:49:09.73</time>
<name>4654</name>
</trkpt>
<trkpt lat="48.928908" lon="8.657522">
<ele>348.0</ele>
<speed>1.04</speed>
<course>146.7</course>
<desc>Speed 3.7 km/h Distance 7.48 km</desc>
<time>2010-10-24T11:49:10.73</time>
<name>4655</name>
</trkpt>
<trkpt lat="48.928893" lon="8.657537">
<ele>348.5</ele>
<speed>1.39</speed>
<course>109.4</course>
<desc>Speed 5.0 km/h Distance 7.48 km</desc>
<time>2010-10-24T11:49:11.72</time>
<name>4656</name>
</trkpt>
<trkpt lat="48.928888" lon="8.657558">
<ele>349.5</ele>
<speed>1.39</speed>
<course>119.0</course>
<desc>Speed 5.0 km/h Distance 7.48 km</desc>
<time>2010-10-24T11:49:12.71</time>
<name>4657</name>
</trkpt>
<trkpt lat="48.928882" lon="8.657577">
<ele>350.0</ele>
<speed>1.16</speed>
<course>135.5</course>
<desc>Speed 4.2 km/h Distance 7.49 km</desc>
<time>2010-10-24T11:49:13.70</time>
<name>4658</name>
</trkpt>
<trkpt lat="48.928872" lon="8.657592">
<ele>349.5</ele>
<speed>1.10</speed>
<course>142.7</course>
<desc>Speed 4.0 km/h Distance 7.49 km</desc>
<time>2010-10-24T11:49:14.70</time>
<name>4659</name>
</trkpt>
<trkpt lat="48.928862" lon="8.657603">
<ele>349.5</ele>
<speed>1.20</speed>
<course>135.5</course>
<desc>Speed 4.3 km/h Distance 7.49 km</desc>
<time>2010-10-24T11:49:15.69</time>
<name>4660</name>
</trkpt>
<trkpt lat="48.928852" lon="8.657618">
<ele>349.5</ele>
<speed>1.24</speed>
<course>114.5</course>
<desc>Speed 4.5 km/h Distance 7.49 km</desc>
<time>2010-10-24T11:49:16.68</time>
<name>4661</name>
</trkpt>
<trkpt lat="48.928847" lon="8.657635">
<ele>350.0</ele>
<speed>1.05</speed>
<course>150.4</course>
<desc>Speed 3.8 km/h Distance 7.49 km</desc>
<time>2010-10-24T11:49:17.68</time>
<name>4662</name>
</trkpt>
<trkpt lat="48.928835" lon="8.657645">
<ele>349.5</ele>
<speed>1.00</speed>
<course>150.6</course>
<desc>Speed 3.6 km/h Distance 7.49 km</desc>
<time>2010-10-24T11:49:18.68</time>
<name>4663</name>
</trkpt>
<trkpt lat="48.928823" lon="8.657655">
<ele>348.5</ele>
<speed>1.07</speed>
<course>153.8</course>
<desc>Speed 3.9 km/h Distance 7.49 km</desc>
<time>2010-10-24T11:49:19.70</time>
<name>4664</name>
</trkpt>
<trkpt lat="48.928810" lon="8.657665">
<ele>347.5</ele>
<speed>0.87</speed>
<course>143.4</course>
<desc>Speed 3.1 km/h Distance 7.50 km</desc>
<time>2010-10-24T11:49:20.67</time>
<name>4665</name>
</trkpt>
<trkpt lat="48.928797" lon="8.657680">
<ele>347.5</ele>
<speed>1.05</speed>
<course>146.7</course>
<desc>Speed 3.8 km/h Distance 7.50 km</desc>
<time>2010-10-24T11:49:21.67</time>
<name>4666</name>
</trkpt>
<trkpt lat="48.928783" lon="8.657693">
<ele>348.5</ele>
<speed>1.20</speed>
<course>110.8</course>
<desc>Speed 4.3 km/h Distance 7.50 km</desc>
<time>2010-10-24T11:49:22.67</time>
<name>4667</name>
</trkpt>
<trkpt lat="48.928777" lon="8.657720">
<ele>349.0</ele>
<speed>0.60</speed>
<course>124.0</course>
<desc>Speed 2.2 km/h Distance 7.50 km</desc>
<time>2010-10-24T11:49:23.66</time>
<name>4668</name>
</trkpt>
<trkpt lat="48.928770" lon="8.657735">
<ele>349.0</ele>
<speed>0.98</speed>
<course>108.7</course>
<desc>Speed 3.5 km/h Distance 7.50 km</desc>
<time>2010-10-24T11:49:24.66</time>
<name>4669</name>
</trkpt>
<trkpt lat="48.928767" lon="8.657750">
<ele>348.5</ele>
<speed>0.63</speed>
<course>97.2</course>
<desc>Speed 2.3 km/h Distance 7.50 km</desc>
<time>2010-10-24T11:49:25.66</time>
<name>4670</name>
</trkpt>
<trkpt lat="48.928765" lon="8.657770">
<ele>349.0</ele>
<speed>0.58</speed>
<course>90.0</course>
<desc>Speed 2.1 km/h Distance 7.51 km</desc>
<time>2010-10-24T11:49:26.65</time>
<name>4671</name>
</trkpt>
<trkpt lat="48.928765" lon="8.657788">
<ele>350.0</ele>
<speed>0.56</speed>
<course>113.5</course>
<desc>Speed 2.0 km/h Distance 7.51 km</desc>
<time>2010-10-24T11:49:27.65</time>
<name>4672</name>
</trkpt>
<trkpt lat="48.928758" lon="8.657812">
<ele>351.0</ele>
<speed>0.86</speed>
<course>106.9</course>
<desc>Speed 3.1 km/h Distance 7.51 km</desc>
<time>2010-10-24T11:49:28.65</time>
<name>4673</name>
</trkpt>
<trkpt lat="48.928755" lon="8.657828">
<ele>351.0</ele>
<speed>0.94</speed>
<course>114.5</course>
<desc>Speed 3.4 km/h Distance 7.51 km</desc>
<time>2010-10-24T11:49:29.65</time>
<name>4674</name>
</trkpt>
<trkpt lat="48.928750" lon="8.657845">
<ele>351.5</ele>
<speed>0.81</speed>
<course>97.2</course>
<desc>Speed 2.9 km/h Distance 7.51 km</desc>
<time>2010-10-24T11:49:30.64</time>
<name>4675</name>
</trkpt>
<trkpt lat="48.928748" lon="8.657865">
<ele>352.0</ele>
<speed>0.81</speed>
<course>126.6</course>
<desc>Speed 2.9 km/h Distance 7.51 km</desc>
<time>2010-10-24T11:49:31.64</time>
<name>4676</name>
</trkpt>
<trkpt lat="48.928713" lon="8.657937">
<ele>358.0</ele>
<speed>1.15</speed>
<course>116.9</course>
<desc>Speed 4.1 km/h Distance 7.52 km</desc>
<time>2010-10-24T11:49:33.63</time>
<name>4677</name>
</trkpt>
<trkpt lat="48.928705" lon="8.657962">
<ele>358.5</ele>
<speed>0.87</speed>
<course>95.4</course>
<desc>Speed 3.1 km/h Distance 7.52 km</desc>
<time>2010-10-24T11:49:34.68</time>
<name>4678</name>
</trkpt>
<trkpt lat="48.928703" lon="8.657988">
<ele>359.5</ele>
<speed>0.69</speed>
<course>102.9</course>
<desc>Speed 2.5 km/h Distance 7.52 km</desc>
<time>2010-10-24T11:49:35.63</time>
<name>4679</name>
</trkpt>
<trkpt lat="48.928698" lon="8.658022">
<ele>361.5</ele>
<speed>0.91</speed>
<course>118.0</course>
<desc>Speed 3.3 km/h Distance 7.53 km</desc>
<time>2010-10-24T11:49:36.62</time>
<name>4680</name>
</trkpt>
<trkpt lat="48.928687" lon="8.658055">
<ele>363.0</ele>
<speed>1.04</speed>
<course>151.4</course>
<desc>Speed 3.7 km/h Distance 7.53 km</desc>
<time>2010-10-24T11:49:37.62</time>
<name>4681</name>
</trkpt>
<trkpt lat="48.928677" lon="8.658063">
<ele>362.0</ele>
<speed>0.66</speed>
<course>114.5</course>
<desc>Speed 2.4 km/h Distance 7.53 km</desc>
<time>2010-10-24T11:49:38.61</time>
<name>4682</name>
</trkpt>
<trkpt lat="48.928672" lon="8.658080">
<ele>362.0</ele>
<speed>0.85</speed>
<course>110.8</course>
<desc>Speed 3.1 km/h Distance 7.53 km</desc>
<time>2010-10-24T11:49:39.61</time>
<name>4683</name>
</trkpt>
<trkpt lat="48.928667" lon="8.658100">
<ele>362.0</ele>
<speed>0.88</speed>
<course>160.3</course>
<desc>Speed 3.2 km/h Distance 7.53 km</desc>
<time>2010-10-24T11:49:40.61</time>
<name>4684</name>
</trkpt>
<trkpt lat="48.928648" lon="8.658110">
<ele>361.5</ele>
<speed>1.05</speed>
<course>146.7</course>
<desc>Speed 3.8 km/h Distance 7.54 km</desc>
<time>2010-10-24T11:49:41.60</time>
<name>4685</name>
</trkpt>
<trkpt lat="48.928632" lon="8.658127">
<ele>363.0</ele>
<speed>1.08</speed>
<course>122.1</course>
<desc>Speed 3.9 km/h Distance 7.54 km</desc>
<time>2010-10-24T11:49:42.60</time>
<name>4686</name>
</trkpt>
<trkpt lat="48.928620" lon="8.658155">
<ele>363.5</ele>
<speed>0.81</speed>
<course>122.6</course>
<desc>Speed 2.9 km/h Distance 7.54 km</desc>
<time>2010-10-24T11:49:43.59</time>
<name>4687</name>
</trkpt>
<trkpt lat="48.928607" lon="8.658187">
<ele>365.0</ele>
<speed>0.57</speed>
<course>125.9</course>
<desc>Speed 2.1 km/h Distance 7.54 km</desc>
<time>2010-10-24T11:49:44.59</time>
<name>4688</name>
</trkpt>
<trkpt lat="48.928573" lon="8.658257">
<ele>369.0</ele>
<speed>2.28</speed>
<course>73.1</course>
<desc>Speed 8.2 km/h Distance 7.55 km</desc>
<time>2010-10-24T11:49:46.59</time>
<name>4689</name>
</trkpt>
<trkpt lat="48.928578" lon="8.658282">
<ele>370.0</ele>
<speed>1.00</speed>
<course>168.2</course>
<desc>Speed 3.6 km/h Distance 7.55 km</desc>
<time>2010-10-24T11:49:47.59</time>
<name>4690</name>
</trkpt>
<trkpt lat="48.928557" lon="8.658288">
<ele>370.0</ele>
<speed>0.87</speed>
<course>171.6</course>
<desc>Speed 3.1 km/h Distance 7.55 km</desc>
<time>2010-10-24T11:49:48.58</time>
<name>4691</name>
</trkpt>
<trkpt lat="48.928535" lon="8.658293">
<ele>370.5</ele>
<speed>0.93</speed>
<course>139.8</course>
<desc>Speed 3.3 km/h Distance 7.56 km</desc>
<time>2010-10-24T11:49:49.58</time>
<name>4692</name>
</trkpt>
<trkpt lat="48.928523" lon="8.658308">
<ele>370.0</ele>
<speed>1.27</speed>
<course>150.2</course>
<desc>Speed 4.6 km/h Distance 7.56 km</desc>
<time>2010-10-24T11:49:50.58</time>
<name>4693</name>
</trkpt>
<trkpt lat="48.928510" lon="8.658320">
<ele>369.5</ele>
<speed>1.12</speed>
<course>63.4</course>
<desc>Speed 4.0 km/h Distance 7.56 km</desc>
<time>2010-10-24T11:49:51.58</time>
<name>4694</name>
</trkpt>
<trkpt lat="48.928512" lon="8.658325">
<ele>370.0</ele>
<speed>0.37</speed>
<course>116.9</course>
<desc>Speed 1.3 km/h Distance 7.56 km</desc>
<time>2010-10-24T11:49:52.57</time>
<name>4695</name>
</trkpt>
<trkpt lat="48.928503" lon="8.658350">
<ele>370.5</ele>
<speed>1.75</speed>
<course>103.2</course>
<desc>Speed 6.3 km/h Distance 7.56 km</desc>
<time>2010-10-24T11:49:53.57</time>
<name>4696</name>
</trkpt>
<trkpt lat="48.928500" lon="8.658372">
<ele>370.5</ele>
<speed>0.94</speed>
<course>122.1</course>
<desc>Speed 3.4 km/h Distance 7.56 km</desc>
<time>2010-10-24T11:49:54.56</time>
<name>4697</name>
</trkpt>
<trkpt lat="48.928488" lon="8.658400">
<ele>371.5</ele>
<speed>2.23</speed>
<course>141.2</course>
<desc>Speed 8.0 km/h Distance 7.57 km</desc>
<time>2010-10-24T11:49:55.56</time>
<name>4698</name>
</trkpt>
<trkpt lat="48.928473" lon="8.658418">
<ele>371.5</ele>
<speed>1.62</speed>
<course>136.8</course>
<desc>Speed 5.8 km/h Distance 7.57 km</desc>
<time>2010-10-24T11:49:56.55</time>
<name>4699</name>
</trkpt>
<trkpt lat="48.928462" lon="8.658435">
<ele>372.5</ele>
<speed>1.47</speed>
<course>155.3</course>
<desc>Speed 5.3 km/h Distance 7.57 km</desc>
<time>2010-10-24T11:49:57.55</time>
<name>4700</name>
</trkpt>
<trkpt lat="48.928445" lon="8.658447">
<ele>371.5</ele>
<speed>1.02</speed>
<course>153.9</course>
<desc>Speed 3.7 km/h Distance 7.57 km</desc>
<time>2010-10-24T11:49:58.54</time>
<name>4701</name>
</trkpt>
<trkpt lat="48.928425" lon="8.658462">
<ele>371.0</ele>
<speed>1.10</speed>
<course>137.4</course>
<desc>Speed 4.0 km/h Distance 7.57 km</desc>
<time>2010-10-24T11:49:59.53</time>
<name>4702</name>
</trkpt>
<trkpt lat="48.928417" lon="8.658473">
<ele>371.5</ele>
<speed>0.87</speed>
<course>116.9</course>
<desc>Speed 3.1 km/h Distance 7.58 km</desc>
<time>2010-10-24T11:50:00.53</time>
<name>4703</name>
</trkpt>
<trkpt lat="48.928412" lon="8.658488">
<ele>372.0</ele>
<speed>0.99</speed>
<course>156.3</course>
<desc>Speed 3.6 km/h Distance 7.58 km</desc>
<time>2010-10-24T11:50:01.53</time>
<name>4704</name>
</trkpt>
<trkpt lat="48.928397" lon="8.658498">
<ele>371.0</ele>
<speed>1.28</speed>
<course>125.4</course>
<desc>Speed 4.6 km/h Distance 7.58 km</desc>
<time>2010-10-24T11:50:02.52</time>
<name>4705</name>
</trkpt>
<trkpt lat="48.928385" lon="8.658523">
<ele>372.5</ele>
<speed>1.11</speed>
<course>100.8</course>
<desc>Speed 4.0 km/h Distance 7.58 km</desc>
<time>2010-10-24T11:50:03.52</time>
<name>4706</name>
</trkpt>
<trkpt lat="48.928382" lon="8.658550">
<ele>374.5</ele>
<speed>0.34</speed>
<course>116.9</course>
<desc>Speed 1.2 km/h Distance 7.58 km</desc>
<time>2010-10-24T11:50:04.52</time>
<name>4707</name>
</trkpt>
<trkpt lat="48.928355" lon="8.658630">
<ele>380.5</ele>
<speed>1.50</speed>
<course>130.0</course>
<desc>Speed 5.4 km/h Distance 7.59 km</desc>
<time>2010-10-24T11:50:06.51</time>
<name>4708</name>
</trkpt>
<trkpt lat="48.928337" lon="8.658663">
<ele>382.5</ele>
<speed>1.12</speed>
<course>130.2</course>
<desc>Speed 4.0 km/h Distance 7.59 km</desc>
<time>2010-10-24T11:50:07.51</time>
<name>4709</name>
</trkpt>
<trkpt lat="48.928303" lon="8.658723">
<ele>386.0</ele>
<speed>1.10</speed>
<course>137.5</course>
<desc>Speed 4.0 km/h Distance 7.60 km</desc>
<time>2010-10-24T11:50:09.50</time>
<name>4710</name>
</trkpt>
<trkpt lat="48.928295" lon="8.658735">
<ele>386.0</ele>
<speed>1.01</speed>
<course>146.8</course>
<desc>Speed 3.6 km/h Distance 7.60 km</desc>
<time>2010-10-24T11:50:10.49</time>
<name>4711</name>
</trkpt>
<trkpt lat="48.928285" lon="8.658745">
<ele>385.0</ele>
<speed>1.11</speed>
<course>155.8</course>
<desc>Speed 4.0 km/h Distance 7.60 km</desc>
<time>2010-10-24T11:50:11.49</time>
<name>4712</name>
</trkpt>
<trkpt lat="48.928275" lon="8.658752">
<ele>384.5</ele>
<speed>0.70</speed>
<course>124.0</course>
<desc>Speed 2.5 km/h Distance 7.60 km</desc>
<time>2010-10-24T11:50:12.48</time>
<name>4713</name>
</trkpt>
<trkpt lat="48.928268" lon="8.658767">
<ele>384.0</ele>
<speed>0.92</speed>
<course>129.7</course>
<desc>Speed 3.3 km/h Distance 7.60 km</desc>
<time>2010-10-24T11:50:13.48</time>
<name>4714</name>
</trkpt>
<trkpt lat="48.928258" lon="8.658785">
<ele>383.5</ele>
<speed>1.10</speed>
<course>131.6</course>
<desc>Speed 4.0 km/h Distance 7.60 km</desc>
<time>2010-10-24T11:50:14.47</time>
<name>4715</name>
</trkpt>
<trkpt lat="48.928247" lon="8.658805">
<ele>384.0</ele>
<speed>1.07</speed>
<course>38.3</course>
<desc>Speed 3.9 km/h Distance 7.61 km</desc>
<time>2010-10-24T11:50:15.47</time>
<name>4716</name>
</trkpt>
<trkpt lat="48.928263" lon="8.658825">
<ele>383.5</ele>
<speed>2.76</speed>
<course>119.7</course>
<desc>Speed 9.9 km/h Distance 7.61 km</desc>
<time>2010-10-24T11:50:16.47</time>
<name>4717</name>
</trkpt>
<trkpt lat="48.928258" lon="8.658838">
<ele>383.0</ele>
<speed>0.93</speed>
<course>143.1</course>
<desc>Speed 3.3 km/h Distance 7.61 km</desc>
<time>2010-10-24T11:50:17.46</time>
<name>4718</name>
</trkpt>
<trkpt lat="48.928247" lon="8.658852">
<ele>382.5</ele>
<speed>1.17</speed>
<course>129.4</course>
<desc>Speed 4.2 km/h Distance 7.61 km</desc>
<time>2010-10-24T11:50:18.45</time>
<name>4719</name>
</trkpt>
<trkpt lat="48.928235" lon="8.658873">
<ele>382.0</ele>
<speed>1.05</speed>
<course>141.7</course>
<desc>Speed 3.8 km/h Distance 7.61 km</desc>
<time>2010-10-24T11:50:19.45</time>
<name>4720</name>
</trkpt>
<trkpt lat="48.928218" lon="8.658893">
<ele>382.0</ele>
<speed>1.14</speed>
<course>163.4</course>
<desc>Speed 4.1 km/h Distance 7.62 km</desc>
<time>2010-10-24T11:50:20.44</time>
<name>4721</name>
</trkpt>
<trkpt lat="48.928200" lon="8.658902">
<ele>381.0</ele>
<speed>1.12</speed>
<course>123.9</course>
<desc>Speed 4.0 km/h Distance 7.62 km</desc>
<time>2010-10-24T11:50:21.43</time>
<name>4722</name>
</trkpt>
<trkpt lat="48.928193" lon="8.658917">
<ele>381.5</ele>
<speed>0.93</speed>
<course>114.5</course>
<desc>Speed 3.3 km/h Distance 7.62 km</desc>
<time>2010-10-24T11:50:22.42</time>
<name>4723</name>
</trkpt>
<trkpt lat="48.928188" lon="8.658933">
<ele>382.5</ele>
<speed>0.76</speed>
<course>158.5</course>
<desc>Speed 2.7 km/h Distance 7.62 km</desc>
<time>2010-10-24T11:50:23.42</time>
<name>4724</name>
</trkpt>
<trkpt lat="48.928172" lon="8.658943">
<ele>383.0</ele>
<speed>0.89</speed>
<course>116.9</course>
<desc>Speed 3.2 km/h Distance 7.62 km</desc>
<time>2010-10-24T11:50:24.41</time>
<name>4725</name>
</trkpt>
<trkpt lat="48.928167" lon="8.658958">
<ele>384.0</ele>
<speed>0.99</speed>
<course>124.1</course>
<desc>Speed 3.6 km/h Distance 7.62 km</desc>
<time>2010-10-24T11:50:25.40</time>
<name>4726</name>
</trkpt>
<trkpt lat="48.928160" lon="8.658973">
<ele>384.5</ele>
<speed>0.99</speed>
<course>166.4</course>
<desc>Speed 3.6 km/h Distance 7.63 km</desc>
<time>2010-10-24T11:50:26.39</time>
<name>4727</name>
</trkpt>
<trkpt lat="48.928142" lon="8.658980">
<ele>383.5</ele>
<speed>1.04</speed>
<course>109.4</course>
<desc>Speed 3.7 km/h Distance 7.63 km</desc>
<time>2010-10-24T11:50:27.39</time>
<name>4728</name>
</trkpt>
<trkpt lat="48.928137" lon="8.659002">
<ele>384.5</ele>
<speed>0.91</speed>
<course>133.5</course>
<desc>Speed 3.3 km/h Distance 7.63 km</desc>
<time>2010-10-24T11:50:28.39</time>
<name>4729</name>
</trkpt>
<trkpt lat="48.928128" lon="8.659015">
<ele>384.0</ele>
<speed>0.99</speed>
<course>146.9</course>
<desc>Speed 3.6 km/h Distance 7.63 km</desc>
<time>2010-10-24T11:50:29.39</time>
<name>4730</name>
</trkpt>
<trkpt lat="48.928117" lon="8.659027">
<ele>384.0</ele>
<speed>1.01</speed>
<course>176.3</course>
<desc>Speed 3.6 km/h Distance 7.63 km</desc>
<time>2010-10-24T11:50:30.38</time>
<name>4731</name>
</trkpt>
<trkpt lat="48.928098" lon="8.659028">
<ele>382.5</ele>
<speed>0.62</speed>
<course>156.3</course>
<desc>Speed 2.2 km/h Distance 7.63 km</desc>
<time>2010-10-24T11:50:31.37</time>
<name>4732</name>
</trkpt>
<trkpt lat="48.928083" lon="8.659038">
<ele>383.0</ele>
<speed>0.98</speed>
<course>136.9</course>
<desc>Speed 3.5 km/h Distance 7.64 km</desc>
<time>2010-10-24T11:50:32.36</time>
<name>4733</name>
</trkpt>
<trkpt lat="48.928072" lon="8.659055">
<ele>383.0</ele>
<speed>0.97</speed>
<course>134.1</course>
<desc>Speed 3.5 km/h Distance 7.64 km</desc>
<time>2010-10-24T11:50:33.36</time>
<name>4734</name>
</trkpt>
<trkpt lat="48.928060" lon="8.659073">
<ele>383.0</ele>
<speed>0.75</speed>
<course>157.7</course>
<desc>Speed 2.7 km/h Distance 7.64 km</desc>
<time>2010-10-24T11:50:34.35</time>
<name>4735</name>
</trkpt>
<trkpt lat="48.928047" lon="8.659082">
<ele>382.0</ele>
<speed>0.94</speed>
<course>139.8</course>
<desc>Speed 3.4 km/h Distance 7.64 km</desc>
<time>2010-10-24T11:50:35.35</time>
<name>4736</name>
</trkpt>
<trkpt lat="48.928035" lon="8.659097">
<ele>382.0</ele>
<speed>0.97</speed>
<course>124.6</course>
<desc>Speed 3.5 km/h Distance 7.64 km</desc>
<time>2010-10-24T11:50:36.37</time>
<name>4737</name>
</trkpt>
<trkpt lat="48.928027" lon="8.659115">
<ele>382.5</ele>
<speed>0.75</speed>
<course>131.1</course>
<desc>Speed 2.7 km/h Distance 7.64 km</desc>
<time>2010-10-24T11:50:37.34</time>
<name>4738</name>
</trkpt>
<trkpt lat="48.928020" lon="8.659127">
<ele>382.5</ele>
<speed>0.74</speed>
<course>172.5</course>
<desc>Speed 2.7 km/h Distance 7.65 km</desc>
<time>2010-10-24T11:50:38.33</time>
<name>4739</name>
</trkpt>
<trkpt lat="48.927997" lon="8.659132">
<ele>381.0</ele>
<speed>1.35</speed>
<course>167.8</course>
<desc>Speed 4.9 km/h Distance 7.65 km</desc>
<time>2010-10-24T11:50:39.33</time>
<name>4740</name>
</trkpt>
<trkpt lat="48.927982" lon="8.659137">
<ele>380.5</ele>
<speed>1.16</speed>
<course>163.4</course>
<desc>Speed 4.2 km/h Distance 7.65 km</desc>
<time>2010-10-24T11:50:40.32</time>
<name>4741</name>
</trkpt>
<trkpt lat="48.927967" lon="8.659143">
<ele>380.0</ele>
<speed>0.93</speed>
<course>163.4</course>
<desc>Speed 3.3 km/h Distance 7.65 km</desc>
<time>2010-10-24T11:50:41.32</time>
<name>4742</name>
</trkpt>
<trkpt lat="48.927948" lon="8.659152">
<ele>380.0</ele>
<speed>1.00</speed>
<course>164.8</course>
<desc>Speed 3.6 km/h Distance 7.65 km</desc>
<time>2010-10-24T11:50:42.31</time>
<name>4743</name>
</trkpt>
<trkpt lat="48.927928" lon="8.659160">
<ele>379.5</ele>
<speed>0.79</speed>
<course>138.8</course>
<desc>Speed 2.8 km/h Distance 7.66 km</desc>
<time>2010-10-24T11:50:43.30</time>
<name>4744</name>
</trkpt>
<trkpt lat="48.927918" lon="8.659173">
<ele>379.5</ele>
<speed>0.87</speed>
<course>154.8</course>
<desc>Speed 3.1 km/h Distance 7.66 km</desc>
<time>2010-10-24T11:50:44.29</time>
<name>4745</name>
</trkpt>
<trkpt lat="48.927907" lon="8.659182">
<ele>379.0</ele>
<speed>0.89</speed>
<course>131.6</course>
<desc>Speed 3.2 km/h Distance 7.66 km</desc>
<time>2010-10-24T11:50:45.29</time>
<name>4746</name>
</trkpt>
<trkpt lat="48.927895" lon="8.659202">
<ele>379.5</ele>
<speed>1.02</speed>
<course>146.6</course>
<desc>Speed 3.7 km/h Distance 7.66 km</desc>
<time>2010-10-24T11:50:46.29</time>
<name>4747</name>
</trkpt>
<trkpt lat="48.927885" lon="8.659212">
<ele>378.5</ele>
<speed>0.81</speed>
<course>121.3</course>
<desc>Speed 2.9 km/h Distance 7.66 km</desc>
<time>2010-10-24T11:50:47.28</time>
<name>4748</name>
</trkpt>
<trkpt lat="48.927878" lon="8.659228">
<ele>379.0</ele>
<speed>0.82</speed>
<course>122.4</course>
<desc>Speed 3.0 km/h Distance 7.66 km</desc>
<time>2010-10-24T11:50:48.28</time>
<name>4749</name>
</trkpt>
<trkpt lat="48.927870" lon="8.659248">
<ele>379.0</ele>
<speed>0.82</speed>
<course>149.4</course>
<desc>Speed 3.0 km/h Distance 7.67 km</desc>
<time>2010-10-24T11:50:49.28</time>
<name>4750</name>
</trkpt>
<trkpt lat="48.927853" lon="8.659263">
<ele>380.5</ele>
<speed>1.80</speed>
<course>143.9</course>
<desc>Speed 6.5 km/h Distance 7.67 km</desc>
<time>2010-10-24T11:50:50.27</time>
<name>4751</name>
</trkpt>
<trkpt lat="48.927838" lon="8.659280">
<ele>380.5</ele>
<speed>1.15</speed>
<course>131.6</course>
<desc>Speed 4.1 km/h Distance 7.67 km</desc>
<time>2010-10-24T11:50:51.27</time>
<name>4752</name>
</trkpt>
<trkpt lat="48.927827" lon="8.659300">
<ele>381.0</ele>
<speed>0.92</speed>
<course>121.3</course>
<desc>Speed 3.3 km/h Distance 7.67 km</desc>
<time>2010-10-24T11:50:52.26</time>
<name>4753</name>
</trkpt>
<trkpt lat="48.927817" lon="8.659325">
<ele>382.5</ele>
<speed>0.93</speed>
<course>118.1</course>
<desc>Speed 3.3 km/h Distance 7.67 km</desc>
<time>2010-10-24T11:50:53.26</time>
<name>4754</name>
</trkpt>
<trkpt lat="48.927805" lon="8.659358">
<ele>384.0</ele>
<speed>1.26</speed>
<course>135.4</course>
<desc>Speed 4.5 km/h Distance 7.68 km</desc>
<time>2010-10-24T11:50:54.26</time>
<name>4755</name>
</trkpt>
<trkpt lat="48.927788" lon="8.659383">
<ele>384.5</ele>
<speed>0.92</speed>
<course>130.9</course>
<desc>Speed 3.3 km/h Distance 7.68 km</desc>
<time>2010-10-24T11:50:55.26</time>
<name>4756</name>
</trkpt>
<trkpt lat="48.927782" lon="8.659395">
<ele>384.5</ele>
<speed>1.00</speed>
<course>154.0</course>
<desc>Speed 3.6 km/h Distance 7.68 km</desc>
<time>2010-10-24T11:50:56.25</time>
<name>4757</name>
</trkpt>
<trkpt lat="48.927768" lon="8.659405">
<ele>384.0</ele>
<speed>1.04</speed>
<course>154.0</course>
<desc>Speed 3.7 km/h Distance 7.68 km</desc>
<time>2010-10-24T11:50:57.25</time>
<name>4758</name>
</trkpt>
<trkpt lat="48.927755" lon="8.659415">
<ele>382.5</ele>
<speed>1.23</speed>
<course>146.6</course>
<desc>Speed 4.4 km/h Distance 7.68 km</desc>
<time>2010-10-24T11:50:58.25</time>
<name>4759</name>
</trkpt>
<trkpt lat="48.927743" lon="8.659427">
<ele>382.5</ele>
<speed>1.22</speed>
<course>162.9</course>
<desc>Speed 4.4 km/h Distance 7.69 km</desc>
<time>2010-10-24T11:50:59.25</time>
<name>4760</name>
</trkpt>
<trkpt lat="48.927690" lon="8.659452">
<ele>383.0</ele>
<speed>2.08</speed>
<course>133.6</course>
<desc>Speed 7.5 km/h Distance 7.69 km</desc>
<time>2010-10-24T11:51:01.24</time>
<name>4761</name>
</trkpt>
<trkpt lat="48.927682" lon="8.659465">
<ele>382.5</ele>
<speed>0.82</speed>
<course>97.9</course>
<desc>Speed 3.0 km/h Distance 7.69 km</desc>
<time>2010-10-24T11:51:02.24</time>
<name>4762</name>
</trkpt>
<trkpt lat="48.927680" lon="8.659483">
<ele>382.5</ele>
<speed>0.66</speed>
<course>146.6</course>
<desc>Speed 2.4 km/h Distance 7.69 km</desc>
<time>2010-10-24T11:51:03.24</time>
<name>4763</name>
</trkpt>
<trkpt lat="48.927667" lon="8.659497">
<ele>382.0</ele>
<speed>1.14</speed>
<course>154.8</course>
<desc>Speed 4.1 km/h Distance 7.70 km</desc>
<time>2010-10-24T11:51:04.23</time>
<name>4764</name>
</trkpt>
<trkpt lat="48.927655" lon="8.659505">
<ele>381.0</ele>
<speed>0.83</speed>
<course>157.7</course>
<desc>Speed 3.0 km/h Distance 7.70 km</desc>
<time>2010-10-24T11:51:05.23</time>
<name>4765</name>
</trkpt>
<trkpt lat="48.927642" lon="8.659513">
<ele>380.0</ele>
<speed>1.04</speed>
<course>150.6</course>
<desc>Speed 3.7 km/h Distance 7.70 km</desc>
<time>2010-10-24T11:51:06.22</time>
<name>4766</name>
</trkpt>
<trkpt lat="48.927630" lon="8.659523">
<ele>379.5</ele>
<speed>1.07</speed>
<course>127.3</course>
<desc>Speed 3.9 km/h Distance 7.70 km</desc>
<time>2010-10-24T11:51:07.22</time>
<name>4767</name>
</trkpt>
<trkpt lat="48.927623" lon="8.659537">
<ele>380.0</ele>
<speed>0.94</speed>
<course>78.5</course>
<desc>Speed 3.4 km/h Distance 7.70 km</desc>
<time>2010-10-24T11:51:08.21</time>
<name>4768</name>
</trkpt>
<trkpt lat="48.927627" lon="8.659562">
<ele>380.5</ele>
<speed>1.37</speed>
<course>137.5</course>
<desc>Speed 4.9 km/h Distance 7.70 km</desc>
<time>2010-10-24T11:51:09.21</time>
<name>4769</name>
</trkpt>
<trkpt lat="48.927618" lon="8.659573">
<ele>379.5</ele>
<speed>0.82</speed>
<course>82.1</course>
<desc>Speed 3.0 km/h Distance 7.71 km</desc>
<time>2010-10-24T11:51:10.21</time>
<name>4770</name>
</trkpt>
<trkpt lat="48.927620" lon="8.659592">
<ele>380.5</ele>
<speed>0.93</speed>
<course>121.4</course>
<desc>Speed 3.3 km/h Distance 7.71 km</desc>
<time>2010-10-24T11:51:11.21</time>
<name>4771</name>
</trkpt>
<trkpt lat="48.927617" lon="8.659600">
<ele>380.0</ele>
<speed>0.56</speed>
<course>142.5</course>
<desc>Speed 2.0 km/h Distance 7.71 km</desc>
<time>2010-10-24T11:51:12.20</time>
<name>4772</name>
</trkpt>
<trkpt lat="48.927607" lon="8.659612">
<ele>379.5</ele>
<speed>0.88</speed>
<course>156.2</course>
<desc>Speed 3.2 km/h Distance 7.71 km</desc>
<time>2010-10-24T11:51:13.20</time>
<name>4773</name>
</trkpt>
<trkpt lat="48.927597" lon="8.659618">
<ele>379.0</ele>
<speed>1.05</speed>
<course>110.9</course>
<desc>Speed 3.8 km/h Distance 7.71 km</desc>
<time>2010-10-24T11:51:14.20</time>
<name>4774</name>
</trkpt>
<trkpt lat="48.927593" lon="8.659632">
<ele>379.0</ele>
<speed>0.74</speed>
<course>142.5</course>
<desc>Speed 2.7 km/h Distance 7.71 km</desc>
<time>2010-10-24T11:51:15.19</time>
<name>4775</name>
</trkpt>
<trkpt lat="48.927583" lon="8.659643">
<ele>378.0</ele>
<speed>0.95</speed>
<course>163.7</course>
<desc>Speed 3.4 km/h Distance 7.71 km</desc>
<time>2010-10-24T11:51:16.19</time>
<name>4776</name>
</trkpt>
<trkpt lat="48.927568" lon="8.659650">
<ele>378.0</ele>
<speed>1.12</speed>
<course>133.5</course>
<desc>Speed 4.0 km/h Distance 7.71 km</desc>
<time>2010-10-24T11:51:17.19</time>
<name>4777</name>
</trkpt>
<trkpt lat="48.927560" lon="8.659663">
<ele>378.0</ele>
<speed>0.89</speed>
<course>136.7</course>
<desc>Speed 3.2 km/h Distance 7.72 km</desc>
<time>2010-10-24T11:51:18.18</time>
<name>4778</name>
</trkpt>
<trkpt lat="48.927548" lon="8.659680">
<ele>379.0</ele>
<speed>1.02</speed>
<course>157.3</course>
<desc>Speed 3.7 km/h Distance 7.72 km</desc>
<time>2010-10-24T11:51:19.18</time>
<name>4779</name>
</trkpt>
<trkpt lat="48.927530" lon="8.659692">
<ele>379.5</ele>
<speed>0.99</speed>
<course>127.3</course>
<desc>Speed 3.6 km/h Distance 7.72 km</desc>
<time>2010-10-24T11:51:20.18</time>
<name>4780</name>
</trkpt>
<trkpt lat="48.927523" lon="8.659705">
<ele>378.5</ele>
<speed>0.77</speed>
<course>143.5</course>
<desc>Speed 2.8 km/h Distance 7.72 km</desc>
<time>2010-10-24T11:51:21.18</time>
<name>4781</name>
</trkpt>
<trkpt lat="48.927510" lon="8.659720">
<ele>378.5</ele>
<speed>0.95</speed>
<course>140.6</course>
<desc>Speed 3.4 km/h Distance 7.72 km</desc>
<time>2010-10-24T11:51:22.17</time>
<name>4782</name>
</trkpt>
<trkpt lat="48.927497" lon="8.659737">
<ele>378.0</ele>
<speed>0.93</speed>
<course>122.4</course>
<desc>Speed 3.3 km/h Distance 7.72 km</desc>
<time>2010-10-24T11:51:23.17</time>
<name>4783</name>
</trkpt>
<trkpt lat="48.927488" lon="8.659757">
<ele>378.5</ele>
<speed>0.87</speed>
<course>127.3</course>
<desc>Speed 3.1 km/h Distance 7.73 km</desc>
<time>2010-10-24T11:51:24.16</time>
<name>4784</name>
</trkpt>
<trkpt lat="48.927482" lon="8.659770">
<ele>379.0</ele>
<speed>1.00</speed>
<course>143.1</course>
<desc>Speed 3.6 km/h Distance 7.73 km</desc>
<time>2010-10-24T11:51:25.16</time>
<name>4785</name>
</trkpt>
<trkpt lat="48.927470" lon="8.659783">
<ele>379.0</ele>
<speed>1.03</speed>
<course>155.3</course>
<desc>Speed 3.7 km/h Distance 7.73 km</desc>
<time>2010-10-24T11:51:26.16</time>
<name>4786</name>
</trkpt>
<trkpt lat="48.927453" lon="8.659795">
<ele>378.5</ele>
<speed>1.20</speed>
<course>149.7</course>
<desc>Speed 4.3 km/h Distance 7.73 km</desc>
<time>2010-10-24T11:51:27.19</time>
<name>4787</name>
</trkpt>
<trkpt lat="48.927438" lon="8.659808">
<ele>379.5</ele>
<speed>0.99</speed>
<course>157.4</course>
<desc>Speed 3.6 km/h Distance 7.73 km</desc>
<time>2010-10-24T11:51:28.15</time>
<name>4788</name>
</trkpt>
<trkpt lat="48.927420" lon="8.659820">
<ele>379.0</ele>
<speed>0.93</speed>
<course>123.7</course>
<desc>Speed 3.3 km/h Distance 7.74 km</desc>
<time>2010-10-24T11:51:29.15</time>
<name>4789</name>
</trkpt>
<trkpt lat="48.927408" lon="8.659847">
<ele>380.5</ele>
<speed>0.83</speed>
<course>122.1</course>
<desc>Speed 3.0 km/h Distance 7.74 km</desc>
<time>2010-10-24T11:51:30.17</time>
<name>4790</name>
</trkpt>
<trkpt lat="48.927397" lon="8.659875">
<ele>382.5</ele>
<speed>0.95</speed>
<course>105.4</course>
<desc>Speed 3.4 km/h Distance 7.74 km</desc>
<time>2010-10-24T11:51:31.14</time>
<name>4791</name>
</trkpt>
<trkpt lat="48.927393" lon="8.659893">
<ele>383.5</ele>
<speed>1.00</speed>
<course>125.1</course>
<desc>Speed 3.6 km/h Distance 7.74 km</desc>
<time>2010-10-24T11:51:32.14</time>
<name>4792</name>
</trkpt>
<trkpt lat="48.927383" lon="8.659915">
<ele>384.0</ele>
<speed>1.35</speed>
<course>154.5</course>
<desc>Speed 4.9 km/h Distance 7.74 km</desc>
<time>2010-10-24T11:51:33.13</time>
<name>4793</name>
</trkpt>
<trkpt lat="48.927365" lon="8.659928">
<ele>384.0</ele>
<speed>1.50</speed>
<course>146.7</course>
<desc>Speed 5.4 km/h Distance 7.75 km</desc>
<time>2010-10-24T11:51:34.13</time>
<name>4794</name>
</trkpt>
<trkpt lat="48.927350" lon="8.659943">
<ele>384.5</ele>
<speed>1.33</speed>
<course>132.4</course>
<desc>Speed 4.8 km/h Distance 7.75 km</desc>
<time>2010-10-24T11:51:35.12</time>
<name>4795</name>
</trkpt>
<trkpt lat="48.927340" lon="8.659960">
<ele>385.5</ele>
<speed>1.05</speed>
<course>133.5</course>
<desc>Speed 3.8 km/h Distance 7.75 km</desc>
<time>2010-10-24T11:51:36.11</time>
<name>4796</name>
</trkpt>
<trkpt lat="48.927332" lon="8.659973">
<ele>385.0</ele>
<speed>0.87</speed>
<course>127.3</course>
<desc>Speed 3.1 km/h Distance 7.75 km</desc>
<time>2010-10-24T11:51:37.11</time>
<name>4797</name>
</trkpt>
<trkpt lat="48.927322" lon="8.659993">
<ele>385.0</ele>
<speed>1.10</speed>
<course>98.6</course>
<desc>Speed 4.0 km/h Distance 7.75 km</desc>
<time>2010-10-24T11:51:38.11</time>
<name>4798</name>
</trkpt>
<trkpt lat="48.927320" lon="8.660010">
<ele>386.0</ele>
<speed>1.13</speed>
<course>130.2</course>
<desc>Speed 4.1 km/h Distance 7.75 km</desc>
<time>2010-10-24T11:51:39.11</time>
<name>4799</name>
</trkpt>
<trkpt lat="48.927312" lon="8.660025">
<ele>385.5</ele>
<speed>1.17</speed>
<course>124.7</course>
<desc>Speed 4.2 km/h Distance 7.75 km</desc>
<time>2010-10-24T11:51:40.10</time>
<name>4800</name>
</trkpt>
<trkpt lat="48.927303" lon="8.660043">
<ele>386.0</ele>
<speed>1.16</speed>
<course>120.4</course>
<desc>Speed 4.2 km/h Distance 7.76 km</desc>
<time>2010-10-24T11:51:41.10</time>
<name>4801</name>
</trkpt>
<trkpt lat="48.927295" lon="8.660065">
<ele>386.5</ele>
<speed>1.04</speed>
<course>146.9</course>
<desc>Speed 3.7 km/h Distance 7.76 km</desc>
<time>2010-10-24T11:51:42.10</time>
<name>4802</name>
</trkpt>
<trkpt lat="48.927283" lon="8.660077">
<ele>386.0</ele>
<speed>1.22</speed>
<course>130.3</course>
<desc>Speed 4.4 km/h Distance 7.76 km</desc>
<time>2010-10-24T11:51:43.10</time>
<name>4803</name>
</trkpt>
<trkpt lat="48.927275" lon="8.660092">
<ele>385.5</ele>
<speed>1.22</speed>
<course>139.1</course>
<desc>Speed 4.4 km/h Distance 7.76 km</desc>
<time>2010-10-24T11:51:44.12</time>
<name>4804</name>
</trkpt>
<trkpt lat="48.927238" lon="8.660140">
<ele>386.5</ele>
<speed>1.26</speed>
<course>142.5</course>
<desc>Speed 4.5 km/h Distance 7.77 km</desc>
<time>2010-10-24T11:51:46.09</time>
<name>4805</name>
</trkpt>
<trkpt lat="48.927228" lon="8.660152">
<ele>386.0</ele>
<speed>1.16</speed>
<course>127.3</course>
<desc>Speed 4.2 km/h Distance 7.77 km</desc>
<time>2010-10-24T11:51:47.08</time>
<name>4806</name>
</trkpt>
<trkpt lat="48.927220" lon="8.660168">
<ele>386.0</ele>
<speed>1.29</speed>
<course>122.4</course>
<desc>Speed 4.6 km/h Distance 7.77 km</desc>
<time>2010-10-24T11:51:48.07</time>
<name>4807</name>
</trkpt>
<trkpt lat="48.927212" lon="8.660188">
<ele>386.5</ele>
<speed>0.92</speed>
<course>121.3</course>
<desc>Speed 3.3 km/h Distance 7.77 km</desc>
<time>2010-10-24T11:51:49.07</time>
<name>4808</name>
</trkpt>
<trkpt lat="48.927205" lon="8.660205">
<ele>386.0</ele>
<speed>1.12</speed>
<course>127.3</course>
<desc>Speed 4.0 km/h Distance 7.77 km</desc>
<time>2010-10-24T11:51:50.06</time>
<name>4809</name>
</trkpt>
<trkpt lat="48.927197" lon="8.660222">
<ele>386.0</ele>
<speed>1.14</speed>
<course>164.5</course>
<desc>Speed 4.1 km/h Distance 7.77 km</desc>
<time>2010-10-24T11:51:51.05</time>
<name>4810</name>
</trkpt>
<trkpt lat="48.927185" lon="8.660227">
<ele>386.0</ele>
<speed>1.09</speed>
<course>150.8</course>
<desc>Speed 3.9 km/h Distance 7.78 km</desc>
<time>2010-10-24T11:51:52.05</time>
<name>4811</name>
</trkpt>
<trkpt lat="48.927173" lon="8.660237">
<ele>385.5</ele>
<speed>1.00</speed>
<course>134.1</course>
<desc>Speed 3.6 km/h Distance 7.78 km</desc>
<time>2010-10-24T11:51:53.04</time>
<name>4812</name>
</trkpt>
<trkpt lat="48.927162" lon="8.660255">
<ele>385.0</ele>
<speed>0.98</speed>
<course>167.4</course>
<desc>Speed 3.5 km/h Distance 7.78 km</desc>
<time>2010-10-24T11:51:54.04</time>
<name>4813</name>
</trkpt>
<trkpt lat="48.927142" lon="8.660262">
<ele>384.5</ele>
<speed>1.11</speed>
<course>157.3</course>
<desc>Speed 4.0 km/h Distance 7.78 km</desc>
<time>2010-10-24T11:51:55.04</time>
<name>4814</name>
</trkpt>
<trkpt lat="48.927123" lon="8.660273">
<ele>384.0</ele>
<speed>1.10</speed>
<course>142.5</course>
<desc>Speed 4.0 km/h Distance 7.78 km</desc>
<time>2010-10-24T11:51:56.04</time>
<name>4815</name>
</trkpt>
<trkpt lat="48.927113" lon="8.660285">
<ele>384.0</ele>
<speed>0.99</speed>
<course>143.4</course>
<desc>Speed 3.6 km/h Distance 7.79 km</desc>
<time>2010-10-24T11:51:57.04</time>
<name>4816</name>
</trkpt>
<trkpt lat="48.927100" lon="8.660300">
<ele>384.0</ele>
<speed>1.23</speed>
<course>121.3</course>
<desc>Speed 4.4 km/h Distance 7.79 km</desc>
<time>2010-10-24T11:51:58.04</time>
<name>4817</name>
</trkpt>
<trkpt lat="48.927093" lon="8.660317">
<ele>383.5</ele>
<speed>1.12</speed>
<course>128.8</course>
<desc>Speed 4.0 km/h Distance 7.79 km</desc>
<time>2010-10-24T11:51:59.03</time>
<name>4818</name>
</trkpt>
<trkpt lat="48.927078" lon="8.660345">
<ele>385.0</ele>
<speed>2.08</speed>
<course>127.0</course>
<desc>Speed 7.5 km/h Distance 7.79 km</desc>
<time>2010-10-24T11:52:00.05</time>
<name>4819</name>
</trkpt>
<trkpt lat="48.927072" lon="8.660358">
<ele>382.0</ele>
<speed>0.85</speed>
<course>140.6</course>
<desc>Speed 3.1 km/h Distance 7.79 km</desc>
<time>2010-10-24T11:52:02.02</time>
<name>4820</name>
</trkpt>
<trkpt lat="48.927065" lon="8.660367">
<ele>381.5</ele>
<speed>0.83</speed>
<course>73.0</course>
<desc>Speed 3.0 km/h Distance 7.79 km</desc>
<time>2010-10-24T11:52:03.01</time>
<name>4821</name>
</trkpt>
<trkpt lat="48.927068" lon="8.660383">
<ele>382.0</ele>
<speed>0.68</speed>
<course>141.9</course>
<desc>Speed 2.4 km/h Distance 7.79 km</desc>
<time>2010-10-24T11:52:04.00</time>
<name>4822</name>
</trkpt>
<trkpt lat="48.927060" lon="8.660393">
<ele>381.5</ele>
<speed>0.69</speed>
<course>127.3</course>
<desc>Speed 2.5 km/h Distance 7.80 km</desc>
<time>2010-10-24T11:52:05.00</time>
<name>4823</name>
</trkpt>
<trkpt lat="48.927050" lon="8.660413">
<ele>382.0</ele>
<speed>0.93</speed>
<course>146.6</course>
<desc>Speed 3.3 km/h Distance 7.80 km</desc>
<time>2010-10-24T11:52:06.00</time>
<name>4824</name>
</trkpt>
<trkpt lat="48.927037" lon="8.660427">
<ele>381.5</ele>
<speed>1.34</speed>
<course>128.7</course>
<desc>Speed 4.8 km/h Distance 7.80 km</desc>
<time>2010-10-24T11:52:06.99</time>
<name>4825</name>
</trkpt>
<trkpt lat="48.927020" lon="8.660458">
<ele>383.0</ele>
<speed>1.13</speed>
<course>80.4</course>
<desc>Speed 4.1 km/h Distance 7.80 km</desc>
<time>2010-10-24T11:52:07.99</time>
<name>4826</name>
</trkpt>
<trkpt lat="48.927022" lon="8.660473">
<ele>382.5</ele>
<speed>1.12</speed>
<course>133.1</course>
<desc>Speed 4.0 km/h Distance 7.80 km</desc>
<time>2010-10-24T11:52:08.99</time>
<name>4827</name>
</trkpt>
<trkpt lat="48.927008" lon="8.660495">
<ele>383.5</ele>
<speed>1.29</speed>
<course>110.8</course>
<desc>Speed 4.6 km/h Distance 7.81 km</desc>
<time>2010-10-24T11:52:09.98</time>
<name>4828</name>
</trkpt>
<trkpt lat="48.927002" lon="8.660522">
<ele>384.0</ele>
<speed>1.08</speed>
<course>96.2</course>
<desc>Speed 3.9 km/h Distance 7.81 km</desc>
<time>2010-10-24T11:52:10.98</time>
<name>4829</name>
</trkpt>
<trkpt lat="48.927000" lon="8.660545">
<ele>385.5</ele>
<speed>1.33</speed>
<course>125.0</course>
<desc>Speed 4.8 km/h Distance 7.81 km</desc>
<time>2010-10-24T11:52:11.97</time>
<name>4830</name>
</trkpt>
<trkpt lat="48.926990" lon="8.660567">
<ele>385.5</ele>
<speed>1.26</speed>
<course>124.7</course>
<desc>Speed 4.5 km/h Distance 7.81 km</desc>
<time>2010-10-24T11:52:12.97</time>
<name>4831</name>
</trkpt>
<trkpt lat="48.926982" lon="8.660585">
<ele>386.0</ele>
<speed>1.00</speed>
<course>100.8</course>
<desc>Speed 3.6 km/h Distance 7.81 km</desc>
<time>2010-10-24T11:52:13.97</time>
<name>4832</name>
</trkpt>
<trkpt lat="48.926978" lon="8.660612">
<ele>387.0</ele>
<speed>1.08</speed>
<course>129.3</course>
<desc>Speed 3.9 km/h Distance 7.81 km</desc>
<time>2010-10-24T11:52:14.97</time>
<name>4833</name>
</trkpt>
<trkpt lat="48.926967" lon="8.660633">
<ele>387.0</ele>
<speed>0.88</speed>
<course>127.2</course>
<desc>Speed 3.2 km/h Distance 7.82 km</desc>
<time>2010-10-24T11:52:15.96</time>
<name>4834</name>
</trkpt>
<trkpt lat="48.926955" lon="8.660657">
<ele>388.5</ele>
<speed>1.05</speed>
<course>122.4</course>
<desc>Speed 3.8 km/h Distance 7.82 km</desc>
<time>2010-10-24T11:52:16.95</time>
<name>4835</name>
</trkpt>
<trkpt lat="48.926947" lon="8.660677">
<ele>390.0</ele>
<speed>0.50</speed>
<course>126.3</course>
<desc>Speed 1.8 km/h Distance 7.82 km</desc>
<time>2010-10-24T11:52:17.95</time>
<name>4836</name>
</trkpt>
<trkpt lat="48.926923" lon="8.660725">
<ele>393.5</ele>
<speed>1.54</speed>
<course>136.7</course>
<desc>Speed 5.5 km/h Distance 7.83 km</desc>
<time>2010-10-24T11:52:19.94</time>
<name>4837</name>
</trkpt>
<trkpt lat="48.926912" lon="8.660742">
<ele>393.0</ele>
<speed>1.38</speed>
<course>125.1</course>
<desc>Speed 5.0 km/h Distance 7.83 km</desc>
<time>2010-10-24T11:52:20.94</time>
<name>4838</name>
</trkpt>
<trkpt lat="48.926902" lon="8.660763">
<ele>393.0</ele>
<speed>1.40</speed>
<course>149.7</course>
<desc>Speed 5.0 km/h Distance 7.83 km</desc>
<time>2010-10-24T11:52:21.94</time>
<name>4839</name>
</trkpt>
<trkpt lat="48.926887" lon="8.660777">
<ele>392.5</ele>
<speed>1.28</speed>
<course>149.4</course>
<desc>Speed 4.6 km/h Distance 7.83 km</desc>
<time>2010-10-24T11:52:22.94</time>
<name>4840</name>
</trkpt>
<trkpt lat="48.926870" lon="8.660792">
<ele>392.0</ele>
<speed>1.11</speed>
<course>146.9</course>
<desc>Speed 4.0 km/h Distance 7.83 km</desc>
<time>2010-10-24T11:52:23.93</time>
<name>4841</name>
</trkpt>
<trkpt lat="48.926858" lon="8.660803">
<ele>391.0</ele>
<speed>1.11</speed>
<course>130.6</course>
<desc>Speed 4.0 km/h Distance 7.83 km</desc>
<time>2010-10-24T11:52:24.93</time>
<name>4842</name>
</trkpt>
<trkpt lat="48.926843" lon="8.660830">
<ele>391.5</ele>
<speed>1.50</speed>
<course>139.8</course>
<desc>Speed 5.4 km/h Distance 7.84 km</desc>
<time>2010-10-24T11:52:25.92</time>
<name>4843</name>
</trkpt>
<trkpt lat="48.926832" lon="8.660845">
<ele>391.5</ele>
<speed>1.32</speed>
<course>56.3</course>
<desc>Speed 4.8 km/h Distance 7.84 km</desc>
<time>2010-10-24T11:52:26.91</time>
<name>4844</name>
</trkpt>
<trkpt lat="48.926843" lon="8.660872">
<ele>391.0</ele>
<speed>2.22</speed>
<course>152.3</course>
<desc>Speed 8.0 km/h Distance 7.84 km</desc>
<time>2010-10-24T11:52:27.91</time>
<name>4845</name>
</trkpt>
<trkpt lat="48.926818" lon="8.660892">
<ele>391.5</ele>
<speed>2.49</speed>
<course>102.9</course>
<desc>Speed 9.0 km/h Distance 7.84 km</desc>
<time>2010-10-24T11:52:28.91</time>
<name>4846</name>
</trkpt>
<trkpt lat="48.926813" lon="8.660925">
<ele>393.0</ele>
<speed>1.61</speed>
<course>139.8</course>
<desc>Speed 5.8 km/h Distance 7.85 km</desc>
<time>2010-10-24T11:52:29.90</time>
<name>4847</name>
</trkpt>
<trkpt lat="48.926802" lon="8.660940">
<ele>392.5</ele>
<speed>1.26</speed>
<course>110.8</course>
<desc>Speed 4.5 km/h Distance 7.85 km</desc>
<time>2010-10-24T11:52:30.89</time>
<name>4848</name>
</trkpt>
<trkpt lat="48.926797" lon="8.660960">
<ele>392.0</ele>
<speed>1.16</speed>
<course>129.7</course>
<desc>Speed 4.2 km/h Distance 7.85 km</desc>
<time>2010-10-24T11:52:31.89</time>
<name>4849</name>
</trkpt>
<trkpt lat="48.926787" lon="8.660978">
<ele>392.0</ele>
<speed>1.28</speed>
<course>146.6</course>
<desc>Speed 4.6 km/h Distance 7.85 km</desc>
<time>2010-10-24T11:52:32.87</time>
<name>4850</name>
</trkpt>
<trkpt lat="48.926775" lon="8.660990">
<ele>391.5</ele>
<speed>0.87</speed>
<course>152.3</course>
<desc>Speed 3.1 km/h Distance 7.85 km</desc>
<time>2010-10-24T11:52:33.87</time>
<name>4851</name>
</trkpt>
<trkpt lat="48.926758" lon="8.661003">
<ele>390.5</ele>
<speed>1.05</speed>
<course>142.5</course>
<desc>Speed 3.8 km/h Distance 7.86 km</desc>
<time>2010-10-24T11:52:34.86</time>
<name>4852</name>
</trkpt>
<trkpt lat="48.926748" lon="8.661015">
<ele>389.5</ele>
<speed>0.95</speed>
<course>133.6</course>
<desc>Speed 3.4 km/h Distance 7.86 km</desc>
<time>2010-10-24T11:52:35.86</time>
<name>4853</name>
</trkpt>
<trkpt lat="48.926740" lon="8.661028">
<ele>388.5</ele>
<speed>1.02</speed>
<course>129.7</course>
<desc>Speed 3.7 km/h Distance 7.86 km</desc>
<time>2010-10-24T11:52:36.85</time>
<name>4854</name>
</trkpt>
<trkpt lat="48.926730" lon="8.661047">
<ele>388.5</ele>
<speed>1.33</speed>
<course>116.9</course>
<desc>Speed 4.8 km/h Distance 7.86 km</desc>
<time>2010-10-24T11:52:37.85</time>
<name>4855</name>
</trkpt>
<trkpt lat="48.926723" lon="8.661067">
<ele>387.5</ele>
<speed>1.38</speed>
<course>115.1</course>
<desc>Speed 5.0 km/h Distance 7.86 km</desc>
<time>2010-10-24T11:52:38.85</time>
<name>4856</name>
</trkpt>
<trkpt lat="48.926717" lon="8.661088">
<ele>386.5</ele>
<speed>1.37</speed>
<course>115.1</course>
<desc>Speed 4.9 km/h Distance 7.86 km</desc>
<time>2010-10-24T11:52:39.84</time>
<name>4857</name>
</trkpt>
<trkpt lat="48.926710" lon="8.661110">
<ele>385.5</ele>
<speed>1.44</speed>
<course>113.3</course>
<desc>Speed 5.2 km/h Distance 7.87 km</desc>
<time>2010-10-24T11:52:40.84</time>
<name>4858</name>
</trkpt>
<trkpt lat="48.926688" lon="8.661187">
<ele>386.5</ele>
<speed>1.50</speed>
<course>94.8</course>
<desc>Speed 5.4 km/h Distance 7.87 km</desc>
<time>2010-10-24T11:52:42.84</time>
<name>4859</name>
</trkpt>
<trkpt lat="48.926687" lon="8.661217">
<ele>387.0</ele>
<speed>1.38</speed>
<course>99.6</course>
<desc>Speed 5.0 km/h Distance 7.87 km</desc>
<time>2010-10-24T11:52:43.84</time>
<name>4860</name>
</trkpt>
<trkpt lat="48.926683" lon="8.661247">
<ele>388.0</ele>
<speed>1.24</speed>
<course>102.9</course>
<desc>Speed 4.5 km/h Distance 7.88 km</desc>
<time>2010-10-24T11:52:44.83</time>
<name>4861</name>
</trkpt>
<trkpt lat="48.926678" lon="8.661280">
<ele>389.5</ele>
<speed>1.33</speed>
<course>77.7</course>
<desc>Speed 4.8 km/h Distance 7.88 km</desc>
<time>2010-10-24T11:52:45.82</time>
<name>4862</name>
</trkpt>
<trkpt lat="48.926682" lon="8.661303">
<ele>390.0</ele>
<speed>1.46</speed>
<course>90.0</course>
<desc>Speed 5.3 km/h Distance 7.88 km</desc>
<time>2010-10-24T11:52:46.82</time>
<name>4863</name>
</trkpt>
<trkpt lat="48.926682" lon="8.661328">
<ele>390.5</ele>
<speed>1.32</speed>
<course>75.0</course>
<desc>Speed 4.8 km/h Distance 7.88 km</desc>
<time>2010-10-24T11:52:47.82</time>
<name>4864</name>
</trkpt>
<trkpt lat="48.926687" lon="8.661357">
<ele>391.5</ele>
<speed>1.64</speed>
<course>79.2</course>
<desc>Speed 5.9 km/h Distance 7.88 km</desc>
<time>2010-10-24T11:52:48.81</time>
<name>4865</name>
</trkpt>
<trkpt lat="48.926690" lon="8.661383">
<ele>392.0</ele>
<speed>1.51</speed>
<course>82.8</course>
<desc>Speed 5.4 km/h Distance 7.89 km</desc>
<time>2010-10-24T11:52:49.80</time>
<name>4866</name>
</trkpt>
<trkpt lat="48.926692" lon="8.661403">
<ele>393.0</ele>
<speed>1.45</speed>
<course>83.3</course>
<desc>Speed 5.2 km/h Distance 7.89 km</desc>
<time>2010-10-24T11:52:50.80</time>
<name>4867</name>
</trkpt>
<trkpt lat="48.926693" lon="8.661425">
<ele>393.0</ele>
<speed>1.49</speed>
<course>97.9</course>
<desc>Speed 5.4 km/h Distance 7.89 km</desc>
<time>2010-10-24T11:52:51.79</time>
<name>4868</name>
</trkpt>
<trkpt lat="48.926690" lon="8.661462">
<ele>395.0</ele>
<speed>1.42</speed>
<course>76.8</course>
<desc>Speed 5.1 km/h Distance 7.89 km</desc>
<time>2010-10-24T11:52:52.79</time>
<name>4869</name>
</trkpt>
<trkpt lat="48.926693" lon="8.661483">
<ele>395.5</ele>
<speed>1.41</speed>
<course>90.0</course>
<desc>Speed 5.1 km/h Distance 7.89 km</desc>
<time>2010-10-24T11:52:53.78</time>
<name>4870</name>
</trkpt>
<trkpt lat="48.926693" lon="8.661503">
<ele>396.0</ele>
<speed>1.36</speed>
<course>76.8</course>
<desc>Speed 4.9 km/h Distance 7.89 km</desc>
<time>2010-10-24T11:52:54.77</time>
<name>4871</name>
</trkpt>
<trkpt lat="48.926697" lon="8.661525">
<ele>396.0</ele>
<speed>1.47</speed>
<course>64.9</course>
<desc>Speed 5.3 km/h Distance 7.90 km</desc>
<time>2010-10-24T11:52:55.77</time>
<name>4872</name>
</trkpt>
<trkpt lat="48.926703" lon="8.661547">
<ele>396.5</ele>
<speed>1.51</speed>
<course>90.0</course>
<desc>Speed 5.4 km/h Distance 7.90 km</desc>
<time>2010-10-24T11:52:56.76</time>
<name>4873</name>
</trkpt>
<trkpt lat="48.926703" lon="8.661567">
<ele>397.0</ele>
<speed>1.47</speed>
<course>97.2</course>
<desc>Speed 5.3 km/h Distance 7.90 km</desc>
<time>2010-10-24T11:52:57.75</time>
<name>4874</name>
</trkpt>
<trkpt lat="48.926702" lon="8.661587">
<ele>397.5</ele>
<speed>1.37</speed>
<course>52.7</course>
<desc>Speed 4.9 km/h Distance 7.90 km</desc>
<time>2010-10-24T11:52:58.74</time>
<name>4875</name>
</trkpt>
<trkpt lat="48.926712" lon="8.661607">
<ele>398.0</ele>
<speed>0.95</speed>
<course>108.7</course>
<desc>Speed 3.4 km/h Distance 7.90 km</desc>
<time>2010-10-24T11:52:59.74</time>
<name>4876</name>
</trkpt>
<trkpt lat="48.926708" lon="8.661622">
<ele>398.5</ele>
<speed>0.99</speed>
<course>132.9</course>
<desc>Speed 3.6 km/h Distance 7.90 km</desc>
<time>2010-10-24T11:53:00.73</time>
<name>4877</name>
</trkpt>
<trkpt lat="48.926703" lon="8.661630">
<ele>398.5</ele>
<speed>0.62</speed>
<course>113.5</course>
<desc>Speed 2.2 km/h Distance 7.90 km</desc>
<time>2010-10-24T11:53:01.73</time>
<name>4878</name>
</trkpt>
<trkpt lat="48.926700" lon="8.661642">
<ele>398.0</ele>
<speed>0.69</speed>
<course>127.0</course>
<desc>Speed 2.5 km/h Distance 7.91 km</desc>
<time>2010-10-24T11:53:02.73</time>
<name>4879</name>
</trkpt>
<trkpt lat="48.926697" lon="8.661648">
<ele>397.5</ele>
<speed>0.40</speed>
<course>123.3</course>
<desc>Speed 1.4 km/h Distance 7.91 km</desc>
<time>2010-10-24T11:53:03.73</time>
<name>4880</name>
</trkpt>
<trkpt lat="48.926692" lon="8.661660">
<ele>398.0</ele>
<speed>1.00</speed>
<course>125.1</course>
<desc>Speed 3.6 km/h Distance 7.91 km</desc>
<time>2010-10-24T11:53:04.72</time>
<name>4881</name>
</trkpt>
<trkpt lat="48.926682" lon="8.661682">
<ele>399.0</ele>
<speed>0.99</speed>
<course>151.4</course>
<desc>Speed 3.6 km/h Distance 7.91 km</desc>
<time>2010-10-24T11:53:05.72</time>
<name>4882</name>
</trkpt>
<trkpt lat="48.926672" lon="8.661690">
<ele>398.5</ele>
<speed>1.13</speed>
<course>151.4</course>
<desc>Speed 4.1 km/h Distance 7.91 km</desc>
<time>2010-10-24T11:53:06.71</time>
<name>4883</name>
</trkpt>
<trkpt lat="48.926662" lon="8.661698">
<ele>398.5</ele>
<speed>0.99</speed>
<course>154.4</course>
<desc>Speed 3.6 km/h Distance 7.91 km</desc>
<time>2010-10-24T11:53:07.71</time>
<name>4884</name>
</trkpt>
<trkpt lat="48.926655" lon="8.661703">
<ele>397.0</ele>
<speed>0.49</speed>
<course>165.1</course>
<desc>Speed 1.8 km/h Distance 7.91 km</desc>
<time>2010-10-24T11:53:08.70</time>
<name>4885</name>
</trkpt>
<trkpt lat="48.926643" lon="8.661708">
<ele>396.5</ele>
<speed>0.97</speed>
<course>146.8</course>
<desc>Speed 3.5 km/h Distance 7.91 km</desc>
<time>2010-10-24T11:53:09.69</time>
<name>4886</name>
</trkpt>
<trkpt lat="48.926633" lon="8.661718">
<ele>395.5</ele>
<speed>1.02</speed>
<course>146.7</course>
<desc>Speed 3.7 km/h Distance 7.92 km</desc>
<time>2010-10-24T11:53:10.69</time>
<name>4887</name>
</trkpt>
<trkpt lat="48.926620" lon="8.661732">
<ele>395.0</ele>
<speed>1.19</speed>
<course>159.8</course>
<desc>Speed 4.3 km/h Distance 7.92 km</desc>
<time>2010-10-24T11:53:11.68</time>
<name>4888</name>
</trkpt>
<trkpt lat="48.926608" lon="8.661738">
<ele>394.0</ele>
<speed>0.81</speed>
<course>156.2</course>
<desc>Speed 2.9 km/h Distance 7.92 km</desc>
<time>2010-10-24T11:53:12.67</time>
<name>4889</name>
</trkpt>
<trkpt lat="48.926598" lon="8.661745">
<ele>394.0</ele>
<speed>0.70</speed>
<course>162.5</course>
<desc>Speed 2.5 km/h Distance 7.92 km</desc>
<time>2010-10-24T11:53:13.66</time>
<name>4890</name>
</trkpt>
<trkpt lat="48.926592" lon="8.661748">
<ele>393.5</ele>
<speed>0.55</speed>
<course>137.7</course>
<desc>Speed 2.0 km/h Distance 7.92 km</desc>
<time>2010-10-24T11:53:14.65</time>
<name>4891</name>
</trkpt>
<trkpt lat="48.926583" lon="8.661760">
<ele>393.0</ele>
<speed>0.57</speed>
<course>141.9</course>
<desc>Speed 2.1 km/h Distance 7.92 km</desc>
<time>2010-10-24T11:53:15.65</time>
<name>4892</name>
</trkpt>
<trkpt lat="48.926575" lon="8.661770">
<ele>392.5</ele>
<speed>0.85</speed>
<course>130.9</course>
<desc>Speed 3.1 km/h Distance 7.92 km</desc>
<time>2010-10-24T11:53:16.65</time>
<name>4893</name>
</trkpt>
<trkpt lat="48.926568" lon="8.661782">
<ele>392.5</ele>
<speed>0.43</speed>
<course>138.8</course>
<desc>Speed 1.5 km/h Distance 7.92 km</desc>
<time>2010-10-24T11:53:17.64</time>
<name>4894</name>
</trkpt>
<trkpt lat="48.926553" lon="8.661802">
<ele>393.5</ele>
<speed>1.26</speed>
<course>116.9</course>
<desc>Speed 4.5 km/h Distance 7.93 km</desc>
<time>2010-10-24T11:53:18.63</time>
<name>4895</name>
</trkpt>
<trkpt lat="48.926548" lon="8.661817">
<ele>392.5</ele>
<speed>0.77</speed>
<course>156.3</course>
<desc>Speed 2.8 km/h Distance 7.93 km</desc>
<time>2010-10-24T11:53:19.62</time>
<name>4896</name>
</trkpt>
<trkpt lat="48.926533" lon="8.661827">
<ele>392.5</ele>
<speed>1.08</speed>
<course>156.5</course>
<desc>Speed 3.9 km/h Distance 7.93 km</desc>
<time>2010-10-24T11:53:20.61</time>
<name>4897</name>
</trkpt>
<trkpt lat="48.926518" lon="8.661837">
<ele>392.5</ele>
<speed>0.88</speed>
<course>140.6</course>
<desc>Speed 3.2 km/h Distance 7.93 km</desc>
<time>2010-10-24T11:53:21.61</time>
<name>4898</name>
</trkpt>
<trkpt lat="48.926505" lon="8.661853">
<ele>393.0</ele>
<speed>0.85</speed>
<course>148.9</course>
<desc>Speed 3.1 km/h Distance 7.93 km</desc>
<time>2010-10-24T11:53:22.61</time>
<name>4899</name>
</trkpt>
<trkpt lat="48.926485" lon="8.661872">
<ele>394.0</ele>
<speed>1.13</speed>
<course>144.4</course>
<desc>Speed 4.1 km/h Distance 7.94 km</desc>
<time>2010-10-24T11:53:23.60</time>
<name>4900</name>
</trkpt>
<trkpt lat="48.926467" lon="8.661892">
<ele>395.5</ele>
<speed>1.00</speed>
<course>127.3</course>
<desc>Speed 3.6 km/h Distance 7.94 km</desc>
<time>2010-10-24T11:53:24.59</time>
<name>4901</name>
</trkpt>
<trkpt lat="48.926440" lon="8.661945">
<ele>399.5</ele>
<speed>1.35</speed>
<course>165.5</course>
<desc>Speed 4.9 km/h Distance 7.94 km</desc>
<time>2010-10-24T11:53:26.59</time>
<name>4902</name>
</trkpt>
<trkpt lat="48.926385" lon="8.661967">
<ele>401.0</ele>
<speed>1.10</speed>
<course>171.0</course>
<desc>Speed 4.0 km/h Distance 7.95 km</desc>
<time>2010-10-24T11:53:28.59</time>
<name>4903</name>
</trkpt>
<trkpt lat="48.926372" lon="8.661970">
<ele>400.0</ele>
<speed>1.25</speed>
<course>146.8</course>
<desc>Speed 4.5 km/h Distance 7.95 km</desc>
<time>2010-10-24T11:53:29.57</time>
<name>4904</name>
</trkpt>
<trkpt lat="48.926363" lon="8.661978">
<ele>399.0</ele>
<speed>0.88</speed>
<course>159.9</course>
<desc>Speed 3.2 km/h Distance 7.95 km</desc>
<time>2010-10-24T11:53:30.57</time>
<name>4905</name>
</trkpt>
<trkpt lat="48.926348" lon="8.661987">
<ele>398.5</ele>
<speed>1.54</speed>
<course>159.2</course>
<desc>Speed 5.5 km/h Distance 7.95 km</desc>
<time>2010-10-24T11:53:31.56</time>
<name>4906</name>
</trkpt>
<trkpt lat="48.926340" lon="8.661992">
<ele>397.0</ele>
<speed>0.62</speed>
<course>152.5</course>
<desc>Speed 2.2 km/h Distance 7.95 km</desc>
<time>2010-10-24T11:53:32.55</time>
<name>4907</name>
</trkpt>
<trkpt lat="48.926332" lon="8.661998">
<ele>395.5</ele>
<speed>0.83</speed>
<course>167.4</course>
<desc>Speed 3.0 km/h Distance 7.96 km</desc>
<time>2010-10-24T11:53:33.55</time>
<name>4908</name>
</trkpt>
<trkpt lat="48.926322" lon="8.662002">
<ele>394.0</ele>
<speed>0.68</speed>
<course>159.4</course>
<desc>Speed 2.4 km/h Distance 7.96 km</desc>
<time>2010-10-24T11:53:34.54</time>
<name>4909</name>
</trkpt>
<trkpt lat="48.926310" lon="8.662008">
<ele>393.5</ele>
<speed>1.21</speed>
<course>159.9</course>
<desc>Speed 4.4 km/h Distance 7.96 km</desc>
<time>2010-10-24T11:53:35.54</time>
<name>4910</name>
</trkpt>
<trkpt lat="48.926295" lon="8.662017">
<ele>393.0</ele>
<speed>1.16</speed>
<course>173.7</course>
<desc>Speed 4.2 km/h Distance 7.96 km</desc>
<time>2010-10-24T11:53:36.53</time>
<name>4911</name>
</trkpt>
<trkpt lat="48.926283" lon="8.662018">
<ele>392.0</ele>
<speed>0.63</speed>
<course>176.1</course>
<desc>Speed 2.3 km/h Distance 7.96 km</desc>
<time>2010-10-24T11:53:37.53</time>
<name>4912</name>
</trkpt>
<trkpt lat="48.926270" lon="8.662020">
<ele>391.5</ele>
<speed>0.85</speed>
<course>171.2</course>
<desc>Speed 3.1 km/h Distance 7.96 km</desc>
<time>2010-10-24T11:53:38.52</time>
<name>4913</name>
</trkpt>
<trkpt lat="48.926255" lon="8.662023">
<ele>392.0</ele>
<speed>0.83</speed>
<course>156.2</course>
<desc>Speed 3.0 km/h Distance 7.96 km</desc>
<time>2010-10-24T11:53:39.52</time>
<name>4914</name>
</trkpt>
<trkpt lat="48.926245" lon="8.662030">
<ele>391.5</ele>
<speed>1.04</speed>
<course>153.0</course>
<desc>Speed 3.7 km/h Distance 7.97 km</desc>
<time>2010-10-24T11:53:40.52</time>
<name>4915</name>
</trkpt>
<trkpt lat="48.926230" lon="8.662042">
<ele>391.5</ele>
<speed>1.09</speed>
<course>149.3</course>
<desc>Speed 3.9 km/h Distance 7.97 km</desc>
<time>2010-10-24T11:53:41.52</time>
<name>4916</name>
</trkpt>
<trkpt lat="48.926213" lon="8.662057">
<ele>392.0</ele>
<speed>1.60</speed>
<course>161.8</course>
<desc>Speed 5.8 km/h Distance 7.97 km</desc>
<time>2010-10-24T11:53:42.51</time>
<name>4917</name>
</trkpt>
<trkpt lat="48.926193" lon="8.662067">
<ele>392.0</ele>
<speed>1.12</speed>
<course>164.3</course>
<desc>Speed 4.0 km/h Distance 7.97 km</desc>
<time>2010-10-24T11:53:43.51</time>
<name>4918</name>
</trkpt>
<trkpt lat="48.926170" lon="8.662077">
<ele>392.5</ele>
<speed>1.21</speed>
<course>155.5</course>
<desc>Speed 4.4 km/h Distance 7.97 km</desc>
<time>2010-10-24T11:53:44.51</time>
<name>4919</name>
</trkpt>
<trkpt lat="48.926148" lon="8.662092">
<ele>394.0</ele>
<speed>1.61</speed>
<course>160.8</course>
<desc>Speed 5.8 km/h Distance 7.98 km</desc>
<time>2010-10-24T11:53:45.50</time>
<name>4920</name>
</trkpt>
<trkpt lat="48.926120" lon="8.662107">
<ele>394.5</ele>
<speed>1.38</speed>
<course>157.9</course>
<desc>Speed 5.0 km/h Distance 7.98 km</desc>
<time>2010-10-24T11:53:46.50</time>
<name>4921</name>
</trkpt>
<trkpt lat="48.926098" lon="8.662120">
<ele>395.5</ele>
<speed>1.27</speed>
<course>171.6</course>
<desc>Speed 4.6 km/h Distance 7.98 km</desc>
<time>2010-10-24T11:53:47.50</time>
<name>4922</name>
</trkpt>
<trkpt lat="48.926077" lon="8.662125">
<ele>395.5</ele>
<speed>1.49</speed>
<course>161.8</course>
<desc>Speed 5.4 km/h Distance 7.99 km</desc>
<time>2010-10-24T11:53:48.49</time>
<name>4923</name>
</trkpt>
<trkpt lat="48.926057" lon="8.662135">
<ele>395.5</ele>
<speed>1.26</speed>
<course>153.6</course>
<desc>Speed 4.5 km/h Distance 7.99 km</desc>
<time>2010-10-24T11:53:49.49</time>
<name>4924</name>
</trkpt>
<trkpt lat="48.926043" lon="8.662145">
<ele>395.5</ele>
<speed>1.46</speed>
<course>159.9</course>
<desc>Speed 5.3 km/h Distance 7.99 km</desc>
<time>2010-10-24T11:53:50.49</time>
<name>4925</name>
</trkpt>
<trkpt lat="48.926028" lon="8.662153">
<ele>395.5</ele>
<speed>1.50</speed>
<course>159.9</course>
<desc>Speed 5.4 km/h Distance 7.99 km</desc>
<time>2010-10-24T11:53:51.48</time>
<name>4926</name>
</trkpt>
<trkpt lat="48.926013" lon="8.662162">
<ele>396.0</ele>
<speed>1.54</speed>
<course>154.0</course>
<desc>Speed 5.5 km/h Distance 7.99 km</desc>
<time>2010-10-24T11:53:52.48</time>
<name>4927</name>
</trkpt>
<trkpt lat="48.926000" lon="8.662172">
<ele>395.0</ele>
<speed>1.15</speed>
<course>149.7</course>
<desc>Speed 4.1 km/h Distance 8.00 km</desc>
<time>2010-10-24T11:53:53.48</time>
<name>4928</name>
</trkpt>
<trkpt lat="48.925985" lon="8.662185">
<ele>395.0</ele>
<speed>1.40</speed>
<course>144.2</course>
<desc>Speed 5.0 km/h Distance 8.00 km</desc>
<time>2010-10-24T11:53:54.48</time>
<name>4929</name>
</trkpt>
<trkpt lat="48.925968" lon="8.662203">
<ele>394.5</ele>
<speed>1.41</speed>
<course>118.3</course>
<desc>Speed 5.1 km/h Distance 8.00 km</desc>
<time>2010-10-24T11:53:55.47</time>
<name>4930</name>
</trkpt>
<trkpt lat="48.925958" lon="8.662232">
<ele>394.5</ele>
<speed>1.64</speed>
<course>118.3</course>
<desc>Speed 5.9 km/h Distance 8.00 km</desc>
<time>2010-10-24T11:53:56.46</time>
<name>4931</name>
</trkpt>
<trkpt lat="48.925948" lon="8.662260">
<ele>394.5</ele>
<speed>1.70</speed>
<course>109.7</course>
<desc>Speed 6.1 km/h Distance 8.00 km</desc>
<time>2010-10-24T11:53:57.45</time>
<name>4932</name>
</trkpt>
<trkpt lat="48.925942" lon="8.662288">
<ele>394.5</ele>
<speed>1.48</speed>
<course>78.5</course>
<desc>Speed 5.3 km/h Distance 8.01 km</desc>
<time>2010-10-24T11:53:58.46</time>
<name>4933</name>
</trkpt>
<trkpt lat="48.925945" lon="8.662313">
<ele>394.0</ele>
<speed>1.67</speed>
<course>95.4</course>
<desc>Speed 6.0 km/h Distance 8.01 km</desc>
<time>2010-10-24T11:53:59.46</time>
<name>4934</name>
</trkpt>
<trkpt lat="48.925943" lon="8.662340">
<ele>394.0</ele>
<speed>1.69</speed>
<course>106.9</course>
<desc>Speed 6.1 km/h Distance 8.01 km</desc>
<time>2010-10-24T11:54:00.46</time>
<name>4935</name>
</trkpt>
<trkpt lat="48.925938" lon="8.662365">
<ele>394.0</ele>
<speed>1.67</speed>
<course>106.9</course>
<desc>Speed 6.0 km/h Distance 8.01 km</desc>
<time>2010-10-24T11:54:01.45</time>
<name>4936</name>
</trkpt>
<trkpt lat="48.925933" lon="8.662390">
<ele>394.5</ele>
<speed>1.66</speed>
<course>105.9</course>
<desc>Speed 6.0 km/h Distance 8.01 km</desc>
<time>2010-10-24T11:54:02.44</time>
<name>4937</name>
</trkpt>
<trkpt lat="48.925928" lon="8.662417">
<ele>394.5</ele>
<speed>1.63</speed>
<course>94.8</course>
<desc>Speed 5.9 km/h Distance 8.02 km</desc>
<time>2010-10-24T11:54:03.43</time>
<name>4938</name>
</trkpt>
<trkpt lat="48.925927" lon="8.662447">
<ele>394.5</ele>
<speed>1.63</speed>
<course>105.0</course>
<desc>Speed 5.9 km/h Distance 8.02 km</desc>
<time>2010-10-24T11:54:04.43</time>
<name>4939</name>
</trkpt>
<trkpt lat="48.925922" lon="8.662475">
<ele>394.5</ele>
<speed>1.60</speed>
<course>90.0</course>
<desc>Speed 5.8 km/h Distance 8.02 km</desc>
<time>2010-10-24T11:54:05.42</time>
<name>4940</name>
</trkpt>
<trkpt lat="48.925922" lon="8.662500">
<ele>394.0</ele>
<speed>1.66</speed>
<course>84.2</course>
<desc>Speed 6.0 km/h Distance 8.02 km</desc>
<time>2010-10-24T11:54:06.42</time>
<name>4941</name>
</trkpt>
<trkpt lat="48.925923" lon="8.662525">
<ele>394.0</ele>
<speed>1.69</speed>
<course>90.0</course>
<desc>Speed 6.1 km/h Distance 8.02 km</desc>
<time>2010-10-24T11:54:07.41</time>
<name>4942</name>
</trkpt>
<trkpt lat="48.925923" lon="8.662548">
<ele>394.0</ele>
<speed>1.65</speed>
<course>83.8</course>
<desc>Speed 5.9 km/h Distance 8.03 km</desc>
<time>2010-10-24T11:54:08.42</time>
<name>4943</name>
</trkpt>
<trkpt lat="48.925925" lon="8.662572">
<ele>394.0</ele>
<speed>1.69</speed>
<course>83.3</course>
<desc>Speed 6.1 km/h Distance 8.03 km</desc>
<time>2010-10-24T11:54:09.41</time>
<name>4944</name>
</trkpt>
<trkpt lat="48.925927" lon="8.662593">
<ele>394.0</ele>
<speed>1.44</speed>
<course>65.5</course>
<desc>Speed 5.2 km/h Distance 8.03 km</desc>
<time>2010-10-24T11:54:10.41</time>
<name>4945</name>
</trkpt>
<trkpt lat="48.925932" lon="8.662610">
<ele>394.0</ele>
<speed>1.42</speed>
<course>79.3</course>
<desc>Speed 5.1 km/h Distance 8.03 km</desc>
<time>2010-10-24T11:54:11.40</time>
<name>4946</name>
</trkpt>
<trkpt lat="48.925933" lon="8.662623">
<ele>394.0</ele>
<speed>1.50</speed>
<course>63.1</course>
<desc>Speed 5.4 km/h Distance 8.03 km</desc>
<time>2010-10-24T11:54:12.40</time>
<name>4947</name>
</trkpt>
<trkpt lat="48.925938" lon="8.662638">
<ele>394.5</ele>
<speed>1.49</speed>
<course>46.4</course>
<desc>Speed 5.4 km/h Distance 8.03 km</desc>
<time>2010-10-24T11:54:13.39</time>
<name>4948</name>
</trkpt>
<trkpt lat="48.925947" lon="8.662652">
<ele>394.5</ele>
<speed>1.46</speed>
<course>63.0</course>
<desc>Speed 5.3 km/h Distance 8.03 km</desc>
<time>2010-10-24T11:54:14.39</time>
<name>4949</name>
</trkpt>
<trkpt lat="48.925950" lon="8.662662">
<ele>394.5</ele>
<speed>1.15</speed>
<course>28.3</course>
<desc>Speed 4.1 km/h Distance 8.03 km</desc>
<time>2010-10-24T11:54:15.38</time>
<name>4950</name>
</trkpt>
<trkpt lat="48.925987" lon="8.662692">
<ele>394.0</ele>
<speed>1.57</speed>
<course>90.0</course>
<desc>Speed 5.7 km/h Distance 8.04 km</desc>
<time>2010-10-24T11:54:17.38</time>
<name>4951</name>
</trkpt>
<trkpt lat="48.925987" lon="8.662700">
<ele>394.0</ele>
<speed>0.62</speed>
<course>39.4</course>
<desc>Speed 2.2 km/h Distance 8.04 km</desc>
<time>2010-10-24T11:54:18.37</time>
<name>4952</name>
</trkpt>
<trkpt lat="48.925993" lon="8.662708">
<ele>393.5</ele>
<speed>1.04</speed>
<course>47.1</course>
<desc>Speed 3.7 km/h Distance 8.04 km</desc>
<time>2010-10-24T11:54:19.37</time>
<name>4953</name>
</trkpt>
<trkpt lat="48.925998" lon="8.662717">
<ele>393.0</ele>
<speed>1.03</speed>
<course>49.1</course>
<desc>Speed 3.7 km/h Distance 8.04 km</desc>
<time>2010-10-24T11:54:20.37</time>
<name>4954</name>
</trkpt>
<trkpt lat="48.926005" lon="8.662728">
<ele>393.0</ele>
<speed>1.16</speed>
<course>44.5</course>
<desc>Speed 4.2 km/h Distance 8.04 km</desc>
<time>2010-10-24T11:54:21.37</time>
<name>4955</name>
</trkpt>
<trkpt lat="48.926012" lon="8.662738">
<ele>393.5</ele>
<speed>1.07</speed>
<course>138.1</course>
<desc>Speed 3.9 km/h Distance 8.04 km</desc>
<time>2010-10-24T11:54:22.35</time>
<name>4956</name>
</trkpt>
<trkpt lat="48.926007" lon="8.662745">
<ele>393.5</ele>
<speed>0.54</speed>
<course>41.9</course>
<desc>Speed 1.9 km/h Distance 8.04 km</desc>
<time>2010-10-24T11:54:23.35</time>
<name>4957</name>
</trkpt>
<trkpt lat="48.926012" lon="8.662752">
<ele>393.5</ele>
<speed>0.89</speed>
<course>33.7</course>
<desc>Speed 3.2 km/h Distance 8.05 km</desc>
<time>2010-10-24T11:54:24.35</time>
<name>4958</name>
</trkpt>
<trkpt lat="48.926018" lon="8.662758">
<ele>393.5</ele>
<speed>0.93</speed>
<course>47.8</course>
<desc>Speed 3.3 km/h Distance 8.05 km</desc>
<time>2010-10-24T11:54:25.34</time>
<name>4959</name>
</trkpt>
<trkpt lat="48.926023" lon="8.662767">
<ele>393.0</ele>
<speed>0.83</speed>
<course>37.5</course>
<desc>Speed 3.0 km/h Distance 8.05 km</desc>
<time>2010-10-24T11:54:26.33</time>
<name>4960</name>
</trkpt>
<trkpt lat="48.926033" lon="8.662778">
<ele>393.0</ele>
<speed>1.28</speed>
<course>57.1</course>
<desc>Speed 4.6 km/h Distance 8.05 km</desc>
<time>2010-10-24T11:54:27.34</time>
<name>4961</name>
</trkpt>
<trkpt lat="48.926038" lon="8.662790">
<ele>393.5</ele>
<speed>1.17</speed>
<course>53.0</course>
<desc>Speed 4.2 km/h Distance 8.05 km</desc>
<time>2010-10-24T11:54:28.33</time>
<name>4962</name>
</trkpt>
<trkpt lat="48.926042" lon="8.662797">
<ele>393.5</ele>
<speed>0.61</speed>
<course>42.6</course>
<desc>Speed 2.2 km/h Distance 8.05 km</desc>
<time>2010-10-24T11:54:29.32</time>
<name>4963</name>
</trkpt>
<trkpt lat="48.926050" lon="8.662808">
<ele>394.0</ele>
<speed>1.23</speed>
<course>49.1</course>
<desc>Speed 4.4 km/h Distance 8.05 km</desc>
<time>2010-10-24T11:54:30.32</time>
<name>4964</name>
</trkpt>
<trkpt lat="48.926057" lon="8.662820">
<ele>393.5</ele>
<speed>0.92</speed>
<course>52.8</course>
<desc>Speed 3.3 km/h Distance 8.05 km</desc>
<time>2010-10-24T11:54:31.32</time>
<name>4965</name>
</trkpt>
<trkpt lat="48.926062" lon="8.662830">
<ele>394.0</ele>
<speed>1.00</speed>
<course>33.2</course>
<desc>Speed 3.6 km/h Distance 8.05 km</desc>
<time>2010-10-24T11:54:32.31</time>
<name>4966</name>
</trkpt>
<trkpt lat="48.926072" lon="8.662840">
<ele>394.5</ele>
<speed>1.19</speed>
<course>28.6</course>
<desc>Speed 4.3 km/h Distance 8.05 km</desc>
<time>2010-10-24T11:54:33.30</time>
<name>4967</name>
</trkpt>
<trkpt lat="48.926082" lon="8.662848">
<ele>394.0</ele>
<speed>1.05</speed>
<course>29.8</course>
<desc>Speed 3.8 km/h Distance 8.06 km</desc>
<time>2010-10-24T11:54:34.30</time>
<name>4968</name>
</trkpt>
<trkpt lat="48.926095" lon="8.662860">
<ele>394.5</ele>
<speed>1.69</speed>
<course>47.8</course>
<desc>Speed 6.1 km/h Distance 8.06 km</desc>
<time>2010-10-24T11:54:35.30</time>
<name>4969</name>
</trkpt>
<trkpt lat="48.926100" lon="8.662868">
<ele>394.5</ele>
<speed>0.89</speed>
<course>49.1</course>
<desc>Speed 3.2 km/h Distance 8.06 km</desc>
<time>2010-10-24T11:54:36.30</time>
<name>4970</name>
</trkpt>
<trkpt lat="48.926107" lon="8.662880">
<ele>394.5</ele>
<speed>1.32</speed>
<course>56.9</course>
<desc>Speed 4.8 km/h Distance 8.06 km</desc>
<time>2010-10-24T11:54:37.29</time>
<name>4971</name>
</trkpt>
<trkpt lat="48.926112" lon="8.662892">
<ele>394.5</ele>
<speed>0.88</speed>
<course>33.2</course>
<desc>Speed 3.2 km/h Distance 8.06 km</desc>
<time>2010-10-24T11:54:38.27</time>
<name>4972</name>
</trkpt>
<trkpt lat="48.926120" lon="8.662900">
<ele>394.5</ele>
<speed>1.10</speed>
<course>49.1</course>
<desc>Speed 4.0 km/h Distance 8.06 km</desc>
<time>2010-10-24T11:54:39.27</time>
<name>4973</name>
</trkpt>
<trkpt lat="48.926127" lon="8.662912">
<ele>395.0</ele>
<speed>1.24</speed>
<course>49.1</course>
<desc>Speed 4.5 km/h Distance 8.06 km</desc>
<time>2010-10-24T11:54:40.27</time>
<name>4974</name>
</trkpt>
<trkpt lat="48.926133" lon="8.662923">
<ele>395.0</ele>
<speed>1.19</speed>
<course>46.5</course>
<desc>Speed 4.3 km/h Distance 8.06 km</desc>
<time>2010-10-24T11:54:41.27</time>
<name>4975</name>
</trkpt>
<trkpt lat="48.926142" lon="8.662937">
<ele>395.5</ele>
<speed>1.14</speed>
<course>55.3</course>
<desc>Speed 4.1 km/h Distance 8.07 km</desc>
<time>2010-10-24T11:54:42.26</time>
<name>4976</name>
</trkpt>
<trkpt lat="48.926150" lon="8.662955">
<ele>395.5</ele>
<speed>1.23</speed>
<course>42.1</course>
<desc>Speed 4.4 km/h Distance 8.07 km</desc>
<time>2010-10-24T11:54:43.26</time>
<name>4977</name>
</trkpt>
<trkpt lat="48.926163" lon="8.662973">
<ele>396.0</ele>
<speed>1.51</speed>
<course>52.8</course>
<desc>Speed 5.4 km/h Distance 8.07 km</desc>
<time>2010-10-24T11:54:44.25</time>
<name>4978</name>
</trkpt>
<trkpt lat="48.926170" lon="8.662987">
<ele>396.5</ele>
<speed>1.39</speed>
<course>52.7</course>
<desc>Speed 5.0 km/h Distance 8.07 km</desc>
<time>2010-10-24T11:54:45.24</time>
<name>4979</name>
</trkpt>
<trkpt lat="48.926177" lon="8.663000">
<ele>396.5</ele>
<speed>1.13</speed>
<course>37.5</course>
<desc>Speed 4.1 km/h Distance 8.07 km</desc>
<time>2010-10-24T11:54:46.25</time>
<name>4980</name>
</trkpt>
<trkpt lat="48.926187" lon="8.663012">
<ele>396.5</ele>
<speed>1.40</speed>
<course>28.6</course>
<desc>Speed 5.0 km/h Distance 8.07 km</desc>
<time>2010-10-24T11:54:47.24</time>
<name>4981</name>
</trkpt>
<trkpt lat="48.926197" lon="8.663020">
<ele>396.0</ele>
<speed>0.95</speed>
<course>40.9</course>
<desc>Speed 3.4 km/h Distance 8.07 km</desc>
<time>2010-10-24T11:54:48.23</time>
<name>4982</name>
</trkpt>
<trkpt lat="48.926202" lon="8.663027">
<ele>395.5</ele>
<speed>0.81</speed>
<course>40.9</course>
<desc>Speed 2.9 km/h Distance 8.07 km</desc>
<time>2010-10-24T11:54:49.22</time>
<name>4983</name>
</trkpt>
<trkpt lat="48.926207" lon="8.663033">
<ele>395.5</ele>
<speed>0.77</speed>
<course>33.7</course>
<desc>Speed 2.8 km/h Distance 8.08 km</desc>
<time>2010-10-24T11:54:50.21</time>
<name>4984</name>
</trkpt>
<trkpt lat="48.926213" lon="8.663040">
<ele>395.0</ele>
<speed>0.81</speed>
<course>25.2</course>
<desc>Speed 2.9 km/h Distance 8.08 km</desc>
<time>2010-10-24T11:54:51.21</time>
<name>4985</name>
</trkpt>
<trkpt lat="48.926225" lon="8.663048">
<ele>394.5</ele>
<speed>1.00</speed>
<course>47.8</course>
<desc>Speed 3.6 km/h Distance 8.08 km</desc>
<time>2010-10-24T11:54:52.21</time>
<name>4986</name>
</trkpt>
<trkpt lat="48.926230" lon="8.663057">
<ele>394.0</ele>
<speed>0.80</speed>
<course>58.6</course>
<desc>Speed 2.9 km/h Distance 8.08 km</desc>
<time>2010-10-24T11:54:53.20</time>
<name>4987</name>
</trkpt>
<trkpt lat="48.926233" lon="8.663065">
<ele>393.5</ele>
<speed>0.58</speed>
<course>47.4</course>
<desc>Speed 2.1 km/h Distance 8.08 km</desc>
<time>2010-10-24T11:54:54.20</time>
<name>4988</name>
</trkpt>
<trkpt lat="48.926238" lon="8.663073">
<ele>393.5</ele>
<speed>0.62</speed>
<course>17.6</course>
<desc>Speed 2.2 km/h Distance 8.08 km</desc>
<time>2010-10-24T11:54:55.19</time>
<name>4989</name>
</trkpt>
<trkpt lat="48.926248" lon="8.663078">
<ele>392.5</ele>
<speed>0.62</speed>
<course>38.1</course>
<desc>Speed 2.2 km/h Distance 8.08 km</desc>
<time>2010-10-24T11:54:56.19</time>
<name>4990</name>
</trkpt>
<trkpt lat="48.926257" lon="8.663088">
<ele>392.5</ele>
<speed>0.56</speed>
<course>13.5</course>
<desc>Speed 2.0 km/h Distance 8.08 km</desc>
<time>2010-10-24T11:54:58.18</time>
<name>4991</name>
</trkpt>
<trkpt lat="48.926270" lon="8.663093">
<ele>392.5</ele>
<speed>1.01</speed>
<course>20.1</course>
<desc>Speed 3.6 km/h Distance 8.08 km</desc>
<time>2010-10-24T11:54:59.17</time>
<name>4992</name>
</trkpt>
<trkpt lat="48.926285" lon="8.663102">
<ele>391.0</ele>
<speed>0.70</speed>
<course>30.3</course>
<desc>Speed 2.5 km/h Distance 8.09 km</desc>
<time>2010-10-24T11:55:00.16</time>
<name>4993</name>
</trkpt>
<trkpt lat="48.926300" lon="8.663115">
<ele>391.0</ele>
<speed>1.12</speed>
<course>21.5</course>
<desc>Speed 4.0 km/h Distance 8.09 km</desc>
<time>2010-10-24T11:55:01.15</time>
<name>4994</name>
</trkpt>
<trkpt lat="48.926317" lon="8.663125">
<ele>391.0</ele>
<speed>1.12</speed>
<course>35.3</course>
<desc>Speed 4.0 km/h Distance 8.09 km</desc>
<time>2010-10-24T11:55:02.15</time>
<name>4995</name>
</trkpt>
<trkpt lat="48.926338" lon="8.663148">
<ele>392.0</ele>
<speed>1.53</speed>
<course>30.3</course>
<desc>Speed 5.5 km/h Distance 8.09 km</desc>
<time>2010-10-24T11:55:03.15</time>
<name>4996</name>
</trkpt>
<trkpt lat="48.926353" lon="8.663162">
<ele>391.5</ele>
<speed>1.23</speed>
<course>30.7</course>
<desc>Speed 4.4 km/h Distance 8.09 km</desc>
<time>2010-10-24T11:55:04.14</time>
<name>4997</name>
</trkpt>
<trkpt lat="48.926370" lon="8.663177">
<ele>391.5</ele>
<speed>1.45</speed>
<course>30.3</course>
<desc>Speed 5.2 km/h Distance 8.10 km</desc>
<time>2010-10-24T11:55:05.14</time>
<name>4998</name>
</trkpt>
<trkpt lat="48.926385" lon="8.663190">
<ele>392.0</ele>
<speed>1.26</speed>
<course>29.8</course>
<desc>Speed 4.5 km/h Distance 8.10 km</desc>
<time>2010-10-24T11:55:06.13</time>
<name>4999</name>
</trkpt>
<trkpt lat="48.926398" lon="8.663202">
<ele>391.5</ele>
<speed>1.22</speed>
<course>20.1</course>
<desc>Speed 4.4 km/h Distance 8.10 km</desc>
<time>2010-10-24T11:55:07.13</time>
<name>5000</name>
</trkpt>
<trkpt lat="48.926413" lon="8.663210">
<ele>391.5</ele>
<speed>1.23</speed>
<course>23.7</course>
<desc>Speed 4.4 km/h Distance 8.10 km</desc>
<time>2010-10-24T11:55:08.13</time>
<name>5001</name>
</trkpt>
<trkpt lat="48.926428" lon="8.663220">
<ele>392.0</ele>
<speed>1.50</speed>
<course>24.7</course>
<desc>Speed 5.4 km/h Distance 8.10 km</desc>
<time>2010-10-24T11:55:09.12</time>
<name>5002</name>
</trkpt>
<trkpt lat="48.926445" lon="8.663232">
<ele>392.5</ele>
<speed>1.57</speed>
<course>29.8</course>
<desc>Speed 5.7 km/h Distance 8.11 km</desc>
<time>2010-10-24T11:55:10.12</time>
<name>5003</name>
</trkpt>
<trkpt lat="48.926458" lon="8.663243">
<ele>392.5</ele>
<speed>1.26</speed>
<course>27.0</course>
<desc>Speed 4.5 km/h Distance 8.11 km</desc>
<time>2010-10-24T11:55:11.12</time>
<name>5004</name>
</trkpt>
<trkpt lat="48.926473" lon="8.663255">
<ele>392.5</ele>
<speed>1.33</speed>
<course>25.2</course>
<desc>Speed 4.8 km/h Distance 8.11 km</desc>
<time>2010-10-24T11:55:12.11</time>
<name>5005</name>
</trkpt>
<trkpt lat="48.926485" lon="8.663263">
<ele>392.5</ele>
<speed>1.25</speed>
<course>29.8</course>
<desc>Speed 4.5 km/h Distance 8.11 km</desc>
<time>2010-10-24T11:55:13.11</time>
<name>5006</name>
</trkpt>
<trkpt lat="48.926498" lon="8.663275">
<ele>392.5</ele>
<speed>1.49</speed>
<course>18.1</course>
<desc>Speed 5.4 km/h Distance 8.11 km</desc>
<time>2010-10-24T11:55:14.10</time>
<name>5007</name>
</trkpt>
<trkpt lat="48.926512" lon="8.663282">
<ele>392.5</ele>
<speed>1.19</speed>
<course>22.3</course>
<desc>Speed 4.3 km/h Distance 8.11 km</desc>
<time>2010-10-24T11:55:15.09</time>
<name>5008</name>
</trkpt>
<trkpt lat="48.926525" lon="8.663290">
<ele>392.0</ele>
<speed>1.30</speed>
<course>22.1</course>
<desc>Speed 4.7 km/h Distance 8.12 km</desc>
<time>2010-10-24T11:55:16.09</time>
<name>5009</name>
</trkpt>
<trkpt lat="48.926538" lon="8.663298">
<ele>392.0</ele>
<speed>1.25</speed>
<course>28.3</course>
<desc>Speed 4.5 km/h Distance 8.12 km</desc>
<time>2010-10-24T11:55:17.09</time>
<name>5010</name>
</trkpt>
<trkpt lat="48.926548" lon="8.663307">
<ele>392.0</ele>
<speed>1.05</speed>
<course>25.2</course>
<desc>Speed 3.8 km/h Distance 8.12 km</desc>
<time>2010-10-24T11:55:18.08</time>
<name>5011</name>
</trkpt>
<trkpt lat="48.926560" lon="8.663315">
<ele>392.5</ele>
<speed>1.34</speed>
<course>20.6</course>
<desc>Speed 4.8 km/h Distance 8.12 km</desc>
<time>2010-10-24T11:55:19.08</time>
<name>5012</name>
</trkpt>
<trkpt lat="48.926572" lon="8.663322">
<ele>393.0</ele>
<speed>1.40</speed>
<course>14.9</course>
<desc>Speed 5.0 km/h Distance 8.12 km</desc>
<time>2010-10-24T11:55:20.07</time>
<name>5013</name>
</trkpt>
<trkpt lat="48.926583" lon="8.663327">
<ele>393.0</ele>
<speed>1.21</speed>
<course>25.6</course>
<desc>Speed 4.4 km/h Distance 8.12 km</desc>
<time>2010-10-24T11:55:21.07</time>
<name>5014</name>
</trkpt>
<trkpt lat="48.926590" lon="8.663332">
<ele>393.0</ele>
<speed>0.64</speed>
<course>319.1</course>
<desc>Speed 2.3 km/h Distance 8.12 km</desc>
<time>2010-10-24T11:55:22.06</time>
<name>5015</name>
</trkpt>
<trkpt lat="48.926595" lon="8.663325">
<ele>392.5</ele>
<speed>0.68</speed>
<course>347.4</course>
<desc>Speed 2.4 km/h Distance 8.12 km</desc>
<time>2010-10-24T11:55:23.05</time>
<name>5016</name>
</trkpt>
<trkpt lat="48.926605" lon="8.663322">
<ele>392.0</ele>
<speed>0.87</speed>
<course>8.1</course>
<desc>Speed 3.1 km/h Distance 8.13 km</desc>
<time>2010-10-24T11:55:24.05</time>
<name>5017</name>
</trkpt>
<trkpt lat="48.926620" lon="8.663325">
<ele>392.5</ele>
<speed>1.38</speed>
<course>0.0</course>
<desc>Speed 5.0 km/h Distance 8.13 km</desc>
<time>2010-10-24T11:55:25.05</time>
<name>5018</name>
</trkpt>
<trkpt lat="48.926635" lon="8.663325">
<ele>393.0</ele>
<speed>1.34</speed>
<course>347.4</course>
<desc>Speed 4.8 km/h Distance 8.13 km</desc>
<time>2010-10-24T11:55:26.04</time>
<name>5019</name>
</trkpt>
<trkpt lat="48.926645" lon="8.663322">
<ele>393.0</ele>
<speed>0.93</speed>
<course>349.7</course>
<desc>Speed 3.3 km/h Distance 8.13 km</desc>
<time>2010-10-24T11:55:27.04</time>
<name>5020</name>
</trkpt>
<trkpt lat="48.926652" lon="8.663320">
<ele>393.0</ele>
<speed>0.70</speed>
<course>326.8</course>
<desc>Speed 2.5 km/h Distance 8.13 km</desc>
<time>2010-10-24T11:55:28.04</time>
<name>5021</name>
</trkpt>
<trkpt lat="48.926660" lon="8.663312">
<ele>392.5</ele>
<speed>0.95</speed>
<course>338.5</course>
<desc>Speed 3.4 km/h Distance 8.13 km</desc>
<time>2010-10-24T11:55:29.03</time>
<name>5022</name>
</trkpt>
<trkpt lat="48.926668" lon="8.663307">
<ele>392.5</ele>
<speed>0.91</speed>
<course>347.4</course>
<desc>Speed 3.3 km/h Distance 8.13 km</desc>
<time>2010-10-24T11:55:30.03</time>
<name>5023</name>
</trkpt>
<trkpt lat="48.926673" lon="8.663305">
<ele>392.5</ele>
<speed>0.57</speed>
<course>308.1</course>
<desc>Speed 2.1 km/h Distance 8.13 km</desc>
<time>2010-10-24T11:55:31.03</time>
<name>5024</name>
</trkpt>
<trkpt lat="48.926675" lon="8.663302">
<ele>391.5</ele>
<speed>0.40</speed>
<course>352.5</course>
<desc>Speed 1.4 km/h Distance 8.13 km</desc>
<time>2010-10-24T11:55:32.02</time>
<name>5025</name>
</trkpt>
<trkpt lat="48.926690" lon="8.663298">
<ele>392.0</ele>
<speed>1.34</speed>
<course>351.0</course>
<desc>Speed 4.8 km/h Distance 8.14 km</desc>
<time>2010-10-24T11:55:33.02</time>
<name>5026</name>
</trkpt>
<trkpt lat="48.926703" lon="8.663295">
<ele>391.5</ele>
<speed>1.24</speed>
<course>351.9</course>
<desc>Speed 4.5 km/h Distance 8.14 km</desc>
<time>2010-10-24T11:55:34.01</time>
<name>5027</name>
</trkpt>
<trkpt lat="48.926718" lon="8.663292">
<ele>392.0</ele>
<speed>1.17</speed>
<course>348.8</course>
<desc>Speed 4.2 km/h Distance 8.14 km</desc>
<time>2010-10-24T11:55:35.01</time>
<name>5028</name>
</trkpt>
<trkpt lat="48.926730" lon="8.663288">
<ele>391.5</ele>
<speed>1.07</speed>
<course>339.2</course>
<desc>Speed 3.9 km/h Distance 8.14 km</desc>
<time>2010-10-24T11:55:36.00</time>
<name>5029</name>
</trkpt>
<trkpt lat="48.926738" lon="8.663283">
<ele>391.5</ele>
<speed>0.88</speed>
<course>347.4</course>
<desc>Speed 3.2 km/h Distance 8.14 km</desc>
<time>2010-10-24T11:55:37.00</time>
<name>5030</name>
</trkpt>
<trkpt lat="48.926748" lon="8.663280">
<ele>391.0</ele>
<speed>0.87</speed>
<course>345.1</course>
<desc>Speed 3.1 km/h Distance 8.14 km</desc>
<time>2010-10-24T11:55:37.99</time>
<name>5031</name>
</trkpt>
<trkpt lat="48.926757" lon="8.663277">
<ele>390.5</ele>
<speed>0.66</speed>
<course>347.4</course>
<desc>Speed 2.4 km/h Distance 8.14 km</desc>
<time>2010-10-24T11:55:38.99</time>
<name>5032</name>
</trkpt>
<trkpt lat="48.926767" lon="8.663273">
<ele>390.5</ele>
<speed>0.87</speed>
<course>332.1</course>
<desc>Speed 3.1 km/h Distance 8.14 km</desc>
<time>2010-10-24T11:55:39.98</time>
<name>5033</name>
</trkpt>
<trkpt lat="48.926775" lon="8.663267">
<ele>390.0</ele>
<speed>0.95</speed>
<course>1.2</course>
<desc>Speed 3.4 km/h Distance 8.15 km</desc>
<time>2010-10-24T11:55:40.98</time>
<name>5034</name>
</trkpt>
<trkpt lat="48.926788" lon="8.663267">
<ele>390.0</ele>
<speed>1.26</speed>
<course>338.5</course>
<desc>Speed 4.5 km/h Distance 8.15 km</desc>
<time>2010-10-24T11:55:41.97</time>
<name>5035</name>
</trkpt>
<trkpt lat="48.926797" lon="8.663262">
<ele>389.0</ele>
<speed>0.61</speed>
<course>348.8</course>
<desc>Speed 2.2 km/h Distance 8.15 km</desc>
<time>2010-10-24T11:55:42.97</time>
<name>5036</name>
</trkpt>
<trkpt lat="48.926808" lon="8.663258">
<ele>388.5</ele>
<speed>1.01</speed>
<course>347.4</course>
<desc>Speed 3.6 km/h Distance 8.15 km</desc>
<time>2010-10-24T11:55:43.97</time>
<name>5037</name>
</trkpt>
<trkpt lat="48.926818" lon="8.663255">
<ele>388.0</ele>
<speed>1.14</speed>
<course>0.0</course>
<desc>Speed 4.1 km/h Distance 8.15 km</desc>
<time>2010-10-24T11:55:44.96</time>
<name>5038</name>
</trkpt>
<trkpt lat="48.926838" lon="8.663255">
<ele>389.0</ele>
<speed>1.44</speed>
<course>350.4</course>
<desc>Speed 5.2 km/h Distance 8.15 km</desc>
<time>2010-10-24T11:55:45.95</time>
<name>5039</name>
</trkpt>
<trkpt lat="48.926847" lon="8.663253">
<ele>389.0</ele>
<speed>0.89</speed>
<course>354.1</course>
<desc>Speed 3.2 km/h Distance 8.15 km</desc>
<time>2010-10-24T11:55:46.95</time>
<name>5040</name>
</trkpt>
<trkpt lat="48.926868" lon="8.663250">
<ele>390.0</ele>
<speed>1.00</speed>
<course>344.0</course>
<desc>Speed 3.6 km/h Distance 8.16 km</desc>
<time>2010-10-24T11:55:47.95</time>
<name>5041</name>
</trkpt>
<trkpt lat="48.926880" lon="8.663245">
<ele>390.0</ele>
<speed>1.24</speed>
<course>351.2</course>
<desc>Speed 4.5 km/h Distance 8.16 km</desc>
<time>2010-10-24T11:55:48.95</time>
<name>5042</name>
</trkpt>
<trkpt lat="48.926895" lon="8.663242">
<ele>390.0</ele>
<speed>1.50</speed>
<course>353.0</course>
<desc>Speed 5.4 km/h Distance 8.16 km</desc>
<time>2010-10-24T11:55:49.95</time>
<name>5043</name>
</trkpt>
<trkpt lat="48.926913" lon="8.663238">
<ele>390.0</ele>
<speed>1.39</speed>
<course>349.8</course>
<desc>Speed 5.0 km/h Distance 8.16 km</desc>
<time>2010-10-24T11:55:50.95</time>
<name>5044</name>
</trkpt>
<trkpt lat="48.926932" lon="8.663233">
<ele>390.0</ele>
<speed>1.25</speed>
<course>344.0</course>
<desc>Speed 4.5 km/h Distance 8.16 km</desc>
<time>2010-10-24T11:55:51.95</time>
<name>5045</name>
</trkpt>
<trkpt lat="48.926943" lon="8.663228">
<ele>390.0</ele>
<speed>1.17</speed>
<course>355.3</course>
<desc>Speed 4.2 km/h Distance 8.16 km</desc>
<time>2010-10-24T11:55:52.95</time>
<name>5046</name>
</trkpt>
<trkpt lat="48.926955" lon="8.663227">
<ele>390.0</ele>
<speed>1.01</speed>
<course>2.8</course>
<desc>Speed 3.6 km/h Distance 8.17 km</desc>
<time>2010-10-24T11:55:53.95</time>
<name>5047</name>
</trkpt>
<trkpt lat="48.926972" lon="8.663227">
<ele>390.5</ele>
<speed>1.48</speed>
<course>353.9</course>
<desc>Speed 5.3 km/h Distance 8.17 km</desc>
<time>2010-10-24T11:55:54.95</time>
<name>5048</name>
</trkpt>
<trkpt lat="48.926992" lon="8.663223">
<ele>391.0</ele>
<speed>1.46</speed>
<course>355.3</course>
<desc>Speed 5.3 km/h Distance 8.17 km</desc>
<time>2010-10-24T11:55:55.94</time>
<name>5049</name>
</trkpt>
<trkpt lat="48.927003" lon="8.663222">
<ele>391.0</ele>
<speed>0.75</speed>
<course>357.0</course>
<desc>Speed 2.7 km/h Distance 8.17 km</desc>
<time>2010-10-24T11:55:56.93</time>
<name>5050</name>
</trkpt>
<trkpt lat="48.927027" lon="8.663220">
<ele>391.5</ele>
<speed>1.37</speed>
<course>3.2</course>
<desc>Speed 4.9 km/h Distance 8.17 km</desc>
<time>2010-10-24T11:55:57.93</time>
<name>5051</name>
</trkpt>
<trkpt lat="48.927048" lon="8.663222">
<ele>392.0</ele>
<speed>1.33</speed>
<course>351.0</course>
<desc>Speed 4.8 km/h Distance 8.18 km</desc>
<time>2010-10-24T11:55:58.92</time>
<name>5052</name>
</trkpt>
<trkpt lat="48.927062" lon="8.663218">
<ele>391.5</ele>
<speed>1.20</speed>
<course>356.2</course>
<desc>Speed 4.3 km/h Distance 8.18 km</desc>
<time>2010-10-24T11:55:59.92</time>
<name>5053</name>
</trkpt>
<trkpt lat="48.927077" lon="8.663217">
<ele>391.5</ele>
<speed>1.29</speed>
<course>344.0</course>
<desc>Speed 4.6 km/h Distance 8.18 km</desc>
<time>2010-10-24T11:56:00.91</time>
<name>5054</name>
</trkpt>
<trkpt lat="48.927088" lon="8.663212">
<ele>391.0</ele>
<speed>1.20</speed>
<course>346.0</course>
<desc>Speed 4.3 km/h Distance 8.18 km</desc>
<time>2010-10-24T11:56:01.91</time>
<name>5055</name>
</trkpt>
<trkpt lat="48.927102" lon="8.663207">
<ele>390.5</ele>
<speed>0.94</speed>
<course>356.2</course>
<desc>Speed 3.4 km/h Distance 8.18 km</desc>
<time>2010-10-24T11:56:02.90</time>
<name>5056</name>
</trkpt>
<trkpt lat="48.927117" lon="8.663205">
<ele>390.5</ele>
<speed>1.00</speed>
<course>350.3</course>
<desc>Speed 3.6 km/h Distance 8.18 km</desc>
<time>2010-10-24T11:56:03.90</time>
<name>5057</name>
</trkpt>
<trkpt lat="48.927130" lon="8.663202">
<ele>390.5</ele>
<speed>1.00</speed>
<course>351.9</course>
<desc>Speed 3.6 km/h Distance 8.19 km</desc>
<time>2010-10-24T11:56:04.90</time>
<name>5058</name>
</trkpt>
<trkpt lat="48.927140" lon="8.663200">
<ele>390.0</ele>
<speed>1.03</speed>
<course>351.2</course>
<desc>Speed 3.7 km/h Distance 8.19 km</desc>
<time>2010-10-24T11:56:05.89</time>
<name>5059</name>
</trkpt>
<trkpt lat="48.927155" lon="8.663197">
<ele>390.5</ele>
<speed>1.23</speed>
<course>351.9</course>
<desc>Speed 4.4 km/h Distance 8.19 km</desc>
<time>2010-10-24T11:56:06.88</time>
<name>5060</name>
</trkpt>
<trkpt lat="48.927170" lon="8.663193">
<ele>391.0</ele>
<speed>1.12</speed>
<course>346.0</course>
<desc>Speed 4.0 km/h Distance 8.19 km</desc>
<time>2010-10-24T11:56:07.88</time>
<name>5061</name>
</trkpt>
<trkpt lat="48.927183" lon="8.663188">
<ele>391.0</ele>
<speed>0.91</speed>
<course>346.0</course>
<desc>Speed 3.3 km/h Distance 8.19 km</desc>
<time>2010-10-24T11:56:08.88</time>
<name>5062</name>
</trkpt>
<trkpt lat="48.927197" lon="8.663183">
<ele>390.5</ele>
<speed>1.27</speed>
<course>332.1</course>
<desc>Speed 4.6 km/h Distance 8.19 km</desc>
<time>2010-10-24T11:56:09.88</time>
<name>5063</name>
</trkpt>
<trkpt lat="48.927205" lon="8.663177">
<ele>390.0</ele>
<speed>0.87</speed>
<course>351.2</course>
<desc>Speed 3.1 km/h Distance 8.19 km</desc>
<time>2010-10-24T11:56:10.87</time>
<name>5064</name>
</trkpt>
<trkpt lat="48.927220" lon="8.663173">
<ele>390.5</ele>
<speed>1.15</speed>
<course>1.5</course>
<desc>Speed 4.1 km/h Distance 8.20 km</desc>
<time>2010-10-24T11:56:11.87</time>
<name>5065</name>
</trkpt>
<trkpt lat="48.927245" lon="8.663173">
<ele>390.5</ele>
<speed>2.25</speed>
<course>357.8</course>
<desc>Speed 8.1 km/h Distance 8.20 km</desc>
<time>2010-10-24T11:56:12.85</time>
<name>5066</name>
</trkpt>
<trkpt lat="48.927268" lon="8.663172">
<ele>391.0</ele>
<speed>1.82</speed>
<course>319.1</course>
<desc>Speed 6.6 km/h Distance 8.20 km</desc>
<time>2010-10-24T11:56:13.84</time>
<name>5067</name>
</trkpt>
<trkpt lat="48.927273" lon="8.663165">
<ele>390.5</ele>
<speed>0.76</speed>
<course>326.8</course>
<desc>Speed 2.7 km/h Distance 8.20 km</desc>
<time>2010-10-24T11:56:14.84</time>
<name>5068</name>
</trkpt>
<trkpt lat="48.927283" lon="8.663155">
<ele>389.5</ele>
<speed>1.22</speed>
<course>341.8</course>
<desc>Speed 4.4 km/h Distance 8.20 km</desc>
<time>2010-10-24T11:56:15.83</time>
<name>5069</name>
</trkpt>
<trkpt lat="48.927293" lon="8.663150">
<ele>389.0</ele>
<speed>0.92</speed>
<course>354.7</course>
<desc>Speed 3.3 km/h Distance 8.20 km</desc>
<time>2010-10-24T11:56:16.82</time>
<name>5070</name>
</trkpt>
<trkpt lat="48.927307" lon="8.663148">
<ele>389.0</ele>
<speed>0.91</speed>
<course>348.4</course>
<desc>Speed 3.3 km/h Distance 8.21 km</desc>
<time>2010-10-24T11:56:17.83</time>
<name>5071</name>
</trkpt>
<trkpt lat="48.927317" lon="8.663145">
<ele>388.5</ele>
<speed>0.89</speed>
<course>2.2</course>
<desc>Speed 3.2 km/h Distance 8.21 km</desc>
<time>2010-10-24T11:56:18.82</time>
<name>5072</name>
</trkpt>
<trkpt lat="48.927328" lon="8.663145">
<ele>389.0</ele>
<speed>1.12</speed>
<course>347.4</course>
<desc>Speed 4.0 km/h Distance 8.21 km</desc>
<time>2010-10-24T11:56:19.82</time>
<name>5073</name>
</trkpt>
<trkpt lat="48.927338" lon="8.663142">
<ele>389.0</ele>
<speed>1.17</speed>
<course>355.3</course>
<desc>Speed 4.2 km/h Distance 8.21 km</desc>
<time>2010-10-24T11:56:20.81</time>
<name>5074</name>
</trkpt>
<trkpt lat="48.927350" lon="8.663140">
<ele>389.0</ele>
<speed>0.81</speed>
<course>332.1</course>
<desc>Speed 2.9 km/h Distance 8.21 km</desc>
<time>2010-10-24T11:56:21.80</time>
<name>5075</name>
</trkpt>
<trkpt lat="48.927358" lon="8.663133">
<ele>388.5</ele>
<speed>0.94</speed>
<course>353.5</course>
<desc>Speed 3.4 km/h Distance 8.21 km</desc>
<time>2010-10-24T11:56:22.80</time>
<name>5076</name>
</trkpt>
<trkpt lat="48.927375" lon="8.663130">
<ele>389.0</ele>
<speed>0.83</speed>
<course>326.8</course>
<desc>Speed 3.0 km/h Distance 8.21 km</desc>
<time>2010-10-24T11:56:23.79</time>
<name>5077</name>
</trkpt>
<trkpt lat="48.927382" lon="8.663123">
<ele>388.5</ele>
<speed>0.74</speed>
<course>356.2</course>
<desc>Speed 2.7 km/h Distance 8.21 km</desc>
<time>2010-10-24T11:56:24.80</time>
<name>5078</name>
</trkpt>
<trkpt lat="48.927397" lon="8.663122">
<ele>389.0</ele>
<speed>1.15</speed>
<course>355.6</course>
<desc>Speed 4.1 km/h Distance 8.22 km</desc>
<time>2010-10-24T11:56:25.80</time>
<name>5079</name>
</trkpt>
<trkpt lat="48.927407" lon="8.663120">
<ele>389.0</ele>
<speed>1.08</speed>
<course>0.0</course>
<desc>Speed 3.9 km/h Distance 8.22 km</desc>
<time>2010-10-24T11:56:26.79</time>
<name>5080</name>
</trkpt>
<trkpt lat="48.927423" lon="8.663120">
<ele>389.5</ele>
<speed>0.77</speed>
<course>1.2</course>
<desc>Speed 2.8 km/h Distance 8.22 km</desc>
<time>2010-10-24T11:56:27.79</time>
<name>5081</name>
</trkpt>
<trkpt lat="48.927437" lon="8.663120">
<ele>389.5</ele>
<speed>1.26</speed>
<course>10.8</course>
<desc>Speed 4.5 km/h Distance 8.22 km</desc>
<time>2010-10-24T11:56:28.77</time>
<name>5082</name>
</trkpt>
<trkpt lat="48.927453" lon="8.663125">
<ele>390.0</ele>
<speed>1.64</speed>
<course>18.1</course>
<desc>Speed 5.9 km/h Distance 8.22 km</desc>
<time>2010-10-24T11:56:29.77</time>
<name>5083</name>
</trkpt>
<trkpt lat="48.927470" lon="8.663133">
<ele>390.5</ele>
<speed>1.30</speed>
<course>27.7</course>
<desc>Speed 4.7 km/h Distance 8.22 km</desc>
<time>2010-10-24T11:56:30.76</time>
<name>5084</name>
</trkpt>
<trkpt lat="48.927487" lon="8.663147">
<ele>391.0</ele>
<speed>1.50</speed>
<course>38.3</course>
<desc>Speed 5.4 km/h Distance 8.23 km</desc>
<time>2010-10-24T11:56:31.76</time>
<name>5085</name>
</trkpt>
<trkpt lat="48.927503" lon="8.663167">
<ele>391.0</ele>
<speed>1.62</speed>
<course>31.3</course>
<desc>Speed 5.8 km/h Distance 8.23 km</desc>
<time>2010-10-24T11:56:32.75</time>
<name>5086</name>
</trkpt>
<trkpt lat="48.927525" lon="8.663187">
<ele>392.5</ele>
<speed>1.75</speed>
<course>43.5</course>
<desc>Speed 6.3 km/h Distance 8.23 km</desc>
<time>2010-10-24T11:56:33.75</time>
<name>5087</name>
</trkpt>
<trkpt lat="48.927540" lon="8.663208">
<ele>394.0</ele>
<speed>1.60</speed>
<course>50.3</course>
<desc>Speed 5.8 km/h Distance 8.23 km</desc>
<time>2010-10-24T11:56:34.74</time>
<name>5088</name>
</trkpt>
<trkpt lat="48.927550" lon="8.663227">
<ele>395.0</ele>
<speed>1.37</speed>
<course>80.4</course>
<desc>Speed 4.9 km/h Distance 8.24 km</desc>
<time>2010-10-24T11:56:35.73</time>
<name>5089</name>
</trkpt>
<trkpt lat="48.927552" lon="8.663242">
<ele>395.0</ele>
<speed>1.02</speed>
<course>62.6</course>
<desc>Speed 3.7 km/h Distance 8.24 km</desc>
<time>2010-10-24T11:56:36.74</time>
<name>5090</name>
</trkpt>
<trkpt lat="48.927553" lon="8.663247">
<ele>395.5</ele>
<speed>0.47</speed>
<course>13.2</course>
<desc>Speed 1.7 km/h Distance 8.24 km</desc>
<time>2010-10-24T11:56:37.73</time>
<name>5091</name>
</trkpt>
<trkpt lat="48.927577" lon="8.663255">
<ele>396.5</ele>
<speed>0.43</speed>
<course>90.0</course>
<desc>Speed 1.5 km/h Distance 8.24 km</desc>
<time>2010-10-24T11:56:44.73</time>
<name>5092</name>
</trkpt>
<trkpt lat="48.927577" lon="8.663267">
<ele>396.5</ele>
<speed>0.75</speed>
<course>11.7</course>
<desc>Speed 2.7 km/h Distance 8.24 km</desc>
<time>2010-10-24T11:56:45.73</time>
<name>5093</name>
</trkpt>
<trkpt lat="48.927635" lon="8.663285">
<ele>396.5</ele>
<speed>0.37</speed>
<course>49.7</course>
<desc>Speed 1.3 km/h Distance 8.25 km</desc>
<time>2010-10-24T11:56:59.72</time>
<name>5094</name>
</trkpt>
<trkpt lat="48.927643" lon="8.663300">
<ele>396.0</ele>
<speed>1.25</speed>
<course>57.7</course>
<desc>Speed 4.5 km/h Distance 8.25 km</desc>
<time>2010-10-24T11:57:00.71</time>
<name>5095</name>
</trkpt>
<trkpt lat="48.927652" lon="8.663320">
<ele>396.0</ele>
<speed>1.52</speed>
<course>70.6</course>
<desc>Speed 5.5 km/h Distance 8.25 km</desc>
<time>2010-10-24T11:57:01.70</time>
<name>5096</name>
</trkpt>
<trkpt lat="48.927657" lon="8.663342">
<ele>395.5</ele>
<speed>1.54</speed>
<course>83.3</course>
<desc>Speed 5.5 km/h Distance 8.25 km</desc>
<time>2010-10-24T11:57:02.70</time>
<name>5097</name>
</trkpt>
<trkpt lat="48.927658" lon="8.663363">
<ele>395.5</ele>
<speed>1.62</speed>
<course>83.3</course>
<desc>Speed 5.8 km/h Distance 8.25 km</desc>
<time>2010-10-24T11:57:03.69</time>
<name>5098</name>
</trkpt>
<trkpt lat="48.927660" lon="8.663385">
<ele>395.5</ele>
<speed>1.60</speed>
<course>75.8</course>
<desc>Speed 5.8 km/h Distance 8.26 km</desc>
<time>2010-10-24T11:57:04.68</time>
<name>5099</name>
</trkpt>
<trkpt lat="48.927663" lon="8.663405">
<ele>395.5</ele>
<speed>1.54</speed>
<course>76.8</course>
<desc>Speed 5.5 km/h Distance 8.26 km</desc>
<time>2010-10-24T11:57:05.68</time>
<name>5100</name>
</trkpt>
<trkpt lat="48.927667" lon="8.663427">
<ele>395.5</ele>
<speed>1.62</speed>
<course>76.8</course>
<desc>Speed 5.8 km/h Distance 8.26 km</desc>
<time>2010-10-24T11:57:06.68</time>
<name>5101</name>
</trkpt>
<trkpt lat="48.927670" lon="8.663448">
<ele>395.0</ele>
<speed>1.62</speed>
<course>83.3</course>
<desc>Speed 5.8 km/h Distance 8.26 km</desc>
<time>2010-10-24T11:57:07.68</time>
<name>5102</name>
</trkpt>
<trkpt lat="48.927672" lon="8.663470">
<ele>395.0</ele>
<speed>1.59</speed>
<course>83.3</course>
<desc>Speed 5.7 km/h Distance 8.26 km</desc>
<time>2010-10-24T11:57:08.68</time>
<name>5103</name>
</trkpt>
<trkpt lat="48.927673" lon="8.663492">
<ele>394.5</ele>
<speed>1.51</speed>
<course>90.0</course>
<desc>Speed 5.4 km/h Distance 8.26 km</desc>
<time>2010-10-24T11:57:09.67</time>
<name>5104</name>
</trkpt>
<trkpt lat="48.927673" lon="8.663515">
<ele>394.5</ele>
<speed>1.61</speed>
<course>96.7</course>
<desc>Speed 5.8 km/h Distance 8.27 km</desc>
<time>2010-10-24T11:57:10.66</time>
<name>5105</name>
</trkpt>
<trkpt lat="48.927672" lon="8.663537">
<ele>394.0</ele>
<speed>1.64</speed>
<course>96.7</course>
<desc>Speed 5.9 km/h Distance 8.27 km</desc>
<time>2010-10-24T11:57:11.66</time>
<name>5106</name>
</trkpt>
<trkpt lat="48.927670" lon="8.663558">
<ele>393.5</ele>
<speed>1.69</speed>
<course>82.8</course>
<desc>Speed 6.1 km/h Distance 8.27 km</desc>
<time>2010-10-24T11:57:12.66</time>
<name>5107</name>
</trkpt>
<trkpt lat="48.927672" lon="8.663578">
<ele>393.5</ele>
<speed>1.57</speed>
<course>83.3</course>
<desc>Speed 5.7 km/h Distance 8.27 km</desc>
<time>2010-10-24T11:57:13.65</time>
<name>5108</name>
</trkpt>
<trkpt lat="48.927673" lon="8.663600">
<ele>393.0</ele>
<speed>1.55</speed>
<course>76.8</course>
<desc>Speed 5.6 km/h Distance 8.27 km</desc>
<time>2010-10-24T11:57:14.66</time>
<name>5109</name>
</trkpt>
<trkpt lat="48.927677" lon="8.663622">
<ele>393.0</ele>
<speed>1.59</speed>
<course>77.7</course>
<desc>Speed 5.7 km/h Distance 8.27 km</desc>
<time>2010-10-24T11:57:15.64</time>
<name>5110</name>
</trkpt>
<trkpt lat="48.927680" lon="8.663645">
<ele>393.0</ele>
<speed>1.62</speed>
<course>70.6</course>
<desc>Speed 5.8 km/h Distance 8.28 km</desc>
<time>2010-10-24T11:57:16.64</time>
<name>5111</name>
</trkpt>
<trkpt lat="48.927685" lon="8.663667">
<ele>393.0</ele>
<speed>1.65</speed>
<course>78.5</course>
<desc>Speed 5.9 km/h Distance 8.28 km</desc>
<time>2010-10-24T11:57:17.63</time>
<name>5112</name>
</trkpt>
<trkpt lat="48.927688" lon="8.663692">
<ele>392.5</ele>
<speed>1.76</speed>
<course>83.3</course>
<desc>Speed 6.3 km/h Distance 8.28 km</desc>
<time>2010-10-24T11:57:18.63</time>
<name>5113</name>
</trkpt>
<trkpt lat="48.927690" lon="8.663713">
<ele>392.5</ele>
<speed>1.69</speed>
<course>83.3</course>
<desc>Speed 6.1 km/h Distance 8.28 km</desc>
<time>2010-10-24T11:57:19.63</time>
<name>5114</name>
</trkpt>
<trkpt lat="48.927692" lon="8.663735">
<ele>392.0</ele>
<speed>1.54</speed>
<course>78.5</course>
<desc>Speed 5.5 km/h Distance 8.28 km</desc>
<time>2010-10-24T11:57:20.62</time>
<name>5115</name>
</trkpt>
<trkpt lat="48.927695" lon="8.663760">
<ele>392.0</ele>
<speed>1.69</speed>
<course>77.7</course>
<desc>Speed 6.1 km/h Distance 8.28 km</desc>
<time>2010-10-24T11:57:21.62</time>
<name>5116</name>
</trkpt>
<trkpt lat="48.927698" lon="8.663783">
<ele>392.0</ele>
<speed>1.67</speed>
<course>83.8</course>
<desc>Speed 6.0 km/h Distance 8.29 km</desc>
<time>2010-10-24T11:57:22.62</time>
<name>5117</name>
</trkpt>
<trkpt lat="48.927700" lon="8.663807">
<ele>392.0</ele>
<speed>1.63</speed>
<course>73.1</course>
<desc>Speed 5.9 km/h Distance 8.29 km</desc>
<time>2010-10-24T11:57:23.62</time>
<name>5118</name>
</trkpt>
<trkpt lat="48.927705" lon="8.663832">
<ele>391.5</ele>
<speed>1.71</speed>
<course>78.5</course>
<desc>Speed 6.2 km/h Distance 8.29 km</desc>
<time>2010-10-24T11:57:24.61</time>
<name>5119</name>
</trkpt>
<trkpt lat="48.927708" lon="8.663857">
<ele>391.5</ele>
<speed>1.75</speed>
<course>78.5</course>
<desc>Speed 6.3 km/h Distance 8.29 km</desc>
<time>2010-10-24T11:57:25.61</time>
<name>5120</name>
</trkpt>
<trkpt lat="48.927712" lon="8.663882">
<ele>391.5</ele>
<speed>1.72</speed>
<course>77.7</course>
<desc>Speed 6.2 km/h Distance 8.29 km</desc>
<time>2010-10-24T11:57:26.61</time>
<name>5121</name>
</trkpt>
<trkpt lat="48.927715" lon="8.663905">
<ele>391.5</ele>
<speed>1.65</speed>
<course>83.8</course>
<desc>Speed 5.9 km/h Distance 8.29 km</desc>
<time>2010-10-24T11:57:27.61</time>
<name>5122</name>
</trkpt>
<trkpt lat="48.927717" lon="8.663928">
<ele>391.0</ele>
<speed>1.66</speed>
<course>90.0</course>
<desc>Speed 6.0 km/h Distance 8.30 km</desc>
<time>2010-10-24T11:57:28.60</time>
<name>5123</name>
</trkpt>
<trkpt lat="48.927717" lon="8.663952">
<ele>391.0</ele>
<speed>1.63</speed>
<course>83.3</course>
<desc>Speed 5.9 km/h Distance 8.30 km</desc>
<time>2010-10-24T11:57:29.60</time>
<name>5124</name>
</trkpt>
<trkpt lat="48.927718" lon="8.663973">
<ele>391.0</ele>
<speed>1.65</speed>
<course>83.8</course>
<desc>Speed 5.9 km/h Distance 8.30 km</desc>
<time>2010-10-24T11:57:30.60</time>
<name>5125</name>
</trkpt>
<trkpt lat="48.927720" lon="8.663997">
<ele>391.0</ele>
<speed>1.69</speed>
<course>83.3</course>
<desc>Speed 6.1 km/h Distance 8.30 km</desc>
<time>2010-10-24T11:57:31.60</time>
<name>5126</name>
</trkpt>
<trkpt lat="48.927722" lon="8.664018">
<ele>390.5</ele>
<speed>1.72</speed>
<course>77.7</course>
<desc>Speed 6.2 km/h Distance 8.30 km</desc>
<time>2010-10-24T11:57:32.60</time>
<name>5127</name>
</trkpt>
<trkpt lat="48.927725" lon="8.664042">
<ele>390.5</ele>
<speed>1.67</speed>
<course>97.2</course>
<desc>Speed 6.0 km/h Distance 8.30 km</desc>
<time>2010-10-24T11:57:33.60</time>
<name>5128</name>
</trkpt>
<trkpt lat="48.927723" lon="8.664062">
<ele>390.0</ele>
<speed>1.62</speed>
<course>77.7</course>
<desc>Speed 5.8 km/h Distance 8.31 km</desc>
<time>2010-10-24T11:57:34.60</time>
<name>5129</name>
</trkpt>
<trkpt lat="48.927727" lon="8.664085">
<ele>390.5</ele>
<speed>1.67</speed>
<course>83.3</course>
<desc>Speed 6.0 km/h Distance 8.31 km</desc>
<time>2010-10-24T11:57:35.59</time>
<name>5130</name>
</trkpt>
<trkpt lat="48.927728" lon="8.664107">
<ele>390.0</ele>
<speed>1.61</speed>
<course>82.1</course>
<desc>Speed 5.8 km/h Distance 8.31 km</desc>
<time>2010-10-24T11:57:36.58</time>
<name>5131</name>
</trkpt>
<trkpt lat="48.927730" lon="8.664125">
<ele>390.0</ele>
<speed>1.42</speed>
<course>76.8</course>
<desc>Speed 5.1 km/h Distance 8.31 km</desc>
<time>2010-10-24T11:57:37.58</time>
<name>5132</name>
</trkpt>
<trkpt lat="48.927733" lon="8.664147">
<ele>390.0</ele>
<speed>1.50</speed>
<course>76.8</course>
<desc>Speed 5.4 km/h Distance 8.31 km</desc>
<time>2010-10-24T11:57:38.58</time>
<name>5133</name>
</trkpt>
<trkpt lat="48.927737" lon="8.664168">
<ele>390.5</ele>
<speed>1.58</speed>
<course>82.8</course>
<desc>Speed 5.7 km/h Distance 8.31 km</desc>
<time>2010-10-24T11:57:39.58</time>
<name>5134</name>
</trkpt>
<trkpt lat="48.927738" lon="8.664188">
<ele>390.0</ele>
<speed>1.48</speed>
<course>76.8</course>
<desc>Speed 5.3 km/h Distance 8.32 km</desc>
<time>2010-10-24T11:57:40.58</time>
<name>5135</name>
</trkpt>
<trkpt lat="48.927742" lon="8.664210">
<ele>390.5</ele>
<speed>1.58</speed>
<course>76.8</course>
<desc>Speed 5.7 km/h Distance 8.32 km</desc>
<time>2010-10-24T11:57:41.58</time>
<name>5136</name>
</trkpt>
<trkpt lat="48.927745" lon="8.664232">
<ele>390.5</ele>
<speed>1.61</speed>
<course>83.8</course>
<desc>Speed 5.8 km/h Distance 8.32 km</desc>
<time>2010-10-24T11:57:42.58</time>
<name>5137</name>
</trkpt>
<trkpt lat="48.927747" lon="8.664255">
<ele>390.0</ele>
<speed>1.59</speed>
<course>83.3</course>
<desc>Speed 5.7 km/h Distance 8.32 km</desc>
<time>2010-10-24T11:57:43.57</time>
<name>5138</name>
</trkpt>
<trkpt lat="48.927748" lon="8.664277">
<ele>390.0</ele>
<speed>1.60</speed>
<course>76.8</course>
<desc>Speed 5.8 km/h Distance 8.32 km</desc>
<time>2010-10-24T11:57:44.57</time>
<name>5139</name>
</trkpt>
<trkpt lat="48.927752" lon="8.664298">
<ele>389.5</ele>
<speed>1.58</speed>
<course>83.3</course>
<desc>Speed 5.7 km/h Distance 8.32 km</desc>
<time>2010-10-24T11:57:45.57</time>
<name>5140</name>
</trkpt>
<trkpt lat="48.927753" lon="8.664320">
<ele>389.5</ele>
<speed>1.58</speed>
<course>83.8</course>
<desc>Speed 5.7 km/h Distance 8.33 km</desc>
<time>2010-10-24T11:57:46.57</time>
<name>5141</name>
</trkpt>
<trkpt lat="48.927755" lon="8.664343">
<ele>389.5</ele>
<speed>1.55</speed>
<course>90.0</course>
<desc>Speed 5.6 km/h Distance 8.33 km</desc>
<time>2010-10-24T11:57:47.57</time>
<name>5142</name>
</trkpt>
<trkpt lat="48.927755" lon="8.664365">
<ele>389.5</ele>
<speed>1.60</speed>
<course>83.8</course>
<desc>Speed 5.8 km/h Distance 8.33 km</desc>
<time>2010-10-24T11:57:48.57</time>
<name>5143</name>
</trkpt>
<trkpt lat="48.927757" lon="8.664388">
<ele>389.5</ele>
<speed>1.65</speed>
<course>82.8</course>
<desc>Speed 5.9 km/h Distance 8.33 km</desc>
<time>2010-10-24T11:57:49.57</time>
<name>5144</name>
</trkpt>
<trkpt lat="48.927758" lon="8.664408">
<ele>389.5</ele>
<speed>1.59</speed>
<course>83.3</course>
<desc>Speed 5.7 km/h Distance 8.33 km</desc>
<time>2010-10-24T11:57:50.57</time>
<name>5145</name>
</trkpt>
<trkpt lat="48.927760" lon="8.664430">
<ele>389.0</ele>
<speed>1.59</speed>
<course>83.3</course>
<desc>Speed 5.7 km/h Distance 8.33 km</desc>
<time>2010-10-24T11:57:51.57</time>
<name>5146</name>
</trkpt>
<trkpt lat="48.927762" lon="8.664452">
<ele>389.0</ele>
<speed>1.51</speed>
<course>90.0</course>
<desc>Speed 5.4 km/h Distance 8.33 km</desc>
<time>2010-10-24T11:57:52.57</time>
<name>5147</name>
</trkpt>
<trkpt lat="48.927762" lon="8.664472">
<ele>389.0</ele>
<speed>1.52</speed>
<course>82.8</course>
<desc>Speed 5.5 km/h Distance 8.34 km</desc>
<time>2010-10-24T11:57:53.57</time>
<name>5148</name>
</trkpt>
<trkpt lat="48.927763" lon="8.664492">
<ele>388.5</ele>
<speed>1.57</speed>
<course>73.1</course>
<desc>Speed 5.7 km/h Distance 8.34 km</desc>
<time>2010-10-24T11:57:54.57</time>
<name>5149</name>
</trkpt>
<trkpt lat="48.927768" lon="8.664517">
<ele>389.5</ele>
<speed>1.63</speed>
<course>77.7</course>
<desc>Speed 5.9 km/h Distance 8.34 km</desc>
<time>2010-10-24T11:57:55.57</time>
<name>5150</name>
</trkpt>
<trkpt lat="48.927772" lon="8.664540">
<ele>389.5</ele>
<speed>1.67</speed>
<course>76.8</course>
<desc>Speed 6.0 km/h Distance 8.34 km</desc>
<time>2010-10-24T11:57:56.57</time>
<name>5151</name>
</trkpt>
<trkpt lat="48.927775" lon="8.664562">
<ele>389.5</ele>
<speed>1.53</speed>
<course>90.0</course>
<desc>Speed 5.5 km/h Distance 8.34 km</desc>
<time>2010-10-24T11:57:57.57</time>
<name>5152</name>
</trkpt>
<trkpt lat="48.927775" lon="8.664583">
<ele>389.5</ele>
<speed>1.47</speed>
<course>71.9</course>
<desc>Speed 5.3 km/h Distance 8.34 km</desc>
<time>2010-10-24T11:57:58.57</time>
<name>5153</name>
</trkpt>
<trkpt lat="48.927780" lon="8.664607">
<ele>390.0</ele>
<speed>1.61</speed>
<course>96.7</course>
<desc>Speed 5.8 km/h Distance 8.35 km</desc>
<time>2010-10-24T11:57:59.57</time>
<name>5154</name>
</trkpt>
<trkpt lat="48.927778" lon="8.664628">
<ele>389.5</ele>
<speed>1.58</speed>
<course>104.2</course>
<desc>Speed 5.7 km/h Distance 8.35 km</desc>
<time>2010-10-24T11:58:00.57</time>
<name>5155</name>
</trkpt>
<trkpt lat="48.927775" lon="8.664648">
<ele>389.5</ele>
<speed>1.50</speed>
<course>164.9</course>
<desc>Speed 5.4 km/h Distance 8.35 km</desc>
<time>2010-10-24T11:58:01.57</time>
<name>5156</name>
</trkpt>
<trkpt lat="48.927747" lon="8.664660">
<ele>389.5</ele>
<speed>3.21</speed>
<course>27.7</course>
<desc>Speed 11.6 km/h Distance 8.35 km</desc>
<time>2010-10-24T11:58:02.57</time>
<name>5157</name>
</trkpt>
<trkpt lat="48.927763" lon="8.664673">
<ele>389.0</ele>
<speed>2.33</speed>
<course>81.3</course>
<desc>Speed 8.4 km/h Distance 8.36 km</desc>
<time>2010-10-24T11:58:03.57</time>
<name>5158</name>
</trkpt>
<trkpt lat="48.927765" lon="8.664690">
<ele>388.5</ele>
<speed>1.14</speed>
<course>90.0</course>
<desc>Speed 4.1 km/h Distance 8.36 km</desc>
<time>2010-10-24T11:58:04.57</time>
<name>5159</name>
</trkpt>
<trkpt lat="48.927765" lon="8.664710">
<ele>388.5</ele>
<speed>1.42</speed>
<course>96.7</course>
<desc>Speed 5.1 km/h Distance 8.36 km</desc>
<time>2010-10-24T11:58:05.57</time>
<name>5160</name>
</trkpt>
<trkpt lat="48.927763" lon="8.664732">
<ele>388.0</ele>
<speed>1.51</speed>
<course>69.2</course>
<desc>Speed 5.4 km/h Distance 8.36 km</desc>
<time>2010-10-24T11:58:06.57</time>
<name>5161</name>
</trkpt>
<trkpt lat="48.927770" lon="8.664758">
<ele>389.0</ele>
<speed>1.47</speed>
<course>126.1</course>
<desc>Speed 5.3 km/h Distance 8.36 km</desc>
<time>2010-10-24T11:58:07.57</time>
<name>5162</name>
</trkpt>
<trkpt lat="48.927768" lon="8.664762">
<ele>389.0</ele>
<speed>0.40</speed>
<course>90.0</course>
<desc>Speed 1.4 km/h Distance 8.36 km</desc>
<time>2010-10-24T11:58:08.57</time>
<name>5163</name>
</trkpt>
<trkpt lat="48.927768" lon="8.664768">
<ele>389.5</ele>
<speed>0.43</speed>
<course>57.1</course>
<desc>Speed 1.5 km/h Distance 8.36 km</desc>
<time>2010-10-24T11:58:09.57</time>
<name>5164</name>
</trkpt>
<trkpt lat="48.927773" lon="8.664780">
<ele>389.5</ele>
<speed>1.00</speed>
<course>70.6</course>
<desc>Speed 3.6 km/h Distance 8.36 km</desc>
<time>2010-10-24T11:58:11.57</time>
<name>5165</name>
</trkpt>
<trkpt lat="48.927778" lon="8.664802">
<ele>389.5</ele>
<speed>1.62</speed>
<course>77.7</course>
<desc>Speed 5.8 km/h Distance 8.36 km</desc>
<time>2010-10-24T11:58:12.57</time>
<name>5166</name>
</trkpt>
<trkpt lat="48.927782" lon="8.664825">
<ele>389.0</ele>
<speed>1.66</speed>
<course>84.2</course>
<desc>Speed 6.0 km/h Distance 8.37 km</desc>
<time>2010-10-24T11:58:13.57</time>
<name>5167</name>
</trkpt>
<trkpt lat="48.927783" lon="8.664850">
<ele>389.0</ele>
<speed>1.70</speed>
<course>83.8</course>
<desc>Speed 6.1 km/h Distance 8.37 km</desc>
<time>2010-10-24T11:58:14.57</time>
<name>5168</name>
</trkpt>
<trkpt lat="48.927785" lon="8.664873">
<ele>389.0</ele>
<speed>1.65</speed>
<course>90.0</course>
<desc>Speed 5.9 km/h Distance 8.37 km</desc>
<time>2010-10-24T11:58:15.57</time>
<name>5169</name>
</trkpt>
<trkpt lat="48.927785" lon="8.664895">
<ele>389.0</ele>
<speed>1.45</speed>
<course>161.2</course>
<desc>Speed 5.2 km/h Distance 8.37 km</desc>
<time>2010-10-24T11:58:16.57</time>
<name>5170</name>
</trkpt>
<trkpt lat="48.927782" lon="8.664897">
<ele>388.5</ele>
<speed>0.41</speed>
<course>90.0</course>
<desc>Speed 1.5 km/h Distance 8.37 km</desc>
<time>2010-10-24T11:58:17.57</time>
<name>5171</name>
</trkpt>
<trkpt lat="48.927782" lon="8.664908">
<ele>388.0</ele>
<speed>0.87</speed>
<course>71.3</course>
<desc>Speed 3.1 km/h Distance 8.37 km</desc>
<time>2010-10-24T11:58:18.57</time>
<name>5172</name>
</trkpt>
<trkpt lat="48.927785" lon="8.664923">
<ele>388.5</ele>
<speed>0.74</speed>
<course>77.7</course>
<desc>Speed 2.7 km/h Distance 8.37 km</desc>
<time>2010-10-24T11:58:20.57</time>
<name>5173</name>
</trkpt>
<trkpt lat="48.927788" lon="8.664947">
<ele>388.5</ele>
<speed>1.47</speed>
<course>84.6</course>
<desc>Speed 5.3 km/h Distance 8.38 km</desc>
<time>2010-10-24T11:58:21.57</time>
<name>5174</name>
</trkpt>
<trkpt lat="48.927790" lon="8.664973">
<ele>388.5</ele>
<speed>1.75</speed>
<course>79.8</course>
<desc>Speed 6.3 km/h Distance 8.38 km</desc>
<time>2010-10-24T11:58:22.57</time>
<name>5175</name>
</trkpt>
<trkpt lat="48.927793" lon="8.665002">
<ele>388.5</ele>
<speed>1.67</speed>
<course>84.9</course>
<desc>Speed 6.0 km/h Distance 8.38 km</desc>
<time>2010-10-24T11:58:23.57</time>
<name>5176</name>
</trkpt>
<trkpt lat="48.927795" lon="8.665030">
<ele>389.0</ele>
<speed>1.71</speed>
<course>84.6</course>
<desc>Speed 6.2 km/h Distance 8.38 km</desc>
<time>2010-10-24T11:58:24.57</time>
<name>5177</name>
</trkpt>
<trkpt lat="48.927797" lon="8.665057">
<ele>389.0</ele>
<speed>1.62</speed>
<course>84.2</course>
<desc>Speed 5.8 km/h Distance 8.38 km</desc>
<time>2010-10-24T11:58:25.57</time>
<name>5178</name>
</trkpt>
<trkpt lat="48.927798" lon="8.665082">
<ele>388.5</ele>
<speed>1.58</speed>
<course>84.2</course>
<desc>Speed 5.7 km/h Distance 8.39 km</desc>
<time>2010-10-24T11:58:26.57</time>
<name>5179</name>
</trkpt>
<trkpt lat="48.927800" lon="8.665107">
<ele>388.5</ele>
<speed>1.71</speed>
<course>90.0</course>
<desc>Speed 6.2 km/h Distance 8.39 km</desc>
<time>2010-10-24T11:58:27.57</time>
<name>5180</name>
</trkpt>
<trkpt lat="48.927800" lon="8.665133">
<ele>388.5</ele>
<speed>1.80</speed>
<course>78.5</course>
<desc>Speed 6.5 km/h Distance 8.39 km</desc>
<time>2010-10-24T11:58:28.57</time>
<name>5181</name>
</trkpt>
<trkpt lat="48.927803" lon="8.665158">
<ele>388.5</ele>
<speed>1.67</speed>
<course>84.2</course>
<desc>Speed 6.0 km/h Distance 8.39 km</desc>
<time>2010-10-24T11:58:29.57</time>
<name>5182</name>
</trkpt>
<trkpt lat="48.927805" lon="8.665183">
<ele>388.5</ele>
<speed>1.75</speed>
<course>90.0</course>
<desc>Speed 6.3 km/h Distance 8.39 km</desc>
<time>2010-10-24T11:58:30.57</time>
<name>5183</name>
</trkpt>
<trkpt lat="48.927805" lon="8.665207">
<ele>388.0</ele>
<speed>1.63</speed>
<course>90.0</course>
<desc>Speed 5.9 km/h Distance 8.40 km</desc>
<time>2010-10-24T11:58:31.57</time>
<name>5184</name>
</trkpt>
<trkpt lat="48.927805" lon="8.665228">
<ele>388.0</ele>
<speed>1.62</speed>
<course>83.3</course>
<desc>Speed 5.8 km/h Distance 8.40 km</desc>
<time>2010-10-24T11:58:32.57</time>
<name>5185</name>
</trkpt>
<trkpt lat="48.927807" lon="8.665250">
<ele>388.0</ele>
<speed>1.54</speed>
<course>90.0</course>
<desc>Speed 5.5 km/h Distance 8.40 km</desc>
<time>2010-10-24T11:58:33.57</time>
<name>5186</name>
</trkpt>
<trkpt lat="48.927807" lon="8.665273">
<ele>388.0</ele>
<speed>1.60</speed>
<course>83.8</course>
<desc>Speed 5.8 km/h Distance 8.40 km</desc>
<time>2010-10-24T11:58:34.57</time>
<name>5187</name>
</trkpt>
<trkpt lat="48.927808" lon="8.665297">
<ele>387.5</ele>
<speed>1.63</speed>
<course>83.8</course>
<desc>Speed 5.9 km/h Distance 8.40 km</desc>
<time>2010-10-24T11:58:35.57</time>
<name>5188</name>
</trkpt>
<trkpt lat="48.927810" lon="8.665320">
<ele>387.5</ele>
<speed>1.66</speed>
<course>83.8</course>
<desc>Speed 6.0 km/h Distance 8.40 km</desc>
<time>2010-10-24T11:58:36.57</time>
<name>5189</name>
</trkpt>
<trkpt lat="48.927812" lon="8.665343">
<ele>387.5</ele>
<speed>1.72</speed>
<course>90.0</course>
<desc>Speed 6.2 km/h Distance 8.41 km</desc>
<time>2010-10-24T11:58:37.57</time>
<name>5190</name>
</trkpt>
<trkpt lat="48.927812" lon="8.665368">
<ele>387.5</ele>
<speed>1.75</speed>
<course>84.2</course>
<desc>Speed 6.3 km/h Distance 8.41 km</desc>
<time>2010-10-24T11:58:38.57</time>
<name>5191</name>
</trkpt>
<trkpt lat="48.927813" lon="8.665393">
<ele>387.5</ele>
<speed>1.74</speed>
<course>77.7</course>
<desc>Speed 6.3 km/h Distance 8.41 km</desc>
<time>2010-10-24T11:58:39.57</time>
<name>5192</name>
</trkpt>
<trkpt lat="48.927817" lon="8.665417">
<ele>387.5</ele>
<speed>1.62</speed>
<course>84.2</course>
<desc>Speed 5.8 km/h Distance 8.41 km</desc>
<time>2010-10-24T11:58:40.57</time>
<name>5193</name>
</trkpt>
<trkpt lat="48.927818" lon="8.665442">
<ele>387.5</ele>
<speed>1.66</speed>
<course>90.0</course>
<desc>Speed 6.0 km/h Distance 8.41 km</desc>
<time>2010-10-24T11:58:41.57</time>
<name>5194</name>
</trkpt>
<trkpt lat="48.927818" lon="8.665463">
<ele>387.5</ele>
<speed>1.52</speed>
<course>76.8</course>
<desc>Speed 5.5 km/h Distance 8.41 km</desc>
<time>2010-10-24T11:58:42.57</time>
<name>5195</name>
</trkpt>
<trkpt lat="48.927822" lon="8.665485">
<ele>387.5</ele>
<speed>1.44</speed>
<course>71.9</course>
<desc>Speed 5.2 km/h Distance 8.42 km</desc>
<time>2010-10-24T11:58:43.57</time>
<name>5196</name>
</trkpt>
<trkpt lat="48.927827" lon="8.665508">
<ele>388.0</ele>
<speed>1.58</speed>
<course>73.1</course>
<desc>Speed 5.7 km/h Distance 8.42 km</desc>
<time>2010-10-24T11:58:44.57</time>
<name>5197</name>
</trkpt>
<trkpt lat="48.927832" lon="8.665533">
<ele>388.5</ele>
<speed>1.61</speed>
<course>77.7</course>
<desc>Speed 5.8 km/h Distance 8.42 km</desc>
<time>2010-10-24T11:58:45.57</time>
<name>5198</name>
</trkpt>
<trkpt lat="48.927835" lon="8.665557">
<ele>388.5</ele>
<speed>1.70</speed>
<course>84.2</course>
<desc>Speed 6.1 km/h Distance 8.42 km</desc>
<time>2010-10-24T11:58:46.57</time>
<name>5199</name>
</trkpt>
<trkpt lat="48.927837" lon="8.665582">
<ele>388.5</ele>
<speed>1.73</speed>
<course>83.8</course>
<desc>Speed 6.2 km/h Distance 8.42 km</desc>
<time>2010-10-24T11:58:47.57</time>
<name>5200</name>
</trkpt>
<trkpt lat="48.927838" lon="8.665605">
<ele>388.5</ele>
<speed>1.74</speed>
<course>76.8</course>
<desc>Speed 6.3 km/h Distance 8.42 km</desc>
<time>2010-10-24T11:58:48.57</time>
<name>5201</name>
</trkpt>
<trkpt lat="48.927842" lon="8.665627">
<ele>388.5</ele>
<speed>1.49</speed>
<course>90.0</course>
<desc>Speed 5.4 km/h Distance 8.43 km</desc>
<time>2010-10-24T11:58:49.57</time>
<name>5202</name>
</trkpt>
<trkpt lat="48.927842" lon="8.665637">
<ele>388.5</ele>
<speed>0.75</speed>
<course>47.8</course>
<desc>Speed 2.7 km/h Distance 8.43 km</desc>
<time>2010-10-24T11:58:50.57</time>
<name>5203</name>
</trkpt>
<trkpt lat="48.927847" lon="8.665645">
<ele>388.5</ele>
<speed>0.41</speed>
<course>146.3</course>
<desc>Speed 1.5 km/h Distance 8.43 km</desc>
<time>2010-10-24T11:58:52.57</time>
<name>5204</name>
</trkpt>
<trkpt lat="48.927843" lon="8.665648">
<ele>388.5</ele>
<speed>0.46</speed>
<course>90.0</course>
<desc>Speed 1.7 km/h Distance 8.43 km</desc>
<time>2010-10-24T11:58:55.57</time>
<name>5205</name>
</trkpt>
<trkpt lat="48.927843" lon="8.665665">
<ele>388.5</ele>
<speed>1.28</speed>
<course>76.8</course>
<desc>Speed 4.6 km/h Distance 8.43 km</desc>
<time>2010-10-24T11:58:56.57</time>
<name>5206</name>
</trkpt>
<trkpt lat="48.927847" lon="8.665687">
<ele>388.0</ele>
<speed>1.62</speed>
<course>90.0</course>
<desc>Speed 5.8 km/h Distance 8.43 km</desc>
<time>2010-10-24T11:58:57.57</time>
<name>5207</name>
</trkpt>
<trkpt lat="48.927847" lon="8.665708">
<ele>388.0</ele>
<speed>1.59</speed>
<course>90.0</course>
<desc>Speed 5.7 km/h Distance 8.43 km</desc>
<time>2010-10-24T11:58:58.57</time>
<name>5208</name>
</trkpt>
<trkpt lat="48.927847" lon="8.665730">
<ele>388.0</ele>
<speed>1.64</speed>
<course>77.7</course>
<desc>Speed 5.9 km/h Distance 8.43 km</desc>
<time>2010-10-24T11:58:59.57</time>
<name>5209</name>
</trkpt>
<trkpt lat="48.927850" lon="8.665753">
<ele>387.5</ele>
<speed>1.67</speed>
<course>83.8</course>
<desc>Speed 6.0 km/h Distance 8.44 km</desc>
<time>2010-10-24T11:59:00.57</time>
<name>5210</name>
</trkpt>
<trkpt lat="48.927852" lon="8.665777">
<ele>388.0</ele>
<speed>1.62</speed>
<course>77.7</course>
<desc>Speed 5.8 km/h Distance 8.44 km</desc>
<time>2010-10-24T11:59:01.57</time>
<name>5211</name>
</trkpt>
<trkpt lat="48.927855" lon="8.665800">
<ele>388.0</ele>
<speed>1.64</speed>
<course>96.7</course>
<desc>Speed 5.9 km/h Distance 8.44 km</desc>
<time>2010-10-24T11:59:02.57</time>
<name>5212</name>
</trkpt>
<trkpt lat="48.927853" lon="8.665822">
<ele>388.0</ele>
<speed>1.62</speed>
<course>90.0</course>
<desc>Speed 5.8 km/h Distance 8.44 km</desc>
<time>2010-10-24T11:59:03.57</time>
<name>5213</name>
</trkpt>
<trkpt lat="48.927853" lon="8.665843">
<ele>388.0</ele>
<speed>1.62</speed>
<course>77.7</course>
<desc>Speed 5.8 km/h Distance 8.44 km</desc>
<time>2010-10-24T11:59:04.57</time>
<name>5214</name>
</trkpt>
<trkpt lat="48.927857" lon="8.665867">
<ele>388.0</ele>
<speed>1.72</speed>
<course>83.8</course>
<desc>Speed 6.2 km/h Distance 8.44 km</desc>
<time>2010-10-24T11:59:05.57</time>
<name>5215</name>
</trkpt>
<trkpt lat="48.927858" lon="8.665890">
<ele>388.0</ele>
<speed>1.67</speed>
<course>76.8</course>
<desc>Speed 6.0 km/h Distance 8.45 km</desc>
<time>2010-10-24T11:59:06.57</time>
<name>5216</name>
</trkpt>
<trkpt lat="48.927862" lon="8.665912">
<ele>388.0</ele>
<speed>1.67</speed>
<course>78.5</course>
<desc>Speed 6.0 km/h Distance 8.45 km</desc>
<time>2010-10-24T11:59:07.57</time>
<name>5217</name>
</trkpt>
<trkpt lat="48.927865" lon="8.665937">
<ele>388.0</ele>
<speed>1.75</speed>
<course>77.7</course>
<desc>Speed 6.3 km/h Distance 8.45 km</desc>
<time>2010-10-24T11:59:08.57</time>
<name>5218</name>
</trkpt>
<trkpt lat="48.927868" lon="8.665960">
<ele>388.0</ele>
<speed>1.75</speed>
<course>78.5</course>
<desc>Speed 6.3 km/h Distance 8.45 km</desc>
<time>2010-10-24T11:59:09.57</time>
<name>5219</name>
</trkpt>
<trkpt lat="48.927872" lon="8.665985">
<ele>388.0</ele>
<speed>1.71</speed>
<course>72.0</course>
<desc>Speed 6.2 km/h Distance 8.45 km</desc>
<time>2010-10-24T11:59:10.57</time>
<name>5220</name>
</trkpt>
<trkpt lat="48.927877" lon="8.666008">
<ele>388.5</ele>
<speed>1.72</speed>
<course>72.0</course>
<desc>Speed 6.2 km/h Distance 8.46 km</desc>
<time>2010-10-24T11:59:11.57</time>
<name>5221</name>
</trkpt>
<trkpt lat="48.927882" lon="8.666032">
<ele>388.5</ele>
<speed>1.71</speed>
<course>90.0</course>
<desc>Speed 6.2 km/h Distance 8.46 km</desc>
<time>2010-10-24T11:59:12.57</time>
<name>5222</name>
</trkpt>
<trkpt lat="48.927882" lon="8.666057">
<ele>388.5</ele>
<speed>1.75</speed>
<course>83.3</course>
<desc>Speed 6.3 km/h Distance 8.46 km</desc>
<time>2010-10-24T11:59:13.57</time>
<name>5223</name>
</trkpt>
<trkpt lat="48.927883" lon="8.666078">
<ele>388.5</ele>
<speed>1.71</speed>
<course>90.0</course>
<desc>Speed 6.2 km/h Distance 8.46 km</desc>
<time>2010-10-24T11:59:14.57</time>
<name>5224</name>
</trkpt>
<trkpt lat="48.927883" lon="8.666102">
<ele>388.5</ele>
<speed>1.71</speed>
<course>83.8</course>
<desc>Speed 6.2 km/h Distance 8.46 km</desc>
<time>2010-10-24T11:59:15.57</time>
<name>5225</name>
</trkpt>
<trkpt lat="48.927885" lon="8.666125">
<ele>388.5</ele>
<speed>1.69</speed>
<course>90.0</course>
<desc>Speed 6.1 km/h Distance 8.46 km</desc>
<time>2010-10-24T11:59:16.57</time>
<name>5226</name>
</trkpt>
<trkpt lat="48.927885" lon="8.666145">
<ele>388.5</ele>
<speed>1.61</speed>
<course>90.0</course>
<desc>Speed 5.8 km/h Distance 8.47 km</desc>
<time>2010-10-24T11:59:17.57</time>
<name>5227</name>
</trkpt>
<trkpt lat="48.927885" lon="8.666167">
<ele>388.5</ele>
<speed>1.61</speed>
<course>90.0</course>
<desc>Speed 5.8 km/h Distance 8.47 km</desc>
<time>2010-10-24T11:59:18.57</time>
<name>5228</name>
</trkpt>
<trkpt lat="48.927885" lon="8.666188">
<ele>388.0</ele>
<speed>1.60</speed>
<course>83.8</course>
<desc>Speed 5.8 km/h Distance 8.47 km</desc>
<time>2010-10-24T11:59:19.57</time>
<name>5229</name>
</trkpt>
<trkpt lat="48.927887" lon="8.666212">
<ele>388.5</ele>
<speed>1.59</speed>
<course>90.0</course>
<desc>Speed 5.7 km/h Distance 8.47 km</desc>
<time>2010-10-24T11:59:20.57</time>
<name>5230</name>
</trkpt>
<trkpt lat="48.927887" lon="8.666233">
<ele>388.5</ele>
<speed>1.58</speed>
<course>96.7</course>
<desc>Speed 5.7 km/h Distance 8.47 km</desc>
<time>2010-10-24T11:59:21.57</time>
<name>5231</name>
</trkpt>
<trkpt lat="48.927885" lon="8.666255">
<ele>388.5</ele>
<speed>1.64</speed>
<course>90.0</course>
<desc>Speed 5.9 km/h Distance 8.47 km</desc>
<time>2010-10-24T11:59:22.57</time>
<name>5232</name>
</trkpt>
<trkpt lat="48.927885" lon="8.666278">
<ele>388.5</ele>
<speed>1.70</speed>
<course>83.3</course>
<desc>Speed 6.1 km/h Distance 8.47 km</desc>
<time>2010-10-24T11:59:23.57</time>
<name>5233</name>
</trkpt>
<trkpt lat="48.927887" lon="8.666300">
<ele>388.5</ele>
<speed>1.62</speed>
<course>96.7</course>
<desc>Speed 5.8 km/h Distance 8.48 km</desc>
<time>2010-10-24T11:59:24.57</time>
<name>5234</name>
</trkpt>
<trkpt lat="48.927885" lon="8.666322">
<ele>389.0</ele>
<speed>1.55</speed>
<course>90.0</course>
<desc>Speed 5.6 km/h Distance 8.48 km</desc>
<time>2010-10-24T11:59:25.57</time>
<name>5235</name>
</trkpt>
<trkpt lat="48.927885" lon="8.666343">
<ele>389.0</ele>
<speed>1.63</speed>
<course>96.2</course>
<desc>Speed 5.9 km/h Distance 8.48 km</desc>
<time>2010-10-24T11:59:26.57</time>
<name>5236</name>
</trkpt>
<trkpt lat="48.927883" lon="8.666367">
<ele>389.0</ele>
<speed>1.60</speed>
<course>90.0</course>
<desc>Speed 5.8 km/h Distance 8.48 km</desc>
<time>2010-10-24T11:59:27.57</time>
<name>5237</name>
</trkpt>
<trkpt lat="48.927883" lon="8.666390">
<ele>389.0</ele>
<speed>1.65</speed>
<course>90.0</course>
<desc>Speed 5.9 km/h Distance 8.48 km</desc>
<time>2010-10-24T11:59:28.57</time>
<name>5238</name>
</trkpt>
<trkpt lat="48.927883" lon="8.666415">
<ele>388.5</ele>
<speed>1.87</speed>
<course>101.5</course>
<desc>Speed 6.7 km/h Distance 8.48 km</desc>
<time>2010-10-24T11:59:29.57</time>
<name>5239</name>
</trkpt>
<trkpt lat="48.927880" lon="8.666440">
<ele>388.5</ele>
<speed>1.70</speed>
<course>96.7</course>
<desc>Speed 6.1 km/h Distance 8.49 km</desc>
<time>2010-10-24T11:59:30.78</time>
<name>5240</name>
</trkpt>
<trkpt lat="48.927878" lon="8.666462">
<ele>388.5</ele>
<speed>1.52</speed>
<course>96.7</course>
<desc>Speed 5.5 km/h Distance 8.49 km</desc>
<time>2010-10-24T11:59:31.73</time>
<name>5241</name>
</trkpt>
<trkpt lat="48.927877" lon="8.666483">
<ele>388.5</ele>
<speed>1.57</speed>
<course>90.0</course>
<desc>Speed 5.7 km/h Distance 8.49 km</desc>
<time>2010-10-24T11:59:32.73</time>
<name>5242</name>
</trkpt>
<trkpt lat="48.927877" lon="8.666507">
<ele>388.5</ele>
<speed>1.59</speed>
<course>95.4</course>
<desc>Speed 5.7 km/h Distance 8.49 km</desc>
<time>2010-10-24T11:59:33.73</time>
<name>5243</name>
</trkpt>
<trkpt lat="48.927875" lon="8.666533">
<ele>389.0</ele>
<speed>1.87</speed>
<course>90.0</course>
<desc>Speed 6.7 km/h Distance 8.49 km</desc>
<time>2010-10-24T11:59:34.73</time>
<name>5244</name>
</trkpt>
<trkpt lat="48.927875" lon="8.666558">
<ele>389.0</ele>
<speed>1.75</speed>
<course>90.0</course>
<desc>Speed 6.3 km/h Distance 8.50 km</desc>
<time>2010-10-24T11:59:35.85</time>
<name>5245</name>
</trkpt>
<trkpt lat="48.927875" lon="8.666585">
<ele>389.0</ele>
<speed>1.74</speed>
<course>90.0</course>
<desc>Speed 6.3 km/h Distance 8.50 km</desc>
<time>2010-10-24T11:59:36.78</time>
<name>5246</name>
</trkpt>
<trkpt lat="48.927875" lon="8.666613">
<ele>390.0</ele>
<speed>2.01</speed>
<course>95.8</course>
<desc>Speed 7.2 km/h Distance 8.50 km</desc>
<time>2010-10-24T11:59:37.78</time>
<name>5247</name>
</trkpt>
<trkpt lat="48.927873" lon="8.666638">
<ele>390.0</ele>
<speed>1.67</speed>
<course>96.2</course>
<desc>Speed 6.0 km/h Distance 8.50 km</desc>
<time>2010-10-24T11:59:38.78</time>
<name>5248</name>
</trkpt>
<trkpt lat="48.927872" lon="8.666662">
<ele>390.0</ele>
<speed>1.62</speed>
<course>96.2</course>
<desc>Speed 5.8 km/h Distance 8.50 km</desc>
<time>2010-10-24T11:59:39.78</time>
<name>5249</name>
</trkpt>
<trkpt lat="48.927870" lon="8.666685">
<ele>390.0</ele>
<speed>1.57</speed>
<course>95.8</course>
<desc>Speed 5.7 km/h Distance 8.50 km</desc>
<time>2010-10-24T11:59:40.78</time>
<name>5250</name>
</trkpt>
<trkpt lat="48.927868" lon="8.666710">
<ele>390.5</ele>
<speed>1.71</speed>
<course>95.8</course>
<desc>Speed 6.2 km/h Distance 8.51 km</desc>
<time>2010-10-24T11:59:41.78</time>
<name>5251</name>
</trkpt>
<trkpt lat="48.927867" lon="8.666735">
<ele>391.0</ele>
<speed>1.67</speed>
<course>90.0</course>
<desc>Speed 6.0 km/h Distance 8.51 km</desc>
<time>2010-10-24T11:59:42.78</time>
<name>5252</name>
</trkpt>
<trkpt lat="48.927867" lon="8.666757">
<ele>391.0</ele>
<speed>1.39</speed>
<course>100.1</course>
<desc>Speed 5.0 km/h Distance 8.51 km</desc>
<time>2010-10-24T11:59:43.78</time>
<name>5253</name>
</trkpt>
<trkpt lat="48.927863" lon="8.666785">
<ele>392.0</ele>
<speed>1.88</speed>
<course>96.2</course>
<desc>Speed 6.8 km/h Distance 8.51 km</desc>
<time>2010-10-24T11:59:44.78</time>
<name>5254</name>
</trkpt>
<trkpt lat="48.927862" lon="8.666808">
<ele>392.0</ele>
<speed>1.62</speed>
<course>95.4</course>
<desc>Speed 5.8 km/h Distance 8.51 km</desc>
<time>2010-10-24T11:59:45.78</time>
<name>5255</name>
</trkpt>
<trkpt lat="48.927860" lon="8.666835">
<ele>392.0</ele>
<speed>1.89</speed>
<course>96.7</course>
<desc>Speed 6.8 km/h Distance 8.52 km</desc>
<time>2010-10-24T11:59:46.78</time>
<name>5256</name>
</trkpt>
<trkpt lat="48.927858" lon="8.666857">
<ele>391.5</ele>
<speed>1.45</speed>
<course>96.2</course>
<desc>Speed 5.2 km/h Distance 8.52 km</desc>
<time>2010-10-24T11:59:47.77</time>
<name>5257</name>
</trkpt>
<trkpt lat="48.927857" lon="8.666880">
<ele>392.0</ele>
<speed>1.63</speed>
<course>96.2</course>
<desc>Speed 5.9 km/h Distance 8.52 km</desc>
<time>2010-10-24T11:59:48.77</time>
<name>5258</name>
</trkpt>
<trkpt lat="48.927855" lon="8.666903">
<ele>392.0</ele>
<speed>1.70</speed>
<course>96.2</course>
<desc>Speed 6.1 km/h Distance 8.52 km</desc>
<time>2010-10-24T11:59:49.77</time>
<name>5259</name>
</trkpt>
<trkpt lat="48.927853" lon="8.666927">
<ele>392.5</ele>
<speed>1.64</speed>
<course>90.0</course>
<desc>Speed 5.9 km/h Distance 8.52 km</desc>
<time>2010-10-24T11:59:50.77</time>
<name>5260</name>
</trkpt>
<trkpt lat="48.927853" lon="8.666953">
<ele>393.0</ele>
<speed>1.87</speed>
<course>132.4</course>
<desc>Speed 6.7 km/h Distance 8.52 km</desc>
<time>2010-10-24T11:59:51.77</time>
<name>5261</name>
</trkpt>
<trkpt lat="48.927843" lon="8.666970">
<ele>391.5</ele>
<speed>1.65</speed>
<course>112.5</course>
<desc>Speed 5.9 km/h Distance 8.53 km</desc>
<time>2010-10-24T11:59:52.77</time>
<name>5262</name>
</trkpt>
<trkpt lat="48.927838" lon="8.666988">
<ele>391.0</ele>
<speed>1.52</speed>
<course>104.2</course>
<desc>Speed 5.5 km/h Distance 8.53 km</desc>
<time>2010-10-24T11:59:53.77</time>
<name>5263</name>
</trkpt>
<trkpt lat="48.927835" lon="8.667008">
<ele>390.5</ele>
<speed>1.63</speed>
<course>109.4</course>
<desc>Speed 5.9 km/h Distance 8.53 km</desc>
<time>2010-10-24T11:59:54.77</time>
<name>5264</name>
</trkpt>
<trkpt lat="48.927830" lon="8.667030">
<ele>390.5</ele>
<speed>1.71</speed>
<course>96.7</course>
<desc>Speed 6.2 km/h Distance 8.53 km</desc>
<time>2010-10-24T11:59:55.77</time>
<name>5265</name>
</trkpt>
<trkpt lat="48.927828" lon="8.667052">
<ele>390.5</ele>
<speed>1.65</speed>
<course>103.2</course>
<desc>Speed 5.9 km/h Distance 8.53 km</desc>
<time>2010-10-24T11:59:56.77</time>
<name>5266</name>
</trkpt>
<trkpt lat="48.927825" lon="8.667073">
<ele>390.0</ele>
<speed>1.71</speed>
<course>97.9</course>
<desc>Speed 6.2 km/h Distance 8.53 km</desc>
<time>2010-10-24T11:59:57.87</time>
<name>5267</name>
</trkpt>
<trkpt lat="48.927823" lon="8.667092">
<ele>390.0</ele>
<speed>1.50</speed>
<course>97.9</course>
<desc>Speed 5.4 km/h Distance 8.54 km</desc>
<time>2010-10-24T11:59:58.79</time>
<name>5268</name>
</trkpt>
<trkpt lat="48.927822" lon="8.667110">
<ele>389.5</ele>
<speed>1.48</speed>
<course>97.9</course>
<desc>Speed 5.3 km/h Distance 8.54 km</desc>
<time>2010-10-24T11:59:59.79</time>
<name>5269</name>
</trkpt>
<trkpt lat="48.927820" lon="8.667128">
<ele>389.5</ele>
<speed>1.22</speed>
<course>97.9</course>
<desc>Speed 4.4 km/h Distance 8.54 km</desc>
<time>2010-10-24T12:00:00.79</time>
<name>5270</name>
</trkpt>
<trkpt lat="48.927818" lon="8.667147">
<ele>389.5</ele>
<speed>1.35</speed>
<course>90.0</course>
<desc>Speed 4.9 km/h Distance 8.54 km</desc>
<time>2010-10-24T12:00:01.79</time>
<name>5271</name>
</trkpt>
<trkpt lat="48.927818" lon="8.667165">
<ele>389.0</ele>
<speed>1.36</speed>
<course>98.7</course>
<desc>Speed 4.9 km/h Distance 8.54 km</desc>
<time>2010-10-24T12:00:02.79</time>
<name>5272</name>
</trkpt>
<trkpt lat="48.927817" lon="8.667182">
<ele>388.5</ele>
<speed>1.20</speed>
<course>103.2</course>
<desc>Speed 4.3 km/h Distance 8.54 km</desc>
<time>2010-10-24T12:00:03.79</time>
<name>5273</name>
</trkpt>
<trkpt lat="48.927813" lon="8.667203">
<ele>388.5</ele>
<speed>1.54</speed>
<course>102.3</course>
<desc>Speed 5.5 km/h Distance 8.54 km</desc>
<time>2010-10-24T12:00:04.79</time>
<name>5274</name>
</trkpt>
<trkpt lat="48.927810" lon="8.667227">
<ele>388.5</ele>
<speed>1.62</speed>
<course>110.8</course>
<desc>Speed 5.8 km/h Distance 8.55 km</desc>
<time>2010-10-24T12:00:05.79</time>
<name>5275</name>
</trkpt>
<trkpt lat="48.927805" lon="8.667247">
<ele>388.5</ele>
<speed>1.54</speed>
<course>96.7</course>
<desc>Speed 5.5 km/h Distance 8.55 km</desc>
<time>2010-10-24T12:00:06.79</time>
<name>5276</name>
</trkpt>
<trkpt lat="48.927803" lon="8.667268">
<ele>388.5</ele>
<speed>1.63</speed>
<course>90.0</course>
<desc>Speed 5.9 km/h Distance 8.55 km</desc>
<time>2010-10-24T12:00:07.79</time>
<name>5277</name>
</trkpt>
<trkpt lat="48.927803" lon="8.667292">
<ele>388.0</ele>
<speed>1.69</speed>
<course>96.2</course>
<desc>Speed 6.1 km/h Distance 8.55 km</desc>
<time>2010-10-24T12:00:08.79</time>
<name>5278</name>
</trkpt>
<trkpt lat="48.927802" lon="8.667315">
<ele>388.0</ele>
<speed>1.65</speed>
<course>103.2</course>
<desc>Speed 5.9 km/h Distance 8.55 km</desc>
<time>2010-10-24T12:00:09.79</time>
<name>5279</name>
</trkpt>
<trkpt lat="48.927798" lon="8.667337">
<ele>387.5</ele>
<speed>1.53</speed>
<course>96.2</course>
<desc>Speed 5.5 km/h Distance 8.55 km</desc>
<time>2010-10-24T12:00:10.79</time>
<name>5280</name>
</trkpt>
<trkpt lat="48.927797" lon="8.667360">
<ele>388.0</ele>
<speed>1.58</speed>
<course>97.9</course>
<desc>Speed 5.7 km/h Distance 8.56 km</desc>
<time>2010-10-24T12:00:11.79</time>
<name>5281</name>
</trkpt>
<trkpt lat="48.927795" lon="8.667378">
<ele>387.5</ele>
<speed>1.48</speed>
<course>96.7</course>
<desc>Speed 5.3 km/h Distance 8.56 km</desc>
<time>2010-10-24T12:00:12.79</time>
<name>5282</name>
</trkpt>
<trkpt lat="48.927793" lon="8.667400">
<ele>387.5</ele>
<speed>1.50</speed>
<course>96.7</course>
<desc>Speed 5.4 km/h Distance 8.56 km</desc>
<time>2010-10-24T12:00:13.79</time>
<name>5283</name>
</trkpt>
<trkpt lat="48.927792" lon="8.667422">
<ele>387.5</ele>
<speed>1.48</speed>
<course>102.3</course>
<desc>Speed 5.3 km/h Distance 8.56 km</desc>
<time>2010-10-24T12:00:14.79</time>
<name>5284</name>
</trkpt>
<trkpt lat="48.927788" lon="8.667445">
<ele>387.0</ele>
<speed>1.51</speed>
<course>96.2</course>
<desc>Speed 5.4 km/h Distance 8.56 km</desc>
<time>2010-10-24T12:00:15.79</time>
<name>5285</name>
</trkpt>
<trkpt lat="48.927787" lon="8.667468">
<ele>387.0</ele>
<speed>1.51</speed>
<course>108.1</course>
<desc>Speed 5.4 km/h Distance 8.56 km</desc>
<time>2010-10-24T12:00:16.79</time>
<name>5286</name>
</trkpt>
<trkpt lat="48.927782" lon="8.667492">
<ele>387.5</ele>
<speed>1.60</speed>
<course>105.5</course>
<desc>Speed 5.8 km/h Distance 8.57 km</desc>
<time>2010-10-24T12:00:17.79</time>
<name>5287</name>
</trkpt>
<trkpt lat="48.927778" lon="8.667510">
<ele>387.0</ele>
<speed>1.46</speed>
<course>110.8</course>
<desc>Speed 5.3 km/h Distance 8.57 km</desc>
<time>2010-10-24T12:00:18.79</time>
<name>5288</name>
</trkpt>
<trkpt lat="48.927773" lon="8.667530">
<ele>387.0</ele>
<speed>1.54</speed>
<course>114.5</course>
<desc>Speed 5.5 km/h Distance 8.57 km</desc>
<time>2010-10-24T12:00:19.79</time>
<name>5289</name>
</trkpt>
<trkpt lat="48.927768" lon="8.667547">
<ele>386.5</ele>
<speed>1.38</speed>
<course>109.3</course>
<desc>Speed 5.0 km/h Distance 8.57 km</desc>
<time>2010-10-24T12:00:20.79</time>
<name>5290</name>
</trkpt>
<trkpt lat="48.927763" lon="8.667568">
<ele>386.0</ele>
<speed>1.62</speed>
<course>104.2</course>
<desc>Speed 5.8 km/h Distance 8.57 km</desc>
<time>2010-10-24T12:00:21.79</time>
<name>5291</name>
</trkpt>
<trkpt lat="48.927760" lon="8.667588">
<ele>386.0</ele>
<speed>1.64</speed>
<course>110.8</course>
<desc>Speed 5.9 km/h Distance 8.57 km</desc>
<time>2010-10-24T12:00:22.79</time>
<name>5292</name>
</trkpt>
<trkpt lat="48.927755" lon="8.667608">
<ele>386.0</ele>
<speed>1.61</speed>
<course>104.2</course>
<desc>Speed 5.8 km/h Distance 8.57 km</desc>
<time>2010-10-24T12:00:23.79</time>
<name>5293</name>
</trkpt>
<trkpt lat="48.927752" lon="8.667628">
<ele>386.0</ele>
<speed>1.57</speed>
<course>105.5</course>
<desc>Speed 5.7 km/h Distance 8.58 km</desc>
<time>2010-10-24T12:00:24.79</time>
<name>5294</name>
</trkpt>
<trkpt lat="48.927748" lon="8.667647">
<ele>385.5</ele>
<speed>1.37</speed>
<course>104.2</course>
<desc>Speed 4.9 km/h Distance 8.58 km</desc>
<time>2010-10-24T12:00:25.79</time>
<name>5295</name>
</trkpt>
<trkpt lat="48.927745" lon="8.667667">
<ele>385.5</ele>
<speed>1.61</speed>
<course>116.9</course>
<desc>Speed 5.8 km/h Distance 8.58 km</desc>
<time>2010-10-24T12:00:26.79</time>
<name>5296</name>
</trkpt>
<trkpt lat="48.927740" lon="8.667682">
<ele>385.0</ele>
<speed>1.30</speed>
<course>112.5</course>
<desc>Speed 4.7 km/h Distance 8.58 km</desc>
<time>2010-10-24T12:00:27.79</time>
<name>5297</name>
</trkpt>
<trkpt lat="48.927735" lon="8.667700">
<ele>384.5</ele>
<speed>1.44</speed>
<course>105.5</course>
<desc>Speed 5.2 km/h Distance 8.58 km</desc>
<time>2010-10-24T12:00:28.79</time>
<name>5298</name>
</trkpt>
<trkpt lat="48.927732" lon="8.667718">
<ele>384.5</ele>
<speed>1.55</speed>
<course>116.9</course>
<desc>Speed 5.6 km/h Distance 8.58 km</desc>
<time>2010-10-24T12:00:29.79</time>
<name>5299</name>
</trkpt>
<trkpt lat="48.927727" lon="8.667733">
<ele>384.0</ele>
<speed>1.20</speed>
<course>121.3</course>
<desc>Speed 4.3 km/h Distance 8.58 km</desc>
<time>2010-10-24T12:00:30.79</time>
<name>5300</name>
</trkpt>
<trkpt lat="48.927720" lon="8.667750">
<ele>383.5</ele>
<speed>1.47</speed>
<course>110.8</course>
<desc>Speed 5.3 km/h Distance 8.59 km</desc>
<time>2010-10-24T12:00:31.79</time>
<name>5301</name>
</trkpt>
<trkpt lat="48.927717" lon="8.667763">
<ele>383.0</ele>
<speed>1.05</speed>
<course>116.9</course>
<desc>Speed 3.8 km/h Distance 8.59 km</desc>
<time>2010-10-24T12:00:32.79</time>
<name>5302</name>
</trkpt>
<trkpt lat="48.927712" lon="8.667778">
<ele>382.5</ele>
<speed>1.26</speed>
<course>116.9</course>
<desc>Speed 4.5 km/h Distance 8.59 km</desc>
<time>2010-10-24T12:00:33.79</time>
<name>5303</name>
</trkpt>
<trkpt lat="48.927707" lon="8.667793">
<ele>382.0</ele>
<speed>1.27</speed>
<course>116.9</course>
<desc>Speed 4.6 km/h Distance 8.59 km</desc>
<time>2010-10-24T12:00:34.79</time>
<name>5304</name>
</trkpt>
<trkpt lat="48.927702" lon="8.667808">
<ele>381.5</ele>
<speed>1.20</speed>
<course>105.5</course>
<desc>Speed 4.3 km/h Distance 8.59 km</desc>
<time>2010-10-24T12:00:35.79</time>
<name>5305</name>
</trkpt>
<trkpt lat="48.927698" lon="8.667827">
<ele>381.0</ele>
<speed>1.36</speed>
<course>112.5</course>
<desc>Speed 4.9 km/h Distance 8.59 km</desc>
<time>2010-10-24T12:00:36.79</time>
<name>5306</name>
</trkpt>
<trkpt lat="48.927693" lon="8.667845">
<ele>381.0</ele>
<speed>1.45</speed>
<course>110.8</course>
<desc>Speed 5.2 km/h Distance 8.59 km</desc>
<time>2010-10-24T12:00:37.79</time>
<name>5307</name>
</trkpt>
<trkpt lat="48.927688" lon="8.667865">
<ele>380.5</ele>
<speed>1.42</speed>
<course>114.6</course>
<desc>Speed 5.1 km/h Distance 8.59 km</desc>
<time>2010-10-24T12:00:38.79</time>
<name>5308</name>
</trkpt>
<trkpt lat="48.927683" lon="8.667882">
<ele>380.5</ele>
<speed>1.41</speed>
<course>107.0</course>
<desc>Speed 5.1 km/h Distance 8.60 km</desc>
<time>2010-10-24T12:00:39.79</time>
<name>5309</name>
</trkpt>
<trkpt lat="48.927680" lon="8.667898">
<ele>380.0</ele>
<speed>1.21</speed>
<course>105.4</course>
<desc>Speed 4.4 km/h Distance 8.60 km</desc>
<time>2010-10-24T12:00:40.79</time>
<name>5310</name>
</trkpt>
<trkpt lat="48.927677" lon="8.667917">
<ele>380.0</ele>
<speed>1.33</speed>
<course>110.9</course>
<desc>Speed 4.8 km/h Distance 8.60 km</desc>
<time>2010-10-24T12:00:41.79</time>
<name>5311</name>
</trkpt>
<trkpt lat="48.927672" lon="8.667937">
<ele>379.5</ele>
<speed>1.50</speed>
<course>112.6</course>
<desc>Speed 5.4 km/h Distance 8.60 km</desc>
<time>2010-10-24T12:00:42.79</time>
<name>5312</name>
</trkpt>
<trkpt lat="48.927667" lon="8.667955">
<ele>379.5</ele>
<speed>1.37</speed>
<course>109.4</course>
<desc>Speed 4.9 km/h Distance 8.60 km</desc>
<time>2010-10-24T12:00:43.79</time>
<name>5313</name>
</trkpt>
<trkpt lat="48.927662" lon="8.667977">
<ele>379.5</ele>
<speed>1.67</speed>
<course>110.8</course>
<desc>Speed 6.0 km/h Distance 8.60 km</desc>
<time>2010-10-24T12:00:44.79</time>
<name>5314</name>
</trkpt>
<trkpt lat="48.927657" lon="8.667997">
<ele>379.0</ele>
<speed>1.49</speed>
<course>109.4</course>
<desc>Speed 5.4 km/h Distance 8.60 km</desc>
<time>2010-10-24T12:00:45.79</time>
<name>5315</name>
</trkpt>
<trkpt lat="48.927652" lon="8.668018">
<ele>379.0</ele>
<speed>1.66</speed>
<course>109.4</course>
<desc>Speed 6.0 km/h Distance 8.61 km</desc>
<time>2010-10-24T12:00:46.79</time>
<name>5316</name>
</trkpt>
<trkpt lat="48.927647" lon="8.668040">
<ele>378.5</ele>
<speed>1.66</speed>
<course>108.0</course>
<desc>Speed 6.0 km/h Distance 8.61 km</desc>
<time>2010-10-24T12:00:47.79</time>
<name>5317</name>
</trkpt>
<trkpt lat="48.927642" lon="8.668063">
<ele>378.5</ele>
<speed>1.75</speed>
<course>109.4</course>
<desc>Speed 6.3 km/h Distance 8.61 km</desc>
<time>2010-10-24T12:00:48.79</time>
<name>5318</name>
</trkpt>
<trkpt lat="48.927637" lon="8.668085">
<ele>378.5</ele>
<speed>1.69</speed>
<course>108.1</course>
<desc>Speed 6.1 km/h Distance 8.61 km</desc>
<time>2010-10-24T12:00:49.79</time>
<name>5319</name>
</trkpt>
<trkpt lat="48.927632" lon="8.668108">
<ele>378.5</ele>
<speed>1.72</speed>
<course>104.2</course>
<desc>Speed 6.2 km/h Distance 8.61 km</desc>
<time>2010-10-24T12:00:50.79</time>
<name>5320</name>
</trkpt>
<trkpt lat="48.927628" lon="8.668128">
<ele>378.0</ele>
<speed>1.63</speed>
<course>109.3</course>
<desc>Speed 5.9 km/h Distance 8.61 km</desc>
<time>2010-10-24T12:00:51.79</time>
<name>5321</name>
</trkpt>
<trkpt lat="48.927623" lon="8.668150">
<ele>378.0</ele>
<speed>1.58</speed>
<course>102.2</course>
<desc>Speed 5.7 km/h Distance 8.62 km</desc>
<time>2010-10-24T12:00:52.79</time>
<name>5322</name>
</trkpt>
<trkpt lat="48.927620" lon="8.668173">
<ele>377.5</ele>
<speed>1.62</speed>
<course>103.2</course>
<desc>Speed 5.8 km/h Distance 8.62 km</desc>
<time>2010-10-24T12:00:53.79</time>
<name>5323</name>
</trkpt>
<trkpt lat="48.927617" lon="8.668195">
<ele>377.5</ele>
<speed>1.59</speed>
<course>110.8</course>
<desc>Speed 5.7 km/h Distance 8.62 km</desc>
<time>2010-10-24T12:00:54.79</time>
<name>5324</name>
</trkpt>
<trkpt lat="48.927612" lon="8.668215">
<ele>377.5</ele>
<speed>1.50</speed>
<course>102.3</course>
<desc>Speed 5.4 km/h Distance 8.62 km</desc>
<time>2010-10-24T12:00:55.79</time>
<name>5325</name>
</trkpt>
<trkpt lat="48.927608" lon="8.668238">
<ele>377.5</ele>
<speed>1.58</speed>
<course>110.8</course>
<desc>Speed 5.7 km/h Distance 8.62 km</desc>
<time>2010-10-24T12:00:56.79</time>
<name>5326</name>
</trkpt>
<trkpt lat="48.927603" lon="8.668258">
<ele>377.5</ele>
<speed>1.51</speed>
<course>109.4</course>
<desc>Speed 5.4 km/h Distance 8.62 km</desc>
<time>2010-10-24T12:00:57.79</time>
<name>5327</name>
</trkpt>
<trkpt lat="48.927598" lon="8.668280">
<ele>377.5</ele>
<speed>1.58</speed>
<course>109.4</course>
<desc>Speed 5.7 km/h Distance 8.63 km</desc>
<time>2010-10-24T12:00:58.79</time>
<name>5328</name>
</trkpt>
<trkpt lat="48.927593" lon="8.668302">
<ele>377.5</ele>
<speed>1.58</speed>
<course>102.3</course>
<desc>Speed 5.7 km/h Distance 8.63 km</desc>
<time>2010-10-24T12:00:59.79</time>
<name>5329</name>
</trkpt>
<trkpt lat="48.927590" lon="8.668325">
<ele>377.0</ele>
<speed>1.61</speed>
<course>110.9</course>
<desc>Speed 5.8 km/h Distance 8.63 km</desc>
<time>2010-10-24T12:01:00.79</time>
<name>5330</name>
</trkpt>
<trkpt lat="48.927585" lon="8.668345">
<ele>377.0</ele>
<speed>1.52</speed>
<course>108.1</course>
<desc>Speed 5.5 km/h Distance 8.63 km</desc>
<time>2010-10-24T12:01:01.79</time>
<name>5331</name>
</trkpt>
<trkpt lat="48.927580" lon="8.668368">
<ele>377.0</ele>
<speed>1.67</speed>
<course>109.4</course>
<desc>Speed 6.0 km/h Distance 8.63 km</desc>
<time>2010-10-24T12:01:02.79</time>
<name>5332</name>
</trkpt>
<trkpt lat="48.927575" lon="8.668390">
<ele>377.0</ele>
<speed>1.62</speed>
<course>102.3</course>
<desc>Speed 5.8 km/h Distance 8.63 km</desc>
<time>2010-10-24T12:01:03.79</time>
<name>5333</name>
</trkpt>
<trkpt lat="48.927572" lon="8.668413">
<ele>377.0</ele>
<speed>1.66</speed>
<course>101.5</course>
<desc>Speed 6.0 km/h Distance 8.64 km</desc>
<time>2010-10-24T12:01:04.79</time>
<name>5334</name>
</trkpt>
<trkpt lat="48.927568" lon="8.668438">
<ele>377.0</ele>
<speed>1.71</speed>
<course>108.0</course>
<desc>Speed 6.2 km/h Distance 8.64 km</desc>
<time>2010-10-24T12:01:05.79</time>
<name>5335</name>
</trkpt>
<trkpt lat="48.927563" lon="8.668462">
<ele>377.0</ele>
<speed>1.63</speed>
<course>102.2</course>
<desc>Speed 5.9 km/h Distance 8.64 km</desc>
<time>2010-10-24T12:01:06.79</time>
<name>5336</name>
</trkpt>
<trkpt lat="48.927560" lon="8.668485">
<ele>377.5</ele>
<speed>1.69</speed>
<course>108.0</course>
<desc>Speed 6.1 km/h Distance 8.64 km</desc>
<time>2010-10-24T12:01:07.79</time>
<name>5337</name>
</trkpt>
<trkpt lat="48.927555" lon="8.668508">
<ele>377.5</ele>
<speed>1.61</speed>
<course>109.4</course>
<desc>Speed 5.8 km/h Distance 8.64 km</desc>
<time>2010-10-24T12:01:08.79</time>
<name>5338</name>
</trkpt>
<trkpt lat="48.927550" lon="8.668530">
<ele>377.5</ele>
<speed>1.65</speed>
<course>106.9</course>
<desc>Speed 5.9 km/h Distance 8.65 km</desc>
<time>2010-10-24T12:01:09.79</time>
<name>5339</name>
</trkpt>
<trkpt lat="48.927545" lon="8.668555">
<ele>377.5</ele>
<speed>1.73</speed>
<course>108.0</course>
<desc>Speed 6.2 km/h Distance 8.65 km</desc>
<time>2010-10-24T12:01:10.79</time>
<name>5340</name>
</trkpt>
<trkpt lat="48.927540" lon="8.668578">
<ele>377.5</ele>
<speed>1.66</speed>
<course>106.9</course>
<desc>Speed 6.0 km/h Distance 8.65 km</desc>
<time>2010-10-24T12:01:11.79</time>
<name>5341</name>
</trkpt>
<trkpt lat="48.927535" lon="8.668603">
<ele>377.5</ele>
<speed>1.78</speed>
<course>106.9</course>
<desc>Speed 6.4 km/h Distance 8.65 km</desc>
<time>2010-10-24T12:01:12.79</time>
<name>5342</name>
</trkpt>
<trkpt lat="48.927530" lon="8.668628">
<ele>377.5</ele>
<speed>1.77</speed>
<course>108.1</course>
<desc>Speed 6.4 km/h Distance 8.65 km</desc>
<time>2010-10-24T12:01:13.79</time>
<name>5343</name>
</trkpt>
<trkpt lat="48.927525" lon="8.668652">
<ele>377.5</ele>
<speed>1.74</speed>
<course>115.1</course>
<desc>Speed 6.3 km/h Distance 8.65 km</desc>
<time>2010-10-24T12:01:14.79</time>
<name>5344</name>
</trkpt>
<trkpt lat="48.927518" lon="8.668673">
<ele>377.5</ele>
<speed>1.64</speed>
<course>116.9</course>
<desc>Speed 5.9 km/h Distance 8.66 km</desc>
<time>2010-10-24T12:01:15.79</time>
<name>5345</name>
</trkpt>
<trkpt lat="48.927512" lon="8.668693">
<ele>377.5</ele>
<speed>1.62</speed>
<course>118.5</course>
<desc>Speed 5.8 km/h Distance 8.66 km</desc>
<time>2010-10-24T12:01:16.79</time>
<name>5346</name>
</trkpt>
<trkpt lat="48.927503" lon="8.668717">
<ele>377.5</ele>
<speed>1.77</speed>
<course>113.5</course>
<desc>Speed 6.4 km/h Distance 8.66 km</desc>
<time>2010-10-24T12:01:17.85</time>
<name>5347</name>
</trkpt>
<trkpt lat="48.927497" lon="8.668740">
<ele>377.5</ele>
<speed>1.74</speed>
<course>108.1</course>
<desc>Speed 6.3 km/h Distance 8.66 km</desc>
<time>2010-10-24T12:01:18.79</time>
<name>5348</name>
</trkpt>
<trkpt lat="48.927492" lon="8.668763">
<ele>377.5</ele>
<speed>1.78</speed>
<course>98.7</course>
<desc>Speed 6.4 km/h Distance 8.66 km</desc>
<time>2010-10-24T12:01:19.79</time>
<name>5349</name>
</trkpt>
<trkpt lat="48.927488" lon="8.668797">
<ele>376.5</ele>
<speed>2.38</speed>
<course>105.0</course>
<desc>Speed 8.6 km/h Distance 8.67 km</desc>
<time>2010-10-24T12:01:20.79</time>
<name>5350</name>
</trkpt>
<trkpt lat="48.927483" lon="8.668825">
<ele>377.5</ele>
<speed>1.97</speed>
<course>124.0</course>
<desc>Speed 7.1 km/h Distance 8.67 km</desc>
<time>2010-10-24T12:01:21.79</time>
<name>5351</name>
</trkpt>
<trkpt lat="48.927477" lon="8.668840">
<ele>376.5</ele>
<speed>1.37</speed>
<course>113.5</course>
<desc>Speed 4.9 km/h Distance 8.67 km</desc>
<time>2010-10-24T12:01:22.79</time>
<name>5352</name>
</trkpt>
<trkpt lat="48.927470" lon="8.668863">
<ele>376.5</ele>
<speed>1.74</speed>
<course>112.1</course>
<desc>Speed 6.3 km/h Distance 8.67 km</desc>
<time>2010-10-24T12:01:23.79</time>
<name>5353</name>
</trkpt>
<trkpt lat="48.927463" lon="8.668888">
<ele>377.0</ele>
<speed>1.76</speed>
<course>106.9</course>
<desc>Speed 6.3 km/h Distance 8.67 km</desc>
<time>2010-10-24T12:01:24.79</time>
<name>5354</name>
</trkpt>
<trkpt lat="48.927458" lon="8.668913">
<ele>377.0</ele>
<speed>1.70</speed>
<course>113.5</course>
<desc>Speed 6.1 km/h Distance 8.68 km</desc>
<time>2010-10-24T12:01:25.79</time>
<name>5355</name>
</trkpt>
<trkpt lat="48.927452" lon="8.668937">
<ele>377.0</ele>
<speed>1.72</speed>
<course>113.5</course>
<desc>Speed 6.2 km/h Distance 8.68 km</desc>
<time>2010-10-24T12:01:26.78</time>
<name>5356</name>
</trkpt>
<trkpt lat="48.927445" lon="8.668960">
<ele>377.5</ele>
<speed>1.74</speed>
<course>113.5</course>
<desc>Speed 6.3 km/h Distance 8.68 km</desc>
<time>2010-10-24T12:01:27.78</time>
<name>5357</name>
</trkpt>
<trkpt lat="48.927438" lon="8.668983">
<ele>377.5</ele>
<speed>1.72</speed>
<course>113.5</course>
<desc>Speed 6.2 km/h Distance 8.68 km</desc>
<time>2010-10-24T12:01:28.78</time>
<name>5358</name>
</trkpt>
<trkpt lat="48.927432" lon="8.669007">
<ele>377.5</ele>
<speed>1.72</speed>
<course>120.3</course>
<desc>Speed 6.2 km/h Distance 8.68 km</desc>
<time>2010-10-24T12:01:29.78</time>
<name>5359</name>
</trkpt>
<trkpt lat="48.927423" lon="8.669028">
<ele>378.0</ele>
<speed>1.71</speed>
<course>113.5</course>
<desc>Speed 6.2 km/h Distance 8.68 km</desc>
<time>2010-10-24T12:01:30.78</time>
<name>5360</name>
</trkpt>
<trkpt lat="48.927417" lon="8.669052">
<ele>378.0</ele>
<speed>1.75</speed>
<course>102.9</course>
<desc>Speed 6.3 km/h Distance 8.69 km</desc>
<time>2010-10-24T12:01:31.78</time>
<name>5361</name>
</trkpt>
<trkpt lat="48.927412" lon="8.669085">
<ele>379.0</ele>
<speed>1.75</speed>
<course>107.8</course>
<desc>Speed 6.3 km/h Distance 8.69 km</desc>
<time>2010-10-24T12:01:32.78</time>
<name>5362</name>
</trkpt>
<trkpt lat="48.927405" lon="8.669117">
<ele>380.0</ele>
<speed>1.74</speed>
<course>108.7</course>
<desc>Speed 6.3 km/h Distance 8.69 km</desc>
<time>2010-10-24T12:01:33.78</time>
<name>5363</name>
</trkpt>
<trkpt lat="48.927398" lon="8.669147">
<ele>380.5</ele>
<speed>1.77</speed>
<course>107.8</course>
<desc>Speed 6.4 km/h Distance 8.69 km</desc>
<time>2010-10-24T12:01:34.78</time>
<name>5364</name>
</trkpt>
<trkpt lat="48.927392" lon="8.669178">
<ele>381.0</ele>
<speed>1.75</speed>
<course>109.7</course>
<desc>Speed 6.3 km/h Distance 8.70 km</desc>
<time>2010-10-24T12:01:35.78</time>
<name>5365</name>
</trkpt>
<trkpt lat="48.927385" lon="8.669207">
<ele>382.0</ele>
<speed>1.74</speed>
<course>108.7</course>
<desc>Speed 6.3 km/h Distance 8.70 km</desc>
<time>2010-10-24T12:01:36.78</time>
<name>5366</name>
</trkpt>
<trkpt lat="48.927378" lon="8.669237">
<ele>382.5</ele>
<speed>1.79</speed>
<course>105.0</course>
<desc>Speed 6.4 km/h Distance 8.70 km</desc>
<time>2010-10-24T12:01:37.78</time>
<name>5367</name>
</trkpt>
<trkpt lat="48.927373" lon="8.669265">
<ele>383.0</ele>
<speed>1.76</speed>
<course>113.5</course>
<desc>Speed 6.3 km/h Distance 8.70 km</desc>
<time>2010-10-24T12:01:38.78</time>
<name>5368</name>
</trkpt>
<trkpt lat="48.927367" lon="8.669288">
<ele>383.0</ele>
<speed>1.75</speed>
<course>112.1</course>
<desc>Speed 6.3 km/h Distance 8.70 km</desc>
<time>2010-10-24T12:01:39.78</time>
<name>5369</name>
</trkpt>
<trkpt lat="48.927360" lon="8.669313">
<ele>383.5</ele>
<speed>1.75</speed>
<course>112.1</course>
<desc>Speed 6.3 km/h Distance 8.71 km</desc>
<time>2010-10-24T12:01:40.78</time>
<name>5370</name>
</trkpt>
<trkpt lat="48.927353" lon="8.669338">
<ele>384.0</ele>
<speed>1.84</speed>
<course>112.1</course>
<desc>Speed 6.6 km/h Distance 8.71 km</desc>
<time>2010-10-24T12:01:41.78</time>
<name>5371</name>
</trkpt>
<trkpt lat="48.927347" lon="8.669363">
<ele>384.0</ele>
<speed>1.85</speed>
<course>112.1</course>
<desc>Speed 6.7 km/h Distance 8.71 km</desc>
<time>2010-10-24T12:01:42.78</time>
<name>5372</name>
</trkpt>
<trkpt lat="48.927340" lon="8.669388">
<ele>384.5</ele>
<speed>1.83</speed>
<course>113.5</course>
<desc>Speed 6.6 km/h Distance 8.71 km</desc>
<time>2010-10-24T12:01:43.78</time>
<name>5373</name>
</trkpt>
<trkpt lat="48.927333" lon="8.669412">
<ele>384.5</ele>
<speed>1.75</speed>
<course>112.1</course>
<desc>Speed 6.3 km/h Distance 8.71 km</desc>
<time>2010-10-24T12:01:44.78</time>
<name>5374</name>
</trkpt>
<trkpt lat="48.927327" lon="8.669437">
<ele>385.0</ele>
<speed>1.78</speed>
<course>106.9</course>
<desc>Speed 6.4 km/h Distance 8.72 km</desc>
<time>2010-10-24T12:01:45.78</time>
<name>5375</name>
</trkpt>
<trkpt lat="48.927322" lon="8.669462">
<ele>385.0</ele>
<speed>1.76</speed>
<course>120.3</course>
<desc>Speed 6.3 km/h Distance 8.72 km</desc>
<time>2010-10-24T12:01:46.78</time>
<name>5376</name>
</trkpt>
<trkpt lat="48.927313" lon="8.669483">
<ele>385.5</ele>
<speed>1.77</speed>
<course>106.9</course>
<desc>Speed 6.4 km/h Distance 8.72 km</desc>
<time>2010-10-24T12:01:47.78</time>
<name>5377</name>
</trkpt>
<trkpt lat="48.927308" lon="8.669508">
<ele>385.5</ele>
<speed>1.76</speed>
<course>112.1</course>
<desc>Speed 6.3 km/h Distance 8.72 km</desc>
<time>2010-10-24T12:01:48.78</time>
<name>5378</name>
</trkpt>
<trkpt lat="48.927302" lon="8.669533">
<ele>386.0</ele>
<speed>1.83</speed>
<course>113.5</course>
<desc>Speed 6.6 km/h Distance 8.72 km</desc>
<time>2010-10-24T12:01:49.78</time>
<name>5379</name>
</trkpt>
<trkpt lat="48.927295" lon="8.669557">
<ele>386.5</ele>
<speed>1.76</speed>
<course>112.1</course>
<desc>Speed 6.3 km/h Distance 8.73 km</desc>
<time>2010-10-24T12:01:50.78</time>
<name>5380</name>
</trkpt>
<trkpt lat="48.927288" lon="8.669582">
<ele>386.5</ele>
<speed>1.79</speed>
<course>113.5</course>
<desc>Speed 6.4 km/h Distance 8.73 km</desc>
<time>2010-10-24T12:01:51.78</time>
<name>5381</name>
</trkpt>
<trkpt lat="48.927282" lon="8.669605">
<ele>387.0</ele>
<speed>1.76</speed>
<course>106.9</course>
<desc>Speed 6.3 km/h Distance 8.73 km</desc>
<time>2010-10-24T12:01:52.78</time>
<name>5382</name>
</trkpt>
<trkpt lat="48.927277" lon="8.669630">
<ele>387.5</ele>
<speed>1.76</speed>
<course>108.1</course>
<desc>Speed 6.3 km/h Distance 8.73 km</desc>
<time>2010-10-24T12:01:53.78</time>
<name>5383</name>
</trkpt>
<trkpt lat="48.927272" lon="8.669653">
<ele>387.5</ele>
<speed>1.76</speed>
<course>113.5</course>
<desc>Speed 6.3 km/h Distance 8.73 km</desc>
<time>2010-10-24T12:01:54.78</time>
<name>5384</name>
</trkpt>
<trkpt lat="48.927265" lon="8.669677">
<ele>388.0</ele>
<speed>1.77</speed>
<course>113.5</course>
<desc>Speed 6.4 km/h Distance 8.74 km</desc>
<time>2010-10-24T12:01:55.78</time>
<name>5385</name>
</trkpt>
<trkpt lat="48.927258" lon="8.669700">
<ele>388.5</ele>
<speed>1.75</speed>
<course>113.5</course>
<desc>Speed 6.3 km/h Distance 8.74 km</desc>
<time>2010-10-24T12:01:56.78</time>
<name>5386</name>
</trkpt>
<trkpt lat="48.927252" lon="8.669723">
<ele>388.5</ele>
<speed>1.84</speed>
<course>113.5</course>
<desc>Speed 6.6 km/h Distance 8.74 km</desc>
<time>2010-10-24T12:01:57.78</time>
<name>5387</name>
</trkpt>
<trkpt lat="48.927245" lon="8.669747">
<ele>389.0</ele>
<speed>1.78</speed>
<course>113.5</course>
<desc>Speed 6.4 km/h Distance 8.74 km</desc>
<time>2010-10-24T12:01:58.78</time>
<name>5388</name>
</trkpt>
<trkpt lat="48.927238" lon="8.669770">
<ele>389.0</ele>
<speed>1.85</speed>
<course>106.9</course>
<desc>Speed 6.7 km/h Distance 8.74 km</desc>
<time>2010-10-24T12:01:59.78</time>
<name>5389</name>
</trkpt>
<trkpt lat="48.927233" lon="8.669795">
<ele>389.5</ele>
<speed>1.82</speed>
<course>115.1</course>
<desc>Speed 6.6 km/h Distance 8.74 km</desc>
<time>2010-10-24T12:02:00.78</time>
<name>5390</name>
</trkpt>
<trkpt lat="48.927227" lon="8.669817">
<ele>389.5</ele>
<speed>1.72</speed>
<course>108.0</course>
<desc>Speed 6.2 km/h Distance 8.75 km</desc>
<time>2010-10-24T12:02:01.78</time>
<name>5391</name>
</trkpt>
<trkpt lat="48.927222" lon="8.669840">
<ele>389.5</ele>
<speed>1.71</speed>
<course>115.1</course>
<desc>Speed 6.2 km/h Distance 8.75 km</desc>
<time>2010-10-24T12:02:02.78</time>
<name>5392</name>
</trkpt>
<trkpt lat="48.927215" lon="8.669862">
<ele>389.5</ele>
<speed>1.67</speed>
<course>110.8</course>
<desc>Speed 6.0 km/h Distance 8.75 km</desc>
<time>2010-10-24T12:02:03.78</time>
<name>5393</name>
</trkpt>
<trkpt lat="48.927210" lon="8.669882">
<ele>389.0</ele>
<speed>1.62</speed>
<course>121.3</course>
<desc>Speed 5.8 km/h Distance 8.75 km</desc>
<time>2010-10-24T12:02:04.78</time>
<name>5394</name>
</trkpt>
<trkpt lat="48.927203" lon="8.669898">
<ele>388.5</ele>
<speed>1.46</speed>
<course>115.1</course>
<desc>Speed 5.3 km/h Distance 8.75 km</desc>
<time>2010-10-24T12:02:05.78</time>
<name>5395</name>
</trkpt>
<trkpt lat="48.927197" lon="8.669920">
<ele>388.5</ele>
<speed>1.59</speed>
<course>116.9</course>
<desc>Speed 5.7 km/h Distance 8.75 km</desc>
<time>2010-10-24T12:02:06.78</time>
<name>5396</name>
</trkpt>
<trkpt lat="48.927190" lon="8.669940">
<ele>388.0</ele>
<speed>1.63</speed>
<course>124.7</course>
<desc>Speed 5.9 km/h Distance 8.76 km</desc>
<time>2010-10-24T12:02:07.78</time>
<name>5397</name>
</trkpt>
<trkpt lat="48.927182" lon="8.669958">
<ele>388.0</ele>
<speed>1.64</speed>
<course>116.9</course>
<desc>Speed 5.9 km/h Distance 8.76 km</desc>
<time>2010-10-24T12:02:08.78</time>
<name>5398</name>
</trkpt>
<trkpt lat="48.927177" lon="8.669973">
<ele>387.5</ele>
<speed>1.33</speed>
<course>124.7</course>
<desc>Speed 4.8 km/h Distance 8.76 km</desc>
<time>2010-10-24T12:02:09.78</time>
<name>5399</name>
</trkpt>
<trkpt lat="48.927168" lon="8.669992">
<ele>387.0</ele>
<speed>1.54</speed>
<course>119.8</course>
<desc>Speed 5.5 km/h Distance 8.76 km</desc>
<time>2010-10-24T12:02:10.78</time>
<name>5400</name>
</trkpt>
<trkpt lat="48.927163" lon="8.670005">
<ele>386.5</ele>
<speed>1.05</speed>
<course>120.4</course>
<desc>Speed 3.8 km/h Distance 8.76 km</desc>
<time>2010-10-24T12:02:11.78</time>
<name>5401</name>
</trkpt>
<trkpt lat="48.927155" lon="8.670027">
<ele>386.5</ele>
<speed>1.84</speed>
<course>107.0</course>
<desc>Speed 6.6 km/h Distance 8.76 km</desc>
<time>2010-10-24T12:02:12.78</time>
<name>5402</name>
</trkpt>
<trkpt lat="48.927150" lon="8.670052">
<ele>387.0</ele>
<speed>1.71</speed>
<course>115.1</course>
<desc>Speed 6.2 km/h Distance 8.77 km</desc>
<time>2010-10-24T12:02:13.78</time>
<name>5403</name>
</trkpt>
<trkpt lat="48.927143" lon="8.670073">
<ele>387.0</ele>
<speed>1.69</speed>
<course>96.7</course>
<desc>Speed 6.1 km/h Distance 8.77 km</desc>
<time>2010-10-24T12:02:14.78</time>
<name>5404</name>
</trkpt>
<trkpt lat="48.927142" lon="8.670095">
<ele>387.0</ele>
<speed>1.47</speed>
<course>83.3</course>
<desc>Speed 5.3 km/h Distance 8.77 km</desc>
<time>2010-10-24T12:02:15.78</time>
<name>5405</name>
</trkpt>
<trkpt lat="48.927143" lon="8.670117">
<ele>387.0</ele>
<speed>1.39</speed>
<course>61.0</course>
<desc>Speed 5.0 km/h Distance 8.77 km</desc>
<time>2010-10-24T12:02:16.78</time>
<name>5406</name>
</trkpt>
<trkpt lat="48.927150" lon="8.670135">
<ele>387.0</ele>
<speed>1.50</speed>
<course>41.2</course>
<desc>Speed 5.4 km/h Distance 8.77 km</desc>
<time>2010-10-24T12:02:17.78</time>
<name>5407</name>
</trkpt>
<trkpt lat="48.927160" lon="8.670148">
<ele>387.0</ele>
<speed>1.53</speed>
<course>40.2</course>
<desc>Speed 5.5 km/h Distance 8.77 km</desc>
<time>2010-10-24T12:02:18.78</time>
<name>5408</name>
</trkpt>
<trkpt lat="48.927172" lon="8.670163">
<ele>387.0</ele>
<speed>1.65</speed>
<course>29.8</course>
<desc>Speed 5.9 km/h Distance 8.78 km</desc>
<time>2010-10-24T12:02:19.78</time>
<name>5409</name>
</trkpt>
<trkpt lat="48.927185" lon="8.670175">
<ele>387.0</ele>
<speed>1.67</speed>
<course>43.2</course>
<desc>Speed 6.0 km/h Distance 8.78 km</desc>
<time>2010-10-24T12:02:20.78</time>
<name>5410</name>
</trkpt>
<trkpt lat="48.927197" lon="8.670192">
<ele>387.5</ele>
<speed>1.65</speed>
<course>46.4</course>
<desc>Speed 5.9 km/h Distance 8.78 km</desc>
<time>2010-10-24T12:02:21.78</time>
<name>5411</name>
</trkpt>
<trkpt lat="48.927205" lon="8.670205">
<ele>387.0</ele>
<speed>1.34</speed>
<course>42.5</course>
<desc>Speed 4.8 km/h Distance 8.78 km</desc>
<time>2010-10-24T12:02:22.78</time>
<name>5412</name>
</trkpt>
<trkpt lat="48.927213" lon="8.670217">
<ele>386.5</ele>
<speed>1.27</speed>
<course>36.9</course>
<desc>Speed 4.6 km/h Distance 8.78 km</desc>
<time>2010-10-24T12:02:23.78</time>
<name>5413</name>
</trkpt>
<trkpt lat="48.927225" lon="8.670230">
<ele>386.0</ele>
<speed>1.53</speed>
<course>36.9</course>
<desc>Speed 5.5 km/h Distance 8.78 km</desc>
<time>2010-10-24T12:02:24.78</time>
<name>5414</name>
</trkpt>
<trkpt lat="48.927237" lon="8.670243">
<ele>386.0</ele>
<speed>1.53</speed>
<course>33.4</course>
<desc>Speed 5.5 km/h Distance 8.78 km</desc>
<time>2010-10-24T12:02:25.78</time>
<name>5415</name>
</trkpt>
<trkpt lat="48.927250" lon="8.670257">
<ele>386.0</ele>
<speed>1.57</speed>
<course>40.2</course>
<desc>Speed 5.7 km/h Distance 8.79 km</desc>
<time>2010-10-24T12:02:26.78</time>
<name>5416</name>
</trkpt>
<trkpt lat="48.927262" lon="8.670272">
<ele>386.0</ele>
<speed>1.63</speed>
<course>40.2</course>
<desc>Speed 5.9 km/h Distance 8.79 km</desc>
<time>2010-10-24T12:02:27.78</time>
<name>5417</name>
</trkpt>
<trkpt lat="48.927273" lon="8.670287">
<ele>386.0</ele>
<speed>1.62</speed>
<course>36.9</course>
<desc>Speed 5.8 km/h Distance 8.79 km</desc>
<time>2010-10-24T12:02:28.78</time>
<name>5418</name>
</trkpt>
<trkpt lat="48.927285" lon="8.670300">
<ele>386.0</ele>
<speed>1.44</speed>
<course>44.5</course>
<desc>Speed 5.2 km/h Distance 8.79 km</desc>
<time>2010-10-24T12:02:29.78</time>
<name>5419</name>
</trkpt>
<trkpt lat="48.927295" lon="8.670315">
<ele>386.0</ele>
<speed>1.48</speed>
<course>37.5</course>
<desc>Speed 5.3 km/h Distance 8.79 km</desc>
<time>2010-10-24T12:02:30.78</time>
<name>5420</name>
</trkpt>
<trkpt lat="48.927305" lon="8.670327">
<ele>385.5</ele>
<speed>1.37</speed>
<course>33.1</course>
<desc>Speed 4.9 km/h Distance 8.79 km</desc>
<time>2010-10-24T12:02:31.78</time>
<name>5421</name>
</trkpt>
<trkpt lat="48.927317" lon="8.670338">
<ele>385.5</ele>
<speed>1.34</speed>
<course>40.2</course>
<desc>Speed 4.8 km/h Distance 8.80 km</desc>
<time>2010-10-24T12:02:32.78</time>
<name>5422</name>
</trkpt>
<trkpt lat="48.927328" lon="8.670353">
<ele>385.5</ele>
<speed>1.62</speed>
<course>36.9</course>
<desc>Speed 5.8 km/h Distance 8.80 km</desc>
<time>2010-10-24T12:02:33.78</time>
<name>5423</name>
</trkpt>
<trkpt lat="48.927340" lon="8.670367">
<ele>385.0</ele>
<speed>1.60</speed>
<course>49.7</course>
<desc>Speed 5.8 km/h Distance 8.80 km</desc>
<time>2010-10-24T12:02:34.78</time>
<name>5424</name>
</trkpt>
<trkpt lat="48.927348" lon="8.670382">
<ele>385.0</ele>
<speed>1.38</speed>
<course>41.3</course>
<desc>Speed 5.0 km/h Distance 8.80 km</desc>
<time>2010-10-24T12:02:35.78</time>
<name>5425</name>
</trkpt>
<trkpt lat="48.927358" lon="8.670395">
<ele>384.5</ele>
<speed>1.42</speed>
<course>33.4</course>
<desc>Speed 5.1 km/h Distance 8.80 km</desc>
<time>2010-10-24T12:02:36.78</time>
<name>5426</name>
</trkpt>
<trkpt lat="48.927372" lon="8.670408">
<ele>384.5</ele>
<speed>1.64</speed>
<course>33.2</course>
<desc>Speed 5.9 km/h Distance 8.80 km</desc>
<time>2010-10-24T12:02:37.78</time>
<name>5427</name>
</trkpt>
<trkpt lat="48.927385" lon="8.670422">
<ele>384.0</ele>
<speed>1.64</speed>
<course>36.9</course>
<desc>Speed 5.9 km/h Distance 8.81 km</desc>
<time>2010-10-24T12:02:38.78</time>
<name>5428</name>
</trkpt>
<trkpt lat="48.927397" lon="8.670435">
<ele>384.0</ele>
<speed>1.52</speed>
<course>33.4</course>
<desc>Speed 5.5 km/h Distance 8.81 km</desc>
<time>2010-10-24T12:02:39.78</time>
<name>5429</name>
</trkpt>
<trkpt lat="48.927408" lon="8.670447">
<ele>383.5</ele>
<speed>1.47</speed>
<course>60.3</course>
<desc>Speed 5.3 km/h Distance 8.81 km</desc>
<time>2010-10-24T12:02:40.78</time>
<name>5430</name>
</trkpt>
<trkpt lat="48.927413" lon="8.670460">
<ele>383.0</ele>
<speed>1.00</speed>
<course>52.7</course>
<desc>Speed 3.6 km/h Distance 8.81 km</desc>
<time>2010-10-24T12:02:41.78</time>
<name>5431</name>
</trkpt>
<trkpt lat="48.927420" lon="8.670473">
<ele>382.5</ele>
<speed>1.23</speed>
<course>37.5</course>
<desc>Speed 4.4 km/h Distance 8.81 km</desc>
<time>2010-10-24T12:02:42.78</time>
<name>5432</name>
</trkpt>
<trkpt lat="48.927430" lon="8.670485">
<ele>382.0</ele>
<speed>1.33</speed>
<course>27.9</course>
<desc>Speed 4.8 km/h Distance 8.81 km</desc>
<time>2010-10-24T12:02:43.78</time>
<name>5433</name>
</trkpt>
<trkpt lat="48.927438" lon="8.670492">
<ele>381.0</ele>
<speed>0.87</speed>
<course>33.4</course>
<desc>Speed 3.1 km/h Distance 8.81 km</desc>
<time>2010-10-24T12:02:44.78</time>
<name>5434</name>
</trkpt>
<trkpt lat="48.927450" lon="8.670503">
<ele>380.5</ele>
<speed>1.50</speed>
<course>38.4</course>
<desc>Speed 5.4 km/h Distance 8.82 km</desc>
<time>2010-10-24T12:02:45.78</time>
<name>5435</name>
</trkpt>
<trkpt lat="48.927458" lon="8.670513">
<ele>380.0</ele>
<speed>1.01</speed>
<course>28.6</course>
<desc>Speed 3.6 km/h Distance 8.82 km</desc>
<time>2010-10-24T12:02:46.78</time>
<name>5436</name>
</trkpt>
<trkpt lat="48.927468" lon="8.670522">
<ele>379.5</ele>
<speed>0.98</speed>
<course>33.2</course>
<desc>Speed 3.5 km/h Distance 8.82 km</desc>
<time>2010-10-24T12:02:47.78</time>
<name>5437</name>
</trkpt>
<trkpt lat="48.927477" lon="8.670530">
<ele>378.5</ele>
<speed>1.04</speed>
<course>41.2</course>
<desc>Speed 3.7 km/h Distance 8.82 km</desc>
<time>2010-10-24T12:02:48.78</time>
<name>5438</name>
</trkpt>
<trkpt lat="48.927487" lon="8.670543">
<ele>378.0</ele>
<speed>1.33</speed>
<course>55.9</course>
<desc>Speed 4.8 km/h Distance 8.82 km</desc>
<time>2010-10-24T12:02:49.78</time>
<name>5439</name>
</trkpt>
<trkpt lat="48.927493" lon="8.670558">
<ele>378.0</ele>
<speed>1.38</speed>
<course>44.5</course>
<desc>Speed 5.0 km/h Distance 8.82 km</desc>
<time>2010-10-24T12:02:50.78</time>
<name>5440</name>
</trkpt>
<trkpt lat="48.927503" lon="8.670573">
<ele>377.5</ele>
<speed>1.44</speed>
<course>44.7</course>
<desc>Speed 5.2 km/h Distance 8.82 km</desc>
<time>2010-10-24T12:02:51.78</time>
<name>5441</name>
</trkpt>
<trkpt lat="48.927513" lon="8.670588">
<ele>377.5</ele>
<speed>1.61</speed>
<course>41.4</course>
<desc>Speed 5.8 km/h Distance 8.83 km</desc>
<time>2010-10-24T12:02:52.78</time>
<name>5442</name>
</trkpt>
<trkpt lat="48.927523" lon="8.670602">
<ele>377.0</ele>
<speed>1.35</speed>
<course>41.2</course>
<desc>Speed 4.9 km/h Distance 8.83 km</desc>
<time>2010-10-24T12:02:53.78</time>
<name>5443</name>
</trkpt>
<trkpt lat="48.927533" lon="8.670615">
<ele>376.5</ele>
<speed>1.37</speed>
<course>36.9</course>
<desc>Speed 4.9 km/h Distance 8.83 km</desc>
<time>2010-10-24T12:02:54.78</time>
<name>5444</name>
</trkpt>
<trkpt lat="48.927545" lon="8.670628">
<ele>376.5</ele>
<speed>1.45</speed>
<course>36.9</course>
<desc>Speed 5.2 km/h Distance 8.83 km</desc>
<time>2010-10-24T12:02:55.78</time>
<name>5445</name>
</trkpt>
<trkpt lat="48.927557" lon="8.670642">
<ele>376.0</ele>
<speed>1.37</speed>
<course>29.8</course>
<desc>Speed 4.9 km/h Distance 8.83 km</desc>
<time>2010-10-24T12:02:56.78</time>
<name>5446</name>
</trkpt>
<trkpt lat="48.927570" lon="8.670653">
<ele>376.5</ele>
<speed>1.52</speed>
<course>52.7</course>
<desc>Speed 5.5 km/h Distance 8.83 km</desc>
<time>2010-10-24T12:02:57.78</time>
<name>5447</name>
</trkpt>
<trkpt lat="48.927578" lon="8.670670">
<ele>376.5</ele>
<speed>1.37</speed>
<course>20.1</course>
<desc>Speed 4.9 km/h Distance 8.83 km</desc>
<time>2010-10-24T12:02:58.77</time>
<name>5448</name>
</trkpt>
<trkpt lat="48.927593" lon="8.670678">
<ele>375.0</ele>
<speed>1.62</speed>
<course>60.2</course>
<desc>Speed 5.8 km/h Distance 8.84 km</desc>
<time>2010-10-24T12:02:59.77</time>
<name>5449</name>
</trkpt>
<trkpt lat="48.927598" lon="8.670692">
<ele>375.0</ele>
<speed>1.20</speed>
<course>33.3</course>
<desc>Speed 4.3 km/h Distance 8.84 km</desc>
<time>2010-10-24T12:03:00.77</time>
<name>5450</name>
</trkpt>
<trkpt lat="48.927612" lon="8.670705">
<ele>375.0</ele>
<speed>1.53</speed>
<course>26.4</course>
<desc>Speed 5.5 km/h Distance 8.84 km</desc>
<time>2010-10-24T12:03:01.77</time>
<name>5451</name>
</trkpt>
<trkpt lat="48.927625" lon="8.670715">
<ele>375.0</ele>
<speed>1.59</speed>
<course>40.1</course>
<desc>Speed 5.7 km/h Distance 8.84 km</desc>
<time>2010-10-24T12:03:02.77</time>
<name>5452</name>
</trkpt>
<trkpt lat="48.927637" lon="8.670730">
<ele>374.5</ele>
<speed>1.57</speed>
<course>33.3</course>
<desc>Speed 5.7 km/h Distance 8.84 km</desc>
<time>2010-10-24T12:03:03.77</time>
<name>5453</name>
</trkpt>
<trkpt lat="48.927650" lon="8.670743">
<ele>374.5</ele>
<speed>1.66</speed>
<course>30.3</course>
<desc>Speed 6.0 km/h Distance 8.84 km</desc>
<time>2010-10-24T12:03:04.77</time>
<name>5454</name>
</trkpt>
<trkpt lat="48.927665" lon="8.670757">
<ele>374.5</ele>
<speed>1.64</speed>
<course>30.3</course>
<desc>Speed 5.9 km/h Distance 8.85 km</desc>
<time>2010-10-24T12:03:05.77</time>
<name>5455</name>
</trkpt>
<trkpt lat="48.927680" lon="8.670770">
<ele>374.5</ele>
<speed>1.65</speed>
<course>27.7</course>
<desc>Speed 5.9 km/h Distance 8.85 km</desc>
<time>2010-10-24T12:03:06.77</time>
<name>5456</name>
</trkpt>
<trkpt lat="48.927697" lon="8.670783">
<ele>375.0</ele>
<speed>1.69</speed>
<course>28.3</course>
<desc>Speed 6.1 km/h Distance 8.85 km</desc>
<time>2010-10-24T12:03:07.77</time>
<name>5457</name>
</trkpt>
<trkpt lat="48.927715" lon="8.670798">
<ele>375.0</ele>
<speed>1.71</speed>
<course>30.3</course>
<desc>Speed 6.2 km/h Distance 8.85 km</desc>
<time>2010-10-24T12:03:08.77</time>
<name>5458</name>
</trkpt>
<trkpt lat="48.927730" lon="8.670812">
<ele>375.0</ele>
<speed>1.71</speed>
<course>30.0</course>
<desc>Speed 6.2 km/h Distance 8.85 km</desc>
<time>2010-10-24T12:03:09.77</time>
<name>5459</name>
</trkpt>
<trkpt lat="48.927743" lon="8.670823">
<ele>375.0</ele>
<speed>1.57</speed>
<course>30.4</course>
<desc>Speed 5.7 km/h Distance 8.86 km</desc>
<time>2010-10-24T12:03:10.77</time>
<name>5460</name>
</trkpt>
<trkpt lat="48.927758" lon="8.670837">
<ele>375.0</ele>
<speed>1.67</speed>
<course>33.4</course>
<desc>Speed 6.0 km/h Distance 8.86 km</desc>
<time>2010-10-24T12:03:11.77</time>
<name>5461</name>
</trkpt>
<trkpt lat="48.927770" lon="8.670848">
<ele>375.0</ele>
<speed>1.61</speed>
<course>30.5</course>
<desc>Speed 5.8 km/h Distance 8.86 km</desc>
<time>2010-10-24T12:03:12.77</time>
<name>5462</name>
</trkpt>
<trkpt lat="48.927785" lon="8.670862">
<ele>375.0</ele>
<speed>1.62</speed>
<course>30.0</course>
<desc>Speed 5.8 km/h Distance 8.86 km</desc>
<time>2010-10-24T12:03:13.77</time>
<name>5463</name>
</trkpt>
<trkpt lat="48.927798" lon="8.670873">
<ele>375.0</ele>
<speed>1.63</speed>
<course>30.3</course>
<desc>Speed 5.9 km/h Distance 8.86 km</desc>
<time>2010-10-24T12:03:14.77</time>
<name>5464</name>
</trkpt>
<trkpt lat="48.927813" lon="8.670887">
<ele>374.5</ele>
<speed>1.55</speed>
<course>36.6</course>
<desc>Speed 5.6 km/h Distance 8.87 km</desc>
<time>2010-10-24T12:03:15.77</time>
<name>5465</name>
</trkpt>
<trkpt lat="48.927827" lon="8.670902">
<ele>374.5</ele>
<speed>1.59</speed>
<course>36.6</course>
<desc>Speed 5.7 km/h Distance 8.87 km</desc>
<time>2010-10-24T12:03:16.77</time>
<name>5466</name>
</trkpt>
<trkpt lat="48.927840" lon="8.670917">
<ele>374.0</ele>
<speed>1.63</speed>
<course>30.3</course>
<desc>Speed 5.9 km/h Distance 8.87 km</desc>
<time>2010-10-24T12:03:17.77</time>
<name>5467</name>
</trkpt>
<trkpt lat="48.927855" lon="8.670930">
<ele>374.0</ele>
<speed>1.73</speed>
<course>36.5</course>
<desc>Speed 6.2 km/h Distance 8.87 km</desc>
<time>2010-10-24T12:03:18.77</time>
<name>5468</name>
</trkpt>
<trkpt lat="48.927868" lon="8.670945">
<ele>374.0</ele>
<speed>1.64</speed>
<course>36.6</course>
<desc>Speed 5.9 km/h Distance 8.87 km</desc>
<time>2010-10-24T12:03:19.77</time>
<name>5469</name>
</trkpt>
<trkpt lat="48.927882" lon="8.670960">
<ele>374.0</ele>
<speed>1.65</speed>
<course>36.6</course>
<desc>Speed 5.9 km/h Distance 8.87 km</desc>
<time>2010-10-24T12:03:20.77</time>
<name>5470</name>
</trkpt>
<trkpt lat="48.927895" lon="8.670975">
<ele>374.0</ele>
<speed>1.59</speed>
<course>30.5</course>
<desc>Speed 5.7 km/h Distance 8.88 km</desc>
<time>2010-10-24T12:03:21.77</time>
<name>5471</name>
</trkpt>
<trkpt lat="48.927910" lon="8.670988">
<ele>374.0</ele>
<speed>1.65</speed>
<course>33.4</course>
<desc>Speed 5.9 km/h Distance 8.88 km</desc>
<time>2010-10-24T12:03:22.77</time>
<name>5472</name>
</trkpt>
<trkpt lat="48.927925" lon="8.671003">
<ele>374.0</ele>
<speed>1.65</speed>
<course>33.3</course>
<desc>Speed 5.9 km/h Distance 8.88 km</desc>
<time>2010-10-24T12:03:23.77</time>
<name>5473</name>
</trkpt>
<trkpt lat="48.927940" lon="8.671018">
<ele>374.0</ele>
<speed>1.65</speed>
<course>40.2</course>
<desc>Speed 5.9 km/h Distance 8.88 km</desc>
<time>2010-10-24T12:03:24.77</time>
<name>5474</name>
</trkpt>
<trkpt lat="48.927952" lon="8.671033">
<ele>374.0</ele>
<speed>1.70</speed>
<course>36.6</course>
<desc>Speed 6.1 km/h Distance 8.88 km</desc>
<time>2010-10-24T12:03:25.77</time>
<name>5475</name>
</trkpt>
<trkpt lat="48.927965" lon="8.671048">
<ele>373.5</ele>
<speed>1.62</speed>
<course>36.6</course>
<desc>Speed 5.8 km/h Distance 8.89 km</desc>
<time>2010-10-24T12:03:26.77</time>
<name>5476</name>
</trkpt>
<trkpt lat="48.927978" lon="8.671063">
<ele>373.5</ele>
<speed>1.61</speed>
<course>40.3</course>
<desc>Speed 5.8 km/h Distance 8.89 km</desc>
<time>2010-10-24T12:03:27.77</time>
<name>5477</name>
</trkpt>
<trkpt lat="48.927990" lon="8.671078">
<ele>373.5</ele>
<speed>1.58</speed>
<course>33.4</course>
<desc>Speed 5.7 km/h Distance 8.89 km</desc>
<time>2010-10-24T12:03:28.77</time>
<name>5478</name>
</trkpt>
<trkpt lat="48.928003" lon="8.671092">
<ele>373.5</ele>
<speed>1.52</speed>
<course>37.5</course>
<desc>Speed 5.5 km/h Distance 8.89 km</desc>
<time>2010-10-24T12:03:29.77</time>
<name>5479</name>
</trkpt>
<trkpt lat="48.928013" lon="8.671103">
<ele>373.0</ele>
<speed>1.28</speed>
<course>41.2</course>
<desc>Speed 4.6 km/h Distance 8.89 km</desc>
<time>2010-10-24T12:03:30.77</time>
<name>5480</name>
</trkpt>
<trkpt lat="48.928023" lon="8.671117">
<ele>372.5</ele>
<speed>1.35</speed>
<course>33.1</course>
<desc>Speed 4.9 km/h Distance 8.89 km</desc>
<time>2010-10-24T12:03:31.77</time>
<name>5481</name>
</trkpt>
<trkpt lat="48.928035" lon="8.671128">
<ele>372.5</ele>
<speed>1.36</speed>
<course>22.6</course>
<desc>Speed 4.9 km/h Distance 8.90 km</desc>
<time>2010-10-24T12:03:32.77</time>
<name>5482</name>
</trkpt>
<trkpt lat="48.928048" lon="8.671137">
<ele>372.5</ele>
<speed>1.47</speed>
<course>33.3</course>
<desc>Speed 5.3 km/h Distance 8.90 km</desc>
<time>2010-10-24T12:03:33.77</time>
<name>5483</name>
</trkpt>
<trkpt lat="48.928060" lon="8.671148">
<ele>372.0</ele>
<speed>1.50</speed>
<course>24.6</course>
<desc>Speed 5.4 km/h Distance 8.90 km</desc>
<time>2010-10-24T12:03:34.77</time>
<name>5484</name>
</trkpt>
<trkpt lat="48.928077" lon="8.671160">
<ele>372.5</ele>
<speed>1.55</speed>
<course>27.7</course>
<desc>Speed 5.6 km/h Distance 8.90 km</desc>
<time>2010-10-24T12:03:35.77</time>
<name>5485</name>
</trkpt>
<trkpt lat="48.928093" lon="8.671173">
<ele>372.5</ele>
<speed>1.60</speed>
<course>30.3</course>
<desc>Speed 5.8 km/h Distance 8.90 km</desc>
<time>2010-10-24T12:03:36.77</time>
<name>5486</name>
</trkpt>
<trkpt lat="48.928108" lon="8.671187">
<ele>372.5</ele>
<speed>1.55</speed>
<course>30.3</course>
<desc>Speed 5.6 km/h Distance 8.90 km</desc>
<time>2010-10-24T12:03:37.77</time>
<name>5487</name>
</trkpt>
<trkpt lat="48.928123" lon="8.671200">
<ele>373.0</ele>
<speed>1.37</speed>
<course>33.3</course>
<desc>Speed 4.9 km/h Distance 8.91 km</desc>
<time>2010-10-24T12:03:38.77</time>
<name>5488</name>
</trkpt>
<trkpt lat="48.928135" lon="8.671212">
<ele>373.0</ele>
<speed>1.50</speed>
<course>28.2</course>
<desc>Speed 5.4 km/h Distance 8.91 km</desc>
<time>2010-10-24T12:03:39.77</time>
<name>5489</name>
</trkpt>
<trkpt lat="48.928153" lon="8.671227">
<ele>373.5</ele>
<speed>1.55</speed>
<course>39.4</course>
<desc>Speed 5.6 km/h Distance 8.91 km</desc>
<time>2010-10-24T12:03:40.77</time>
<name>5490</name>
</trkpt>
<trkpt lat="48.928167" lon="8.671243">
<ele>373.5</ele>
<speed>1.59</speed>
<course>39.4</course>
<desc>Speed 5.7 km/h Distance 8.91 km</desc>
<time>2010-10-24T12:03:41.77</time>
<name>5491</name>
</trkpt>
<trkpt lat="48.928180" lon="8.671260">
<ele>373.5</ele>
<speed>1.59</speed>
<course>36.6</course>
<desc>Speed 5.7 km/h Distance 8.91 km</desc>
<time>2010-10-24T12:03:42.77</time>
<name>5492</name>
</trkpt>
<trkpt lat="48.928193" lon="8.671275">
<ele>374.0</ele>
<speed>1.52</speed>
<course>40.2</course>
<desc>Speed 5.5 km/h Distance 8.92 km</desc>
<time>2010-10-24T12:03:43.77</time>
<name>5493</name>
</trkpt>
<trkpt lat="48.928205" lon="8.671290">
<ele>374.0</ele>
<speed>1.50</speed>
<course>23.7</course>
<desc>Speed 5.4 km/h Distance 8.92 km</desc>
<time>2010-10-24T12:03:44.77</time>
<name>5494</name>
</trkpt>
<trkpt lat="48.928220" lon="8.671300">
<ele>374.0</ele>
<speed>1.54</speed>
<course>36.9</course>
<desc>Speed 5.5 km/h Distance 8.92 km</desc>
<time>2010-10-24T12:03:45.77</time>
<name>5495</name>
</trkpt>
<trkpt lat="48.928232" lon="8.671313">
<ele>373.5</ele>
<speed>1.59</speed>
<course>30.3</course>
<desc>Speed 5.7 km/h Distance 8.92 km</desc>
<time>2010-10-24T12:03:46.77</time>
<name>5496</name>
</trkpt>
<trkpt lat="48.928247" lon="8.671327">
<ele>373.5</ele>
<speed>1.63</speed>
<course>45.9</course>
<desc>Speed 5.9 km/h Distance 8.92 km</desc>
<time>2010-10-24T12:03:47.77</time>
<name>5497</name>
</trkpt>
<trkpt lat="48.928258" lon="8.671345">
<ele>374.0</ele>
<speed>1.64</speed>
<course>40.2</course>
<desc>Speed 5.9 km/h Distance 8.93 km</desc>
<time>2010-10-24T12:03:48.77</time>
<name>5498</name>
</trkpt>
<trkpt lat="48.928270" lon="8.671360">
<ele>373.5</ele>
<speed>1.55</speed>
<course>40.2</course>
<desc>Speed 5.6 km/h Distance 8.93 km</desc>
<time>2010-10-24T12:03:49.77</time>
<name>5499</name>
</trkpt>
<trkpt lat="48.928282" lon="8.671375">
<ele>373.5</ele>
<speed>1.63</speed>
<course>36.5</course>
<desc>Speed 5.9 km/h Distance 8.93 km</desc>
<time>2010-10-24T12:03:50.77</time>
<name>5500</name>
</trkpt>
<trkpt lat="48.928295" lon="8.671390">
<ele>373.5</ele>
<speed>1.70</speed>
<course>33.4</course>
<desc>Speed 6.1 km/h Distance 8.93 km</desc>
<time>2010-10-24T12:03:51.77</time>
<name>5501</name>
</trkpt>
<trkpt lat="48.928308" lon="8.671403">
<ele>373.0</ele>
<speed>1.61</speed>
<course>43.3</course>
<desc>Speed 5.8 km/h Distance 8.93 km</desc>
<time>2010-10-24T12:03:52.77</time>
<name>5502</name>
</trkpt>
<trkpt lat="48.928320" lon="8.671420">
<ele>373.0</ele>
<speed>1.59</speed>
<course>40.2</course>
<desc>Speed 5.7 km/h Distance 8.93 km</desc>
<time>2010-10-24T12:03:53.77</time>
<name>5503</name>
</trkpt>
<trkpt lat="48.928332" lon="8.671435">
<ele>372.5</ele>
<speed>1.54</speed>
<course>36.9</course>
<desc>Speed 5.5 km/h Distance 8.94 km</desc>
<time>2010-10-24T12:03:54.77</time>
<name>5504</name>
</trkpt>
<trkpt lat="48.928343" lon="8.671448">
<ele>372.0</ele>
<speed>1.55</speed>
<course>30.6</course>
<desc>Speed 5.6 km/h Distance 8.94 km</desc>
<time>2010-10-24T12:03:55.77</time>
<name>5505</name>
</trkpt>
<trkpt lat="48.928360" lon="8.671463">
<ele>372.5</ele>
<speed>1.61</speed>
<course>33.3</course>
<desc>Speed 5.8 km/h Distance 8.94 km</desc>
<time>2010-10-24T12:03:56.77</time>
<name>5506</name>
</trkpt>
<trkpt lat="48.928375" lon="8.671478">
<ele>373.0</ele>
<speed>1.47</speed>
<course>33.3</course>
<desc>Speed 5.3 km/h Distance 8.94 km</desc>
<time>2010-10-24T12:03:57.77</time>
<name>5507</name>
</trkpt>
<trkpt lat="48.928390" lon="8.671493">
<ele>373.0</ele>
<speed>1.50</speed>
<course>36.2</course>
<desc>Speed 5.4 km/h Distance 8.94 km</desc>
<time>2010-10-24T12:03:58.77</time>
<name>5508</name>
</trkpt>
<trkpt lat="48.928405" lon="8.671510">
<ele>373.5</ele>
<speed>1.51</speed>
<course>47.6</course>
<desc>Speed 5.4 km/h Distance 8.95 km</desc>
<time>2010-10-24T12:03:59.77</time>
<name>5509</name>
</trkpt>
<trkpt lat="48.928415" lon="8.671527">
<ele>373.5</ele>
<speed>1.39</speed>
<course>49.8</course>
<desc>Speed 5.0 km/h Distance 8.95 km</desc>
<time>2010-10-24T12:04:00.77</time>
<name>5510</name>
</trkpt>
<trkpt lat="48.928423" lon="8.671542">
<ele>373.0</ele>
<speed>1.40</speed>
<course>46.4</course>
<desc>Speed 5.0 km/h Distance 8.95 km</desc>
<time>2010-10-24T12:04:01.77</time>
<name>5511</name>
</trkpt>
<trkpt lat="48.928432" lon="8.671555">
<ele>373.0</ele>
<speed>1.25</speed>
<course>33.2</course>
<desc>Speed 4.5 km/h Distance 8.95 km</desc>
<time>2010-10-24T12:04:02.77</time>
<name>5512</name>
</trkpt>
<trkpt lat="48.928442" lon="8.671565">
<ele>373.0</ele>
<speed>1.23</speed>
<course>42.6</course>
<desc>Speed 4.4 km/h Distance 8.95 km</desc>
<time>2010-10-24T12:04:03.77</time>
<name>5513</name>
</trkpt>
<trkpt lat="48.928450" lon="8.671577">
<ele>373.0</ele>
<speed>1.12</speed>
<course>33.4</course>
<desc>Speed 4.0 km/h Distance 8.95 km</desc>
<time>2010-10-24T12:04:04.77</time>
<name>5514</name>
</trkpt>
<trkpt lat="48.928460" lon="8.671587">
<ele>373.0</ele>
<speed>1.20</speed>
<course>28.6</course>
<desc>Speed 4.3 km/h Distance 8.95 km</desc>
<time>2010-10-24T12:04:05.77</time>
<name>5515</name>
</trkpt>
<trkpt lat="48.928470" lon="8.671595">
<ele>373.5</ele>
<speed>1.08</speed>
<course>41.2</course>
<desc>Speed 3.9 km/h Distance 8.96 km</desc>
<time>2010-10-24T12:04:06.77</time>
<name>5516</name>
</trkpt>
<trkpt lat="48.928480" lon="8.671608">
<ele>373.5</ele>
<speed>1.23</speed>
<course>55.9</course>
<desc>Speed 4.4 km/h Distance 8.96 km</desc>
<time>2010-10-24T12:04:07.77</time>
<name>5517</name>
</trkpt>
<trkpt lat="48.928487" lon="8.671623">
<ele>374.0</ele>
<speed>1.28</speed>
<course>90.0</course>
<desc>Speed 4.6 km/h Distance 8.96 km</desc>
<time>2010-10-24T12:04:08.77</time>
<name>5518</name>
</trkpt>
<trkpt lat="48.928487" lon="8.671642">
<ele>374.5</ele>
<speed>1.27</speed>
<course>74.5</course>
<desc>Speed 4.6 km/h Distance 8.96 km</desc>
<time>2010-10-24T12:04:09.77</time>
<name>5519</name>
</trkpt>
<trkpt lat="48.928490" lon="8.671660">
<ele>375.0</ele>
<speed>1.37</speed>
<course>97.9</course>
<desc>Speed 4.9 km/h Distance 8.96 km</desc>
<time>2010-10-24T12:04:10.77</time>
<name>5520</name>
</trkpt>
<trkpt lat="48.928488" lon="8.671678">
<ele>375.5</ele>
<speed>1.32</speed>
<course>76.8</course>
<desc>Speed 4.8 km/h Distance 8.96 km</desc>
<time>2010-10-24T12:04:11.77</time>
<name>5521</name>
</trkpt>
<trkpt lat="48.928492" lon="8.671700">
<ele>376.5</ele>
<speed>1.65</speed>
<course>50.6</course>
<desc>Speed 5.9 km/h Distance 8.96 km</desc>
<time>2010-10-24T12:04:12.77</time>
<name>5522</name>
</trkpt>
<trkpt lat="48.928503" lon="8.671722">
<ele>378.5</ele>
<speed>1.99</speed>
<course>61.5</course>
<desc>Speed 7.2 km/h Distance 8.97 km</desc>
<time>2010-10-24T12:04:13.77</time>
<name>5523</name>
</trkpt>
<trkpt lat="48.928512" lon="8.671745">
<ele>380.0</ele>
<speed>1.67</speed>
<course>63.1</course>
<desc>Speed 6.0 km/h Distance 8.97 km</desc>
<time>2010-10-24T12:04:14.77</time>
<name>5524</name>
</trkpt>
<trkpt lat="48.928518" lon="8.671765">
<ele>380.5</ele>
<speed>1.50</speed>
<course>55.3</course>
<desc>Speed 5.4 km/h Distance 8.97 km</desc>
<time>2010-10-24T12:04:15.77</time>
<name>5525</name>
</trkpt>
<trkpt lat="48.928527" lon="8.671783">
<ele>381.5</ele>
<speed>1.54</speed>
<course>75.8</course>
<desc>Speed 5.5 km/h Distance 8.97 km</desc>
<time>2010-10-24T12:04:16.77</time>
<name>5526</name>
</trkpt>
<trkpt lat="48.928530" lon="8.671803">
<ele>382.5</ele>
<speed>1.63</speed>
<course>52.8</course>
<desc>Speed 5.9 km/h Distance 8.97 km</desc>
<time>2010-10-24T12:04:17.77</time>
<name>5527</name>
</trkpt>
<trkpt lat="48.928540" lon="8.671823">
<ele>383.0</ele>
<speed>1.59</speed>
<course>37.8</course>
<desc>Speed 5.7 km/h Distance 8.97 km</desc>
<time>2010-10-24T12:04:18.77</time>
<name>5528</name>
</trkpt>
<trkpt lat="48.928558" lon="8.671845">
<ele>385.0</ele>
<speed>2.09</speed>
<course>66.5</course>
<desc>Speed 7.5 km/h Distance 8.98 km</desc>
<time>2010-10-24T12:04:19.77</time>
<name>5529</name>
</trkpt>
<trkpt lat="48.928562" lon="8.671857">
<ele>384.5</ele>
<speed>0.88</speed>
<course>55.9</course>
<desc>Speed 3.2 km/h Distance 8.98 km</desc>
<time>2010-10-24T12:04:20.77</time>
<name>5530</name>
</trkpt>
<trkpt lat="48.928568" lon="8.671872">
<ele>385.0</ele>
<speed>1.24</speed>
<course>46.9</course>
<desc>Speed 4.5 km/h Distance 8.98 km</desc>
<time>2010-10-24T12:04:21.77</time>
<name>5531</name>
</trkpt>
<trkpt lat="48.928582" lon="8.671893">
<ele>386.0</ele>
<speed>1.87</speed>
<course>61.5</course>
<desc>Speed 6.7 km/h Distance 8.98 km</desc>
<time>2010-10-24T12:04:22.77</time>
<name>5532</name>
</trkpt>
<trkpt lat="48.928590" lon="8.671917">
<ele>386.5</ele>
<speed>1.65</speed>
<course>70.6</course>
<desc>Speed 5.9 km/h Distance 8.98 km</desc>
<time>2010-10-24T12:04:23.77</time>
<name>5533</name>
</trkpt>
<trkpt lat="48.928595" lon="8.671938">
<ele>386.0</ele>
<speed>1.38</speed>
<course>54.6</course>
<desc>Speed 5.0 km/h Distance 8.99 km</desc>
<time>2010-10-24T12:04:24.77</time>
<name>5534</name>
</trkpt>
<trkpt lat="48.928607" lon="8.671963">
<ele>387.5</ele>
<speed>2.09</speed>
<course>97.2</course>
<desc>Speed 7.5 km/h Distance 8.99 km</desc>
<time>2010-10-24T12:04:25.77</time>
<name>5535</name>
</trkpt>
<trkpt lat="48.928605" lon="8.671983">
<ele>388.0</ele>
<speed>1.53</speed>
<course>97.2</course>
<desc>Speed 5.5 km/h Distance 8.99 km</desc>
<time>2010-10-24T12:04:26.77</time>
<name>5536</name>
</trkpt>
<trkpt lat="48.928603" lon="8.672003">
<ele>388.0</ele>
<speed>1.47</speed>
<course>90.0</course>
<desc>Speed 5.3 km/h Distance 8.99 km</desc>
<time>2010-10-24T12:04:27.77</time>
<name>5537</name>
</trkpt>
<trkpt lat="48.928603" lon="8.672025">
<ele>388.5</ele>
<speed>1.57</speed>
<course>90.0</course>
<desc>Speed 5.7 km/h Distance 8.99 km</desc>
<time>2010-10-24T12:04:29.77</time>
<name>5538</name>
</trkpt>
<trkpt lat="48.928603" lon="8.672045">
<ele>388.0</ele>
<speed>1.33</speed>
<course>103.2</course>
<desc>Speed 4.8 km/h Distance 8.99 km</desc>
<time>2010-10-24T12:04:30.77</time>
<name>5539</name>
</trkpt>
<trkpt lat="48.928600" lon="8.672067">
<ele>388.0</ele>
<speed>1.46</speed>
<course>83.3</course>
<desc>Speed 5.3 km/h Distance 8.99 km</desc>
<time>2010-10-24T12:04:31.77</time>
<name>5540</name>
</trkpt>
<trkpt lat="48.928602" lon="8.672088">
<ele>388.0</ele>
<speed>1.58</speed>
<course>90.0</course>
<desc>Speed 5.7 km/h Distance 9.00 km</desc>
<time>2010-10-24T12:04:32.77</time>
<name>5541</name>
</trkpt>
<trkpt lat="48.928602" lon="8.672107">
<ele>388.5</ele>
<speed>1.37</speed>
<course>97.9</course>
<desc>Speed 4.9 km/h Distance 9.00 km</desc>
<time>2010-10-24T12:04:33.77</time>
<name>5542</name>
</trkpt>
<trkpt lat="48.928600" lon="8.672125">
<ele>388.0</ele>
<speed>1.27</speed>
<course>90.0</course>
<desc>Speed 4.6 km/h Distance 9.00 km</desc>
<time>2010-10-24T12:04:34.77</time>
<name>5543</name>
</trkpt>
<trkpt lat="48.928600" lon="8.672143">
<ele>387.5</ele>
<speed>1.21</speed>
<course>90.0</course>
<desc>Speed 4.4 km/h Distance 9.00 km</desc>
<time>2010-10-24T12:04:35.77</time>
<name>5544</name>
</trkpt>
<trkpt lat="48.928600" lon="8.672158">
<ele>387.0</ele>
<speed>1.13</speed>
<course>65.4</course>
<desc>Speed 4.1 km/h Distance 9.00 km</desc>
<time>2010-10-24T12:04:36.77</time>
<name>5545</name>
</trkpt>
<trkpt lat="48.928605" lon="8.672175">
<ele>386.5</ele>
<speed>1.22</speed>
<course>61.0</course>
<desc>Speed 4.4 km/h Distance 9.00 km</desc>
<time>2010-10-24T12:04:37.77</time>
<name>5546</name>
</trkpt>
<trkpt lat="48.928612" lon="8.672193">
<ele>386.0</ele>
<speed>1.26</speed>
<course>75.8</course>
<desc>Speed 4.5 km/h Distance 9.00 km</desc>
<time>2010-10-24T12:04:38.77</time>
<name>5547</name>
</trkpt>
<trkpt lat="48.928615" lon="8.672213">
<ele>386.0</ele>
<speed>1.46</speed>
<course>90.0</course>
<desc>Speed 5.3 km/h Distance 9.01 km</desc>
<time>2010-10-24T12:04:39.77</time>
<name>5548</name>
</trkpt>
<trkpt lat="48.928615" lon="8.672233">
<ele>385.5</ele>
<speed>1.35</speed>
<course>75.8</course>
<desc>Speed 4.9 km/h Distance 9.01 km</desc>
<time>2010-10-24T12:04:40.77</time>
<name>5549</name>
</trkpt>
<trkpt lat="48.928618" lon="8.672253">
<ele>385.5</ele>
<speed>1.46</speed>
<course>74.5</course>
<desc>Speed 5.3 km/h Distance 9.01 km</desc>
<time>2010-10-24T12:04:41.77</time>
<name>5550</name>
</trkpt>
<trkpt lat="48.928622" lon="8.672272">
<ele>385.5</ele>
<speed>1.38</speed>
<course>55.9</course>
<desc>Speed 5.0 km/h Distance 9.01 km</desc>
<time>2010-10-24T12:04:42.77</time>
<name>5551</name>
</trkpt>
<trkpt lat="48.928628" lon="8.672287">
<ele>385.5</ele>
<speed>1.30</speed>
<course>47.4</course>
<desc>Speed 4.7 km/h Distance 9.01 km</desc>
<time>2010-10-24T12:04:43.77</time>
<name>5552</name>
</trkpt>
<trkpt lat="48.928633" lon="8.672295">
<ele>384.5</ele>
<speed>0.82</speed>
<course>33.1</course>
<desc>Speed 3.0 km/h Distance 9.01 km</desc>
<time>2010-10-24T12:04:44.77</time>
<name>5553</name>
</trkpt>
<trkpt lat="48.928645" lon="8.672307">
<ele>384.5</ele>
<speed>1.36</speed>
<course>28.6</course>
<desc>Speed 4.9 km/h Distance 9.01 km</desc>
<time>2010-10-24T12:04:45.77</time>
<name>5554</name>
</trkpt>
<trkpt lat="48.928655" lon="8.672315">
<ele>383.0</ele>
<speed>1.07</speed>
<course>27.2</course>
<desc>Speed 3.9 km/h Distance 9.02 km</desc>
<time>2010-10-24T12:04:46.77</time>
<name>5555</name>
</trkpt>
<trkpt lat="48.928670" lon="8.672327">
<ele>382.5</ele>
<speed>1.66</speed>
<course>49.7</course>
<desc>Speed 6.0 km/h Distance 9.02 km</desc>
<time>2010-10-24T12:04:47.77</time>
<name>5556</name>
</trkpt>
<trkpt lat="48.928678" lon="8.672342">
<ele>381.5</ele>
<speed>1.21</speed>
<course>56.1</course>
<desc>Speed 4.4 km/h Distance 9.02 km</desc>
<time>2010-10-24T12:04:48.77</time>
<name>5557</name>
</trkpt>
<trkpt lat="48.928685" lon="8.672357">
<ele>381.0</ele>
<speed>1.30</speed>
<course>44.5</course>
<desc>Speed 4.7 km/h Distance 9.02 km</desc>
<time>2010-10-24T12:04:49.77</time>
<name>5558</name>
</trkpt>
<trkpt lat="48.928695" lon="8.672372">
<ele>381.0</ele>
<speed>1.26</speed>
<course>74.5</course>
<desc>Speed 4.5 km/h Distance 9.02 km</desc>
<time>2010-10-24T12:04:50.77</time>
<name>5559</name>
</trkpt>
<trkpt lat="48.928698" lon="8.672390">
<ele>380.0</ele>
<speed>1.17</speed>
<course>50.3</course>
<desc>Speed 4.2 km/h Distance 9.02 km</desc>
<time>2010-10-24T12:04:51.77</time>
<name>5560</name>
</trkpt>
<trkpt lat="48.928708" lon="8.672408">
<ele>380.0</ele>
<speed>1.37</speed>
<course>52.7</course>
<desc>Speed 4.9 km/h Distance 9.02 km</desc>
<time>2010-10-24T12:04:52.77</time>
<name>5561</name>
</trkpt>
<trkpt lat="48.928717" lon="8.672425">
<ele>379.5</ele>
<speed>1.25</speed>
<course>104.4</course>
<desc>Speed 4.5 km/h Distance 9.03 km</desc>
<time>2010-10-24T12:04:53.77</time>
<name>5562</name>
</trkpt>
<trkpt lat="48.928715" lon="8.672435">
<ele>378.0</ele>
<speed>0.64</speed>
<course>90.0</course>
<desc>Speed 2.3 km/h Distance 9.03 km</desc>
<time>2010-10-24T12:04:54.77</time>
<name>5563</name>
</trkpt>
<trkpt lat="48.928715" lon="8.672445">
<ele>377.0</ele>
<speed>0.87</speed>
<course>110.8</course>
<desc>Speed 3.1 km/h Distance 9.03 km</desc>
<time>2010-10-24T12:04:55.77</time>
<name>5564</name>
</trkpt>
<trkpt lat="48.928712" lon="8.672458">
<ele>375.5</ele>
<speed>0.83</speed>
<course>99.6</course>
<desc>Speed 3.0 km/h Distance 9.03 km</desc>
<time>2010-10-24T12:04:56.77</time>
<name>5565</name>
</trkpt>
<trkpt lat="48.928710" lon="8.672473">
<ele>374.0</ele>
<speed>1.03</speed>
<course>90.0</course>
<desc>Speed 3.7 km/h Distance 9.03 km</desc>
<time>2010-10-24T12:04:57.77</time>
<name>5566</name>
</trkpt>
<trkpt lat="48.928710" lon="8.672487">
<ele>373.0</ele>
<speed>0.85</speed>
<course>60.3</course>
<desc>Speed 3.1 km/h Distance 9.03 km</desc>
<time>2010-10-24T12:04:58.77</time>
<name>5567</name>
</trkpt>
<trkpt lat="48.928715" lon="8.672500">
<ele>372.0</ele>
<speed>0.88</speed>
<course>257.7</course>
<desc>Speed 3.2 km/h Distance 9.03 km</desc>
<time>2010-10-24T12:04:59.77</time>
<name>5568</name>
</trkpt>
<trkpt lat="48.928713" lon="8.672488">
<ele>372.5</ele>
<speed>1.25</speed>
<course>75.8</course>
<desc>Speed 4.5 km/h Distance 9.03 km</desc>
<time>2010-10-24T12:05:00.77</time>
<name>5569</name>
</trkpt>
<trkpt lat="48.928718" lon="8.672518">
<ele>373.0</ele>
<speed>1.57</speed>
<course>63.1</course>
<desc>Speed 5.7 km/h Distance 9.04 km</desc>
<time>2010-10-24T12:05:01.77</time>
<name>5570</name>
</trkpt>
<trkpt lat="48.928727" lon="8.672543">
<ele>373.5</ele>
<speed>1.39</speed>
<course>69.2</course>
<desc>Speed 5.0 km/h Distance 9.04 km</desc>
<time>2010-10-24T12:05:02.77</time>
<name>5571</name>
</trkpt>
<trkpt lat="48.928732" lon="8.672563">
<ele>373.5</ele>
<speed>1.55</speed>
<course>67.1</course>
<desc>Speed 5.6 km/h Distance 9.04 km</desc>
<time>2010-10-24T12:05:03.77</time>
<name>5572</name>
</trkpt>
<trkpt lat="48.928740" lon="8.672593">
<ele>374.5</ele>
<speed>1.48</speed>
<course>82.1</course>
<desc>Speed 5.3 km/h Distance 9.04 km</desc>
<time>2010-10-24T12:05:04.77</time>
<name>5573</name>
</trkpt>
<trkpt lat="48.928742" lon="8.672612">
<ele>374.5</ele>
<speed>1.34</speed>
<course>90.0</course>
<desc>Speed 4.8 km/h Distance 9.04 km</desc>
<time>2010-10-24T12:05:05.77</time>
<name>5574</name>
</trkpt>
<trkpt lat="48.928742" lon="8.672627">
<ele>374.0</ele>
<speed>1.03</speed>
<course>90.0</course>
<desc>Speed 3.7 km/h Distance 9.04 km</desc>
<time>2010-10-24T12:05:06.77</time>
<name>5575</name>
</trkpt>
<trkpt lat="48.928742" lon="8.672645">
<ele>373.5</ele>
<speed>1.38</speed>
<course>82.8</course>
<desc>Speed 5.0 km/h Distance 9.04 km</desc>
<time>2010-10-24T12:05:07.77</time>
<name>5576</name>
</trkpt>
<trkpt lat="48.928743" lon="8.672665">
<ele>373.5</ele>
<speed>1.39</speed>
<course>82.8</course>
<desc>Speed 5.0 km/h Distance 9.05 km</desc>
<time>2010-10-24T12:05:08.77</time>
<name>5577</name>
</trkpt>
<trkpt lat="48.928745" lon="8.672685">
<ele>373.5</ele>
<speed>1.42</speed>
<course>75.8</course>
<desc>Speed 5.1 km/h Distance 9.05 km</desc>
<time>2010-10-24T12:05:09.77</time>
<name>5578</name>
</trkpt>
<trkpt lat="48.928748" lon="8.672705">
<ele>373.5</ele>
<speed>1.54</speed>
<course>82.1</course>
<desc>Speed 5.5 km/h Distance 9.05 km</desc>
<time>2010-10-24T12:05:10.77</time>
<name>5579</name>
</trkpt>
<trkpt lat="48.928750" lon="8.672723">
<ele>373.0</ele>
<speed>1.37</speed>
<course>90.0</course>
<desc>Speed 4.9 km/h Distance 9.05 km</desc>
<time>2010-10-24T12:05:11.77</time>
<name>5580</name>
</trkpt>
<trkpt lat="48.928750" lon="8.672743">
<ele>372.5</ele>
<speed>1.49</speed>
<course>95.4</course>
<desc>Speed 5.4 km/h Distance 9.05 km</desc>
<time>2010-10-24T12:05:12.77</time>
<name>5581</name>
</trkpt>
<trkpt lat="48.928748" lon="8.672770">
<ele>372.0</ele>
<speed>1.59</speed>
<course>90.0</course>
<desc>Speed 5.7 km/h Distance 9.05 km</desc>
<time>2010-10-24T12:05:13.77</time>
<name>5582</name>
</trkpt>
<trkpt lat="48.928748" lon="8.672795">
<ele>372.0</ele>
<speed>1.42</speed>
<course>84.2</course>
<desc>Speed 5.1 km/h Distance 9.06 km</desc>
<time>2010-10-24T12:05:14.77</time>
<name>5583</name>
</trkpt>
<trkpt lat="48.928750" lon="8.672820">
<ele>372.0</ele>
<speed>1.28</speed>
<course>73.1</course>
<desc>Speed 4.6 km/h Distance 9.06 km</desc>
<time>2010-10-24T12:05:15.77</time>
<name>5584</name>
</trkpt>
<trkpt lat="48.928753" lon="8.672837">
<ele>372.0</ele>
<speed>1.40</speed>
<course>75.8</course>
<desc>Speed 5.0 km/h Distance 9.06 km</desc>
<time>2010-10-24T12:05:16.77</time>
<name>5585</name>
</trkpt>
<trkpt lat="48.928757" lon="8.672857">
<ele>371.5</ele>
<speed>1.42</speed>
<course>81.3</course>
<desc>Speed 5.1 km/h Distance 9.06 km</desc>
<time>2010-10-24T12:05:17.77</time>
<name>5586</name>
</trkpt>
<trkpt lat="48.928758" lon="8.672873">
<ele>371.5</ele>
<speed>1.23</speed>
<course>82.1</course>
<desc>Speed 4.4 km/h Distance 9.06 km</desc>
<time>2010-10-24T12:05:18.77</time>
<name>5587</name>
</trkpt>
<trkpt lat="48.928760" lon="8.672892">
<ele>371.0</ele>
<speed>1.36</speed>
<course>100.8</course>
<desc>Speed 4.9 km/h Distance 9.06 km</desc>
<time>2010-10-24T12:05:19.77</time>
<name>5588</name>
</trkpt>
<trkpt lat="48.928757" lon="8.672918">
<ele>370.5</ele>
<speed>1.62</speed>
<course>77.7</course>
<desc>Speed 5.8 km/h Distance 9.07 km</desc>
<time>2010-10-24T12:05:20.77</time>
<name>5589</name>
</trkpt>
<trkpt lat="48.928760" lon="8.672942">
<ele>370.5</ele>
<speed>1.50</speed>
<course>96.2</course>
<desc>Speed 5.4 km/h Distance 9.07 km</desc>
<time>2010-10-24T12:05:21.77</time>
<name>5590</name>
</trkpt>
<trkpt lat="48.928758" lon="8.672965">
<ele>370.5</ele>
<speed>1.58</speed>
<course>95.8</course>
<desc>Speed 5.7 km/h Distance 9.07 km</desc>
<time>2010-10-24T12:05:22.77</time>
<name>5591</name>
</trkpt>
<trkpt lat="48.928757" lon="8.672990">
<ele>370.0</ele>
<speed>1.70</speed>
<course>102.3</course>
<desc>Speed 6.1 km/h Distance 9.07 km</desc>
<time>2010-10-24T12:05:23.77</time>
<name>5592</name>
</trkpt>
<trkpt lat="48.928753" lon="8.673013">
<ele>369.5</ele>
<speed>1.50</speed>
<course>110.8</course>
<desc>Speed 5.4 km/h Distance 9.07 km</desc>
<time>2010-10-24T12:05:24.77</time>
<name>5593</name>
</trkpt>
<trkpt lat="48.928748" lon="8.673033">
<ele>368.5</ele>
<speed>1.44</speed>
<course>116.9</course>
<desc>Speed 5.2 km/h Distance 9.07 km</desc>
<time>2010-10-24T12:05:25.77</time>
<name>5594</name>
</trkpt>
<trkpt lat="48.928743" lon="8.673048">
<ele>367.5</ele>
<speed>1.25</speed>
<course>107.0</course>
<desc>Speed 4.5 km/h Distance 9.08 km</desc>
<time>2010-10-24T12:05:26.77</time>
<name>5595</name>
</trkpt>
<trkpt lat="48.928740" lon="8.673065">
<ele>366.5</ele>
<speed>1.20</speed>
<course>90.0</course>
<desc>Speed 4.3 km/h Distance 9.08 km</desc>
<time>2010-10-24T12:05:27.77</time>
<name>5596</name>
</trkpt>
<trkpt lat="48.928740" lon="8.673083">
<ele>366.0</ele>
<speed>1.24</speed>
<course>90.0</course>
<desc>Speed 4.5 km/h Distance 9.08 km</desc>
<time>2010-10-24T12:05:28.77</time>
<name>5597</name>
</trkpt>
<trkpt lat="48.928740" lon="8.673098">
<ele>365.5</ele>
<speed>1.04</speed>
<course>107.0</course>
<desc>Speed 3.7 km/h Distance 9.08 km</desc>
<time>2010-10-24T12:05:29.77</time>
<name>5598</name>
</trkpt>
<trkpt lat="48.928737" lon="8.673115">
<ele>365.0</ele>
<speed>1.08</speed>
<course>102.3</course>
<desc>Speed 3.9 km/h Distance 9.08 km</desc>
<time>2010-10-24T12:05:30.77</time>
<name>5599</name>
</trkpt>
<trkpt lat="48.928735" lon="8.673127">
<ele>364.0</ele>
<speed>0.92</speed>
<course>80.4</course>
<desc>Speed 3.3 km/h Distance 9.08 km</desc>
<time>2010-10-24T12:05:31.77</time>
<name>5600</name>
</trkpt>
<trkpt lat="48.928737" lon="8.673142">
<ele>363.5</ele>
<speed>1.08</speed>
<course>90.0</course>
<desc>Speed 3.9 km/h Distance 9.08 km</desc>
<time>2010-10-24T12:05:32.77</time>
<name>5601</name>
</trkpt>
<trkpt lat="48.928737" lon="8.673160">
<ele>363.0</ele>
<speed>1.20</speed>
<course>98.7</course>
<desc>Speed 4.3 km/h Distance 9.08 km</desc>
<time>2010-10-24T12:05:33.77</time>
<name>5602</name>
</trkpt>
<trkpt lat="48.928735" lon="8.673177">
<ele>362.5</ele>
<speed>1.25</speed>
<course>100.7</course>
<desc>Speed 4.5 km/h Distance 9.08 km</desc>
<time>2010-10-24T12:05:34.77</time>
<name>5603</name>
</trkpt>
<trkpt lat="48.928733" lon="8.673190">
<ele>361.5</ele>
<speed>0.81</speed>
<course>110.9</course>
<desc>Speed 2.9 km/h Distance 9.09 km</desc>
<time>2010-10-24T12:05:35.77</time>
<name>5604</name>
</trkpt>
<trkpt lat="48.928730" lon="8.673203">
<ele>360.5</ele>
<speed>0.87</speed>
<course>100.7</course>
<desc>Speed 3.1 km/h Distance 9.09 km</desc>
<time>2010-10-24T12:05:36.77</time>
<name>5605</name>
</trkpt>
<trkpt lat="48.928728" lon="8.673217">
<ele>359.5</ele>
<speed>0.86</speed>
<course>77.7</course>
<desc>Speed 3.1 km/h Distance 9.09 km</desc>
<time>2010-10-24T12:05:37.77</time>
<name>5606</name>
</trkpt>
<trkpt lat="48.928732" lon="8.673240">
<ele>359.5</ele>
<speed>1.60</speed>
<course>76.8</course>
<desc>Speed 5.8 km/h Distance 9.09 km</desc>
<time>2010-10-24T12:05:38.77</time>
<name>5607</name>
</trkpt>
<trkpt lat="48.928735" lon="8.673262">
<ele>359.5</ele>
<speed>1.59</speed>
<course>69.2</course>
<desc>Speed 5.7 km/h Distance 9.09 km</desc>
<time>2010-10-24T12:05:39.77</time>
<name>5608</name>
</trkpt>
<trkpt lat="48.928740" lon="8.673282">
<ele>360.0</ele>
<speed>1.45</speed>
<course>83.3</course>
<desc>Speed 5.2 km/h Distance 9.09 km</desc>
<time>2010-10-24T12:05:40.77</time>
<name>5609</name>
</trkpt>
<trkpt lat="48.928742" lon="8.673303">
<ele>360.0</ele>
<speed>1.44</speed>
<course>90.0</course>
<desc>Speed 5.2 km/h Distance 9.09 km</desc>
<time>2010-10-24T12:05:41.77</time>
<name>5610</name>
</trkpt>
<trkpt lat="48.928742" lon="8.673317">
<ele>359.5</ele>
<speed>0.93</speed>
<course>82.8</course>
<desc>Speed 3.3 km/h Distance 9.10 km</desc>
<time>2010-10-24T12:05:42.77</time>
<name>5611</name>
</trkpt>
<trkpt lat="48.928743" lon="8.673337">
<ele>359.5</ele>
<speed>1.27</speed>
<course>83.3</course>
<desc>Speed 4.6 km/h Distance 9.10 km</desc>
<time>2010-10-24T12:05:43.77</time>
<name>5612</name>
</trkpt>
<trkpt lat="48.928745" lon="8.673358">
<ele>359.5</ele>
<speed>1.39</speed>
<course>110.9</course>
<desc>Speed 5.0 km/h Distance 9.10 km</desc>
<time>2010-10-24T12:05:44.77</time>
<name>5613</name>
</trkpt>
<trkpt lat="48.928742" lon="8.673372">
<ele>358.0</ele>
<speed>0.93</speed>
<course>84.9</course>
<desc>Speed 3.3 km/h Distance 9.10 km</desc>
<time>2010-10-24T12:05:45.77</time>
<name>5614</name>
</trkpt>
<trkpt lat="48.928743" lon="8.673400">
<ele>358.5</ele>
<speed>1.22</speed>
<course>90.0</course>
<desc>Speed 4.4 km/h Distance 9.10 km</desc>
<time>2010-10-24T12:05:46.77</time>
<name>5615</name>
</trkpt>
<trkpt lat="48.928743" lon="8.673420">
<ele>358.0</ele>
<speed>1.42</speed>
<course>71.9</course>
<desc>Speed 5.1 km/h Distance 9.10 km</desc>
<time>2010-10-24T12:05:47.77</time>
<name>5616</name>
</trkpt>
<trkpt lat="48.928748" lon="8.673443">
<ele>358.5</ele>
<speed>1.44</speed>
<course>76.8</course>
<desc>Speed 5.2 km/h Distance 9.10 km</desc>
<time>2010-10-24T12:05:48.77</time>
<name>5617</name>
</trkpt>
<trkpt lat="48.928752" lon="8.673465">
<ele>358.5</ele>
<speed>1.37</speed>
<course>64.9</course>
<desc>Speed 4.9 km/h Distance 9.11 km</desc>
<time>2010-10-24T12:05:49.77</time>
<name>5618</name>
</trkpt>
<trkpt lat="48.928758" lon="8.673487">
<ele>359.0</ele>
<speed>1.37</speed>
<course>70.6</course>
<desc>Speed 4.9 km/h Distance 9.11 km</desc>
<time>2010-10-24T12:05:50.77</time>
<name>5619</name>
</trkpt>
<trkpt lat="48.928763" lon="8.673508">
<ele>359.0</ele>
<speed>1.42</speed>
<course>77.7</course>
<desc>Speed 5.1 km/h Distance 9.11 km</desc>
<time>2010-10-24T12:05:51.77</time>
<name>5620</name>
</trkpt>
<trkpt lat="48.928767" lon="8.673532">
<ele>359.5</ele>
<speed>1.50</speed>
<course>76.8</course>
<desc>Speed 5.4 km/h Distance 9.11 km</desc>
<time>2010-10-24T12:05:52.77</time>
<name>5621</name>
</trkpt>
<trkpt lat="48.928770" lon="8.673553">
<ele>359.5</ele>
<speed>1.37</speed>
<course>115.7</course>
<desc>Speed 4.9 km/h Distance 9.11 km</desc>
<time>2010-10-24T12:05:53.80</time>
<name>5622</name>
</trkpt>
<trkpt lat="48.928760" lon="8.673585">
<ele>359.5</ele>
<speed>2.65</speed>
<course>77.7</course>
<desc>Speed 9.5 km/h Distance 9.12 km</desc>
<time>2010-10-24T12:05:54.78</time>
<name>5623</name>
</trkpt>
<trkpt lat="48.928767" lon="8.673632">
<ele>361.5</ele>
<speed>2.03</speed>
<course>65.7</course>
<desc>Speed 7.3 km/h Distance 9.12 km</desc>
<time>2010-10-24T12:05:55.78</time>
<name>5624</name>
</trkpt>
<trkpt lat="48.928780" lon="8.673677">
<ele>363.5</ele>
<speed>1.62</speed>
<course>76.8</course>
<desc>Speed 5.8 km/h Distance 9.12 km</desc>
<time>2010-10-24T12:05:56.78</time>
<name>5625</name>
</trkpt>
<trkpt lat="48.928783" lon="8.673698">
<ele>363.5</ele>
<speed>1.54</speed>
<course>73.1</course>
<desc>Speed 5.5 km/h Distance 9.12 km</desc>
<time>2010-10-24T12:05:57.78</time>
<name>5626</name>
</trkpt>
<trkpt lat="48.928788" lon="8.673723">
<ele>364.0</ele>
<speed>1.60</speed>
<course>78.5</course>
<desc>Speed 5.8 km/h Distance 9.13 km</desc>
<time>2010-10-24T12:05:58.78</time>
<name>5627</name>
</trkpt>
<trkpt lat="48.928792" lon="8.673748">
<ele>364.0</ele>
<speed>1.54</speed>
<course>74.1</course>
<desc>Speed 5.5 km/h Distance 9.13 km</desc>
<time>2010-10-24T12:05:59.77</time>
<name>5628</name>
</trkpt>
<trkpt lat="48.928797" lon="8.673775">
<ele>364.5</ele>
<speed>1.55</speed>
<course>69.2</course>
<desc>Speed 5.6 km/h Distance 9.13 km</desc>
<time>2010-10-24T12:06:00.77</time>
<name>5629</name>
</trkpt>
<trkpt lat="48.928803" lon="8.673802">
<ele>365.0</ele>
<speed>1.55</speed>
<course>76.8</course>
<desc>Speed 5.6 km/h Distance 9.13 km</desc>
<time>2010-10-24T12:06:01.77</time>
<name>5630</name>
</trkpt>
<trkpt lat="48.928807" lon="8.673823">
<ele>365.0</ele>
<speed>1.57</speed>
<course>70.7</course>
<desc>Speed 5.7 km/h Distance 9.13 km</desc>
<time>2010-10-24T12:06:02.77</time>
<name>5631</name>
</trkpt>
<trkpt lat="48.928812" lon="8.673845">
<ele>365.0</ele>
<speed>1.58</speed>
<course>76.8</course>
<desc>Speed 5.7 km/h Distance 9.14 km</desc>
<time>2010-10-24T12:06:03.77</time>
<name>5632</name>
</trkpt>
<trkpt lat="48.928815" lon="8.673867">
<ele>365.0</ele>
<speed>1.50</speed>
<course>77.1</course>
<desc>Speed 5.4 km/h Distance 9.14 km</desc>
<time>2010-10-24T12:06:04.77</time>
<name>5633</name>
</trkpt>
<trkpt lat="48.928820" lon="8.673900">
<ele>365.5</ele>
<speed>1.52</speed>
<course>66.5</course>
<desc>Speed 5.5 km/h Distance 9.14 km</desc>
<time>2010-10-24T12:06:05.77</time>
<name>5634</name>
</trkpt>
<trkpt lat="48.928827" lon="8.673923">
<ele>366.0</ele>
<speed>1.51</speed>
<course>66.5</course>
<desc>Speed 5.4 km/h Distance 9.14 km</desc>
<time>2010-10-24T12:06:06.77</time>
<name>5635</name>
</trkpt>
<trkpt lat="48.928833" lon="8.673947">
<ele>366.0</ele>
<speed>1.55</speed>
<course>59.2</course>
<desc>Speed 5.6 km/h Distance 9.14 km</desc>
<time>2010-10-24T12:06:07.77</time>
<name>5636</name>
</trkpt>
<trkpt lat="48.928848" lon="8.673985">
<ele>367.5</ele>
<speed>1.53</speed>
<course>64.9</course>
<desc>Speed 5.5 km/h Distance 9.15 km</desc>
<time>2010-10-24T12:06:08.77</time>
<name>5637</name>
</trkpt>
<trkpt lat="48.928855" lon="8.674007">
<ele>368.0</ele>
<speed>1.52</speed>
<course>73.1</course>
<desc>Speed 5.5 km/h Distance 9.15 km</desc>
<time>2010-10-24T12:06:09.77</time>
<name>5638</name>
</trkpt>
<trkpt lat="48.928860" lon="8.674032">
<ele>367.5</ele>
<speed>1.57</speed>
<course>61.7</course>
<desc>Speed 5.7 km/h Distance 9.15 km</desc>
<time>2010-10-24T12:06:10.77</time>
<name>5639</name>
</trkpt>
<trkpt lat="48.928870" lon="8.674060">
<ele>368.5</ele>
<speed>1.52</speed>
<course>57.9</course>
<desc>Speed 5.5 km/h Distance 9.15 km</desc>
<time>2010-10-24T12:06:11.77</time>
<name>5640</name>
</trkpt>
<trkpt lat="48.928882" lon="8.674088">
<ele>369.5</ele>
<speed>1.60</speed>
<course>58.7</course>
<desc>Speed 5.8 km/h Distance 9.16 km</desc>
<time>2010-10-24T12:06:12.77</time>
<name>5641</name>
</trkpt>
<trkpt lat="48.928892" lon="8.674113">
<ele>370.0</ele>
<speed>1.53</speed>
<course>52.8</course>
<desc>Speed 5.5 km/h Distance 9.16 km</desc>
<time>2010-10-24T12:06:13.77</time>
<name>5642</name>
</trkpt>
<trkpt lat="48.928903" lon="8.674137">
<ele>370.5</ele>
<speed>1.50</speed>
<course>55.3</course>
<desc>Speed 5.4 km/h Distance 9.16 km</desc>
<time>2010-10-24T12:06:14.77</time>
<name>5643</name>
</trkpt>
<trkpt lat="48.928912" lon="8.674155">
<ele>370.5</ele>
<speed>1.52</speed>
<course>45.9</course>
<desc>Speed 5.5 km/h Distance 9.16 km</desc>
<time>2010-10-24T12:06:15.77</time>
<name>5644</name>
</trkpt>
<trkpt lat="48.928923" lon="8.674173">
<ele>371.0</ele>
<speed>1.52</speed>
<course>43.1</course>
<desc>Speed 5.5 km/h Distance 9.16 km</desc>
<time>2010-10-24T12:06:16.77</time>
<name>5645</name>
</trkpt>
<trkpt lat="48.928935" lon="8.674190">
<ele>370.5</ele>
<speed>1.39</speed>
<course>33.1</course>
<desc>Speed 5.0 km/h Distance 9.16 km</desc>
<time>2010-10-24T12:06:17.77</time>
<name>5646</name>
</trkpt>
<trkpt lat="48.928947" lon="8.674202">
<ele>370.5</ele>
<speed>1.24</speed>
<course>29.4</course>
<desc>Speed 4.5 km/h Distance 9.17 km</desc>
<time>2010-10-24T12:06:18.77</time>
<name>5647</name>
</trkpt>
<trkpt lat="48.928958" lon="8.674212">
<ele>370.5</ele>
<speed>1.36</speed>
<course>20.9</course>
<desc>Speed 4.9 km/h Distance 9.17 km</desc>
<time>2010-10-24T12:06:19.77</time>
<name>5648</name>
</trkpt>
<trkpt lat="48.928970" lon="8.674218">
<ele>370.0</ele>
<speed>1.28</speed>
<course>22.6</course>
<desc>Speed 4.6 km/h Distance 9.17 km</desc>
<time>2010-10-24T12:06:20.77</time>
<name>5649</name>
</trkpt>
<trkpt lat="48.928983" lon="8.674227">
<ele>370.0</ele>
<speed>1.51</speed>
<course>25.2</course>
<desc>Speed 5.4 km/h Distance 9.17 km</desc>
<time>2010-10-24T12:06:21.77</time>
<name>5650</name>
</trkpt>
<trkpt lat="48.928995" lon="8.674235">
<ele>369.5</ele>
<speed>1.52</speed>
<course>20.1</course>
<desc>Speed 5.5 km/h Distance 9.17 km</desc>
<time>2010-10-24T12:06:22.77</time>
<name>5651</name>
</trkpt>
<trkpt lat="48.929010" lon="8.674243">
<ele>369.5</ele>
<speed>1.45</speed>
<course>28.6</course>
<desc>Speed 5.2 km/h Distance 9.17 km</desc>
<time>2010-10-24T12:06:23.77</time>
<name>5652</name>
</trkpt>
<trkpt lat="48.929020" lon="8.674252">
<ele>369.5</ele>
<speed>1.08</speed>
<course>18.2</course>
<desc>Speed 3.9 km/h Distance 9.18 km</desc>
<time>2010-10-24T12:06:24.77</time>
<name>5653</name>
</trkpt>
<trkpt lat="48.929030" lon="8.674257">
<ele>369.0</ele>
<speed>1.04</speed>
<course>24.9</course>
<desc>Speed 3.7 km/h Distance 9.18 km</desc>
<time>2010-10-24T12:06:25.77</time>
<name>5654</name>
</trkpt>
<trkpt lat="48.929042" lon="8.674265">
<ele>368.5</ele>
<speed>1.20</speed>
<course>17.6</course>
<desc>Speed 4.3 km/h Distance 9.18 km</desc>
<time>2010-10-24T12:06:26.77</time>
<name>5655</name>
</trkpt>
<trkpt lat="48.929052" lon="8.674270">
<ele>368.5</ele>
<speed>1.13</speed>
<course>16.0</course>
<desc>Speed 4.1 km/h Distance 9.18 km</desc>
<time>2010-10-24T12:06:27.77</time>
<name>5656</name>
</trkpt>
<trkpt lat="48.929067" lon="8.674277">
<ele>369.0</ele>
<speed>1.38</speed>
<course>8.8</course>
<desc>Speed 5.0 km/h Distance 9.18 km</desc>
<time>2010-10-24T12:06:28.77</time>
<name>5657</name>
</trkpt>
<trkpt lat="48.929082" lon="8.674280">
<ele>369.0</ele>
<speed>1.47</speed>
<course>8.8</course>
<desc>Speed 5.3 km/h Distance 9.18 km</desc>
<time>2010-10-24T12:06:29.77</time>
<name>5658</name>
</trkpt>
<trkpt lat="48.929097" lon="8.674283">
<ele>369.0</ele>
<speed>1.49</speed>
<course>20.8</course>
<desc>Speed 5.4 km/h Distance 9.18 km</desc>
<time>2010-10-24T12:06:30.77</time>
<name>5659</name>
</trkpt>
<trkpt lat="48.929117" lon="8.674295">
<ele>369.0</ele>
<speed>1.94</speed>
<course>14.9</course>
<desc>Speed 7.0 km/h Distance 9.19 km</desc>
<time>2010-10-24T12:06:31.77</time>
<name>5660</name>
</trkpt>
<trkpt lat="48.929133" lon="8.674302">
<ele>369.0</ele>
<speed>1.75</speed>
<course>10.8</course>
<desc>Speed 6.3 km/h Distance 9.19 km</desc>
<time>2010-10-24T12:06:32.77</time>
<name>5661</name>
</trkpt>
<trkpt lat="48.929150" lon="8.674307">
<ele>369.0</ele>
<speed>1.64</speed>
<course>22.3</course>
<desc>Speed 5.9 km/h Distance 9.19 km</desc>
<time>2010-10-24T12:06:33.77</time>
<name>5662</name>
</trkpt>
<trkpt lat="48.929163" lon="8.674315">
<ele>369.0</ele>
<speed>1.47</speed>
<course>13.5</course>
<desc>Speed 5.3 km/h Distance 9.19 km</desc>
<time>2010-10-24T12:06:34.77</time>
<name>5663</name>
</trkpt>
<trkpt lat="48.929177" lon="8.674320">
<ele>369.0</ele>
<speed>1.55</speed>
<course>16.6</course>
<desc>Speed 5.6 km/h Distance 9.19 km</desc>
<time>2010-10-24T12:06:35.77</time>
<name>5664</name>
</trkpt>
<trkpt lat="48.929192" lon="8.674327">
<ele>369.0</ele>
<speed>1.57</speed>
<course>22.3</course>
<desc>Speed 5.7 km/h Distance 9.20 km</desc>
<time>2010-10-24T12:06:36.77</time>
<name>5665</name>
</trkpt>
<trkpt lat="48.929205" lon="8.674335">
<ele>369.0</ele>
<speed>1.45</speed>
<course>16.3</course>
<desc>Speed 5.2 km/h Distance 9.20 km</desc>
<time>2010-10-24T12:06:37.77</time>
<name>5666</name>
</trkpt>
<trkpt lat="48.929220" lon="8.674342">
<ele>369.0</ele>
<speed>1.61</speed>
<course>22.1</course>
<desc>Speed 5.8 km/h Distance 9.20 km</desc>
<time>2010-10-24T12:06:38.77</time>
<name>5667</name>
</trkpt>
<trkpt lat="48.929233" lon="8.674350">
<ele>369.0</ele>
<speed>1.57</speed>
<course>18.1</course>
<desc>Speed 5.7 km/h Distance 9.20 km</desc>
<time>2010-10-24T12:06:39.77</time>
<name>5668</name>
</trkpt>
<trkpt lat="48.929247" lon="8.674357">
<ele>369.0</ele>
<speed>1.35</speed>
<course>16.6</course>
<desc>Speed 4.9 km/h Distance 9.20 km</desc>
<time>2010-10-24T12:06:40.77</time>
<name>5669</name>
</trkpt>
<trkpt lat="48.929262" lon="8.674363">
<ele>368.5</ele>
<speed>1.55</speed>
<course>16.6</course>
<desc>Speed 5.6 km/h Distance 9.20 km</desc>
<time>2010-10-24T12:06:41.77</time>
<name>5670</name>
</trkpt>
<trkpt lat="48.929280" lon="8.674372">
<ele>368.5</ele>
<speed>1.53</speed>
<course>20.1</course>
<desc>Speed 5.5 km/h Distance 9.21 km</desc>
<time>2010-10-24T12:06:42.77</time>
<name>5671</name>
</trkpt>
<trkpt lat="48.929295" lon="8.674380">
<ele>368.0</ele>
<speed>1.48</speed>
<course>18.1</course>
<desc>Speed 5.3 km/h Distance 9.21 km</desc>
<time>2010-10-24T12:06:43.77</time>
<name>5672</name>
</trkpt>
<trkpt lat="48.929308" lon="8.674387">
<ele>368.0</ele>
<speed>1.38</speed>
<course>29.4</course>
<desc>Speed 5.0 km/h Distance 9.21 km</desc>
<time>2010-10-24T12:06:44.77</time>
<name>5673</name>
</trkpt>
<trkpt lat="48.929320" lon="8.674397">
<ele>367.5</ele>
<speed>1.36</speed>
<course>18.1</course>
<desc>Speed 4.9 km/h Distance 9.21 km</desc>
<time>2010-10-24T12:06:45.77</time>
<name>5674</name>
</trkpt>
<trkpt lat="48.929333" lon="8.674403">
<ele>367.0</ele>
<speed>1.30</speed>
<course>18.1</course>
<desc>Speed 4.7 km/h Distance 9.21 km</desc>
<time>2010-10-24T12:06:46.77</time>
<name>5675</name>
</trkpt>
<trkpt lat="48.929347" lon="8.674410">
<ele>367.0</ele>
<speed>1.36</speed>
<course>18.1</course>
<desc>Speed 4.9 km/h Distance 9.21 km</desc>
<time>2010-10-24T12:06:47.77</time>
<name>5676</name>
</trkpt>
<trkpt lat="48.929363" lon="8.674418">
<ele>366.5</ele>
<speed>1.45</speed>
<course>20.1</course>
<desc>Speed 5.2 km/h Distance 9.22 km</desc>
<time>2010-10-24T12:06:48.77</time>
<name>5677</name>
</trkpt>
<trkpt lat="48.929378" lon="8.674427">
<ele>366.5</ele>
<speed>1.49</speed>
<course>20.1</course>
<desc>Speed 5.4 km/h Distance 9.22 km</desc>
<time>2010-10-24T12:06:49.77</time>
<name>5678</name>
</trkpt>
<trkpt lat="48.929393" lon="8.674435">
<ele>366.5</ele>
<speed>1.46</speed>
<course>22.3</course>
<desc>Speed 5.3 km/h Distance 9.22 km</desc>
<time>2010-10-24T12:06:50.77</time>
<name>5679</name>
</trkpt>
<trkpt lat="48.929407" lon="8.674443">
<ele>366.5</ele>
<speed>1.46</speed>
<course>22.3</course>
<desc>Speed 5.3 km/h Distance 9.22 km</desc>
<time>2010-10-24T12:06:51.77</time>
<name>5680</name>
</trkpt>
<trkpt lat="48.929420" lon="8.674452">
<ele>366.5</ele>
<speed>1.41</speed>
<course>20.6</course>
<desc>Speed 5.1 km/h Distance 9.22 km</desc>
<time>2010-10-24T12:06:52.77</time>
<name>5681</name>
</trkpt>
<trkpt lat="48.929432" lon="8.674458">
<ele>366.0</ele>
<speed>1.37</speed>
<course>22.1</course>
<desc>Speed 4.9 km/h Distance 9.22 km</desc>
<time>2010-10-24T12:06:53.77</time>
<name>5682</name>
</trkpt>
<trkpt lat="48.929445" lon="8.674467">
<ele>366.0</ele>
<speed>1.50</speed>
<course>13.5</course>
<desc>Speed 5.4 km/h Distance 9.23 km</desc>
<time>2010-10-24T12:06:54.77</time>
<name>5683</name>
</trkpt>
<trkpt lat="48.929458" lon="8.674472">
<ele>366.0</ele>
<speed>1.25</speed>
<course>14.9</course>
<desc>Speed 4.5 km/h Distance 9.23 km</desc>
<time>2010-10-24T12:06:55.77</time>
<name>5684</name>
</trkpt>
<trkpt lat="48.929470" lon="8.674477">
<ele>366.0</ele>
<speed>1.32</speed>
<course>13.5</course>
<desc>Speed 4.8 km/h Distance 9.23 km</desc>
<time>2010-10-24T12:06:56.77</time>
<name>5685</name>
</trkpt>
<trkpt lat="48.929483" lon="8.674482">
<ele>366.0</ele>
<speed>1.40</speed>
<course>16.0</course>
<desc>Speed 5.0 km/h Distance 9.23 km</desc>
<time>2010-10-24T12:06:57.77</time>
<name>5686</name>
</trkpt>
<trkpt lat="48.929495" lon="8.674487">
<ele>366.5</ele>
<speed>1.35</speed>
<course>10.3</course>
<desc>Speed 4.9 km/h Distance 9.23 km</desc>
<time>2010-10-24T12:06:58.77</time>
<name>5687</name>
</trkpt>
<trkpt lat="48.929508" lon="8.674490">
<ele>366.5</ele>
<speed>1.37</speed>
<course>25.2</course>
<desc>Speed 4.9 km/h Distance 9.23 km</desc>
<time>2010-10-24T12:06:59.77</time>
<name>5688</name>
</trkpt>
<trkpt lat="48.929520" lon="8.674498">
<ele>366.5</ele>
<speed>1.34</speed>
<course>18.4</course>
<desc>Speed 4.8 km/h Distance 9.23 km</desc>
<time>2010-10-24T12:07:00.77</time>
<name>5689</name>
</trkpt>
<trkpt lat="48.929533" lon="8.674505">
<ele>366.5</ele>
<speed>1.40</speed>
<course>18.1</course>
<desc>Speed 5.0 km/h Distance 9.24 km</desc>
<time>2010-10-24T12:07:01.77</time>
<name>5690</name>
</trkpt>
<trkpt lat="48.929550" lon="8.674513">
<ele>366.0</ele>
<speed>1.58</speed>
<course>16.3</course>
<desc>Speed 5.7 km/h Distance 9.24 km</desc>
<time>2010-10-24T12:07:02.77</time>
<name>5691</name>
</trkpt>
<trkpt lat="48.929565" lon="8.674520">
<ele>366.0</ele>
<speed>1.50</speed>
<course>20.1</course>
<desc>Speed 5.4 km/h Distance 9.24 km</desc>
<time>2010-10-24T12:07:03.77</time>
<name>5692</name>
</trkpt>
<trkpt lat="48.929580" lon="8.674528">
<ele>365.5</ele>
<speed>1.54</speed>
<course>20.1</course>
<desc>Speed 5.5 km/h Distance 9.24 km</desc>
<time>2010-10-24T12:07:04.77</time>
<name>5693</name>
</trkpt>
<trkpt lat="48.929595" lon="8.674537">
<ele>365.0</ele>
<speed>1.53</speed>
<course>14.9</course>
<desc>Speed 5.5 km/h Distance 9.24 km</desc>
<time>2010-10-24T12:07:05.77</time>
<name>5694</name>
</trkpt>
<trkpt lat="48.929612" lon="8.674543">
<ele>365.0</ele>
<speed>1.48</speed>
<course>20.1</course>
<desc>Speed 5.3 km/h Distance 9.24 km</desc>
<time>2010-10-24T12:07:06.77</time>
<name>5695</name>
</trkpt>
<trkpt lat="48.929627" lon="8.674552">
<ele>364.5</ele>
<speed>1.37</speed>
<course>16.0</course>
<desc>Speed 4.9 km/h Distance 9.25 km</desc>
<time>2010-10-24T12:07:07.77</time>
<name>5696</name>
</trkpt>
<trkpt lat="48.929638" lon="8.674557">
<ele>364.5</ele>
<speed>1.40</speed>
<course>20.1</course>
<desc>Speed 5.0 km/h Distance 9.25 km</desc>
<time>2010-10-24T12:07:08.77</time>
<name>5697</name>
</trkpt>
<trkpt lat="48.929653" lon="8.674565">
<ele>364.0</ele>
<speed>1.44</speed>
<course>18.1</course>
<desc>Speed 5.2 km/h Distance 9.25 km</desc>
<time>2010-10-24T12:07:09.77</time>
<name>5698</name>
</trkpt>
<trkpt lat="48.929667" lon="8.674572">
<ele>364.0</ele>
<speed>1.49</speed>
<course>15.5</course>
<desc>Speed 5.4 km/h Distance 9.25 km</desc>
<time>2010-10-24T12:07:10.77</time>
<name>5699</name>
</trkpt>
<trkpt lat="48.929678" lon="8.674577">
<ele>363.5</ele>
<speed>1.29</speed>
<course>25.2</course>
<desc>Speed 4.6 km/h Distance 9.25 km</desc>
<time>2010-10-24T12:07:11.77</time>
<name>5700</name>
</trkpt>
<trkpt lat="48.929690" lon="8.674585">
<ele>363.0</ele>
<speed>1.30</speed>
<course>13.5</course>
<desc>Speed 4.7 km/h Distance 9.25 km</desc>
<time>2010-10-24T12:07:12.77</time>
<name>5701</name>
</trkpt>
<trkpt lat="48.929703" lon="8.674590">
<ele>363.0</ele>
<speed>1.49</speed>
<course>13.5</course>
<desc>Speed 5.4 km/h Distance 9.26 km</desc>
<time>2010-10-24T12:07:13.77</time>
<name>5702</name>
</trkpt>
<trkpt lat="48.929717" lon="8.674595">
<ele>363.0</ele>
<speed>1.44</speed>
<course>16.0</course>
<desc>Speed 5.2 km/h Distance 9.26 km</desc>
<time>2010-10-24T12:07:14.77</time>
<name>5703</name>
</trkpt>
<trkpt lat="48.929728" lon="8.674600">
<ele>363.5</ele>
<speed>1.26</speed>
<course>12.6</course>
<desc>Speed 4.5 km/h Distance 9.26 km</desc>
<time>2010-10-24T12:07:15.77</time>
<name>5704</name>
</trkpt>
<trkpt lat="48.929743" lon="8.674605">
<ele>363.0</ele>
<speed>1.47</speed>
<course>18.1</course>
<desc>Speed 5.3 km/h Distance 9.26 km</desc>
<time>2010-10-24T12:07:16.77</time>
<name>5705</name>
</trkpt>
<trkpt lat="48.929757" lon="8.674612">
<ele>363.0</ele>
<speed>1.40</speed>
<course>15.5</course>
<desc>Speed 5.0 km/h Distance 9.26 km</desc>
<time>2010-10-24T12:07:17.77</time>
<name>5706</name>
</trkpt>
<trkpt lat="48.929768" lon="8.674617">
<ele>363.0</ele>
<speed>1.37</speed>
<course>20.9</course>
<desc>Speed 4.9 km/h Distance 9.26 km</desc>
<time>2010-10-24T12:07:18.77</time>
<name>5707</name>
</trkpt>
<trkpt lat="48.929780" lon="8.674623">
<ele>363.0</ele>
<speed>1.20</speed>
<course>9.0</course>
<desc>Speed 4.3 km/h Distance 9.26 km</desc>
<time>2010-10-24T12:07:19.77</time>
<name>5708</name>
</trkpt>
<trkpt lat="48.929793" lon="8.674627">
<ele>363.0</ele>
<speed>1.25</speed>
<course>18.2</course>
<desc>Speed 4.5 km/h Distance 9.27 km</desc>
<time>2010-10-24T12:07:20.77</time>
<name>5709</name>
</trkpt>
<trkpt lat="48.929803" lon="8.674632">
<ele>363.0</ele>
<speed>1.11</speed>
<course>23.8</course>
<desc>Speed 4.0 km/h Distance 9.27 km</desc>
<time>2010-10-24T12:07:21.77</time>
<name>5710</name>
</trkpt>
<trkpt lat="48.929813" lon="8.674638">
<ele>363.5</ele>
<speed>1.05</speed>
<course>23.4</course>
<desc>Speed 3.8 km/h Distance 9.27 km</desc>
<time>2010-10-24T12:07:22.77</time>
<name>5711</name>
</trkpt>
<trkpt lat="48.929823" lon="8.674645">
<ele>363.5</ele>
<speed>1.28</speed>
<course>16.0</course>
<desc>Speed 4.6 km/h Distance 9.27 km</desc>
<time>2010-10-24T12:07:23.77</time>
<name>5712</name>
</trkpt>
<trkpt lat="48.929835" lon="8.674650">
<ele>363.5</ele>
<speed>1.19</speed>
<course>20.9</course>
<desc>Speed 4.3 km/h Distance 9.27 km</desc>
<time>2010-10-24T12:07:24.77</time>
<name>5713</name>
</trkpt>
<trkpt lat="48.929847" lon="8.674657">
<ele>363.5</ele>
<speed>1.12</speed>
<course>17.6</course>
<desc>Speed 4.0 km/h Distance 9.27 km</desc>
<time>2010-10-24T12:07:25.77</time>
<name>5714</name>
</trkpt>
<trkpt lat="48.929857" lon="8.674662">
<ele>364.0</ele>
<speed>1.25</speed>
<course>20.9</course>
<desc>Speed 4.5 km/h Distance 9.27 km</desc>
<time>2010-10-24T12:07:26.77</time>
<name>5715</name>
</trkpt>
<trkpt lat="48.929868" lon="8.674668">
<ele>364.0</ele>
<speed>1.23</speed>
<course>20.6</course>
<desc>Speed 4.4 km/h Distance 9.27 km</desc>
<time>2010-10-24T12:07:27.77</time>
<name>5716</name>
</trkpt>
<trkpt lat="48.929880" lon="8.674675">
<ele>364.0</ele>
<speed>1.25</speed>
<course>18.2</course>
<desc>Speed 4.5 km/h Distance 9.28 km</desc>
<time>2010-10-24T12:07:28.77</time>
<name>5717</name>
</trkpt>
<trkpt lat="48.929890" lon="8.674680">
<ele>364.5</ele>
<speed>1.04</speed>
<course>5.0</course>
<desc>Speed 3.7 km/h Distance 9.28 km</desc>
<time>2010-10-24T12:07:29.77</time>
<name>5718</name>
</trkpt>
<trkpt lat="48.929898" lon="8.674680">
<ele>364.5</ele>
<speed>0.87</speed>
<course>20.9</course>
<desc>Speed 3.1 km/h Distance 9.28 km</desc>
<time>2010-10-24T12:07:30.77</time>
<name>5719</name>
</trkpt>
<trkpt lat="48.929910" lon="8.674687">
<ele>364.0</ele>
<speed>1.34</speed>
<course>9.6</course>
<desc>Speed 4.8 km/h Distance 9.28 km</desc>
<time>2010-10-24T12:07:31.77</time>
<name>5720</name>
</trkpt>
<trkpt lat="48.929918" lon="8.674688">
<ele>364.0</ele>
<speed>0.75</speed>
<course>5.0</course>
<desc>Speed 2.7 km/h Distance 9.28 km</desc>
<time>2010-10-24T12:07:32.77</time>
<name>5721</name>
</trkpt>
<trkpt lat="48.929927" lon="8.674688">
<ele>364.0</ele>
<speed>0.80</speed>
<course>12.6</course>
<desc>Speed 2.9 km/h Distance 9.28 km</desc>
<time>2010-10-24T12:07:33.77</time>
<name>5722</name>
</trkpt>
<trkpt lat="48.929932" lon="8.674690">
<ele>363.5</ele>
<speed>0.47</speed>
<course>12.6</course>
<desc>Speed 1.7 km/h Distance 9.28 km</desc>
<time>2010-10-24T12:07:34.77</time>
<name>5723</name>
</trkpt>
<trkpt lat="48.929937" lon="8.674692">
<ele>364.0</ele>
<speed>0.58</speed>
<course>346.6</course>
<desc>Speed 2.1 km/h Distance 9.28 km</desc>
<time>2010-10-24T12:07:36.77</time>
<name>5724</name>
</trkpt>
<trkpt lat="48.929947" lon="8.674688">
<ele>364.0</ele>
<speed>0.93</speed>
<course>348.8</course>
<desc>Speed 3.3 km/h Distance 9.28 km</desc>
<time>2010-10-24T12:07:37.77</time>
<name>5725</name>
</trkpt>
<trkpt lat="48.929963" lon="8.674683">
<ele>362.5</ele>
<speed>1.71</speed>
<course>332.8</course>
<desc>Speed 6.2 km/h Distance 9.29 km</desc>
<time>2010-10-24T12:07:38.77</time>
<name>5726</name>
</trkpt>
<trkpt lat="48.929978" lon="8.674672">
<ele>362.0</ele>
<speed>1.69</speed>
<course>322.5</course>
<desc>Speed 6.1 km/h Distance 9.29 km</desc>
<time>2010-10-24T12:07:39.77</time>
<name>5727</name>
</trkpt>
<trkpt lat="48.929988" lon="8.674660">
<ele>362.0</ele>
<speed>1.29</speed>
<course>326.8</course>
<desc>Speed 4.6 km/h Distance 9.29 km</desc>
<time>2010-10-24T12:07:40.77</time>
<name>5728</name>
</trkpt>
<trkpt lat="48.929997" lon="8.674652">
<ele>362.0</ele>
<speed>1.03</speed>
<course>331.4</course>
<desc>Speed 3.7 km/h Distance 9.29 km</desc>
<time>2010-10-24T12:07:41.77</time>
<name>5729</name>
</trkpt>
<trkpt lat="48.930007" lon="8.674643">
<ele>361.5</ele>
<speed>1.16</speed>
<course>332.1</course>
<desc>Speed 4.2 km/h Distance 9.29 km</desc>
<time>2010-10-24T12:07:42.77</time>
<name>5730</name>
</trkpt>
<trkpt lat="48.930015" lon="8.674637">
<ele>361.5</ele>
<speed>1.00</speed>
<course>336.2</course>
<desc>Speed 3.6 km/h Distance 9.29 km</desc>
<time>2010-10-24T12:07:43.77</time>
<name>5731</name>
</trkpt>
<trkpt lat="48.930025" lon="8.674630">
<ele>362.0</ele>
<speed>1.04</speed>
<course>327.7</course>
<desc>Speed 3.7 km/h Distance 9.29 km</desc>
<time>2010-10-24T12:07:44.77</time>
<name>5732</name>
</trkpt>
<trkpt lat="48.930030" lon="8.674625">
<ele>362.5</ele>
<speed>0.77</speed>
<course>332.1</course>
<desc>Speed 2.8 km/h Distance 9.29 km</desc>
<time>2010-10-24T12:07:45.77</time>
<name>5733</name>
</trkpt>
<trkpt lat="48.930038" lon="8.674618">
<ele>363.0</ele>
<speed>0.87</speed>
<course>326.3</course>
<desc>Speed 3.1 km/h Distance 9.30 km</desc>
<time>2010-10-24T12:07:46.77</time>
<name>5734</name>
</trkpt>
<trkpt lat="48.930042" lon="8.674615">
<ele>363.0</ele>
<speed>0.44</speed>
<course>351.0</course>
<desc>Speed 1.6 km/h Distance 9.30 km</desc>
<time>2010-10-24T12:07:47.77</time>
<name>5735</name>
</trkpt>
<trkpt lat="48.930055" lon="8.674612">
<ele>362.5</ele>
<speed>1.51</speed>
<course>334.4</course>
<desc>Speed 5.4 km/h Distance 9.30 km</desc>
<time>2010-10-24T12:07:48.77</time>
<name>5736</name>
</trkpt>
<trkpt lat="48.930062" lon="8.674607">
<ele>362.0</ele>
<speed>0.67</speed>
<course>347.4</course>
<desc>Speed 2.4 km/h Distance 9.30 km</desc>
<time>2010-10-24T12:07:49.77</time>
<name>5737</name>
</trkpt>
<trkpt lat="48.930072" lon="8.674603">
<ele>362.0</ele>
<speed>1.11</speed>
<course>355.3</course>
<desc>Speed 4.0 km/h Distance 9.30 km</desc>
<time>2010-10-24T12:07:50.77</time>
<name>5738</name>
</trkpt>
<trkpt lat="48.930083" lon="8.674602">
<ele>362.0</ele>
<speed>0.95</speed>
<course>326.3</course>
<desc>Speed 3.4 km/h Distance 9.30 km</desc>
<time>2010-10-24T12:07:51.77</time>
<name>5739</name>
</trkpt>
<trkpt lat="48.930090" lon="8.674595">
<ele>362.0</ele>
<speed>0.61</speed>
<course>0.0</course>
<desc>Speed 2.2 km/h Distance 9.30 km</desc>
<time>2010-10-24T12:07:52.77</time>
<name>5740</name>
</trkpt>
<trkpt lat="48.930095" lon="8.674595">
<ele>362.0</ele>
<speed>0.62</speed>
<course>1.2</course>
<desc>Speed 2.2 km/h Distance 9.30 km</desc>
<time>2010-10-24T12:07:53.77</time>
<name>5741</name>
</trkpt>
<trkpt lat="48.930102" lon="8.674595">
<ele>362.0</ele>
<speed>0.46</speed>
<course>356.1</course>
<desc>Speed 1.7 km/h Distance 9.30 km</desc>
<time>2010-10-24T12:07:54.77</time>
<name>5742</name>
</trkpt>
<trkpt lat="48.930115" lon="8.674593">
<ele>361.0</ele>
<speed>1.58</speed>
<course>357.2</course>
<desc>Speed 5.7 km/h Distance 9.30 km</desc>
<time>2010-10-24T12:07:55.77</time>
<name>5743</name>
</trkpt>
<trkpt lat="48.930132" lon="8.674592">
<ele>360.0</ele>
<speed>1.91</speed>
<course>347.4</course>
<desc>Speed 6.9 km/h Distance 9.31 km</desc>
<time>2010-10-24T12:07:56.77</time>
<name>5744</name>
</trkpt>
<trkpt lat="48.930147" lon="8.674587">
<ele>359.0</ele>
<speed>1.59</speed>
<course>318.6</course>
<desc>Speed 5.7 km/h Distance 9.31 km</desc>
<time>2010-10-24T12:07:57.77</time>
<name>5745</name>
</trkpt>
<trkpt lat="48.930152" lon="8.674580">
<ele>359.0</ele>
<speed>0.70</speed>
<course>270.0</course>
<desc>Speed 2.5 km/h Distance 9.31 km</desc>
<time>2010-10-24T12:07:58.77</time>
<name>5746</name>
</trkpt>
<trkpt lat="48.930152" lon="8.674568">
<ele>357.0</ele>
<speed>0.85</speed>
<course>307.4</course>
<desc>Speed 3.1 km/h Distance 9.31 km</desc>
<time>2010-10-24T12:07:59.77</time>
<name>5747</name>
</trkpt>
<trkpt lat="48.930157" lon="8.674558">
<ele>356.5</ele>
<speed>0.67</speed>
<course>334.4</course>
<desc>Speed 2.4 km/h Distance 9.31 km</desc>
<time>2010-10-24T12:08:00.77</time>
<name>5748</name>
</trkpt>
<trkpt lat="48.930163" lon="8.674553">
<ele>355.5</ele>
<speed>0.74</speed>
<course>317.4</course>
<desc>Speed 2.7 km/h Distance 9.31 km</desc>
<time>2010-10-24T12:08:01.77</time>
<name>5749</name>
</trkpt>
<trkpt lat="48.930172" lon="8.674542">
<ele>356.0</ele>
<speed>0.73</speed>
<course>317.4</course>
<desc>Speed 2.6 km/h Distance 9.31 km</desc>
<time>2010-10-24T12:08:02.77</time>
<name>5750</name>
</trkpt>
<trkpt lat="48.930180" lon="8.674530">
<ele>355.0</ele>
<speed>1.12</speed>
<course>326.8</course>
<desc>Speed 4.0 km/h Distance 9.31 km</desc>
<time>2010-10-24T12:08:03.77</time>
<name>5751</name>
</trkpt>
<trkpt lat="48.930187" lon="8.674523">
<ele>354.0</ele>
<speed>0.75</speed>
<course>270.0</course>
<desc>Speed 2.7 km/h Distance 9.31 km</desc>
<time>2010-10-24T12:08:04.77</time>
<name>5752</name>
</trkpt>
<trkpt lat="48.930187" lon="8.674510">
<ele>352.5</ele>
<speed>0.75</speed>
<course>321.9</course>
<desc>Speed 2.7 km/h Distance 9.32 km</desc>
<time>2010-10-24T12:08:05.77</time>
<name>5753</name>
</trkpt>
<trkpt lat="48.930195" lon="8.674500">
<ele>351.5</ele>
<speed>0.92</speed>
<course>336.2</course>
<desc>Speed 3.3 km/h Distance 9.32 km</desc>
<time>2010-10-24T12:08:06.77</time>
<name>5754</name>
</trkpt>
<trkpt lat="48.930205" lon="8.674493">
<ele>351.0</ele>
<speed>1.03</speed>
<course>331.4</course>
<desc>Speed 3.7 km/h Distance 9.32 km</desc>
<time>2010-10-24T12:08:07.77</time>
<name>5755</name>
</trkpt>
<trkpt lat="48.930215" lon="8.674485">
<ele>352.5</ele>
<speed>0.64</speed>
<course>299.7</course>
<desc>Speed 2.3 km/h Distance 9.32 km</desc>
<time>2010-10-24T12:08:08.77</time>
<name>5756</name>
</trkpt>
<trkpt lat="48.930220" lon="8.674472">
<ele>352.0</ele>
<speed>0.79</speed>
<course>323.5</course>
<desc>Speed 2.8 km/h Distance 9.32 km</desc>
<time>2010-10-24T12:08:09.77</time>
<name>5757</name>
</trkpt>
<trkpt lat="48.930233" lon="8.674457">
<ele>352.0</ele>
<speed>1.01</speed>
<course>290.9</course>
<desc>Speed 3.6 km/h Distance 9.32 km</desc>
<time>2010-10-24T12:08:10.77</time>
<name>5758</name>
</trkpt>
<trkpt lat="48.930237" lon="8.674443">
<ele>351.5</ele>
<speed>0.87</speed>
<course>296.9</course>
<desc>Speed 3.1 km/h Distance 9.32 km</desc>
<time>2010-10-24T12:08:11.77</time>
<name>5759</name>
</trkpt>
<trkpt lat="48.930242" lon="8.674428">
<ele>351.0</ele>
<speed>1.03</speed>
<course>329.1</course>
<desc>Speed 3.7 km/h Distance 9.32 km</desc>
<time>2010-10-24T12:08:12.77</time>
<name>5760</name>
</trkpt>
<trkpt lat="48.930260" lon="8.674412">
<ele>352.5</ele>
<speed>1.00</speed>
<course>290.8</course>
<desc>Speed 3.6 km/h Distance 9.33 km</desc>
<time>2010-10-24T12:08:13.77</time>
<name>5761</name>
</trkpt>
<trkpt lat="48.930265" lon="8.674392">
<ele>352.5</ele>
<speed>1.22</speed>
<course>286.9</course>
<desc>Speed 4.4 km/h Distance 9.33 km</desc>
<time>2010-10-24T12:08:14.77</time>
<name>5762</name>
</trkpt>
<trkpt lat="48.930268" lon="8.674375">
<ele>352.5</ele>
<speed>1.10</speed>
<course>293.5</course>
<desc>Speed 4.0 km/h Distance 9.33 km</desc>
<time>2010-10-24T12:08:15.77</time>
<name>5763</name>
</trkpt>
<trkpt lat="48.930272" lon="8.674363">
<ele>352.5</ele>
<speed>0.73</speed>
<course>317.2</course>
<desc>Speed 2.6 km/h Distance 9.33 km</desc>
<time>2010-10-24T12:08:16.77</time>
<name>5764</name>
</trkpt>
<trkpt lat="48.930280" lon="8.674352">
<ele>352.5</ele>
<speed>0.81</speed>
<course>307.6</course>
<desc>Speed 2.9 km/h Distance 9.33 km</desc>
<time>2010-10-24T12:08:17.77</time>
<name>5765</name>
</trkpt>
<trkpt lat="48.930285" lon="8.674342">
<ele>352.5</ele>
<speed>0.70</speed>
<course>286.9</course>
<desc>Speed 2.5 km/h Distance 9.33 km</desc>
<time>2010-10-24T12:08:18.77</time>
<name>5766</name>
</trkpt>
<trkpt lat="48.930290" lon="8.674317">
<ele>352.5</ele>
<speed>1.25</speed>
<course>278.6</course>
<desc>Speed 4.5 km/h Distance 9.33 km</desc>
<time>2010-10-24T12:08:19.77</time>
<name>5767</name>
</trkpt>
<trkpt lat="48.930292" lon="8.674300">
<ele>352.5</ele>
<speed>1.10</speed>
<course>261.4</course>
<desc>Speed 4.0 km/h Distance 9.34 km</desc>
<time>2010-10-24T12:08:20.77</time>
<name>5768</name>
</trkpt>
<trkpt lat="48.930290" lon="8.674283">
<ele>352.5</ele>
<speed>0.99</speed>
<course>279.6</course>
<desc>Speed 3.6 km/h Distance 9.34 km</desc>
<time>2010-10-24T12:08:21.77</time>
<name>5769</name>
</trkpt>
<trkpt lat="48.930292" lon="8.674268">
<ele>353.5</ele>
<speed>1.05</speed>
<course>292.5</course>
<desc>Speed 3.8 km/h Distance 9.34 km</desc>
<time>2010-10-24T12:08:22.77</time>
<name>5770</name>
</trkpt>
<trkpt lat="48.930297" lon="8.674250">
<ele>352.5</ele>
<speed>1.13</speed>
<course>290.8</course>
<desc>Speed 4.1 km/h Distance 9.34 km</desc>
<time>2010-10-24T12:08:23.77</time>
<name>5771</name>
</trkpt>
<trkpt lat="48.930300" lon="8.674237">
<ele>352.5</ele>
<speed>0.68</speed>
<course>270.0</course>
<desc>Speed 2.4 km/h Distance 9.34 km</desc>
<time>2010-10-24T12:08:24.77</time>
<name>5772</name>
</trkpt>
<trkpt lat="48.930300" lon="8.674218">
<ele>352.0</ele>
<speed>0.98</speed>
<course>270.0</course>
<desc>Speed 3.5 km/h Distance 9.34 km</desc>
<time>2010-10-24T12:08:25.77</time>
<name>5773</name>
</trkpt>
<trkpt lat="48.930300" lon="8.674203">
<ele>351.5</ele>
<speed>0.89</speed>
<course>318.8</course>
<desc>Speed 3.2 km/h Distance 9.34 km</desc>
<time>2010-10-24T12:08:26.77</time>
<name>5774</name>
</trkpt>
<trkpt lat="48.930310" lon="8.674190">
<ele>350.5</ele>
<speed>0.74</speed>
<course>296.9</course>
<desc>Speed 2.7 km/h Distance 9.34 km</desc>
<time>2010-10-24T12:08:27.77</time>
<name>5775</name>
</trkpt>
<trkpt lat="48.930315" lon="8.674175">
<ele>349.5</ele>
<speed>0.93</speed>
<course>340.3</course>
<desc>Speed 3.3 km/h Distance 9.35 km</desc>
<time>2010-10-24T12:08:28.77</time>
<name>5776</name>
</trkpt>
<trkpt lat="48.930333" lon="8.674165">
<ele>350.0</ele>
<speed>0.79</speed>
<course>341.3</course>
<desc>Speed 2.8 km/h Distance 9.35 km</desc>
<time>2010-10-24T12:08:29.77</time>
<name>5777</name>
</trkpt>
<trkpt lat="48.930385" lon="8.674138">
<ele>351.0</ele>
<speed>0.88</speed>
<course>270.0</course>
<desc>Speed 3.2 km/h Distance 9.35 km</desc>
<time>2010-10-24T12:08:31.77</time>
<name>5778</name>
</trkpt>
<trkpt lat="48.930385" lon="8.674120">
<ele>350.5</ele>
<speed>0.92</speed>
<course>317.4</course>
<desc>Speed 3.3 km/h Distance 9.36 km</desc>
<time>2010-10-24T12:08:32.77</time>
<name>5779</name>
</trkpt>
<trkpt lat="48.930393" lon="8.674108">
<ele>351.0</ele>
<speed>0.83</speed>
<course>334.5</course>
<desc>Speed 3.0 km/h Distance 9.36 km</desc>
<time>2010-10-24T12:08:33.77</time>
<name>5780</name>
</trkpt>
<trkpt lat="48.930412" lon="8.674095">
<ele>351.0</ele>
<speed>1.00</speed>
<course>329.0</course>
<desc>Speed 3.6 km/h Distance 9.36 km</desc>
<time>2010-10-24T12:08:34.77</time>
<name>5781</name>
</trkpt>
<trkpt lat="48.930432" lon="8.674077">
<ele>352.0</ele>
<speed>2.25</speed>
<course>249.2</course>
<desc>Speed 8.1 km/h Distance 9.36 km</desc>
<time>2010-10-24T12:08:35.77</time>
<name>5782</name>
</trkpt>
<trkpt lat="48.930427" lon="8.674057">
<ele>350.0</ele>
<speed>1.30</speed>
<course>259.2</course>
<desc>Speed 4.7 km/h Distance 9.36 km</desc>
<time>2010-10-24T12:08:36.77</time>
<name>5783</name>
</trkpt>
<trkpt lat="48.930425" lon="8.674043">
<ele>350.0</ele>
<speed>0.76</speed>
<course>270.0</course>
<desc>Speed 2.7 km/h Distance 9.36 km</desc>
<time>2010-10-24T12:08:37.77</time>
<name>5784</name>
</trkpt>
<trkpt lat="48.930425" lon="8.674027">
<ele>349.5</ele>
<speed>0.92</speed>
<course>352.7</course>
<desc>Speed 3.3 km/h Distance 9.37 km</desc>
<time>2010-10-24T12:08:38.77</time>
<name>5785</name>
</trkpt>
<trkpt lat="48.930493" lon="8.674013">
<ele>353.0</ele>
<speed>0.77</speed>
<course>305.0</course>
<desc>Speed 2.8 km/h Distance 9.37 km</desc>
<time>2010-10-24T12:08:40.77</time>
<name>5786</name>
</trkpt>
<trkpt lat="48.930503" lon="8.673992">
<ele>353.0</ele>
<speed>1.05</speed>
<course>315.5</course>
<desc>Speed 3.8 km/h Distance 9.37 km</desc>
<time>2010-10-24T12:08:41.77</time>
<name>5787</name>
</trkpt>
<trkpt lat="48.930517" lon="8.673972">
<ele>353.0</ele>
<speed>1.04</speed>
<course>326.7</course>
<desc>Speed 3.7 km/h Distance 9.38 km</desc>
<time>2010-10-24T12:08:42.77</time>
<name>5788</name>
</trkpt>
<trkpt lat="48.930528" lon="8.673960">
<ele>353.5</ele>
<speed>0.85</speed>
<course>294.6</course>
<desc>Speed 3.1 km/h Distance 9.38 km</desc>
<time>2010-10-24T12:08:43.77</time>
<name>5789</name>
</trkpt>
<trkpt lat="48.930533" lon="8.673943">
<ele>352.5</ele>
<speed>0.86</speed>
<course>318.0</course>
<desc>Speed 3.1 km/h Distance 9.38 km</desc>
<time>2010-10-24T12:08:44.77</time>
<name>5790</name>
</trkpt>
<trkpt lat="48.930547" lon="8.673925">
<ele>353.5</ele>
<speed>1.09</speed>
<course>299.0</course>
<desc>Speed 3.9 km/h Distance 9.38 km</desc>
<time>2010-10-24T12:08:45.77</time>
<name>5791</name>
</trkpt>
<trkpt lat="48.930553" lon="8.673907">
<ele>353.5</ele>
<speed>1.15</speed>
<course>313.5</course>
<desc>Speed 4.1 km/h Distance 9.38 km</desc>
<time>2010-10-24T12:08:46.77</time>
<name>5792</name>
</trkpt>
<trkpt lat="48.930562" lon="8.673893">
<ele>353.0</ele>
<speed>0.87</speed>
<course>318.6</course>
<desc>Speed 3.1 km/h Distance 9.38 km</desc>
<time>2010-10-24T12:08:47.77</time>
<name>5793</name>
</trkpt>
<trkpt lat="48.930572" lon="8.673880">
<ele>353.0</ele>
<speed>0.97</speed>
<course>307.2</course>
<desc>Speed 3.5 km/h Distance 9.39 km</desc>
<time>2010-10-24T12:08:48.77</time>
<name>5794</name>
</trkpt>
<trkpt lat="48.930577" lon="8.673870">
<ele>352.5</ele>
<speed>0.56</speed>
<course>320.6</course>
<desc>Speed 2.0 km/h Distance 9.39 km</desc>
<time>2010-10-24T12:08:49.77</time>
<name>5795</name>
</trkpt>
<trkpt lat="48.930583" lon="8.673862">
<ele>352.0</ele>
<speed>0.40</speed>
<course>304.1</course>
<desc>Speed 1.4 km/h Distance 9.39 km</desc>
<time>2010-10-24T12:08:50.77</time>
<name>5796</name>
</trkpt>
<trkpt lat="48.930590" lon="8.673847">
<ele>351.5</ele>
<speed>0.64</speed>
<course>327.7</course>
<desc>Speed 2.3 km/h Distance 9.39 km</desc>
<time>2010-10-24T12:08:51.77</time>
<name>5797</name>
</trkpt>
<trkpt lat="48.930595" lon="8.673842">
<ele>351.5</ele>
<speed>0.38</speed>
<course>307.0</course>
<desc>Speed 1.4 km/h Distance 9.39 km</desc>
<time>2010-10-24T12:08:52.77</time>
<name>5798</name>
</trkpt>
<trkpt lat="48.930598" lon="8.673835">
<ele>351.5</ele>
<speed>0.46</speed>
<course>315.5</course>
<desc>Speed 1.7 km/h Distance 9.39 km</desc>
<time>2010-10-24T12:08:53.77</time>
<name>5799</name>
</trkpt>
<trkpt lat="48.930605" lon="8.673825">
<ele>351.0</ele>
<speed>0.62</speed>
<course>293.5</course>
<desc>Speed 2.2 km/h Distance 9.39 km</desc>
<time>2010-10-24T12:08:54.77</time>
<name>5800</name>
</trkpt>
<trkpt lat="48.930615" lon="8.673790">
<ele>349.0</ele>
<speed>0.33</speed>
<course>315.5</course>
<desc>Speed 1.2 km/h Distance 9.39 km</desc>
<time>2010-10-24T12:08:57.77</time>
<name>5801</name>
</trkpt>
<trkpt lat="48.930622" lon="8.673780">
<ele>348.5</ele>
<speed>0.31</speed>
<course>341.2</course>
<desc>Speed 1.1 km/h Distance 9.40 km</desc>
<time>2010-10-24T12:08:59.77</time>
<name>5802</name>
</trkpt>
<trkpt lat="48.930628" lon="8.673777">
<ele>348.0</ele>
<speed>0.57</speed>
<course>320.6</course>
<desc>Speed 2.1 km/h Distance 9.40 km</desc>
<time>2010-10-24T12:09:00.77</time>
<name>5803</name>
</trkpt>
<trkpt lat="48.930635" lon="8.673768">
<ele>348.5</ele>
<speed>0.46</speed>
<course>299.7</course>
<desc>Speed 1.7 km/h Distance 9.40 km</desc>
<time>2010-10-24T12:09:01.77</time>
<name>5804</name>
</trkpt>
<trkpt lat="48.930640" lon="8.673755">
<ele>348.5</ele>
<speed>0.31</speed>
<course>318.6</course>
<desc>Speed 1.1 km/h Distance 9.40 km</desc>
<time>2010-10-24T12:09:03.77</time>
<name>5805</name>
</trkpt>
<trkpt lat="48.930645" lon="8.673748">
<ele>349.0</ele>
<speed>0.40</speed>
<course>307.2</course>
<desc>Speed 1.4 km/h Distance 9.40 km</desc>
<time>2010-10-24T12:09:04.77</time>
<name>5806</name>
</trkpt>
<trkpt lat="48.930650" lon="8.673738">
<ele>349.0</ele>
<speed>0.52</speed>
<course>315.5</course>
<desc>Speed 1.9 km/h Distance 9.40 km</desc>
<time>2010-10-24T12:09:05.77</time>
<name>5807</name>
</trkpt>
<trkpt lat="48.930653" lon="8.673733">
<ele>349.0</ele>
<speed>0.31</speed>
<course>4.4</course>
<desc>Speed 1.1 km/h Distance 9.40 km</desc>
<time>2010-10-24T12:09:06.77</time>
<name>5808</name>
</trkpt>
<trkpt lat="48.930663" lon="8.673733">
<ele>349.5</ele>
<speed>0.36</speed>
<course>349.7</course>
<desc>Speed 1.3 km/h Distance 9.40 km</desc>
<time>2010-10-24T12:09:07.77</time>
<name>5809</name>
</trkpt>
<trkpt lat="48.930670" lon="8.673732">
<ele>349.5</ele>
<speed>0.70</speed>
<course>12.6</course>
<desc>Speed 2.5 km/h Distance 9.40 km</desc>
<time>2010-10-24T12:09:08.77</time>
<name>5810</name>
</trkpt>
<trkpt lat="48.930673" lon="8.673733">
<ele>350.0</ele>
<speed>0.37</speed>
<course>334.4</course>
<desc>Speed 1.3 km/h Distance 9.40 km</desc>
<time>2010-10-24T12:09:09.77</time>
<name>5811</name>
</trkpt>
<trkpt lat="48.930680" lon="8.673728">
<ele>350.0</ele>
<speed>0.43</speed>
<course>327.7</course>
<desc>Speed 1.5 km/h Distance 9.40 km</desc>
<time>2010-10-24T12:09:11.77</time>
<name>5812</name>
</trkpt>
<trkpt lat="48.930685" lon="8.673723">
<ele>350.0</ele>
<speed>0.37</speed>
<course>4.1</course>
<desc>Speed 1.3 km/h Distance 9.40 km</desc>
<time>2010-10-24T12:09:12.77</time>
<name>5813</name>
</trkpt>
<trkpt lat="48.930702" lon="8.673725">
<ele>350.5</ele>
<speed>1.77</speed>
<course>353.7</course>
<desc>Speed 6.4 km/h Distance 9.41 km</desc>
<time>2010-10-24T12:09:13.77</time>
<name>5814</name>
</trkpt>
<trkpt lat="48.930713" lon="8.673723">
<ele>350.5</ele>
<speed>1.17</speed>
<course>9.0</course>
<desc>Speed 4.2 km/h Distance 9.41 km</desc>
<time>2010-10-24T12:09:14.77</time>
<name>5815</name>
</trkpt>
<trkpt lat="48.930727" lon="8.673727">
<ele>350.0</ele>
<speed>0.93</speed>
<course>10.4</course>
<desc>Speed 3.3 km/h Distance 9.41 km</desc>
<time>2010-10-24T12:09:16.77</time>
<name>5816</name>
</trkpt>
<trkpt lat="48.930738" lon="8.673730">
<ele>351.0</ele>
<speed>0.67</speed>
<course>17.6</course>
<desc>Speed 2.4 km/h Distance 9.41 km</desc>
<time>2010-10-24T12:09:17.77</time>
<name>5817</name>
</trkpt>
<trkpt lat="48.930748" lon="8.673735">
<ele>350.5</ele>
<speed>0.93</speed>
<course>346.2</course>
<desc>Speed 3.3 km/h Distance 9.41 km</desc>
<time>2010-10-24T12:09:18.77</time>
<name>5818</name>
</trkpt>
<trkpt lat="48.930757" lon="8.673732">
<ele>350.5</ele>
<speed>0.68</speed>
<course>0.0</course>
<desc>Speed 2.4 km/h Distance 9.41 km</desc>
<time>2010-10-24T12:09:19.77</time>
<name>5819</name>
</trkpt>
<trkpt lat="48.930762" lon="8.673733">
<ele>350.0</ele>
<speed>0.50</speed>
<course>5.0</course>
<desc>Speed 1.8 km/h Distance 9.41 km</desc>
<time>2010-10-24T12:09:20.77</time>
<name>5820</name>
</trkpt>
<trkpt lat="48.930770" lon="8.673735">
<ele>350.0</ele>
<speed>0.87</speed>
<course>23.8</course>
<desc>Speed 3.1 km/h Distance 9.41 km</desc>
<time>2010-10-24T12:09:21.77</time>
<name>5821</name>
</trkpt>
<trkpt lat="48.930780" lon="8.673742">
<ele>350.0</ele>
<speed>1.11</speed>
<course>4.7</course>
<desc>Speed 4.0 km/h Distance 9.42 km</desc>
<time>2010-10-24T12:09:22.77</time>
<name>5822</name>
</trkpt>
<trkpt lat="48.930792" lon="8.673743">
<ele>349.0</ele>
<speed>0.92</speed>
<course>350.3</course>
<desc>Speed 3.3 km/h Distance 9.42 km</desc>
<time>2010-10-24T12:09:23.77</time>
<name>5823</name>
</trkpt>
<trkpt lat="48.930805" lon="8.673740">
<ele>350.5</ele>
<speed>1.01</speed>
<course>13.8</course>
<desc>Speed 3.6 km/h Distance 9.42 km</desc>
<time>2010-10-24T12:09:24.77</time>
<name>5824</name>
</trkpt>
<trkpt lat="48.930813" lon="8.673743">
<ele>351.0</ele>
<speed>0.62</speed>
<course>15.5</course>
<desc>Speed 2.2 km/h Distance 9.42 km</desc>
<time>2010-10-24T12:09:25.77</time>
<name>5825</name>
</trkpt>
<trkpt lat="48.930825" lon="8.673748">
<ele>351.5</ele>
<speed>1.11</speed>
<course>3.8</course>
<desc>Speed 4.0 km/h Distance 9.42 km</desc>
<time>2010-10-24T12:09:26.77</time>
<name>5826</name>
</trkpt>
<trkpt lat="48.930840" lon="8.673750">
<ele>351.5</ele>
<speed>0.79</speed>
<course>355.0</course>
<desc>Speed 2.8 km/h Distance 9.42 km</desc>
<time>2010-10-24T12:09:27.77</time>
<name>5827</name>
</trkpt>
<trkpt lat="48.930848" lon="8.673748">
<ele>351.5</ele>
<speed>0.68</speed>
<course>332.1</course>
<desc>Speed 2.4 km/h Distance 9.42 km</desc>
<time>2010-10-24T12:09:28.77</time>
<name>5828</name>
</trkpt>
<trkpt lat="48.930857" lon="8.673742">
<ele>351.5</ele>
<speed>0.38</speed>
<course>355.4</course>
<desc>Speed 1.4 km/h Distance 9.42 km</desc>
<time>2010-10-24T12:09:29.77</time>
<name>5829</name>
</trkpt>
<trkpt lat="48.930883" lon="8.673738">
<ele>352.0</ele>
<speed>0.40</speed>
<course>27.9</course>
<desc>Speed 1.4 km/h Distance 9.43 km</desc>
<time>2010-10-24T12:09:32.77</time>
<name>5830</name>
</trkpt>
<trkpt lat="48.930892" lon="8.673745">
<ele>352.0</ele>
<speed>0.98</speed>
<course>1.2</course>
<desc>Speed 3.5 km/h Distance 9.43 km</desc>
<time>2010-10-24T12:09:33.77</time>
<name>5831</name>
</trkpt>
<trkpt lat="48.930898" lon="8.673745">
<ele>351.5</ele>
<speed>0.63</speed>
<course>0.0</course>
<desc>Speed 2.3 km/h Distance 9.43 km</desc>
<time>2010-10-24T12:09:34.77</time>
<name>5832</name>
</trkpt>
<trkpt lat="48.930908" lon="8.673745">
<ele>351.0</ele>
<speed>0.74</speed>
<course>15.9</course>
<desc>Speed 2.7 km/h Distance 9.43 km</desc>
<time>2010-10-24T12:09:35.77</time>
<name>5833</name>
</trkpt>
<trkpt lat="48.930917" lon="8.673748">
<ele>350.5</ele>
<speed>0.68</speed>
<course>7.7</course>
<desc>Speed 2.4 km/h Distance 9.43 km</desc>
<time>2010-10-24T12:09:36.77</time>
<name>5834</name>
</trkpt>
<trkpt lat="48.930925" lon="8.673750">
<ele>350.5</ele>
<speed>0.79</speed>
<course>21.5</course>
<desc>Speed 2.8 km/h Distance 9.43 km</desc>
<time>2010-10-24T12:09:37.77</time>
<name>5835</name>
</trkpt>
<trkpt lat="48.930933" lon="8.673755">
<ele>350.5</ele>
<speed>0.79</speed>
<course>20.9</course>
<desc>Speed 2.8 km/h Distance 9.43 km</desc>
<time>2010-10-24T12:09:38.77</time>
<name>5836</name>
</trkpt>
<trkpt lat="48.930945" lon="8.673762">
<ele>350.5</ele>
<speed>1.00</speed>
<course>355.3</course>
<desc>Speed 3.6 km/h Distance 9.43 km</desc>
<time>2010-10-24T12:09:39.77</time>
<name>5837</name>
</trkpt>
<trkpt lat="48.930957" lon="8.673760">
<ele>349.5</ele>
<speed>0.68</speed>
<course>0.0</course>
<desc>Speed 2.4 km/h Distance 9.44 km</desc>
<time>2010-10-24T12:09:40.77</time>
<name>5838</name>
</trkpt>
<trkpt lat="48.930963" lon="8.673760">
<ele>348.5</ele>
<speed>0.62</speed>
<course>14.9</course>
<desc>Speed 2.2 km/h Distance 9.44 km</desc>
<time>2010-10-24T12:09:41.77</time>
<name>5839</name>
</trkpt>
<trkpt lat="48.930972" lon="8.673763">
<ele>348.5</ele>
<speed>0.93</speed>
<course>32.3</course>
<desc>Speed 3.3 km/h Distance 9.44 km</desc>
<time>2010-10-24T12:09:42.77</time>
<name>5840</name>
</trkpt>
<trkpt lat="48.930977" lon="8.673768">
<ele>348.0</ele>
<speed>0.44</speed>
<course>5.0</course>
<desc>Speed 1.6 km/h Distance 9.44 km</desc>
<time>2010-10-24T12:09:43.77</time>
<name>5841</name>
</trkpt>
<trkpt lat="48.930985" lon="8.673770">
<ele>348.0</ele>
<speed>0.49</speed>
<course>7.7</course>
<desc>Speed 1.8 km/h Distance 9.44 km</desc>
<time>2010-10-24T12:09:45.77</time>
<name>5842</name>
</trkpt>
<trkpt lat="48.931002" lon="8.673773">
<ele>347.5</ele>
<speed>0.75</speed>
<course>12.6</course>
<desc>Speed 2.7 km/h Distance 9.44 km</desc>
<time>2010-10-24T12:09:47.77</time>
<name>5843</name>
</trkpt>
<trkpt lat="48.931008" lon="8.673775">
<ele>347.5</ele>
<speed>0.62</speed>
<course>355.6</course>
<desc>Speed 2.2 km/h Distance 9.44 km</desc>
<time>2010-10-24T12:09:48.77</time>
<name>5844</name>
</trkpt>
<trkpt lat="48.931018" lon="8.673773">
<ele>346.5</ele>
<speed>0.58</speed>
<course>11.6</course>
<desc>Speed 2.1 km/h Distance 9.44 km</desc>
<time>2010-10-24T12:09:50.77</time>
<name>5845</name>
</trkpt>
<trkpt lat="48.931028" lon="8.673777">
<ele>346.0</ele>
<speed>0.52</speed>
<course>4.7</course>
<desc>Speed 1.9 km/h Distance 9.44 km</desc>
<time>2010-10-24T12:09:51.77</time>
<name>5846</name>
</trkpt>
<trkpt lat="48.931040" lon="8.673778">
<ele>345.5</ele>
<speed>0.58</speed>
<course>356.1</course>
<desc>Speed 2.1 km/h Distance 9.44 km</desc>
<time>2010-10-24T12:09:52.77</time>
<name>5847</name>
</trkpt>
<trkpt lat="48.931053" lon="8.673777">
<ele>345.0</ele>
<speed>0.43</speed>
<course>350.5</course>
<desc>Speed 1.5 km/h Distance 9.45 km</desc>
<time>2010-10-24T12:09:53.77</time>
<name>5848</name>
</trkpt>
<trkpt lat="48.931065" lon="8.673773">
<ele>344.0</ele>
<speed>0.43</speed>
<course>9.0</course>
<desc>Speed 1.5 km/h Distance 9.45 km</desc>
<time>2010-10-24T12:09:55.77</time>
<name>5849</name>
</trkpt>
<trkpt lat="48.931078" lon="8.673777">
<ele>344.0</ele>
<speed>0.63</speed>
<course>1.2</course>
<desc>Speed 2.3 km/h Distance 9.45 km</desc>
<time>2010-10-24T12:09:56.77</time>
<name>5850</name>
</trkpt>
<trkpt lat="48.931085" lon="8.673777">
<ele>343.5</ele>
<speed>0.68</speed>
<course>7.4</course>
<desc>Speed 2.4 km/h Distance 9.45 km</desc>
<time>2010-10-24T12:09:57.77</time>
<name>5851</name>
</trkpt>
<trkpt lat="48.931092" lon="8.673778">
<ele>342.5</ele>
<speed>0.41</speed>
<course>5.0</course>
<desc>Speed 1.5 km/h Distance 9.45 km</desc>
<time>2010-10-24T12:09:58.77</time>
<name>5852</name>
</trkpt>
<trkpt lat="48.931100" lon="8.673780">
<ele>342.0</ele>
<speed>0.40</speed>
<course>19.9</course>
<desc>Speed 1.4 km/h Distance 9.45 km</desc>
<time>2010-10-24T12:09:59.77</time>
<name>5853</name>
</trkpt>
<trkpt lat="48.931115" lon="8.673788">
<ele>341.5</ele>
<speed>1.07</speed>
<course>24.8</course>
<desc>Speed 3.9 km/h Distance 9.45 km</desc>
<time>2010-10-24T12:10:00.77</time>
<name>5854</name>
</trkpt>
<trkpt lat="48.931122" lon="8.673793">
<ele>341.5</ele>
<speed>0.82</speed>
<course>8.2</course>
<desc>Speed 3.0 km/h Distance 9.45 km</desc>
<time>2010-10-24T12:10:01.77</time>
<name>5855</name>
</trkpt>
<trkpt lat="48.931135" lon="8.673797">
<ele>341.0</ele>
<speed>0.62</speed>
<course>33.2</course>
<desc>Speed 2.2 km/h Distance 9.46 km</desc>
<time>2010-10-24T12:10:02.77</time>
<name>5856</name>
</trkpt>
<trkpt lat="48.931143" lon="8.673805">
<ele>340.0</ele>
<speed>0.62</speed>
<course>25.4</course>
<desc>Speed 2.2 km/h Distance 9.46 km</desc>
<time>2010-10-24T12:10:03.77</time>
<name>5857</name>
</trkpt>
<trkpt lat="48.931173" lon="8.673827">
<ele>341.5</ele>
<speed>0.40</speed>
<course>7.4</course>
<desc>Speed 1.4 km/h Distance 9.46 km</desc>
<time>2010-10-24T12:10:05.77</time>
<name>5858</name>
</trkpt>
<trkpt lat="48.931180" lon="8.673828">
<ele>341.0</ele>
<speed>0.57</speed>
<course>5.3</course>
<desc>Speed 2.1 km/h Distance 9.46 km</desc>
<time>2010-10-24T12:10:06.77</time>
<name>5859</name>
</trkpt>
<trkpt lat="48.931193" lon="8.673830">
<ele>341.0</ele>
<speed>0.69</speed>
<course>355.6</course>
<desc>Speed 2.5 km/h Distance 9.46 km</desc>
<time>2010-10-24T12:10:07.77</time>
<name>5860</name>
</trkpt>
<trkpt lat="48.931203" lon="8.673828">
<ele>341.0</ele>
<speed>0.56</speed>
<course>0.0</course>
<desc>Speed 2.0 km/h Distance 9.46 km</desc>
<time>2010-10-24T12:10:08.77</time>
<name>5861</name>
</trkpt>
<trkpt lat="48.931212" lon="8.673828">
<ele>340.5</ele>
<speed>0.30</speed>
<course>12.6</course>
<desc>Speed 1.1 km/h Distance 9.46 km</desc>
<time>2010-10-24T12:10:09.77</time>
<name>5862</name>
</trkpt>
<trkpt lat="48.931222" lon="8.673832">
<ele>341.0</ele>
<speed>1.01</speed>
<course>14.0</course>
<desc>Speed 3.6 km/h Distance 9.47 km</desc>
<time>2010-10-24T12:10:10.77</time>
<name>5863</name>
</trkpt>
<trkpt lat="48.931235" lon="8.673837">
<ele>341.0</ele>
<speed>0.88</speed>
<course>16.0</course>
<desc>Speed 3.2 km/h Distance 9.47 km</desc>
<time>2010-10-24T12:10:11.77</time>
<name>5864</name>
</trkpt>
<trkpt lat="48.931247" lon="8.673842">
<ele>341.0</ele>
<speed>1.05</speed>
<course>33.2</course>
<desc>Speed 3.8 km/h Distance 9.47 km</desc>
<time>2010-10-24T12:10:12.77</time>
<name>5865</name>
</trkpt>
<trkpt lat="48.931255" lon="8.673850">
<ele>341.5</ele>
<speed>1.07</speed>
<course>44.6</course>
<desc>Speed 3.9 km/h Distance 9.47 km</desc>
<time>2010-10-24T12:10:13.77</time>
<name>5866</name>
</trkpt>
<trkpt lat="48.931265" lon="8.673865">
<ele>342.0</ele>
<speed>0.99</speed>
<course>24.7</course>
<desc>Speed 3.6 km/h Distance 9.47 km</desc>
<time>2010-10-24T12:10:14.77</time>
<name>5867</name>
</trkpt>
<trkpt lat="48.931282" lon="8.673877">
<ele>342.5</ele>
<speed>0.92</speed>
<course>20.9</course>
<desc>Speed 3.3 km/h Distance 9.47 km</desc>
<time>2010-10-24T12:10:15.77</time>
<name>5868</name>
</trkpt>
<trkpt lat="48.931293" lon="8.673883">
<ele>342.5</ele>
<speed>0.91</speed>
<course>33.2</course>
<desc>Speed 3.3 km/h Distance 9.47 km</desc>
<time>2010-10-24T12:10:16.77</time>
<name>5869</name>
</trkpt>
<trkpt lat="48.931302" lon="8.673892">
<ele>343.0</ele>
<speed>0.93</speed>
<course>24.9</course>
<desc>Speed 3.3 km/h Distance 9.48 km</desc>
<time>2010-10-24T12:10:17.77</time>
<name>5870</name>
</trkpt>
<trkpt lat="48.931313" lon="8.673900">
<ele>343.0</ele>
<speed>1.05</speed>
<course>33.0</course>
<desc>Speed 3.8 km/h Distance 9.48 km</desc>
<time>2010-10-24T12:10:18.77</time>
<name>5871</name>
</trkpt>
<trkpt lat="48.931323" lon="8.673910">
<ele>343.0</ele>
<speed>0.81</speed>
<course>26.0</course>
<desc>Speed 2.9 km/h Distance 9.48 km</desc>
<time>2010-10-24T12:10:19.77</time>
<name>5872</name>
</trkpt>
<trkpt lat="48.931337" lon="8.673920">
<ele>343.0</ele>
<speed>0.93</speed>
<course>17.6</course>
<desc>Speed 3.3 km/h Distance 9.48 km</desc>
<time>2010-10-24T12:10:20.77</time>
<name>5873</name>
</trkpt>
<trkpt lat="48.931347" lon="8.673925">
<ele>343.0</ele>
<speed>0.93</speed>
<course>33.1</course>
<desc>Speed 3.3 km/h Distance 9.48 km</desc>
<time>2010-10-24T12:10:21.77</time>
<name>5874</name>
</trkpt>
<trkpt lat="48.931358" lon="8.673937">
<ele>344.0</ele>
<speed>1.00</speed>
<course>37.3</course>
<desc>Speed 3.6 km/h Distance 9.48 km</desc>
<time>2010-10-24T12:10:22.77</time>
<name>5875</name>
</trkpt>
<trkpt lat="48.931368" lon="8.673948">
<ele>345.0</ele>
<speed>0.86</speed>
<course>26.8</course>
<desc>Speed 3.1 km/h Distance 9.48 km</desc>
<time>2010-10-24T12:10:23.77</time>
<name>5876</name>
</trkpt>
<trkpt lat="48.931390" lon="8.673965">
<ele>347.0</ele>
<speed>0.75</speed>
<course>27.5</course>
<desc>Speed 2.7 km/h Distance 9.49 km</desc>
<time>2010-10-24T12:10:24.77</time>
<name>5877</name>
</trkpt>
<trkpt lat="48.931398" lon="8.673972">
<ele>347.5</ele>
<speed>0.76</speed>
<course>21.5</course>
<desc>Speed 2.7 km/h Distance 9.49 km</desc>
<time>2010-10-24T12:10:25.77</time>
<name>5878</name>
</trkpt>
<trkpt lat="48.931407" lon="8.673977">
<ele>348.0</ele>
<speed>0.87</speed>
<course>23.8</course>
<desc>Speed 3.1 km/h Distance 9.49 km</desc>
<time>2010-10-24T12:10:26.77</time>
<name>5879</name>
</trkpt>
<trkpt lat="48.931417" lon="8.673983">
<ele>348.5</ele>
<speed>0.75</speed>
<course>39.4</course>
<desc>Speed 2.7 km/h Distance 9.49 km</desc>
<time>2010-10-24T12:10:27.77</time>
<name>5880</name>
</trkpt>
<trkpt lat="48.931423" lon="8.673992">
<ele>349.0</ele>
<speed>0.86</speed>
<course>33.2</course>
<desc>Speed 3.1 km/h Distance 9.49 km</desc>
<time>2010-10-24T12:10:28.77</time>
<name>5881</name>
</trkpt>
<trkpt lat="48.931432" lon="8.674000">
<ele>349.5</ele>
<speed>0.75</speed>
<course>20.9</course>
<desc>Speed 2.7 km/h Distance 9.49 km</desc>
<time>2010-10-24T12:10:29.77</time>
<name>5882</name>
</trkpt>
<trkpt lat="48.931443" lon="8.674007">
<ele>350.0</ele>
<speed>0.81</speed>
<course>33.2</course>
<desc>Speed 2.9 km/h Distance 9.49 km</desc>
<time>2010-10-24T12:10:30.77</time>
<name>5883</name>
</trkpt>
<trkpt lat="48.931450" lon="8.674013">
<ele>350.5</ele>
<speed>0.83</speed>
<course>23.4</course>
<desc>Speed 3.0 km/h Distance 9.49 km</desc>
<time>2010-10-24T12:10:31.77</time>
<name>5884</name>
</trkpt>
<trkpt lat="48.931460" lon="8.674020">
<ele>351.5</ele>
<speed>1.05</speed>
<course>11.6</course>
<desc>Speed 3.8 km/h Distance 9.50 km</desc>
<time>2010-10-24T12:10:32.77</time>
<name>5885</name>
</trkpt>
<trkpt lat="48.931470" lon="8.674023">
<ele>352.5</ele>
<speed>0.94</speed>
<course>18.1</course>
<desc>Speed 3.4 km/h Distance 9.50 km</desc>
<time>2010-10-24T12:10:33.77</time>
<name>5886</name>
</trkpt>
<trkpt lat="48.931483" lon="8.674030">
<ele>353.0</ele>
<speed>0.98</speed>
<course>19.4</course>
<desc>Speed 3.5 km/h Distance 9.50 km</desc>
<time>2010-10-24T12:10:34.77</time>
<name>5887</name>
</trkpt>
<trkpt lat="48.931508" lon="8.674043">
<ele>354.5</ele>
<speed>0.88</speed>
<course>13.5</course>
<desc>Speed 3.2 km/h Distance 9.50 km</desc>
<time>2010-10-24T12:10:35.77</time>
<name>5888</name>
</trkpt>
<trkpt lat="48.931522" lon="8.674048">
<ele>354.5</ele>
<speed>0.77</speed>
<course>33.4</course>
<desc>Speed 2.8 km/h Distance 9.50 km</desc>
<time>2010-10-24T12:10:36.77</time>
<name>5889</name>
</trkpt>
<trkpt lat="48.931532" lon="8.674058">
<ele>355.0</ele>
<speed>0.94</speed>
<course>11.2</course>
<desc>Speed 3.4 km/h Distance 9.50 km</desc>
<time>2010-10-24T12:10:37.77</time>
<name>5890</name>
</trkpt>
<trkpt lat="48.931543" lon="8.674062">
<ele>355.5</ele>
<speed>0.91</speed>
<course>20.9</course>
<desc>Speed 3.3 km/h Distance 9.51 km</desc>
<time>2010-10-24T12:10:38.77</time>
<name>5891</name>
</trkpt>
<trkpt lat="48.931555" lon="8.674068">
<ele>356.0</ele>
<speed>1.02</speed>
<course>28.6</course>
<desc>Speed 3.7 km/h Distance 9.51 km</desc>
<time>2010-10-24T12:10:39.77</time>
<name>5892</name>
</trkpt>
<trkpt lat="48.931565" lon="8.674077">
<ele>356.5</ele>
<speed>1.20</speed>
<course>20.1</course>
<desc>Speed 4.3 km/h Distance 9.51 km</desc>
<time>2010-10-24T12:10:40.77</time>
<name>5893</name>
</trkpt>
<trkpt lat="48.931580" lon="8.674085">
<ele>357.0</ele>
<speed>0.95</speed>
<course>21.5</course>
<desc>Speed 3.4 km/h Distance 9.51 km</desc>
<time>2010-10-24T12:10:41.77</time>
<name>5894</name>
</trkpt>
<trkpt lat="48.931588" lon="8.674090">
<ele>357.0</ele>
<speed>0.94</speed>
<course>27.9</course>
<desc>Speed 3.4 km/h Distance 9.51 km</desc>
<time>2010-10-24T12:10:42.77</time>
<name>5895</name>
</trkpt>
<trkpt lat="48.931597" lon="8.674097">
<ele>357.0</ele>
<speed>0.98</speed>
<course>33.7</course>
<desc>Speed 3.5 km/h Distance 9.51 km</desc>
<time>2010-10-24T12:10:43.77</time>
<name>5896</name>
</trkpt>
<trkpt lat="48.931603" lon="8.674103">
<ele>357.5</ele>
<speed>0.76</speed>
<course>33.7</course>
<desc>Speed 2.7 km/h Distance 9.51 km</desc>
<time>2010-10-24T12:10:44.77</time>
<name>5897</name>
</trkpt>
<trkpt lat="48.931610" lon="8.674110">
<ele>357.5</ele>
<speed>0.87</speed>
<course>20.8</course>
<desc>Speed 3.1 km/h Distance 9.51 km</desc>
<time>2010-10-24T12:10:45.77</time>
<name>5898</name>
</trkpt>
<trkpt lat="48.931618" lon="8.674115">
<ele>358.0</ele>
<speed>0.81</speed>
<course>27.9</course>
<desc>Speed 2.9 km/h Distance 9.52 km</desc>
<time>2010-10-24T12:10:46.77</time>
<name>5899</name>
</trkpt>
<trkpt lat="48.931627" lon="8.674122">
<ele>358.0</ele>
<speed>0.91</speed>
<course>27.9</course>
<desc>Speed 3.3 km/h Distance 9.52 km</desc>
<time>2010-10-24T12:10:47.77</time>
<name>5900</name>
</trkpt>
<trkpt lat="48.931635" lon="8.674128">
<ele>358.5</ele>
<speed>0.89</speed>
<course>26.4</course>
<desc>Speed 3.2 km/h Distance 9.52 km</desc>
<time>2010-10-24T12:10:48.77</time>
<name>5901</name>
</trkpt>
<trkpt lat="48.931642" lon="8.674133">
<ele>359.0</ele>
<speed>0.69</speed>
<course>26.4</course>
<desc>Speed 2.5 km/h Distance 9.52 km</desc>
<time>2010-10-24T12:10:49.77</time>
<name>5902</name>
</trkpt>
<trkpt lat="48.931648" lon="8.674138">
<ele>359.0</ele>
<speed>0.76</speed>
<course>22.2</course>
<desc>Speed 2.7 km/h Distance 9.52 km</desc>
<time>2010-10-24T12:10:50.77</time>
<name>5903</name>
</trkpt>
<trkpt lat="48.931653" lon="8.674142">
<ele>359.5</ele>
<speed>0.57</speed>
<course>15.1</course>
<desc>Speed 2.1 km/h Distance 9.52 km</desc>
<time>2010-10-24T12:10:51.77</time>
<name>5904</name>
</trkpt>
<trkpt lat="48.931710" lon="8.674165">
<ele>364.0</ele>
<speed>1.12</speed>
<course>332.1</course>
<desc>Speed 4.0 km/h Distance 9.53 km</desc>
<time>2010-10-24T12:10:53.77</time>
<name>5905</name>
</trkpt>
<trkpt lat="48.931718" lon="8.674158">
<ele>364.5</ele>
<speed>0.89</speed>
<course>333.6</course>
<desc>Speed 3.2 km/h Distance 9.53 km</desc>
<time>2010-10-24T12:10:54.77</time>
<name>5906</name>
</trkpt>
<trkpt lat="48.931732" lon="8.674148">
<ele>364.5</ele>
<speed>1.19</speed>
<course>290.8</course>
<desc>Speed 4.3 km/h Distance 9.53 km</desc>
<time>2010-10-24T12:10:55.77</time>
<name>5907</name>
</trkpt>
<trkpt lat="48.931737" lon="8.674128">
<ele>364.0</ele>
<speed>1.40</speed>
<course>294.6</course>
<desc>Speed 5.0 km/h Distance 9.53 km</desc>
<time>2010-10-24T12:10:56.77</time>
<name>5908</name>
</trkpt>
<trkpt lat="48.931742" lon="8.674112">
<ele>364.0</ele>
<speed>1.33</speed>
<course>292.6</course>
<desc>Speed 4.8 km/h Distance 9.53 km</desc>
<time>2010-10-24T12:10:57.77</time>
<name>5909</name>
</trkpt>
<trkpt lat="48.931747" lon="8.674093">
<ele>363.5</ele>
<speed>1.40</speed>
<course>278.7</course>
<desc>Speed 5.0 km/h Distance 9.53 km</desc>
<time>2010-10-24T12:10:58.77</time>
<name>5910</name>
</trkpt>
<trkpt lat="48.931748" lon="8.674077">
<ele>363.5</ele>
<speed>1.15</speed>
<course>290.8</course>
<desc>Speed 4.1 km/h Distance 9.53 km</desc>
<time>2010-10-24T12:10:59.77</time>
<name>5911</name>
</trkpt>
<trkpt lat="48.931753" lon="8.674057">
<ele>363.0</ele>
<speed>1.41</speed>
<course>292.6</course>
<desc>Speed 5.1 km/h Distance 9.54 km</desc>
<time>2010-10-24T12:11:00.77</time>
<name>5912</name>
</trkpt>
<trkpt lat="48.931758" lon="8.674038">
<ele>362.5</ele>
<speed>1.29</speed>
<course>285.5</course>
<desc>Speed 4.6 km/h Distance 9.54 km</desc>
<time>2010-10-24T12:11:01.77</time>
<name>5913</name>
</trkpt>
<trkpt lat="48.931762" lon="8.674020">
<ele>362.5</ele>
<speed>1.36</speed>
<course>296.9</course>
<desc>Speed 4.9 km/h Distance 9.54 km</desc>
<time>2010-10-24T12:11:02.77</time>
<name>5914</name>
</trkpt>
<trkpt lat="48.931767" lon="8.674005">
<ele>362.0</ele>
<speed>1.23</speed>
<course>276.7</course>
<desc>Speed 4.4 km/h Distance 9.54 km</desc>
<time>2010-10-24T12:11:03.77</time>
<name>5915</name>
</trkpt>
<trkpt lat="48.931768" lon="8.673983">
<ele>362.0</ele>
<speed>1.46</speed>
<course>284.2</course>
<desc>Speed 5.3 km/h Distance 9.54 km</desc>
<time>2010-10-24T12:11:04.77</time>
<name>5916</name>
</trkpt>
<trkpt lat="48.931772" lon="8.673963">
<ele>362.5</ele>
<speed>1.35</speed>
<course>277.2</course>
<desc>Speed 4.9 km/h Distance 9.54 km</desc>
<time>2010-10-24T12:11:05.77</time>
<name>5917</name>
</trkpt>
<trkpt lat="48.931773" lon="8.673943">
<ele>362.5</ele>
<speed>1.45</speed>
<course>284.2</course>
<desc>Speed 5.2 km/h Distance 9.54 km</desc>
<time>2010-10-24T12:11:06.77</time>
<name>5918</name>
</trkpt>
<trkpt lat="48.931777" lon="8.673923">
<ele>362.0</ele>
<speed>1.35</speed>
<course>292.5</course>
<desc>Speed 4.9 km/h Distance 9.55 km</desc>
<time>2010-10-24T12:11:07.77</time>
<name>5919</name>
</trkpt>
<trkpt lat="48.931782" lon="8.673905">
<ele>361.5</ele>
<speed>1.28</speed>
<course>301.3</course>
<desc>Speed 4.6 km/h Distance 9.55 km</desc>
<time>2010-10-24T12:11:08.77</time>
<name>5920</name>
</trkpt>
<trkpt lat="48.931788" lon="8.673888">
<ele>361.0</ele>
<speed>1.34</speed>
<course>296.9</course>
<desc>Speed 4.8 km/h Distance 9.55 km</desc>
<time>2010-10-24T12:11:09.77</time>
<name>5921</name>
</trkpt>
<trkpt lat="48.931795" lon="8.673868">
<ele>360.5</ele>
<speed>1.45</speed>
<course>313.6</course>
<desc>Speed 5.2 km/h Distance 9.55 km</desc>
<time>2010-10-24T12:11:10.77</time>
<name>5922</name>
</trkpt>
<trkpt lat="48.931803" lon="8.673855">
<ele>360.5</ele>
<speed>1.26</speed>
<course>307.3</course>
<desc>Speed 4.5 km/h Distance 9.55 km</desc>
<time>2010-10-24T12:11:11.77</time>
<name>5923</name>
</trkpt>
<trkpt lat="48.931812" lon="8.673838">
<ele>360.0</ele>
<speed>1.42</speed>
<course>344.7</course>
<desc>Speed 5.1 km/h Distance 9.55 km</desc>
<time>2010-10-24T12:11:12.77</time>
<name>5924</name>
</trkpt>
<trkpt lat="48.931832" lon="8.673830">
<ele>360.5</ele>
<speed>1.21</speed>
<course>286.9</course>
<desc>Speed 4.4 km/h Distance 9.56 km</desc>
<time>2010-10-24T12:11:13.77</time>
<name>5925</name>
</trkpt>
<trkpt lat="48.931835" lon="8.673813">
<ele>360.5</ele>
<speed>1.26</speed>
<course>313.5</course>
<desc>Speed 4.5 km/h Distance 9.56 km</desc>
<time>2010-10-24T12:11:14.77</time>
<name>5926</name>
</trkpt>
<trkpt lat="48.931843" lon="8.673800">
<ele>360.5</ele>
<speed>1.17</speed>
<course>317.4</course>
<desc>Speed 4.2 km/h Distance 9.56 km</desc>
<time>2010-10-24T12:11:15.77</time>
<name>5927</name>
</trkpt>
<trkpt lat="48.931852" lon="8.673788">
<ele>360.5</ele>
<speed>1.09</speed>
<course>294.6</course>
<desc>Speed 3.9 km/h Distance 9.56 km</desc>
<time>2010-10-24T12:11:16.77</time>
<name>5928</name>
</trkpt>
<trkpt lat="48.931857" lon="8.673772">
<ele>360.5</ele>
<speed>1.27</speed>
<course>292.6</course>
<desc>Speed 4.6 km/h Distance 9.56 km</desc>
<time>2010-10-24T12:11:17.77</time>
<name>5929</name>
</trkpt>
<trkpt lat="48.931862" lon="8.673753">
<ele>361.0</ele>
<speed>1.32</speed>
<course>288.7</course>
<desc>Speed 4.8 km/h Distance 9.56 km</desc>
<time>2010-10-24T12:11:18.77</time>
<name>5930</name>
</trkpt>
<trkpt lat="48.931865" lon="8.673738">
<ele>362.0</ele>
<speed>1.12</speed>
<course>313.6</course>
<desc>Speed 4.0 km/h Distance 9.56 km</desc>
<time>2010-10-24T12:11:19.77</time>
<name>5931</name>
</trkpt>
<trkpt lat="48.931873" lon="8.673725">
<ele>362.0</ele>
<speed>1.14</speed>
<course>318.8</course>
<desc>Speed 4.1 km/h Distance 9.57 km</desc>
<time>2010-10-24T12:11:20.77</time>
<name>5932</name>
</trkpt>
<trkpt lat="48.931883" lon="8.673712">
<ele>362.0</ele>
<speed>1.27</speed>
<course>318.8</course>
<desc>Speed 4.6 km/h Distance 9.57 km</desc>
<time>2010-10-24T12:11:21.77</time>
<name>5933</name>
</trkpt>
<trkpt lat="48.931893" lon="8.673698">
<ele>362.0</ele>
<speed>1.25</speed>
<course>292.6</course>
<desc>Speed 4.5 km/h Distance 9.57 km</desc>
<time>2010-10-24T12:11:22.77</time>
<name>5934</name>
</trkpt>
<trkpt lat="48.931898" lon="8.673680">
<ele>363.0</ele>
<speed>1.62</speed>
<course>307.3</course>
<desc>Speed 5.8 km/h Distance 9.57 km</desc>
<time>2010-10-24T12:11:23.77</time>
<name>5935</name>
</trkpt>
<trkpt lat="48.931907" lon="8.673663">
<ele>362.5</ele>
<speed>1.41</speed>
<course>296.9</course>
<desc>Speed 5.1 km/h Distance 9.57 km</desc>
<time>2010-10-24T12:11:24.77</time>
<name>5936</name>
</trkpt>
<trkpt lat="48.931913" lon="8.673643">
<ele>362.5</ele>
<speed>1.61</speed>
<course>299.7</course>
<desc>Speed 5.8 km/h Distance 9.57 km</desc>
<time>2010-10-24T12:11:25.77</time>
<name>5937</name>
</trkpt>
<trkpt lat="48.931918" lon="8.673630">
<ele>362.5</ele>
<speed>0.93</speed>
<course>282.3</course>
<desc>Speed 3.3 km/h Distance 9.57 km</desc>
<time>2010-10-24T12:11:26.77</time>
<name>5938</name>
</trkpt>
<trkpt lat="48.931920" lon="8.673618">
<ele>362.5</ele>
<speed>0.80</speed>
<course>312.5</course>
<desc>Speed 2.9 km/h Distance 9.57 km</desc>
<time>2010-10-24T12:11:27.77</time>
<name>5939</name>
</trkpt>
<trkpt lat="48.931930" lon="8.673602">
<ele>362.0</ele>
<speed>1.21</speed>
<course>323.1</course>
<desc>Speed 4.4 km/h Distance 9.58 km</desc>
<time>2010-10-24T12:11:28.77</time>
<name>5940</name>
</trkpt>
<trkpt lat="48.931942" lon="8.673588">
<ele>361.5</ele>
<speed>1.17</speed>
<course>315.5</course>
<desc>Speed 4.2 km/h Distance 9.58 km</desc>
<time>2010-10-24T12:11:29.77</time>
<name>5941</name>
</trkpt>
<trkpt lat="48.931952" lon="8.673573">
<ele>361.0</ele>
<speed>1.32</speed>
<course>310.1</course>
<desc>Speed 4.8 km/h Distance 9.58 km</desc>
<time>2010-10-24T12:11:30.77</time>
<name>5942</name>
</trkpt>
<trkpt lat="48.931960" lon="8.673558">
<ele>361.0</ele>
<speed>1.15</speed>
<course>315.4</course>
<desc>Speed 4.1 km/h Distance 9.58 km</desc>
<time>2010-10-24T12:11:31.77</time>
<name>5943</name>
</trkpt>
<trkpt lat="48.931970" lon="8.673543">
<ele>361.0</ele>
<speed>1.13</speed>
<course>326.8</course>
<desc>Speed 4.1 km/h Distance 9.58 km</desc>
<time>2010-10-24T12:11:32.77</time>
<name>5944</name>
</trkpt>
<trkpt lat="48.931978" lon="8.673535">
<ele>361.5</ele>
<speed>0.64</speed>
<course>343.2</course>
<desc>Speed 2.3 km/h Distance 9.58 km</desc>
<time>2010-10-24T12:11:33.77</time>
<name>5945</name>
</trkpt>
<trkpt lat="48.931997" lon="8.673527">
<ele>361.0</ele>
<speed>1.25</speed>
<course>345.1</course>
<desc>Speed 4.5 km/h Distance 9.59 km</desc>
<time>2010-10-24T12:11:34.77</time>
<name>5946</name>
</trkpt>
<trkpt lat="48.932013" lon="8.673520">
<ele>361.0</ele>
<speed>0.89</speed>
<course>315.5</course>
<desc>Speed 3.2 km/h Distance 9.59 km</desc>
<time>2010-10-24T12:11:35.77</time>
<name>5947</name>
</trkpt>
<trkpt lat="48.932023" lon="8.673505">
<ele>362.0</ele>
<speed>1.08</speed>
<course>276.7</course>
<desc>Speed 3.9 km/h Distance 9.59 km</desc>
<time>2010-10-24T12:11:36.77</time>
<name>5948</name>
</trkpt>
<trkpt lat="48.932025" lon="8.673483">
<ele>363.0</ele>
<speed>1.20</speed>
<course>318.8</course>
<desc>Speed 4.3 km/h Distance 9.59 km</desc>
<time>2010-10-24T12:11:37.77</time>
<name>5949</name>
</trkpt>
<trkpt lat="48.932035" lon="8.673470">
<ele>362.5</ele>
<speed>1.10</speed>
<course>313.6</course>
<desc>Speed 4.0 km/h Distance 9.59 km</desc>
<time>2010-10-24T12:11:38.77</time>
<name>5950</name>
</trkpt>
<trkpt lat="48.932043" lon="8.673457">
<ele>362.0</ele>
<speed>1.28</speed>
<course>296.9</course>
<desc>Speed 4.6 km/h Distance 9.59 km</desc>
<time>2010-10-24T12:11:39.77</time>
<name>5951</name>
</trkpt>
<trkpt lat="48.932048" lon="8.673442">
<ele>362.5</ele>
<speed>1.08</speed>
<course>285.5</course>
<desc>Speed 3.9 km/h Distance 9.59 km</desc>
<time>2010-10-24T12:11:40.77</time>
<name>5952</name>
</trkpt>
<trkpt lat="48.932052" lon="8.673423">
<ele>363.0</ele>
<speed>1.11</speed>
<course>270.0</course>
<desc>Speed 4.0 km/h Distance 9.60 km</desc>
<time>2010-10-24T12:11:41.77</time>
<name>5953</name>
</trkpt>
<trkpt lat="48.932052" lon="8.673408">
<ele>363.5</ele>
<speed>0.98</speed>
<course>257.7</course>
<desc>Speed 3.5 km/h Distance 9.60 km</desc>
<time>2010-10-24T12:11:42.77</time>
<name>5954</name>
</trkpt>
<trkpt lat="48.932048" lon="8.673385">
<ele>364.0</ele>
<speed>1.62</speed>
<course>200.4</course>
<desc>Speed 5.8 km/h Distance 9.60 km</desc>
<time>2010-10-24T12:11:43.77</time>
<name>5955</name>
</trkpt>
<trkpt lat="48.931650" lon="8.673160">
<ele>363.5</ele>
<speed>4.15</speed>
<course>213.3</course>
<desc>Speed 14.9 km/h Distance 9.65 km</desc>
<time>2010-10-24T12:11:55.93</time>
<name>5956</name>
</trkpt>
<trkpt lat="48.931628" lon="8.673138">
<ele>363.5</ele>
<speed>5.90</speed>
<course>335.3</course>
<desc>Speed 21.2 km/h Distance 9.65 km</desc>
<time>2010-10-24T12:11:56.92</time>
<name>5957</name>
</trkpt>
<trkpt lat="48.931678" lon="8.673103">
<ele>363.0</ele>
<speed>5.86</speed>
<course>354.1</course>
<desc>Speed 21.1 km/h Distance 9.66 km</desc>
<time>2010-10-24T12:11:58.42</time>
<name>5958</name>
</trkpt>
<trkpt lat="48.931742" lon="8.673093">
<ele>363.0</ele>
<speed>5.86</speed>
<course>4.7</course>
<desc>Speed 21.1 km/h Distance 9.66 km</desc>
<time>2010-10-24T12:11:59.40</time>
<name>5959</name>
</trkpt>
<trkpt lat="48.931953" lon="8.673120">
<ele>363.0</ele>
<speed>0.61</speed>
<course>334.8</course>
<desc>Speed 2.2 km/h Distance 9.69 km</desc>
<time>2010-10-24T12:12:02.42</time>
<name>5960</name>
</trkpt>
<trkpt lat="48.931965" lon="8.673112">
<ele>363.0</ele>
<speed>0.83</speed>
<course>4.1</course>
<desc>Speed 3.0 km/h Distance 9.69 km</desc>
<time>2010-10-24T12:12:03.42</time>
<name>5961</name>
</trkpt>
<trkpt lat="48.932027" lon="8.673118">
<ele>363.0</ele>
<speed>0.41</speed>
<course>229.8</course>
<desc>Speed 1.5 km/h Distance 9.69 km</desc>
<time>2010-10-24T12:12:05.49</time>
<name>5962</name>
</trkpt>
<trkpt lat="48.932010" lon="8.673088">
<ele>363.0</ele>
<speed>4.13</speed>
<course>355.4</course>
<desc>Speed 14.9 km/h Distance 9.70 km</desc>
<time>2010-10-24T12:12:07.40</time>
<name>5963</name>
</trkpt>
<trkpt lat="48.932118" lon="8.673075">
<ele>363.0</ele>
<speed>3.26</speed>
<course>349.7</course>
<desc>Speed 11.7 km/h Distance 9.71 km</desc>
<time>2010-10-24T12:12:09.40</time>
<name>5964</name>
</trkpt>
<trkpt lat="48.932197" lon="8.673053">
<ele>362.5</ele>
<speed>0.46</speed>
<course>303.1</course>
<desc>Speed 1.7 km/h Distance 9.72 km</desc>
<time>2010-10-24T12:12:11.38</time>
<name>5965</name>
</trkpt>
<trkpt lat="48.932207" lon="8.673030">
<ele>361.5</ele>
<speed>3.06</speed>
<course>215.0</course>
<desc>Speed 11.0 km/h Distance 9.72 km</desc>
<time>2010-10-24T12:12:13.37</time>
<name>5966</name>
</trkpt>
<trkpt lat="48.932182" lon="8.673003">
<ele>361.5</ele>
<speed>4.38</speed>
<course>285.5</course>
<desc>Speed 15.8 km/h Distance 9.72 km</desc>
<time>2010-10-24T12:12:14.37</time>
<name>5967</name>
</trkpt>
<trkpt lat="48.932192" lon="8.672948">
<ele>362.0</ele>
<speed>0.94</speed>
<course>317.9</course>
<desc>Speed 3.4 km/h Distance 9.73 km</desc>
<time>2010-10-24T12:12:16.36</time>
<name>5968</name>
</trkpt>
<trkpt lat="48.932205" lon="8.672930">
<ele>362.0</ele>
<speed>0.61</speed>
<course>319.8</course>
<desc>Speed 2.2 km/h Distance 9.73 km</desc>
<time>2010-10-24T12:12:17.35</time>
<name>5969</name>
</trkpt>
<trkpt lat="48.932240" lon="8.672885">
<ele>361.5</ele>
<speed>1.02</speed>
<course>309.1</course>
<desc>Speed 3.7 km/h Distance 9.73 km</desc>
<time>2010-10-24T12:12:19.34</time>
<name>5970</name>
</trkpt>
<trkpt lat="48.932253" lon="8.672860">
<ele>361.5</ele>
<speed>1.02</speed>
<course>322.7</course>
<desc>Speed 3.7 km/h Distance 9.74 km</desc>
<time>2010-10-24T12:12:20.34</time>
<name>5971</name>
</trkpt>
<trkpt lat="48.932263" lon="8.672848">
<ele>360.0</ele>
<speed>0.54</speed>
<course>264.9</course>
<desc>Speed 1.9 km/h Distance 9.74 km</desc>
<time>2010-10-24T12:12:21.37</time>
<name>5972</name>
</trkpt>
<trkpt lat="48.932262" lon="8.672820">
<ele>359.5</ele>
<speed>1.37</speed>
<course>328.6</course>
<desc>Speed 4.9 km/h Distance 9.74 km</desc>
<time>2010-10-24T12:12:22.33</time>
<name>5973</name>
</trkpt>
<trkpt lat="48.932285" lon="8.672798">
<ele>359.5</ele>
<speed>1.49</speed>
<course>255.7</course>
<desc>Speed 5.4 km/h Distance 9.74 km</desc>
<time>2010-10-24T12:12:23.33</time>
<name>5974</name>
</trkpt>
<trkpt lat="48.932280" lon="8.672768">
<ele>359.5</ele>
<speed>1.94</speed>
<course>235.3</course>
<desc>Speed 7.0 km/h Distance 9.75 km</desc>
<time>2010-10-24T12:12:24.32</time>
<name>5975</name>
</trkpt>
<trkpt lat="48.932272" lon="8.672750">
<ele>359.5</ele>
<speed>1.94</speed>
<course>211.0</course>
<desc>Speed 7.0 km/h Distance 9.75 km</desc>
<time>2010-10-24T12:12:25.31</time>
<name>5976</name>
</trkpt>
<trkpt lat="48.932193" lon="8.672678">
<ele>360.0</ele>
<speed>5.69</speed>
<course>296.4</course>
<desc>Speed 20.5 km/h Distance 9.76 km</desc>
<time>2010-10-24T12:12:27.30</time>
<name>5977</name>
</trkpt>
<trkpt lat="48.932217" lon="8.672607">
<ele>361.0</ele>
<speed>1.54</speed>
<course>300.6</course>
<desc>Speed 5.5 km/h Distance 9.76 km</desc>
<time>2010-10-24T12:12:30.38</time>
<name>5978</name>
</trkpt>
<trkpt lat="48.932228" lon="8.672577">
<ele>361.0</ele>
<speed>1.16</speed>
<course>333.9</course>
<desc>Speed 4.2 km/h Distance 9.77 km</desc>
<time>2010-10-24T12:12:31.37</time>
<name>5979</name>
</trkpt>
<trkpt lat="48.932327" lon="8.672503">
<ele>361.5</ele>
<speed>1.23</speed>
<course>254.7</course>
<desc>Speed 4.4 km/h Distance 9.78 km</desc>
<time>2010-10-24T12:12:34.39</time>
<name>5980</name>
</trkpt>
<trkpt lat="48.932315" lon="8.672438">
<ele>361.5</ele>
<speed>2.00</speed>
<course>0.5</course>
<desc>Speed 7.2 km/h Distance 9.78 km</desc>
<time>2010-10-24T12:12:36.37</time>
<name>5981</name>
</trkpt>
<trkpt lat="48.932448" lon="8.672440">
<ele>362.5</ele>
<speed>6.11</speed>
<course>268.0</course>
<desc>Speed 22.0 km/h Distance 9.80 km</desc>
<time>2010-10-24T12:12:39.37</time>
<name>5982</name>
</trkpt>
<trkpt lat="48.932447" lon="8.672368">
<ele>362.5</ele>
<speed>1.61</speed>
<course>250.3</course>
<desc>Speed 5.8 km/h Distance 9.80 km</desc>
<time>2010-10-24T12:12:42.37</time>
<name>5983</name>
</trkpt>
<trkpt lat="48.932440" lon="8.672340">
<ele>362.5</ele>
<speed>1.69</speed>
<course>279.6</course>
<desc>Speed 6.1 km/h Distance 9.81 km</desc>
<time>2010-10-24T12:12:43.37</time>
<name>5984</name>
</trkpt>
<trkpt lat="48.932443" lon="8.672310">
<ele>362.5</ele>
<speed>1.37</speed>
<course>274.4</course>
<desc>Speed 4.9 km/h Distance 9.81 km</desc>
<time>2010-10-24T12:12:44.36</time>
<name>5985</name>
</trkpt>
<trkpt lat="48.932445" lon="8.672277">
<ele>362.5</ele>
<speed>1.41</speed>
<course>328.8</course>
<desc>Speed 5.1 km/h Distance 9.81 km</desc>
<time>2010-10-24T12:12:45.36</time>
<name>5986</name>
</trkpt>
<trkpt lat="48.932467" lon="8.672257">
<ele>362.0</ele>
<speed>1.50</speed>
<course>323.8</course>
<desc>Speed 5.4 km/h Distance 9.81 km</desc>
<time>2010-10-24T12:12:46.36</time>
<name>5987</name>
</trkpt>
<trkpt lat="48.932482" lon="8.672240">
<ele>362.0</ele>
<speed>1.29</speed>
<course>315.4</course>
<desc>Speed 4.6 km/h Distance 9.82 km</desc>
<time>2010-10-24T12:12:47.35</time>
<name>5988</name>
</trkpt>
<trkpt lat="48.932495" lon="8.672220">
<ele>362.0</ele>
<speed>1.48</speed>
<course>328.8</course>
<desc>Speed 5.3 km/h Distance 9.82 km</desc>
<time>2010-10-24T12:12:48.34</time>
<name>5989</name>
</trkpt>
<trkpt lat="48.932517" lon="8.672200">
<ele>362.0</ele>
<speed>2.47</speed>
<course>242.0</course>
<desc>Speed 8.9 km/h Distance 9.82 km</desc>
<time>2010-10-24T12:12:49.33</time>
<name>5990</name>
</trkpt>
<trkpt lat="48.932505" lon="8.672167">
<ele>362.5</ele>
<speed>2.16</speed>
<course>275.8</course>
<desc>Speed 7.8 km/h Distance 9.82 km</desc>
<time>2010-10-24T12:12:50.33</time>
<name>5991</name>
</trkpt>
<trkpt lat="48.932507" lon="8.672142">
<ele>362.5</ele>
<speed>1.17</speed>
<course>283.2</course>
<desc>Speed 4.2 km/h Distance 9.82 km</desc>
<time>2010-10-24T12:12:51.33</time>
<name>5992</name>
</trkpt>
<trkpt lat="48.932510" lon="8.672120">
<ele>362.5</ele>
<speed>0.95</speed>
<course>243.1</course>
<desc>Speed 3.4 km/h Distance 9.83 km</desc>
<time>2010-10-24T12:12:52.32</time>
<name>5993</name>
</trkpt>
<trkpt lat="48.932493" lon="8.672070">
<ele>362.5</ele>
<speed>1.41</speed>
<course>258.5</course>
<desc>Speed 5.1 km/h Distance 9.83 km</desc>
<time>2010-10-24T12:12:54.32</time>
<name>5994</name>
</trkpt>
<trkpt lat="48.932490" lon="8.672045">
<ele>362.5</ele>
<speed>1.66</speed>
<course>289.4</course>
<desc>Speed 6.0 km/h Distance 9.83 km</desc>
<time>2010-10-24T12:12:55.31</time>
<name>5995</name>
</trkpt>
<trkpt lat="48.932495" lon="8.672023">
<ele>363.0</ele>
<speed>1.37</speed>
<course>275.4</course>
<desc>Speed 4.9 km/h Distance 9.83 km</desc>
<time>2010-10-24T12:12:56.31</time>
<name>5996</name>
</trkpt>
<trkpt lat="48.932497" lon="8.671997">
<ele>363.5</ele>
<speed>1.36</speed>
<course>245.5</course>
<desc>Speed 4.9 km/h Distance 9.84 km</desc>
<time>2010-10-24T12:12:57.30</time>
<name>5997</name>
</trkpt>
<trkpt lat="48.932487" lon="8.671963">
<ele>364.5</ele>
<speed>2.22</speed>
<course>311.6</course>
<desc>Speed 8.0 km/h Distance 9.84 km</desc>
<time>2010-10-24T12:12:58.30</time>
<name>5998</name>
</trkpt>
<trkpt lat="48.932498" lon="8.671943">
<ele>364.5</ele>
<speed>1.61</speed>
<course>298.5</course>
<desc>Speed 5.8 km/h Distance 9.84 km</desc>
<time>2010-10-24T12:12:59.29</time>
<name>5999</name>
</trkpt>
<trkpt lat="48.932507" lon="8.671920">
<ele>365.0</ele>
<speed>1.46</speed>
<course>275.1</course>
<desc>Speed 5.3 km/h Distance 9.84 km</desc>
<time>2010-10-24T12:13:00.29</time>
<name>6000</name>
</trkpt>
<trkpt lat="48.932508" lon="8.671892">
<ele>365.0</ele>
<speed>1.63</speed>
<course>255.8</course>
<desc>Speed 5.9 km/h Distance 9.84 km</desc>
<time>2010-10-24T12:13:01.29</time>
<name>6001</name>
</trkpt>
<trkpt lat="48.932503" lon="8.671862">
<ele>366.5</ele>
<speed>1.76</speed>
<course>290.8</course>
<desc>Speed 6.3 km/h Distance 9.85 km</desc>
<time>2010-10-24T12:13:02.28</time>
<name>6002</name>
</trkpt>
<trkpt lat="48.932508" lon="8.671842">
<ele>366.5</ele>
<speed>1.33</speed>
<course>292.5</course>
<desc>Speed 4.8 km/h Distance 9.85 km</desc>
<time>2010-10-24T12:13:03.27</time>
<name>6003</name>
</trkpt>
<trkpt lat="48.932513" lon="8.671823">
<ele>366.5</ele>
<speed>1.28</speed>
<course>244.6</course>
<desc>Speed 4.6 km/h Distance 9.85 km</desc>
<time>2010-10-24T12:13:04.27</time>
<name>6004</name>
</trkpt>
<trkpt lat="48.932505" lon="8.671797">
<ele>366.5</ele>
<speed>1.80</speed>
<course>323.0</course>
<desc>Speed 6.5 km/h Distance 9.85 km</desc>
<time>2010-10-24T12:13:05.27</time>
<name>6005</name>
</trkpt>
<trkpt lat="48.932517" lon="8.671783">
<ele>366.0</ele>
<speed>1.09</speed>
<course>296.9</course>
<desc>Speed 3.9 km/h Distance 9.85 km</desc>
<time>2010-10-24T12:13:06.27</time>
<name>6006</name>
</trkpt>
<trkpt lat="48.932523" lon="8.671763">
<ele>366.0</ele>
<speed>1.45</speed>
<course>326.7</course>
<desc>Speed 5.2 km/h Distance 9.86 km</desc>
<time>2010-10-24T12:13:07.26</time>
<name>6007</name>
</trkpt>
<trkpt lat="48.932540" lon="8.671747">
<ele>366.0</ele>
<speed>1.35</speed>
<course>283.2</course>
<desc>Speed 4.9 km/h Distance 9.86 km</desc>
<time>2010-10-24T12:13:08.26</time>
<name>6008</name>
</trkpt>
<trkpt lat="48.932543" lon="8.671725">
<ele>366.0</ele>
<speed>1.46</speed>
<course>293.5</course>
<desc>Speed 5.3 km/h Distance 9.86 km</desc>
<time>2010-10-24T12:13:09.26</time>
<name>6009</name>
</trkpt>
<trkpt lat="48.932550" lon="8.671702">
<ele>367.0</ele>
<speed>1.40</speed>
<course>296.9</course>
<desc>Speed 5.0 km/h Distance 9.86 km</desc>
<time>2010-10-24T12:13:10.25</time>
<name>6010</name>
</trkpt>
<trkpt lat="48.932558" lon="8.671677">
<ele>367.0</ele>
<speed>1.41</speed>
<course>288.1</course>
<desc>Speed 5.1 km/h Distance 9.86 km</desc>
<time>2010-10-24T12:13:11.24</time>
<name>6011</name>
</trkpt>
<trkpt lat="48.932563" lon="8.671653">
<ele>366.5</ele>
<speed>1.51</speed>
<course>251.9</course>
<desc>Speed 5.4 km/h Distance 9.86 km</desc>
<time>2010-10-24T12:13:12.24</time>
<name>6012</name>
</trkpt>
<trkpt lat="48.932558" lon="8.671630">
<ele>367.0</ele>
<speed>1.62</speed>
<course>228.4</course>
<desc>Speed 5.8 km/h Distance 9.87 km</desc>
<time>2010-10-24T12:13:13.23</time>
<name>6013</name>
</trkpt>
<trkpt lat="48.932523" lon="8.671570">
<ele>368.5</ele>
<speed>1.50</speed>
<course>270.0</course>
<desc>Speed 5.4 km/h Distance 9.87 km</desc>
<time>2010-10-24T12:13:15.22</time>
<name>6014</name>
</trkpt>
<trkpt lat="48.932523" lon="8.671545">
<ele>368.5</ele>
<speed>1.42</speed>
<course>270.0</course>
<desc>Speed 5.1 km/h Distance 9.87 km</desc>
<time>2010-10-24T12:13:16.22</time>
<name>6015</name>
</trkpt>
<trkpt lat="48.932523" lon="8.671520">
<ele>368.0</ele>
<speed>1.63</speed>
<course>309.7</course>
<desc>Speed 5.9 km/h Distance 9.88 km</desc>
<time>2010-10-24T12:13:17.22</time>
<name>6016</name>
</trkpt>
<trkpt lat="48.932533" lon="8.671502">
<ele>368.0</ele>
<speed>1.28</speed>
<course>293.5</course>
<desc>Speed 4.6 km/h Distance 9.88 km</desc>
<time>2010-10-24T12:13:18.21</time>
<name>6017</name>
</trkpt>
<trkpt lat="48.932540" lon="8.671478">
<ele>368.5</ele>
<speed>1.46</speed>
<course>227.6</course>
<desc>Speed 5.3 km/h Distance 9.88 km</desc>
<time>2010-10-24T12:13:19.20</time>
<name>6018</name>
</trkpt>
<trkpt lat="48.932525" lon="8.671453">
<ele>368.5</ele>
<speed>2.58</speed>
<course>243.1</course>
<desc>Speed 9.3 km/h Distance 9.88 km</desc>
<time>2010-10-24T12:13:20.20</time>
<name>6019</name>
</trkpt>
<trkpt lat="48.932517" lon="8.671428">
<ele>368.0</ele>
<speed>1.91</speed>
<course>327.9</course>
<desc>Speed 6.9 km/h Distance 9.88 km</desc>
<time>2010-10-24T12:13:21.20</time>
<name>6020</name>
</trkpt>
<trkpt lat="48.932553" lon="8.671393">
<ele>366.5</ele>
<speed>2.79</speed>
<course>298.5</course>
<desc>Speed 10.0 km/h Distance 9.89 km</desc>
<time>2010-10-24T12:13:23.19</time>
<name>6021</name>
</trkpt>
<trkpt lat="48.932562" lon="8.671370">
<ele>366.0</ele>
<speed>2.93</speed>
<course>338.5</course>
<desc>Speed 10.5 km/h Distance 9.89 km</desc>
<time>2010-10-24T12:13:24.19</time>
<name>6022</name>
</trkpt>
<trkpt lat="48.932587" lon="8.671355">
<ele>366.0</ele>
<speed>1.87</speed>
<course>324.2</course>
<desc>Speed 6.7 km/h Distance 9.89 km</desc>
<time>2010-10-24T12:13:25.18</time>
<name>6023</name>
</trkpt>
<trkpt lat="48.932603" lon="8.671337">
<ele>365.0</ele>
<speed>1.62</speed>
<course>332.7</course>
<desc>Speed 5.8 km/h Distance 9.90 km</desc>
<time>2010-10-24T12:13:26.17</time>
<name>6024</name>
</trkpt>
<trkpt lat="48.932627" lon="8.671318">
<ele>364.0</ele>
<speed>1.74</speed>
<course>345.8</course>
<desc>Speed 6.3 km/h Distance 9.90 km</desc>
<time>2010-10-24T12:13:27.17</time>
<name>6025</name>
</trkpt>
<trkpt lat="48.932657" lon="8.671307">
<ele>363.0</ele>
<speed>1.70</speed>
<course>329.1</course>
<desc>Speed 6.1 km/h Distance 9.90 km</desc>
<time>2010-10-24T12:13:28.17</time>
<name>6026</name>
</trkpt>
<trkpt lat="48.932675" lon="8.671290">
<ele>361.5</ele>
<speed>1.85</speed>
<course>281.5</course>
<desc>Speed 6.7 km/h Distance 9.91 km</desc>
<time>2010-10-24T12:13:29.16</time>
<name>6027</name>
</trkpt>
<trkpt lat="48.932678" lon="8.671265">
<ele>362.0</ele>
<speed>1.65</speed>
<course>323.8</course>
<desc>Speed 5.9 km/h Distance 9.91 km</desc>
<time>2010-10-24T12:13:30.16</time>
<name>6028</name>
</trkpt>
<trkpt lat="48.932693" lon="8.671248">
<ele>361.0</ele>
<speed>1.39</speed>
<course>304.7</course>
<desc>Speed 5.0 km/h Distance 9.91 km</desc>
<time>2010-10-24T12:13:31.16</time>
<name>6029</name>
</trkpt>
<trkpt lat="48.932702" lon="8.671230">
<ele>361.0</ele>
<speed>1.37</speed>
<course>335.5</course>
<desc>Speed 4.9 km/h Distance 9.91 km</desc>
<time>2010-10-24T12:13:32.15</time>
<name>6030</name>
</trkpt>
<trkpt lat="48.932723" lon="8.671215">
<ele>361.0</ele>
<speed>2.20</speed>
<course>309.4</course>
<desc>Speed 7.9 km/h Distance 9.91 km</desc>
<time>2010-10-24T12:13:33.16</time>
<name>6031</name>
</trkpt>
<trkpt lat="48.932735" lon="8.671193">
<ele>361.5</ele>
<speed>1.47</speed>
<course>253.1</course>
<desc>Speed 5.3 km/h Distance 9.92 km</desc>
<time>2010-10-24T12:13:34.16</time>
<name>6032</name>
</trkpt>
<trkpt lat="48.932730" lon="8.671168">
<ele>361.5</ele>
<speed>2.21</speed>
<course>335.6</course>
<desc>Speed 8.0 km/h Distance 9.92 km</desc>
<time>2010-10-24T12:13:35.15</time>
<name>6033</name>
</trkpt>
<trkpt lat="48.932752" lon="8.671153">
<ele>360.5</ele>
<speed>1.34</speed>
<course>259.2</course>
<desc>Speed 4.8 km/h Distance 9.92 km</desc>
<time>2010-10-24T12:13:36.14</time>
<name>6034</name>
</trkpt>
<trkpt lat="48.932748" lon="8.671127">
<ele>360.5</ele>
<speed>1.82</speed>
<course>320.6</course>
<desc>Speed 6.6 km/h Distance 9.92 km</desc>
<time>2010-10-24T12:13:37.29</time>
<name>6035</name>
</trkpt>
<trkpt lat="48.932762" lon="8.671110">
<ele>360.0</ele>
<speed>1.33</speed>
<course>342.9</course>
<desc>Speed 4.8 km/h Distance 9.92 km</desc>
<time>2010-10-24T12:13:38.13</time>
<name>6036</name>
</trkpt>
<trkpt lat="48.932790" lon="8.671097">
<ele>360.0</ele>
<speed>2.73</speed>
<course>318.8</course>
<desc>Speed 9.8 km/h Distance 9.93 km</desc>
<time>2010-10-24T12:13:39.13</time>
<name>6037</name>
</trkpt>
<trkpt lat="48.932800" lon="8.671083">
<ele>359.5</ele>
<speed>1.15</speed>
<course>218.7</course>
<desc>Speed 4.1 km/h Distance 9.93 km</desc>
<time>2010-10-24T12:13:40.12</time>
<name>6038</name>
</trkpt>
<trkpt lat="48.932785" lon="8.671065">
<ele>359.5</ele>
<speed>2.04</speed>
<course>211.4</course>
<desc>Speed 7.3 km/h Distance 9.93 km</desc>
<time>2010-10-24T12:13:41.12</time>
<name>6039</name>
</trkpt>
<trkpt lat="48.932738" lon="8.671022">
<ele>359.0</ele>
<speed>1.29</speed>
<course>316.7</course>
<desc>Speed 4.6 km/h Distance 9.94 km</desc>
<time>2010-10-24T12:13:43.12</time>
<name>6040</name>
</trkpt>
<trkpt lat="48.932750" lon="8.671005">
<ele>359.0</ele>
<speed>1.27</speed>
<course>337.7</course>
<desc>Speed 4.6 km/h Distance 9.94 km</desc>
<time>2010-10-24T12:13:44.12</time>
<name>6041</name>
</trkpt>
<trkpt lat="48.932763" lon="8.670997">
<ele>358.5</ele>
<speed>0.81</speed>
<course>349.2</course>
<desc>Speed 2.9 km/h Distance 9.94 km</desc>
<time>2010-10-24T12:13:45.11</time>
<name>6042</name>
</trkpt>
<trkpt lat="48.932787" lon="8.670990">
<ele>358.5</ele>
<speed>0.93</speed>
<course>278.7</course>
<desc>Speed 3.3 km/h Distance 9.94 km</desc>
<time>2010-10-24T12:13:46.11</time>
<name>6043</name>
</trkpt>
<trkpt lat="48.932788" lon="8.670973">
<ele>358.5</ele>
<speed>1.87</speed>
<course>200.5</course>
<desc>Speed 6.7 km/h Distance 9.94 km</desc>
<time>2010-10-24T12:13:47.10</time>
<name>6044</name>
</trkpt>
<trkpt lat="48.932630" lon="8.670883">
<ele>357.5</ele>
<speed>3.57</speed>
<course>270.0</course>
<desc>Speed 12.9 km/h Distance 9.96 km</desc>
<time>2010-10-24T12:13:51.34</time>
<name>6045</name>
</trkpt>
<trkpt lat="48.932630" lon="8.670858">
<ele>357.5</ele>
<speed>2.13</speed>
<course>302.4</course>
<desc>Speed 7.7 km/h Distance 9.96 km</desc>
<time>2010-10-24T12:13:52.34</time>
<name>6046</name>
</trkpt>
<trkpt lat="48.932638" lon="8.670838">
<ele>357.5</ele>
<speed>1.34</speed>
<course>254.5</course>
<desc>Speed 4.8 km/h Distance 9.97 km</desc>
<time>2010-10-24T12:13:53.33</time>
<name>6047</name>
</trkpt>
<trkpt lat="48.932635" lon="8.670820">
<ele>357.5</ele>
<speed>1.80</speed>
<course>355.9</course>
<desc>Speed 6.5 km/h Distance 9.97 km</desc>
<time>2010-10-24T12:13:54.33</time>
<name>6048</name>
</trkpt>
<trkpt lat="48.932725" lon="8.670810">
<ele>357.5</ele>
<speed>0.81</speed>
<course>354.9</course>
<desc>Speed 2.9 km/h Distance 9.98 km</desc>
<time>2010-10-24T12:13:56.32</time>
<name>6049</name>
</trkpt>
<trkpt lat="48.932810" lon="8.670798">
<ele>357.0</ele>
<speed>2.51</speed>
<course>318.8</course>
<desc>Speed 9.0 km/h Distance 9.99 km</desc>
<time>2010-10-24T12:13:59.34</time>
<name>6050</name>
</trkpt>
<trkpt lat="48.932820" lon="8.670785">
<ele>356.5</ele>
<speed>2.18</speed>
<course>352.7</course>
<desc>Speed 7.8 km/h Distance 9.99 km</desc>
<time>2010-10-24T12:14:00.34</time>
<name>6051</name>
</trkpt>
<trkpt lat="48.932888" lon="8.670772">
<ele>356.0</ele>
<speed>0.72</speed>
<course>243.5</course>
<desc>Speed 2.6 km/h Distance 10.00 km</desc>
<time>2010-10-24T12:14:02.33</time>
<name>6052</name>
</trkpt>
<trkpt lat="48.932857" lon="8.670675">
<ele>359.5</ele>
<speed>3.48</speed>
<course>347.0</course>
<desc>Speed 12.5 km/h Distance 10.00 km</desc>
<time>2010-10-24T12:14:06.33</time>
<name>6053</name>
</trkpt>
<trkpt lat="48.932942" lon="8.670645">
<ele>359.5</ele>
<speed>1.54</speed>
<course>314.3</course>
<desc>Speed 5.5 km/h Distance 10.01 km</desc>
<time>2010-10-24T12:14:08.33</time>
<name>6054</name>
</trkpt>
<trkpt lat="48.932957" lon="8.670622">
<ele>360.0</ele>
<speed>1.20</speed>
<course>289.4</course>
<desc>Speed 4.3 km/h Distance 10.02 km</desc>
<time>2010-10-24T12:14:09.33</time>
<name>6055</name>
</trkpt>
<trkpt lat="48.932962" lon="8.670600">
<ele>360.5</ele>
<speed>0.94</speed>
<course>299.7</course>
<desc>Speed 3.4 km/h Distance 10.02 km</desc>
<time>2010-10-24T12:14:10.32</time>
<name>6056</name>
</trkpt>
<trkpt lat="48.932972" lon="8.670573">
<ele>360.5</ele>
<speed>1.19</speed>
<course>274.6</course>
<desc>Speed 4.3 km/h Distance 10.02 km</desc>
<time>2010-10-24T12:14:11.32</time>
<name>6057</name>
</trkpt>
<trkpt lat="48.932973" lon="8.670542">
<ele>360.5</ele>
<speed>1.49</speed>
<course>328.8</course>
<desc>Speed 5.4 km/h Distance 10.02 km</desc>
<time>2010-10-24T12:14:12.31</time>
<name>6058</name>
</trkpt>
<trkpt lat="48.932995" lon="8.670522">
<ele>361.0</ele>
<speed>1.25</speed>
<course>295.4</course>
<desc>Speed 4.5 km/h Distance 10.03 km</desc>
<time>2010-10-24T12:14:13.31</time>
<name>6059</name>
</trkpt>
<trkpt lat="48.933003" lon="8.670495">
<ele>361.5</ele>
<speed>1.47</speed>
<course>236.9</course>
<desc>Speed 5.3 km/h Distance 10.03 km</desc>
<time>2010-10-24T12:14:14.31</time>
<name>6060</name>
</trkpt>
<trkpt lat="48.932993" lon="8.670472">
<ele>361.5</ele>
<speed>2.04</speed>
<course>346.8</course>
<desc>Speed 7.3 km/h Distance 10.03 km</desc>
<time>2010-10-24T12:14:15.31</time>
<name>6061</name>
</trkpt>
<trkpt lat="48.933017" lon="8.670463">
<ele>361.5</ele>
<speed>1.95</speed>
<course>357.9</course>
<desc>Speed 7.0 km/h Distance 10.03 km</desc>
<time>2010-10-24T12:14:16.30</time>
<name>6062</name>
</trkpt>
<trkpt lat="48.933078" lon="8.670460">
<ele>361.5</ele>
<speed>0.74</speed>
<course>319.8</course>
<desc>Speed 2.7 km/h Distance 10.04 km</desc>
<time>2010-10-24T12:14:18.29</time>
<name>6063</name>
</trkpt>
<trkpt lat="48.933090" lon="8.670445">
<ele>361.5</ele>
<speed>1.00</speed>
<course>343.3</course>
<desc>Speed 3.6 km/h Distance 10.04 km</desc>
<time>2010-10-24T12:14:19.28</time>
<name>6064</name>
</trkpt>
<trkpt lat="48.933148" lon="8.670418">
<ele>359.5</ele>
<speed>1.71</speed>
<course>339.7</course>
<desc>Speed 6.2 km/h Distance 10.05 km</desc>
<time>2010-10-24T12:14:21.28</time>
<name>6065</name>
</trkpt>
<trkpt lat="48.933175" lon="8.670403">
<ele>359.5</ele>
<speed>0.86</speed>
<course>335.6</course>
<desc>Speed 3.1 km/h Distance 10.05 km</desc>
<time>2010-10-24T12:14:22.28</time>
<name>6066</name>
</trkpt>
<trkpt lat="48.933202" lon="8.670385">
<ele>359.0</ele>
<speed>3.06</speed>
<course>230.7</course>
<desc>Speed 11.0 km/h Distance 10.05 km</desc>
<time>2010-10-24T12:14:24.27</time>
<name>6067</name>
</trkpt>
<trkpt lat="48.933190" lon="8.670363">
<ele>359.0</ele>
<speed>2.34</speed>
<course>315.5</course>
<desc>Speed 8.4 km/h Distance 10.06 km</desc>
<time>2010-10-24T12:14:25.27</time>
<name>6068</name>
</trkpt>
<trkpt lat="48.933200" lon="8.670348">
<ele>358.5</ele>
<speed>0.70</speed>
<course>337.7</course>
<desc>Speed 2.5 km/h Distance 10.06 km</desc>
<time>2010-10-24T12:14:26.27</time>
<name>6069</name>
</trkpt>
<trkpt lat="48.933213" lon="8.670340">
<ele>358.5</ele>
<speed>0.62</speed>
<course>350.2</course>
<desc>Speed 2.2 km/h Distance 10.06 km</desc>
<time>2010-10-24T12:14:27.26</time>
<name>6070</name>
</trkpt>
<trkpt lat="48.933277" lon="8.670323">
<ele>358.0</ele>
<speed>1.52</speed>
<course>354.1</course>
<desc>Speed 5.5 km/h Distance 10.07 km</desc>
<time>2010-10-24T12:14:29.25</time>
<name>6071</name>
</trkpt>
<trkpt lat="48.933340" lon="8.670313">
<ele>356.0</ele>
<speed>0.99</speed>
<course>301.4</course>
<desc>Speed 3.6 km/h Distance 10.07 km</desc>
<time>2010-10-24T12:14:31.25</time>
<name>6072</name>
</trkpt>
<trkpt lat="48.933347" lon="8.670297">
<ele>356.5</ele>
<speed>0.68</speed>
<course>277.9</course>
<desc>Speed 2.4 km/h Distance 10.08 km</desc>
<time>2010-10-24T12:14:32.25</time>
<name>6073</name>
</trkpt>
<trkpt lat="48.933348" lon="8.670278">
<ele>356.5</ele>
<speed>1.08</speed>
<course>302.9</course>
<desc>Speed 3.9 km/h Distance 10.08 km</desc>
<time>2010-10-24T12:14:33.24</time>
<name>6074</name>
</trkpt>
<trkpt lat="48.933353" lon="8.670267">
<ele>355.5</ele>
<speed>0.79</speed>
<course>299.7</course>
<desc>Speed 2.8 km/h Distance 10.08 km</desc>
<time>2010-10-24T12:14:34.27</time>
<name>6075</name>
</trkpt>
<trkpt lat="48.933358" lon="8.670253">
<ele>356.0</ele>
<speed>0.62</speed>
<course>214.8</course>
<desc>Speed 2.2 km/h Distance 10.08 km</desc>
<time>2010-10-24T12:14:35.23</time>
<name>6076</name>
</trkpt>
<trkpt lat="48.933302" lon="8.670193">
<ele>356.5</ele>
<speed>3.98</speed>
<course>217.2</course>
<desc>Speed 14.3 km/h Distance 10.09 km</desc>
<time>2010-10-24T12:14:37.22</time>
<name>6077</name>
</trkpt>
<trkpt lat="48.933280" lon="8.670168">
<ele>357.0</ele>
<speed>2.53</speed>
<course>346.4</course>
<desc>Speed 9.1 km/h Distance 10.09 km</desc>
<time>2010-10-24T12:14:38.22</time>
<name>6078</name>
</trkpt>
<trkpt lat="48.933298" lon="8.670162">
<ele>357.0</ele>
<speed>1.33</speed>
<course>270.0</course>
<desc>Speed 4.8 km/h Distance 10.09 km</desc>
<time>2010-10-24T12:14:39.22</time>
<name>6079</name>
</trkpt>
<trkpt lat="48.933298" lon="8.670143">
<ele>357.5</ele>
<speed>1.32</speed>
<course>223.5</course>
<desc>Speed 4.8 km/h Distance 10.09 km</desc>
<time>2010-10-24T12:14:40.21</time>
<name>6080</name>
</trkpt>
<trkpt lat="48.933283" lon="8.670122">
<ele>357.5</ele>
<speed>2.67</speed>
<course>286.9</course>
<desc>Speed 9.6 km/h Distance 10.10 km</desc>
<time>2010-10-24T12:14:41.21</time>
<name>6081</name>
</trkpt>
<trkpt lat="48.933287" lon="8.670105">
<ele>358.0</ele>
<speed>0.93</speed>
<course>318.8</course>
<desc>Speed 3.3 km/h Distance 10.10 km</desc>
<time>2010-10-24T12:14:42.21</time>
<name>6082</name>
</trkpt>
<trkpt lat="48.933297" lon="8.670092">
<ele>358.5</ele>
<speed>0.95</speed>
<course>335.5</course>
<desc>Speed 3.4 km/h Distance 10.10 km</desc>
<time>2010-10-24T12:14:43.20</time>
<name>6083</name>
</trkpt>
<trkpt lat="48.933318" lon="8.670077">
<ele>359.0</ele>
<speed>1.29</speed>
<course>315.3</course>
<desc>Speed 4.6 km/h Distance 10.10 km</desc>
<time>2010-10-24T12:14:44.19</time>
<name>6084</name>
</trkpt>
<trkpt lat="48.933328" lon="8.670062">
<ele>359.0</ele>
<speed>1.30</speed>
<course>211.5</course>
<desc>Speed 4.7 km/h Distance 10.10 km</desc>
<time>2010-10-24T12:14:45.19</time>
<name>6085</name>
</trkpt>
<trkpt lat="48.933303" lon="8.670038">
<ele>359.0</ele>
<speed>3.00</speed>
<course>221.8</course>
<desc>Speed 10.8 km/h Distance 10.11 km</desc>
<time>2010-10-24T12:14:46.19</time>
<name>6086</name>
</trkpt>
<trkpt lat="48.933285" lon="8.670013">
<ele>359.5</ele>
<speed>3.04</speed>
<course>211.9</course>
<desc>Speed 10.9 km/h Distance 10.11 km</desc>
<time>2010-10-24T12:14:47.19</time>
<name>6087</name>
</trkpt>
<trkpt lat="48.933253" lon="8.669983">
<ele>360.0</ele>
<speed>4.38</speed>
<course>321.2</course>
<desc>Speed 15.8 km/h Distance 10.11 km</desc>
<time>2010-10-24T12:14:48.19</time>
<name>6088</name>
</trkpt>
<trkpt lat="48.933283" lon="8.669947">
<ele>360.0</ele>
<speed>1.09</speed>
<course>296.9</course>
<desc>Speed 3.9 km/h Distance 10.12 km</desc>
<time>2010-10-24T12:14:50.17</time>
<name>6089</name>
</trkpt>
<trkpt lat="48.933288" lon="8.669932">
<ele>360.0</ele>
<speed>0.99</speed>
<course>316.8</course>
<desc>Speed 3.6 km/h Distance 10.12 km</desc>
<time>2010-10-24T12:14:51.17</time>
<name>6090</name>
</trkpt>
<trkpt lat="48.933300" lon="8.669915">
<ele>360.5</ele>
<speed>1.00</speed>
<course>329.7</course>
<desc>Speed 3.6 km/h Distance 10.12 km</desc>
<time>2010-10-24T12:14:52.16</time>
<name>6091</name>
</trkpt>
<trkpt lat="48.933315" lon="8.669902">
<ele>360.0</ele>
<speed>1.01</speed>
<course>326.8</course>
<desc>Speed 3.6 km/h Distance 10.12 km</desc>
<time>2010-10-24T12:14:53.16</time>
<name>6092</name>
</trkpt>
<trkpt lat="48.933325" lon="8.669892">
<ele>360.0</ele>
<speed>0.85</speed>
<course>248.3</course>
<desc>Speed 3.1 km/h Distance 10.12 km</desc>
<time>2010-10-24T12:14:54.16</time>
<name>6093</name>
</trkpt>
<trkpt lat="48.933315" lon="8.669853">
<ele>360.5</ele>
<speed>0.79</speed>
<course>331.8</course>
<desc>Speed 2.8 km/h Distance 10.13 km</desc>
<time>2010-10-24T12:14:56.15</time>
<name>6094</name>
</trkpt>
<trkpt lat="48.933333" lon="8.669838">
<ele>360.5</ele>
<speed>0.79</speed>
<course>333.4</course>
<desc>Speed 2.8 km/h Distance 10.13 km</desc>
<time>2010-10-24T12:14:57.14</time>
<name>6095</name>
</trkpt>
<trkpt lat="48.933368" lon="8.669812">
<ele>360.5</ele>
<speed>0.94</speed>
<course>0.8</course>
<desc>Speed 3.4 km/h Distance 10.13 km</desc>
<time>2010-10-24T12:14:59.13</time>
<name>6096</name>
</trkpt>
<trkpt lat="48.933533" lon="8.669815">
<ele>360.5</ele>
<speed>0.68</speed>
<course>209.2</course>
<desc>Speed 2.4 km/h Distance 10.15 km</desc>
<time>2010-10-24T12:15:02.32</time>
<name>6097</name>
</trkpt>
<trkpt lat="48.933433" lon="8.669730">
<ele>360.5</ele>
<speed>4.23</speed>
<course>299.0</course>
<desc>Speed 15.2 km/h Distance 10.16 km</desc>
<time>2010-10-24T12:15:05.32</time>
<name>6098</name>
</trkpt>
<trkpt lat="48.933460" lon="8.669657">
<ele>361.0</ele>
<speed>3.22</speed>
<course>355.8</course>
<desc>Speed 11.6 km/h Distance 10.17 km</desc>
<time>2010-10-24T12:15:07.31</time>
<name>6099</name>
</trkpt>
<trkpt lat="48.933610" lon="8.669640">
<ele>360.5</ele>
<speed>0.57</speed>
<course>354.8</course>
<desc>Speed 2.1 km/h Distance 10.19 km</desc>
<time>2010-10-24T12:15:10.31</time>
<name>6100</name>
</trkpt>
<trkpt lat="48.933670" lon="8.669632">
<ele>360.0</ele>
<speed>1.50</speed>
<course>357.4</course>
<desc>Speed 5.4 km/h Distance 10.19 km</desc>
<time>2010-10-24T12:15:12.30</time>
<name>6101</name>
</trkpt>
<trkpt lat="48.933742" lon="8.669627">
<ele>360.0</ele>
<speed>0.81</speed>
<course>358.2</course>
<desc>Speed 2.9 km/h Distance 10.20 km</desc>
<time>2010-10-24T12:15:14.30</time>
<name>6102</name>
</trkpt>
<trkpt lat="48.933812" lon="8.669623">
<ele>358.5</ele>
<speed>1.89</speed>
<course>347.0</course>
<desc>Speed 6.8 km/h Distance 10.21 km</desc>
<time>2010-10-24T12:15:16.29</time>
<name>6103</name>
</trkpt>
<trkpt lat="48.933840" lon="8.669613">
<ele>358.5</ele>
<speed>1.25</speed>
<course>223.5</course>
<desc>Speed 4.5 km/h Distance 10.21 km</desc>
<time>2010-10-24T12:15:17.29</time>
<name>6104</name>
</trkpt>
<trkpt lat="48.933825" lon="8.669592">
<ele>359.0</ele>
<speed>2.43</speed>
<course>270.0</course>
<desc>Speed 8.7 km/h Distance 10.21 km</desc>
<time>2010-10-24T12:15:18.28</time>
<name>6105</name>
</trkpt>
<trkpt lat="48.933825" lon="8.669575">
<ele>359.0</ele>
<speed>0.95</speed>
<course>349.1</course>
<desc>Speed 3.4 km/h Distance 10.22 km</desc>
<time>2010-10-24T12:15:19.28</time>
<name>6106</name>
</trkpt>
<trkpt lat="48.933882" lon="8.669558">
<ele>357.5</ele>
<speed>1.20</speed>
<course>335.6</course>
<desc>Speed 4.3 km/h Distance 10.22 km</desc>
<time>2010-10-24T12:15:21.28</time>
<name>6107</name>
</trkpt>
<trkpt lat="48.933903" lon="8.669543">
<ele>357.5</ele>
<speed>1.33</speed>
<course>330.6</course>
<desc>Speed 4.8 km/h Distance 10.22 km</desc>
<time>2010-10-24T12:15:22.27</time>
<name>6108</name>
</trkpt>
<trkpt lat="48.933915" lon="8.669533">
<ele>357.5</ele>
<speed>1.08</speed>
<course>346.8</course>
<desc>Speed 3.9 km/h Distance 10.23 km</desc>
<time>2010-10-24T12:15:23.27</time>
<name>6109</name>
</trkpt>
<trkpt lat="48.933938" lon="8.669525">
<ele>355.5</ele>
<speed>1.90</speed>
<course>293.5</course>
<desc>Speed 6.8 km/h Distance 10.23 km</desc>
<time>2010-10-24T12:15:24.27</time>
<name>6110</name>
</trkpt>
<trkpt lat="48.933942" lon="8.669513">
<ele>356.0</ele>
<speed>0.68</speed>
<course>310.1</course>
<desc>Speed 2.4 km/h Distance 10.23 km</desc>
<time>2010-10-24T12:15:25.27</time>
<name>6111</name>
</trkpt>
<trkpt lat="48.933950" lon="8.669498">
<ele>356.0</ele>
<speed>1.14</speed>
<course>322.5</course>
<desc>Speed 4.1 km/h Distance 10.23 km</desc>
<time>2010-10-24T12:15:26.26</time>
<name>6112</name>
</trkpt>
<trkpt lat="48.933960" lon="8.669487">
<ele>356.0</ele>
<speed>1.23</speed>
<course>317.4</course>
<desc>Speed 4.4 km/h Distance 10.23 km</desc>
<time>2010-10-24T12:15:27.26</time>
<name>6113</name>
</trkpt>
<trkpt lat="48.933968" lon="8.669475">
<ele>356.0</ele>
<speed>0.92</speed>
<course>323.6</course>
<desc>Speed 3.3 km/h Distance 10.23 km</desc>
<time>2010-10-24T12:15:28.26</time>
<name>6114</name>
</trkpt>
<trkpt lat="48.933982" lon="8.669460">
<ele>356.0</ele>
<speed>0.89</speed>
<course>312.4</course>
<desc>Speed 3.2 km/h Distance 10.24 km</desc>
<time>2010-10-24T12:15:29.25</time>
<name>6115</name>
</trkpt>
<trkpt lat="48.933992" lon="8.669443">
<ele>356.5</ele>
<speed>0.74</speed>
<course>270.0</course>
<desc>Speed 2.7 km/h Distance 10.24 km</desc>
<time>2010-10-24T12:15:30.25</time>
<name>6116</name>
</trkpt>
<trkpt lat="48.933992" lon="8.669440">
<ele>356.5</ele>
<speed>0.33</speed>
<course>336.3</course>
<desc>Speed 1.2 km/h Distance 10.24 km</desc>
<time>2010-10-24T12:15:31.25</time>
<name>6117</name>
</trkpt>
<trkpt lat="48.934007" lon="8.669430">
<ele>356.0</ele>
<speed>1.51</speed>
<course>319.8</course>
<desc>Speed 5.4 km/h Distance 10.24 km</desc>
<time>2010-10-24T12:15:32.24</time>
<name>6118</name>
</trkpt>
<trkpt lat="48.934018" lon="8.669415">
<ele>356.5</ele>
<speed>1.42</speed>
<course>228.4</course>
<desc>Speed 5.1 km/h Distance 10.24 km</desc>
<time>2010-10-24T12:15:33.24</time>
<name>6119</name>
</trkpt>
<trkpt lat="48.934007" lon="8.669395">
<ele>356.5</ele>
<speed>2.00</speed>
<course>270.0</course>
<desc>Speed 7.2 km/h Distance 10.24 km</desc>
<time>2010-10-24T12:15:34.25</time>
<name>6120</name>
</trkpt>
<trkpt lat="48.934007" lon="8.669377">
<ele>357.0</ele>
<speed>0.95</speed>
<course>301.3</course>
<desc>Speed 3.4 km/h Distance 10.24 km</desc>
<time>2010-10-24T12:15:35.26</time>
<name>6121</name>
</trkpt>
<trkpt lat="48.934017" lon="8.669352">
<ele>357.0</ele>
<speed>0.91</speed>
<course>279.6</course>
<desc>Speed 3.3 km/h Distance 10.25 km</desc>
<time>2010-10-24T12:15:36.22</time>
<name>6122</name>
</trkpt>
<trkpt lat="48.934020" lon="8.669322">
<ele>358.0</ele>
<speed>0.83</speed>
<course>295.4</course>
<desc>Speed 3.0 km/h Distance 10.25 km</desc>
<time>2010-10-24T12:15:37.21</time>
<name>6123</name>
</trkpt>
<trkpt lat="48.934028" lon="8.669295">
<ele>359.5</ele>
<speed>1.00</speed>
<course>274.1</course>
<desc>Speed 3.6 km/h Distance 10.25 km</desc>
<time>2010-10-24T12:15:38.21</time>
<name>6124</name>
</trkpt>
<trkpt lat="48.934030" lon="8.669260">
<ele>361.0</ele>
<speed>0.95</speed>
<course>329.2</course>
<desc>Speed 3.4 km/h Distance 10.25 km</desc>
<time>2010-10-24T12:15:39.20</time>
<name>6125</name>
</trkpt>
<trkpt lat="48.934048" lon="8.669243">
<ele>360.5</ele>
<speed>1.23</speed>
<course>262.8</course>
<desc>Speed 4.4 km/h Distance 10.26 km</desc>
<time>2010-10-24T12:15:40.19</time>
<name>6126</name>
</trkpt>
<trkpt lat="48.934047" lon="8.669223">
<ele>360.5</ele>
<speed>0.81</speed>
<course>334.8</course>
<desc>Speed 2.9 km/h Distance 10.26 km</desc>
<time>2010-10-24T12:15:41.20</time>
<name>6127</name>
</trkpt>
<trkpt lat="48.934058" lon="8.669215">
<ele>360.5</ele>
<speed>0.50</speed>
<course>296.9</course>
<desc>Speed 1.8 km/h Distance 10.26 km</desc>
<time>2010-10-24T12:15:42.20</time>
<name>6128</name>
</trkpt>
<trkpt lat="48.934063" lon="8.669200">
<ele>360.5</ele>
<speed>0.67</speed>
<course>307.2</course>
<desc>Speed 2.4 km/h Distance 10.26 km</desc>
<time>2010-10-24T12:15:43.19</time>
<name>6129</name>
</trkpt>
<trkpt lat="48.934070" lon="8.669187">
<ele>361.0</ele>
<speed>0.77</speed>
<course>255.8</course>
<desc>Speed 2.8 km/h Distance 10.26 km</desc>
<time>2010-10-24T12:15:44.18</time>
<name>6130</name>
</trkpt>
<trkpt lat="48.934068" lon="8.669177">
<ele>361.5</ele>
<speed>0.52</speed>
<course>216.2</course>
<desc>Speed 1.9 km/h Distance 10.26 km</desc>
<time>2010-10-24T12:15:45.18</time>
<name>6131</name>
</trkpt>
<trkpt lat="48.934053" lon="8.669160">
<ele>361.5</ele>
<speed>2.52</speed>
<course>243.1</course>
<desc>Speed 9.1 km/h Distance 10.26 km</desc>
<time>2010-10-24T12:15:46.18</time>
<name>6132</name>
</trkpt>
<trkpt lat="48.934047" lon="8.669140">
<ele>362.0</ele>
<speed>0.80</speed>
<course>295.7</course>
<desc>Speed 2.9 km/h Distance 10.27 km</desc>
<time>2010-10-24T12:15:48.17</time>
<name>6133</name>
</trkpt>
<trkpt lat="48.934057" lon="8.669108">
<ele>363.5</ele>
<speed>0.66</speed>
<course>0.0</course>
<desc>Speed 2.4 km/h Distance 10.27 km</desc>
<time>2010-10-24T12:15:51.17</time>
<name>6134</name>
</trkpt>
<trkpt lat="48.934068" lon="8.669108">
<ele>363.5</ele>
<speed>0.93</speed>
<course>355.3</course>
<desc>Speed 3.3 km/h Distance 10.27 km</desc>
<time>2010-10-24T12:15:52.16</time>
<name>6135</name>
</trkpt>
<trkpt lat="48.934080" lon="8.669107">
<ele>363.5</ele>
<speed>0.76</speed>
<course>2.8</course>
<desc>Speed 2.7 km/h Distance 10.27 km</desc>
<time>2010-10-24T12:15:53.16</time>
<name>6136</name>
</trkpt>
<trkpt lat="48.934097" lon="8.669107">
<ele>364.0</ele>
<speed>0.62</speed>
<course>4.1</course>
<desc>Speed 2.2 km/h Distance 10.27 km</desc>
<time>2010-10-24T12:15:54.16</time>
<name>6137</name>
</trkpt>
<trkpt lat="48.934113" lon="8.669108">
<ele>364.5</ele>
<speed>0.50</speed>
<course>356.4</course>
<desc>Speed 1.8 km/h Distance 10.27 km</desc>
<time>2010-10-24T12:15:55.16</time>
<name>6138</name>
</trkpt>
<trkpt lat="48.934185" lon="8.669102">
<ele>365.5</ele>
<speed>0.36</speed>
<course>347.4</course>
<desc>Speed 1.3 km/h Distance 10.28 km</desc>
<time>2010-10-24T12:16:00.15</time>
<name>6139</name>
</trkpt>
<trkpt lat="48.934190" lon="8.669100">
<ele>366.0</ele>
<speed>0.41</speed>
<course>337.8</course>
<desc>Speed 1.5 km/h Distance 10.28 km</desc>
<time>2010-10-24T12:16:01.14</time>
<name>6140</name>
</trkpt>
<trkpt lat="48.934195" lon="8.669097">
<ele>366.5</ele>
<speed>0.37</speed>
<course>358.8</course>
<desc>Speed 1.3 km/h Distance 10.28 km</desc>
<time>2010-10-24T12:16:03.14</time>
<name>6141</name>
</trkpt>
<trkpt lat="48.934208" lon="8.669095">
<ele>367.0</ele>
<speed>0.40</speed>
<course>348.2</course>
<desc>Speed 1.4 km/h Distance 10.29 km</desc>
<time>2010-10-24T12:16:04.13</time>
<name>6142</name>
</trkpt>
<trkpt lat="48.934245" lon="8.669083">
<ele>369.0</ele>
<speed>0.75</speed>
<course>12.2</course>
<desc>Speed 2.7 km/h Distance 10.29 km</desc>
<time>2010-10-24T12:16:06.13</time>
<name>6143</name>
</trkpt>
<trkpt lat="48.934260" lon="8.669088">
<ele>368.5</ele>
<speed>0.83</speed>
<course>351.9</course>
<desc>Speed 3.0 km/h Distance 10.29 km</desc>
<time>2010-10-24T12:16:07.15</time>
<name>6144</name>
</trkpt>
<trkpt lat="48.934275" lon="8.669085">
<ele>369.0</ele>
<speed>0.82</speed>
<course>356.8</course>
<desc>Speed 3.0 km/h Distance 10.29 km</desc>
<time>2010-10-24T12:16:08.12</time>
<name>6145</name>
</trkpt>
<trkpt lat="48.934297" lon="8.669083">
<ele>369.5</ele>
<speed>1.02</speed>
<course>348.6</course>
<desc>Speed 3.7 km/h Distance 10.30 km</desc>
<time>2010-10-24T12:16:09.12</time>
<name>6146</name>
</trkpt>
<trkpt lat="48.934318" lon="8.669077">
<ele>370.0</ele>
<speed>0.75</speed>
<course>334.4</course>
<desc>Speed 2.7 km/h Distance 10.30 km</desc>
<time>2010-10-24T12:16:10.11</time>
<name>6147</name>
</trkpt>
<trkpt lat="48.934325" lon="8.669072">
<ele>370.5</ele>
<speed>0.67</speed>
<course>299.0</course>
<desc>Speed 2.4 km/h Distance 10.30 km</desc>
<time>2010-10-24T12:16:11.11</time>
<name>6148</name>
</trkpt>
<trkpt lat="48.934332" lon="8.669053">
<ele>371.5</ele>
<speed>0.43</speed>
<course>4.4</course>
<desc>Speed 1.5 km/h Distance 10.30 km</desc>
<time>2010-10-24T12:16:15.10</time>
<name>6149</name>
</trkpt>
<trkpt lat="48.934342" lon="8.669055">
<ele>372.0</ele>
<speed>0.68</speed>
<course>26.4</course>
<desc>Speed 2.4 km/h Distance 10.30 km</desc>
<time>2010-10-24T12:16:16.09</time>
<name>6150</name>
</trkpt>
<trkpt lat="48.934348" lon="8.669060">
<ele>372.5</ele>
<speed>1.25</speed>
<course>14.0</course>
<desc>Speed 4.5 km/h Distance 10.30 km</desc>
<time>2010-10-24T12:16:17.09</time>
<name>6151</name>
</trkpt>
<trkpt lat="48.934362" lon="8.669065">
<ele>372.5</ele>
<speed>0.54</speed>
<course>33.2</course>
<desc>Speed 1.9 km/h Distance 10.30 km</desc>
<time>2010-10-24T12:16:18.09</time>
<name>6152</name>
</trkpt>
<trkpt lat="48.934367" lon="8.669070">
<ele>372.0</ele>
<speed>0.46</speed>
<course>9.8</course>
<desc>Speed 1.7 km/h Distance 10.30 km</desc>
<time>2010-10-24T12:16:19.09</time>
<name>6153</name>
</trkpt>
<trkpt lat="48.934398" lon="8.669078">
<ele>372.5</ele>
<speed>0.86</speed>
<course>13.1</course>
<desc>Speed 3.1 km/h Distance 10.31 km</desc>
<time>2010-10-24T12:16:21.08</time>
<name>6154</name>
</trkpt>
<trkpt lat="48.934427" lon="8.669088">
<ele>373.5</ele>
<speed>0.62</speed>
<course>353.7</course>
<desc>Speed 2.2 km/h Distance 10.31 km</desc>
<time>2010-10-24T12:16:23.07</time>
<name>6155</name>
</trkpt>
<trkpt lat="48.934438" lon="8.669087">
<ele>374.0</ele>
<speed>0.34</speed>
<course>169.7</course>
<desc>Speed 1.2 km/h Distance 10.31 km</desc>
<time>2010-10-24T12:16:24.06</time>
<name>6156</name>
</trkpt>
<trkpt lat="48.934432" lon="8.669088">
<ele>374.0</ele>
<speed>1.51</speed>
<course>14.1</course>
<desc>Speed 5.4 km/h Distance 10.31 km</desc>
<time>2010-10-24T12:16:25.06</time>
<name>6157</name>
</trkpt>
<trkpt lat="48.934467" lon="8.669102">
<ele>374.0</ele>
<speed>0.82</speed>
<course>90.0</course>
<desc>Speed 3.0 km/h Distance 10.32 km</desc>
<time>2010-10-24T12:16:28.06</time>
<name>6158</name>
</trkpt>
<trkpt lat="48.934467" lon="8.669107">
<ele>374.5</ele>
<speed>0.49</speed>
<course>21.0</course>
<desc>Speed 1.8 km/h Distance 10.32 km</desc>
<time>2010-10-24T12:16:29.06</time>
<name>6159</name>
</trkpt>
<trkpt lat="48.934487" lon="8.669118">
<ele>374.5</ele>
<speed>0.87</speed>
<course>16.0</course>
<desc>Speed 3.1 km/h Distance 10.32 km</desc>
<time>2010-10-24T12:16:30.06</time>
<name>6160</name>
</trkpt>
<trkpt lat="48.934498" lon="8.669123">
<ele>374.5</ele>
<speed>0.66</speed>
<course>20.2</course>
<desc>Speed 2.4 km/h Distance 10.32 km</desc>
<time>2010-10-24T12:16:31.05</time>
<name>6161</name>
</trkpt>
<trkpt lat="48.934540" lon="8.669147">
<ele>375.0</ele>
<speed>0.81</speed>
<course>17.2</course>
<desc>Speed 2.9 km/h Distance 10.33 km</desc>
<time>2010-10-24T12:16:33.05</time>
<name>6162</name>
</trkpt>
<trkpt lat="48.934600" lon="8.669175">
<ele>375.5</ele>
<speed>0.81</speed>
<course>12.3</course>
<desc>Speed 2.9 km/h Distance 10.33 km</desc>
<time>2010-10-24T12:16:35.04</time>
<name>6163</name>
</trkpt>
<trkpt lat="48.934730" lon="8.669218">
<ele>377.0</ele>
<speed>0.72</speed>
<course>16.0</course>
<desc>Speed 2.6 km/h Distance 10.35 km</desc>
<time>2010-10-24T12:16:38.30</time>
<name>6164</name>
</trkpt>
<trkpt lat="48.934742" lon="8.669223">
<ele>377.0</ele>
<speed>0.82</speed>
<course>180.0</course>
<desc>Speed 3.0 km/h Distance 10.35 km</desc>
<time>2010-10-24T12:16:39.30</time>
<name>6165</name>
</trkpt>
<trkpt lat="48.934740" lon="8.669223">
<ele>377.0</ele>
<speed>1.08</speed>
<course>16.0</course>
<desc>Speed 3.9 km/h Distance 10.35 km</desc>
<time>2010-10-24T12:16:40.29</time>
<name>6166</name>
</trkpt>
<trkpt lat="48.934747" lon="8.669227">
<ele>377.5</ele>
<speed>0.41</speed>
<course>12.6</course>
<desc>Speed 1.5 km/h Distance 10.35 km</desc>
<time>2010-10-24T12:16:41.29</time>
<name>6167</name>
</trkpt>
<trkpt lat="48.934752" lon="8.669228">
<ele>377.5</ele>
<speed>0.34</speed>
<course>14.9</course>
<desc>Speed 1.2 km/h Distance 10.35 km</desc>
<time>2010-10-24T12:16:42.29</time>
<name>6168</name>
</trkpt>
<trkpt lat="48.934768" lon="8.669235">
<ele>378.0</ele>
<speed>1.02</speed>
<course>10.8</course>
<desc>Speed 3.7 km/h Distance 10.35 km</desc>
<time>2010-10-24T12:16:43.28</time>
<name>6169</name>
</trkpt>
<trkpt lat="48.934785" lon="8.669240">
<ele>378.5</ele>
<speed>0.34</speed>
<course>11.7</course>
<desc>Speed 1.2 km/h Distance 10.35 km</desc>
<time>2010-10-24T12:16:44.28</time>
<name>6170</name>
</trkpt>
<trkpt lat="48.934848" lon="8.669260">
<ele>379.0</ele>
<speed>1.11</speed>
<course>14.1</course>
<desc>Speed 4.0 km/h Distance 10.36 km</desc>
<time>2010-10-24T12:16:46.28</time>
<name>6171</name>
</trkpt>
<trkpt lat="48.934927" lon="8.669290">
<ele>379.5</ele>
<speed>0.77</speed>
<course>14.4</course>
<desc>Speed 2.8 km/h Distance 10.37 km</desc>
<time>2010-10-24T12:16:48.27</time>
<name>6172</name>
</trkpt>
<trkpt lat="48.934995" lon="8.669317">
<ele>380.0</ele>
<speed>3.11</speed>
<course>63.1</course>
<desc>Speed 11.2 km/h Distance 10.38 km</desc>
<time>2010-10-24T12:16:50.27</time>
<name>6173</name>
</trkpt>
<trkpt lat="48.935000" lon="8.669332">
<ele>380.0</ele>
<speed>0.40</speed>
<course>12.6</course>
<desc>Speed 1.4 km/h Distance 10.38 km</desc>
<time>2010-10-24T12:16:52.26</time>
<name>6174</name>
</trkpt>
<trkpt lat="48.935015" lon="8.669337">
<ele>380.0</ele>
<speed>0.38</speed>
<course>12.6</course>
<desc>Speed 1.4 km/h Distance 10.38 km</desc>
<time>2010-10-24T12:16:53.26</time>
<name>6175</name>
</trkpt>
<trkpt lat="48.935022" lon="8.669338">
<ele>380.0</ele>
<speed>0.49</speed>
<course>34.1</course>
<desc>Speed 1.8 km/h Distance 10.38 km</desc>
<time>2010-10-24T12:16:54.26</time>
<name>6176</name>
</trkpt>
<trkpt lat="48.935027" lon="8.669343">
<ele>380.0</ele>
<speed>0.36</speed>
<course>16.6</course>
<desc>Speed 1.3 km/h Distance 10.38 km</desc>
<time>2010-10-24T12:16:55.26</time>
<name>6177</name>
</trkpt>
<trkpt lat="48.935042" lon="8.669350">
<ele>380.5</ele>
<speed>1.08</speed>
<course>20.1</course>
<desc>Speed 3.9 km/h Distance 10.38 km</desc>
<time>2010-10-24T12:16:56.25</time>
<name>6178</name>
</trkpt>
<trkpt lat="48.935057" lon="8.669358">
<ele>380.5</ele>
<speed>0.76</speed>
<course>18.2</course>
<desc>Speed 2.7 km/h Distance 10.39 km</desc>
<time>2010-10-24T12:16:57.24</time>
<name>6179</name>
</trkpt>
<trkpt lat="48.935077" lon="8.669368">
<ele>380.5</ele>
<speed>1.03</speed>
<course>18.2</course>
<desc>Speed 3.7 km/h Distance 10.39 km</desc>
<time>2010-10-24T12:16:58.23</time>
<name>6180</name>
</trkpt>
<trkpt lat="48.935087" lon="8.669373">
<ele>380.5</ele>
<speed>1.04</speed>
<course>18.2</course>
<desc>Speed 3.7 km/h Distance 10.39 km</desc>
<time>2010-10-24T12:16:59.23</time>
<name>6181</name>
</trkpt>
<trkpt lat="48.935097" lon="8.669378">
<ele>380.5</ele>
<speed>0.70</speed>
<course>5.3</course>
<desc>Speed 2.5 km/h Distance 10.39 km</desc>
<time>2010-10-24T12:17:01.22</time>
<name>6182</name>
</trkpt>
<trkpt lat="48.935110" lon="8.669380">
<ele>380.5</ele>
<speed>0.73</speed>
<course>23.7</course>
<desc>Speed 2.6 km/h Distance 10.39 km</desc>
<time>2010-10-24T12:17:02.21</time>
<name>6183</name>
</trkpt>
<trkpt lat="48.935125" lon="8.669390">
<ele>380.5</ele>
<speed>0.85</speed>
<course>33.7</course>
<desc>Speed 3.1 km/h Distance 10.39 km</desc>
<time>2010-10-24T12:17:03.21</time>
<name>6184</name>
</trkpt>
<trkpt lat="48.935128" lon="8.669393">
<ele>380.5</ele>
<speed>0.50</speed>
<course>18.8</course>
<desc>Speed 1.8 km/h Distance 10.40 km</desc>
<time>2010-10-24T12:17:04.20</time>
<name>6185</name>
</trkpt>
<trkpt lat="48.935135" lon="8.669397">
<ele>381.0</ele>
<speed>0.68</speed>
<course>12.4</course>
<desc>Speed 2.4 km/h Distance 10.40 km</desc>
<time>2010-10-24T12:17:05.19</time>
<name>6186</name>
</trkpt>
<trkpt lat="48.935175" lon="8.669410">
<ele>381.0</ele>
<speed>1.25</speed>
<course>22.1</course>
<desc>Speed 4.5 km/h Distance 10.40 km</desc>
<time>2010-10-24T12:17:07.19</time>
<name>6187</name>
</trkpt>
<trkpt lat="48.935188" lon="8.669418">
<ele>381.0</ele>
<speed>1.25</speed>
<course>27.0</course>
<desc>Speed 4.5 km/h Distance 10.40 km</desc>
<time>2010-10-24T12:17:08.19</time>
<name>6188</name>
</trkpt>
<trkpt lat="48.935203" lon="8.669430">
<ele>381.5</ele>
<speed>1.37</speed>
<course>12.2</course>
<desc>Speed 4.9 km/h Distance 10.40 km</desc>
<time>2010-10-24T12:17:09.17</time>
<name>6189</name>
</trkpt>
<trkpt lat="48.935218" lon="8.669435">
<ele>381.5</ele>
<speed>0.87</speed>
<course>43.5</course>
<desc>Speed 3.1 km/h Distance 10.41 km</desc>
<time>2010-10-24T12:17:10.16</time>
<name>6190</name>
</trkpt>
<trkpt lat="48.935222" lon="8.669440">
<ele>382.0</ele>
<speed>0.68</speed>
<course>18.8</course>
<desc>Speed 2.4 km/h Distance 10.41 km</desc>
<time>2010-10-24T12:17:11.16</time>
<name>6191</name>
</trkpt>
<trkpt lat="48.935232" lon="8.669445">
<ele>382.0</ele>
<speed>0.82</speed>
<course>25.2</course>
<desc>Speed 3.0 km/h Distance 10.41 km</desc>
<time>2010-10-24T12:17:12.15</time>
<name>6192</name>
</trkpt>
<trkpt lat="48.935243" lon="8.669453">
<ele>382.0</ele>
<speed>1.14</speed>
<course>24.9</course>
<desc>Speed 4.1 km/h Distance 10.41 km</desc>
<time>2010-10-24T12:17:13.14</time>
<name>6193</name>
</trkpt>
<trkpt lat="48.935255" lon="8.669462">
<ele>382.0</ele>
<speed>0.88</speed>
<course>27.9</course>
<desc>Speed 3.2 km/h Distance 10.41 km</desc>
<time>2010-10-24T12:17:14.14</time>
<name>6194</name>
</trkpt>
<trkpt lat="48.935263" lon="8.669468">
<ele>382.0</ele>
<speed>1.00</speed>
<course>9.6</course>
<desc>Speed 3.6 km/h Distance 10.41 km</desc>
<time>2010-10-24T12:17:15.15</time>
<name>6195</name>
</trkpt>
<trkpt lat="48.935272" lon="8.669470">
<ele>382.0</ele>
<speed>0.68</speed>
<course>22.1</course>
<desc>Speed 2.4 km/h Distance 10.41 km</desc>
<time>2010-10-24T12:17:16.14</time>
<name>6196</name>
</trkpt>
<trkpt lat="48.935280" lon="8.669475">
<ele>382.5</ele>
<speed>0.62</speed>
<course>15.4</course>
<desc>Speed 2.2 km/h Distance 10.41 km</desc>
<time>2010-10-24T12:17:17.14</time>
<name>6197</name>
</trkpt>
<trkpt lat="48.935332" lon="8.669497">
<ele>382.5</ele>
<speed>2.04</speed>
<course>16.0</course>
<desc>Speed 7.3 km/h Distance 10.42 km</desc>
<time>2010-10-24T12:17:19.13</time>
<name>6198</name>
</trkpt>
<trkpt lat="48.935358" lon="8.669508">
<ele>382.5</ele>
<speed>1.86</speed>
<course>20.9</course>
<desc>Speed 6.7 km/h Distance 10.42 km</desc>
<time>2010-10-24T12:17:20.12</time>
<name>6199</name>
</trkpt>
<trkpt lat="48.935378" lon="8.669520">
<ele>382.5</ele>
<speed>1.12</speed>
<course>17.0</course>
<desc>Speed 4.0 km/h Distance 10.42 km</desc>
<time>2010-10-24T12:17:21.12</time>
<name>6200</name>
</trkpt>
<trkpt lat="48.935400" lon="8.669530">
<ele>383.0</ele>
<speed>0.62</speed>
<course>33.5</course>
<desc>Speed 2.2 km/h Distance 10.43 km</desc>
<time>2010-10-24T12:17:22.11</time>
<name>6201</name>
</trkpt>
<trkpt lat="48.935408" lon="8.669538">
<ele>383.0</ele>
<speed>0.95</speed>
<course>39.4</course>
<desc>Speed 3.4 km/h Distance 10.43 km</desc>
<time>2010-10-24T12:17:23.11</time>
<name>6202</name>
</trkpt>
<trkpt lat="48.935415" lon="8.669547">
<ele>383.0</ele>
<speed>0.68</speed>
<course>18.2</course>
<desc>Speed 2.4 km/h Distance 10.43 km</desc>
<time>2010-10-24T12:17:24.11</time>
<name>6203</name>
</trkpt>
<trkpt lat="48.935425" lon="8.669552">
<ele>383.0</ele>
<speed>0.46</speed>
<course>28.3</course>
<desc>Speed 1.7 km/h Distance 10.43 km</desc>
<time>2010-10-24T12:17:25.11</time>
<name>6204</name>
</trkpt>
<trkpt lat="48.935443" lon="8.669567">
<ele>383.0</ele>
<speed>1.49</speed>
<course>39.4</course>
<desc>Speed 5.4 km/h Distance 10.43 km</desc>
<time>2010-10-24T12:17:27.10</time>
<name>6205</name>
</trkpt>
<trkpt lat="48.935457" lon="8.669583">
<ele>383.0</ele>
<speed>1.69</speed>
<course>33.7</course>
<desc>Speed 6.1 km/h Distance 10.43 km</desc>
<time>2010-10-24T12:17:28.10</time>
<name>6206</name>
</trkpt>
<trkpt lat="48.935463" lon="8.669590">
<ele>383.5</ele>
<speed>1.38</speed>
<course>13.3</course>
<desc>Speed 5.0 km/h Distance 10.44 km</desc>
<time>2010-10-24T12:17:29.09</time>
<name>6207</name>
</trkpt>
<trkpt lat="48.935482" lon="8.669597">
<ele>383.5</ele>
<speed>1.12</speed>
<course>11.4</course>
<desc>Speed 4.0 km/h Distance 10.44 km</desc>
<time>2010-10-24T12:17:30.10</time>
<name>6208</name>
</trkpt>
<trkpt lat="48.935503" lon="8.669603">
<ele>383.5</ele>
<speed>1.14</speed>
<course>18.1</course>
<desc>Speed 4.1 km/h Distance 10.44 km</desc>
<time>2010-10-24T12:17:31.10</time>
<name>6209</name>
</trkpt>
<trkpt lat="48.935527" lon="8.669615">
<ele>383.5</ele>
<speed>1.90</speed>
<course>21.5</course>
<desc>Speed 6.8 km/h Distance 10.44 km</desc>
<time>2010-10-24T12:17:32.10</time>
<name>6210</name>
</trkpt>
<trkpt lat="48.935543" lon="8.669625">
<ele>383.5</ele>
<speed>1.62</speed>
<course>128.1</course>
<desc>Speed 5.8 km/h Distance 10.44 km</desc>
<time>2010-10-24T12:17:33.09</time>
<name>6211</name>
</trkpt>
<trkpt lat="48.935542" lon="8.669628">
<ele>384.0</ele>
<speed>0.41</speed>
<course>13.1</course>
<desc>Speed 1.5 km/h Distance 10.45 km</desc>
<time>2010-10-24T12:17:34.10</time>
<name>6212</name>
</trkpt>
<trkpt lat="48.935560" lon="8.669635">
<ele>384.0</ele>
<speed>2.10</speed>
<course>26.4</course>
<desc>Speed 7.6 km/h Distance 10.45 km</desc>
<time>2010-10-24T12:17:35.09</time>
<name>6213</name>
</trkpt>
<trkpt lat="48.935567" lon="8.669640">
<ele>384.0</ele>
<speed>1.37</speed>
<course>18.2</course>
<desc>Speed 4.9 km/h Distance 10.45 km</desc>
<time>2010-10-24T12:17:36.09</time>
<name>6214</name>
</trkpt>
<trkpt lat="48.935590" lon="8.669652">
<ele>384.0</ele>
<speed>2.95</speed>
<course>16.0</course>
<desc>Speed 10.6 km/h Distance 10.45 km</desc>
<time>2010-10-24T12:17:37.07</time>
<name>6215</name>
</trkpt>
<trkpt lat="48.935602" lon="8.669657">
<ele>384.0</ele>
<speed>1.28</speed>
<course>16.0</course>
<desc>Speed 4.6 km/h Distance 10.45 km</desc>
<time>2010-10-24T12:17:38.07</time>
<name>6216</name>
</trkpt>
<trkpt lat="48.935613" lon="8.669662">
<ele>384.5</ele>
<speed>1.00</speed>
<course>18.2</course>
<desc>Speed 3.6 km/h Distance 10.45 km</desc>
<time>2010-10-24T12:17:39.08</time>
<name>6217</name>
</trkpt>
<trkpt lat="48.935623" lon="8.669667">
<ele>384.5</ele>
<speed>1.00</speed>
<course>90.0</course>
<desc>Speed 3.6 km/h Distance 10.45 km</desc>
<time>2010-10-24T12:17:40.07</time>
<name>6218</name>
</trkpt>
<trkpt lat="48.935623" lon="8.669673">
<ele>384.5</ele>
<speed>0.50</speed>
<course>21.5</course>
<desc>Speed 1.8 km/h Distance 10.46 km</desc>
<time>2010-10-24T12:17:41.07</time>
<name>6219</name>
</trkpt>
<trkpt lat="48.935632" lon="8.669678">
<ele>384.5</ele>
<speed>0.86</speed>
<course>24.7</course>
<desc>Speed 3.1 km/h Distance 10.46 km</desc>
<time>2010-10-24T12:17:42.07</time>
<name>6220</name>
</trkpt>
<trkpt lat="48.935648" lon="8.669690">
<ele>384.5</ele>
<speed>1.08</speed>
<course>39.4</course>
<desc>Speed 3.9 km/h Distance 10.46 km</desc>
<time>2010-10-24T12:17:43.07</time>
<name>6221</name>
</trkpt>
<trkpt lat="48.935655" lon="8.669698">
<ele>385.0</ele>
<speed>0.88</speed>
<course>33.7</course>
<desc>Speed 3.2 km/h Distance 10.46 km</desc>
<time>2010-10-24T12:17:44.07</time>
<name>6222</name>
</trkpt>
<trkpt lat="48.935662" lon="8.669705">
<ele>385.0</ele>
<speed>1.32</speed>
<course>26.2</course>
<desc>Speed 4.8 km/h Distance 10.46 km</desc>
<time>2010-10-24T12:17:45.06</time>
<name>6223</name>
</trkpt>
<trkpt lat="48.935675" lon="8.669715">
<ele>385.0</ele>
<speed>1.27</speed>
<course>23.7</course>
<desc>Speed 4.6 km/h Distance 10.46 km</desc>
<time>2010-10-24T12:17:46.06</time>
<name>6224</name>
</trkpt>
<trkpt lat="48.935690" lon="8.669725">
<ele>385.0</ele>
<speed>0.44</speed>
<course>17.6</course>
<desc>Speed 1.6 km/h Distance 10.46 km</desc>
<time>2010-10-24T12:17:47.05</time>
<name>6225</name>
</trkpt>
<trkpt lat="48.935738" lon="8.669748">
<ele>385.5</ele>
<speed>0.40</speed>
<course>28.6</course>
<desc>Speed 1.4 km/h Distance 10.47 km</desc>
<time>2010-10-24T12:17:49.04</time>
<name>6226</name>
</trkpt>
<trkpt lat="48.935748" lon="8.669757">
<ele>385.5</ele>
<speed>0.87</speed>
<course>52.6</course>
<desc>Speed 3.1 km/h Distance 10.47 km</desc>
<time>2010-10-24T12:17:50.03</time>
<name>6227</name>
</trkpt>
<trkpt lat="48.935753" lon="8.669767">
<ele>386.0</ele>
<speed>1.12</speed>
<course>12.2</course>
<desc>Speed 4.0 km/h Distance 10.47 km</desc>
<time>2010-10-24T12:17:51.03</time>
<name>6228</name>
</trkpt>
<trkpt lat="48.935768" lon="8.669772">
<ele>386.0</ele>
<speed>0.76</speed>
<course>44.5</course>
<desc>Speed 2.7 km/h Distance 10.47 km</desc>
<time>2010-10-24T12:17:52.02</time>
<name>6229</name>
</trkpt>
<trkpt lat="48.935775" lon="8.669782">
<ele>386.0</ele>
<speed>0.94</speed>
<course>13.8</course>
<desc>Speed 3.4 km/h Distance 10.47 km</desc>
<time>2010-10-24T12:17:53.00</time>
<name>6230</name>
</trkpt>
<trkpt lat="48.935783" lon="8.669785">
<ele>386.0</ele>
<speed>0.58</speed>
<course>14.4</course>
<desc>Speed 2.1 km/h Distance 10.48 km</desc>
<time>2010-10-24T12:17:54.01</time>
<name>6231</name>
</trkpt>
<trkpt lat="48.935860" lon="8.669815">
<ele>386.5</ele>
<speed>3.02</speed>
<course>8.2</course>
<desc>Speed 10.9 km/h Distance 10.48 km</desc>
<time>2010-10-24T12:17:56.00</time>
<name>6232</name>
</trkpt>
<trkpt lat="48.935892" lon="8.669822">
<ele>387.0</ele>
<speed>1.33</speed>
<course>14.9</course>
<desc>Speed 4.8 km/h Distance 10.49 km</desc>
<time>2010-10-24T12:17:57.00</time>
<name>6233</name>
</trkpt>
<trkpt lat="48.935908" lon="8.669828">
<ele>387.0</ele>
<speed>1.62</speed>
<course>18.1</course>
<desc>Speed 5.8 km/h Distance 10.49 km</desc>
<time>2010-10-24T12:17:58.01</time>
<name>6234</name>
</trkpt>
<trkpt lat="48.935925" lon="8.669837">
<ele>387.0</ele>
<speed>1.71</speed>
<course>14.0</course>
<desc>Speed 6.2 km/h Distance 10.49 km</desc>
<time>2010-10-24T12:17:59.00</time>
<name>6235</name>
</trkpt>
<trkpt lat="48.935938" lon="8.669842">
<ele>387.0</ele>
<speed>1.36</speed>
<course>14.4</course>
<desc>Speed 4.9 km/h Distance 10.49 km</desc>
<time>2010-10-24T12:17:59.99</time>
<name>6236</name>
</trkpt>
<trkpt lat="48.935952" lon="8.669847">
<ele>387.0</ele>
<speed>1.11</speed>
<course>18.1</course>
<desc>Speed 4.0 km/h Distance 10.49 km</desc>
<time>2010-10-24T12:18:00.99</time>
<name>6237</name>
</trkpt>
<trkpt lat="48.935965" lon="8.669853">
<ele>387.0</ele>
<speed>1.22</speed>
<course>53.0</course>
<desc>Speed 4.4 km/h Distance 10.50 km</desc>
<time>2010-10-24T12:18:01.99</time>
<name>6238</name>
</trkpt>
<trkpt lat="48.935968" lon="8.669860">
<ele>387.0</ele>
<speed>0.50</speed>
<course>32.3</course>
<desc>Speed 1.8 km/h Distance 10.50 km</desc>
<time>2010-10-24T12:18:02.97</time>
<name>6239</name>
</trkpt>
<trkpt lat="48.935973" lon="8.669865">
<ele>387.0</ele>
<speed>0.37</speed>
<course>72.9</course>
<desc>Speed 1.3 km/h Distance 10.50 km</desc>
<time>2010-10-24T12:18:03.97</time>
<name>6240</name>
</trkpt>
<trkpt lat="48.935975" lon="8.669873">
<ele>387.5</ele>
<speed>0.64</speed>
<course>23.4</course>
<desc>Speed 2.3 km/h Distance 10.50 km</desc>
<time>2010-10-24T12:18:04.96</time>
<name>6241</name>
</trkpt>
<trkpt lat="48.935985" lon="8.669880">
<ele>387.5</ele>
<speed>0.92</speed>
<course>53.0</course>
<desc>Speed 3.3 km/h Distance 10.50 km</desc>
<time>2010-10-24T12:18:05.97</time>
<name>6242</name>
</trkpt>
<trkpt lat="48.935988" lon="8.669887">
<ele>387.5</ele>
<speed>0.62</speed>
<course>12.7</course>
<desc>Speed 2.2 km/h Distance 10.50 km</desc>
<time>2010-10-24T12:18:06.96</time>
<name>6243</name>
</trkpt>
<trkpt lat="48.936042" lon="8.669905">
<ele>387.5</ele>
<speed>1.30</speed>
<course>13.5</course>
<desc>Speed 4.7 km/h Distance 10.51 km</desc>
<time>2010-10-24T12:18:08.96</time>
<name>6244</name>
</trkpt>
<trkpt lat="48.936055" lon="8.669910">
<ele>387.5</ele>
<speed>1.17</speed>
<course>18.1</course>
<desc>Speed 4.2 km/h Distance 10.51 km</desc>
<time>2010-10-24T12:18:09.95</time>
<name>6245</name>
</trkpt>
<trkpt lat="48.936072" lon="8.669918">
<ele>387.5</ele>
<speed>1.83</speed>
<course>20.9</course>
<desc>Speed 6.6 km/h Distance 10.51 km</desc>
<time>2010-10-24T12:18:10.94</time>
<name>6246</name>
</trkpt>
<trkpt lat="48.936083" lon="8.669925">
<ele>387.5</ele>
<speed>0.81</speed>
<course>23.8</course>
<desc>Speed 2.9 km/h Distance 10.51 km</desc>
<time>2010-10-24T12:18:11.94</time>
<name>6247</name>
</trkpt>
<trkpt lat="48.936093" lon="8.669932">
<ele>387.5</ele>
<speed>1.12</speed>
<course>44.5</course>
<desc>Speed 4.0 km/h Distance 10.51 km</desc>
<time>2010-10-24T12:18:12.94</time>
<name>6248</name>
</trkpt>
<trkpt lat="48.936097" lon="8.669937">
<ele>387.5</ele>
<speed>0.33</speed>
<course>12.3</course>
<desc>Speed 1.2 km/h Distance 10.51 km</desc>
<time>2010-10-24T12:18:13.93</time>
<name>6249</name>
</trkpt>
<trkpt lat="48.936137" lon="8.669950">
<ele>387.5</ele>
<speed>0.34</speed>
<course>12.3</course>
<desc>Speed 1.2 km/h Distance 10.52 km</desc>
<time>2010-10-24T12:18:15.94</time>
<name>6250</name>
</trkpt>
<trkpt lat="48.936157" lon="8.669957">
<ele>387.5</ele>
<speed>2.02</speed>
<course>2.5</course>
<desc>Speed 7.3 km/h Distance 10.52 km</desc>
<time>2010-10-24T12:18:16.93</time>
<name>6251</name>
</trkpt>
<trkpt lat="48.936175" lon="8.669958">
<ele>387.5</ele>
<speed>1.10</speed>
<course>9.0</course>
<desc>Speed 4.0 km/h Distance 10.52 km</desc>
<time>2010-10-24T12:18:17.92</time>
<name>6252</name>
</trkpt>
<trkpt lat="48.936188" lon="8.669962">
<ele>387.5</ele>
<speed>0.95</speed>
<course>7.7</course>
<desc>Speed 3.4 km/h Distance 10.52 km</desc>
<time>2010-10-24T12:18:18.91</time>
<name>6253</name>
</trkpt>
<trkpt lat="48.936205" lon="8.669965">
<ele>387.5</ele>
<speed>1.71</speed>
<course>13.5</course>
<desc>Speed 6.2 km/h Distance 10.52 km</desc>
<time>2010-10-24T12:18:19.91</time>
<name>6254</name>
</trkpt>
<trkpt lat="48.936218" lon="8.669970">
<ele>387.5</ele>
<speed>1.25</speed>
<course>14.9</course>
<desc>Speed 4.5 km/h Distance 10.53 km</desc>
<time>2010-10-24T12:18:20.90</time>
<name>6255</name>
</trkpt>
<trkpt lat="48.936227" lon="8.669973">
<ele>388.0</ele>
<speed>0.63</speed>
<course>6.1</course>
<desc>Speed 2.3 km/h Distance 10.53 km</desc>
<time>2010-10-24T12:18:21.91</time>
<name>6256</name>
</trkpt>
<trkpt lat="48.936247" lon="8.669977">
<ele>388.0</ele>
<speed>2.23</speed>
<course>14.9</course>
<desc>Speed 8.0 km/h Distance 10.53 km</desc>
<time>2010-10-24T12:18:22.89</time>
<name>6257</name>
</trkpt>
<trkpt lat="48.936255" lon="8.669980">
<ele>388.0</ele>
<speed>0.67</speed>
<course>3.8</course>
<desc>Speed 2.4 km/h Distance 10.53 km</desc>
<time>2010-10-24T12:18:23.89</time>
<name>6258</name>
</trkpt>
<trkpt lat="48.936270" lon="8.669982">
<ele>388.0</ele>
<speed>0.83</speed>
<course>12.6</course>
<desc>Speed 3.0 km/h Distance 10.53 km</desc>
<time>2010-10-24T12:18:25.89</time>
<name>6259</name>
</trkpt>
<trkpt lat="48.936273" lon="8.669983">
<ele>388.0</ele>
<speed>0.31</speed>
<course>2.5</course>
<desc>Speed 1.1 km/h Distance 10.53 km</desc>
<time>2010-10-24T12:18:26.88</time>
<name>6260</name>
</trkpt>
<trkpt lat="48.936292" lon="8.669985">
<ele>388.0</ele>
<speed>1.57</speed>
<course>3.8</course>
<desc>Speed 5.7 km/h Distance 10.53 km</desc>
<time>2010-10-24T12:18:27.89</time>
<name>6261</name>
</trkpt>
<trkpt lat="48.936307" lon="8.669985">
<ele>388.0</ele>
<speed>1.37</speed>
<course>16.6</course>
<desc>Speed 4.9 km/h Distance 10.54 km</desc>
<time>2010-10-24T12:18:28.89</time>
<name>6262</name>
</trkpt>
<trkpt lat="48.936322" lon="8.669992">
<ele>388.0</ele>
<speed>1.02</speed>
<course>4.7</course>
<desc>Speed 3.7 km/h Distance 10.54 km</desc>
<time>2010-10-24T12:18:29.89</time>
<name>6263</name>
</trkpt>
<trkpt lat="48.936333" lon="8.669993">
<ele>388.0</ele>
<speed>1.16</speed>
<course>6.4</course>
<desc>Speed 4.2 km/h Distance 10.54 km</desc>
<time>2010-10-24T12:18:30.88</time>
<name>6264</name>
</trkpt>
<trkpt lat="48.936355" lon="8.669997">
<ele>388.0</ele>
<speed>1.79</speed>
<course>6.3</course>
<desc>Speed 6.4 km/h Distance 10.54 km</desc>
<time>2010-10-24T12:18:31.87</time>
<name>6265</name>
</trkpt>
<trkpt lat="48.936395" lon="8.670003">
<ele>388.0</ele>
<speed>1.47</speed>
<course>3.8</course>
<desc>Speed 5.3 km/h Distance 10.55 km</desc>
<time>2010-10-24T12:18:34.87</time>
<name>6266</name>
</trkpt>
<trkpt lat="48.936410" lon="8.670005">
<ele>388.0</ele>
<speed>1.61</speed>
<course>5.0</course>
<desc>Speed 5.8 km/h Distance 10.55 km</desc>
<time>2010-10-24T12:18:35.87</time>
<name>6267</name>
</trkpt>
<trkpt lat="48.936435" lon="8.670008">
<ele>388.0</ele>
<speed>0.98</speed>
<course>3.4</course>
<desc>Speed 3.5 km/h Distance 10.55 km</desc>
<time>2010-10-24T12:18:36.86</time>
<name>6268</name>
</trkpt>
<trkpt lat="48.936473" lon="8.670012">
<ele>388.5</ele>
<speed>1.35</speed>
<course>3.9</course>
<desc>Speed 4.9 km/h Distance 10.55 km</desc>
<time>2010-10-24T12:18:38.86</time>
<name>6269</name>
</trkpt>
<trkpt lat="48.936487" lon="8.670013">
<ele>388.5</ele>
<speed>1.50</speed>
<course>7.5</course>
<desc>Speed 5.4 km/h Distance 10.56 km</desc>
<time>2010-10-24T12:18:39.86</time>
<name>6270</name>
</trkpt>
<trkpt lat="48.936562" lon="8.670028">
<ele>389.0</ele>
<speed>1.44</speed>
<course>4.6</course>
<desc>Speed 5.2 km/h Distance 10.56 km</desc>
<time>2010-10-24T12:18:41.84</time>
<name>6271</name>
</trkpt>
<trkpt lat="48.936588" lon="8.670032">
<ele>389.5</ele>
<speed>1.50</speed>
<course>2.7</course>
<desc>Speed 5.4 km/h Distance 10.57 km</desc>
<time>2010-10-24T12:18:42.84</time>
<name>6272</name>
</trkpt>
<trkpt lat="48.936608" lon="8.670033">
<ele>389.5</ele>
<speed>1.27</speed>
<course>5.9</course>
<desc>Speed 4.6 km/h Distance 10.57 km</desc>
<time>2010-10-24T12:18:43.84</time>
<name>6273</name>
</trkpt>
<trkpt lat="48.936630" lon="8.670037">
<ele>389.5</ele>
<speed>1.61</speed>
<course>4.1</course>
<desc>Speed 5.8 km/h Distance 10.57 km</desc>
<time>2010-10-24T12:18:44.83</time>
<name>6274</name>
</trkpt>
<trkpt lat="48.936647" lon="8.670038">
<ele>389.5</ele>
<speed>1.71</speed>
<course>351.2</course>
<desc>Speed 6.2 km/h Distance 10.57 km</desc>
<time>2010-10-24T12:18:45.83</time>
<name>6275</name>
</trkpt>
<trkpt lat="48.936662" lon="8.670035">
<ele>389.5</ele>
<speed>1.46</speed>
<course>5.0</course>
<desc>Speed 5.3 km/h Distance 10.58 km</desc>
<time>2010-10-24T12:18:46.83</time>
<name>6276</name>
</trkpt>
<trkpt lat="48.936677" lon="8.670037">
<ele>389.5</ele>
<speed>1.53</speed>
<course>351.2</course>
<desc>Speed 5.5 km/h Distance 10.58 km</desc>
<time>2010-10-24T12:18:47.82</time>
<name>6277</name>
</trkpt>
<trkpt lat="48.936692" lon="8.670033">
<ele>389.5</ele>
<speed>1.53</speed>
<course>2.8</course>
<desc>Speed 5.5 km/h Distance 10.58 km</desc>
<time>2010-10-24T12:18:48.81</time>
<name>6278</name>
</trkpt>
<trkpt lat="48.936708" lon="8.670035">
<ele>389.5</ele>
<speed>1.59</speed>
<course>4.1</course>
<desc>Speed 5.7 km/h Distance 10.58 km</desc>
<time>2010-10-24T12:18:49.82</time>
<name>6279</name>
</trkpt>
<trkpt lat="48.936725" lon="8.670037">
<ele>389.5</ele>
<speed>1.58</speed>
<course>3.8</course>
<desc>Speed 5.7 km/h Distance 10.58 km</desc>
<time>2010-10-24T12:18:50.80</time>
<name>6280</name>
</trkpt>
<trkpt lat="48.936740" lon="8.670037">
<ele>389.5</ele>
<speed>1.55</speed>
<course>356.3</course>
<desc>Speed 5.6 km/h Distance 10.58 km</desc>
<time>2010-10-24T12:18:51.80</time>
<name>6281</name>
</trkpt>
<trkpt lat="48.936758" lon="8.670035">
<ele>389.5</ele>
<speed>1.67</speed>
<course>3.7</course>
<desc>Speed 6.0 km/h Distance 10.59 km</desc>
<time>2010-10-24T12:18:52.79</time>
<name>6282</name>
</trkpt>
<trkpt lat="48.936777" lon="8.670037">
<ele>389.5</ele>
<speed>1.72</speed>
<course>356.2</course>
<desc>Speed 6.2 km/h Distance 10.59 km</desc>
<time>2010-10-24T12:18:53.78</time>
<name>6283</name>
</trkpt>
<trkpt lat="48.936792" lon="8.670035">
<ele>389.5</ele>
<speed>1.62</speed>
<course>354.7</course>
<desc>Speed 5.8 km/h Distance 10.59 km</desc>
<time>2010-10-24T12:18:54.77</time>
<name>6284</name>
</trkpt>
<trkpt lat="48.936805" lon="8.670033">
<ele>390.0</ele>
<speed>1.57</speed>
<course>351.2</course>
<desc>Speed 5.7 km/h Distance 10.59 km</desc>
<time>2010-10-24T12:18:55.77</time>
<name>6285</name>
</trkpt>
<trkpt lat="48.936820" lon="8.670030">
<ele>390.0</ele>
<speed>1.51</speed>
<course>0.0</course>
<desc>Speed 5.4 km/h Distance 10.59 km</desc>
<time>2010-10-24T12:18:56.76</time>
<name>6286</name>
</trkpt>
<trkpt lat="48.936835" lon="8.670030">
<ele>390.0</ele>
<speed>1.52</speed>
<course>357.2</course>
<desc>Speed 5.5 km/h Distance 10.60 km</desc>
<time>2010-10-24T12:18:57.76</time>
<name>6287</name>
</trkpt>
<trkpt lat="48.936852" lon="8.670028">
<ele>390.0</ele>
<speed>1.51</speed>
<course>351.2</course>
<desc>Speed 5.4 km/h Distance 10.60 km</desc>
<time>2010-10-24T12:18:58.76</time>
<name>6288</name>
</trkpt>
<trkpt lat="48.936867" lon="8.670025">
<ele>390.0</ele>
<speed>1.53</speed>
<course>356.2</course>
<desc>Speed 5.5 km/h Distance 10.60 km</desc>
<time>2010-10-24T12:18:59.75</time>
<name>6289</name>
</trkpt>
<trkpt lat="48.936882" lon="8.670023">
<ele>390.0</ele>
<speed>1.67</speed>
<course>354.7</course>
<desc>Speed 6.0 km/h Distance 10.60 km</desc>
<time>2010-10-24T12:19:00.75</time>
<name>6290</name>
</trkpt>
<trkpt lat="48.936895" lon="8.670022">
<ele>390.0</ele>
<speed>1.57</speed>
<course>351.0</course>
<desc>Speed 5.7 km/h Distance 10.60 km</desc>
<time>2010-10-24T12:19:01.75</time>
<name>6291</name>
</trkpt>
<trkpt lat="48.936908" lon="8.670018">
<ele>390.0</ele>
<speed>1.41</speed>
<course>351.0</course>
<desc>Speed 5.1 km/h Distance 10.60 km</desc>
<time>2010-10-24T12:19:02.74</time>
<name>6292</name>
</trkpt>
<trkpt lat="48.936922" lon="8.670015">
<ele>390.0</ele>
<speed>1.61</speed>
<course>3.8</course>
<desc>Speed 5.8 km/h Distance 10.60 km</desc>
<time>2010-10-24T12:19:03.74</time>
<name>6293</name>
</trkpt>
<trkpt lat="48.936937" lon="8.670017">
<ele>390.0</ele>
<speed>1.63</speed>
<course>352.5</course>
<desc>Speed 5.9 km/h Distance 10.61 km</desc>
<time>2010-10-24T12:19:04.73</time>
<name>6294</name>
</trkpt>
<trkpt lat="48.936952" lon="8.670013">
<ele>390.0</ele>
<speed>1.54</speed>
<course>344.5</course>
<desc>Speed 5.5 km/h Distance 10.61 km</desc>
<time>2010-10-24T12:19:05.73</time>
<name>6295</name>
</trkpt>
<trkpt lat="48.936963" lon="8.670008">
<ele>390.0</ele>
<speed>1.42</speed>
<course>341.8</course>
<desc>Speed 5.1 km/h Distance 10.61 km</desc>
<time>2010-10-24T12:19:06.72</time>
<name>6296</name>
</trkpt>
<trkpt lat="48.936973" lon="8.670003">
<ele>390.0</ele>
<speed>1.12</speed>
<course>355.3</course>
<desc>Speed 4.0 km/h Distance 10.61 km</desc>
<time>2010-10-24T12:19:07.72</time>
<name>6297</name>
</trkpt>
<trkpt lat="48.936985" lon="8.670002">
<ele>390.0</ele>
<speed>1.33</speed>
<course>3.8</course>
<desc>Speed 4.8 km/h Distance 10.61 km</desc>
<time>2010-10-24T12:19:08.72</time>
<name>6298</name>
</trkpt>
<trkpt lat="48.937000" lon="8.670003">
<ele>390.0</ele>
<speed>1.54</speed>
<course>351.0</course>
<desc>Speed 5.5 km/h Distance 10.61 km</desc>
<time>2010-10-24T12:19:09.71</time>
<name>6299</name>
</trkpt>
<trkpt lat="48.937013" lon="8.670000">
<ele>390.0</ele>
<speed>1.39</speed>
<course>351.0</course>
<desc>Speed 5.0 km/h Distance 10.62 km</desc>
<time>2010-10-24T12:19:10.70</time>
<name>6300</name>
</trkpt>
<trkpt lat="48.937027" lon="8.669997">
<ele>390.0</ele>
<speed>1.36</speed>
<course>352.6</course>
<desc>Speed 4.9 km/h Distance 10.62 km</desc>
<time>2010-10-24T12:19:11.70</time>
<name>6301</name>
</trkpt>
<trkpt lat="48.937033" lon="8.669995">
<ele>390.0</ele>
<speed>0.77</speed>
<course>346.0</course>
<desc>Speed 2.8 km/h Distance 10.62 km</desc>
<time>2010-10-24T12:19:12.68</time>
<name>6302</name>
</trkpt>
<trkpt lat="48.937047" lon="8.669990">
<ele>390.0</ele>
<speed>1.37</speed>
<course>351.2</course>
<desc>Speed 4.9 km/h Distance 10.62 km</desc>
<time>2010-10-24T12:19:13.68</time>
<name>6303</name>
</trkpt>
<trkpt lat="48.937062" lon="8.669987">
<ele>389.5</ele>
<speed>1.76</speed>
<course>327.7</course>
<desc>Speed 6.3 km/h Distance 10.62 km</desc>
<time>2010-10-24T12:19:14.67</time>
<name>6304</name>
</trkpt>
<trkpt lat="48.937067" lon="8.669982">
<ele>389.5</ele>
<speed>0.46</speed>
<course>345.1</course>
<desc>Speed 1.7 km/h Distance 10.62 km</desc>
<time>2010-10-24T12:19:15.67</time>
<name>6305</name>
</trkpt>
<trkpt lat="48.937075" lon="8.669978">
<ele>389.5</ele>
<speed>0.82</speed>
<course>336.2</course>
<desc>Speed 3.0 km/h Distance 10.62 km</desc>
<time>2010-10-24T12:19:16.66</time>
<name>6306</name>
</trkpt>
<trkpt lat="48.937085" lon="8.669972">
<ele>389.5</ele>
<speed>0.83</speed>
<course>332.5</course>
<desc>Speed 3.0 km/h Distance 10.62 km</desc>
<time>2010-10-24T12:19:17.66</time>
<name>6307</name>
</trkpt>
<trkpt lat="48.937093" lon="8.669965">
<ele>389.5</ele>
<speed>1.07</speed>
<course>345.1</course>
<desc>Speed 3.9 km/h Distance 10.62 km</desc>
<time>2010-10-24T12:19:18.66</time>
<name>6308</name>
</trkpt>
<trkpt lat="48.937102" lon="8.669962">
<ele>389.5</ele>
<speed>0.87</speed>
<course>202.9</course>
<desc>Speed 3.1 km/h Distance 10.63 km</desc>
<time>2010-10-24T12:19:19.65</time>
<name>6309</name>
</trkpt>
<trkpt lat="48.937078" lon="8.669947">
<ele>389.5</ele>
<speed>2.84</speed>
<course>205.4</course>
<desc>Speed 10.2 km/h Distance 10.63 km</desc>
<time>2010-10-24T12:19:20.65</time>
<name>6310</name>
</trkpt>
<trkpt lat="48.937067" lon="8.669938">
<ele>389.5</ele>
<speed>1.59</speed>
<course>270.0</course>
<desc>Speed 5.7 km/h Distance 10.63 km</desc>
<time>2010-10-24T12:19:21.65</time>
<name>6311</name>
</trkpt>
<trkpt lat="48.937067" lon="8.669933">
<ele>389.5</ele>
<speed>0.33</speed>
<course>2.8</course>
<desc>Speed 1.2 km/h Distance 10.63 km</desc>
<time>2010-10-24T12:19:22.64</time>
<name>6312</name>
</trkpt>
<trkpt lat="48.937083" lon="8.669933">
<ele>389.5</ele>
<speed>0.99</speed>
<course>4.4</course>
<desc>Speed 3.6 km/h Distance 10.63 km</desc>
<time>2010-10-24T12:19:23.64</time>
<name>6313</name>
</trkpt>
<trkpt lat="48.937103" lon="8.669935">
<ele>389.5</ele>
<speed>1.24</speed>
<course>337.4</course>
<desc>Speed 4.5 km/h Distance 10.63 km</desc>
<time>2010-10-24T12:19:24.63</time>
<name>6314</name>
</trkpt>
<trkpt lat="48.937117" lon="8.669927">
<ele>389.5</ele>
<speed>1.32</speed>
<course>326.8</course>
<desc>Speed 4.8 km/h Distance 10.64 km</desc>
<time>2010-10-24T12:19:25.63</time>
<name>6315</name>
</trkpt>
<trkpt lat="48.937127" lon="8.669917">
<ele>389.5</ele>
<speed>1.37</speed>
<course>330.6</course>
<desc>Speed 4.9 km/h Distance 10.64 km</desc>
<time>2010-10-24T12:19:26.62</time>
<name>6316</name>
</trkpt>
<trkpt lat="48.937138" lon="8.669907">
<ele>389.5</ele>
<speed>1.36</speed>
<course>343.4</course>
<desc>Speed 4.9 km/h Distance 10.64 km</desc>
<time>2010-10-24T12:19:27.62</time>
<name>6317</name>
</trkpt>
<trkpt lat="48.937157" lon="8.669898">
<ele>389.5</ele>
<speed>1.39</speed>
<course>345.7</course>
<desc>Speed 5.0 km/h Distance 10.64 km</desc>
<time>2010-10-24T12:19:28.62</time>
<name>6318</name>
</trkpt>
<trkpt lat="48.937178" lon="8.669890">
<ele>389.5</ele>
<speed>1.39</speed>
<course>322.5</course>
<desc>Speed 5.0 km/h Distance 10.64 km</desc>
<time>2010-10-24T12:19:29.61</time>
<name>6319</name>
</trkpt>
<trkpt lat="48.937188" lon="8.669878">
<ele>389.5</ele>
<speed>1.26</speed>
<course>319.8</course>
<desc>Speed 4.5 km/h Distance 10.64 km</desc>
<time>2010-10-24T12:19:30.60</time>
<name>6320</name>
</trkpt>
<trkpt lat="48.937200" lon="8.669863">
<ele>389.5</ele>
<speed>1.52</speed>
<course>326.7</course>
<desc>Speed 5.5 km/h Distance 10.65 km</desc>
<time>2010-10-24T12:19:31.60</time>
<name>6321</name>
</trkpt>
<trkpt lat="48.937217" lon="8.669847">
<ele>389.5</ele>
<speed>1.75</speed>
<course>340.2</course>
<desc>Speed 6.3 km/h Distance 10.65 km</desc>
<time>2010-10-24T12:19:32.59</time>
<name>6322</name>
</trkpt>
<trkpt lat="48.937235" lon="8.669837">
<ele>389.5</ele>
<speed>1.24</speed>
<course>330.6</course>
<desc>Speed 4.5 km/h Distance 10.65 km</desc>
<time>2010-10-24T12:19:33.60</time>
<name>6323</name>
</trkpt>
<trkpt lat="48.937247" lon="8.669827">
<ele>389.5</ele>
<speed>1.44</speed>
<course>330.6</course>
<desc>Speed 5.2 km/h Distance 10.65 km</desc>
<time>2010-10-24T12:19:34.58</time>
<name>6324</name>
</trkpt>
<trkpt lat="48.937258" lon="8.669817">
<ele>389.5</ele>
<speed>1.50</speed>
<course>351.5</course>
<desc>Speed 5.4 km/h Distance 10.65 km</desc>
<time>2010-10-24T12:19:35.59</time>
<name>6325</name>
</trkpt>
<trkpt lat="48.937288" lon="8.669810">
<ele>389.5</ele>
<speed>1.45</speed>
<course>333.8</course>
<desc>Speed 5.2 km/h Distance 10.66 km</desc>
<time>2010-10-24T12:19:36.59</time>
<name>6326</name>
</trkpt>
<trkpt lat="48.937302" lon="8.669800">
<ele>389.5</ele>
<speed>1.30</speed>
<course>313.5</course>
<desc>Speed 4.7 km/h Distance 10.66 km</desc>
<time>2010-10-24T12:19:37.58</time>
<name>6327</name>
</trkpt>
<trkpt lat="48.937310" lon="8.669787">
<ele>389.5</ele>
<speed>1.25</speed>
<course>348.8</course>
<desc>Speed 4.5 km/h Distance 10.66 km</desc>
<time>2010-10-24T12:19:38.58</time>
<name>6328</name>
</trkpt>
<trkpt lat="48.937327" lon="8.669782">
<ele>389.5</ele>
<speed>1.28</speed>
<course>322.8</course>
<desc>Speed 4.6 km/h Distance 10.66 km</desc>
<time>2010-10-24T12:19:39.57</time>
<name>6329</name>
</trkpt>
<trkpt lat="48.937337" lon="8.669770">
<ele>389.5</ele>
<speed>1.25</speed>
<course>326.7</course>
<desc>Speed 4.5 km/h Distance 10.66 km</desc>
<time>2010-10-24T12:19:40.57</time>
<name>6330</name>
</trkpt>
<trkpt lat="48.937350" lon="8.669757">
<ele>389.5</ele>
<speed>1.58</speed>
<course>343.4</course>
<desc>Speed 5.7 km/h Distance 10.67 km</desc>
<time>2010-10-24T12:19:41.56</time>
<name>6331</name>
</trkpt>
<trkpt lat="48.937368" lon="8.669748">
<ele>389.5</ele>
<speed>1.57</speed>
<course>335.4</course>
<desc>Speed 5.7 km/h Distance 10.67 km</desc>
<time>2010-10-24T12:19:42.56</time>
<name>6332</name>
</trkpt>
<trkpt lat="48.937385" lon="8.669737">
<ele>389.5</ele>
<speed>1.50</speed>
<course>347.9</course>
<desc>Speed 5.4 km/h Distance 10.67 km</desc>
<time>2010-10-24T12:19:43.55</time>
<name>6333</name>
</trkpt>
<trkpt lat="48.937405" lon="8.669730">
<ele>389.5</ele>
<speed>1.50</speed>
<course>343.4</course>
<desc>Speed 5.4 km/h Distance 10.67 km</desc>
<time>2010-10-24T12:19:44.55</time>
<name>6334</name>
</trkpt>
<trkpt lat="48.937423" lon="8.669722">
<ele>389.5</ele>
<speed>1.37</speed>
<course>344.7</course>
<desc>Speed 4.9 km/h Distance 10.67 km</desc>
<time>2010-10-24T12:19:45.55</time>
<name>6335</name>
</trkpt>
<trkpt lat="48.937443" lon="8.669713">
<ele>389.5</ele>
<speed>1.36</speed>
<course>340.3</course>
<desc>Speed 4.9 km/h Distance 10.68 km</desc>
<time>2010-10-24T12:19:46.54</time>
<name>6336</name>
</trkpt>
<trkpt lat="48.937462" lon="8.669703">
<ele>389.5</ele>
<speed>1.25</speed>
<course>332.8</course>
<desc>Speed 4.5 km/h Distance 10.68 km</desc>
<time>2010-10-24T12:19:47.54</time>
<name>6337</name>
</trkpt>
<trkpt lat="48.937477" lon="8.669692">
<ele>389.5</ele>
<speed>1.55</speed>
<course>318.6</course>
<desc>Speed 5.6 km/h Distance 10.68 km</desc>
<time>2010-10-24T12:19:48.53</time>
<name>6338</name>
</trkpt>
<trkpt lat="48.937487" lon="8.669678">
<ele>389.5</ele>
<speed>1.30</speed>
<course>323.1</course>
<desc>Speed 4.7 km/h Distance 10.68 km</desc>
<time>2010-10-24T12:19:49.53</time>
<name>6339</name>
</trkpt>
<trkpt lat="48.937498" lon="8.669665">
<ele>389.5</ele>
<speed>1.41</speed>
<course>316.7</course>
<desc>Speed 5.1 km/h Distance 10.68 km</desc>
<time>2010-10-24T12:19:50.52</time>
<name>6340</name>
</trkpt>
<trkpt lat="48.937510" lon="8.669648">
<ele>389.5</ele>
<speed>1.51</speed>
<course>323.4</course>
<desc>Speed 5.4 km/h Distance 10.69 km</desc>
<time>2010-10-24T12:19:51.51</time>
<name>6341</name>
</trkpt>
<trkpt lat="48.937523" lon="8.669633">
<ele>389.5</ele>
<speed>1.34</speed>
<course>326.9</course>
<desc>Speed 4.8 km/h Distance 10.69 km</desc>
<time>2010-10-24T12:19:52.51</time>
<name>6342</name>
</trkpt>
<trkpt lat="48.937535" lon="8.669622">
<ele>389.5</ele>
<speed>1.29</speed>
<course>340.1</course>
<desc>Speed 4.6 km/h Distance 10.69 km</desc>
<time>2010-10-24T12:19:53.50</time>
<name>6343</name>
</trkpt>
<trkpt lat="48.937550" lon="8.669613">
<ele>389.5</ele>
<speed>1.44</speed>
<course>329.7</course>
<desc>Speed 5.2 km/h Distance 10.69 km</desc>
<time>2010-10-24T12:19:54.49</time>
<name>6344</name>
</trkpt>
<trkpt lat="48.937565" lon="8.669600">
<ele>389.5</ele>
<speed>1.48</speed>
<course>315.4</course>
<desc>Speed 5.3 km/h Distance 10.69 km</desc>
<time>2010-10-24T12:19:55.49</time>
<name>6345</name>
</trkpt>
<trkpt lat="48.937575" lon="8.669585">
<ele>389.5</ele>
<speed>1.24</speed>
<course>322.5</course>
<desc>Speed 4.5 km/h Distance 10.69 km</desc>
<time>2010-10-24T12:19:56.50</time>
<name>6346</name>
</trkpt>
<trkpt lat="48.937585" lon="8.669573">
<ele>389.5</ele>
<speed>1.15</speed>
<course>343.7</course>
<desc>Speed 4.1 km/h Distance 10.70 km</desc>
<time>2010-10-24T12:19:57.49</time>
<name>6347</name>
</trkpt>
<trkpt lat="48.937600" lon="8.669567">
<ele>389.5</ele>
<speed>1.30</speed>
<course>337.7</course>
<desc>Speed 4.7 km/h Distance 10.70 km</desc>
<time>2010-10-24T12:19:58.48</time>
<name>6348</name>
</trkpt>
<trkpt lat="48.937613" lon="8.669558">
<ele>389.5</ele>
<speed>1.27</speed>
<course>326.6</course>
<desc>Speed 4.6 km/h Distance 10.70 km</desc>
<time>2010-10-24T12:19:59.47</time>
<name>6349</name>
</trkpt>
<trkpt lat="48.937627" lon="8.669545">
<ele>389.5</ele>
<speed>1.39</speed>
<course>337.9</course>
<desc>Speed 5.0 km/h Distance 10.70 km</desc>
<time>2010-10-24T12:20:00.47</time>
<name>6350</name>
</trkpt>
<trkpt lat="48.937640" lon="8.669537">
<ele>389.5</ele>
<speed>1.32</speed>
<course>326.6</course>
<desc>Speed 4.8 km/h Distance 10.70 km</desc>
<time>2010-10-24T12:20:01.47</time>
<name>6351</name>
</trkpt>
<trkpt lat="48.937653" lon="8.669523">
<ele>389.5</ele>
<speed>1.38</speed>
<course>334.8</course>
<desc>Speed 5.0 km/h Distance 10.70 km</desc>
<time>2010-10-24T12:20:02.46</time>
<name>6352</name>
</trkpt>
<trkpt lat="48.937665" lon="8.669515">
<ele>389.0</ele>
<speed>1.27</speed>
<course>333.8</course>
<desc>Speed 4.6 km/h Distance 10.71 km</desc>
<time>2010-10-24T12:20:03.45</time>
<name>6353</name>
</trkpt>
<trkpt lat="48.937678" lon="8.669505">
<ele>389.0</ele>
<speed>1.25</speed>
<course>317.4</course>
<desc>Speed 4.5 km/h Distance 10.71 km</desc>
<time>2010-10-24T12:20:04.45</time>
<name>6354</name>
</trkpt>
<trkpt lat="48.937687" lon="8.669493">
<ele>389.0</ele>
<speed>1.10</speed>
<course>341.8</course>
<desc>Speed 4.0 km/h Distance 10.71 km</desc>
<time>2010-10-24T12:20:05.44</time>
<name>6355</name>
</trkpt>
<trkpt lat="48.937697" lon="8.669488">
<ele>389.0</ele>
<speed>1.13</speed>
<course>323.1</course>
<desc>Speed 4.1 km/h Distance 10.71 km</desc>
<time>2010-10-24T12:20:06.44</time>
<name>6356</name>
</trkpt>
<trkpt lat="48.937708" lon="8.669475">
<ele>389.0</ele>
<speed>1.50</speed>
<course>310.3</course>
<desc>Speed 5.4 km/h Distance 10.71 km</desc>
<time>2010-10-24T12:20:07.43</time>
<name>6357</name>
</trkpt>
<trkpt lat="48.937717" lon="8.669460">
<ele>389.0</ele>
<speed>1.47</speed>
<course>337.9</course>
<desc>Speed 5.3 km/h Distance 10.71 km</desc>
<time>2010-10-24T12:20:08.44</time>
<name>6358</name>
</trkpt>
<trkpt lat="48.937730" lon="8.669452">
<ele>389.0</ele>
<speed>1.16</speed>
<course>323.5</course>
<desc>Speed 4.2 km/h Distance 10.71 km</desc>
<time>2010-10-24T12:20:09.43</time>
<name>6359</name>
</trkpt>
<trkpt lat="48.937743" lon="8.669437">
<ele>389.5</ele>
<speed>1.51</speed>
<course>332.8</course>
<desc>Speed 5.4 km/h Distance 10.72 km</desc>
<time>2010-10-24T12:20:10.43</time>
<name>6360</name>
</trkpt>
<trkpt lat="48.937758" lon="8.669425">
<ele>389.5</ele>
<speed>1.29</speed>
<course>333.0</course>
<desc>Speed 4.6 km/h Distance 10.72 km</desc>
<time>2010-10-24T12:20:11.43</time>
<name>6361</name>
</trkpt>
<trkpt lat="48.937773" lon="8.669413">
<ele>389.5</ele>
<speed>1.29</speed>
<course>296.9</course>
<desc>Speed 4.6 km/h Distance 10.72 km</desc>
<time>2010-10-24T12:20:12.42</time>
<name>6362</name>
</trkpt>
<trkpt lat="48.937778" lon="8.669398">
<ele>389.5</ele>
<speed>1.00</speed>
<course>316.8</course>
<desc>Speed 3.6 km/h Distance 10.72 km</desc>
<time>2010-10-24T12:20:13.42</time>
<name>6363</name>
</trkpt>
<trkpt lat="48.937790" lon="8.669382">
<ele>389.5</ele>
<speed>1.50</speed>
<course>322.5</course>
<desc>Speed 5.4 km/h Distance 10.72 km</desc>
<time>2010-10-24T12:20:14.41</time>
<name>6364</name>
</trkpt>
<trkpt lat="48.937800" lon="8.669370">
<ele>389.5</ele>
<speed>1.37</speed>
<course>326.8</course>
<desc>Speed 4.9 km/h Distance 10.72 km</desc>
<time>2010-10-24T12:20:15.41</time>
<name>6365</name>
</trkpt>
<trkpt lat="48.937810" lon="8.669360">
<ele>389.5</ele>
<speed>1.21</speed>
<course>318.6</course>
<desc>Speed 4.4 km/h Distance 10.73 km</desc>
<time>2010-10-24T12:20:16.41</time>
<name>6366</name>
</trkpt>
<trkpt lat="48.937820" lon="8.669347">
<ele>389.0</ele>
<speed>1.46</speed>
<course>315.5</course>
<desc>Speed 5.3 km/h Distance 10.73 km</desc>
<time>2010-10-24T12:20:17.40</time>
<name>6367</name>
</trkpt>
<trkpt lat="48.937830" lon="8.669332">
<ele>389.5</ele>
<speed>1.38</speed>
<course>312.4</course>
<desc>Speed 5.0 km/h Distance 10.73 km</desc>
<time>2010-10-24T12:20:18.40</time>
<name>6368</name>
</trkpt>
<trkpt lat="48.937840" lon="8.669315">
<ele>389.5</ele>
<speed>1.26</speed>
<course>318.7</course>
<desc>Speed 4.5 km/h Distance 10.73 km</desc>
<time>2010-10-24T12:20:19.39</time>
<name>6369</name>
</trkpt>
<trkpt lat="48.937850" lon="8.669302">
<ele>389.5</ele>
<speed>1.26</speed>
<course>322.5</course>
<desc>Speed 4.5 km/h Distance 10.73 km</desc>
<time>2010-10-24T12:20:20.39</time>
<name>6370</name>
</trkpt>
<trkpt lat="48.937860" lon="8.669290">
<ele>389.5</ele>
<speed>1.04</speed>
<course>330.2</course>
<desc>Speed 3.7 km/h Distance 10.73 km</desc>
<time>2010-10-24T12:20:21.38</time>
<name>6371</name>
</trkpt>
<trkpt lat="48.937873" lon="8.669278">
<ele>389.5</ele>
<speed>1.45</speed>
<course>336.3</course>
<desc>Speed 5.2 km/h Distance 10.73 km</desc>
<time>2010-10-24T12:20:22.38</time>
<name>6372</name>
</trkpt>
<trkpt lat="48.937888" lon="8.669268">
<ele>389.5</ele>
<speed>1.44</speed>
<course>322.5</course>
<desc>Speed 5.2 km/h Distance 10.74 km</desc>
<time>2010-10-24T12:20:23.38</time>
<name>6373</name>
</trkpt>
<trkpt lat="48.937898" lon="8.669257">
<ele>389.5</ele>
<speed>1.08</speed>
<course>326.7</course>
<desc>Speed 3.9 km/h Distance 10.74 km</desc>
<time>2010-10-24T12:20:24.37</time>
<name>6374</name>
</trkpt>
<trkpt lat="48.937910" lon="8.669245">
<ele>389.5</ele>
<speed>1.29</speed>
<course>323.1</course>
<desc>Speed 4.6 km/h Distance 10.74 km</desc>
<time>2010-10-24T12:20:25.37</time>
<name>6375</name>
</trkpt>
<trkpt lat="48.937922" lon="8.669232">
<ele>389.5</ele>
<speed>1.47</speed>
<course>326.6</course>
<desc>Speed 5.3 km/h Distance 10.74 km</desc>
<time>2010-10-24T12:20:26.38</time>
<name>6376</name>
</trkpt>
<trkpt lat="48.937935" lon="8.669218">
<ele>389.0</ele>
<speed>1.40</speed>
<course>333.0</course>
<desc>Speed 5.0 km/h Distance 10.74 km</desc>
<time>2010-10-24T12:20:27.37</time>
<name>6377</name>
</trkpt>
<trkpt lat="48.937950" lon="8.669207">
<ele>389.0</ele>
<speed>1.37</speed>
<course>334.8</course>
<desc>Speed 4.9 km/h Distance 10.74 km</desc>
<time>2010-10-24T12:20:28.36</time>
<name>6378</name>
</trkpt>
<trkpt lat="48.937962" lon="8.669198">
<ele>389.0</ele>
<speed>1.37</speed>
<course>321.9</course>
<desc>Speed 4.9 km/h Distance 10.75 km</desc>
<time>2010-10-24T12:20:29.36</time>
<name>6379</name>
</trkpt>
<trkpt lat="48.937970" lon="8.669188">
<ele>389.0</ele>
<speed>1.14</speed>
<course>318.6</course>
<desc>Speed 4.1 km/h Distance 10.75 km</desc>
<time>2010-10-24T12:20:30.36</time>
<name>6380</name>
</trkpt>
<trkpt lat="48.937980" lon="8.669175">
<ele>389.0</ele>
<speed>1.24</speed>
<course>313.4</course>
<desc>Speed 4.5 km/h Distance 10.75 km</desc>
<time>2010-10-24T12:20:31.35</time>
<name>6381</name>
</trkpt>
<trkpt lat="48.937988" lon="8.669162">
<ele>389.0</ele>
<speed>1.14</speed>
<course>307.3</course>
<desc>Speed 4.1 km/h Distance 10.75 km</desc>
<time>2010-10-24T12:20:32.39</time>
<name>6382</name>
</trkpt>
<trkpt lat="48.937997" lon="8.669145">
<ele>389.0</ele>
<speed>1.24</speed>
<course>313.5</course>
<desc>Speed 4.5 km/h Distance 10.75 km</desc>
<time>2010-10-24T12:20:33.36</time>
<name>6383</name>
</trkpt>
<trkpt lat="48.938005" lon="8.669132">
<ele>389.0</ele>
<speed>1.34</speed>
<course>317.4</course>
<desc>Speed 4.8 km/h Distance 10.75 km</desc>
<time>2010-10-24T12:20:34.34</time>
<name>6384</name>
</trkpt>
<trkpt lat="48.938013" lon="8.669120">
<ele>389.0</ele>
<speed>1.07</speed>
<course>321.9</course>
<desc>Speed 3.9 km/h Distance 10.75 km</desc>
<time>2010-10-24T12:20:35.33</time>
<name>6385</name>
</trkpt>
<trkpt lat="48.938022" lon="8.669110">
<ele>389.0</ele>
<speed>1.12</speed>
<course>330.2</course>
<desc>Speed 4.0 km/h Distance 10.76 km</desc>
<time>2010-10-24T12:20:36.33</time>
<name>6386</name>
</trkpt>
<trkpt lat="48.938035" lon="8.669098">
<ele>389.0</ele>
<speed>1.35</speed>
<course>334.0</course>
<desc>Speed 4.9 km/h Distance 10.76 km</desc>
<time>2010-10-24T12:20:37.33</time>
<name>6387</name>
</trkpt>
<trkpt lat="48.938048" lon="8.669088">
<ele>389.0</ele>
<speed>1.33</speed>
<course>316.7</course>
<desc>Speed 4.8 km/h Distance 10.76 km</desc>
<time>2010-10-24T12:20:38.32</time>
<name>6388</name>
</trkpt>
<trkpt lat="48.938060" lon="8.669072">
<ele>389.0</ele>
<speed>1.39</speed>
<course>334.0</course>
<desc>Speed 5.0 km/h Distance 10.76 km</desc>
<time>2010-10-24T12:20:39.31</time>
<name>6389</name>
</trkpt>
<trkpt lat="48.938073" lon="8.669062">
<ele>389.0</ele>
<speed>1.12</speed>
<course>334.0</course>
<desc>Speed 4.0 km/h Distance 10.76 km</desc>
<time>2010-10-24T12:20:40.31</time>
<name>6390</name>
</trkpt>
<trkpt lat="48.938087" lon="8.669052">
<ele>389.0</ele>
<speed>1.27</speed>
<course>322.5</course>
<desc>Speed 4.6 km/h Distance 10.76 km</desc>
<time>2010-10-24T12:20:41.31</time>
<name>6391</name>
</trkpt>
<trkpt lat="48.938097" lon="8.669040">
<ele>389.0</ele>
<speed>1.16</speed>
<course>315.4</course>
<desc>Speed 4.2 km/h Distance 10.77 km</desc>
<time>2010-10-24T12:20:42.31</time>
<name>6392</name>
</trkpt>
<trkpt lat="48.938107" lon="8.669025">
<ele>389.0</ele>
<speed>1.30</speed>
<course>314.1</course>
<desc>Speed 4.7 km/h Distance 10.77 km</desc>
<time>2010-10-24T12:20:43.30</time>
<name>6393</name>
</trkpt>
<trkpt lat="48.938118" lon="8.669007">
<ele>389.0</ele>
<speed>1.44</speed>
<course>304.7</course>
<desc>Speed 5.2 km/h Distance 10.77 km</desc>
<time>2010-10-24T12:20:44.30</time>
<name>6394</name>
</trkpt>
<trkpt lat="48.938127" lon="8.668988">
<ele>389.0</ele>
<speed>1.32</speed>
<course>315.5</course>
<desc>Speed 4.8 km/h Distance 10.77 km</desc>
<time>2010-10-24T12:20:45.29</time>
<name>6395</name>
</trkpt>
<trkpt lat="48.938137" lon="8.668973">
<ele>389.0</ele>
<speed>1.19</speed>
<course>323.4</course>
<desc>Speed 4.3 km/h Distance 10.77 km</desc>
<time>2010-10-24T12:20:46.29</time>
<name>6396</name>
</trkpt>
<trkpt lat="48.938150" lon="8.668958">
<ele>389.0</ele>
<speed>1.41</speed>
<course>323.1</course>
<desc>Speed 5.1 km/h Distance 10.77 km</desc>
<time>2010-10-24T12:20:47.29</time>
<name>6397</name>
</trkpt>
<trkpt lat="48.938162" lon="8.668945">
<ele>389.0</ele>
<speed>1.30</speed>
<course>334.8</course>
<desc>Speed 4.7 km/h Distance 10.78 km</desc>
<time>2010-10-24T12:20:48.29</time>
<name>6398</name>
</trkpt>
<trkpt lat="48.938173" lon="8.668937">
<ele>389.0</ele>
<speed>1.37</speed>
<course>336.6</course>
<desc>Speed 4.9 km/h Distance 10.78 km</desc>
<time>2010-10-24T12:20:49.28</time>
<name>6399</name>
</trkpt>
<trkpt lat="48.938183" lon="8.668930">
<ele>389.0</ele>
<speed>1.14</speed>
<course>330.2</course>
<desc>Speed 4.1 km/h Distance 10.78 km</desc>
<time>2010-10-24T12:20:50.27</time>
<name>6400</name>
</trkpt>
<trkpt lat="48.938197" lon="8.668918">
<ele>389.0</ele>
<speed>1.51</speed>
<course>319.8</course>
<desc>Speed 5.4 km/h Distance 10.78 km</desc>
<time>2010-10-24T12:20:51.27</time>
<name>6401</name>
</trkpt>
<trkpt lat="48.938208" lon="8.668903">
<ele>388.5</ele>
<speed>1.54</speed>
<course>326.8</course>
<desc>Speed 5.5 km/h Distance 10.78 km</desc>
<time>2010-10-24T12:20:52.26</time>
<name>6402</name>
</trkpt>
<trkpt lat="48.938218" lon="8.668893">
<ele>388.5</ele>
<speed>1.13</speed>
<course>322.5</course>
<desc>Speed 4.1 km/h Distance 10.78 km</desc>
<time>2010-10-24T12:20:53.25</time>
<name>6403</name>
</trkpt>
<trkpt lat="48.938228" lon="8.668882">
<ele>388.5</ele>
<speed>1.33</speed>
<course>310.1</course>
<desc>Speed 4.8 km/h Distance 10.78 km</desc>
<time>2010-10-24T12:20:54.24</time>
<name>6404</name>
</trkpt>
<trkpt lat="48.938237" lon="8.668867">
<ele>388.5</ele>
<speed>1.10</speed>
<course>320.6</course>
<desc>Speed 4.0 km/h Distance 10.79 km</desc>
<time>2010-10-24T12:20:55.23</time>
<name>6405</name>
</trkpt>
<trkpt lat="48.938250" lon="8.668850">
<ele>388.5</ele>
<speed>1.50</speed>
<course>316.7</course>
<desc>Speed 5.4 km/h Distance 10.79 km</desc>
<time>2010-10-24T12:20:56.23</time>
<name>6406</name>
</trkpt>
<trkpt lat="48.938262" lon="8.668833">
<ele>388.5</ele>
<speed>1.40</speed>
<course>296.9</course>
<desc>Speed 5.0 km/h Distance 10.79 km</desc>
<time>2010-10-24T12:20:57.23</time>
<name>6407</name>
</trkpt>
<trkpt lat="48.938267" lon="8.668818">
<ele>388.5</ele>
<speed>0.92</speed>
<course>318.8</course>
<desc>Speed 3.3 km/h Distance 10.79 km</desc>
<time>2010-10-24T12:20:58.21</time>
<name>6408</name>
</trkpt>
<trkpt lat="48.938277" lon="8.668805">
<ele>388.5</ele>
<speed>1.19</speed>
<course>314.1</course>
<desc>Speed 4.3 km/h Distance 10.79 km</desc>
<time>2010-10-24T12:20:59.21</time>
<name>6409</name>
</trkpt>
<trkpt lat="48.938288" lon="8.668787">
<ele>388.5</ele>
<speed>1.54</speed>
<course>330.2</course>
<desc>Speed 5.5 km/h Distance 10.79 km</desc>
<time>2010-10-24T12:21:00.20</time>
<name>6410</name>
</trkpt>
<trkpt lat="48.938302" lon="8.668775">
<ele>388.5</ele>
<speed>1.32</speed>
<course>336.3</course>
<desc>Speed 4.8 km/h Distance 10.80 km</desc>
<time>2010-10-24T12:21:01.20</time>
<name>6411</name>
</trkpt>
<trkpt lat="48.938317" lon="8.668765">
<ele>388.5</ele>
<speed>1.26</speed>
<course>319.8</course>
<desc>Speed 4.5 km/h Distance 10.80 km</desc>
<time>2010-10-24T12:21:02.20</time>
<name>6412</name>
</trkpt>
<trkpt lat="48.938328" lon="8.668750">
<ele>388.5</ele>
<speed>1.44</speed>
<course>319.8</course>
<desc>Speed 5.2 km/h Distance 10.80 km</desc>
<time>2010-10-24T12:21:03.20</time>
<name>6413</name>
</trkpt>
<trkpt lat="48.938340" lon="8.668735">
<ele>388.5</ele>
<speed>1.33</speed>
<course>320.6</course>
<desc>Speed 4.8 km/h Distance 10.80 km</desc>
<time>2010-10-24T12:21:04.20</time>
<name>6414</name>
</trkpt>
<trkpt lat="48.938347" lon="8.668727">
<ele>388.5</ele>
<speed>0.89</speed>
<course>322.8</course>
<desc>Speed 3.2 km/h Distance 10.80 km</desc>
<time>2010-10-24T12:21:05.19</time>
<name>6415</name>
</trkpt>
<trkpt lat="48.938357" lon="8.668715">
<ele>388.5</ele>
<speed>1.17</speed>
<course>315.5</course>
<desc>Speed 4.2 km/h Distance 10.80 km</desc>
<time>2010-10-24T12:21:06.18</time>
<name>6416</name>
</trkpt>
<trkpt lat="48.938367" lon="8.668700">
<ele>388.5</ele>
<speed>1.19</speed>
<course>326.6</course>
<desc>Speed 4.3 km/h Distance 10.80 km</desc>
<time>2010-10-24T12:21:07.18</time>
<name>6417</name>
</trkpt>
<trkpt lat="48.938378" lon="8.668688">
<ele>388.5</ele>
<speed>1.34</speed>
<course>326.7</course>
<desc>Speed 4.8 km/h Distance 10.81 km</desc>
<time>2010-10-24T12:21:08.18</time>
<name>6418</name>
</trkpt>
<trkpt lat="48.938392" lon="8.668675">
<ele>388.5</ele>
<speed>1.41</speed>
<course>330.6</course>
<desc>Speed 5.1 km/h Distance 10.81 km</desc>
<time>2010-10-24T12:21:09.17</time>
<name>6419</name>
</trkpt>
<trkpt lat="48.938403" lon="8.668665">
<ele>388.5</ele>
<speed>1.12</speed>
<course>318.8</course>
<desc>Speed 4.0 km/h Distance 10.81 km</desc>
<time>2010-10-24T12:21:10.17</time>
<name>6420</name>
</trkpt>
<trkpt lat="48.938413" lon="8.668652">
<ele>388.5</ele>
<speed>1.41</speed>
<course>315.4</course>
<desc>Speed 5.1 km/h Distance 10.81 km</desc>
<time>2010-10-24T12:21:11.17</time>
<name>6421</name>
</trkpt>
<trkpt lat="48.938423" lon="8.668637">
<ele>388.5</ele>
<speed>1.28</speed>
<course>309.6</course>
<desc>Speed 4.6 km/h Distance 10.81 km</desc>
<time>2010-10-24T12:21:12.17</time>
<name>6422</name>
</trkpt>
<trkpt lat="48.938433" lon="8.668618">
<ele>388.5</ele>
<speed>1.16</speed>
<course>318.7</course>
<desc>Speed 4.2 km/h Distance 10.81 km</desc>
<time>2010-10-24T12:21:13.16</time>
<name>6423</name>
</trkpt>
<trkpt lat="48.938443" lon="8.668605">
<ele>388.5</ele>
<speed>1.36</speed>
<course>330.6</course>
<desc>Speed 4.9 km/h Distance 10.82 km</desc>
<time>2010-10-24T12:21:14.16</time>
<name>6424</name>
</trkpt>
<trkpt lat="48.938455" lon="8.668595">
<ele>388.5</ele>
<speed>1.19</speed>
<course>318.6</course>
<desc>Speed 4.3 km/h Distance 10.82 km</desc>
<time>2010-10-24T12:21:15.15</time>
<name>6425</name>
</trkpt>
<trkpt lat="48.938465" lon="8.668582">
<ele>388.5</ele>
<speed>1.19</speed>
<course>316.8</course>
<desc>Speed 4.3 km/h Distance 10.82 km</desc>
<time>2010-10-24T12:21:16.15</time>
<name>6426</name>
</trkpt>
<trkpt lat="48.938477" lon="8.668565">
<ele>388.5</ele>
<speed>1.27</speed>
<course>320.6</course>
<desc>Speed 4.6 km/h Distance 10.82 km</desc>
<time>2010-10-24T12:21:17.14</time>
<name>6427</name>
</trkpt>
<trkpt lat="48.938490" lon="8.668548">
<ele>388.5</ele>
<speed>1.38</speed>
<course>311.6</course>
<desc>Speed 5.0 km/h Distance 10.82 km</desc>
<time>2010-10-24T12:21:18.14</time>
<name>6428</name>
</trkpt>
<trkpt lat="48.938502" lon="8.668528">
<ele>388.5</ele>
<speed>1.25</speed>
<course>310.1</course>
<desc>Speed 4.5 km/h Distance 10.82 km</desc>
<time>2010-10-24T12:21:19.14</time>
<name>6429</name>
</trkpt>
<trkpt lat="48.938510" lon="8.668513">
<ele>388.5</ele>
<speed>1.34</speed>
<course>307.2</course>
<desc>Speed 4.8 km/h Distance 10.83 km</desc>
<time>2010-10-24T12:21:20.14</time>
<name>6430</name>
</trkpt>
<trkpt lat="48.938518" lon="8.668497">
<ele>388.0</ele>
<speed>1.23</speed>
<course>326.6</course>
<desc>Speed 4.4 km/h Distance 10.83 km</desc>
<time>2010-10-24T12:21:21.13</time>
<name>6431</name>
</trkpt>
<trkpt lat="48.938532" lon="8.668483">
<ele>388.0</ele>
<speed>1.51</speed>
<course>326.7</course>
<desc>Speed 5.4 km/h Distance 10.83 km</desc>
<time>2010-10-24T12:21:22.13</time>
<name>6432</name>
</trkpt>
<trkpt lat="48.938543" lon="8.668472">
<ele>388.0</ele>
<speed>1.14</speed>
<course>330.0</course>
<desc>Speed 4.1 km/h Distance 10.83 km</desc>
<time>2010-10-24T12:21:23.12</time>
<name>6433</name>
</trkpt>
<trkpt lat="48.938557" lon="8.668460">
<ele>388.0</ele>
<speed>1.33</speed>
<course>326.7</course>
<desc>Speed 4.8 km/h Distance 10.83 km</desc>
<time>2010-10-24T12:21:24.11</time>
<name>6434</name>
</trkpt>
<trkpt lat="48.938572" lon="8.668445">
<ele>388.0</ele>
<speed>1.30</speed>
<course>228.4</course>
<desc>Speed 4.7 km/h Distance 10.83 km</desc>
<time>2010-10-24T12:21:25.10</time>
<name>6435</name>
</trkpt>
<trkpt lat="48.938560" lon="8.668425">
<ele>388.0</ele>
<speed>2.00</speed>
<course>335.3</course>
<desc>Speed 7.2 km/h Distance 10.84 km</desc>
<time>2010-10-24T12:21:26.09</time>
<name>6436</name>
</trkpt>
<trkpt lat="48.938577" lon="8.668413">
<ele>388.5</ele>
<speed>2.30</speed>
<course>320.6</course>
<desc>Speed 8.3 km/h Distance 10.84 km</desc>
<time>2010-10-24T12:21:27.09</time>
<name>6437</name>
</trkpt>
<trkpt lat="48.938590" lon="8.668397">
<ele>388.0</ele>
<speed>1.63</speed>
<course>312.4</course>
<desc>Speed 5.9 km/h Distance 10.84 km</desc>
<time>2010-10-24T12:21:28.09</time>
<name>6438</name>
</trkpt>
<trkpt lat="48.938600" lon="8.668380">
<ele>388.0</ele>
<speed>1.49</speed>
<course>333.6</course>
<desc>Speed 5.4 km/h Distance 10.84 km</desc>
<time>2010-10-24T12:21:29.09</time>
<name>6439</name>
</trkpt>
<trkpt lat="48.938613" lon="8.668370">
<ele>388.0</ele>
<speed>1.40</speed>
<course>296.9</course>
<desc>Speed 5.0 km/h Distance 10.84 km</desc>
<time>2010-10-24T12:21:30.08</time>
<name>6440</name>
</trkpt>
<trkpt lat="48.938618" lon="8.668355">
<ele>388.5</ele>
<speed>1.17</speed>
<course>318.7</course>
<desc>Speed 4.2 km/h Distance 10.84 km</desc>
<time>2010-10-24T12:21:31.08</time>
<name>6441</name>
</trkpt>
<trkpt lat="48.938628" lon="8.668342">
<ele>388.5</ele>
<speed>1.26</speed>
<course>301.3</course>
<desc>Speed 4.5 km/h Distance 10.85 km</desc>
<time>2010-10-24T12:21:32.07</time>
<name>6442</name>
</trkpt>
<trkpt lat="48.938635" lon="8.668325">
<ele>388.0</ele>
<speed>1.24</speed>
<course>320.6</course>
<desc>Speed 4.5 km/h Distance 10.85 km</desc>
<time>2010-10-24T12:21:33.07</time>
<name>6443</name>
</trkpt>
<trkpt lat="48.938648" lon="8.668308">
<ele>387.5</ele>
<speed>1.37</speed>
<course>320.6</course>
<desc>Speed 4.9 km/h Distance 10.85 km</desc>
<time>2010-10-24T12:21:34.07</time>
<name>6444</name>
</trkpt>
<trkpt lat="48.938662" lon="8.668292">
<ele>387.5</ele>
<speed>1.26</speed>
<course>317.8</course>
<desc>Speed 4.5 km/h Distance 10.85 km</desc>
<time>2010-10-24T12:21:35.07</time>
<name>6445</name>
</trkpt>
<trkpt lat="48.938675" lon="8.668273">
<ele>388.0</ele>
<speed>1.24</speed>
<course>315.5</course>
<desc>Speed 4.5 km/h Distance 10.85 km</desc>
<time>2010-10-24T12:21:36.06</time>
<name>6446</name>
</trkpt>
<trkpt lat="48.938685" lon="8.668258">
<ele>388.0</ele>
<speed>1.42</speed>
<course>337.4</course>
<desc>Speed 5.1 km/h Distance 10.86 km</desc>
<time>2010-10-24T12:21:37.05</time>
<name>6447</name>
</trkpt>
<trkpt lat="48.938703" lon="8.668247">
<ele>388.0</ele>
<speed>1.14</speed>
<course>344.4</course>
<desc>Speed 4.1 km/h Distance 10.86 km</desc>
<time>2010-10-24T12:21:38.06</time>
<name>6448</name>
</trkpt>
<trkpt lat="48.938727" lon="8.668237">
<ele>386.0</ele>
<speed>2.24</speed>
<course>321.2</course>
<desc>Speed 8.1 km/h Distance 10.86 km</desc>
<time>2010-10-24T12:21:39.05</time>
<name>6449</name>
</trkpt>
<trkpt lat="48.938742" lon="8.668218">
<ele>385.5</ele>
<speed>1.49</speed>
<course>331.4</course>
<desc>Speed 5.4 km/h Distance 10.86 km</desc>
<time>2010-10-24T12:21:40.04</time>
<name>6450</name>
</trkpt>
<trkpt lat="48.938752" lon="8.668210">
<ele>385.5</ele>
<speed>1.00</speed>
<course>322.5</course>
<desc>Speed 3.6 km/h Distance 10.86 km</desc>
<time>2010-10-24T12:21:41.05</time>
<name>6451</name>
</trkpt>
<trkpt lat="48.938762" lon="8.668198">
<ele>385.5</ele>
<speed>0.92</speed>
<course>313.6</course>
<desc>Speed 3.3 km/h Distance 10.86 km</desc>
<time>2010-10-24T12:21:42.04</time>
<name>6452</name>
</trkpt>
<trkpt lat="48.938770" lon="8.668185">
<ele>385.5</ele>
<speed>1.03</speed>
<course>334.0</course>
<desc>Speed 3.7 km/h Distance 10.87 km</desc>
<time>2010-10-24T12:21:43.03</time>
<name>6453</name>
</trkpt>
<trkpt lat="48.938783" lon="8.668175">
<ele>385.5</ele>
<speed>1.24</speed>
<course>334.8</course>
<desc>Speed 4.5 km/h Distance 10.87 km</desc>
<time>2010-10-24T12:21:44.02</time>
<name>6454</name>
</trkpt>
<trkpt lat="48.938795" lon="8.668167">
<ele>385.5</ele>
<speed>1.12</speed>
<course>313.5</course>
<desc>Speed 4.0 km/h Distance 10.87 km</desc>
<time>2010-10-24T12:21:45.03</time>
<name>6455</name>
</trkpt>
<trkpt lat="48.938803" lon="8.668153">
<ele>385.5</ele>
<speed>1.19</speed>
<course>329.7</course>
<desc>Speed 4.3 km/h Distance 10.87 km</desc>
<time>2010-10-24T12:21:46.02</time>
<name>6456</name>
</trkpt>
<trkpt lat="48.938818" lon="8.668140">
<ele>385.5</ele>
<speed>1.37</speed>
<course>330.0</course>
<desc>Speed 4.9 km/h Distance 10.87 km</desc>
<time>2010-10-24T12:21:47.02</time>
<name>6457</name>
</trkpt>
<trkpt lat="48.938832" lon="8.668128">
<ele>385.5</ele>
<speed>1.28</speed>
<course>329.4</course>
<desc>Speed 4.6 km/h Distance 10.87 km</desc>
<time>2010-10-24T12:21:48.01</time>
<name>6458</name>
</trkpt>
<trkpt lat="48.938848" lon="8.668113">
<ele>385.5</ele>
<speed>1.29</speed>
<course>329.1</course>
<desc>Speed 4.6 km/h Distance 10.88 km</desc>
<time>2010-10-24T12:21:49.02</time>
<name>6459</name>
</trkpt>
<trkpt lat="48.938867" lon="8.668097">
<ele>385.5</ele>
<speed>1.48</speed>
<course>338.5</course>
<desc>Speed 5.3 km/h Distance 10.88 km</desc>
<time>2010-10-24T12:21:50.01</time>
<name>6460</name>
</trkpt>
<trkpt lat="48.938883" lon="8.668087">
<ele>385.5</ele>
<speed>1.42</speed>
<course>326.6</course>
<desc>Speed 5.1 km/h Distance 10.88 km</desc>
<time>2010-10-24T12:21:51.00</time>
<name>6461</name>
</trkpt>
<trkpt lat="48.938895" lon="8.668075">
<ele>385.5</ele>
<speed>1.25</speed>
<course>330.2</course>
<desc>Speed 4.5 km/h Distance 10.88 km</desc>
<time>2010-10-24T12:21:51.99</time>
<name>6462</name>
</trkpt>
<trkpt lat="48.938908" lon="8.668063">
<ele>385.5</ele>
<speed>1.23</speed>
<course>333.8</course>
<desc>Speed 4.4 km/h Distance 10.88 km</desc>
<time>2010-10-24T12:21:53.00</time>
<name>6463</name>
</trkpt>
<trkpt lat="48.938922" lon="8.668053">
<ele>385.5</ele>
<speed>1.22</speed>
<course>329.7</course>
<desc>Speed 4.4 km/h Distance 10.89 km</desc>
<time>2010-10-24T12:21:53.98</time>
<name>6464</name>
</trkpt>
<trkpt lat="48.938937" lon="8.668040">
<ele>385.5</ele>
<speed>1.42</speed>
<course>303.3</course>
<desc>Speed 5.1 km/h Distance 10.89 km</desc>
<time>2010-10-24T12:21:54.98</time>
<name>6465</name>
</trkpt>
<trkpt lat="48.938942" lon="8.668028">
<ele>385.5</ele>
<speed>0.88</speed>
<course>323.1</course>
<desc>Speed 3.2 km/h Distance 10.89 km</desc>
<time>2010-10-24T12:21:55.97</time>
<name>6466</name>
</trkpt>
<trkpt lat="48.938953" lon="8.668015">
<ele>385.5</ele>
<speed>1.25</speed>
<course>331.9</course>
<desc>Speed 4.5 km/h Distance 10.89 km</desc>
<time>2010-10-24T12:21:56.97</time>
<name>6467</name>
</trkpt>
<trkpt lat="48.938972" lon="8.668000">
<ele>384.5</ele>
<speed>1.61</speed>
<course>335.1</course>
<desc>Speed 5.8 km/h Distance 10.89 km</desc>
<time>2010-10-24T12:21:57.96</time>
<name>6468</name>
</trkpt>
<trkpt lat="48.938983" lon="8.667992">
<ele>384.5</ele>
<speed>1.14</speed>
<course>312.4</course>
<desc>Speed 4.1 km/h Distance 10.89 km</desc>
<time>2010-10-24T12:21:58.95</time>
<name>6469</name>
</trkpt>
<trkpt lat="48.938993" lon="8.667975">
<ele>384.5</ele>
<speed>1.23</speed>
<course>313.5</course>
<desc>Speed 4.4 km/h Distance 10.90 km</desc>
<time>2010-10-24T12:21:59.94</time>
<name>6470</name>
</trkpt>
<trkpt lat="48.939002" lon="8.667962">
<ele>384.5</ele>
<speed>1.26</speed>
<course>329.7</course>
<desc>Speed 4.5 km/h Distance 10.90 km</desc>
<time>2010-10-24T12:22:00.95</time>
<name>6471</name>
</trkpt>
<trkpt lat="48.939017" lon="8.667948">
<ele>383.5</ele>
<speed>1.49</speed>
<course>323.1</course>
<desc>Speed 5.4 km/h Distance 10.90 km</desc>
<time>2010-10-24T12:22:01.95</time>
<name>6472</name>
</trkpt>
<trkpt lat="48.939028" lon="8.667935">
<ele>383.5</ele>
<speed>1.38</speed>
<course>333.6</course>
<desc>Speed 5.0 km/h Distance 10.90 km</desc>
<time>2010-10-24T12:22:02.93</time>
<name>6473</name>
</trkpt>
<trkpt lat="48.939042" lon="8.667925">
<ele>383.5</ele>
<speed>1.15</speed>
<course>341.2</course>
<desc>Speed 4.1 km/h Distance 10.90 km</desc>
<time>2010-10-24T12:22:03.93</time>
<name>6474</name>
</trkpt>
<trkpt lat="48.939055" lon="8.667918">
<ele>383.5</ele>
<speed>1.21</speed>
<course>277.9</course>
<desc>Speed 4.4 km/h Distance 10.90 km</desc>
<time>2010-10-24T12:22:04.93</time>
<name>6475</name>
</trkpt>
<trkpt lat="48.939057" lon="8.667900">
<ele>385.0</ele>
<speed>1.08</speed>
<course>326.7</course>
<desc>Speed 3.9 km/h Distance 10.91 km</desc>
<time>2010-10-24T12:22:05.93</time>
<name>6476</name>
</trkpt>
<trkpt lat="48.939072" lon="8.667885">
<ele>385.0</ele>
<speed>1.16</speed>
<course>309.7</course>
<desc>Speed 4.2 km/h Distance 10.91 km</desc>
<time>2010-10-24T12:22:06.93</time>
<name>6477</name>
</trkpt>
<trkpt lat="48.939082" lon="8.667867">
<ele>385.0</ele>
<speed>1.03</speed>
<course>332.8</course>
<desc>Speed 3.7 km/h Distance 10.91 km</desc>
<time>2010-10-24T12:22:07.94</time>
<name>6478</name>
</trkpt>
<trkpt lat="48.939097" lon="8.667855">
<ele>385.0</ele>
<speed>1.36</speed>
<course>329.2</course>
<desc>Speed 4.9 km/h Distance 10.91 km</desc>
<time>2010-10-24T12:22:08.91</time>
<name>6479</name>
</trkpt>
<trkpt lat="48.939113" lon="8.667840">
<ele>383.5</ele>
<speed>1.98</speed>
<course>309.6</course>
<desc>Speed 7.1 km/h Distance 10.91 km</desc>
<time>2010-10-24T12:22:09.91</time>
<name>6480</name>
</trkpt>
<trkpt lat="48.939123" lon="8.667822">
<ele>383.5</ele>
<speed>1.38</speed>
<course>34.1</course>
<desc>Speed 5.0 km/h Distance 10.91 km</desc>
<time>2010-10-24T12:22:10.91</time>
<name>6481</name>
</trkpt>
<trkpt lat="48.939128" lon="8.667827">
<ele>383.0</ele>
<speed>1.08</speed>
<course>326.8</course>
<desc>Speed 3.9 km/h Distance 10.92 km</desc>
<time>2010-10-24T12:22:11.91</time>
<name>6482</name>
</trkpt>
<trkpt lat="48.939138" lon="8.667817">
<ele>383.0</ele>
<speed>1.24</speed>
<course>333.0</course>
<desc>Speed 4.5 km/h Distance 10.92 km</desc>
<time>2010-10-24T12:22:12.90</time>
<name>6483</name>
</trkpt>
<trkpt lat="48.939153" lon="8.667805">
<ele>382.5</ele>
<speed>1.37</speed>
<course>321.3</course>
<desc>Speed 4.9 km/h Distance 10.92 km</desc>
<time>2010-10-24T12:22:13.90</time>
<name>6484</name>
</trkpt>
<trkpt lat="48.939168" lon="8.667787">
<ele>382.0</ele>
<speed>1.50</speed>
<course>329.7</course>
<desc>Speed 5.4 km/h Distance 10.92 km</desc>
<time>2010-10-24T12:22:14.89</time>
<name>6485</name>
</trkpt>
<trkpt lat="48.939183" lon="8.667773">
<ele>381.5</ele>
<speed>1.27</speed>
<course>336.3</course>
<desc>Speed 4.6 km/h Distance 10.92 km</desc>
<time>2010-10-24T12:22:15.90</time>
<name>6486</name>
</trkpt>
<trkpt lat="48.939198" lon="8.667763">
<ele>381.5</ele>
<speed>1.41</speed>
<course>345.8</course>
<desc>Speed 5.1 km/h Distance 10.92 km</desc>
<time>2010-10-24T12:22:16.89</time>
<name>6487</name>
</trkpt>
<trkpt lat="48.939220" lon="8.667755">
<ele>380.0</ele>
<speed>2.08</speed>
<course>337.9</course>
<desc>Speed 7.5 km/h Distance 10.93 km</desc>
<time>2010-10-24T12:22:17.88</time>
<name>6488</name>
</trkpt>
<trkpt lat="48.939233" lon="8.667747">
<ele>380.0</ele>
<speed>1.25</speed>
<course>339.4</course>
<desc>Speed 4.5 km/h Distance 10.93 km</desc>
<time>2010-10-24T12:22:18.87</time>
<name>6489</name>
</trkpt>
<trkpt lat="48.939245" lon="8.667740">
<ele>380.0</ele>
<speed>1.12</speed>
<course>326.6</course>
<desc>Speed 4.0 km/h Distance 10.93 km</desc>
<time>2010-10-24T12:22:19.87</time>
<name>6490</name>
</trkpt>
<trkpt lat="48.939257" lon="8.667728">
<ele>379.5</ele>
<speed>1.36</speed>
<course>326.7</course>
<desc>Speed 4.9 km/h Distance 10.93 km</desc>
<time>2010-10-24T12:22:20.87</time>
<name>6491</name>
</trkpt>
<trkpt lat="48.939273" lon="8.667712">
<ele>378.5</ele>
<speed>1.79</speed>
<course>331.8</course>
<desc>Speed 6.4 km/h Distance 10.93 km</desc>
<time>2010-10-24T12:22:21.86</time>
<name>6492</name>
</trkpt>
<trkpt lat="48.939292" lon="8.667697">
<ele>378.0</ele>
<speed>1.32</speed>
<course>326.7</course>
<desc>Speed 4.8 km/h Distance 10.94 km</desc>
<time>2010-10-24T12:22:22.86</time>
<name>6493</name>
</trkpt>
<trkpt lat="48.939303" lon="8.667685">
<ele>378.0</ele>
<speed>1.25</speed>
<course>324.4</course>
<desc>Speed 4.5 km/h Distance 10.94 km</desc>
<time>2010-10-24T12:22:23.86</time>
<name>6494</name>
</trkpt>
<trkpt lat="48.939322" lon="8.667665">
<ele>377.5</ele>
<speed>1.25</speed>
<course>301.4</course>
<desc>Speed 4.5 km/h Distance 10.94 km</desc>
<time>2010-10-24T12:22:24.85</time>
<name>6495</name>
</trkpt>
<trkpt lat="48.939328" lon="8.667648">
<ele>378.0</ele>
<speed>1.08</speed>
<course>323.8</course>
<desc>Speed 3.9 km/h Distance 10.94 km</desc>
<time>2010-10-24T12:22:25.84</time>
<name>6496</name>
</trkpt>
<trkpt lat="48.939343" lon="8.667632">
<ele>377.0</ele>
<speed>1.49</speed>
<course>319.8</course>
<desc>Speed 5.4 km/h Distance 10.94 km</desc>
<time>2010-10-24T12:22:26.84</time>
<name>6497</name>
</trkpt>
<trkpt lat="48.939355" lon="8.667617">
<ele>377.0</ele>
<speed>1.37</speed>
<course>309.7</course>
<desc>Speed 4.9 km/h Distance 10.95 km</desc>
<time>2010-10-24T12:22:27.83</time>
<name>6498</name>
</trkpt>
<trkpt lat="48.939365" lon="8.667598">
<ele>377.0</ele>
<speed>1.45</speed>
<course>333.2</course>
<desc>Speed 5.2 km/h Distance 10.95 km</desc>
<time>2010-10-24T12:22:28.83</time>
<name>6499</name>
</trkpt>
<trkpt lat="48.939387" lon="8.667582">
<ele>375.0</ele>
<speed>2.16</speed>
<course>316.5</course>
<desc>Speed 7.8 km/h Distance 10.95 km</desc>
<time>2010-10-24T12:22:29.84</time>
<name>6500</name>
</trkpt>
<trkpt lat="48.939402" lon="8.667560">
<ele>374.5</ele>
<speed>1.67</speed>
<course>321.2</course>
<desc>Speed 6.0 km/h Distance 10.95 km</desc>
<time>2010-10-24T12:22:30.83</time>
<name>6501</name>
</trkpt>
<trkpt lat="48.939417" lon="8.667542">
<ele>374.0</ele>
<speed>1.32</speed>
<course>326.7</course>
<desc>Speed 4.8 km/h Distance 10.95 km</desc>
<time>2010-10-24T12:22:31.83</time>
<name>6502</name>
</trkpt>
<trkpt lat="48.939433" lon="8.667525">
<ele>373.5</ele>
<speed>1.20</speed>
<course>316.5</course>
<desc>Speed 4.3 km/h Distance 10.96 km</desc>
<time>2010-10-24T12:22:32.84</time>
<name>6503</name>
</trkpt>
<trkpt lat="48.939448" lon="8.667503">
<ele>372.5</ele>
<speed>1.51</speed>
<course>323.4</course>
<desc>Speed 5.4 km/h Distance 10.96 km</desc>
<time>2010-10-24T12:22:33.83</time>
<name>6504</name>
</trkpt>
<trkpt lat="48.939462" lon="8.667488">
<ele>372.0</ele>
<speed>1.25</speed>
<course>316.7</course>
<desc>Speed 4.5 km/h Distance 10.96 km</desc>
<time>2010-10-24T12:22:34.83</time>
<name>6505</name>
</trkpt>
<trkpt lat="48.939473" lon="8.667472">
<ele>371.5</ele>
<speed>1.19</speed>
<course>315.5</course>
<desc>Speed 4.3 km/h Distance 10.96 km</desc>
<time>2010-10-24T12:22:35.82</time>
<name>6506</name>
</trkpt>
<trkpt lat="48.939487" lon="8.667452">
<ele>371.5</ele>
<speed>1.34</speed>
<course>314.1</course>
<desc>Speed 4.8 km/h Distance 10.96 km</desc>
<time>2010-10-24T12:22:36.82</time>
<name>6507</name>
</trkpt>
<trkpt lat="48.939498" lon="8.667433">
<ele>371.0</ele>
<speed>1.33</speed>
<course>314.1</course>
<desc>Speed 4.8 km/h Distance 10.97 km</desc>
<time>2010-10-24T12:22:37.80</time>
<name>6508</name>
</trkpt>
<trkpt lat="48.939510" lon="8.667415">
<ele>370.5</ele>
<speed>1.27</speed>
<course>316.9</course>
<desc>Speed 4.6 km/h Distance 10.97 km</desc>
<time>2010-10-24T12:22:38.80</time>
<name>6509</name>
</trkpt>
<trkpt lat="48.939522" lon="8.667398">
<ele>370.0</ele>
<speed>1.23</speed>
<course>321.2</course>
<desc>Speed 4.4 km/h Distance 10.97 km</desc>
<time>2010-10-24T12:22:39.80</time>
<name>6510</name>
</trkpt>
<trkpt lat="48.939537" lon="8.667380">
<ele>370.0</ele>
<speed>1.37</speed>
<course>296.9</course>
<desc>Speed 4.9 km/h Distance 10.97 km</desc>
<time>2010-10-24T12:22:40.80</time>
<name>6511</name>
</trkpt>
<trkpt lat="48.939545" lon="8.667355">
<ele>370.0</ele>
<speed>1.42</speed>
<course>319.6</course>
<desc>Speed 5.1 km/h Distance 10.97 km</desc>
<time>2010-10-24T12:22:41.79</time>
<name>6512</name>
</trkpt>
<trkpt lat="48.939562" lon="8.667333">
<ele>369.5</ele>
<speed>1.50</speed>
<course>324.4</course>
<desc>Speed 5.4 km/h Distance 10.98 km</desc>
<time>2010-10-24T12:22:42.79</time>
<name>6513</name>
</trkpt>
<trkpt lat="48.939580" lon="8.667313">
<ele>369.0</ele>
<speed>1.54</speed>
<course>313.1</course>
<desc>Speed 5.5 km/h Distance 10.98 km</desc>
<time>2010-10-24T12:22:43.78</time>
<name>6514</name>
</trkpt>
<trkpt lat="48.939593" lon="8.667292">
<ele>369.0</ele>
<speed>1.40</speed>
<course>319.8</course>
<desc>Speed 5.0 km/h Distance 10.98 km</desc>
<time>2010-10-24T12:22:44.78</time>
<name>6515</name>
</trkpt>
<trkpt lat="48.939605" lon="8.667277">
<ele>368.0</ele>
<speed>1.47</speed>
<course>323.1</course>
<desc>Speed 5.3 km/h Distance 10.98 km</desc>
<time>2010-10-24T12:22:45.77</time>
<name>6516</name>
</trkpt>
<trkpt lat="48.939617" lon="8.667263">
<ele>368.0</ele>
<speed>1.47</speed>
<course>319.7</course>
<desc>Speed 5.3 km/h Distance 10.98 km</desc>
<time>2010-10-24T12:22:46.77</time>
<name>6517</name>
</trkpt>
<trkpt lat="48.939628" lon="8.667248">
<ele>367.5</ele>
<speed>1.47</speed>
<course>311.6</course>
<desc>Speed 5.3 km/h Distance 10.99 km</desc>
<time>2010-10-24T12:22:47.77</time>
<name>6518</name>
</trkpt>
<trkpt lat="48.939640" lon="8.667228">
<ele>367.5</ele>
<speed>1.62</speed>
<course>284.2</course>
<desc>Speed 5.8 km/h Distance 10.99 km</desc>
<time>2010-10-24T12:22:48.76</time>
<name>6519</name>
</trkpt>
<trkpt lat="48.939643" lon="8.667208">
<ele>369.0</ele>
<speed>1.28</speed>
<course>323.4</course>
<desc>Speed 4.6 km/h Distance 10.99 km</desc>
<time>2010-10-24T12:22:49.76</time>
<name>6520</name>
</trkpt>
<trkpt lat="48.939657" lon="8.667193">
<ele>369.0</ele>
<speed>1.36</speed>
<course>347.4</course>
<desc>Speed 4.9 km/h Distance 10.99 km</desc>
<time>2010-10-24T12:22:50.75</time>
<name>6521</name>
</trkpt>
<trkpt lat="48.939672" lon="8.667188">
<ele>369.0</ele>
<speed>1.25</speed>
<course>333.6</course>
<desc>Speed 4.5 km/h Distance 10.99 km</desc>
<time>2010-10-24T12:22:51.75</time>
<name>6522</name>
</trkpt>
<trkpt lat="48.939685" lon="8.667178">
<ele>369.0</ele>
<speed>1.29</speed>
<course>334.8</course>
<desc>Speed 4.6 km/h Distance 10.99 km</desc>
<time>2010-10-24T12:22:52.74</time>
<name>6523</name>
</trkpt>
<trkpt lat="48.939697" lon="8.667170">
<ele>369.0</ele>
<speed>1.50</speed>
<course>310.9</course>
<desc>Speed 5.4 km/h Distance 11.00 km</desc>
<time>2010-10-24T12:22:53.73</time>
<name>6524</name>
</trkpt>
<trkpt lat="48.939703" lon="8.667158">
<ele>369.0</ele>
<speed>1.12</speed>
<course>307.3</course>
<desc>Speed 4.0 km/h Distance 11.00 km</desc>
<time>2010-10-24T12:22:54.73</time>
<name>6525</name>
</trkpt>
<trkpt lat="48.939712" lon="8.667142">
<ele>369.5</ele>
<speed>1.44</speed>
<course>295.1</course>
<desc>Speed 5.2 km/h Distance 11.00 km</desc>
<time>2010-10-24T12:22:55.73</time>
<name>6526</name>
</trkpt>
<trkpt lat="48.939718" lon="8.667120">
<ele>369.5</ele>
<speed>1.33</speed>
<course>277.2</course>
<desc>Speed 4.8 km/h Distance 11.00 km</desc>
<time>2010-10-24T12:22:56.73</time>
<name>6527</name>
</trkpt>
<trkpt lat="48.939720" lon="8.667100">
<ele>370.0</ele>
<speed>1.19</speed>
<course>320.6</course>
<desc>Speed 4.3 km/h Distance 11.00 km</desc>
<time>2010-10-24T12:22:57.73</time>
<name>6528</name>
</trkpt>
<trkpt lat="48.939733" lon="8.667083">
<ele>370.5</ele>
<speed>1.20</speed>
<course>295.1</course>
<desc>Speed 4.3 km/h Distance 11.00 km</desc>
<time>2010-10-24T12:22:58.73</time>
<name>6529</name>
</trkpt>
<trkpt lat="48.939740" lon="8.667062">
<ele>370.5</ele>
<speed>1.25</speed>
<course>300.3</course>
<desc>Speed 4.5 km/h Distance 11.01 km</desc>
<time>2010-10-24T12:22:59.72</time>
<name>6530</name>
</trkpt>
<trkpt lat="48.939748" lon="8.667040">
<ele>371.0</ele>
<speed>1.42</speed>
<course>317.9</course>
<desc>Speed 5.1 km/h Distance 11.01 km</desc>
<time>2010-10-24T12:23:00.72</time>
<name>6531</name>
</trkpt>
<trkpt lat="48.939762" lon="8.667022">
<ele>371.0</ele>
<speed>1.38</speed>
<course>320.6</course>
<desc>Speed 5.0 km/h Distance 11.01 km</desc>
<time>2010-10-24T12:23:01.71</time>
<name>6532</name>
</trkpt>
<trkpt lat="48.939775" lon="8.667005">
<ele>371.0</ele>
<speed>1.50</speed>
<course>336.3</course>
<desc>Speed 5.4 km/h Distance 11.01 km</desc>
<time>2010-10-24T12:23:02.71</time>
<name>6533</name>
</trkpt>
<trkpt lat="48.939790" lon="8.666995">
<ele>371.0</ele>
<speed>1.29</speed>
<course>329.7</course>
<desc>Speed 4.6 km/h Distance 11.01 km</desc>
<time>2010-10-24T12:23:03.70</time>
<name>6534</name>
</trkpt>
<trkpt lat="48.939805" lon="8.666982">
<ele>371.0</ele>
<speed>1.20</speed>
<course>290.9</course>
<desc>Speed 4.3 km/h Distance 11.02 km</desc>
<time>2010-10-24T12:23:04.69</time>
<name>6535</name>
</trkpt>
<trkpt lat="48.939808" lon="8.666968">
<ele>372.0</ele>
<speed>0.97</speed>
<course>322.5</course>
<desc>Speed 3.5 km/h Distance 11.02 km</desc>
<time>2010-10-24T12:23:05.69</time>
<name>6536</name>
</trkpt>
<trkpt lat="48.939818" lon="8.666957">
<ele>372.0</ele>
<speed>1.32</speed>
<course>326.9</course>
<desc>Speed 4.8 km/h Distance 11.02 km</desc>
<time>2010-10-24T12:23:06.70</time>
<name>6537</name>
</trkpt>
<trkpt lat="48.939830" lon="8.666945">
<ele>372.5</ele>
<speed>1.23</speed>
<course>326.7</course>
<desc>Speed 4.4 km/h Distance 11.02 km</desc>
<time>2010-10-24T12:23:07.69</time>
<name>6538</name>
</trkpt>
<trkpt lat="48.939843" lon="8.666932">
<ele>372.5</ele>
<speed>1.38</speed>
<course>341.9</course>
<desc>Speed 5.0 km/h Distance 11.02 km</desc>
<time>2010-10-24T12:23:08.68</time>
<name>6539</name>
</trkpt>
<trkpt lat="48.939857" lon="8.666925">
<ele>371.5</ele>
<speed>1.62</speed>
<course>352.6</course>
<desc>Speed 5.8 km/h Distance 11.02 km</desc>
<time>2010-10-24T12:23:09.67</time>
<name>6540</name>
</trkpt>
<trkpt lat="48.939863" lon="8.666923">
<ele>371.0</ele>
<speed>0.50</speed>
<course>293.5</course>
<desc>Speed 1.8 km/h Distance 11.02 km</desc>
<time>2010-10-24T12:23:10.67</time>
<name>6541</name>
</trkpt>
<trkpt lat="48.939870" lon="8.666900">
<ele>372.5</ele>
<speed>0.36</speed>
<course>8.1</course>
<desc>Speed 1.3 km/h Distance 11.03 km</desc>
<time>2010-10-24T12:23:21.67</time>
<name>6542</name>
</trkpt>
<trkpt lat="48.939875" lon="8.666900">
<ele>372.5</ele>
<speed>0.43</speed>
<course>326.3</course>
<desc>Speed 1.5 km/h Distance 11.03 km</desc>
<time>2010-10-24T12:23:22.67</time>
<name>6543</name>
</trkpt>
<trkpt lat="48.939878" lon="8.666897">
<ele>372.5</ele>
<speed>0.37</speed>
<course>280.7</course>
<desc>Speed 1.3 km/h Distance 11.03 km</desc>
<time>2010-10-24T12:23:23.70</time>
<name>6544</name>
</trkpt>
<trkpt lat="48.939880" lon="8.666883">
<ele>373.0</ele>
<speed>0.70</speed>
<course>288.7</course>
<desc>Speed 2.5 km/h Distance 11.03 km</desc>
<time>2010-10-24T12:23:24.66</time>
<name>6545</name>
</trkpt>
<trkpt lat="48.939883" lon="8.666868">
<ele>373.0</ele>
<speed>1.01</speed>
<course>326.6</course>
<desc>Speed 3.6 km/h Distance 11.03 km</desc>
<time>2010-10-24T12:23:25.65</time>
<name>6546</name>
</trkpt>
<trkpt lat="48.939897" lon="8.666855">
<ele>373.0</ele>
<speed>1.13</speed>
<course>320.6</course>
<desc>Speed 4.1 km/h Distance 11.03 km</desc>
<time>2010-10-24T12:23:26.65</time>
<name>6547</name>
</trkpt>
<trkpt lat="48.939910" lon="8.666838">
<ele>373.5</ele>
<speed>1.17</speed>
<course>317.4</course>
<desc>Speed 4.2 km/h Distance 11.03 km</desc>
<time>2010-10-24T12:23:27.65</time>
<name>6548</name>
</trkpt>
<trkpt lat="48.939927" lon="8.666815">
<ele>374.0</ele>
<speed>1.37</speed>
<course>329.3</course>
<desc>Speed 4.9 km/h Distance 11.03 km</desc>
<time>2010-10-24T12:23:28.64</time>
<name>6549</name>
</trkpt>
<trkpt lat="48.939943" lon="8.666800">
<ele>374.5</ele>
<speed>1.01</speed>
<course>338.9</course>
<desc>Speed 3.6 km/h Distance 11.04 km</desc>
<time>2010-10-24T12:23:29.64</time>
<name>6550</name>
</trkpt>
<trkpt lat="48.939992" lon="8.666772">
<ele>371.0</ele>
<speed>1.37</speed>
<course>332.8</course>
<desc>Speed 4.9 km/h Distance 11.04 km</desc>
<time>2010-10-24T12:23:31.64</time>
<name>6551</name>
</trkpt>
<trkpt lat="48.940007" lon="8.666760">
<ele>371.0</ele>
<speed>1.12</speed>
<course>341.9</course>
<desc>Speed 4.0 km/h Distance 11.04 km</desc>
<time>2010-10-24T12:23:32.64</time>
<name>6552</name>
</trkpt>
<trkpt lat="48.940023" lon="8.666752">
<ele>371.0</ele>
<speed>1.25</speed>
<course>307.3</course>
<desc>Speed 4.5 km/h Distance 11.05 km</desc>
<time>2010-10-24T12:23:33.63</time>
<name>6553</name>
</trkpt>
<trkpt lat="48.940032" lon="8.666735">
<ele>371.0</ele>
<speed>1.11</speed>
<course>321.9</course>
<desc>Speed 4.0 km/h Distance 11.05 km</desc>
<time>2010-10-24T12:23:34.62</time>
<name>6554</name>
</trkpt>
<trkpt lat="48.940040" lon="8.666725">
<ele>371.5</ele>
<speed>1.03</speed>
<course>330.2</course>
<desc>Speed 3.7 km/h Distance 11.05 km</desc>
<time>2010-10-24T12:23:35.62</time>
<name>6555</name>
</trkpt>
<trkpt lat="48.940053" lon="8.666713">
<ele>371.5</ele>
<speed>1.35</speed>
<course>312.4</course>
<desc>Speed 4.9 km/h Distance 11.05 km</desc>
<time>2010-10-24T12:23:36.61</time>
<name>6556</name>
</trkpt>
<trkpt lat="48.940063" lon="8.666697">
<ele>371.5</ele>
<speed>1.19</speed>
<course>279.6</course>
<desc>Speed 4.3 km/h Distance 11.05 km</desc>
<time>2010-10-24T12:23:37.61</time>
<name>6557</name>
</trkpt>
<trkpt lat="48.940065" lon="8.666682">
<ele>373.0</ele>
<speed>0.73</speed>
<course>302.4</course>
<desc>Speed 2.6 km/h Distance 11.05 km</desc>
<time>2010-10-24T12:23:38.60</time>
<name>6558</name>
</trkpt>
<trkpt lat="48.940073" lon="8.666662">
<ele>373.5</ele>
<speed>1.04</speed>
<course>307.3</course>
<desc>Speed 3.7 km/h Distance 11.06 km</desc>
<time>2010-10-24T12:23:39.59</time>
<name>6559</name>
</trkpt>
<trkpt lat="48.940082" lon="8.666645">
<ele>373.5</ele>
<speed>1.11</speed>
<course>319.8</course>
<desc>Speed 4.0 km/h Distance 11.06 km</desc>
<time>2010-10-24T12:23:40.58</time>
<name>6560</name>
</trkpt>
<trkpt lat="48.940093" lon="8.666630">
<ele>373.5</ele>
<speed>1.12</speed>
<course>304.6</course>
<desc>Speed 4.0 km/h Distance 11.06 km</desc>
<time>2010-10-24T12:23:41.58</time>
<name>6561</name>
</trkpt>
<trkpt lat="48.940102" lon="8.666612">
<ele>374.5</ele>
<speed>1.12</speed>
<course>318.6</course>
<desc>Speed 4.0 km/h Distance 11.06 km</desc>
<time>2010-10-24T12:23:42.57</time>
<name>6562</name>
</trkpt>
<trkpt lat="48.940112" lon="8.666598">
<ele>374.5</ele>
<speed>1.00</speed>
<course>341.8</course>
<desc>Speed 3.6 km/h Distance 11.06 km</desc>
<time>2010-10-24T12:23:43.56</time>
<name>6563</name>
</trkpt>
<trkpt lat="48.940132" lon="8.666588">
<ele>374.0</ele>
<speed>1.10</speed>
<course>329.1</course>
<desc>Speed 4.0 km/h Distance 11.06 km</desc>
<time>2010-10-24T12:23:44.56</time>
<name>6564</name>
</trkpt>
<trkpt lat="48.940150" lon="8.666572">
<ele>374.0</ele>
<speed>1.49</speed>
<course>341.8</course>
<desc>Speed 5.4 km/h Distance 11.07 km</desc>
<time>2010-10-24T12:23:45.55</time>
<name>6565</name>
</trkpt>
<trkpt lat="48.940207" lon="8.666543">
<ele>368.5</ele>
<speed>1.64</speed>
<course>320.6</course>
<desc>Speed 5.9 km/h Distance 11.07 km</desc>
<time>2010-10-24T12:23:47.55</time>
<name>6566</name>
</trkpt>
<trkpt lat="48.940220" lon="8.666527">
<ele>368.5</ele>
<speed>1.35</speed>
<course>315.3</course>
<desc>Speed 4.9 km/h Distance 11.08 km</desc>
<time>2010-10-24T12:23:48.54</time>
<name>6567</name>
</trkpt>
<trkpt lat="48.940233" lon="8.666507">
<ele>368.5</ele>
<speed>1.61</speed>
<course>309.7</course>
<desc>Speed 5.8 km/h Distance 11.08 km</desc>
<time>2010-10-24T12:23:49.54</time>
<name>6568</name>
</trkpt>
<trkpt lat="48.940243" lon="8.666488">
<ele>368.0</ele>
<speed>1.35</speed>
<course>312.5</course>
<desc>Speed 4.9 km/h Distance 11.08 km</desc>
<time>2010-10-24T12:23:50.54</time>
<name>6569</name>
</trkpt>
<trkpt lat="48.940253" lon="8.666472">
<ele>367.5</ele>
<speed>1.32</speed>
<course>315.5</course>
<desc>Speed 4.8 km/h Distance 11.08 km</desc>
<time>2010-10-24T12:23:51.53</time>
<name>6570</name>
</trkpt>
<trkpt lat="48.940263" lon="8.666457">
<ele>368.0</ele>
<speed>1.33</speed>
<course>326.7</course>
<desc>Speed 4.8 km/h Distance 11.08 km</desc>
<time>2010-10-24T12:23:52.53</time>
<name>6571</name>
</trkpt>
<trkpt lat="48.940277" lon="8.666443">
<ele>368.0</ele>
<speed>1.50</speed>
<course>326.8</course>
<desc>Speed 5.4 km/h Distance 11.08 km</desc>
<time>2010-10-24T12:23:53.53</time>
<name>6572</name>
</trkpt>
<trkpt lat="48.940287" lon="8.666433">
<ele>367.5</ele>
<speed>1.27</speed>
<course>326.6</course>
<desc>Speed 4.6 km/h Distance 11.09 km</desc>
<time>2010-10-24T12:23:54.53</time>
<name>6573</name>
</trkpt>
<trkpt lat="48.940298" lon="8.666422">
<ele>367.0</ele>
<speed>1.14</speed>
<course>304.1</course>
<desc>Speed 4.1 km/h Distance 11.09 km</desc>
<time>2010-10-24T12:23:55.52</time>
<name>6574</name>
</trkpt>
<trkpt lat="48.940305" lon="8.666407">
<ele>367.0</ele>
<speed>1.20</speed>
<course>318.8</course>
<desc>Speed 4.3 km/h Distance 11.09 km</desc>
<time>2010-10-24T12:23:56.51</time>
<name>6575</name>
</trkpt>
<trkpt lat="48.940315" lon="8.666393">
<ele>367.0</ele>
<speed>1.29</speed>
<course>332.3</course>
<desc>Speed 4.6 km/h Distance 11.09 km</desc>
<time>2010-10-24T12:23:57.51</time>
<name>6576</name>
</trkpt>
<trkpt lat="48.940332" lon="8.666380">
<ele>365.5</ele>
<speed>1.74</speed>
<course>329.7</course>
<desc>Speed 6.3 km/h Distance 11.09 km</desc>
<time>2010-10-24T12:23:58.50</time>
<name>6577</name>
</trkpt>
<trkpt lat="48.940347" lon="8.666367">
<ele>365.0</ele>
<speed>1.46</speed>
<course>319.7</course>
<desc>Speed 5.3 km/h Distance 11.09 km</desc>
<time>2010-10-24T12:23:59.50</time>
<name>6578</name>
</trkpt>
<trkpt lat="48.940358" lon="8.666352">
<ele>365.0</ele>
<speed>1.37</speed>
<course>314.1</course>
<desc>Speed 4.9 km/h Distance 11.10 km</desc>
<time>2010-10-24T12:24:00.49</time>
<name>6579</name>
</trkpt>
<trkpt lat="48.940370" lon="8.666333">
<ele>365.5</ele>
<speed>1.29</speed>
<course>333.0</course>
<desc>Speed 4.6 km/h Distance 11.10 km</desc>
<time>2010-10-24T12:24:01.49</time>
<name>6580</name>
</trkpt>
<trkpt lat="48.940385" lon="8.666322">
<ele>364.5</ele>
<speed>1.87</speed>
<course>320.6</course>
<desc>Speed 6.7 km/h Distance 11.10 km</desc>
<time>2010-10-24T12:24:02.49</time>
<name>6581</name>
</trkpt>
<trkpt lat="48.940398" lon="8.666305">
<ele>363.5</ele>
<speed>1.40</speed>
<course>311.6</course>
<desc>Speed 5.0 km/h Distance 11.10 km</desc>
<time>2010-10-24T12:24:03.48</time>
<name>6582</name>
</trkpt>
<trkpt lat="48.940410" lon="8.666285">
<ele>363.5</ele>
<speed>1.62</speed>
<course>331.8</course>
<desc>Speed 5.8 km/h Distance 11.10 km</desc>
<time>2010-10-24T12:24:04.48</time>
<name>6583</name>
</trkpt>
<trkpt lat="48.940428" lon="8.666270">
<ele>363.5</ele>
<speed>1.47</speed>
<course>326.7</course>
<desc>Speed 5.3 km/h Distance 11.11 km</desc>
<time>2010-10-24T12:24:05.48</time>
<name>6584</name>
</trkpt>
<trkpt lat="48.940445" lon="8.666253">
<ele>362.5</ele>
<speed>1.26</speed>
<course>304.1</course>
<desc>Speed 4.5 km/h Distance 11.11 km</desc>
<time>2010-10-24T12:24:06.48</time>
<name>6585</name>
</trkpt>
<trkpt lat="48.940452" lon="8.666238">
<ele>361.5</ele>
<speed>1.19</speed>
<course>307.3</course>
<desc>Speed 4.3 km/h Distance 11.11 km</desc>
<time>2010-10-24T12:24:07.47</time>
<name>6586</name>
</trkpt>
<trkpt lat="48.940460" lon="8.666222">
<ele>361.5</ele>
<speed>1.15</speed>
<course>339.9</course>
<desc>Speed 4.1 km/h Distance 11.11 km</desc>
<time>2010-10-24T12:24:08.47</time>
<name>6587</name>
</trkpt>
<trkpt lat="48.940475" lon="8.666213">
<ele>360.5</ele>
<speed>1.27</speed>
<course>336.3</course>
<desc>Speed 4.6 km/h Distance 11.11 km</desc>
<time>2010-10-24T12:24:09.47</time>
<name>6588</name>
</trkpt>
<trkpt lat="48.940490" lon="8.666203">
<ele>360.5</ele>
<speed>1.37</speed>
<course>333.6</course>
<desc>Speed 4.9 km/h Distance 11.11 km</desc>
<time>2010-10-24T12:24:10.47</time>
<name>6589</name>
</trkpt>
<trkpt lat="48.940497" lon="8.666198">
<ele>362.5</ele>
<speed>0.34</speed>
<course>334.8</course>
<desc>Speed 1.2 km/h Distance 11.11 km</desc>
<time>2010-10-24T12:24:11.47</time>
<name>6590</name>
</trkpt>
<trkpt lat="48.940508" lon="8.666190">
<ele>363.0</ele>
<speed>1.34</speed>
<course>317.8</course>
<desc>Speed 4.8 km/h Distance 11.12 km</desc>
<time>2010-10-24T12:24:12.46</time>
<name>6591</name>
</trkpt>
<trkpt lat="48.940522" lon="8.666172">
<ele>362.5</ele>
<speed>1.25</speed>
<course>329.7</course>
<desc>Speed 4.5 km/h Distance 11.12 km</desc>
<time>2010-10-24T12:24:13.46</time>
<name>6592</name>
</trkpt>
<trkpt lat="48.940537" lon="8.666158">
<ele>362.5</ele>
<speed>1.39</speed>
<course>309.7</course>
<desc>Speed 5.0 km/h Distance 11.12 km</desc>
<time>2010-10-24T12:24:14.45</time>
<name>6593</name>
</trkpt>
<trkpt lat="48.940547" lon="8.666140">
<ele>362.5</ele>
<speed>1.38</speed>
<course>304.7</course>
<desc>Speed 5.0 km/h Distance 11.12 km</desc>
<time>2010-10-24T12:24:15.46</time>
<name>6594</name>
</trkpt>
<trkpt lat="48.940555" lon="8.666122">
<ele>362.5</ele>
<speed>1.36</speed>
<course>330.6</course>
<desc>Speed 4.9 km/h Distance 11.12 km</desc>
<time>2010-10-24T12:24:16.46</time>
<name>6595</name>
</trkpt>
<trkpt lat="48.940567" lon="8.666112">
<ele>362.5</ele>
<speed>1.07</speed>
<course>317.4</course>
<desc>Speed 3.9 km/h Distance 11.12 km</desc>
<time>2010-10-24T12:24:17.46</time>
<name>6596</name>
</trkpt>
<trkpt lat="48.940575" lon="8.666100">
<ele>362.0</ele>
<speed>0.99</speed>
<course>307.3</course>
<desc>Speed 3.6 km/h Distance 11.13 km</desc>
<time>2010-10-24T12:24:18.46</time>
<name>6597</name>
</trkpt>
<trkpt lat="48.940582" lon="8.666087">
<ele>362.5</ele>
<speed>1.21</speed>
<course>326.7</course>
<desc>Speed 4.4 km/h Distance 11.13 km</desc>
<time>2010-10-24T12:24:19.45</time>
<name>6598</name>
</trkpt>
<trkpt lat="48.940597" lon="8.666072">
<ele>362.0</ele>
<speed>1.41</speed>
<course>329.4</course>
<desc>Speed 5.1 km/h Distance 11.13 km</desc>
<time>2010-10-24T12:24:20.45</time>
<name>6599</name>
</trkpt>
<trkpt lat="48.940613" lon="8.666057">
<ele>361.5</ele>
<speed>1.35</speed>
<course>329.7</course>
<desc>Speed 4.9 km/h Distance 11.13 km</desc>
<time>2010-10-24T12:24:21.44</time>
<name>6600</name>
</trkpt>
<trkpt lat="48.940628" lon="8.666043">
<ele>361.0</ele>
<speed>1.22</speed>
<course>336.3</course>
<desc>Speed 4.4 km/h Distance 11.13 km</desc>
<time>2010-10-24T12:24:22.44</time>
<name>6601</name>
</trkpt>
<trkpt lat="48.940643" lon="8.666033">
<ele>360.0</ele>
<speed>1.39</speed>
<course>299.7</course>
<desc>Speed 5.0 km/h Distance 11.14 km</desc>
<time>2010-10-24T12:24:23.43</time>
<name>6602</name>
</trkpt>
<trkpt lat="48.940648" lon="8.666020">
<ele>361.5</ele>
<speed>0.83</speed>
<course>326.7</course>
<desc>Speed 3.0 km/h Distance 11.14 km</desc>
<time>2010-10-24T12:24:24.43</time>
<name>6603</name>
</trkpt>
<trkpt lat="48.940660" lon="8.666008">
<ele>362.0</ele>
<speed>1.29</speed>
<course>313.6</course>
<desc>Speed 4.6 km/h Distance 11.14 km</desc>
<time>2010-10-24T12:24:25.41</time>
<name>6604</name>
</trkpt>
<trkpt lat="48.940668" lon="8.665995">
<ele>362.0</ele>
<speed>1.08</speed>
<course>326.8</course>
<desc>Speed 3.9 km/h Distance 11.14 km</desc>
<time>2010-10-24T12:24:26.41</time>
<name>6605</name>
</trkpt>
<trkpt lat="48.940678" lon="8.665985">
<ele>362.0</ele>
<speed>1.22</speed>
<course>330.6</course>
<desc>Speed 4.4 km/h Distance 11.14 km</desc>
<time>2010-10-24T12:24:27.41</time>
<name>6606</name>
</trkpt>
<trkpt lat="48.940690" lon="8.665975">
<ele>362.0</ele>
<speed>1.39</speed>
<course>326.7</course>
<desc>Speed 5.0 km/h Distance 11.14 km</desc>
<time>2010-10-24T12:24:28.40</time>
<name>6607</name>
</trkpt>
<trkpt lat="48.940702" lon="8.665963">
<ele>362.0</ele>
<speed>1.40</speed>
<course>326.8</course>
<desc>Speed 5.0 km/h Distance 11.14 km</desc>
<time>2010-10-24T12:24:29.40</time>
<name>6608</name>
</trkpt>
<trkpt lat="48.940712" lon="8.665953">
<ele>362.0</ele>
<speed>1.24</speed>
<course>312.4</course>
<desc>Speed 4.5 km/h Distance 11.15 km</desc>
<time>2010-10-24T12:24:30.39</time>
<name>6609</name>
</trkpt>
<trkpt lat="48.940722" lon="8.665937">
<ele>362.5</ele>
<speed>1.32</speed>
<course>310.3</course>
<desc>Speed 4.8 km/h Distance 11.15 km</desc>
<time>2010-10-24T12:24:31.39</time>
<name>6610</name>
</trkpt>
<trkpt lat="48.940730" lon="8.665922">
<ele>363.0</ele>
<speed>1.32</speed>
<course>307.3</course>
<desc>Speed 4.8 km/h Distance 11.15 km</desc>
<time>2010-10-24T12:24:32.39</time>
<name>6611</name>
</trkpt>
<trkpt lat="48.940742" lon="8.665898">
<ele>363.5</ele>
<speed>1.63</speed>
<course>302.4</course>
<desc>Speed 5.9 km/h Distance 11.15 km</desc>
<time>2010-10-24T12:24:33.38</time>
<name>6612</name>
</trkpt>
<trkpt lat="48.940750" lon="8.665878">
<ele>363.5</ele>
<speed>1.40</speed>
<course>307.2</course>
<desc>Speed 5.0 km/h Distance 11.15 km</desc>
<time>2010-10-24T12:24:34.38</time>
<name>6613</name>
</trkpt>
<trkpt lat="48.940757" lon="8.665865">
<ele>364.0</ele>
<speed>1.26</speed>
<course>318.6</course>
<desc>Speed 4.5 km/h Distance 11.15 km</desc>
<time>2010-10-24T12:24:35.37</time>
<name>6614</name>
</trkpt>
<trkpt lat="48.940767" lon="8.665852">
<ele>363.5</ele>
<speed>1.27</speed>
<course>318.7</course>
<desc>Speed 4.6 km/h Distance 11.15 km</desc>
<time>2010-10-24T12:24:36.36</time>
<name>6615</name>
</trkpt>
<trkpt lat="48.940777" lon="8.665838">
<ele>364.0</ele>
<speed>1.27</speed>
<course>318.7</course>
<desc>Speed 4.6 km/h Distance 11.16 km</desc>
<time>2010-10-24T12:24:37.36</time>
<name>6616</name>
</trkpt>
<trkpt lat="48.940787" lon="8.665825">
<ele>364.5</ele>
<speed>1.02</speed>
<course>339.4</course>
<desc>Speed 3.7 km/h Distance 11.16 km</desc>
<time>2010-10-24T12:24:38.36</time>
<name>6617</name>
</trkpt>
<trkpt lat="48.940798" lon="8.665818">
<ele>364.0</ele>
<speed>1.35</speed>
<course>346.5</course>
<desc>Speed 4.9 km/h Distance 11.16 km</desc>
<time>2010-10-24T12:24:39.36</time>
<name>6618</name>
</trkpt>
<trkpt lat="48.940812" lon="8.665813">
<ele>363.5</ele>
<speed>1.23</speed>
<course>354.7</course>
<desc>Speed 4.4 km/h Distance 11.16 km</desc>
<time>2010-10-24T12:24:40.36</time>
<name>6619</name>
</trkpt>
<trkpt lat="48.940825" lon="8.665812">
<ele>363.0</ele>
<speed>1.33</speed>
<course>3.8</course>
<desc>Speed 4.8 km/h Distance 11.16 km</desc>
<time>2010-10-24T12:24:41.35</time>
<name>6620</name>
</trkpt>
<trkpt lat="48.940840" lon="8.665813">
<ele>362.5</ele>
<speed>1.37</speed>
<course>0.0</course>
<desc>Speed 4.9 km/h Distance 11.16 km</desc>
<time>2010-10-24T12:24:42.35</time>
<name>6621</name>
</trkpt>
<trkpt lat="48.940857" lon="8.665813">
<ele>362.5</ele>
<speed>1.45</speed>
<course>351.2</course>
<desc>Speed 5.2 km/h Distance 11.17 km</desc>
<time>2010-10-24T12:24:43.33</time>
<name>6622</name>
</trkpt>
<trkpt lat="48.940872" lon="8.665810">
<ele>362.5</ele>
<speed>1.39</speed>
<course>310.1</course>
<desc>Speed 5.0 km/h Distance 11.17 km</desc>
<time>2010-10-24T12:24:44.34</time>
<name>6623</name>
</trkpt>
<trkpt lat="48.940880" lon="8.665795">
<ele>362.5</ele>
<speed>1.02</speed>
<course>301.3</course>
<desc>Speed 3.7 km/h Distance 11.17 km</desc>
<time>2010-10-24T12:24:45.33</time>
<name>6624</name>
</trkpt>
<trkpt lat="48.940887" lon="8.665778">
<ele>362.5</ele>
<speed>0.91</speed>
<course>293.5</course>
<desc>Speed 3.3 km/h Distance 11.17 km</desc>
<time>2010-10-24T12:24:46.32</time>
<name>6625</name>
</trkpt>
<trkpt lat="48.940890" lon="8.665767">
<ele>362.0</ele>
<speed>0.46</speed>
<course>307.0</course>
<desc>Speed 1.7 km/h Distance 11.17 km</desc>
<time>2010-10-24T12:24:47.32</time>
<name>6626</name>
</trkpt>
<trkpt lat="48.940893" lon="8.665760">
<ele>361.5</ele>
<speed>0.36</speed>
<course>0.0</course>
<desc>Speed 1.3 km/h Distance 11.17 km</desc>
<time>2010-10-24T12:24:51.32</time>
<name>6627</name>
</trkpt>
<trkpt lat="48.940902" lon="8.665760">
<ele>361.5</ele>
<speed>0.74</speed>
<course>28.6</course>
<desc>Speed 2.7 km/h Distance 11.17 km</desc>
<time>2010-10-24T12:24:52.31</time>
<name>6628</name>
</trkpt>
<trkpt lat="48.940912" lon="8.665768">
<ele>361.0</ele>
<speed>1.28</speed>
<course>42.6</course>
<desc>Speed 4.6 km/h Distance 11.17 km</desc>
<time>2010-10-24T12:24:53.31</time>
<name>6629</name>
</trkpt>
<trkpt lat="48.940920" lon="8.665780">
<ele>361.0</ele>
<speed>1.39</speed>
<course>47.6</course>
<desc>Speed 5.0 km/h Distance 11.18 km</desc>
<time>2010-10-24T12:24:54.31</time>
<name>6630</name>
</trkpt>
<trkpt lat="48.940930" lon="8.665797">
<ele>361.0</ele>
<speed>1.55</speed>
<course>40.2</course>
<desc>Speed 5.6 km/h Distance 11.18 km</desc>
<time>2010-10-24T12:24:55.30</time>
<name>6631</name>
</trkpt>
<trkpt lat="48.940942" lon="8.665812">
<ele>360.5</ele>
<speed>1.48</speed>
<course>40.2</course>
<desc>Speed 5.3 km/h Distance 11.18 km</desc>
<time>2010-10-24T12:24:56.30</time>
<name>6632</name>
</trkpt>
<trkpt lat="48.940953" lon="8.665827">
<ele>360.5</ele>
<speed>1.63</speed>
<course>33.4</course>
<desc>Speed 5.9 km/h Distance 11.18 km</desc>
<time>2010-10-24T12:24:57.30</time>
<name>6633</name>
</trkpt>
<trkpt lat="48.940967" lon="8.665840">
<ele>360.0</ele>
<speed>1.53</speed>
<course>26.0</course>
<desc>Speed 5.5 km/h Distance 11.18 km</desc>
<time>2010-10-24T12:24:58.30</time>
<name>6634</name>
</trkpt>
<trkpt lat="48.940980" lon="8.665850">
<ele>360.0</ele>
<speed>1.59</speed>
<course>29.8</course>
<desc>Speed 5.7 km/h Distance 11.18 km</desc>
<time>2010-10-24T12:24:59.28</time>
<name>6635</name>
</trkpt>
<trkpt lat="48.940993" lon="8.665862">
<ele>360.0</ele>
<speed>1.58</speed>
<course>27.7</course>
<desc>Speed 5.7 km/h Distance 11.19 km</desc>
<time>2010-10-24T12:25:00.27</time>
<name>6636</name>
</trkpt>
<trkpt lat="48.941010" lon="8.665875">
<ele>359.5</ele>
<speed>1.62</speed>
<course>33.3</course>
<desc>Speed 5.8 km/h Distance 11.19 km</desc>
<time>2010-10-24T12:25:01.27</time>
<name>6637</name>
</trkpt>
<trkpt lat="48.941027" lon="8.665892">
<ele>358.5</ele>
<speed>1.62</speed>
<course>36.2</course>
<desc>Speed 5.8 km/h Distance 11.19 km</desc>
<time>2010-10-24T12:25:02.26</time>
<name>6638</name>
</trkpt>
<trkpt lat="48.941042" lon="8.665908">
<ele>358.0</ele>
<speed>1.62</speed>
<course>47.6</course>
<desc>Speed 5.8 km/h Distance 11.19 km</desc>
<time>2010-10-24T12:25:03.25</time>
<name>6639</name>
</trkpt>
<trkpt lat="48.941052" lon="8.665925">
<ele>357.5</ele>
<speed>1.61</speed>
<course>29.2</course>
<desc>Speed 5.8 km/h Distance 11.19 km</desc>
<time>2010-10-24T12:25:04.25</time>
<name>6640</name>
</trkpt>
<trkpt lat="48.941063" lon="8.665935">
<ele>357.5</ele>
<speed>1.36</speed>
<course>33.3</course>
<desc>Speed 4.9 km/h Distance 11.19 km</desc>
<time>2010-10-24T12:25:05.24</time>
<name>6641</name>
</trkpt>
<trkpt lat="48.941075" lon="8.665947">
<ele>357.5</ele>
<speed>1.52</speed>
<course>33.4</course>
<desc>Speed 5.5 km/h Distance 11.20 km</desc>
<time>2010-10-24T12:25:06.24</time>
<name>6642</name>
</trkpt>
<trkpt lat="48.941088" lon="8.665960">
<ele>357.5</ele>
<speed>1.64</speed>
<course>37.0</course>
<desc>Speed 5.9 km/h Distance 11.20 km</desc>
<time>2010-10-24T12:25:07.23</time>
<name>6643</name>
</trkpt>
<trkpt lat="48.941100" lon="8.665973">
<ele>357.5</ele>
<speed>1.62</speed>
<course>33.1</course>
<desc>Speed 5.8 km/h Distance 11.20 km</desc>
<time>2010-10-24T12:25:08.22</time>
<name>6644</name>
</trkpt>
<trkpt lat="48.941112" lon="8.665985">
<ele>357.5</ele>
<speed>1.52</speed>
<course>33.1</course>
<desc>Speed 5.5 km/h Distance 11.20 km</desc>
<time>2010-10-24T12:25:09.22</time>
<name>6645</name>
</trkpt>
<trkpt lat="48.941123" lon="8.665997">
<ele>357.5</ele>
<speed>1.54</speed>
<course>26.9</course>
<desc>Speed 5.5 km/h Distance 11.20 km</desc>
<time>2010-10-24T12:25:10.21</time>
<name>6646</name>
</trkpt>
<trkpt lat="48.941138" lon="8.666008">
<ele>358.0</ele>
<speed>1.62</speed>
<course>29.8</course>
<desc>Speed 5.8 km/h Distance 11.20 km</desc>
<time>2010-10-24T12:25:11.20</time>
<name>6647</name>
</trkpt>
<trkpt lat="48.941152" lon="8.666020">
<ele>358.5</ele>
<speed>1.61</speed>
<course>33.4</course>
<desc>Speed 5.8 km/h Distance 11.21 km</desc>
<time>2010-10-24T12:25:12.19</time>
<name>6648</name>
</trkpt>
<trkpt lat="48.941163" lon="8.666032">
<ele>358.5</ele>
<speed>1.57</speed>
<course>36.9</course>
<desc>Speed 5.7 km/h Distance 11.21 km</desc>
<time>2010-10-24T12:25:13.19</time>
<name>6649</name>
</trkpt>
<trkpt lat="48.941175" lon="8.666045">
<ele>359.0</ele>
<speed>1.62</speed>
<course>37.5</course>
<desc>Speed 5.8 km/h Distance 11.21 km</desc>
<time>2010-10-24T12:25:14.19</time>
<name>6650</name>
</trkpt>
<trkpt lat="48.941185" lon="8.666057">
<ele>359.0</ele>
<speed>1.51</speed>
<course>36.9</course>
<desc>Speed 5.4 km/h Distance 11.21 km</desc>
<time>2010-10-24T12:25:15.18</time>
<name>6651</name>
</trkpt>
<trkpt lat="48.941197" lon="8.666070">
<ele>359.5</ele>
<speed>1.52</speed>
<course>36.9</course>
<desc>Speed 5.5 km/h Distance 11.21 km</desc>
<time>2010-10-24T12:25:16.17</time>
<name>6652</name>
</trkpt>
<trkpt lat="48.941208" lon="8.666083">
<ele>359.5</ele>
<speed>1.59</speed>
<course>33.3</course>
<desc>Speed 5.7 km/h Distance 11.21 km</desc>
<time>2010-10-24T12:25:17.17</time>
<name>6653</name>
</trkpt>
<trkpt lat="48.941223" lon="8.666098">
<ele>359.0</ele>
<speed>1.52</speed>
<course>30.9</course>
<desc>Speed 5.5 km/h Distance 11.22 km</desc>
<time>2010-10-24T12:25:18.18</time>
<name>6654</name>
</trkpt>
<trkpt lat="48.941242" lon="8.666115">
<ele>358.5</ele>
<speed>1.65</speed>
<course>42.1</course>
<desc>Speed 5.9 km/h Distance 11.22 km</desc>
<time>2010-10-24T12:25:19.16</time>
<name>6655</name>
</trkpt>
<trkpt lat="48.941255" lon="8.666133">
<ele>358.0</ele>
<speed>1.70</speed>
<course>45.9</course>
<desc>Speed 6.1 km/h Distance 11.22 km</desc>
<time>2010-10-24T12:25:20.15</time>
<name>6656</name>
</trkpt>
<trkpt lat="48.941267" lon="8.666152">
<ele>358.0</ele>
<speed>1.69</speed>
<course>48.4</course>
<desc>Speed 6.1 km/h Distance 11.22 km</desc>
<time>2010-10-24T12:25:21.14</time>
<name>6657</name>
</trkpt>
<trkpt lat="48.941278" lon="8.666172">
<ele>357.5</ele>
<speed>1.70</speed>
<course>33.3</course>
<desc>Speed 6.1 km/h Distance 11.22 km</desc>
<time>2010-10-24T12:25:22.15</time>
<name>6658</name>
</trkpt>
<trkpt lat="48.941295" lon="8.666188">
<ele>357.5</ele>
<speed>1.82</speed>
<course>30.9</course>
<desc>Speed 6.6 km/h Distance 11.23 km</desc>
<time>2010-10-24T12:25:23.13</time>
<name>6659</name>
</trkpt>
<trkpt lat="48.941313" lon="8.666205">
<ele>357.0</ele>
<speed>1.72</speed>
<course>22.7</course>
<desc>Speed 6.2 km/h Distance 11.23 km</desc>
<time>2010-10-24T12:25:24.13</time>
<name>6660</name>
</trkpt>
<trkpt lat="48.941332" lon="8.666217">
<ele>357.0</ele>
<speed>1.72</speed>
<course>25.6</course>
<desc>Speed 6.2 km/h Distance 11.23 km</desc>
<time>2010-10-24T12:25:25.12</time>
<name>6661</name>
</trkpt>
<trkpt lat="48.941350" lon="8.666230">
<ele>356.5</ele>
<speed>1.75</speed>
<course>21.5</course>
<desc>Speed 6.3 km/h Distance 11.23 km</desc>
<time>2010-10-24T12:25:26.11</time>
<name>6662</name>
</trkpt>
<trkpt lat="48.941367" lon="8.666240">
<ele>356.5</ele>
<speed>1.64</speed>
<course>24.6</course>
<desc>Speed 5.9 km/h Distance 11.24 km</desc>
<time>2010-10-24T12:25:27.11</time>
<name>6663</name>
</trkpt>
<trkpt lat="48.941383" lon="8.666252">
<ele>356.5</ele>
<speed>1.65</speed>
<course>30.2</course>
<desc>Speed 5.9 km/h Distance 11.24 km</desc>
<time>2010-10-24T12:25:28.10</time>
<name>6664</name>
</trkpt>
<trkpt lat="48.941398" lon="8.666265">
<ele>356.5</ele>
<speed>1.71</speed>
<course>26.9</course>
<desc>Speed 6.2 km/h Distance 11.24 km</desc>
<time>2010-10-24T12:25:29.10</time>
<name>6665</name>
</trkpt>
<trkpt lat="48.941413" lon="8.666277">
<ele>356.0</ele>
<speed>1.51</speed>
<course>29.8</course>
<desc>Speed 5.4 km/h Distance 11.24 km</desc>
<time>2010-10-24T12:25:30.09</time>
<name>6666</name>
</trkpt>
<trkpt lat="48.941427" lon="8.666288">
<ele>356.0</ele>
<speed>1.62</speed>
<course>33.3</course>
<desc>Speed 5.8 km/h Distance 11.24 km</desc>
<time>2010-10-24T12:25:31.09</time>
<name>6667</name>
</trkpt>
<trkpt lat="48.941440" lon="8.666302">
<ele>356.0</ele>
<speed>1.73</speed>
<course>40.2</course>
<desc>Speed 6.2 km/h Distance 11.24 km</desc>
<time>2010-10-24T12:25:32.09</time>
<name>6668</name>
</trkpt>
<trkpt lat="48.941452" lon="8.666317">
<ele>356.0</ele>
<speed>1.69</speed>
<course>33.3</course>
<desc>Speed 6.1 km/h Distance 11.25 km</desc>
<time>2010-10-24T12:25:33.08</time>
<name>6669</name>
</trkpt>
<trkpt lat="48.941465" lon="8.666330">
<ele>356.0</ele>
<speed>1.61</speed>
<course>29.8</course>
<desc>Speed 5.8 km/h Distance 11.25 km</desc>
<time>2010-10-24T12:25:34.08</time>
<name>6670</name>
</trkpt>
<trkpt lat="48.941478" lon="8.666342">
<ele>356.0</ele>
<speed>1.60</speed>
<course>26.2</course>
<desc>Speed 5.8 km/h Distance 11.25 km</desc>
<time>2010-10-24T12:25:35.07</time>
<name>6671</name>
</trkpt>
<trkpt lat="48.941492" lon="8.666352">
<ele>356.0</ele>
<speed>1.59</speed>
<course>27.0</course>
<desc>Speed 5.7 km/h Distance 11.25 km</desc>
<time>2010-10-24T12:25:36.06</time>
<name>6672</name>
</trkpt>
<trkpt lat="48.941507" lon="8.666363">
<ele>356.0</ele>
<speed>1.69</speed>
<course>23.5</course>
<desc>Speed 6.1 km/h Distance 11.25 km</desc>
<time>2010-10-24T12:25:37.05</time>
<name>6673</name>
</trkpt>
<trkpt lat="48.941522" lon="8.666373">
<ele>356.0</ele>
<speed>1.50</speed>
<course>29.4</course>
<desc>Speed 5.4 km/h Distance 11.26 km</desc>
<time>2010-10-24T12:25:38.05</time>
<name>6674</name>
</trkpt>
<trkpt lat="48.941533" lon="8.666383">
<ele>355.5</ele>
<speed>1.52</speed>
<course>37.0</course>
<desc>Speed 5.5 km/h Distance 11.26 km</desc>
<time>2010-10-24T12:25:39.04</time>
<name>6675</name>
</trkpt>
<trkpt lat="48.941545" lon="8.666397">
<ele>355.5</ele>
<speed>1.57</speed>
<course>23.7</course>
<desc>Speed 5.7 km/h Distance 11.26 km</desc>
<time>2010-10-24T12:25:40.04</time>
<name>6676</name>
</trkpt>
<trkpt lat="48.941560" lon="8.666407">
<ele>355.5</ele>
<speed>1.53</speed>
<course>30.3</course>
<desc>Speed 5.5 km/h Distance 11.26 km</desc>
<time>2010-10-24T12:25:41.03</time>
<name>6677</name>
</trkpt>
<trkpt lat="48.941575" lon="8.666420">
<ele>355.5</ele>
<speed>1.66</speed>
<course>29.8</course>
<desc>Speed 6.0 km/h Distance 11.26 km</desc>
<time>2010-10-24T12:25:42.02</time>
<name>6678</name>
</trkpt>
<trkpt lat="48.941588" lon="8.666432">
<ele>355.0</ele>
<speed>1.62</speed>
<course>33.2</course>
<desc>Speed 5.8 km/h Distance 11.26 km</desc>
<time>2010-10-24T12:25:43.02</time>
<name>6679</name>
</trkpt>
<trkpt lat="48.941602" lon="8.666445">
<ele>355.0</ele>
<speed>1.66</speed>
<course>29.8</course>
<desc>Speed 6.0 km/h Distance 11.27 km</desc>
<time>2010-10-24T12:25:44.01</time>
<name>6680</name>
</trkpt>
<trkpt lat="48.941615" lon="8.666457">
<ele>354.5</ele>
<speed>1.61</speed>
<course>29.8</course>
<desc>Speed 5.8 km/h Distance 11.27 km</desc>
<time>2010-10-24T12:25:45.01</time>
<name>6681</name>
</trkpt>
<trkpt lat="48.941628" lon="8.666468">
<ele>354.5</ele>
<speed>1.62</speed>
<course>27.0</course>
<desc>Speed 5.8 km/h Distance 11.27 km</desc>
<time>2010-10-24T12:25:46.01</time>
<name>6682</name>
</trkpt>
<trkpt lat="48.941643" lon="8.666480">
<ele>354.5</ele>
<speed>1.63</speed>
<course>29.8</course>
<desc>Speed 5.9 km/h Distance 11.27 km</desc>
<time>2010-10-24T12:25:47.01</time>
<name>6683</name>
</trkpt>
<trkpt lat="48.941657" lon="8.666492">
<ele>354.0</ele>
<speed>1.58</speed>
<course>29.8</course>
<desc>Speed 5.7 km/h Distance 11.27 km</desc>
<time>2010-10-24T12:25:48.01</time>
<name>6684</name>
</trkpt>
<trkpt lat="48.941670" lon="8.666503">
<ele>354.0</ele>
<speed>1.60</speed>
<course>26.9</course>
<desc>Speed 5.8 km/h Distance 11.27 km</desc>
<time>2010-10-24T12:25:49.00</time>
<name>6685</name>
</trkpt>
<trkpt lat="48.941685" lon="8.666515">
<ele>354.0</ele>
<speed>1.62</speed>
<course>33.4</course>
<desc>Speed 5.8 km/h Distance 11.28 km</desc>
<time>2010-10-24T12:25:50.00</time>
<name>6686</name>
</trkpt>
<trkpt lat="48.941697" lon="8.666527">
<ele>354.0</ele>
<speed>1.61</speed>
<course>29.8</course>
<desc>Speed 5.8 km/h Distance 11.28 km</desc>
<time>2010-10-24T12:25:51.00</time>
<name>6687</name>
</trkpt>
<trkpt lat="48.941710" lon="8.666538">
<ele>353.5</ele>
<speed>1.60</speed>
<course>26.9</course>
<desc>Speed 5.8 km/h Distance 11.28 km</desc>
<time>2010-10-24T12:25:51.99</time>
<name>6688</name>
</trkpt>
<trkpt lat="48.941725" lon="8.666550">
<ele>353.5</ele>
<speed>1.63</speed>
<course>33.4</course>
<desc>Speed 5.9 km/h Distance 11.28 km</desc>
<time>2010-10-24T12:25:52.98</time>
<name>6689</name>
</trkpt>
<trkpt lat="48.941738" lon="8.666563">
<ele>353.5</ele>
<speed>1.59</speed>
<course>30.0</course>
<desc>Speed 5.7 km/h Distance 11.28 km</desc>
<time>2010-10-24T12:25:53.97</time>
<name>6690</name>
</trkpt>
<trkpt lat="48.941752" lon="8.666575">
<ele>353.0</ele>
<speed>1.58</speed>
<course>27.0</course>
<desc>Speed 5.7 km/h Distance 11.29 km</desc>
<time>2010-10-24T12:25:54.96</time>
<name>6691</name>
</trkpt>
<trkpt lat="48.941767" lon="8.666587">
<ele>353.0</ele>
<speed>1.71</speed>
<course>33.3</course>
<desc>Speed 6.2 km/h Distance 11.29 km</desc>
<time>2010-10-24T12:25:55.95</time>
<name>6692</name>
</trkpt>
<trkpt lat="48.941778" lon="8.666598">
<ele>353.0</ele>
<speed>1.59</speed>
<course>29.8</course>
<desc>Speed 5.7 km/h Distance 11.29 km</desc>
<time>2010-10-24T12:25:56.94</time>
<name>6693</name>
</trkpt>
<trkpt lat="48.941792" lon="8.666610">
<ele>352.5</ele>
<speed>1.57</speed>
<course>36.9</course>
<desc>Speed 5.7 km/h Distance 11.29 km</desc>
<time>2010-10-24T12:25:57.94</time>
<name>6694</name>
</trkpt>
<trkpt lat="48.941803" lon="8.666623">
<ele>352.5</ele>
<speed>1.62</speed>
<course>33.4</course>
<desc>Speed 5.8 km/h Distance 11.29 km</desc>
<time>2010-10-24T12:25:58.93</time>
<name>6695</name>
</trkpt>
<trkpt lat="48.941815" lon="8.666635">
<ele>352.0</ele>
<speed>1.58</speed>
<course>36.9</course>
<desc>Speed 5.7 km/h Distance 11.29 km</desc>
<time>2010-10-24T12:25:59.93</time>
<name>6696</name>
</trkpt>
<trkpt lat="48.941827" lon="8.666648">
<ele>352.0</ele>
<speed>1.58</speed>
<course>33.4</course>
<desc>Speed 5.7 km/h Distance 11.30 km</desc>
<time>2010-10-24T12:26:00.92</time>
<name>6697</name>
</trkpt>
<trkpt lat="48.941838" lon="8.666660">
<ele>352.0</ele>
<speed>1.37</speed>
<course>41.3</course>
<desc>Speed 4.9 km/h Distance 11.30 km</desc>
<time>2010-10-24T12:26:01.91</time>
<name>6698</name>
</trkpt>
<trkpt lat="48.941848" lon="8.666673">
<ele>351.5</ele>
<speed>1.51</speed>
<course>40.2</course>
<desc>Speed 5.4 km/h Distance 11.30 km</desc>
<time>2010-10-24T12:26:02.90</time>
<name>6699</name>
</trkpt>
<trkpt lat="48.941860" lon="8.666688">
<ele>351.5</ele>
<speed>1.62</speed>
<course>41.2</course>
<desc>Speed 5.8 km/h Distance 11.30 km</desc>
<time>2010-10-24T12:26:03.90</time>
<name>6700</name>
</trkpt>
<trkpt lat="48.941870" lon="8.666702">
<ele>351.0</ele>
<speed>1.45</speed>
<course>46.5</course>
<desc>Speed 5.2 km/h Distance 11.30 km</desc>
<time>2010-10-24T12:26:04.89</time>
<name>6701</name>
</trkpt>
<trkpt lat="48.941878" lon="8.666715">
<ele>351.0</ele>
<speed>1.38</speed>
<course>48.9</course>
<desc>Speed 5.0 km/h Distance 11.30 km</desc>
<time>2010-10-24T12:26:05.89</time>
<name>6702</name>
</trkpt>
<trkpt lat="48.941885" lon="8.666727">
<ele>350.0</ele>
<speed>1.08</speed>
<course>42.6</course>
<desc>Speed 3.9 km/h Distance 11.30 km</desc>
<time>2010-10-24T12:26:06.89</time>
<name>6703</name>
</trkpt>
<trkpt lat="48.941893" lon="8.666738">
<ele>349.5</ele>
<speed>1.27</speed>
<course>33.3</course>
<desc>Speed 4.6 km/h Distance 11.30 km</desc>
<time>2010-10-24T12:26:07.88</time>
<name>6704</name>
</trkpt>
<trkpt lat="48.941905" lon="8.666750">
<ele>349.0</ele>
<speed>1.57</speed>
<course>41.2</course>
<desc>Speed 5.7 km/h Distance 11.31 km</desc>
<time>2010-10-24T12:26:08.87</time>
<name>6705</name>
</trkpt>
<trkpt lat="48.941915" lon="8.666763">
<ele>349.0</ele>
<speed>1.36</speed>
<course>33.3</course>
<desc>Speed 4.9 km/h Distance 11.31 km</desc>
<time>2010-10-24T12:26:09.86</time>
<name>6706</name>
</trkpt>
<trkpt lat="48.941927" lon="8.666775">
<ele>349.0</ele>
<speed>1.37</speed>
<course>20.1</course>
<desc>Speed 4.9 km/h Distance 11.31 km</desc>
<time>2010-10-24T12:26:10.86</time>
<name>6707</name>
</trkpt>
<trkpt lat="48.941942" lon="8.666783">
<ele>348.5</ele>
<speed>1.71</speed>
<course>18.4</course>
<desc>Speed 6.2 km/h Distance 11.31 km</desc>
<time>2010-10-24T12:26:11.87</time>
<name>6708</name>
</trkpt>
<trkpt lat="48.941955" lon="8.666790">
<ele>348.5</ele>
<speed>1.50</speed>
<course>16.0</course>
<desc>Speed 5.4 km/h Distance 11.31 km</desc>
<time>2010-10-24T12:26:12.86</time>
<name>6709</name>
</trkpt>
<trkpt lat="48.941970" lon="8.666797">
<ele>348.5</ele>
<speed>1.66</speed>
<course>0.0</course>
<desc>Speed 6.0 km/h Distance 11.31 km</desc>
<time>2010-10-24T12:26:13.86</time>
<name>6710</name>
</trkpt>
<trkpt lat="48.941982" lon="8.666797">
<ele>348.5</ele>
<speed>1.17</speed>
<course>2.5</course>
<desc>Speed 4.2 km/h Distance 11.32 km</desc>
<time>2010-10-24T12:26:14.85</time>
<name>6711</name>
</trkpt>
<trkpt lat="48.942000" lon="8.666797">
<ele>348.0</ele>
<speed>1.91</speed>
<course>9.7</course>
<desc>Speed 6.9 km/h Distance 11.32 km</desc>
<time>2010-10-24T12:26:15.85</time>
<name>6712</name>
</trkpt>
<trkpt lat="48.942013" lon="8.666800">
<ele>348.0</ele>
<speed>1.45</speed>
<course>14.0</course>
<desc>Speed 5.2 km/h Distance 11.32 km</desc>
<time>2010-10-24T12:26:16.85</time>
<name>6713</name>
</trkpt>
<trkpt lat="48.942027" lon="8.666805">
<ele>348.5</ele>
<speed>1.48</speed>
<course>8.8</course>
<desc>Speed 5.3 km/h Distance 11.32 km</desc>
<time>2010-10-24T12:26:17.84</time>
<name>6714</name>
</trkpt>
<trkpt lat="48.942042" lon="8.666808">
<ele>348.5</ele>
<speed>1.48</speed>
<course>5.3</course>
<desc>Speed 5.3 km/h Distance 11.32 km</desc>
<time>2010-10-24T12:26:18.84</time>
<name>6715</name>
</trkpt>
<trkpt lat="48.942055" lon="8.666810">
<ele>349.0</ele>
<speed>1.44</speed>
<course>5.0</course>
<desc>Speed 5.2 km/h Distance 11.32 km</desc>
<time>2010-10-24T12:26:19.83</time>
<name>6716</name>
</trkpt>
<trkpt lat="48.942070" lon="8.666812">
<ele>349.0</ele>
<speed>1.50</speed>
<course>8.8</course>
<desc>Speed 5.4 km/h Distance 11.33 km</desc>
<time>2010-10-24T12:26:20.83</time>
<name>6717</name>
</trkpt>
<trkpt lat="48.942085" lon="8.666815">
<ele>348.5</ele>
<speed>1.50</speed>
<course>7.1</course>
<desc>Speed 5.4 km/h Distance 11.33 km</desc>
<time>2010-10-24T12:26:21.82</time>
<name>6718</name>
</trkpt>
<trkpt lat="48.942102" lon="8.666818">
<ele>348.0</ele>
<speed>1.75</speed>
<course>3.9</course>
<desc>Speed 6.3 km/h Distance 11.33 km</desc>
<time>2010-10-24T12:26:22.82</time>
<name>6719</name>
</trkpt>
<trkpt lat="48.942115" lon="8.666820">
<ele>348.0</ele>
<speed>1.49</speed>
<course>8.8</course>
<desc>Speed 5.4 km/h Distance 11.33 km</desc>
<time>2010-10-24T12:26:23.83</time>
<name>6720</name>
</trkpt>
<trkpt lat="48.942130" lon="8.666823">
<ele>348.5</ele>
<speed>1.41</speed>
<course>11.2</course>
<desc>Speed 5.1 km/h Distance 11.33 km</desc>
<time>2010-10-24T12:26:24.81</time>
<name>6721</name>
</trkpt>
<trkpt lat="48.942142" lon="8.666827">
<ele>348.5</ele>
<speed>1.38</speed>
<course>8.8</course>
<desc>Speed 5.0 km/h Distance 11.33 km</desc>
<time>2010-10-24T12:26:25.81</time>
<name>6722</name>
</trkpt>
<trkpt lat="48.942157" lon="8.666830">
<ele>348.0</ele>
<speed>1.57</speed>
<course>8.1</course>
<desc>Speed 5.7 km/h Distance 11.34 km</desc>
<time>2010-10-24T12:26:26.80</time>
<name>6723</name>
</trkpt>
<trkpt lat="48.942180" lon="8.666835">
<ele>346.0</ele>
<speed>2.49</speed>
<course>8.8</course>
<desc>Speed 9.0 km/h Distance 11.34 km</desc>
<time>2010-10-24T12:26:27.79</time>
<name>6724</name>
</trkpt>
<trkpt lat="48.942195" lon="8.666838">
<ele>346.0</ele>
<speed>1.50</speed>
<course>10.3</course>
<desc>Speed 5.4 km/h Distance 11.34 km</desc>
<time>2010-10-24T12:26:28.79</time>
<name>6725</name>
</trkpt>
<trkpt lat="48.942208" lon="8.666842">
<ele>346.0</ele>
<speed>1.38</speed>
<course>16.0</course>
<desc>Speed 5.0 km/h Distance 11.34 km</desc>
<time>2010-10-24T12:26:29.79</time>
<name>6726</name>
</trkpt>
<trkpt lat="48.942220" lon="8.666847">
<ele>346.0</ele>
<speed>1.30</speed>
<course>12.6</course>
<desc>Speed 4.7 km/h Distance 11.34 km</desc>
<time>2010-10-24T12:26:30.78</time>
<name>6727</name>
</trkpt>
<trkpt lat="48.942235" lon="8.666852">
<ele>345.5</ele>
<speed>1.50</speed>
<course>1.2</course>
<desc>Speed 5.4 km/h Distance 11.34 km</desc>
<time>2010-10-24T12:26:31.79</time>
<name>6728</name>
</trkpt>
<trkpt lat="48.942248" lon="8.666853">
<ele>345.5</ele>
<speed>1.40</speed>
<course>13.5</course>
<desc>Speed 5.0 km/h Distance 11.35 km</desc>
<time>2010-10-24T12:26:32.78</time>
<name>6729</name>
</trkpt>
<trkpt lat="48.942262" lon="8.666858">
<ele>345.5</ele>
<speed>1.51</speed>
<course>354.7</course>
<desc>Speed 5.4 km/h Distance 11.35 km</desc>
<time>2010-10-24T12:26:33.78</time>
<name>6730</name>
</trkpt>
<trkpt lat="48.942275" lon="8.666857">
<ele>345.5</ele>
<speed>1.45</speed>
<course>15.5</course>
<desc>Speed 5.2 km/h Distance 11.35 km</desc>
<time>2010-10-24T12:26:34.77</time>
<name>6731</name>
</trkpt>
<trkpt lat="48.942287" lon="8.666862">
<ele>345.0</ele>
<speed>1.44</speed>
<course>352.9</course>
<desc>Speed 5.2 km/h Distance 11.35 km</desc>
<time>2010-10-24T12:26:35.77</time>
<name>6732</name>
</trkpt>
<trkpt lat="48.942303" lon="8.666858">
<ele>345.0</ele>
<speed>1.63</speed>
<course>9.0</course>
<desc>Speed 5.9 km/h Distance 11.35 km</desc>
<time>2010-10-24T12:26:36.76</time>
<name>6733</name>
</trkpt>
<trkpt lat="48.942317" lon="8.666862">
<ele>345.0</ele>
<speed>1.48</speed>
<course>3.8</course>
<desc>Speed 5.3 km/h Distance 11.35 km</desc>
<time>2010-10-24T12:26:37.76</time>
<name>6734</name>
</trkpt>
<trkpt lat="48.942332" lon="8.666863">
<ele>345.0</ele>
<speed>1.49</speed>
<course>5.3</course>
<desc>Speed 5.4 km/h Distance 11.36 km</desc>
<time>2010-10-24T12:26:38.76</time>
<name>6735</name>
</trkpt>
<trkpt lat="48.942345" lon="8.666865">
<ele>345.0</ele>
<speed>1.47</speed>
<course>9.7</course>
<desc>Speed 5.3 km/h Distance 11.36 km</desc>
<time>2010-10-24T12:26:39.74</time>
<name>6736</name>
</trkpt>
<trkpt lat="48.942358" lon="8.666868">
<ele>345.0</ele>
<speed>1.47</speed>
<course>16.3</course>
<desc>Speed 5.3 km/h Distance 11.36 km</desc>
<time>2010-10-24T12:26:40.74</time>
<name>6737</name>
</trkpt>
<trkpt lat="48.942373" lon="8.666875">
<ele>344.5</ele>
<speed>1.65</speed>
<course>9.0</course>
<desc>Speed 5.9 km/h Distance 11.36 km</desc>
<time>2010-10-24T12:26:41.73</time>
<name>6738</name>
</trkpt>
<trkpt lat="48.942387" lon="8.666878">
<ele>344.5</ele>
<speed>1.53</speed>
<course>1.2</course>
<desc>Speed 5.5 km/h Distance 11.36 km</desc>
<time>2010-10-24T12:26:42.72</time>
<name>6739</name>
</trkpt>
<trkpt lat="48.942400" lon="8.666878">
<ele>344.5</ele>
<speed>1.46</speed>
<course>350.3</course>
<desc>Speed 5.3 km/h Distance 11.36 km</desc>
<time>2010-10-24T12:26:43.72</time>
<name>6740</name>
</trkpt>
<trkpt lat="48.942413" lon="8.666875">
<ele>344.5</ele>
<speed>1.42</speed>
<course>357.0</course>
<desc>Speed 5.1 km/h Distance 11.36 km</desc>
<time>2010-10-24T12:26:44.71</time>
<name>6741</name>
</trkpt>
<trkpt lat="48.942437" lon="8.666873">
<ele>342.5</ele>
<speed>2.35</speed>
<course>351.0</course>
<desc>Speed 8.5 km/h Distance 11.37 km</desc>
<time>2010-10-24T12:26:45.72</time>
<name>6742</name>
</trkpt>
<trkpt lat="48.942450" lon="8.666870">
<ele>342.5</ele>
<speed>1.51</speed>
<course>352.3</course>
<desc>Speed 5.4 km/h Distance 11.37 km</desc>
<time>2010-10-24T12:26:46.71</time>
<name>6743</name>
</trkpt>
<trkpt lat="48.942467" lon="8.666867">
<ele>342.5</ele>
<speed>1.62</speed>
<course>354.7</course>
<desc>Speed 5.8 km/h Distance 11.37 km</desc>
<time>2010-10-24T12:26:47.70</time>
<name>6744</name>
</trkpt>
<trkpt lat="48.942480" lon="8.666865">
<ele>342.5</ele>
<speed>1.46</speed>
<course>351.0</course>
<desc>Speed 5.3 km/h Distance 11.37 km</desc>
<time>2010-10-24T12:26:48.69</time>
<name>6745</name>
</trkpt>
<trkpt lat="48.942493" lon="8.666862">
<ele>342.5</ele>
<speed>1.40</speed>
<course>351.9</course>
<desc>Speed 5.0 km/h Distance 11.37 km</desc>
<time>2010-10-24T12:26:49.69</time>
<name>6746</name>
</trkpt>
<trkpt lat="48.942508" lon="8.666858">
<ele>342.5</ele>
<speed>1.54</speed>
<course>13.5</course>
<desc>Speed 5.5 km/h Distance 11.38 km</desc>
<time>2010-10-24T12:26:50.68</time>
<name>6747</name>
</trkpt>
<trkpt lat="48.942522" lon="8.666863">
<ele>342.5</ele>
<speed>1.55</speed>
<course>356.1</course>
<desc>Speed 5.6 km/h Distance 11.38 km</desc>
<time>2010-10-24T12:26:51.69</time>
<name>6748</name>
</trkpt>
<trkpt lat="48.942535" lon="8.666862">
<ele>343.0</ele>
<speed>1.60</speed>
<course>5.0</course>
<desc>Speed 5.8 km/h Distance 11.38 km</desc>
<time>2010-10-24T12:26:52.69</time>
<name>6749</name>
</trkpt>
<trkpt lat="48.942550" lon="8.666863">
<ele>343.0</ele>
<speed>1.51</speed>
<course>351.0</course>
<desc>Speed 5.4 km/h Distance 11.38 km</desc>
<time>2010-10-24T12:26:53.68</time>
<name>6750</name>
</trkpt>
<trkpt lat="48.942563" lon="8.666860">
<ele>343.0</ele>
<speed>1.46</speed>
<course>1.2</course>
<desc>Speed 5.3 km/h Distance 11.38 km</desc>
<time>2010-10-24T12:26:54.68</time>
<name>6751</name>
</trkpt>
<trkpt lat="48.942577" lon="8.666860">
<ele>343.5</ele>
<speed>1.45</speed>
<course>2.2</course>
<desc>Speed 5.2 km/h Distance 11.38 km</desc>
<time>2010-10-24T12:26:55.68</time>
<name>6752</name>
</trkpt>
<trkpt lat="48.942588" lon="8.666860">
<ele>343.5</ele>
<speed>1.27</speed>
<course>2.2</course>
<desc>Speed 4.6 km/h Distance 11.38 km</desc>
<time>2010-10-24T12:26:56.67</time>
<name>6753</name>
</trkpt>
<trkpt lat="48.942600" lon="8.666860">
<ele>343.5</ele>
<speed>1.82</speed>
<course>354.7</course>
<desc>Speed 6.6 km/h Distance 11.39 km</desc>
<time>2010-10-24T12:26:57.67</time>
<name>6754</name>
</trkpt>
<trkpt lat="48.942613" lon="8.666858">
<ele>343.5</ele>
<speed>1.50</speed>
<course>355.0</course>
<desc>Speed 5.4 km/h Distance 11.39 km</desc>
<time>2010-10-24T12:26:58.67</time>
<name>6755</name>
</trkpt>
<trkpt lat="48.942628" lon="8.666857">
<ele>343.5</ele>
<speed>1.55</speed>
<course>9.7</course>
<desc>Speed 5.6 km/h Distance 11.39 km</desc>
<time>2010-10-24T12:26:59.65</time>
<name>6756</name>
</trkpt>
<trkpt lat="48.942642" lon="8.666860">
<ele>343.5</ele>
<speed>1.52</speed>
<course>0.0</course>
<desc>Speed 5.5 km/h Distance 11.39 km</desc>
<time>2010-10-24T12:27:00.64</time>
<name>6757</name>
</trkpt>
<trkpt lat="48.942652" lon="8.666860">
<ele>345.0</ele>
<speed>1.61</speed>
<course>3.8</course>
<desc>Speed 5.8 km/h Distance 11.39 km</desc>
<time>2010-10-24T12:27:01.63</time>
<name>6758</name>
</trkpt>
<trkpt lat="48.942667" lon="8.666862">
<ele>345.0</ele>
<speed>1.48</speed>
<course>356.3</course>
<desc>Speed 5.3 km/h Distance 11.39 km</desc>
<time>2010-10-24T12:27:02.63</time>
<name>6759</name>
</trkpt>
<trkpt lat="48.942685" lon="8.666860">
<ele>344.5</ele>
<speed>1.69</speed>
<course>349.6</course>
<desc>Speed 6.1 km/h Distance 11.40 km</desc>
<time>2010-10-24T12:27:03.63</time>
<name>6760</name>
</trkpt>
<trkpt lat="48.942702" lon="8.666855">
<ele>344.0</ele>
<speed>1.57</speed>
<course>349.8</course>
<desc>Speed 5.7 km/h Distance 11.40 km</desc>
<time>2010-10-24T12:27:04.62</time>
<name>6761</name>
</trkpt>
<trkpt lat="48.942720" lon="8.666850">
<ele>343.0</ele>
<speed>1.96</speed>
<course>330.2</course>
<desc>Speed 7.1 km/h Distance 11.40 km</desc>
<time>2010-10-24T12:27:05.62</time>
<name>6762</name>
</trkpt>
<trkpt lat="48.942733" lon="8.666838">
<ele>343.0</ele>
<speed>1.53</speed>
<course>323.1</course>
<desc>Speed 5.5 km/h Distance 11.40 km</desc>
<time>2010-10-24T12:27:06.61</time>
<name>6763</name>
</trkpt>
<trkpt lat="48.942745" lon="8.666825">
<ele>343.0</ele>
<speed>1.38</speed>
<course>329.7</course>
<desc>Speed 5.0 km/h Distance 11.40 km</desc>
<time>2010-10-24T12:27:07.61</time>
<name>6764</name>
</trkpt>
<trkpt lat="48.942760" lon="8.666812">
<ele>342.0</ele>
<speed>1.27</speed>
<course>329.4</course>
<desc>Speed 4.6 km/h Distance 11.40 km</desc>
<time>2010-10-24T12:27:08.61</time>
<name>6765</name>
</trkpt>
<trkpt lat="48.942777" lon="8.666797">
<ele>341.5</ele>
<speed>1.42</speed>
<course>329.7</course>
<desc>Speed 5.1 km/h Distance 11.41 km</desc>
<time>2010-10-24T12:27:09.60</time>
<name>6766</name>
</trkpt>
<trkpt lat="48.942792" lon="8.666783">
<ele>340.5</ele>
<speed>1.40</speed>
<course>335.4</course>
<desc>Speed 5.0 km/h Distance 11.41 km</desc>
<time>2010-10-24T12:27:10.59</time>
<name>6767</name>
</trkpt>
<trkpt lat="48.942808" lon="8.666772">
<ele>339.5</ele>
<speed>1.69</speed>
<course>334.0</course>
<desc>Speed 6.1 km/h Distance 11.41 km</desc>
<time>2010-10-24T12:27:11.58</time>
<name>6768</name>
</trkpt>
<trkpt lat="48.942822" lon="8.666762">
<ele>339.5</ele>
<speed>1.61</speed>
<course>347.4</course>
<desc>Speed 5.8 km/h Distance 11.41 km</desc>
<time>2010-10-24T12:27:12.58</time>
<name>6769</name>
</trkpt>
<trkpt lat="48.942837" lon="8.666757">
<ele>339.5</ele>
<speed>1.61</speed>
<course>337.4</course>
<desc>Speed 5.8 km/h Distance 11.41 km</desc>
<time>2010-10-24T12:27:13.58</time>
<name>6770</name>
</trkpt>
<trkpt lat="48.942850" lon="8.666748">
<ele>339.5</ele>
<speed>1.61</speed>
<course>337.4</course>
<desc>Speed 5.8 km/h Distance 11.42 km</desc>
<time>2010-10-24T12:27:14.57</time>
<name>6771</name>
</trkpt>
<trkpt lat="48.942863" lon="8.666740">
<ele>340.0</ele>
<speed>1.58</speed>
<course>343.4</course>
<desc>Speed 5.7 km/h Distance 11.42 km</desc>
<time>2010-10-24T12:27:15.57</time>
<name>6772</name>
</trkpt>
<trkpt lat="48.942878" lon="8.666733">
<ele>340.0</ele>
<speed>1.63</speed>
<course>348.8</course>
<desc>Speed 5.9 km/h Distance 11.42 km</desc>
<time>2010-10-24T12:27:16.58</time>
<name>6773</name>
</trkpt>
<trkpt lat="48.942895" lon="8.666728">
<ele>339.5</ele>
<speed>1.85</speed>
<course>352.3</course>
<desc>Speed 6.7 km/h Distance 11.42 km</desc>
<time>2010-10-24T12:27:17.57</time>
<name>6774</name>
</trkpt>
<trkpt lat="48.942912" lon="8.666725">
<ele>339.0</ele>
<speed>1.78</speed>
<course>356.1</course>
<desc>Speed 6.4 km/h Distance 11.42 km</desc>
<time>2010-10-24T12:27:18.57</time>
<name>6775</name>
</trkpt>
<trkpt lat="48.942925" lon="8.666723">
<ele>339.0</ele>
<speed>1.61</speed>
<course>354.1</course>
<desc>Speed 5.8 km/h Distance 11.42 km</desc>
<time>2010-10-24T12:27:19.56</time>
<name>6776</name>
</trkpt>
<trkpt lat="48.942943" lon="8.666720">
<ele>338.5</ele>
<speed>1.61</speed>
<course>351.9</course>
<desc>Speed 5.8 km/h Distance 11.43 km</desc>
<time>2010-10-24T12:27:20.56</time>
<name>6777</name>
</trkpt>
<trkpt lat="48.942958" lon="8.666717">
<ele>338.5</ele>
<speed>1.58</speed>
<course>343.4</course>
<desc>Speed 5.7 km/h Distance 11.43 km</desc>
<time>2010-10-24T12:27:21.55</time>
<name>6778</name>
</trkpt>
<trkpt lat="48.942973" lon="8.666710">
<ele>338.5</ele>
<speed>1.63</speed>
<course>351.2</course>
<desc>Speed 5.9 km/h Distance 11.43 km</desc>
<time>2010-10-24T12:27:22.54</time>
<name>6779</name>
</trkpt>
<trkpt lat="48.942988" lon="8.666707">
<ele>338.0</ele>
<speed>1.59</speed>
<course>344.0</course>
<desc>Speed 5.7 km/h Distance 11.43 km</desc>
<time>2010-10-24T12:27:23.55</time>
<name>6780</name>
</trkpt>
<trkpt lat="48.943000" lon="8.666702">
<ele>338.0</ele>
<speed>1.27</speed>
<course>336.2</course>
<desc>Speed 4.6 km/h Distance 11.43 km</desc>
<time>2010-10-24T12:27:24.54</time>
<name>6781</name>
</trkpt>
<trkpt lat="48.943010" lon="8.666695">
<ele>338.0</ele>
<speed>1.25</speed>
<course>334.0</course>
<desc>Speed 4.5 km/h Distance 11.43 km</desc>
<time>2010-10-24T12:27:25.53</time>
<name>6782</name>
</trkpt>
<trkpt lat="48.943023" lon="8.666685">
<ele>338.0</ele>
<speed>1.60</speed>
<course>322.5</course>
<desc>Speed 5.8 km/h Distance 11.44 km</desc>
<time>2010-10-24T12:27:26.53</time>
<name>6783</name>
</trkpt>
<trkpt lat="48.943033" lon="8.666673">
<ele>338.0</ele>
<speed>1.37</speed>
<course>318.7</course>
<desc>Speed 4.9 km/h Distance 11.44 km</desc>
<time>2010-10-24T12:27:27.53</time>
<name>6784</name>
</trkpt>
<trkpt lat="48.943043" lon="8.666660">
<ele>338.0</ele>
<speed>1.44</speed>
<course>315.3</course>
<desc>Speed 5.2 km/h Distance 11.44 km</desc>
<time>2010-10-24T12:27:28.52</time>
<name>6785</name>
</trkpt>
<trkpt lat="48.943053" lon="8.666645">
<ele>338.5</ele>
<speed>1.46</speed>
<course>322.5</course>
<desc>Speed 5.3 km/h Distance 11.44 km</desc>
<time>2010-10-24T12:27:29.52</time>
<name>6786</name>
</trkpt>
<trkpt lat="48.943063" lon="8.666633">
<ele>339.0</ele>
<speed>1.45</speed>
<course>298.3</course>
<desc>Speed 5.2 km/h Distance 11.44 km</desc>
<time>2010-10-24T12:27:30.52</time>
<name>6787</name>
</trkpt>
<trkpt lat="48.943073" lon="8.666605">
<ele>339.0</ele>
<speed>2.28</speed>
<course>307.4</course>
<desc>Speed 8.2 km/h Distance 11.44 km</desc>
<time>2010-10-24T12:27:31.52</time>
<name>6788</name>
</trkpt>
<trkpt lat="48.943078" lon="8.666595">
<ele>339.0</ele>
<speed>0.76</speed>
<course>282.3</course>
<desc>Speed 2.7 km/h Distance 11.44 km</desc>
<time>2010-10-24T12:27:33.52</time>
<name>6789</name>
</trkpt>
<trkpt lat="48.943080" lon="8.666583">
<ele>339.5</ele>
<speed>0.69</speed>
<course>270.0</course>
<desc>Speed 2.5 km/h Distance 11.45 km</desc>
<time>2010-10-24T12:27:34.52</time>
<name>6790</name>
</trkpt>
<trkpt lat="48.943080" lon="8.666573">
<ele>339.5</ele>
<speed>0.68</speed>
<course>270.0</course>
<desc>Speed 2.4 km/h Distance 11.45 km</desc>
<time>2010-10-24T12:27:35.50</time>
<name>6791</name>
</trkpt>
<trkpt lat="48.943080" lon="8.666562">
<ele>340.0</ele>
<speed>0.72</speed>
<course>307.2</course>
<desc>Speed 2.6 km/h Distance 11.45 km</desc>
<time>2010-10-24T12:27:36.50</time>
<name>6792</name>
</trkpt>
<trkpt lat="48.943085" lon="8.666552">
<ele>340.0</ele>
<speed>0.86</speed>
<course>307.3</course>
<desc>Speed 3.1 km/h Distance 11.45 km</desc>
<time>2010-10-24T12:27:37.62</time>
<name>6793</name>
</trkpt>
<trkpt lat="48.943092" lon="8.666538">
<ele>340.0</ele>
<speed>1.20</speed>
<course>313.6</course>
<desc>Speed 4.3 km/h Distance 11.45 km</desc>
<time>2010-10-24T12:27:38.51</time>
<name>6794</name>
</trkpt>
<trkpt lat="48.943100" lon="8.666525">
<ele>339.5</ele>
<speed>1.16</speed>
<course>326.8</course>
<desc>Speed 4.2 km/h Distance 11.45 km</desc>
<time>2010-10-24T12:27:39.51</time>
<name>6795</name>
</trkpt>
<trkpt lat="48.943108" lon="8.666517">
<ele>338.5</ele>
<speed>0.94</speed>
<course>310.3</course>
<desc>Speed 3.4 km/h Distance 11.45 km</desc>
<time>2010-10-24T12:27:40.51</time>
<name>6796</name>
</trkpt>
<trkpt lat="48.943117" lon="8.666502">
<ele>338.0</ele>
<speed>1.23</speed>
<course>341.9</course>
<desc>Speed 4.4 km/h Distance 11.45 km</desc>
<time>2010-10-24T12:27:41.50</time>
<name>6797</name>
</trkpt>
<trkpt lat="48.943130" lon="8.666495">
<ele>337.5</ele>
<speed>1.46</speed>
<course>331.4</course>
<desc>Speed 5.3 km/h Distance 11.45 km</desc>
<time>2010-10-24T12:27:42.79</time>
<name>6798</name>
</trkpt>
<trkpt lat="48.943140" lon="8.666487">
<ele>337.0</ele>
<speed>1.14</speed>
<course>331.4</course>
<desc>Speed 4.1 km/h Distance 11.46 km</desc>
<time>2010-10-24T12:27:43.50</time>
<name>6799</name>
</trkpt>
</trkseg>
</trk>
</gpx>
